<?xml version="1.0" encoding="UTF-8" standalone="no" ?>
<gpx xmlns="http://www.topografix.com/GPX/1/1" xmlns:xsi="http://www.w3.org/2001/XMLSchema-instance" xsi:schemaLocation="http://www.topografix.com/GPX/1/1 http://www.topografix.com/GPX/1/1/gpx.xsd" version="1.1" creator="VisuGPX - https://www.visugpx.com">
  <metadata>
    <name>BTTAlt800-ActivitéTerminée-J05</name>
  </metadata>
  <trk>
    <name><![CDATA[BTTAlt800-ActivitéTerminée-J05_1]]></name>
    <trkseg>
      <trkpt lat="46.0133" lon="4.38113">
        <ele>446.2</ele>
        <time>2025-09-09T07:36:55Z</time>
      </trkpt>
      <trkpt lat="46.0133" lon="4.38111">
        <ele>446.2</ele>
        <time>2025-09-09T07:36:56Z</time>
      </trkpt>
      <trkpt lat="46.0133" lon="4.38108">
        <ele>446.2</ele>
        <time>2025-09-09T07:36:57Z</time>
      </trkpt>
      <trkpt lat="46.01329" lon="4.38105">
        <ele>446.2</ele>
        <time>2025-09-09T07:36:58Z</time>
      </trkpt>
      <trkpt lat="46.01328" lon="4.38103">
        <ele>446.2</ele>
        <time>2025-09-09T07:36:59Z</time>
      </trkpt>
      <trkpt lat="46.01327" lon="4.381">
        <ele>446.2</ele>
        <time>2025-09-09T07:37:00Z</time>
      </trkpt>
      <trkpt lat="46.01326" lon="4.38097">
        <ele>446.2</ele>
        <time>2025-09-09T07:37:01Z</time>
      </trkpt>
      <trkpt lat="46.01325" lon="4.38093">
        <ele>446.2</ele>
        <time>2025-09-09T07:37:02Z</time>
      </trkpt>
      <trkpt lat="46.01324" lon="4.38091">
        <ele>446.2</ele>
        <time>2025-09-09T07:37:03Z</time>
      </trkpt>
      <trkpt lat="46.01322" lon="4.38089">
        <ele>446.2</ele>
        <time>2025-09-09T07:37:04Z</time>
      </trkpt>
      <trkpt lat="46.0132" lon="4.38088">
        <ele>446.2</ele>
        <time>2025-09-09T07:37:05Z</time>
      </trkpt>
      <trkpt lat="46.01318" lon="4.38089">
        <ele>446.4</ele>
        <time>2025-09-09T07:37:06Z</time>
      </trkpt>
      <trkpt lat="46.01317" lon="4.38089">
        <ele>446.8</ele>
        <time>2025-09-09T07:37:07Z</time>
      </trkpt>
      <trkpt lat="46.01315" lon="4.38091">
        <ele>446.8</ele>
        <time>2025-09-09T07:37:08Z</time>
      </trkpt>
      <trkpt lat="46.01313" lon="4.38094">
        <ele>447</ele>
        <time>2025-09-09T07:37:09Z</time>
      </trkpt>
      <trkpt lat="46.01311" lon="4.38096">
        <ele>447.2</ele>
        <time>2025-09-09T07:37:10Z</time>
      </trkpt>
      <trkpt lat="46.0131" lon="4.38099">
        <ele>447.6</ele>
        <time>2025-09-09T07:37:11Z</time>
      </trkpt>
      <trkpt lat="46.01309" lon="4.38101">
        <ele>447.8</ele>
        <time>2025-09-09T07:37:12Z</time>
      </trkpt>
      <trkpt lat="46.01308" lon="4.38104">
        <ele>448.2</ele>
        <time>2025-09-09T07:37:13Z</time>
      </trkpt>
      <trkpt lat="46.01308" lon="4.38107">
        <ele>448.6</ele>
        <time>2025-09-09T07:37:14Z</time>
      </trkpt>
      <trkpt lat="46.01307" lon="4.38109">
        <ele>448.8</ele>
        <time>2025-09-09T07:37:15Z</time>
      </trkpt>
      <trkpt lat="46.01307" lon="4.38112">
        <ele>448.8</ele>
        <time>2025-09-09T07:37:16Z</time>
      </trkpt>
      <trkpt lat="46.01307" lon="4.38115">
        <ele>449</ele>
        <time>2025-09-09T07:37:17Z</time>
      </trkpt>
      <trkpt lat="46.01308" lon="4.38118">
        <ele>449</ele>
        <time>2025-09-09T07:37:18Z</time>
      </trkpt>
      <trkpt lat="46.01308" lon="4.3812">
        <ele>449.4</ele>
        <time>2025-09-09T07:37:19Z</time>
      </trkpt>
      <trkpt lat="46.01307" lon="4.38122">
        <ele>449.4</ele>
        <time>2025-09-09T07:37:20Z</time>
      </trkpt>
      <trkpt lat="46.01307" lon="4.38125">
        <ele>449.8</ele>
        <time>2025-09-09T07:37:21Z</time>
      </trkpt>
      <trkpt lat="46.01306" lon="4.38127">
        <ele>450</ele>
        <time>2025-09-09T07:37:22Z</time>
      </trkpt>
      <trkpt lat="46.01306" lon="4.38129">
        <ele>450</ele>
        <time>2025-09-09T07:37:23Z</time>
      </trkpt>
      <trkpt lat="46.01306" lon="4.3813">
        <ele>450</ele>
        <time>2025-09-09T07:37:24Z</time>
      </trkpt>
      <trkpt lat="46.01306" lon="4.38131">
        <ele>450</ele>
        <time>2025-09-09T07:37:25Z</time>
      </trkpt>
      <trkpt lat="46.01306" lon="4.38132">
        <ele>450.4</ele>
        <time>2025-09-09T07:37:26Z</time>
      </trkpt>
      <trkpt lat="46.01306" lon="4.38133">
        <ele>450.8</ele>
        <time>2025-09-09T07:37:27Z</time>
      </trkpt>
      <trkpt lat="46.01305" lon="4.38135">
        <ele>450.8</ele>
        <time>2025-09-09T07:37:28Z</time>
      </trkpt>
      <trkpt lat="46.01305" lon="4.38136">
        <ele>450.8</ele>
        <time>2025-09-09T07:37:29Z</time>
      </trkpt>
      <trkpt lat="46.01305" lon="4.38138">
        <ele>450.8</ele>
        <time>2025-09-09T07:37:30Z</time>
      </trkpt>
      <trkpt lat="46.01306" lon="4.38141">
        <ele>450.8</ele>
        <time>2025-09-09T07:37:31Z</time>
      </trkpt>
      <trkpt lat="46.01306" lon="4.38142">
        <ele>451</ele>
        <time>2025-09-09T07:37:32Z</time>
      </trkpt>
      <trkpt lat="46.01306" lon="4.38143">
        <ele>451</ele>
        <time>2025-09-09T07:37:33Z</time>
      </trkpt>
      <trkpt lat="46.01307" lon="4.38145">
        <ele>451</ele>
        <time>2025-09-09T07:37:34Z</time>
      </trkpt>
      <trkpt lat="46.01307" lon="4.38147">
        <ele>451</ele>
        <time>2025-09-09T07:37:35Z</time>
      </trkpt>
      <trkpt lat="46.01307" lon="4.38148">
        <ele>451.4</ele>
        <time>2025-09-09T07:37:36Z</time>
      </trkpt>
      <trkpt lat="46.01307" lon="4.38149">
        <ele>451.4</ele>
        <time>2025-09-09T07:37:37Z</time>
      </trkpt>
      <trkpt lat="46.01308" lon="4.38151">
        <ele>451.4</ele>
        <time>2025-09-09T07:37:38Z</time>
      </trkpt>
      <trkpt lat="46.01309" lon="4.38151">
        <ele>451.4</ele>
        <time>2025-09-09T07:37:39Z</time>
      </trkpt>
      <trkpt lat="46.0131" lon="4.38152">
        <ele>451.4</ele>
        <time>2025-09-09T07:37:40Z</time>
      </trkpt>
      <trkpt lat="46.0131" lon="4.38152">
        <ele>451.6</ele>
        <time>2025-09-09T07:37:41Z</time>
      </trkpt>
      <trkpt lat="46.01311" lon="4.38153">
        <ele>451.6</ele>
        <time>2025-09-09T07:37:42Z</time>
      </trkpt>
      <trkpt lat="46.01312" lon="4.38155">
        <ele>451.6</ele>
        <time>2025-09-09T07:37:43Z</time>
      </trkpt>
      <trkpt lat="46.01312" lon="4.38157">
        <ele>452</ele>
        <time>2025-09-09T07:37:44Z</time>
      </trkpt>
      <trkpt lat="46.01313" lon="4.38158">
        <ele>452.2</ele>
        <time>2025-09-09T07:37:45Z</time>
      </trkpt>
      <trkpt lat="46.01313" lon="4.3816">
        <ele>452.2</ele>
        <time>2025-09-09T07:37:46Z</time>
      </trkpt>
      <trkpt lat="46.01314" lon="4.3816">
        <ele>452.2</ele>
        <time>2025-09-09T07:37:47Z</time>
      </trkpt>
      <trkpt lat="46.01315" lon="4.38161">
        <ele>452.4</ele>
        <time>2025-09-09T07:37:48Z</time>
      </trkpt>
      <trkpt lat="46.01316" lon="4.38162">
        <ele>452.6</ele>
        <time>2025-09-09T07:37:49Z</time>
      </trkpt>
      <trkpt lat="46.01317" lon="4.38162">
        <ele>452.6</ele>
        <time>2025-09-09T07:37:50Z</time>
      </trkpt>
      <trkpt lat="46.01318" lon="4.38163">
        <ele>452.6</ele>
        <time>2025-09-09T07:37:51Z</time>
      </trkpt>
      <trkpt lat="46.01318" lon="4.38162">
        <ele>452.6</ele>
        <time>2025-09-09T07:37:52Z</time>
      </trkpt>
      <trkpt lat="46.0132" lon="4.38162">
        <ele>452.6</ele>
        <time>2025-09-09T07:37:57Z</time>
      </trkpt>
      <trkpt lat="46.01321" lon="4.38163">
        <ele>452.4</ele>
        <time>2025-09-09T07:37:58Z</time>
      </trkpt>
      <trkpt lat="46.01323" lon="4.38164">
        <ele>452.4</ele>
        <time>2025-09-09T07:37:59Z</time>
      </trkpt>
      <trkpt lat="46.01325" lon="4.38164">
        <ele>452.4</ele>
        <time>2025-09-09T07:38:00Z</time>
      </trkpt>
      <trkpt lat="46.01326" lon="4.38163">
        <ele>452.4</ele>
        <time>2025-09-09T07:38:01Z</time>
      </trkpt>
      <trkpt lat="46.01328" lon="4.38162">
        <ele>452.4</ele>
        <time>2025-09-09T07:38:02Z</time>
      </trkpt>
      <trkpt lat="46.0133" lon="4.38161">
        <ele>452.4</ele>
        <time>2025-09-09T07:38:03Z</time>
      </trkpt>
      <trkpt lat="46.01332" lon="4.3816">
        <ele>452.4</ele>
        <time>2025-09-09T07:38:04Z</time>
      </trkpt>
      <trkpt lat="46.01335" lon="4.38159">
        <ele>452.4</ele>
        <time>2025-09-09T07:38:05Z</time>
      </trkpt>
      <trkpt lat="46.01338" lon="4.38159">
        <ele>452.4</ele>
        <time>2025-09-09T07:38:06Z</time>
      </trkpt>
      <trkpt lat="46.0134" lon="4.38159">
        <ele>452.4</ele>
        <time>2025-09-09T07:38:07Z</time>
      </trkpt>
      <trkpt lat="46.01342" lon="4.38158">
        <ele>452.4</ele>
        <time>2025-09-09T07:38:08Z</time>
      </trkpt>
      <trkpt lat="46.01344" lon="4.38157">
        <ele>452.6</ele>
        <time>2025-09-09T07:38:09Z</time>
      </trkpt>
      <trkpt lat="46.01346" lon="4.38154">
        <ele>452.6</ele>
        <time>2025-09-09T07:38:10Z</time>
      </trkpt>
      <trkpt lat="46.01348" lon="4.38152">
        <ele>452.6</ele>
        <time>2025-09-09T07:38:11Z</time>
      </trkpt>
      <trkpt lat="46.0135" lon="4.3815">
        <ele>452.6</ele>
        <time>2025-09-09T07:38:12Z</time>
      </trkpt>
      <trkpt lat="46.01352" lon="4.38149">
        <ele>453</ele>
        <time>2025-09-09T07:38:13Z</time>
      </trkpt>
      <trkpt lat="46.01354" lon="4.38149">
        <ele>452.8</ele>
        <time>2025-09-09T07:38:14Z</time>
      </trkpt>
      <trkpt lat="46.01356" lon="4.38149">
        <ele>452.8</ele>
        <time>2025-09-09T07:38:15Z</time>
      </trkpt>
      <trkpt lat="46.01358" lon="4.38148">
        <ele>452.8</ele>
        <time>2025-09-09T07:38:16Z</time>
      </trkpt>
      <trkpt lat="46.0136" lon="4.38147">
        <ele>453.2</ele>
        <time>2025-09-09T07:38:17Z</time>
      </trkpt>
      <trkpt lat="46.01362" lon="4.38146">
        <ele>453.2</ele>
        <time>2025-09-09T07:38:18Z</time>
      </trkpt>
      <trkpt lat="46.01364" lon="4.38144">
        <ele>453.2</ele>
        <time>2025-09-09T07:38:19Z</time>
      </trkpt>
      <trkpt lat="46.01366" lon="4.38143">
        <ele>453.2</ele>
        <time>2025-09-09T07:38:20Z</time>
      </trkpt>
      <trkpt lat="46.01367" lon="4.38142">
        <ele>453.2</ele>
        <time>2025-09-09T07:38:21Z</time>
      </trkpt>
      <trkpt lat="46.01369" lon="4.38141">
        <ele>453.4</ele>
        <time>2025-09-09T07:38:22Z</time>
      </trkpt>
      <trkpt lat="46.01372" lon="4.3814">
        <ele>453.8</ele>
        <time>2025-09-09T07:38:23Z</time>
      </trkpt>
      <trkpt lat="46.01374" lon="4.38139">
        <ele>453.8</ele>
        <time>2025-09-09T07:38:24Z</time>
      </trkpt>
      <trkpt lat="46.01376" lon="4.38138">
        <ele>454</ele>
        <time>2025-09-09T07:38:25Z</time>
      </trkpt>
      <trkpt lat="46.01379" lon="4.38138">
        <ele>453.8</ele>
        <time>2025-09-09T07:38:26Z</time>
      </trkpt>
      <trkpt lat="46.01381" lon="4.38137">
        <ele>453.8</ele>
        <time>2025-09-09T07:38:27Z</time>
      </trkpt>
      <trkpt lat="46.01383" lon="4.38136">
        <ele>453.8</ele>
        <time>2025-09-09T07:38:28Z</time>
      </trkpt>
      <trkpt lat="46.01385" lon="4.38136">
        <ele>454</ele>
        <time>2025-09-09T07:38:29Z</time>
      </trkpt>
      <trkpt lat="46.01387" lon="4.38137">
        <ele>454</ele>
        <time>2025-09-09T07:38:30Z</time>
      </trkpt>
      <trkpt lat="46.01389" lon="4.38137">
        <ele>454</ele>
        <time>2025-09-09T07:38:31Z</time>
      </trkpt>
      <trkpt lat="46.01391" lon="4.38136">
        <ele>454</ele>
        <time>2025-09-09T07:38:32Z</time>
      </trkpt>
      <trkpt lat="46.01393" lon="4.38135">
        <ele>454.2</ele>
        <time>2025-09-09T07:38:33Z</time>
      </trkpt>
      <trkpt lat="46.01396" lon="4.38133">
        <ele>454.2</ele>
        <time>2025-09-09T07:38:34Z</time>
      </trkpt>
      <trkpt lat="46.01398" lon="4.38131">
        <ele>454.2</ele>
        <time>2025-09-09T07:38:35Z</time>
      </trkpt>
      <trkpt lat="46.014" lon="4.38129">
        <ele>454.2</ele>
        <time>2025-09-09T07:38:36Z</time>
      </trkpt>
      <trkpt lat="46.01403" lon="4.38127">
        <ele>454.6</ele>
        <time>2025-09-09T07:38:37Z</time>
      </trkpt>
      <trkpt lat="46.01405" lon="4.38126">
        <ele>454.6</ele>
        <time>2025-09-09T07:38:38Z</time>
      </trkpt>
      <trkpt lat="46.01408" lon="4.38124">
        <ele>454.6</ele>
        <time>2025-09-09T07:38:39Z</time>
      </trkpt>
      <trkpt lat="46.01408" lon="4.38124">
        <ele>454.6</ele>
        <time>2025-09-09T07:38:40Z</time>
      </trkpt>
      <trkpt lat="46.01412" lon="4.38123">
        <ele>454.6</ele>
        <time>2025-09-09T07:38:41Z</time>
      </trkpt>
      <trkpt lat="46.01415" lon="4.38121">
        <ele>454.6</ele>
        <time>2025-09-09T07:38:42Z</time>
      </trkpt>
      <trkpt lat="46.01418" lon="4.3812">
        <ele>454.6</ele>
        <time>2025-09-09T07:38:43Z</time>
      </trkpt>
      <trkpt lat="46.01421" lon="4.38119">
        <ele>454.8</ele>
        <time>2025-09-09T07:38:44Z</time>
      </trkpt>
      <trkpt lat="46.01424" lon="4.38118">
        <ele>454.8</ele>
        <time>2025-09-09T07:38:45Z</time>
      </trkpt>
      <trkpt lat="46.01427" lon="4.38118">
        <ele>454.8</ele>
        <time>2025-09-09T07:38:46Z</time>
      </trkpt>
      <trkpt lat="46.0143" lon="4.38116">
        <ele>455</ele>
        <time>2025-09-09T07:38:47Z</time>
      </trkpt>
      <trkpt lat="46.01434" lon="4.38115">
        <ele>455</ele>
        <time>2025-09-09T07:38:48Z</time>
      </trkpt>
      <trkpt lat="46.01437" lon="4.38113">
        <ele>455</ele>
        <time>2025-09-09T07:38:49Z</time>
      </trkpt>
      <trkpt lat="46.0144" lon="4.38112">
        <ele>455</ele>
        <time>2025-09-09T07:38:50Z</time>
      </trkpt>
      <trkpt lat="46.01443" lon="4.38111">
        <ele>455</ele>
        <time>2025-09-09T07:38:51Z</time>
      </trkpt>
      <trkpt lat="46.01446" lon="4.3811">
        <ele>455</ele>
        <time>2025-09-09T07:38:52Z</time>
      </trkpt>
      <trkpt lat="46.0145" lon="4.3811">
        <ele>455</ele>
        <time>2025-09-09T07:38:53Z</time>
      </trkpt>
      <trkpt lat="46.01453" lon="4.3811">
        <ele>455</ele>
        <time>2025-09-09T07:38:54Z</time>
      </trkpt>
      <trkpt lat="46.01457" lon="4.38109">
        <ele>455</ele>
        <time>2025-09-09T07:38:55Z</time>
      </trkpt>
      <trkpt lat="46.0146" lon="4.38108">
        <ele>455</ele>
        <time>2025-09-09T07:38:56Z</time>
      </trkpt>
      <trkpt lat="46.01464" lon="4.38107">
        <ele>455</ele>
        <time>2025-09-09T07:38:57Z</time>
      </trkpt>
      <trkpt lat="46.01467" lon="4.38106">
        <ele>455</ele>
        <time>2025-09-09T07:38:58Z</time>
      </trkpt>
      <trkpt lat="46.01471" lon="4.38106">
        <ele>455</ele>
        <time>2025-09-09T07:38:59Z</time>
      </trkpt>
      <trkpt lat="46.01474" lon="4.38105">
        <ele>455.4</ele>
        <time>2025-09-09T07:39:00Z</time>
      </trkpt>
      <trkpt lat="46.01477" lon="4.38104">
        <ele>455.4</ele>
        <time>2025-09-09T07:39:01Z</time>
      </trkpt>
      <trkpt lat="46.01481" lon="4.38103">
        <ele>455.4</ele>
        <time>2025-09-09T07:39:02Z</time>
      </trkpt>
      <trkpt lat="46.01484" lon="4.38102">
        <ele>455.4</ele>
        <time>2025-09-09T07:39:03Z</time>
      </trkpt>
      <trkpt lat="46.01487" lon="4.381">
        <ele>455.4</ele>
        <time>2025-09-09T07:39:04Z</time>
      </trkpt>
      <trkpt lat="46.01491" lon="4.381">
        <ele>455.4</ele>
        <time>2025-09-09T07:39:05Z</time>
      </trkpt>
      <trkpt lat="46.01494" lon="4.38099">
        <ele>455.4</ele>
        <time>2025-09-09T07:39:06Z</time>
      </trkpt>
      <trkpt lat="46.01498" lon="4.38098">
        <ele>455.4</ele>
        <time>2025-09-09T07:39:07Z</time>
      </trkpt>
      <trkpt lat="46.01502" lon="4.38097">
        <ele>455.4</ele>
        <time>2025-09-09T07:39:08Z</time>
      </trkpt>
      <trkpt lat="46.01505" lon="4.38097">
        <ele>455.4</ele>
        <time>2025-09-09T07:39:09Z</time>
      </trkpt>
      <trkpt lat="46.01508" lon="4.38096">
        <ele>455.6</ele>
        <time>2025-09-09T07:39:10Z</time>
      </trkpt>
      <trkpt lat="46.01512" lon="4.38095">
        <ele>455.6</ele>
        <time>2025-09-09T07:39:11Z</time>
      </trkpt>
      <trkpt lat="46.01516" lon="4.38094">
        <ele>455.6</ele>
        <time>2025-09-09T07:39:12Z</time>
      </trkpt>
      <trkpt lat="46.01519" lon="4.38093">
        <ele>455.6</ele>
        <time>2025-09-09T07:39:13Z</time>
      </trkpt>
      <trkpt lat="46.01523" lon="4.38092">
        <ele>455.6</ele>
        <time>2025-09-09T07:39:14Z</time>
      </trkpt>
      <trkpt lat="46.01527" lon="4.38091">
        <ele>455.6</ele>
        <time>2025-09-09T07:39:15Z</time>
      </trkpt>
      <trkpt lat="46.01531" lon="4.3809">
        <ele>455.6</ele>
        <time>2025-09-09T07:39:16Z</time>
      </trkpt>
      <trkpt lat="46.01535" lon="4.38088">
        <ele>455.6</ele>
        <time>2025-09-09T07:39:17Z</time>
      </trkpt>
      <trkpt lat="46.01539" lon="4.38087">
        <ele>455.6</ele>
        <time>2025-09-09T07:39:18Z</time>
      </trkpt>
      <trkpt lat="46.01543" lon="4.38086">
        <ele>455.6</ele>
        <time>2025-09-09T07:39:19Z</time>
      </trkpt>
      <trkpt lat="46.01547" lon="4.38085">
        <ele>455.6</ele>
        <time>2025-09-09T07:39:20Z</time>
      </trkpt>
      <trkpt lat="46.01551" lon="4.38084">
        <ele>455.6</ele>
        <time>2025-09-09T07:39:21Z</time>
      </trkpt>
      <trkpt lat="46.01555" lon="4.38083">
        <ele>455.6</ele>
        <time>2025-09-09T07:39:22Z</time>
      </trkpt>
      <trkpt lat="46.01559" lon="4.38082">
        <ele>455.6</ele>
        <time>2025-09-09T07:39:23Z</time>
      </trkpt>
      <trkpt lat="46.01563" lon="4.38081">
        <ele>455.6</ele>
        <time>2025-09-09T07:39:24Z</time>
      </trkpt>
      <trkpt lat="46.01568" lon="4.3808">
        <ele>455.6</ele>
        <time>2025-09-09T07:39:25Z</time>
      </trkpt>
      <trkpt lat="46.01572" lon="4.38079">
        <ele>455.6</ele>
        <time>2025-09-09T07:39:26Z</time>
      </trkpt>
      <trkpt lat="46.01576" lon="4.38077">
        <ele>455.6</ele>
        <time>2025-09-09T07:39:27Z</time>
      </trkpt>
      <trkpt lat="46.01581" lon="4.38077">
        <ele>455.6</ele>
        <time>2025-09-09T07:39:28Z</time>
      </trkpt>
      <trkpt lat="46.01586" lon="4.38076">
        <ele>455.6</ele>
        <time>2025-09-09T07:39:29Z</time>
      </trkpt>
      <trkpt lat="46.01591" lon="4.38074">
        <ele>455.6</ele>
        <time>2025-09-09T07:39:30Z</time>
      </trkpt>
      <trkpt lat="46.01595" lon="4.38074">
        <ele>455.6</ele>
        <time>2025-09-09T07:39:31Z</time>
      </trkpt>
      <trkpt lat="46.01599" lon="4.38072">
        <ele>455.6</ele>
        <time>2025-09-09T07:39:32Z</time>
      </trkpt>
      <trkpt lat="46.01604" lon="4.38071">
        <ele>455.6</ele>
        <time>2025-09-09T07:39:33Z</time>
      </trkpt>
      <trkpt lat="46.01608" lon="4.3807">
        <ele>455.4</ele>
        <time>2025-09-09T07:39:34Z</time>
      </trkpt>
      <trkpt lat="46.01612" lon="4.38068">
        <ele>455.4</ele>
        <time>2025-09-09T07:39:35Z</time>
      </trkpt>
      <trkpt lat="46.01617" lon="4.38067">
        <ele>455.2</ele>
        <time>2025-09-09T07:39:36Z</time>
      </trkpt>
      <trkpt lat="46.01621" lon="4.38066">
        <ele>455.2</ele>
        <time>2025-09-09T07:39:37Z</time>
      </trkpt>
      <trkpt lat="46.01626" lon="4.38065">
        <ele>455.4</ele>
        <time>2025-09-09T07:39:38Z</time>
      </trkpt>
      <trkpt lat="46.0163" lon="4.38063">
        <ele>455.4</ele>
        <time>2025-09-09T07:39:39Z</time>
      </trkpt>
      <trkpt lat="46.01635" lon="4.38063">
        <ele>455.4</ele>
        <time>2025-09-09T07:39:40Z</time>
      </trkpt>
      <trkpt lat="46.01639" lon="4.38061">
        <ele>455.4</ele>
        <time>2025-09-09T07:39:41Z</time>
      </trkpt>
      <trkpt lat="46.01644" lon="4.3806">
        <ele>455.4</ele>
        <time>2025-09-09T07:39:42Z</time>
      </trkpt>
      <trkpt lat="46.01649" lon="4.38061">
        <ele>455.4</ele>
        <time>2025-09-09T07:39:43Z</time>
      </trkpt>
      <trkpt lat="46.01653" lon="4.38059">
        <ele>455.4</ele>
        <time>2025-09-09T07:39:44Z</time>
      </trkpt>
      <trkpt lat="46.01658" lon="4.38059">
        <ele>455.4</ele>
        <time>2025-09-09T07:39:45Z</time>
      </trkpt>
      <trkpt lat="46.01662" lon="4.38057">
        <ele>455.4</ele>
        <time>2025-09-09T07:39:46Z</time>
      </trkpt>
      <trkpt lat="46.01667" lon="4.38058">
        <ele>455.4</ele>
        <time>2025-09-09T07:39:47Z</time>
      </trkpt>
      <trkpt lat="46.01672" lon="4.38057">
        <ele>455.4</ele>
        <time>2025-09-09T07:39:48Z</time>
      </trkpt>
      <trkpt lat="46.01677" lon="4.38057">
        <ele>455.4</ele>
        <time>2025-09-09T07:39:49Z</time>
      </trkpt>
      <trkpt lat="46.01683" lon="4.38057">
        <ele>455.4</ele>
        <time>2025-09-09T07:39:50Z</time>
      </trkpt>
      <trkpt lat="46.01688" lon="4.38058">
        <ele>455.4</ele>
        <time>2025-09-09T07:39:51Z</time>
      </trkpt>
      <trkpt lat="46.01694" lon="4.38058">
        <ele>455</ele>
        <time>2025-09-09T07:39:52Z</time>
      </trkpt>
      <trkpt lat="46.01699" lon="4.38059">
        <ele>455</ele>
        <time>2025-09-09T07:39:53Z</time>
      </trkpt>
      <trkpt lat="46.01704" lon="4.38059">
        <ele>455</ele>
        <time>2025-09-09T07:39:54Z</time>
      </trkpt>
      <trkpt lat="46.0171" lon="4.3806">
        <ele>454.6</ele>
        <time>2025-09-09T07:39:55Z</time>
      </trkpt>
      <trkpt lat="46.01715" lon="4.3806">
        <ele>454.4</ele>
        <time>2025-09-09T07:39:56Z</time>
      </trkpt>
      <trkpt lat="46.0172" lon="4.3806">
        <ele>454.4</ele>
        <time>2025-09-09T07:39:57Z</time>
      </trkpt>
      <trkpt lat="46.01725" lon="4.3806">
        <ele>454.4</ele>
        <time>2025-09-09T07:39:58Z</time>
      </trkpt>
      <trkpt lat="46.0173" lon="4.38061">
        <ele>454.4</ele>
        <time>2025-09-09T07:39:59Z</time>
      </trkpt>
      <trkpt lat="46.01736" lon="4.38062">
        <ele>454.4</ele>
        <time>2025-09-09T07:40:00Z</time>
      </trkpt>
      <trkpt lat="46.01741" lon="4.38063">
        <ele>454.4</ele>
        <time>2025-09-09T07:40:01Z</time>
      </trkpt>
      <trkpt lat="46.01745" lon="4.38067">
        <ele>454.2</ele>
        <time>2025-09-09T07:40:02Z</time>
      </trkpt>
      <trkpt lat="46.01748" lon="4.38073">
        <ele>454.2</ele>
        <time>2025-09-09T07:40:03Z</time>
      </trkpt>
      <trkpt lat="46.0175" lon="4.38079">
        <ele>454.2</ele>
        <time>2025-09-09T07:40:04Z</time>
      </trkpt>
      <trkpt lat="46.01753" lon="4.38085">
        <ele>454.2</ele>
        <time>2025-09-09T07:40:05Z</time>
      </trkpt>
      <trkpt lat="46.0175" lon="4.38086">
        <ele>454.4</ele>
        <time>2025-09-09T07:40:06Z</time>
      </trkpt>
      <trkpt lat="46.01751" lon="4.3809">
        <ele>454.8</ele>
        <time>2025-09-09T07:40:07Z</time>
      </trkpt>
      <trkpt lat="46.0175" lon="4.38092">
        <ele>455</ele>
        <time>2025-09-09T07:40:08Z</time>
      </trkpt>
      <trkpt lat="46.0175" lon="4.38094">
        <ele>455.2</ele>
        <time>2025-09-09T07:40:09Z</time>
      </trkpt>
      <trkpt lat="46.01749" lon="4.38096">
        <ele>455.6</ele>
        <time>2025-09-09T07:40:10Z</time>
      </trkpt>
      <trkpt lat="46.01748" lon="4.38099">
        <ele>455.8</ele>
        <time>2025-09-09T07:40:11Z</time>
      </trkpt>
      <trkpt lat="46.01748" lon="4.38101">
        <ele>456.2</ele>
        <time>2025-09-09T07:40:12Z</time>
      </trkpt>
      <trkpt lat="46.01747" lon="4.38102">
        <ele>456.4</ele>
        <time>2025-09-09T07:40:13Z</time>
      </trkpt>
      <trkpt lat="46.01746" lon="4.38104">
        <ele>456.4</ele>
        <time>2025-09-09T07:40:14Z</time>
      </trkpt>
      <trkpt lat="46.01746" lon="4.38106">
        <ele>456.8</ele>
        <time>2025-09-09T07:40:15Z</time>
      </trkpt>
      <trkpt lat="46.01745" lon="4.38108">
        <ele>457.2</ele>
        <time>2025-09-09T07:40:16Z</time>
      </trkpt>
      <trkpt lat="46.01744" lon="4.3811">
        <ele>457.2</ele>
        <time>2025-09-09T07:40:17Z</time>
      </trkpt>
      <trkpt lat="46.01743" lon="4.38113">
        <ele>457.4</ele>
        <time>2025-09-09T07:40:18Z</time>
      </trkpt>
      <trkpt lat="46.01742" lon="4.38115">
        <ele>457.6</ele>
        <time>2025-09-09T07:40:19Z</time>
      </trkpt>
      <trkpt lat="46.01742" lon="4.38117">
        <ele>458</ele>
        <time>2025-09-09T07:40:20Z</time>
      </trkpt>
      <trkpt lat="46.01741" lon="4.3812">
        <ele>458.4</ele>
        <time>2025-09-09T07:40:21Z</time>
      </trkpt>
      <trkpt lat="46.0174" lon="4.38122">
        <ele>458.4</ele>
        <time>2025-09-09T07:40:22Z</time>
      </trkpt>
      <trkpt lat="46.01739" lon="4.38125">
        <ele>458.6</ele>
        <time>2025-09-09T07:40:23Z</time>
      </trkpt>
      <trkpt lat="46.01738" lon="4.38127">
        <ele>458.6</ele>
        <time>2025-09-09T07:40:24Z</time>
      </trkpt>
      <trkpt lat="46.01738" lon="4.38129">
        <ele>459</ele>
        <time>2025-09-09T07:40:25Z</time>
      </trkpt>
      <trkpt lat="46.01738" lon="4.38131">
        <ele>459.2</ele>
        <time>2025-09-09T07:40:26Z</time>
      </trkpt>
      <trkpt lat="46.01737" lon="4.38133">
        <ele>459.4</ele>
        <time>2025-09-09T07:40:27Z</time>
      </trkpt>
      <trkpt lat="46.01737" lon="4.38135">
        <ele>459.6</ele>
        <time>2025-09-09T07:40:28Z</time>
      </trkpt>
      <trkpt lat="46.01737" lon="4.38136">
        <ele>459.6</ele>
        <time>2025-09-09T07:40:29Z</time>
      </trkpt>
      <trkpt lat="46.01737" lon="4.38136">
        <ele>460.2</ele>
        <time>2025-09-09T07:40:30Z</time>
      </trkpt>
      <trkpt lat="46.01738" lon="4.38137">
        <ele>460.4</ele>
        <time>2025-09-09T07:40:35Z</time>
      </trkpt>
      <trkpt lat="46.01738" lon="4.38138">
        <ele>460.6</ele>
        <time>2025-09-09T07:40:36Z</time>
      </trkpt>
      <trkpt lat="46.01738" lon="4.3814">
        <ele>460.6</ele>
        <time>2025-09-09T07:40:37Z</time>
      </trkpt>
      <trkpt lat="46.01737" lon="4.38142">
        <ele>460.6</ele>
        <time>2025-09-09T07:40:38Z</time>
      </trkpt>
      <trkpt lat="46.01737" lon="4.38143">
        <ele>461</ele>
        <time>2025-09-09T07:40:39Z</time>
      </trkpt>
      <trkpt lat="46.01737" lon="4.38144">
        <ele>461.2</ele>
        <time>2025-09-09T07:40:40Z</time>
      </trkpt>
      <trkpt lat="46.01736" lon="4.38147">
        <ele>461.6</ele>
        <time>2025-09-09T07:40:41Z</time>
      </trkpt>
      <trkpt lat="46.01736" lon="4.38148">
        <ele>461.6</ele>
        <time>2025-09-09T07:40:42Z</time>
      </trkpt>
      <trkpt lat="46.01735" lon="4.38148">
        <ele>461.8</ele>
        <time>2025-09-09T07:40:43Z</time>
      </trkpt>
      <trkpt lat="46.01734" lon="4.38149">
        <ele>461.8</ele>
        <time>2025-09-09T07:40:44Z</time>
      </trkpt>
      <trkpt lat="46.01733" lon="4.3815">
        <ele>462.2</ele>
        <time>2025-09-09T07:40:45Z</time>
      </trkpt>
      <trkpt lat="46.01733" lon="4.38151">
        <ele>462.4</ele>
        <time>2025-09-09T07:40:46Z</time>
      </trkpt>
      <trkpt lat="46.01733" lon="4.38152">
        <ele>462.4</ele>
        <time>2025-09-09T07:40:47Z</time>
      </trkpt>
      <trkpt lat="46.01732" lon="4.38153">
        <ele>462.8</ele>
        <time>2025-09-09T07:40:48Z</time>
      </trkpt>
      <trkpt lat="46.01732" lon="4.38154">
        <ele>462.8</ele>
        <time>2025-09-09T07:40:49Z</time>
      </trkpt>
      <trkpt lat="46.01732" lon="4.38156">
        <ele>463.2</ele>
        <time>2025-09-09T07:40:50Z</time>
      </trkpt>
      <trkpt lat="46.01731" lon="4.38157">
        <ele>463.6</ele>
        <time>2025-09-09T07:40:51Z</time>
      </trkpt>
      <trkpt lat="46.01731" lon="4.38158">
        <ele>463.6</ele>
        <time>2025-09-09T07:40:52Z</time>
      </trkpt>
      <trkpt lat="46.01731" lon="4.38159">
        <ele>464</ele>
        <time>2025-09-09T07:40:53Z</time>
      </trkpt>
      <trkpt lat="46.01731" lon="4.3816">
        <ele>464.2</ele>
        <time>2025-09-09T07:40:54Z</time>
      </trkpt>
      <trkpt lat="46.0173" lon="4.38161">
        <ele>464.2</ele>
        <time>2025-09-09T07:40:55Z</time>
      </trkpt>
      <trkpt lat="46.0173" lon="4.38162">
        <ele>464.4</ele>
        <time>2025-09-09T07:40:56Z</time>
      </trkpt>
      <trkpt lat="46.01729" lon="4.38163">
        <ele>464.4</ele>
        <time>2025-09-09T07:40:57Z</time>
      </trkpt>
      <trkpt lat="46.01729" lon="4.38164">
        <ele>464.8</ele>
        <time>2025-09-09T07:40:58Z</time>
      </trkpt>
      <trkpt lat="46.01729" lon="4.38166">
        <ele>464.8</ele>
        <time>2025-09-09T07:40:59Z</time>
      </trkpt>
      <trkpt lat="46.01728" lon="4.38166">
        <ele>464.8</ele>
        <time>2025-09-09T07:41:00Z</time>
      </trkpt>
      <trkpt lat="46.01728" lon="4.38167">
        <ele>465.2</ele>
        <time>2025-09-09T07:41:01Z</time>
      </trkpt>
      <trkpt lat="46.01728" lon="4.38168">
        <ele>465.4</ele>
        <time>2025-09-09T07:41:02Z</time>
      </trkpt>
      <trkpt lat="46.01728" lon="4.38169">
        <ele>465.8</ele>
        <time>2025-09-09T07:41:03Z</time>
      </trkpt>
      <trkpt lat="46.01728" lon="4.3817">
        <ele>465.8</ele>
        <time>2025-09-09T07:41:04Z</time>
      </trkpt>
      <trkpt lat="46.01729" lon="4.38171">
        <ele>466</ele>
        <time>2025-09-09T07:41:05Z</time>
      </trkpt>
      <trkpt lat="46.01729" lon="4.38173">
        <ele>466</ele>
        <time>2025-09-09T07:41:06Z</time>
      </trkpt>
      <trkpt lat="46.01729" lon="4.38173">
        <ele>466.4</ele>
        <time>2025-09-09T07:41:07Z</time>
      </trkpt>
      <trkpt lat="46.01728" lon="4.38174">
        <ele>466.4</ele>
        <time>2025-09-09T07:41:08Z</time>
      </trkpt>
      <trkpt lat="46.01728" lon="4.38175">
        <ele>466.6</ele>
        <time>2025-09-09T07:41:09Z</time>
      </trkpt>
      <trkpt lat="46.01728" lon="4.38176">
        <ele>466.6</ele>
        <time>2025-09-09T07:41:10Z</time>
      </trkpt>
      <trkpt lat="46.01728" lon="4.38176">
        <ele>467</ele>
        <time>2025-09-09T07:41:11Z</time>
      </trkpt>
      <trkpt lat="46.01728" lon="4.38176">
        <ele>467.2</ele>
        <time>2025-09-09T07:41:12Z</time>
      </trkpt>
      <trkpt lat="46.01728" lon="4.38176">
        <ele>467.2</ele>
        <time>2025-09-09T07:41:13Z</time>
      </trkpt>
      <trkpt lat="46.01728" lon="4.38179">
        <ele>467.2</ele>
        <time>2025-09-09T07:41:14Z</time>
      </trkpt>
      <trkpt lat="46.01728" lon="4.3818">
        <ele>467.6</ele>
        <time>2025-09-09T07:41:15Z</time>
      </trkpt>
      <trkpt lat="46.01728" lon="4.38181">
        <ele>467.6</ele>
        <time>2025-09-09T07:41:16Z</time>
      </trkpt>
      <trkpt lat="46.01728" lon="4.38183">
        <ele>467.8</ele>
        <time>2025-09-09T07:41:17Z</time>
      </trkpt>
      <trkpt lat="46.01728" lon="4.38184">
        <ele>467.8</ele>
        <time>2025-09-09T07:41:18Z</time>
      </trkpt>
      <trkpt lat="46.01729" lon="4.38185">
        <ele>468.2</ele>
        <time>2025-09-09T07:41:19Z</time>
      </trkpt>
      <trkpt lat="46.01729" lon="4.38186">
        <ele>468.2</ele>
        <time>2025-09-09T07:41:20Z</time>
      </trkpt>
      <trkpt lat="46.01729" lon="4.38187">
        <ele>468.4</ele>
        <time>2025-09-09T07:41:21Z</time>
      </trkpt>
      <trkpt lat="46.0173" lon="4.38188">
        <ele>468.4</ele>
        <time>2025-09-09T07:41:22Z</time>
      </trkpt>
      <trkpt lat="46.0173" lon="4.38189">
        <ele>468.8</ele>
        <time>2025-09-09T07:41:23Z</time>
      </trkpt>
      <trkpt lat="46.01729" lon="4.3819">
        <ele>468.8</ele>
        <time>2025-09-09T07:41:24Z</time>
      </trkpt>
      <trkpt lat="46.01729" lon="4.38192">
        <ele>469</ele>
        <time>2025-09-09T07:41:25Z</time>
      </trkpt>
      <trkpt lat="46.01729" lon="4.38193">
        <ele>469</ele>
        <time>2025-09-09T07:41:26Z</time>
      </trkpt>
      <trkpt lat="46.01729" lon="4.38196">
        <ele>469.4</ele>
        <time>2025-09-09T07:41:27Z</time>
      </trkpt>
      <trkpt lat="46.01729" lon="4.38197">
        <ele>469.4</ele>
        <time>2025-09-09T07:41:28Z</time>
      </trkpt>
      <trkpt lat="46.01729" lon="4.38198">
        <ele>469.8</ele>
        <time>2025-09-09T07:41:29Z</time>
      </trkpt>
      <trkpt lat="46.01729" lon="4.382">
        <ele>469.8</ele>
        <time>2025-09-09T07:41:30Z</time>
      </trkpt>
      <trkpt lat="46.0173" lon="4.38202">
        <ele>470.2</ele>
        <time>2025-09-09T07:41:31Z</time>
      </trkpt>
      <trkpt lat="46.0173" lon="4.38203">
        <ele>470.2</ele>
        <time>2025-09-09T07:41:32Z</time>
      </trkpt>
      <trkpt lat="46.0173" lon="4.38204">
        <ele>470.6</ele>
        <time>2025-09-09T07:41:33Z</time>
      </trkpt>
      <trkpt lat="46.0173" lon="4.38206">
        <ele>470.8</ele>
        <time>2025-09-09T07:41:34Z</time>
      </trkpt>
      <trkpt lat="46.0173" lon="4.38207">
        <ele>470.8</ele>
        <time>2025-09-09T07:41:35Z</time>
      </trkpt>
      <trkpt lat="46.0173" lon="4.38209">
        <ele>471</ele>
        <time>2025-09-09T07:41:36Z</time>
      </trkpt>
      <trkpt lat="46.01731" lon="4.3821">
        <ele>471</ele>
        <time>2025-09-09T07:41:37Z</time>
      </trkpt>
      <trkpt lat="46.01731" lon="4.38212">
        <ele>471.4</ele>
        <time>2025-09-09T07:41:38Z</time>
      </trkpt>
      <trkpt lat="46.01731" lon="4.38213">
        <ele>471.4</ele>
        <time>2025-09-09T07:41:39Z</time>
      </trkpt>
      <trkpt lat="46.01732" lon="4.38214">
        <ele>471.6</ele>
        <time>2025-09-09T07:41:40Z</time>
      </trkpt>
      <trkpt lat="46.01732" lon="4.38215">
        <ele>471.8</ele>
        <time>2025-09-09T07:41:41Z</time>
      </trkpt>
      <trkpt lat="46.01732" lon="4.38217">
        <ele>471.8</ele>
        <time>2025-09-09T07:41:42Z</time>
      </trkpt>
      <trkpt lat="46.01732" lon="4.38218">
        <ele>472</ele>
        <time>2025-09-09T07:41:43Z</time>
      </trkpt>
      <trkpt lat="46.01732" lon="4.3822">
        <ele>472</ele>
        <time>2025-09-09T07:41:44Z</time>
      </trkpt>
      <trkpt lat="46.01732" lon="4.38221">
        <ele>472.4</ele>
        <time>2025-09-09T07:41:45Z</time>
      </trkpt>
      <trkpt lat="46.01732" lon="4.38222">
        <ele>472.4</ele>
        <time>2025-09-09T07:41:46Z</time>
      </trkpt>
      <trkpt lat="46.01732" lon="4.38222">
        <ele>472.4</ele>
        <time>2025-09-09T07:41:47Z</time>
      </trkpt>
      <trkpt lat="46.01732" lon="4.38223">
        <ele>473.2</ele>
        <time>2025-09-09T07:41:48Z</time>
      </trkpt>
      <trkpt lat="46.01732" lon="4.38224">
        <ele>473.2</ele>
        <time>2025-09-09T07:41:49Z</time>
      </trkpt>
      <trkpt lat="46.01732" lon="4.38226">
        <ele>473</ele>
        <time>2025-09-09T07:41:50Z</time>
      </trkpt>
      <trkpt lat="46.01732" lon="4.38227">
        <ele>473</ele>
        <time>2025-09-09T07:41:51Z</time>
      </trkpt>
      <trkpt lat="46.01732" lon="4.38228">
        <ele>473</ele>
        <time>2025-09-09T07:41:52Z</time>
      </trkpt>
      <trkpt lat="46.01731" lon="4.3823">
        <ele>473</ele>
        <time>2025-09-09T07:41:53Z</time>
      </trkpt>
      <trkpt lat="46.01731" lon="4.38231">
        <ele>473.2</ele>
        <time>2025-09-09T07:41:54Z</time>
      </trkpt>
      <trkpt lat="46.01731" lon="4.38232">
        <ele>473.2</ele>
        <time>2025-09-09T07:41:55Z</time>
      </trkpt>
      <trkpt lat="46.01732" lon="4.38234">
        <ele>473.2</ele>
        <time>2025-09-09T07:41:56Z</time>
      </trkpt>
      <trkpt lat="46.01732" lon="4.38235">
        <ele>473.4</ele>
        <time>2025-09-09T07:41:57Z</time>
      </trkpt>
      <trkpt lat="46.01732" lon="4.38237">
        <ele>473.4</ele>
        <time>2025-09-09T07:41:58Z</time>
      </trkpt>
      <trkpt lat="46.01733" lon="4.38239">
        <ele>473.8</ele>
        <time>2025-09-09T07:41:59Z</time>
      </trkpt>
      <trkpt lat="46.01733" lon="4.3824">
        <ele>474.2</ele>
        <time>2025-09-09T07:42:00Z</time>
      </trkpt>
      <trkpt lat="46.01733" lon="4.38241">
        <ele>474.2</ele>
        <time>2025-09-09T07:42:01Z</time>
      </trkpt>
      <trkpt lat="46.01733" lon="4.38243">
        <ele>474.4</ele>
        <time>2025-09-09T07:42:02Z</time>
      </trkpt>
      <trkpt lat="46.01732" lon="4.38245">
        <ele>474.4</ele>
        <time>2025-09-09T07:42:03Z</time>
      </trkpt>
      <trkpt lat="46.01732" lon="4.38247">
        <ele>474.4</ele>
        <time>2025-09-09T07:42:04Z</time>
      </trkpt>
      <trkpt lat="46.01732" lon="4.38248">
        <ele>474.6</ele>
        <time>2025-09-09T07:42:05Z</time>
      </trkpt>
      <trkpt lat="46.01732" lon="4.38249">
        <ele>474.6</ele>
        <time>2025-09-09T07:42:06Z</time>
      </trkpt>
      <trkpt lat="46.01732" lon="4.38251">
        <ele>475</ele>
        <time>2025-09-09T07:42:07Z</time>
      </trkpt>
      <trkpt lat="46.01732" lon="4.38252">
        <ele>475</ele>
        <time>2025-09-09T07:42:08Z</time>
      </trkpt>
      <trkpt lat="46.01732" lon="4.38253">
        <ele>475.2</ele>
        <time>2025-09-09T07:42:09Z</time>
      </trkpt>
      <trkpt lat="46.01732" lon="4.38254">
        <ele>475.2</ele>
        <time>2025-09-09T07:42:10Z</time>
      </trkpt>
      <trkpt lat="46.01732" lon="4.38254">
        <ele>475.6</ele>
        <time>2025-09-09T07:42:11Z</time>
      </trkpt>
      <trkpt lat="46.01732" lon="4.38255">
        <ele>475.6</ele>
        <time>2025-09-09T07:42:12Z</time>
      </trkpt>
      <trkpt lat="46.01731" lon="4.38256">
        <ele>475.8</ele>
        <time>2025-09-09T07:42:13Z</time>
      </trkpt>
      <trkpt lat="46.01731" lon="4.38257">
        <ele>476.2</ele>
        <time>2025-09-09T07:42:14Z</time>
      </trkpt>
      <trkpt lat="46.01731" lon="4.38259">
        <ele>476.4</ele>
        <time>2025-09-09T07:42:15Z</time>
      </trkpt>
      <trkpt lat="46.01731" lon="4.38261">
        <ele>476.4</ele>
        <time>2025-09-09T07:42:16Z</time>
      </trkpt>
      <trkpt lat="46.01731" lon="4.38262">
        <ele>476.6</ele>
        <time>2025-09-09T07:42:17Z</time>
      </trkpt>
      <trkpt lat="46.01731" lon="4.38263">
        <ele>477</ele>
        <time>2025-09-09T07:42:18Z</time>
      </trkpt>
      <trkpt lat="46.01731" lon="4.38264">
        <ele>477</ele>
        <time>2025-09-09T07:42:19Z</time>
      </trkpt>
      <trkpt lat="46.01731" lon="4.38266">
        <ele>477.4</ele>
        <time>2025-09-09T07:42:20Z</time>
      </trkpt>
      <trkpt lat="46.01731" lon="4.38267">
        <ele>477.4</ele>
        <time>2025-09-09T07:42:21Z</time>
      </trkpt>
      <trkpt lat="46.01731" lon="4.38268">
        <ele>477.6</ele>
        <time>2025-09-09T07:42:22Z</time>
      </trkpt>
      <trkpt lat="46.01731" lon="4.3827">
        <ele>477.6</ele>
        <time>2025-09-09T07:42:23Z</time>
      </trkpt>
      <trkpt lat="46.01731" lon="4.38271">
        <ele>477.6</ele>
        <time>2025-09-09T07:42:24Z</time>
      </trkpt>
      <trkpt lat="46.01731" lon="4.38272">
        <ele>477.8</ele>
        <time>2025-09-09T07:42:25Z</time>
      </trkpt>
      <trkpt lat="46.01731" lon="4.38274">
        <ele>477.8</ele>
        <time>2025-09-09T07:42:26Z</time>
      </trkpt>
      <trkpt lat="46.01731" lon="4.38275">
        <ele>478</ele>
        <time>2025-09-09T07:42:27Z</time>
      </trkpt>
      <trkpt lat="46.01732" lon="4.38276">
        <ele>478</ele>
        <time>2025-09-09T07:42:28Z</time>
      </trkpt>
      <trkpt lat="46.01732" lon="4.38277">
        <ele>478</ele>
        <time>2025-09-09T07:42:29Z</time>
      </trkpt>
      <trkpt lat="46.01732" lon="4.38279">
        <ele>478.4</ele>
        <time>2025-09-09T07:42:30Z</time>
      </trkpt>
      <trkpt lat="46.01732" lon="4.38281">
        <ele>478.4</ele>
        <time>2025-09-09T07:42:31Z</time>
      </trkpt>
      <trkpt lat="46.01732" lon="4.38282">
        <ele>478.4</ele>
        <time>2025-09-09T07:42:32Z</time>
      </trkpt>
      <trkpt lat="46.01732" lon="4.38283">
        <ele>478.8</ele>
        <time>2025-09-09T07:42:33Z</time>
      </trkpt>
      <trkpt lat="46.01732" lon="4.38284">
        <ele>478.8</ele>
        <time>2025-09-09T07:42:34Z</time>
      </trkpt>
      <trkpt lat="46.01732" lon="4.38285">
        <ele>479.2</ele>
        <time>2025-09-09T07:42:35Z</time>
      </trkpt>
      <trkpt lat="46.01731" lon="4.38286">
        <ele>479.2</ele>
        <time>2025-09-09T07:42:36Z</time>
      </trkpt>
      <trkpt lat="46.01731" lon="4.38287">
        <ele>479.4</ele>
        <time>2025-09-09T07:42:37Z</time>
      </trkpt>
      <trkpt lat="46.01731" lon="4.38288">
        <ele>479.4</ele>
        <time>2025-09-09T07:42:38Z</time>
      </trkpt>
      <trkpt lat="46.01731" lon="4.38289">
        <ele>479.8</ele>
        <time>2025-09-09T07:42:39Z</time>
      </trkpt>
      <trkpt lat="46.01731" lon="4.3829">
        <ele>480</ele>
        <time>2025-09-09T07:42:40Z</time>
      </trkpt>
      <trkpt lat="46.01731" lon="4.38291">
        <ele>480</ele>
        <time>2025-09-09T07:42:41Z</time>
      </trkpt>
      <trkpt lat="46.01731" lon="4.38292">
        <ele>480</ele>
        <time>2025-09-09T07:42:42Z</time>
      </trkpt>
      <trkpt lat="46.01731" lon="4.38294">
        <ele>480</ele>
        <time>2025-09-09T07:42:43Z</time>
      </trkpt>
      <trkpt lat="46.01731" lon="4.38295">
        <ele>480.2</ele>
        <time>2025-09-09T07:42:44Z</time>
      </trkpt>
      <trkpt lat="46.01731" lon="4.38296">
        <ele>480.6</ele>
        <time>2025-09-09T07:42:45Z</time>
      </trkpt>
      <trkpt lat="46.01731" lon="4.38297">
        <ele>480.8</ele>
        <time>2025-09-09T07:42:46Z</time>
      </trkpt>
      <trkpt lat="46.01731" lon="4.38298">
        <ele>480.8</ele>
        <time>2025-09-09T07:42:47Z</time>
      </trkpt>
      <trkpt lat="46.01731" lon="4.383">
        <ele>481.4</ele>
        <time>2025-09-09T07:42:48Z</time>
      </trkpt>
      <trkpt lat="46.01731" lon="4.38301">
        <ele>481.6</ele>
        <time>2025-09-09T07:42:49Z</time>
      </trkpt>
      <trkpt lat="46.01731" lon="4.38302">
        <ele>481.6</ele>
        <time>2025-09-09T07:42:50Z</time>
      </trkpt>
      <trkpt lat="46.01731" lon="4.38303">
        <ele>481.8</ele>
        <time>2025-09-09T07:42:51Z</time>
      </trkpt>
      <trkpt lat="46.01731" lon="4.38304">
        <ele>481.8</ele>
        <time>2025-09-09T07:42:52Z</time>
      </trkpt>
      <trkpt lat="46.01731" lon="4.38306">
        <ele>482</ele>
        <time>2025-09-09T07:42:53Z</time>
      </trkpt>
      <trkpt lat="46.01731" lon="4.38307">
        <ele>482.2</ele>
        <time>2025-09-09T07:42:54Z</time>
      </trkpt>
      <trkpt lat="46.01731" lon="4.38308">
        <ele>482.2</ele>
        <time>2025-09-09T07:42:55Z</time>
      </trkpt>
      <trkpt lat="46.01731" lon="4.38309">
        <ele>482.6</ele>
        <time>2025-09-09T07:42:56Z</time>
      </trkpt>
      <trkpt lat="46.01731" lon="4.38309">
        <ele>482.6</ele>
        <time>2025-09-09T07:42:57Z</time>
      </trkpt>
      <trkpt lat="46.01731" lon="4.3831">
        <ele>482.8</ele>
        <time>2025-09-09T07:42:58Z</time>
      </trkpt>
      <trkpt lat="46.01731" lon="4.38311">
        <ele>482.8</ele>
        <time>2025-09-09T07:42:59Z</time>
      </trkpt>
      <trkpt lat="46.01731" lon="4.38312">
        <ele>483.2</ele>
        <time>2025-09-09T07:43:00Z</time>
      </trkpt>
      <trkpt lat="46.01731" lon="4.38313">
        <ele>483.2</ele>
        <time>2025-09-09T07:43:01Z</time>
      </trkpt>
      <trkpt lat="46.0173" lon="4.38314">
        <ele>483.6</ele>
        <time>2025-09-09T07:43:02Z</time>
      </trkpt>
      <trkpt lat="46.0173" lon="4.38315">
        <ele>483.6</ele>
        <time>2025-09-09T07:43:03Z</time>
      </trkpt>
      <trkpt lat="46.0173" lon="4.38316">
        <ele>483.6</ele>
        <time>2025-09-09T07:43:04Z</time>
      </trkpt>
      <trkpt lat="46.0173" lon="4.38318">
        <ele>484</ele>
        <time>2025-09-09T07:43:05Z</time>
      </trkpt>
      <trkpt lat="46.0173" lon="4.38319">
        <ele>484</ele>
        <time>2025-09-09T07:43:06Z</time>
      </trkpt>
      <trkpt lat="46.0173" lon="4.3832">
        <ele>484</ele>
        <time>2025-09-09T07:43:07Z</time>
      </trkpt>
      <trkpt lat="46.0173" lon="4.38322">
        <ele>484.2</ele>
        <time>2025-09-09T07:43:08Z</time>
      </trkpt>
      <trkpt lat="46.0173" lon="4.38323">
        <ele>484.2</ele>
        <time>2025-09-09T07:43:09Z</time>
      </trkpt>
      <trkpt lat="46.0173" lon="4.38325">
        <ele>484.6</ele>
        <time>2025-09-09T07:43:10Z</time>
      </trkpt>
      <trkpt lat="46.0173" lon="4.38326">
        <ele>484.6</ele>
        <time>2025-09-09T07:43:11Z</time>
      </trkpt>
      <trkpt lat="46.0173" lon="4.38327">
        <ele>484.8</ele>
        <time>2025-09-09T07:43:12Z</time>
      </trkpt>
      <trkpt lat="46.0173" lon="4.38329">
        <ele>485.2</ele>
        <time>2025-09-09T07:43:13Z</time>
      </trkpt>
      <trkpt lat="46.0173" lon="4.3833">
        <ele>485.2</ele>
        <time>2025-09-09T07:43:14Z</time>
      </trkpt>
      <trkpt lat="46.01731" lon="4.38331">
        <ele>485.4</ele>
        <time>2025-09-09T07:43:15Z</time>
      </trkpt>
      <trkpt lat="46.01731" lon="4.38333">
        <ele>485.4</ele>
        <time>2025-09-09T07:43:16Z</time>
      </trkpt>
      <trkpt lat="46.01731" lon="4.38334">
        <ele>485.8</ele>
        <time>2025-09-09T07:43:17Z</time>
      </trkpt>
      <trkpt lat="46.01731" lon="4.38335">
        <ele>485.8</ele>
        <time>2025-09-09T07:43:18Z</time>
      </trkpt>
      <trkpt lat="46.01731" lon="4.38336">
        <ele>486.2</ele>
        <time>2025-09-09T07:43:19Z</time>
      </trkpt>
      <trkpt lat="46.01731" lon="4.38337">
        <ele>486.2</ele>
        <time>2025-09-09T07:43:20Z</time>
      </trkpt>
      <trkpt lat="46.01731" lon="4.38339">
        <ele>486.2</ele>
        <time>2025-09-09T07:43:21Z</time>
      </trkpt>
      <trkpt lat="46.01731" lon="4.3834">
        <ele>486.4</ele>
        <time>2025-09-09T07:43:22Z</time>
      </trkpt>
      <trkpt lat="46.01731" lon="4.38341">
        <ele>486.4</ele>
        <time>2025-09-09T07:43:23Z</time>
      </trkpt>
      <trkpt lat="46.01732" lon="4.38342">
        <ele>486.4</ele>
        <time>2025-09-09T07:43:24Z</time>
      </trkpt>
      <trkpt lat="46.01732" lon="4.38343">
        <ele>486.6</ele>
        <time>2025-09-09T07:43:25Z</time>
      </trkpt>
      <trkpt lat="46.01732" lon="4.38344">
        <ele>486.6</ele>
        <time>2025-09-09T07:43:26Z</time>
      </trkpt>
      <trkpt lat="46.01732" lon="4.38345">
        <ele>487</ele>
        <time>2025-09-09T07:43:27Z</time>
      </trkpt>
      <trkpt lat="46.01733" lon="4.38346">
        <ele>487.2</ele>
        <time>2025-09-09T07:43:28Z</time>
      </trkpt>
      <trkpt lat="46.01733" lon="4.38347">
        <ele>487.2</ele>
        <time>2025-09-09T07:43:29Z</time>
      </trkpt>
      <trkpt lat="46.01733" lon="4.38348">
        <ele>487.6</ele>
        <time>2025-09-09T07:43:30Z</time>
      </trkpt>
      <trkpt lat="46.01734" lon="4.38349">
        <ele>487.6</ele>
        <time>2025-09-09T07:43:31Z</time>
      </trkpt>
      <trkpt lat="46.01734" lon="4.3835">
        <ele>488</ele>
        <time>2025-09-09T07:43:32Z</time>
      </trkpt>
      <trkpt lat="46.01735" lon="4.38351">
        <ele>488</ele>
        <time>2025-09-09T07:43:33Z</time>
      </trkpt>
      <trkpt lat="46.01735" lon="4.38352">
        <ele>488.2</ele>
        <time>2025-09-09T07:43:34Z</time>
      </trkpt>
      <trkpt lat="46.01735" lon="4.38353">
        <ele>488.4</ele>
        <time>2025-09-09T07:43:35Z</time>
      </trkpt>
      <trkpt lat="46.01736" lon="4.38354">
        <ele>488.4</ele>
        <time>2025-09-09T07:43:36Z</time>
      </trkpt>
      <trkpt lat="46.01736" lon="4.38355">
        <ele>488.4</ele>
        <time>2025-09-09T07:43:37Z</time>
      </trkpt>
      <trkpt lat="46.01736" lon="4.38356">
        <ele>488.8</ele>
        <time>2025-09-09T07:43:38Z</time>
      </trkpt>
      <trkpt lat="46.01737" lon="4.38357">
        <ele>489</ele>
        <time>2025-09-09T07:43:39Z</time>
      </trkpt>
      <trkpt lat="46.01737" lon="4.38358">
        <ele>489</ele>
        <time>2025-09-09T07:43:40Z</time>
      </trkpt>
      <trkpt lat="46.01737" lon="4.38359">
        <ele>489</ele>
        <time>2025-09-09T07:43:41Z</time>
      </trkpt>
      <trkpt lat="46.01738" lon="4.3836">
        <ele>489</ele>
        <time>2025-09-09T07:43:42Z</time>
      </trkpt>
      <trkpt lat="46.01738" lon="4.38362">
        <ele>489</ele>
        <time>2025-09-09T07:43:43Z</time>
      </trkpt>
      <trkpt lat="46.01738" lon="4.38363">
        <ele>489.4</ele>
        <time>2025-09-09T07:43:44Z</time>
      </trkpt>
      <trkpt lat="46.01739" lon="4.38364">
        <ele>489.4</ele>
        <time>2025-09-09T07:43:45Z</time>
      </trkpt>
      <trkpt lat="46.01739" lon="4.38365">
        <ele>489.8</ele>
        <time>2025-09-09T07:43:46Z</time>
      </trkpt>
      <trkpt lat="46.01739" lon="4.38366">
        <ele>489.8</ele>
        <time>2025-09-09T07:43:47Z</time>
      </trkpt>
      <trkpt lat="46.0174" lon="4.38367">
        <ele>490.2</ele>
        <time>2025-09-09T07:43:48Z</time>
      </trkpt>
      <trkpt lat="46.0174" lon="4.38368">
        <ele>490.2</ele>
        <time>2025-09-09T07:43:49Z</time>
      </trkpt>
      <trkpt lat="46.0174" lon="4.38369">
        <ele>490.6</ele>
        <time>2025-09-09T07:43:50Z</time>
      </trkpt>
      <trkpt lat="46.01741" lon="4.3837">
        <ele>490.8</ele>
        <time>2025-09-09T07:43:51Z</time>
      </trkpt>
      <trkpt lat="46.01741" lon="4.38371">
        <ele>490.8</ele>
        <time>2025-09-09T07:43:52Z</time>
      </trkpt>
      <trkpt lat="46.01742" lon="4.38372">
        <ele>491.2</ele>
        <time>2025-09-09T07:43:53Z</time>
      </trkpt>
      <trkpt lat="46.01742" lon="4.38373">
        <ele>491.2</ele>
        <time>2025-09-09T07:43:54Z</time>
      </trkpt>
      <trkpt lat="46.01743" lon="4.38374">
        <ele>491.2</ele>
        <time>2025-09-09T07:43:55Z</time>
      </trkpt>
      <trkpt lat="46.01743" lon="4.38375">
        <ele>491.6</ele>
        <time>2025-09-09T07:43:56Z</time>
      </trkpt>
      <trkpt lat="46.01743" lon="4.38376">
        <ele>491.6</ele>
        <time>2025-09-09T07:43:57Z</time>
      </trkpt>
      <trkpt lat="46.01744" lon="4.38377">
        <ele>491.8</ele>
        <time>2025-09-09T07:43:58Z</time>
      </trkpt>
      <trkpt lat="46.01745" lon="4.38377">
        <ele>491.8</ele>
        <time>2025-09-09T07:43:59Z</time>
      </trkpt>
      <trkpt lat="46.01745" lon="4.38378">
        <ele>491.8</ele>
        <time>2025-09-09T07:44:00Z</time>
      </trkpt>
      <trkpt lat="46.01746" lon="4.38379">
        <ele>492.2</ele>
        <time>2025-09-09T07:44:01Z</time>
      </trkpt>
      <trkpt lat="46.01747" lon="4.3838">
        <ele>492.2</ele>
        <time>2025-09-09T07:44:02Z</time>
      </trkpt>
      <trkpt lat="46.01748" lon="4.38381">
        <ele>492.4</ele>
        <time>2025-09-09T07:44:03Z</time>
      </trkpt>
      <trkpt lat="46.01748" lon="4.38382">
        <ele>492.4</ele>
        <time>2025-09-09T07:44:04Z</time>
      </trkpt>
      <trkpt lat="46.01749" lon="4.38383">
        <ele>492.8</ele>
        <time>2025-09-09T07:44:05Z</time>
      </trkpt>
      <trkpt lat="46.0175" lon="4.38384">
        <ele>492.8</ele>
        <time>2025-09-09T07:44:06Z</time>
      </trkpt>
      <trkpt lat="46.0175" lon="4.38385">
        <ele>493</ele>
        <time>2025-09-09T07:44:07Z</time>
      </trkpt>
      <trkpt lat="46.01751" lon="4.38386">
        <ele>493</ele>
        <time>2025-09-09T07:44:08Z</time>
      </trkpt>
      <trkpt lat="46.01752" lon="4.38387">
        <ele>493.2</ele>
        <time>2025-09-09T07:44:09Z</time>
      </trkpt>
      <trkpt lat="46.01752" lon="4.38389">
        <ele>493.2</ele>
        <time>2025-09-09T07:44:10Z</time>
      </trkpt>
      <trkpt lat="46.01753" lon="4.3839">
        <ele>493.4</ele>
        <time>2025-09-09T07:44:11Z</time>
      </trkpt>
      <trkpt lat="46.01754" lon="4.38391">
        <ele>493.4</ele>
        <time>2025-09-09T07:44:12Z</time>
      </trkpt>
      <trkpt lat="46.01754" lon="4.38392">
        <ele>493.4</ele>
        <time>2025-09-09T07:44:13Z</time>
      </trkpt>
      <trkpt lat="46.01755" lon="4.38392">
        <ele>493.4</ele>
        <time>2025-09-09T07:44:14Z</time>
      </trkpt>
      <trkpt lat="46.01755" lon="4.38392">
        <ele>493.4</ele>
        <time>2025-09-09T07:44:15Z</time>
      </trkpt>
      <trkpt lat="46.01755" lon="4.38393">
        <ele>493.2</ele>
        <time>2025-09-09T07:44:27Z</time>
      </trkpt>
      <trkpt lat="46.01756" lon="4.38395">
        <ele>493.2</ele>
        <time>2025-09-09T07:44:28Z</time>
      </trkpt>
      <trkpt lat="46.01757" lon="4.38396">
        <ele>493.2</ele>
        <time>2025-09-09T07:44:29Z</time>
      </trkpt>
      <trkpt lat="46.01758" lon="4.38398">
        <ele>493.2</ele>
        <time>2025-09-09T07:44:30Z</time>
      </trkpt>
      <trkpt lat="46.01759" lon="4.384">
        <ele>493.4</ele>
        <time>2025-09-09T07:44:31Z</time>
      </trkpt>
      <trkpt lat="46.01759" lon="4.38403">
        <ele>493.4</ele>
        <time>2025-09-09T07:44:32Z</time>
      </trkpt>
      <trkpt lat="46.0176" lon="4.38404">
        <ele>493.6</ele>
        <time>2025-09-09T07:44:33Z</time>
      </trkpt>
      <trkpt lat="46.01761" lon="4.38406">
        <ele>493.6</ele>
        <time>2025-09-09T07:44:34Z</time>
      </trkpt>
      <trkpt lat="46.01762" lon="4.38408">
        <ele>494</ele>
        <time>2025-09-09T07:44:35Z</time>
      </trkpt>
      <trkpt lat="46.01764" lon="4.3841">
        <ele>494</ele>
        <time>2025-09-09T07:44:36Z</time>
      </trkpt>
      <trkpt lat="46.01765" lon="4.38412">
        <ele>494.4</ele>
        <time>2025-09-09T07:44:37Z</time>
      </trkpt>
      <trkpt lat="46.01766" lon="4.38414">
        <ele>494.4</ele>
        <time>2025-09-09T07:44:38Z</time>
      </trkpt>
      <trkpt lat="46.01767" lon="4.38416">
        <ele>494.6</ele>
        <time>2025-09-09T07:44:39Z</time>
      </trkpt>
      <trkpt lat="46.01768" lon="4.38418">
        <ele>494.6</ele>
        <time>2025-09-09T07:44:40Z</time>
      </trkpt>
      <trkpt lat="46.0177" lon="4.38421">
        <ele>494.6</ele>
        <time>2025-09-09T07:44:41Z</time>
      </trkpt>
      <trkpt lat="46.01771" lon="4.38424">
        <ele>494.6</ele>
        <time>2025-09-09T07:44:42Z</time>
      </trkpt>
      <trkpt lat="46.01772" lon="4.38426">
        <ele>494.6</ele>
        <time>2025-09-09T07:44:43Z</time>
      </trkpt>
      <trkpt lat="46.01773" lon="4.38428">
        <ele>494.6</ele>
        <time>2025-09-09T07:44:44Z</time>
      </trkpt>
      <trkpt lat="46.01774" lon="4.3843">
        <ele>494.8</ele>
        <time>2025-09-09T07:44:45Z</time>
      </trkpt>
      <trkpt lat="46.01775" lon="4.38432">
        <ele>494.8</ele>
        <time>2025-09-09T07:44:46Z</time>
      </trkpt>
      <trkpt lat="46.01776" lon="4.38435">
        <ele>494.8</ele>
        <time>2025-09-09T07:44:47Z</time>
      </trkpt>
      <trkpt lat="46.01777" lon="4.38437">
        <ele>494.8</ele>
        <time>2025-09-09T07:44:48Z</time>
      </trkpt>
      <trkpt lat="46.01778" lon="4.38438">
        <ele>494.8</ele>
        <time>2025-09-09T07:44:49Z</time>
      </trkpt>
      <trkpt lat="46.01779" lon="4.38441">
        <ele>494.8</ele>
        <time>2025-09-09T07:44:50Z</time>
      </trkpt>
      <trkpt lat="46.0178" lon="4.38443">
        <ele>495.2</ele>
        <time>2025-09-09T07:44:51Z</time>
      </trkpt>
      <trkpt lat="46.0178" lon="4.38445">
        <ele>495.4</ele>
        <time>2025-09-09T07:44:52Z</time>
      </trkpt>
      <trkpt lat="46.01781" lon="4.38448">
        <ele>495.4</ele>
        <time>2025-09-09T07:44:53Z</time>
      </trkpt>
      <trkpt lat="46.01782" lon="4.3845">
        <ele>495.6</ele>
        <time>2025-09-09T07:44:54Z</time>
      </trkpt>
      <trkpt lat="46.01783" lon="4.38452">
        <ele>495.6</ele>
        <time>2025-09-09T07:44:55Z</time>
      </trkpt>
      <trkpt lat="46.01784" lon="4.38455">
        <ele>495.8</ele>
        <time>2025-09-09T07:44:56Z</time>
      </trkpt>
      <trkpt lat="46.01784" lon="4.38457">
        <ele>496.4</ele>
        <time>2025-09-09T07:44:57Z</time>
      </trkpt>
      <trkpt lat="46.01784" lon="4.3846">
        <ele>496.6</ele>
        <time>2025-09-09T07:44:58Z</time>
      </trkpt>
      <trkpt lat="46.01785" lon="4.38462">
        <ele>496.8</ele>
        <time>2025-09-09T07:44:59Z</time>
      </trkpt>
      <trkpt lat="46.01785" lon="4.38465">
        <ele>496.8</ele>
        <time>2025-09-09T07:45:00Z</time>
      </trkpt>
      <trkpt lat="46.01785" lon="4.38468">
        <ele>497</ele>
        <time>2025-09-09T07:45:01Z</time>
      </trkpt>
      <trkpt lat="46.01786" lon="4.3847">
        <ele>497</ele>
        <time>2025-09-09T07:45:02Z</time>
      </trkpt>
      <trkpt lat="46.01786" lon="4.38473">
        <ele>497.4</ele>
        <time>2025-09-09T07:45:03Z</time>
      </trkpt>
      <trkpt lat="46.01787" lon="4.38475">
        <ele>497.6</ele>
        <time>2025-09-09T07:45:04Z</time>
      </trkpt>
      <trkpt lat="46.01787" lon="4.38478">
        <ele>497.6</ele>
        <time>2025-09-09T07:45:05Z</time>
      </trkpt>
      <trkpt lat="46.01788" lon="4.38481">
        <ele>498</ele>
        <time>2025-09-09T07:45:06Z</time>
      </trkpt>
      <trkpt lat="46.01789" lon="4.38483">
        <ele>498</ele>
        <time>2025-09-09T07:45:07Z</time>
      </trkpt>
      <trkpt lat="46.01789" lon="4.38485">
        <ele>498.4</ele>
        <time>2025-09-09T07:45:08Z</time>
      </trkpt>
      <trkpt lat="46.0179" lon="4.38488">
        <ele>498.8</ele>
        <time>2025-09-09T07:45:09Z</time>
      </trkpt>
      <trkpt lat="46.0179" lon="4.3849">
        <ele>499</ele>
        <time>2025-09-09T07:45:10Z</time>
      </trkpt>
      <trkpt lat="46.01791" lon="4.38492">
        <ele>499.2</ele>
        <time>2025-09-09T07:45:11Z</time>
      </trkpt>
      <trkpt lat="46.01791" lon="4.38494">
        <ele>499.2</ele>
        <time>2025-09-09T07:45:12Z</time>
      </trkpt>
      <trkpt lat="46.01791" lon="4.38496">
        <ele>499.4</ele>
        <time>2025-09-09T07:45:13Z</time>
      </trkpt>
      <trkpt lat="46.01792" lon="4.38499">
        <ele>499.4</ele>
        <time>2025-09-09T07:45:14Z</time>
      </trkpt>
      <trkpt lat="46.01792" lon="4.38501">
        <ele>499.8</ele>
        <time>2025-09-09T07:45:15Z</time>
      </trkpt>
      <trkpt lat="46.01792" lon="4.38503">
        <ele>499.8</ele>
        <time>2025-09-09T07:45:16Z</time>
      </trkpt>
      <trkpt lat="46.01792" lon="4.38506">
        <ele>499.8</ele>
        <time>2025-09-09T07:45:17Z</time>
      </trkpt>
      <trkpt lat="46.01793" lon="4.38508">
        <ele>499.8</ele>
        <time>2025-09-09T07:45:18Z</time>
      </trkpt>
      <trkpt lat="46.01794" lon="4.3851">
        <ele>500</ele>
        <time>2025-09-09T07:45:19Z</time>
      </trkpt>
      <trkpt lat="46.01794" lon="4.38513">
        <ele>500</ele>
        <time>2025-09-09T07:45:20Z</time>
      </trkpt>
      <trkpt lat="46.01794" lon="4.38515">
        <ele>500.4</ele>
        <time>2025-09-09T07:45:21Z</time>
      </trkpt>
      <trkpt lat="46.01794" lon="4.38517">
        <ele>500.4</ele>
        <time>2025-09-09T07:45:22Z</time>
      </trkpt>
      <trkpt lat="46.01795" lon="4.3852">
        <ele>500.8</ele>
        <time>2025-09-09T07:45:23Z</time>
      </trkpt>
      <trkpt lat="46.01795" lon="4.38522">
        <ele>500.8</ele>
        <time>2025-09-09T07:45:24Z</time>
      </trkpt>
      <trkpt lat="46.01795" lon="4.38523">
        <ele>501</ele>
        <time>2025-09-09T07:45:25Z</time>
      </trkpt>
      <trkpt lat="46.01796" lon="4.38526">
        <ele>501</ele>
        <time>2025-09-09T07:45:26Z</time>
      </trkpt>
      <trkpt lat="46.01796" lon="4.38528">
        <ele>501.4</ele>
        <time>2025-09-09T07:45:27Z</time>
      </trkpt>
      <trkpt lat="46.01796" lon="4.38529">
        <ele>501.4</ele>
        <time>2025-09-09T07:45:28Z</time>
      </trkpt>
      <trkpt lat="46.01797" lon="4.38532">
        <ele>501.4</ele>
        <time>2025-09-09T07:45:29Z</time>
      </trkpt>
      <trkpt lat="46.01798" lon="4.38534">
        <ele>501.6</ele>
        <time>2025-09-09T07:45:30Z</time>
      </trkpt>
      <trkpt lat="46.01798" lon="4.38536">
        <ele>501.8</ele>
        <time>2025-09-09T07:45:31Z</time>
      </trkpt>
      <trkpt lat="46.01798" lon="4.38537">
        <ele>501.8</ele>
        <time>2025-09-09T07:45:32Z</time>
      </trkpt>
      <trkpt lat="46.01799" lon="4.38539">
        <ele>502.2</ele>
        <time>2025-09-09T07:45:33Z</time>
      </trkpt>
      <trkpt lat="46.01799" lon="4.38541">
        <ele>502.2</ele>
        <time>2025-09-09T07:45:34Z</time>
      </trkpt>
      <trkpt lat="46.018" lon="4.38543">
        <ele>502.2</ele>
        <time>2025-09-09T07:45:35Z</time>
      </trkpt>
      <trkpt lat="46.01801" lon="4.38545">
        <ele>502.6</ele>
        <time>2025-09-09T07:45:36Z</time>
      </trkpt>
      <trkpt lat="46.01802" lon="4.38547">
        <ele>502.6</ele>
        <time>2025-09-09T07:45:37Z</time>
      </trkpt>
      <trkpt lat="46.01803" lon="4.38549">
        <ele>502.8</ele>
        <time>2025-09-09T07:45:38Z</time>
      </trkpt>
      <trkpt lat="46.01804" lon="4.38552">
        <ele>503</ele>
        <time>2025-09-09T07:45:39Z</time>
      </trkpt>
      <trkpt lat="46.01805" lon="4.38554">
        <ele>503</ele>
        <time>2025-09-09T07:45:40Z</time>
      </trkpt>
      <trkpt lat="46.01805" lon="4.38556">
        <ele>503.4</ele>
        <time>2025-09-09T07:45:41Z</time>
      </trkpt>
      <trkpt lat="46.01806" lon="4.38558">
        <ele>503.4</ele>
        <time>2025-09-09T07:45:42Z</time>
      </trkpt>
      <trkpt lat="46.01806" lon="4.3856">
        <ele>503.6</ele>
        <time>2025-09-09T07:45:43Z</time>
      </trkpt>
      <trkpt lat="46.01806" lon="4.38562">
        <ele>503.6</ele>
        <time>2025-09-09T07:45:44Z</time>
      </trkpt>
      <trkpt lat="46.01806" lon="4.38564">
        <ele>504.2</ele>
        <time>2025-09-09T07:45:45Z</time>
      </trkpt>
      <trkpt lat="46.01807" lon="4.38565">
        <ele>504.2</ele>
        <time>2025-09-09T07:45:46Z</time>
      </trkpt>
      <trkpt lat="46.01807" lon="4.38567">
        <ele>504.2</ele>
        <time>2025-09-09T07:45:47Z</time>
      </trkpt>
      <trkpt lat="46.01808" lon="4.38569">
        <ele>504.6</ele>
        <time>2025-09-09T07:45:48Z</time>
      </trkpt>
      <trkpt lat="46.01808" lon="4.38571">
        <ele>504.6</ele>
        <time>2025-09-09T07:45:49Z</time>
      </trkpt>
      <trkpt lat="46.01808" lon="4.38573">
        <ele>505</ele>
        <time>2025-09-09T07:45:50Z</time>
      </trkpt>
      <trkpt lat="46.01808" lon="4.38575">
        <ele>505</ele>
        <time>2025-09-09T07:45:51Z</time>
      </trkpt>
      <trkpt lat="46.01808" lon="4.38576">
        <ele>505.4</ele>
        <time>2025-09-09T07:45:52Z</time>
      </trkpt>
      <trkpt lat="46.01808" lon="4.38578">
        <ele>505.6</ele>
        <time>2025-09-09T07:45:53Z</time>
      </trkpt>
      <trkpt lat="46.01808" lon="4.38579">
        <ele>505.6</ele>
        <time>2025-09-09T07:45:54Z</time>
      </trkpt>
      <trkpt lat="46.01809" lon="4.38581">
        <ele>505.8</ele>
        <time>2025-09-09T07:45:55Z</time>
      </trkpt>
      <trkpt lat="46.01809" lon="4.38583">
        <ele>505.8</ele>
        <time>2025-09-09T07:45:56Z</time>
      </trkpt>
      <trkpt lat="46.0181" lon="4.38585">
        <ele>505.8</ele>
        <time>2025-09-09T07:45:57Z</time>
      </trkpt>
      <trkpt lat="46.0181" lon="4.38586">
        <ele>506.2</ele>
        <time>2025-09-09T07:45:58Z</time>
      </trkpt>
      <trkpt lat="46.01811" lon="4.38588">
        <ele>506.2</ele>
        <time>2025-09-09T07:45:59Z</time>
      </trkpt>
      <trkpt lat="46.01811" lon="4.3859">
        <ele>506.4</ele>
        <time>2025-09-09T07:46:00Z</time>
      </trkpt>
      <trkpt lat="46.01811" lon="4.38591">
        <ele>506.4</ele>
        <time>2025-09-09T07:46:01Z</time>
      </trkpt>
      <trkpt lat="46.01812" lon="4.38593">
        <ele>506.8</ele>
        <time>2025-09-09T07:46:02Z</time>
      </trkpt>
      <trkpt lat="46.01812" lon="4.38594">
        <ele>506.8</ele>
        <time>2025-09-09T07:46:03Z</time>
      </trkpt>
      <trkpt lat="46.01812" lon="4.38596">
        <ele>507</ele>
        <time>2025-09-09T07:46:04Z</time>
      </trkpt>
      <trkpt lat="46.01812" lon="4.38598">
        <ele>507</ele>
        <time>2025-09-09T07:46:05Z</time>
      </trkpt>
      <trkpt lat="46.01813" lon="4.38599">
        <ele>507.4</ele>
        <time>2025-09-09T07:46:06Z</time>
      </trkpt>
      <trkpt lat="46.01813" lon="4.38601">
        <ele>507.4</ele>
        <time>2025-09-09T07:46:07Z</time>
      </trkpt>
      <trkpt lat="46.01813" lon="4.38603">
        <ele>507.8</ele>
        <time>2025-09-09T07:46:08Z</time>
      </trkpt>
      <trkpt lat="46.01814" lon="4.38604">
        <ele>508</ele>
        <time>2025-09-09T07:46:09Z</time>
      </trkpt>
      <trkpt lat="46.01814" lon="4.38606">
        <ele>508</ele>
        <time>2025-09-09T07:46:10Z</time>
      </trkpt>
      <trkpt lat="46.01815" lon="4.38608">
        <ele>508.2</ele>
        <time>2025-09-09T07:46:11Z</time>
      </trkpt>
      <trkpt lat="46.01815" lon="4.3861">
        <ele>508.6</ele>
        <time>2025-09-09T07:46:12Z</time>
      </trkpt>
      <trkpt lat="46.01816" lon="4.38612">
        <ele>508.8</ele>
        <time>2025-09-09T07:46:13Z</time>
      </trkpt>
      <trkpt lat="46.01816" lon="4.38614">
        <ele>508.8</ele>
        <time>2025-09-09T07:46:14Z</time>
      </trkpt>
      <trkpt lat="46.01817" lon="4.38616">
        <ele>509</ele>
        <time>2025-09-09T07:46:15Z</time>
      </trkpt>
      <trkpt lat="46.01817" lon="4.38618">
        <ele>509</ele>
        <time>2025-09-09T07:46:16Z</time>
      </trkpt>
      <trkpt lat="46.01817" lon="4.3862">
        <ele>509.2</ele>
        <time>2025-09-09T07:46:17Z</time>
      </trkpt>
      <trkpt lat="46.01817" lon="4.38622">
        <ele>509.2</ele>
        <time>2025-09-09T07:46:18Z</time>
      </trkpt>
      <trkpt lat="46.01817" lon="4.38623">
        <ele>509.6</ele>
        <time>2025-09-09T07:46:19Z</time>
      </trkpt>
      <trkpt lat="46.01818" lon="4.38625">
        <ele>510</ele>
        <time>2025-09-09T07:46:20Z</time>
      </trkpt>
      <trkpt lat="46.01817" lon="4.38627">
        <ele>510</ele>
        <time>2025-09-09T07:46:21Z</time>
      </trkpt>
      <trkpt lat="46.01817" lon="4.38628">
        <ele>510</ele>
        <time>2025-09-09T07:46:22Z</time>
      </trkpt>
      <trkpt lat="46.01818" lon="4.3863">
        <ele>510.4</ele>
        <time>2025-09-09T07:46:23Z</time>
      </trkpt>
      <trkpt lat="46.01818" lon="4.38631">
        <ele>510.4</ele>
        <time>2025-09-09T07:46:24Z</time>
      </trkpt>
      <trkpt lat="46.01818" lon="4.38633">
        <ele>510.8</ele>
        <time>2025-09-09T07:46:25Z</time>
      </trkpt>
      <trkpt lat="46.01818" lon="4.38635">
        <ele>510.8</ele>
        <time>2025-09-09T07:46:26Z</time>
      </trkpt>
      <trkpt lat="46.01818" lon="4.38636">
        <ele>511.2</ele>
        <time>2025-09-09T07:46:27Z</time>
      </trkpt>
      <trkpt lat="46.01818" lon="4.38638">
        <ele>511.4</ele>
        <time>2025-09-09T07:46:28Z</time>
      </trkpt>
      <trkpt lat="46.01818" lon="4.3864">
        <ele>511.8</ele>
        <time>2025-09-09T07:46:29Z</time>
      </trkpt>
      <trkpt lat="46.01818" lon="4.38641">
        <ele>512.2</ele>
        <time>2025-09-09T07:46:30Z</time>
      </trkpt>
      <trkpt lat="46.01818" lon="4.38642">
        <ele>512.4</ele>
        <time>2025-09-09T07:46:31Z</time>
      </trkpt>
      <trkpt lat="46.01819" lon="4.38645">
        <ele>512.4</ele>
        <time>2025-09-09T07:46:32Z</time>
      </trkpt>
      <trkpt lat="46.01819" lon="4.38647">
        <ele>512.8</ele>
        <time>2025-09-09T07:46:33Z</time>
      </trkpt>
      <trkpt lat="46.01819" lon="4.38649">
        <ele>513</ele>
        <time>2025-09-09T07:46:34Z</time>
      </trkpt>
      <trkpt lat="46.01819" lon="4.38651">
        <ele>513</ele>
        <time>2025-09-09T07:46:35Z</time>
      </trkpt>
      <trkpt lat="46.01819" lon="4.38653">
        <ele>513</ele>
        <time>2025-09-09T07:46:36Z</time>
      </trkpt>
      <trkpt lat="46.0182" lon="4.38655">
        <ele>513.4</ele>
        <time>2025-09-09T07:46:37Z</time>
      </trkpt>
      <trkpt lat="46.0182" lon="4.38657">
        <ele>513.4</ele>
        <time>2025-09-09T07:46:38Z</time>
      </trkpt>
      <trkpt lat="46.0182" lon="4.38659">
        <ele>513.8</ele>
        <time>2025-09-09T07:46:39Z</time>
      </trkpt>
      <trkpt lat="46.0182" lon="4.3866">
        <ele>513.8</ele>
        <time>2025-09-09T07:46:40Z</time>
      </trkpt>
      <trkpt lat="46.0182" lon="4.38662">
        <ele>514</ele>
        <time>2025-09-09T07:46:41Z</time>
      </trkpt>
      <trkpt lat="46.0182" lon="4.38664">
        <ele>514.4</ele>
        <time>2025-09-09T07:46:42Z</time>
      </trkpt>
      <trkpt lat="46.01821" lon="4.38665">
        <ele>514.6</ele>
        <time>2025-09-09T07:46:43Z</time>
      </trkpt>
      <trkpt lat="46.01821" lon="4.38667">
        <ele>514.6</ele>
        <time>2025-09-09T07:46:44Z</time>
      </trkpt>
      <trkpt lat="46.01821" lon="4.38669">
        <ele>515</ele>
        <time>2025-09-09T07:46:45Z</time>
      </trkpt>
      <trkpt lat="46.01822" lon="4.3867">
        <ele>515</ele>
        <time>2025-09-09T07:46:46Z</time>
      </trkpt>
      <trkpt lat="46.01822" lon="4.38672">
        <ele>515.4</ele>
        <time>2025-09-09T07:46:47Z</time>
      </trkpt>
      <trkpt lat="46.01822" lon="4.38674">
        <ele>515.4</ele>
        <time>2025-09-09T07:46:48Z</time>
      </trkpt>
      <trkpt lat="46.01822" lon="4.38677">
        <ele>515.8</ele>
        <time>2025-09-09T07:46:49Z</time>
      </trkpt>
      <trkpt lat="46.01822" lon="4.38679">
        <ele>515.8</ele>
        <time>2025-09-09T07:46:50Z</time>
      </trkpt>
      <trkpt lat="46.01822" lon="4.3868">
        <ele>516.2</ele>
        <time>2025-09-09T07:46:51Z</time>
      </trkpt>
      <trkpt lat="46.01822" lon="4.38682">
        <ele>516.2</ele>
        <time>2025-09-09T07:46:52Z</time>
      </trkpt>
      <trkpt lat="46.01823" lon="4.38683">
        <ele>516.4</ele>
        <time>2025-09-09T07:46:53Z</time>
      </trkpt>
      <trkpt lat="46.01823" lon="4.38685">
        <ele>516.6</ele>
        <time>2025-09-09T07:46:54Z</time>
      </trkpt>
      <trkpt lat="46.01823" lon="4.38686">
        <ele>516.6</ele>
        <time>2025-09-09T07:46:55Z</time>
      </trkpt>
      <trkpt lat="46.01823" lon="4.38688">
        <ele>517</ele>
        <time>2025-09-09T07:46:56Z</time>
      </trkpt>
      <trkpt lat="46.01823" lon="4.3869">
        <ele>517</ele>
        <time>2025-09-09T07:46:57Z</time>
      </trkpt>
      <trkpt lat="46.01824" lon="4.38691">
        <ele>517.4</ele>
        <time>2025-09-09T07:46:58Z</time>
      </trkpt>
      <trkpt lat="46.01824" lon="4.38693">
        <ele>517.4</ele>
        <time>2025-09-09T07:46:59Z</time>
      </trkpt>
      <trkpt lat="46.01824" lon="4.38695">
        <ele>517.4</ele>
        <time>2025-09-09T07:47:00Z</time>
      </trkpt>
      <trkpt lat="46.01824" lon="4.38696">
        <ele>517.8</ele>
        <time>2025-09-09T07:47:01Z</time>
      </trkpt>
      <trkpt lat="46.01824" lon="4.38698">
        <ele>517.8</ele>
        <time>2025-09-09T07:47:02Z</time>
      </trkpt>
      <trkpt lat="46.01824" lon="4.38699">
        <ele>518</ele>
        <time>2025-09-09T07:47:03Z</time>
      </trkpt>
      <trkpt lat="46.01824" lon="4.38701">
        <ele>518</ele>
        <time>2025-09-09T07:47:04Z</time>
      </trkpt>
      <trkpt lat="46.01824" lon="4.38702">
        <ele>518.4</ele>
        <time>2025-09-09T07:47:05Z</time>
      </trkpt>
      <trkpt lat="46.01824" lon="4.38704">
        <ele>518.4</ele>
        <time>2025-09-09T07:47:06Z</time>
      </trkpt>
      <trkpt lat="46.01824" lon="4.38706">
        <ele>518.4</ele>
        <time>2025-09-09T07:47:07Z</time>
      </trkpt>
      <trkpt lat="46.01824" lon="4.38708">
        <ele>518.4</ele>
        <time>2025-09-09T07:47:08Z</time>
      </trkpt>
      <trkpt lat="46.01824" lon="4.38709">
        <ele>519</ele>
        <time>2025-09-09T07:47:09Z</time>
      </trkpt>
      <trkpt lat="46.01824" lon="4.38711">
        <ele>519</ele>
        <time>2025-09-09T07:47:10Z</time>
      </trkpt>
      <trkpt lat="46.01824" lon="4.38713">
        <ele>519</ele>
        <time>2025-09-09T07:47:11Z</time>
      </trkpt>
      <trkpt lat="46.01824" lon="4.38715">
        <ele>519.4</ele>
        <time>2025-09-09T07:47:12Z</time>
      </trkpt>
      <trkpt lat="46.01824" lon="4.38717">
        <ele>519.6</ele>
        <time>2025-09-09T07:47:13Z</time>
      </trkpt>
      <trkpt lat="46.01824" lon="4.38718">
        <ele>519.6</ele>
        <time>2025-09-09T07:47:14Z</time>
      </trkpt>
      <trkpt lat="46.01824" lon="4.3872">
        <ele>519.8</ele>
        <time>2025-09-09T07:47:15Z</time>
      </trkpt>
      <trkpt lat="46.01824" lon="4.38721">
        <ele>519.8</ele>
        <time>2025-09-09T07:47:16Z</time>
      </trkpt>
      <trkpt lat="46.01824" lon="4.38723">
        <ele>520.2</ele>
        <time>2025-09-09T07:47:17Z</time>
      </trkpt>
      <trkpt lat="46.01824" lon="4.38725">
        <ele>520.2</ele>
        <time>2025-09-09T07:47:18Z</time>
      </trkpt>
      <trkpt lat="46.01824" lon="4.38727">
        <ele>520.2</ele>
        <time>2025-09-09T07:47:19Z</time>
      </trkpt>
      <trkpt lat="46.01824" lon="4.38728">
        <ele>520.4</ele>
        <time>2025-09-09T07:47:20Z</time>
      </trkpt>
      <trkpt lat="46.01824" lon="4.3873">
        <ele>520.8</ele>
        <time>2025-09-09T07:47:21Z</time>
      </trkpt>
      <trkpt lat="46.01824" lon="4.38731">
        <ele>521</ele>
        <time>2025-09-09T07:47:22Z</time>
      </trkpt>
      <trkpt lat="46.01825" lon="4.38733">
        <ele>521.2</ele>
        <time>2025-09-09T07:47:23Z</time>
      </trkpt>
      <trkpt lat="46.01825" lon="4.38735">
        <ele>521.2</ele>
        <time>2025-09-09T07:47:24Z</time>
      </trkpt>
      <trkpt lat="46.01825" lon="4.38736">
        <ele>521.6</ele>
        <time>2025-09-09T07:47:25Z</time>
      </trkpt>
      <trkpt lat="46.01825" lon="4.38738">
        <ele>521.6</ele>
        <time>2025-09-09T07:47:26Z</time>
      </trkpt>
      <trkpt lat="46.01825" lon="4.3874">
        <ele>521.8</ele>
        <time>2025-09-09T07:47:27Z</time>
      </trkpt>
      <trkpt lat="46.01824" lon="4.38741">
        <ele>521.8</ele>
        <time>2025-09-09T07:47:28Z</time>
      </trkpt>
      <trkpt lat="46.01824" lon="4.38743">
        <ele>521.8</ele>
        <time>2025-09-09T07:47:29Z</time>
      </trkpt>
      <trkpt lat="46.01825" lon="4.38745">
        <ele>522.2</ele>
        <time>2025-09-09T07:47:30Z</time>
      </trkpt>
      <trkpt lat="46.01824" lon="4.38747">
        <ele>522.2</ele>
        <time>2025-09-09T07:47:31Z</time>
      </trkpt>
      <trkpt lat="46.01824" lon="4.38749">
        <ele>522.2</ele>
        <time>2025-09-09T07:47:32Z</time>
      </trkpt>
      <trkpt lat="46.01825" lon="4.38751">
        <ele>522.6</ele>
        <time>2025-09-09T07:47:33Z</time>
      </trkpt>
      <trkpt lat="46.01825" lon="4.38752">
        <ele>522.6</ele>
        <time>2025-09-09T07:47:34Z</time>
      </trkpt>
      <trkpt lat="46.01826" lon="4.38754">
        <ele>522.6</ele>
        <time>2025-09-09T07:47:35Z</time>
      </trkpt>
      <trkpt lat="46.01826" lon="4.38756">
        <ele>523</ele>
        <time>2025-09-09T07:47:36Z</time>
      </trkpt>
      <trkpt lat="46.01826" lon="4.38758">
        <ele>523</ele>
        <time>2025-09-09T07:47:37Z</time>
      </trkpt>
      <trkpt lat="46.01827" lon="4.3876">
        <ele>523</ele>
        <time>2025-09-09T07:47:38Z</time>
      </trkpt>
      <trkpt lat="46.01827" lon="4.38762">
        <ele>523</ele>
        <time>2025-09-09T07:47:39Z</time>
      </trkpt>
      <trkpt lat="46.01827" lon="4.38764">
        <ele>523</ele>
        <time>2025-09-09T07:47:40Z</time>
      </trkpt>
      <trkpt lat="46.01827" lon="4.38766">
        <ele>523.2</ele>
        <time>2025-09-09T07:47:41Z</time>
      </trkpt>
      <trkpt lat="46.01827" lon="4.38769">
        <ele>523.4</ele>
        <time>2025-09-09T07:47:42Z</time>
      </trkpt>
      <trkpt lat="46.01827" lon="4.38771">
        <ele>523.4</ele>
        <time>2025-09-09T07:47:43Z</time>
      </trkpt>
      <trkpt lat="46.01828" lon="4.38773">
        <ele>523.4</ele>
        <time>2025-09-09T07:47:44Z</time>
      </trkpt>
      <trkpt lat="46.01828" lon="4.38775">
        <ele>523.4</ele>
        <time>2025-09-09T07:47:45Z</time>
      </trkpt>
      <trkpt lat="46.01828" lon="4.38778">
        <ele>523.8</ele>
        <time>2025-09-09T07:47:46Z</time>
      </trkpt>
      <trkpt lat="46.01828" lon="4.3878">
        <ele>523.8</ele>
        <time>2025-09-09T07:47:47Z</time>
      </trkpt>
      <trkpt lat="46.01829" lon="4.38783">
        <ele>523.8</ele>
        <time>2025-09-09T07:47:48Z</time>
      </trkpt>
      <trkpt lat="46.01829" lon="4.38785">
        <ele>523.8</ele>
        <time>2025-09-09T07:47:49Z</time>
      </trkpt>
      <trkpt lat="46.0183" lon="4.38787">
        <ele>523.8</ele>
        <time>2025-09-09T07:47:50Z</time>
      </trkpt>
      <trkpt lat="46.0183" lon="4.38789">
        <ele>524.2</ele>
        <time>2025-09-09T07:47:51Z</time>
      </trkpt>
      <trkpt lat="46.0183" lon="4.38792">
        <ele>524.2</ele>
        <time>2025-09-09T07:47:52Z</time>
      </trkpt>
      <trkpt lat="46.01831" lon="4.38794">
        <ele>524.6</ele>
        <time>2025-09-09T07:47:53Z</time>
      </trkpt>
      <trkpt lat="46.01831" lon="4.38797">
        <ele>524.6</ele>
        <time>2025-09-09T07:47:54Z</time>
      </trkpt>
      <trkpt lat="46.01831" lon="4.38799">
        <ele>524.6</ele>
        <time>2025-09-09T07:47:55Z</time>
      </trkpt>
      <trkpt lat="46.01831" lon="4.38802">
        <ele>524.8</ele>
        <time>2025-09-09T07:47:56Z</time>
      </trkpt>
      <trkpt lat="46.01832" lon="4.38804">
        <ele>524.8</ele>
        <time>2025-09-09T07:47:57Z</time>
      </trkpt>
      <trkpt lat="46.01833" lon="4.38806">
        <ele>524.8</ele>
        <time>2025-09-09T07:47:58Z</time>
      </trkpt>
      <trkpt lat="46.01833" lon="4.38808">
        <ele>525</ele>
        <time>2025-09-09T07:47:59Z</time>
      </trkpt>
      <trkpt lat="46.01834" lon="4.38811">
        <ele>525</ele>
        <time>2025-09-09T07:48:00Z</time>
      </trkpt>
      <trkpt lat="46.01835" lon="4.38813">
        <ele>525</ele>
        <time>2025-09-09T07:48:01Z</time>
      </trkpt>
      <trkpt lat="46.01835" lon="4.38816">
        <ele>525.4</ele>
        <time>2025-09-09T07:48:02Z</time>
      </trkpt>
      <trkpt lat="46.01836" lon="4.38818">
        <ele>525.4</ele>
        <time>2025-09-09T07:48:03Z</time>
      </trkpt>
      <trkpt lat="46.01836" lon="4.3882">
        <ele>525.4</ele>
        <time>2025-09-09T07:48:04Z</time>
      </trkpt>
      <trkpt lat="46.01837" lon="4.38822">
        <ele>525.4</ele>
        <time>2025-09-09T07:48:05Z</time>
      </trkpt>
      <trkpt lat="46.01838" lon="4.38824">
        <ele>525.8</ele>
        <time>2025-09-09T07:48:06Z</time>
      </trkpt>
      <trkpt lat="46.01838" lon="4.38824">
        <ele>525.8</ele>
        <time>2025-09-09T07:48:07Z</time>
      </trkpt>
      <trkpt lat="46.01838" lon="4.38826">
        <ele>525.8</ele>
        <time>2025-09-09T07:48:08Z</time>
      </trkpt>
      <trkpt lat="46.01839" lon="4.38828">
        <ele>526</ele>
        <time>2025-09-09T07:48:09Z</time>
      </trkpt>
      <trkpt lat="46.01839" lon="4.3883">
        <ele>526</ele>
        <time>2025-09-09T07:48:10Z</time>
      </trkpt>
      <trkpt lat="46.0184" lon="4.38833">
        <ele>526.2</ele>
        <time>2025-09-09T07:48:11Z</time>
      </trkpt>
      <trkpt lat="46.0184" lon="4.38835">
        <ele>526.2</ele>
        <time>2025-09-09T07:48:12Z</time>
      </trkpt>
      <trkpt lat="46.01841" lon="4.38837">
        <ele>526.6</ele>
        <time>2025-09-09T07:48:13Z</time>
      </trkpt>
      <trkpt lat="46.01842" lon="4.3884">
        <ele>526.6</ele>
        <time>2025-09-09T07:48:14Z</time>
      </trkpt>
      <trkpt lat="46.01842" lon="4.38842">
        <ele>526.8</ele>
        <time>2025-09-09T07:48:15Z</time>
      </trkpt>
      <trkpt lat="46.01843" lon="4.38845">
        <ele>526.8</ele>
        <time>2025-09-09T07:48:16Z</time>
      </trkpt>
      <trkpt lat="46.01844" lon="4.38848">
        <ele>527</ele>
        <time>2025-09-09T07:48:17Z</time>
      </trkpt>
      <trkpt lat="46.01844" lon="4.3885">
        <ele>527</ele>
        <time>2025-09-09T07:48:18Z</time>
      </trkpt>
      <trkpt lat="46.01846" lon="4.38853">
        <ele>527</ele>
        <time>2025-09-09T07:48:19Z</time>
      </trkpt>
      <trkpt lat="46.01847" lon="4.38855">
        <ele>527</ele>
        <time>2025-09-09T07:48:20Z</time>
      </trkpt>
      <trkpt lat="46.01848" lon="4.38858">
        <ele>527</ele>
        <time>2025-09-09T07:48:21Z</time>
      </trkpt>
      <trkpt lat="46.01848" lon="4.38861">
        <ele>527</ele>
        <time>2025-09-09T07:48:22Z</time>
      </trkpt>
      <trkpt lat="46.01849" lon="4.38863">
        <ele>527.4</ele>
        <time>2025-09-09T07:48:23Z</time>
      </trkpt>
      <trkpt lat="46.01849" lon="4.38866">
        <ele>527.4</ele>
        <time>2025-09-09T07:48:24Z</time>
      </trkpt>
      <trkpt lat="46.01849" lon="4.38869">
        <ele>527.4</ele>
        <time>2025-09-09T07:48:25Z</time>
      </trkpt>
      <trkpt lat="46.0185" lon="4.38871">
        <ele>527.4</ele>
        <time>2025-09-09T07:48:26Z</time>
      </trkpt>
      <trkpt lat="46.01851" lon="4.38874">
        <ele>527.4</ele>
        <time>2025-09-09T07:48:27Z</time>
      </trkpt>
      <trkpt lat="46.01851" lon="4.38876">
        <ele>527.4</ele>
        <time>2025-09-09T07:48:28Z</time>
      </trkpt>
      <trkpt lat="46.01852" lon="4.38878">
        <ele>527.6</ele>
        <time>2025-09-09T07:48:29Z</time>
      </trkpt>
      <trkpt lat="46.01853" lon="4.38881">
        <ele>527.6</ele>
        <time>2025-09-09T07:48:30Z</time>
      </trkpt>
      <trkpt lat="46.01853" lon="4.38883">
        <ele>527.6</ele>
        <time>2025-09-09T07:48:31Z</time>
      </trkpt>
      <trkpt lat="46.01854" lon="4.38885">
        <ele>527.8</ele>
        <time>2025-09-09T07:48:32Z</time>
      </trkpt>
      <trkpt lat="46.01855" lon="4.38888">
        <ele>527.8</ele>
        <time>2025-09-09T07:48:33Z</time>
      </trkpt>
      <trkpt lat="46.01856" lon="4.3889">
        <ele>528.2</ele>
        <time>2025-09-09T07:48:34Z</time>
      </trkpt>
      <trkpt lat="46.01857" lon="4.38893">
        <ele>528.2</ele>
        <time>2025-09-09T07:48:35Z</time>
      </trkpt>
      <trkpt lat="46.01857" lon="4.38895">
        <ele>528.4</ele>
        <time>2025-09-09T07:48:36Z</time>
      </trkpt>
      <trkpt lat="46.01858" lon="4.38898">
        <ele>528.6</ele>
        <time>2025-09-09T07:48:37Z</time>
      </trkpt>
      <trkpt lat="46.01859" lon="4.389">
        <ele>528.6</ele>
        <time>2025-09-09T07:48:38Z</time>
      </trkpt>
      <trkpt lat="46.0186" lon="4.38902">
        <ele>529</ele>
        <time>2025-09-09T07:48:39Z</time>
      </trkpt>
      <trkpt lat="46.01861" lon="4.38905">
        <ele>529</ele>
        <time>2025-09-09T07:48:40Z</time>
      </trkpt>
      <trkpt lat="46.01862" lon="4.38908">
        <ele>529</ele>
        <time>2025-09-09T07:48:41Z</time>
      </trkpt>
      <trkpt lat="46.01862" lon="4.3891">
        <ele>529</ele>
        <time>2025-09-09T07:48:42Z</time>
      </trkpt>
      <trkpt lat="46.01863" lon="4.38913">
        <ele>529</ele>
        <time>2025-09-09T07:48:43Z</time>
      </trkpt>
      <trkpt lat="46.01864" lon="4.38915">
        <ele>529.2</ele>
        <time>2025-09-09T07:48:44Z</time>
      </trkpt>
      <trkpt lat="46.01865" lon="4.38918">
        <ele>529.2</ele>
        <time>2025-09-09T07:48:45Z</time>
      </trkpt>
      <trkpt lat="46.01866" lon="4.3892">
        <ele>529.2</ele>
        <time>2025-09-09T07:48:46Z</time>
      </trkpt>
      <trkpt lat="46.01867" lon="4.38923">
        <ele>529.4</ele>
        <time>2025-09-09T07:48:47Z</time>
      </trkpt>
      <trkpt lat="46.01868" lon="4.38925">
        <ele>529.6</ele>
        <time>2025-09-09T07:48:48Z</time>
      </trkpt>
      <trkpt lat="46.01869" lon="4.38928">
        <ele>529.6</ele>
        <time>2025-09-09T07:48:49Z</time>
      </trkpt>
      <trkpt lat="46.0187" lon="4.3893">
        <ele>529.6</ele>
        <time>2025-09-09T07:48:50Z</time>
      </trkpt>
      <trkpt lat="46.01871" lon="4.38932">
        <ele>529.8</ele>
        <time>2025-09-09T07:48:51Z</time>
      </trkpt>
      <trkpt lat="46.01872" lon="4.38935">
        <ele>529.8</ele>
        <time>2025-09-09T07:48:52Z</time>
      </trkpt>
      <trkpt lat="46.01873" lon="4.38938">
        <ele>530.2</ele>
        <time>2025-09-09T07:48:53Z</time>
      </trkpt>
      <trkpt lat="46.01874" lon="4.3894">
        <ele>530.2</ele>
        <time>2025-09-09T07:48:54Z</time>
      </trkpt>
      <trkpt lat="46.01875" lon="4.38943">
        <ele>530.2</ele>
        <time>2025-09-09T07:48:55Z</time>
      </trkpt>
      <trkpt lat="46.01876" lon="4.38945">
        <ele>530.2</ele>
        <time>2025-09-09T07:48:56Z</time>
      </trkpt>
      <trkpt lat="46.01877" lon="4.38948">
        <ele>530.2</ele>
        <time>2025-09-09T07:48:57Z</time>
      </trkpt>
      <trkpt lat="46.01877" lon="4.3895">
        <ele>530.4</ele>
        <time>2025-09-09T07:48:58Z</time>
      </trkpt>
      <trkpt lat="46.01878" lon="4.38953">
        <ele>530.4</ele>
        <time>2025-09-09T07:48:59Z</time>
      </trkpt>
      <trkpt lat="46.01879" lon="4.38956">
        <ele>530.4</ele>
        <time>2025-09-09T07:49:00Z</time>
      </trkpt>
      <trkpt lat="46.0188" lon="4.3896">
        <ele>530.6</ele>
        <time>2025-09-09T07:49:01Z</time>
      </trkpt>
      <trkpt lat="46.01882" lon="4.38963">
        <ele>530.6</ele>
        <time>2025-09-09T07:49:02Z</time>
      </trkpt>
      <trkpt lat="46.01883" lon="4.38966">
        <ele>531</ele>
        <time>2025-09-09T07:49:03Z</time>
      </trkpt>
      <trkpt lat="46.01884" lon="4.38969">
        <ele>530.8</ele>
        <time>2025-09-09T07:49:04Z</time>
      </trkpt>
      <trkpt lat="46.01885" lon="4.38972">
        <ele>530.8</ele>
        <time>2025-09-09T07:49:05Z</time>
      </trkpt>
      <trkpt lat="46.01887" lon="4.38976">
        <ele>530.4</ele>
        <time>2025-09-09T07:49:06Z</time>
      </trkpt>
      <trkpt lat="46.01888" lon="4.38979">
        <ele>530.4</ele>
        <time>2025-09-09T07:49:07Z</time>
      </trkpt>
      <trkpt lat="46.0189" lon="4.38983">
        <ele>530</ele>
        <time>2025-09-09T07:49:08Z</time>
      </trkpt>
      <trkpt lat="46.01891" lon="4.38987">
        <ele>530</ele>
        <time>2025-09-09T07:49:09Z</time>
      </trkpt>
      <trkpt lat="46.01892" lon="4.38991">
        <ele>530</ele>
        <time>2025-09-09T07:49:10Z</time>
      </trkpt>
      <trkpt lat="46.01893" lon="4.38995">
        <ele>529.8</ele>
        <time>2025-09-09T07:49:11Z</time>
      </trkpt>
      <trkpt lat="46.01894" lon="4.38999">
        <ele>529.8</ele>
        <time>2025-09-09T07:49:12Z</time>
      </trkpt>
      <trkpt lat="46.01896" lon="4.39004">
        <ele>529.8</ele>
        <time>2025-09-09T07:49:13Z</time>
      </trkpt>
      <trkpt lat="46.01897" lon="4.39008">
        <ele>530</ele>
        <time>2025-09-09T07:49:14Z</time>
      </trkpt>
      <trkpt lat="46.01898" lon="4.39013">
        <ele>530</ele>
        <time>2025-09-09T07:49:15Z</time>
      </trkpt>
      <trkpt lat="46.019" lon="4.39017">
        <ele>530</ele>
        <time>2025-09-09T07:49:16Z</time>
      </trkpt>
      <trkpt lat="46.01902" lon="4.39022">
        <ele>530</ele>
        <time>2025-09-09T07:49:17Z</time>
      </trkpt>
      <trkpt lat="46.01904" lon="4.39027">
        <ele>530</ele>
        <time>2025-09-09T07:49:18Z</time>
      </trkpt>
      <trkpt lat="46.01906" lon="4.39032">
        <ele>530.4</ele>
        <time>2025-09-09T07:49:19Z</time>
      </trkpt>
      <trkpt lat="46.01907" lon="4.39036">
        <ele>530.4</ele>
        <time>2025-09-09T07:49:20Z</time>
      </trkpt>
      <trkpt lat="46.01909" lon="4.39041">
        <ele>530.4</ele>
        <time>2025-09-09T07:49:21Z</time>
      </trkpt>
      <trkpt lat="46.0191" lon="4.39047">
        <ele>530.4</ele>
        <time>2025-09-09T07:49:22Z</time>
      </trkpt>
      <trkpt lat="46.01912" lon="4.39052">
        <ele>530.4</ele>
        <time>2025-09-09T07:49:23Z</time>
      </trkpt>
      <trkpt lat="46.01913" lon="4.39056">
        <ele>530.4</ele>
        <time>2025-09-09T07:49:24Z</time>
      </trkpt>
      <trkpt lat="46.01915" lon="4.39061">
        <ele>530.4</ele>
        <time>2025-09-09T07:49:25Z</time>
      </trkpt>
      <trkpt lat="46.01917" lon="4.39066">
        <ele>530.8</ele>
        <time>2025-09-09T07:49:26Z</time>
      </trkpt>
      <trkpt lat="46.01919" lon="4.39071">
        <ele>530.8</ele>
        <time>2025-09-09T07:49:27Z</time>
      </trkpt>
      <trkpt lat="46.0192" lon="4.39075">
        <ele>531</ele>
        <time>2025-09-09T07:49:28Z</time>
      </trkpt>
      <trkpt lat="46.01922" lon="4.3908">
        <ele>531</ele>
        <time>2025-09-09T07:49:29Z</time>
      </trkpt>
      <trkpt lat="46.01924" lon="4.39084">
        <ele>531.2</ele>
        <time>2025-09-09T07:49:30Z</time>
      </trkpt>
      <trkpt lat="46.01925" lon="4.39088">
        <ele>531.2</ele>
        <time>2025-09-09T07:49:31Z</time>
      </trkpt>
      <trkpt lat="46.01927" lon="4.39092">
        <ele>531.4</ele>
        <time>2025-09-09T07:49:32Z</time>
      </trkpt>
      <trkpt lat="46.01929" lon="4.39097">
        <ele>531.4</ele>
        <time>2025-09-09T07:49:33Z</time>
      </trkpt>
      <trkpt lat="46.0193" lon="4.391">
        <ele>531.4</ele>
        <time>2025-09-09T07:49:34Z</time>
      </trkpt>
      <trkpt lat="46.01931" lon="4.39102">
        <ele>531.4</ele>
        <time>2025-09-09T07:49:35Z</time>
      </trkpt>
      <trkpt lat="46.01933" lon="4.39106">
        <ele>532.2</ele>
        <time>2025-09-09T07:49:36Z</time>
      </trkpt>
      <trkpt lat="46.01934" lon="4.39109">
        <ele>532.2</ele>
        <time>2025-09-09T07:49:37Z</time>
      </trkpt>
      <trkpt lat="46.01935" lon="4.39112">
        <ele>532.2</ele>
        <time>2025-09-09T07:49:38Z</time>
      </trkpt>
      <trkpt lat="46.01936" lon="4.39115">
        <ele>532.6</ele>
        <time>2025-09-09T07:49:39Z</time>
      </trkpt>
      <trkpt lat="46.01936" lon="4.39118">
        <ele>532.6</ele>
        <time>2025-09-09T07:49:40Z</time>
      </trkpt>
      <trkpt lat="46.01937" lon="4.39122">
        <ele>532.8</ele>
        <time>2025-09-09T07:49:41Z</time>
      </trkpt>
      <trkpt lat="46.01938" lon="4.39126">
        <ele>533.2</ele>
        <time>2025-09-09T07:49:42Z</time>
      </trkpt>
      <trkpt lat="46.01939" lon="4.39129">
        <ele>533.2</ele>
        <time>2025-09-09T07:49:43Z</time>
      </trkpt>
      <trkpt lat="46.01941" lon="4.39133">
        <ele>533.2</ele>
        <time>2025-09-09T07:49:44Z</time>
      </trkpt>
      <trkpt lat="46.01942" lon="4.39136">
        <ele>533.2</ele>
        <time>2025-09-09T07:49:45Z</time>
      </trkpt>
      <trkpt lat="46.01942" lon="4.3914">
        <ele>533.4</ele>
        <time>2025-09-09T07:49:46Z</time>
      </trkpt>
      <trkpt lat="46.01943" lon="4.39144">
        <ele>533.6</ele>
        <time>2025-09-09T07:49:47Z</time>
      </trkpt>
      <trkpt lat="46.01944" lon="4.39148">
        <ele>533.6</ele>
        <time>2025-09-09T07:49:48Z</time>
      </trkpt>
      <trkpt lat="46.01945" lon="4.39153">
        <ele>533.6</ele>
        <time>2025-09-09T07:49:49Z</time>
      </trkpt>
      <trkpt lat="46.01946" lon="4.39157">
        <ele>533.6</ele>
        <time>2025-09-09T07:49:50Z</time>
      </trkpt>
      <trkpt lat="46.01946" lon="4.39161">
        <ele>533.6</ele>
        <time>2025-09-09T07:49:51Z</time>
      </trkpt>
      <trkpt lat="46.01947" lon="4.39164">
        <ele>533.8</ele>
        <time>2025-09-09T07:49:52Z</time>
      </trkpt>
      <trkpt lat="46.01947" lon="4.39168">
        <ele>533.8</ele>
        <time>2025-09-09T07:49:53Z</time>
      </trkpt>
      <trkpt lat="46.01947" lon="4.39171">
        <ele>534.2</ele>
        <time>2025-09-09T07:49:54Z</time>
      </trkpt>
      <trkpt lat="46.01947" lon="4.39175">
        <ele>534.2</ele>
        <time>2025-09-09T07:49:55Z</time>
      </trkpt>
      <trkpt lat="46.01947" lon="4.39179">
        <ele>534.4</ele>
        <time>2025-09-09T07:49:56Z</time>
      </trkpt>
      <trkpt lat="46.01947" lon="4.39182">
        <ele>534.4</ele>
        <time>2025-09-09T07:49:57Z</time>
      </trkpt>
      <trkpt lat="46.01947" lon="4.39186">
        <ele>534.4</ele>
        <time>2025-09-09T07:49:58Z</time>
      </trkpt>
      <trkpt lat="46.01947" lon="4.39191">
        <ele>534.8</ele>
        <time>2025-09-09T07:49:59Z</time>
      </trkpt>
      <trkpt lat="46.01947" lon="4.39196">
        <ele>534.8</ele>
        <time>2025-09-09T07:50:00Z</time>
      </trkpt>
      <trkpt lat="46.01948" lon="4.39201">
        <ele>534.8</ele>
        <time>2025-09-09T07:50:01Z</time>
      </trkpt>
      <trkpt lat="46.01948" lon="4.39206">
        <ele>534.8</ele>
        <time>2025-09-09T07:50:02Z</time>
      </trkpt>
      <trkpt lat="46.01949" lon="4.39212">
        <ele>534.8</ele>
        <time>2025-09-09T07:50:03Z</time>
      </trkpt>
      <trkpt lat="46.0195" lon="4.39216">
        <ele>534.8</ele>
        <time>2025-09-09T07:50:04Z</time>
      </trkpt>
      <trkpt lat="46.0195" lon="4.39221">
        <ele>535</ele>
        <time>2025-09-09T07:50:05Z</time>
      </trkpt>
      <trkpt lat="46.01951" lon="4.39226">
        <ele>535</ele>
        <time>2025-09-09T07:50:06Z</time>
      </trkpt>
      <trkpt lat="46.01951" lon="4.3923">
        <ele>535.2</ele>
        <time>2025-09-09T07:50:07Z</time>
      </trkpt>
      <trkpt lat="46.01952" lon="4.39235">
        <ele>535.2</ele>
        <time>2025-09-09T07:50:08Z</time>
      </trkpt>
      <trkpt lat="46.01952" lon="4.39238">
        <ele>535.2</ele>
        <time>2025-09-09T07:50:09Z</time>
      </trkpt>
      <trkpt lat="46.01953" lon="4.39242">
        <ele>535.2</ele>
        <time>2025-09-09T07:50:10Z</time>
      </trkpt>
      <trkpt lat="46.01954" lon="4.39247">
        <ele>535.6</ele>
        <time>2025-09-09T07:50:11Z</time>
      </trkpt>
      <trkpt lat="46.01955" lon="4.3925">
        <ele>535.6</ele>
        <time>2025-09-09T07:50:12Z</time>
      </trkpt>
      <trkpt lat="46.01956" lon="4.39255">
        <ele>535.6</ele>
        <time>2025-09-09T07:50:13Z</time>
      </trkpt>
      <trkpt lat="46.01956" lon="4.39259">
        <ele>535.6</ele>
        <time>2025-09-09T07:50:14Z</time>
      </trkpt>
      <trkpt lat="46.01956" lon="4.39262">
        <ele>535.8</ele>
        <time>2025-09-09T07:50:15Z</time>
      </trkpt>
      <trkpt lat="46.01956" lon="4.39266">
        <ele>536</ele>
        <time>2025-09-09T07:50:16Z</time>
      </trkpt>
      <trkpt lat="46.01957" lon="4.3927">
        <ele>536</ele>
        <time>2025-09-09T07:50:17Z</time>
      </trkpt>
      <trkpt lat="46.01957" lon="4.39274">
        <ele>536.4</ele>
        <time>2025-09-09T07:50:18Z</time>
      </trkpt>
      <trkpt lat="46.01956" lon="4.39277">
        <ele>536.4</ele>
        <time>2025-09-09T07:50:19Z</time>
      </trkpt>
      <trkpt lat="46.01956" lon="4.39281">
        <ele>536.8</ele>
        <time>2025-09-09T07:50:20Z</time>
      </trkpt>
      <trkpt lat="46.01955" lon="4.39284">
        <ele>536.8</ele>
        <time>2025-09-09T07:50:21Z</time>
      </trkpt>
      <trkpt lat="46.01954" lon="4.39287">
        <ele>537.2</ele>
        <time>2025-09-09T07:50:22Z</time>
      </trkpt>
      <trkpt lat="46.01952" lon="4.39288">
        <ele>537.2</ele>
        <time>2025-09-09T07:50:23Z</time>
      </trkpt>
      <trkpt lat="46.01951" lon="4.3929">
        <ele>537.2</ele>
        <time>2025-09-09T07:50:24Z</time>
      </trkpt>
      <trkpt lat="46.01949" lon="4.39291">
        <ele>537.2</ele>
        <time>2025-09-09T07:50:25Z</time>
      </trkpt>
      <trkpt lat="46.01948" lon="4.39292">
        <ele>537.2</ele>
        <time>2025-09-09T07:50:26Z</time>
      </trkpt>
      <trkpt lat="46.01947" lon="4.39293">
        <ele>537.2</ele>
        <time>2025-09-09T07:50:27Z</time>
      </trkpt>
      <trkpt lat="46.01945" lon="4.39295">
        <ele>537.2</ele>
        <time>2025-09-09T07:50:28Z</time>
      </trkpt>
      <trkpt lat="46.01943" lon="4.39298">
        <ele>537.2</ele>
        <time>2025-09-09T07:50:29Z</time>
      </trkpt>
      <trkpt lat="46.01941" lon="4.39302">
        <ele>537.2</ele>
        <time>2025-09-09T07:50:30Z</time>
      </trkpt>
      <trkpt lat="46.01939" lon="4.39306">
        <ele>536.8</ele>
        <time>2025-09-09T07:50:31Z</time>
      </trkpt>
      <trkpt lat="46.01938" lon="4.39311">
        <ele>536.8</ele>
        <time>2025-09-09T07:50:32Z</time>
      </trkpt>
      <trkpt lat="46.01936" lon="4.39316">
        <ele>536.6</ele>
        <time>2025-09-09T07:50:33Z</time>
      </trkpt>
      <trkpt lat="46.01935" lon="4.39321">
        <ele>536.6</ele>
        <time>2025-09-09T07:50:34Z</time>
      </trkpt>
      <trkpt lat="46.01933" lon="4.39329">
        <ele>536.6</ele>
        <time>2025-09-09T07:50:35Z</time>
      </trkpt>
      <trkpt lat="46.01931" lon="4.39335">
        <ele>536.6</ele>
        <time>2025-09-09T07:50:36Z</time>
      </trkpt>
      <trkpt lat="46.0193" lon="4.39341">
        <ele>536.6</ele>
        <time>2025-09-09T07:50:37Z</time>
      </trkpt>
      <trkpt lat="46.01927" lon="4.39348">
        <ele>536</ele>
        <time>2025-09-09T07:50:38Z</time>
      </trkpt>
      <trkpt lat="46.01925" lon="4.39355">
        <ele>536</ele>
        <time>2025-09-09T07:50:39Z</time>
      </trkpt>
      <trkpt lat="46.01923" lon="4.39362">
        <ele>535.8</ele>
        <time>2025-09-09T07:50:40Z</time>
      </trkpt>
      <trkpt lat="46.01921" lon="4.3937">
        <ele>535.4</ele>
        <time>2025-09-09T07:50:41Z</time>
      </trkpt>
      <trkpt lat="46.0192" lon="4.39378">
        <ele>535</ele>
        <time>2025-09-09T07:50:42Z</time>
      </trkpt>
      <trkpt lat="46.01918" lon="4.39386">
        <ele>534.8</ele>
        <time>2025-09-09T07:50:43Z</time>
      </trkpt>
      <trkpt lat="46.01916" lon="4.39395">
        <ele>534.4</ele>
        <time>2025-09-09T07:50:44Z</time>
      </trkpt>
      <trkpt lat="46.01914" lon="4.39404">
        <ele>534.4</ele>
        <time>2025-09-09T07:50:45Z</time>
      </trkpt>
      <trkpt lat="46.01912" lon="4.39413">
        <ele>533.8</ele>
        <time>2025-09-09T07:50:46Z</time>
      </trkpt>
      <trkpt lat="46.01912" lon="4.39422">
        <ele>533.8</ele>
        <time>2025-09-09T07:50:47Z</time>
      </trkpt>
      <trkpt lat="46.0191" lon="4.39431">
        <ele>533.8</ele>
        <time>2025-09-09T07:50:48Z</time>
      </trkpt>
      <trkpt lat="46.01909" lon="4.39441">
        <ele>533.4</ele>
        <time>2025-09-09T07:50:49Z</time>
      </trkpt>
      <trkpt lat="46.01906" lon="4.3945">
        <ele>532.8</ele>
        <time>2025-09-09T07:50:50Z</time>
      </trkpt>
      <trkpt lat="46.01904" lon="4.3946">
        <ele>532.4</ele>
        <time>2025-09-09T07:50:51Z</time>
      </trkpt>
      <trkpt lat="46.01901" lon="4.3947">
        <ele>532.4</ele>
        <time>2025-09-09T07:50:52Z</time>
      </trkpt>
      <trkpt lat="46.01899" lon="4.39479">
        <ele>533</ele>
        <time>2025-09-09T07:50:53Z</time>
      </trkpt>
      <trkpt lat="46.01897" lon="4.39487">
        <ele>533</ele>
        <time>2025-09-09T07:50:54Z</time>
      </trkpt>
      <trkpt lat="46.01895" lon="4.39492">
        <ele>533.4</ele>
        <time>2025-09-09T07:50:55Z</time>
      </trkpt>
      <trkpt lat="46.01895" lon="4.39499">
        <ele>533.6</ele>
        <time>2025-09-09T07:50:56Z</time>
      </trkpt>
      <trkpt lat="46.01896" lon="4.39505">
        <ele>533.6</ele>
        <time>2025-09-09T07:50:57Z</time>
      </trkpt>
      <trkpt lat="46.01896" lon="4.39509">
        <ele>534</ele>
        <time>2025-09-09T07:50:58Z</time>
      </trkpt>
      <trkpt lat="46.01896" lon="4.39512">
        <ele>534.4</ele>
        <time>2025-09-09T07:50:59Z</time>
      </trkpt>
      <trkpt lat="46.01895" lon="4.39515">
        <ele>534.4</ele>
        <time>2025-09-09T07:51:00Z</time>
      </trkpt>
      <trkpt lat="46.01896" lon="4.39517">
        <ele>534.6</ele>
        <time>2025-09-09T07:51:01Z</time>
      </trkpt>
      <trkpt lat="46.01896" lon="4.3952">
        <ele>534.6</ele>
        <time>2025-09-09T07:51:02Z</time>
      </trkpt>
      <trkpt lat="46.01897" lon="4.39521">
        <ele>535</ele>
        <time>2025-09-09T07:51:03Z</time>
      </trkpt>
      <trkpt lat="46.01897" lon="4.39524">
        <ele>535</ele>
        <time>2025-09-09T07:51:04Z</time>
      </trkpt>
      <trkpt lat="46.01897" lon="4.39526">
        <ele>535</ele>
        <time>2025-09-09T07:51:05Z</time>
      </trkpt>
      <trkpt lat="46.01897" lon="4.39528">
        <ele>535.4</ele>
        <time>2025-09-09T07:51:06Z</time>
      </trkpt>
      <trkpt lat="46.01897" lon="4.3953">
        <ele>535.4</ele>
        <time>2025-09-09T07:51:07Z</time>
      </trkpt>
      <trkpt lat="46.01897" lon="4.39532">
        <ele>536</ele>
        <time>2025-09-09T07:51:08Z</time>
      </trkpt>
      <trkpt lat="46.01898" lon="4.39534">
        <ele>536.2</ele>
        <time>2025-09-09T07:51:09Z</time>
      </trkpt>
      <trkpt lat="46.01898" lon="4.39536">
        <ele>536.2</ele>
        <time>2025-09-09T07:51:10Z</time>
      </trkpt>
      <trkpt lat="46.01898" lon="4.39538">
        <ele>536.6</ele>
        <time>2025-09-09T07:51:11Z</time>
      </trkpt>
      <trkpt lat="46.01897" lon="4.39541">
        <ele>536.6</ele>
        <time>2025-09-09T07:51:12Z</time>
      </trkpt>
      <trkpt lat="46.01897" lon="4.39543">
        <ele>537.2</ele>
        <time>2025-09-09T07:51:13Z</time>
      </trkpt>
      <trkpt lat="46.01897" lon="4.39546">
        <ele>537.4</ele>
        <time>2025-09-09T07:51:14Z</time>
      </trkpt>
      <trkpt lat="46.01897" lon="4.39549">
        <ele>537.6</ele>
        <time>2025-09-09T07:51:15Z</time>
      </trkpt>
      <trkpt lat="46.01897" lon="4.39551">
        <ele>537.6</ele>
        <time>2025-09-09T07:51:16Z</time>
      </trkpt>
      <trkpt lat="46.01897" lon="4.39554">
        <ele>538</ele>
        <time>2025-09-09T07:51:17Z</time>
      </trkpt>
      <trkpt lat="46.01896" lon="4.39556">
        <ele>538</ele>
        <time>2025-09-09T07:51:18Z</time>
      </trkpt>
      <trkpt lat="46.01896" lon="4.39559">
        <ele>538.2</ele>
        <time>2025-09-09T07:51:19Z</time>
      </trkpt>
      <trkpt lat="46.01896" lon="4.39561">
        <ele>538.4</ele>
        <time>2025-09-09T07:51:20Z</time>
      </trkpt>
      <trkpt lat="46.01895" lon="4.39563">
        <ele>538.6</ele>
        <time>2025-09-09T07:51:21Z</time>
      </trkpt>
      <trkpt lat="46.01895" lon="4.39566">
        <ele>538.6</ele>
        <time>2025-09-09T07:51:22Z</time>
      </trkpt>
      <trkpt lat="46.01895" lon="4.39569">
        <ele>539</ele>
        <time>2025-09-09T07:51:23Z</time>
      </trkpt>
      <trkpt lat="46.01894" lon="4.39571">
        <ele>539</ele>
        <time>2025-09-09T07:51:24Z</time>
      </trkpt>
      <trkpt lat="46.01894" lon="4.39574">
        <ele>539</ele>
        <time>2025-09-09T07:51:25Z</time>
      </trkpt>
      <trkpt lat="46.01893" lon="4.39576">
        <ele>539.2</ele>
        <time>2025-09-09T07:51:26Z</time>
      </trkpt>
      <trkpt lat="46.01893" lon="4.39579">
        <ele>539.2</ele>
        <time>2025-09-09T07:51:27Z</time>
      </trkpt>
      <trkpt lat="46.01893" lon="4.39582">
        <ele>539.6</ele>
        <time>2025-09-09T07:51:28Z</time>
      </trkpt>
      <trkpt lat="46.01892" lon="4.39584">
        <ele>539.6</ele>
        <time>2025-09-09T07:51:29Z</time>
      </trkpt>
      <trkpt lat="46.01892" lon="4.39587">
        <ele>539.6</ele>
        <time>2025-09-09T07:51:30Z</time>
      </trkpt>
      <trkpt lat="46.01892" lon="4.39589">
        <ele>539.8</ele>
        <time>2025-09-09T07:51:31Z</time>
      </trkpt>
      <trkpt lat="46.01892" lon="4.39591">
        <ele>539.8</ele>
        <time>2025-09-09T07:51:32Z</time>
      </trkpt>
      <trkpt lat="46.01892" lon="4.39594">
        <ele>539.8</ele>
        <time>2025-09-09T07:51:33Z</time>
      </trkpt>
      <trkpt lat="46.01891" lon="4.39596">
        <ele>540</ele>
        <time>2025-09-09T07:51:34Z</time>
      </trkpt>
      <trkpt lat="46.01891" lon="4.39597">
        <ele>540.4</ele>
        <time>2025-09-09T07:51:35Z</time>
      </trkpt>
      <trkpt lat="46.01891" lon="4.39599">
        <ele>540.4</ele>
        <time>2025-09-09T07:51:36Z</time>
      </trkpt>
      <trkpt lat="46.01891" lon="4.39601">
        <ele>540.4</ele>
        <time>2025-09-09T07:51:37Z</time>
      </trkpt>
      <trkpt lat="46.01891" lon="4.39603">
        <ele>540.6</ele>
        <time>2025-09-09T07:51:38Z</time>
      </trkpt>
      <trkpt lat="46.01891" lon="4.39605">
        <ele>540.6</ele>
        <time>2025-09-09T07:51:39Z</time>
      </trkpt>
      <trkpt lat="46.0189" lon="4.39607">
        <ele>540.6</ele>
        <time>2025-09-09T07:51:40Z</time>
      </trkpt>
      <trkpt lat="46.01891" lon="4.39609">
        <ele>541</ele>
        <time>2025-09-09T07:51:41Z</time>
      </trkpt>
      <trkpt lat="46.01891" lon="4.3961">
        <ele>541</ele>
        <time>2025-09-09T07:51:42Z</time>
      </trkpt>
      <trkpt lat="46.01891" lon="4.39612">
        <ele>541</ele>
        <time>2025-09-09T07:51:43Z</time>
      </trkpt>
      <trkpt lat="46.01891" lon="4.39614">
        <ele>541.2</ele>
        <time>2025-09-09T07:51:44Z</time>
      </trkpt>
      <trkpt lat="46.01891" lon="4.39617">
        <ele>541.6</ele>
        <time>2025-09-09T07:51:45Z</time>
      </trkpt>
      <trkpt lat="46.0189" lon="4.39619">
        <ele>541.6</ele>
        <time>2025-09-09T07:51:46Z</time>
      </trkpt>
      <trkpt lat="46.0189" lon="4.39619">
        <ele>541.6</ele>
        <time>2025-09-09T07:51:47Z</time>
      </trkpt>
      <trkpt lat="46.0189" lon="4.39622">
        <ele>542</ele>
        <time>2025-09-09T07:51:48Z</time>
      </trkpt>
      <trkpt lat="46.0189" lon="4.39624">
        <ele>542.2</ele>
        <time>2025-09-09T07:51:49Z</time>
      </trkpt>
      <trkpt lat="46.0189" lon="4.39626">
        <ele>542.2</ele>
        <time>2025-09-09T07:51:50Z</time>
      </trkpt>
      <trkpt lat="46.0189" lon="4.39628">
        <ele>542.4</ele>
        <time>2025-09-09T07:51:51Z</time>
      </trkpt>
      <trkpt lat="46.01889" lon="4.3963">
        <ele>542.4</ele>
        <time>2025-09-09T07:51:52Z</time>
      </trkpt>
      <trkpt lat="46.01889" lon="4.39633">
        <ele>542.8</ele>
        <time>2025-09-09T07:51:53Z</time>
      </trkpt>
      <trkpt lat="46.01889" lon="4.39635">
        <ele>542.8</ele>
        <time>2025-09-09T07:51:54Z</time>
      </trkpt>
      <trkpt lat="46.01889" lon="4.39638">
        <ele>543</ele>
        <time>2025-09-09T07:51:55Z</time>
      </trkpt>
      <trkpt lat="46.01888" lon="4.3964">
        <ele>543</ele>
        <time>2025-09-09T07:51:56Z</time>
      </trkpt>
      <trkpt lat="46.01888" lon="4.39642">
        <ele>543</ele>
        <time>2025-09-09T07:51:57Z</time>
      </trkpt>
      <trkpt lat="46.01888" lon="4.39644">
        <ele>543.4</ele>
        <time>2025-09-09T07:51:58Z</time>
      </trkpt>
      <trkpt lat="46.01888" lon="4.39647">
        <ele>543.4</ele>
        <time>2025-09-09T07:51:59Z</time>
      </trkpt>
      <trkpt lat="46.01888" lon="4.39648">
        <ele>543.4</ele>
        <time>2025-09-09T07:52:00Z</time>
      </trkpt>
      <trkpt lat="46.01889" lon="4.39651">
        <ele>543.6</ele>
        <time>2025-09-09T07:52:01Z</time>
      </trkpt>
      <trkpt lat="46.01889" lon="4.39653">
        <ele>543.8</ele>
        <time>2025-09-09T07:52:02Z</time>
      </trkpt>
      <trkpt lat="46.01889" lon="4.39655">
        <ele>543.8</ele>
        <time>2025-09-09T07:52:03Z</time>
      </trkpt>
      <trkpt lat="46.01889" lon="4.39657">
        <ele>544</ele>
        <time>2025-09-09T07:52:04Z</time>
      </trkpt>
      <trkpt lat="46.01889" lon="4.39659">
        <ele>544</ele>
        <time>2025-09-09T07:52:05Z</time>
      </trkpt>
      <trkpt lat="46.01889" lon="4.39661">
        <ele>544</ele>
        <time>2025-09-09T07:52:06Z</time>
      </trkpt>
      <trkpt lat="46.01889" lon="4.39663">
        <ele>544.4</ele>
        <time>2025-09-09T07:52:07Z</time>
      </trkpt>
      <trkpt lat="46.01889" lon="4.39665">
        <ele>544.4</ele>
        <time>2025-09-09T07:52:08Z</time>
      </trkpt>
      <trkpt lat="46.01889" lon="4.39668">
        <ele>544.6</ele>
        <time>2025-09-09T07:52:09Z</time>
      </trkpt>
      <trkpt lat="46.01889" lon="4.3967">
        <ele>544.6</ele>
        <time>2025-09-09T07:52:10Z</time>
      </trkpt>
      <trkpt lat="46.01889" lon="4.39672">
        <ele>544.6</ele>
        <time>2025-09-09T07:52:11Z</time>
      </trkpt>
      <trkpt lat="46.01889" lon="4.39674">
        <ele>545</ele>
        <time>2025-09-09T07:52:12Z</time>
      </trkpt>
      <trkpt lat="46.0189" lon="4.39677">
        <ele>545.2</ele>
        <time>2025-09-09T07:52:13Z</time>
      </trkpt>
      <trkpt lat="46.0189" lon="4.3968">
        <ele>545.6</ele>
        <time>2025-09-09T07:52:14Z</time>
      </trkpt>
      <trkpt lat="46.0189" lon="4.3968">
        <ele>545.6</ele>
        <time>2025-09-09T07:52:15Z</time>
      </trkpt>
      <trkpt lat="46.0189" lon="4.3968">
        <ele>545.6</ele>
        <time>2025-09-09T07:52:16Z</time>
      </trkpt>
      <trkpt lat="46.0189" lon="4.39689">
        <ele>545.8</ele>
        <time>2025-09-09T07:52:18Z</time>
      </trkpt>
      <trkpt lat="46.0189" lon="4.39691">
        <ele>545.8</ele>
        <time>2025-09-09T07:52:19Z</time>
      </trkpt>
      <trkpt lat="46.0189" lon="4.39693">
        <ele>546.2</ele>
        <time>2025-09-09T07:52:20Z</time>
      </trkpt>
      <trkpt lat="46.0189" lon="4.39695">
        <ele>546.2</ele>
        <time>2025-09-09T07:52:21Z</time>
      </trkpt>
      <trkpt lat="46.01889" lon="4.39696">
        <ele>546.6</ele>
        <time>2025-09-09T07:52:22Z</time>
      </trkpt>
      <trkpt lat="46.01889" lon="4.39698">
        <ele>546.6</ele>
        <time>2025-09-09T07:52:23Z</time>
      </trkpt>
      <trkpt lat="46.01889" lon="4.397">
        <ele>546.8</ele>
        <time>2025-09-09T07:52:24Z</time>
      </trkpt>
      <trkpt lat="46.01889" lon="4.39701">
        <ele>546.8</ele>
        <time>2025-09-09T07:52:25Z</time>
      </trkpt>
      <trkpt lat="46.0189" lon="4.39701">
        <ele>547</ele>
        <time>2025-09-09T07:52:26Z</time>
      </trkpt>
      <trkpt lat="46.0189" lon="4.39701">
        <ele>547</ele>
        <time>2025-09-09T07:52:27Z</time>
      </trkpt>
      <trkpt lat="46.0189" lon="4.39703">
        <ele>547.4</ele>
        <time>2025-09-09T07:52:34Z</time>
      </trkpt>
      <trkpt lat="46.01889" lon="4.39705">
        <ele>547.4</ele>
        <time>2025-09-09T07:52:35Z</time>
      </trkpt>
      <trkpt lat="46.01889" lon="4.39706">
        <ele>547.4</ele>
        <time>2025-09-09T07:52:36Z</time>
      </trkpt>
      <trkpt lat="46.01889" lon="4.39707">
        <ele>547.6</ele>
        <time>2025-09-09T07:52:37Z</time>
      </trkpt>
      <trkpt lat="46.01888" lon="4.39707">
        <ele>547.8</ele>
        <time>2025-09-09T07:52:38Z</time>
      </trkpt>
      <trkpt lat="46.01888" lon="4.39708">
        <ele>548</ele>
        <time>2025-09-09T07:52:39Z</time>
      </trkpt>
      <trkpt lat="46.01888" lon="4.39709">
        <ele>548</ele>
        <time>2025-09-09T07:52:40Z</time>
      </trkpt>
      <trkpt lat="46.01887" lon="4.39711">
        <ele>548</ele>
        <time>2025-09-09T07:52:41Z</time>
      </trkpt>
      <trkpt lat="46.01887" lon="4.39713">
        <ele>548.2</ele>
        <time>2025-09-09T07:52:42Z</time>
      </trkpt>
      <trkpt lat="46.01887" lon="4.39715">
        <ele>548.2</ele>
        <time>2025-09-09T07:52:43Z</time>
      </trkpt>
      <trkpt lat="46.01887" lon="4.39717">
        <ele>548.6</ele>
        <time>2025-09-09T07:52:44Z</time>
      </trkpt>
      <trkpt lat="46.01886" lon="4.39718">
        <ele>548.8</ele>
        <time>2025-09-09T07:52:45Z</time>
      </trkpt>
      <trkpt lat="46.01886" lon="4.39719">
        <ele>548.8</ele>
        <time>2025-09-09T07:52:46Z</time>
      </trkpt>
      <trkpt lat="46.01886" lon="4.3972">
        <ele>548.8</ele>
        <time>2025-09-09T07:52:47Z</time>
      </trkpt>
      <trkpt lat="46.01887" lon="4.39723">
        <ele>549.2</ele>
        <time>2025-09-09T07:52:48Z</time>
      </trkpt>
      <trkpt lat="46.01887" lon="4.39725">
        <ele>549.2</ele>
        <time>2025-09-09T07:52:49Z</time>
      </trkpt>
      <trkpt lat="46.01888" lon="4.39727">
        <ele>549.6</ele>
        <time>2025-09-09T07:52:50Z</time>
      </trkpt>
      <trkpt lat="46.01888" lon="4.39729">
        <ele>549.8</ele>
        <time>2025-09-09T07:52:51Z</time>
      </trkpt>
      <trkpt lat="46.01888" lon="4.39732">
        <ele>549.8</ele>
        <time>2025-09-09T07:52:52Z</time>
      </trkpt>
      <trkpt lat="46.01888" lon="4.39734">
        <ele>550</ele>
        <time>2025-09-09T07:52:53Z</time>
      </trkpt>
      <trkpt lat="46.01887" lon="4.39735">
        <ele>550</ele>
        <time>2025-09-09T07:52:54Z</time>
      </trkpt>
      <trkpt lat="46.01887" lon="4.39736">
        <ele>550.4</ele>
        <time>2025-09-09T07:52:55Z</time>
      </trkpt>
      <trkpt lat="46.01887" lon="4.39737">
        <ele>550.4</ele>
        <time>2025-09-09T07:52:56Z</time>
      </trkpt>
      <trkpt lat="46.01888" lon="4.39739">
        <ele>550.6</ele>
        <time>2025-09-09T07:52:57Z</time>
      </trkpt>
      <trkpt lat="46.01889" lon="4.3974">
        <ele>550.8</ele>
        <time>2025-09-09T07:52:58Z</time>
      </trkpt>
      <trkpt lat="46.01889" lon="4.39742">
        <ele>550.8</ele>
        <time>2025-09-09T07:52:59Z</time>
      </trkpt>
      <trkpt lat="46.01889" lon="4.39744">
        <ele>551</ele>
        <time>2025-09-09T07:53:00Z</time>
      </trkpt>
      <trkpt lat="46.01889" lon="4.39745">
        <ele>551</ele>
        <time>2025-09-09T07:53:01Z</time>
      </trkpt>
      <trkpt lat="46.01889" lon="4.39747">
        <ele>551</ele>
        <time>2025-09-09T07:53:02Z</time>
      </trkpt>
      <trkpt lat="46.01889" lon="4.39748">
        <ele>551.4</ele>
        <time>2025-09-09T07:53:03Z</time>
      </trkpt>
      <trkpt lat="46.01888" lon="4.39749">
        <ele>551.6</ele>
        <time>2025-09-09T07:53:04Z</time>
      </trkpt>
      <trkpt lat="46.01888" lon="4.3975">
        <ele>551.8</ele>
        <time>2025-09-09T07:53:05Z</time>
      </trkpt>
      <trkpt lat="46.01888" lon="4.39751">
        <ele>551.8</ele>
        <time>2025-09-09T07:53:06Z</time>
      </trkpt>
      <trkpt lat="46.01888" lon="4.39752">
        <ele>552</ele>
        <time>2025-09-09T07:53:07Z</time>
      </trkpt>
      <trkpt lat="46.01888" lon="4.39753">
        <ele>552</ele>
        <time>2025-09-09T07:53:08Z</time>
      </trkpt>
      <trkpt lat="46.01888" lon="4.39754">
        <ele>552.2</ele>
        <time>2025-09-09T07:53:09Z</time>
      </trkpt>
      <trkpt lat="46.01888" lon="4.39755">
        <ele>552.2</ele>
        <time>2025-09-09T07:53:10Z</time>
      </trkpt>
      <trkpt lat="46.01888" lon="4.39756">
        <ele>552.4</ele>
        <time>2025-09-09T07:53:11Z</time>
      </trkpt>
      <trkpt lat="46.01888" lon="4.39757">
        <ele>552.4</ele>
        <time>2025-09-09T07:53:12Z</time>
      </trkpt>
      <trkpt lat="46.01889" lon="4.39759">
        <ele>552.8</ele>
        <time>2025-09-09T07:53:13Z</time>
      </trkpt>
      <trkpt lat="46.01889" lon="4.3976">
        <ele>553</ele>
        <time>2025-09-09T07:53:14Z</time>
      </trkpt>
      <trkpt lat="46.01889" lon="4.39761">
        <ele>553.2</ele>
        <time>2025-09-09T07:53:15Z</time>
      </trkpt>
      <trkpt lat="46.01889" lon="4.39762">
        <ele>553.2</ele>
        <time>2025-09-09T07:53:16Z</time>
      </trkpt>
      <trkpt lat="46.01889" lon="4.39763">
        <ele>553.6</ele>
        <time>2025-09-09T07:53:17Z</time>
      </trkpt>
      <trkpt lat="46.01889" lon="4.39764">
        <ele>553.6</ele>
        <time>2025-09-09T07:53:18Z</time>
      </trkpt>
      <trkpt lat="46.0189" lon="4.39765">
        <ele>553.6</ele>
        <time>2025-09-09T07:53:19Z</time>
      </trkpt>
      <trkpt lat="46.01891" lon="4.39766">
        <ele>553.8</ele>
        <time>2025-09-09T07:53:20Z</time>
      </trkpt>
      <trkpt lat="46.01892" lon="4.39768">
        <ele>553.8</ele>
        <time>2025-09-09T07:53:21Z</time>
      </trkpt>
      <trkpt lat="46.01893" lon="4.39769">
        <ele>554.2</ele>
        <time>2025-09-09T07:53:22Z</time>
      </trkpt>
      <trkpt lat="46.01893" lon="4.3977">
        <ele>554.2</ele>
        <time>2025-09-09T07:53:23Z</time>
      </trkpt>
      <trkpt lat="46.01892" lon="4.39772">
        <ele>554.4</ele>
        <time>2025-09-09T07:53:24Z</time>
      </trkpt>
      <trkpt lat="46.01892" lon="4.39773">
        <ele>554.4</ele>
        <time>2025-09-09T07:53:25Z</time>
      </trkpt>
      <trkpt lat="46.01891" lon="4.39774">
        <ele>554.8</ele>
        <time>2025-09-09T07:53:26Z</time>
      </trkpt>
      <trkpt lat="46.0189" lon="4.39775">
        <ele>554.8</ele>
        <time>2025-09-09T07:53:27Z</time>
      </trkpt>
      <trkpt lat="46.01889" lon="4.39776">
        <ele>555.4</ele>
        <time>2025-09-09T07:53:28Z</time>
      </trkpt>
      <trkpt lat="46.01888" lon="4.39777">
        <ele>555.6</ele>
        <time>2025-09-09T07:53:29Z</time>
      </trkpt>
      <trkpt lat="46.01888" lon="4.39779">
        <ele>555.6</ele>
        <time>2025-09-09T07:53:30Z</time>
      </trkpt>
      <trkpt lat="46.01888" lon="4.3978">
        <ele>555.8</ele>
        <time>2025-09-09T07:53:31Z</time>
      </trkpt>
      <trkpt lat="46.01887" lon="4.39781">
        <ele>556.2</ele>
        <time>2025-09-09T07:53:32Z</time>
      </trkpt>
      <trkpt lat="46.01887" lon="4.39783">
        <ele>556.2</ele>
        <time>2025-09-09T07:53:33Z</time>
      </trkpt>
      <trkpt lat="46.01887" lon="4.39784">
        <ele>556.4</ele>
        <time>2025-09-09T07:53:34Z</time>
      </trkpt>
      <trkpt lat="46.01887" lon="4.39785">
        <ele>556.4</ele>
        <time>2025-09-09T07:53:35Z</time>
      </trkpt>
      <trkpt lat="46.01887" lon="4.39786">
        <ele>556.4</ele>
        <time>2025-09-09T07:53:36Z</time>
      </trkpt>
      <trkpt lat="46.01887" lon="4.39787">
        <ele>556.8</ele>
        <time>2025-09-09T07:53:37Z</time>
      </trkpt>
      <trkpt lat="46.01887" lon="4.39789">
        <ele>556.8</ele>
        <time>2025-09-09T07:53:38Z</time>
      </trkpt>
      <trkpt lat="46.01887" lon="4.3979">
        <ele>557</ele>
        <time>2025-09-09T07:53:39Z</time>
      </trkpt>
      <trkpt lat="46.01887" lon="4.39791">
        <ele>557.2</ele>
        <time>2025-09-09T07:53:40Z</time>
      </trkpt>
      <trkpt lat="46.01887" lon="4.39792">
        <ele>557.2</ele>
        <time>2025-09-09T07:53:41Z</time>
      </trkpt>
      <trkpt lat="46.01887" lon="4.39792">
        <ele>557.8</ele>
        <time>2025-09-09T07:53:42Z</time>
      </trkpt>
      <trkpt lat="46.01887" lon="4.39794">
        <ele>558</ele>
        <time>2025-09-09T07:53:43Z</time>
      </trkpt>
      <trkpt lat="46.01887" lon="4.39795">
        <ele>558</ele>
        <time>2025-09-09T07:53:44Z</time>
      </trkpt>
      <trkpt lat="46.01887" lon="4.39796">
        <ele>558</ele>
        <time>2025-09-09T07:53:45Z</time>
      </trkpt>
      <trkpt lat="46.01887" lon="4.39796">
        <ele>558.2</ele>
        <time>2025-09-09T07:53:46Z</time>
      </trkpt>
      <trkpt lat="46.01887" lon="4.39797">
        <ele>558.6</ele>
        <time>2025-09-09T07:53:47Z</time>
      </trkpt>
      <trkpt lat="46.01887" lon="4.39798">
        <ele>558.8</ele>
        <time>2025-09-09T07:53:48Z</time>
      </trkpt>
      <trkpt lat="46.01887" lon="4.39799">
        <ele>558.8</ele>
        <time>2025-09-09T07:53:49Z</time>
      </trkpt>
      <trkpt lat="46.01887" lon="4.398">
        <ele>558.8</ele>
        <time>2025-09-09T07:53:50Z</time>
      </trkpt>
      <trkpt lat="46.01887" lon="4.39801">
        <ele>558.8</ele>
        <time>2025-09-09T07:53:51Z</time>
      </trkpt>
      <trkpt lat="46.01887" lon="4.39802">
        <ele>558.8</ele>
        <time>2025-09-09T07:53:52Z</time>
      </trkpt>
      <trkpt lat="46.01887" lon="4.39803">
        <ele>558.8</ele>
        <time>2025-09-09T07:53:53Z</time>
      </trkpt>
      <trkpt lat="46.01887" lon="4.39805">
        <ele>559</ele>
        <time>2025-09-09T07:53:54Z</time>
      </trkpt>
      <trkpt lat="46.01886" lon="4.39806">
        <ele>559</ele>
        <time>2025-09-09T07:53:55Z</time>
      </trkpt>
      <trkpt lat="46.01886" lon="4.39808">
        <ele>559.4</ele>
        <time>2025-09-09T07:53:56Z</time>
      </trkpt>
      <trkpt lat="46.01886" lon="4.39809">
        <ele>559.4</ele>
        <time>2025-09-09T07:53:57Z</time>
      </trkpt>
      <trkpt lat="46.01886" lon="4.3981">
        <ele>559.4</ele>
        <time>2025-09-09T07:53:58Z</time>
      </trkpt>
      <trkpt lat="46.01886" lon="4.39811">
        <ele>559.4</ele>
        <time>2025-09-09T07:53:59Z</time>
      </trkpt>
      <trkpt lat="46.01886" lon="4.39812">
        <ele>559.6</ele>
        <time>2025-09-09T07:54:00Z</time>
      </trkpt>
      <trkpt lat="46.01886" lon="4.39813">
        <ele>559.6</ele>
        <time>2025-09-09T07:54:01Z</time>
      </trkpt>
      <trkpt lat="46.01886" lon="4.39813">
        <ele>559.6</ele>
        <time>2025-09-09T07:54:02Z</time>
      </trkpt>
      <trkpt lat="46.01887" lon="4.39816">
        <ele>560.2</ele>
        <time>2025-09-09T07:54:10Z</time>
      </trkpt>
      <trkpt lat="46.01887" lon="4.39817">
        <ele>560.2</ele>
        <time>2025-09-09T07:54:11Z</time>
      </trkpt>
      <trkpt lat="46.01887" lon="4.39818">
        <ele>560.2</ele>
        <time>2025-09-09T07:54:12Z</time>
      </trkpt>
      <trkpt lat="46.01887" lon="4.39819">
        <ele>560.2</ele>
        <time>2025-09-09T07:54:13Z</time>
      </trkpt>
      <trkpt lat="46.01887" lon="4.39819">
        <ele>560.2</ele>
        <time>2025-09-09T07:54:14Z</time>
      </trkpt>
      <trkpt lat="46.01887" lon="4.3982">
        <ele>560.2</ele>
        <time>2025-09-09T07:54:15Z</time>
      </trkpt>
      <trkpt lat="46.01887" lon="4.39821">
        <ele>560.6</ele>
        <time>2025-09-09T07:54:16Z</time>
      </trkpt>
      <trkpt lat="46.01887" lon="4.39822">
        <ele>560.6</ele>
        <time>2025-09-09T07:54:17Z</time>
      </trkpt>
      <trkpt lat="46.01887" lon="4.39823">
        <ele>560.8</ele>
        <time>2025-09-09T07:54:18Z</time>
      </trkpt>
      <trkpt lat="46.01886" lon="4.39825">
        <ele>560.8</ele>
        <time>2025-09-09T07:54:19Z</time>
      </trkpt>
      <trkpt lat="46.01886" lon="4.39826">
        <ele>561.2</ele>
        <time>2025-09-09T07:54:20Z</time>
      </trkpt>
      <trkpt lat="46.01886" lon="4.39827">
        <ele>561.2</ele>
        <time>2025-09-09T07:54:21Z</time>
      </trkpt>
      <trkpt lat="46.01886" lon="4.39828">
        <ele>561.4</ele>
        <time>2025-09-09T07:54:22Z</time>
      </trkpt>
      <trkpt lat="46.01886" lon="4.39829">
        <ele>561.4</ele>
        <time>2025-09-09T07:54:23Z</time>
      </trkpt>
      <trkpt lat="46.01886" lon="4.3983">
        <ele>561.8</ele>
        <time>2025-09-09T07:54:24Z</time>
      </trkpt>
      <trkpt lat="46.01886" lon="4.39831">
        <ele>562</ele>
        <time>2025-09-09T07:54:25Z</time>
      </trkpt>
      <trkpt lat="46.01886" lon="4.39832">
        <ele>562.2</ele>
        <time>2025-09-09T07:54:26Z</time>
      </trkpt>
      <trkpt lat="46.01886" lon="4.39834">
        <ele>562.2</ele>
        <time>2025-09-09T07:54:27Z</time>
      </trkpt>
      <trkpt lat="46.01886" lon="4.39834">
        <ele>562.4</ele>
        <time>2025-09-09T07:54:28Z</time>
      </trkpt>
      <trkpt lat="46.01886" lon="4.39835">
        <ele>562.4</ele>
        <time>2025-09-09T07:54:29Z</time>
      </trkpt>
      <trkpt lat="46.01886" lon="4.39836">
        <ele>562.4</ele>
        <time>2025-09-09T07:54:30Z</time>
      </trkpt>
      <trkpt lat="46.01886" lon="4.39837">
        <ele>562.8</ele>
        <time>2025-09-09T07:54:31Z</time>
      </trkpt>
      <trkpt lat="46.01886" lon="4.39838">
        <ele>562.8</ele>
        <time>2025-09-09T07:54:32Z</time>
      </trkpt>
      <trkpt lat="46.01886" lon="4.3984">
        <ele>563.2</ele>
        <time>2025-09-09T07:54:33Z</time>
      </trkpt>
      <trkpt lat="46.01886" lon="4.39841">
        <ele>563.2</ele>
        <time>2025-09-09T07:54:34Z</time>
      </trkpt>
      <trkpt lat="46.01886" lon="4.39843">
        <ele>563.6</ele>
        <time>2025-09-09T07:54:35Z</time>
      </trkpt>
      <trkpt lat="46.01886" lon="4.39844">
        <ele>563.6</ele>
        <time>2025-09-09T07:54:36Z</time>
      </trkpt>
      <trkpt lat="46.01886" lon="4.39845">
        <ele>563.8</ele>
        <time>2025-09-09T07:54:37Z</time>
      </trkpt>
      <trkpt lat="46.01886" lon="4.39846">
        <ele>563.8</ele>
        <time>2025-09-09T07:54:38Z</time>
      </trkpt>
      <trkpt lat="46.01886" lon="4.39848">
        <ele>564</ele>
        <time>2025-09-09T07:54:39Z</time>
      </trkpt>
      <trkpt lat="46.01886" lon="4.39849">
        <ele>564</ele>
        <time>2025-09-09T07:54:40Z</time>
      </trkpt>
      <trkpt lat="46.01886" lon="4.3985">
        <ele>564.2</ele>
        <time>2025-09-09T07:54:41Z</time>
      </trkpt>
      <trkpt lat="46.01886" lon="4.39852">
        <ele>564.2</ele>
        <time>2025-09-09T07:54:42Z</time>
      </trkpt>
      <trkpt lat="46.01886" lon="4.39853">
        <ele>564.2</ele>
        <time>2025-09-09T07:54:43Z</time>
      </trkpt>
      <trkpt lat="46.01885" lon="4.39854">
        <ele>564.6</ele>
        <time>2025-09-09T07:54:44Z</time>
      </trkpt>
      <trkpt lat="46.01885" lon="4.39855">
        <ele>564.8</ele>
        <time>2025-09-09T07:54:45Z</time>
      </trkpt>
      <trkpt lat="46.01885" lon="4.39856">
        <ele>564.8</ele>
        <time>2025-09-09T07:54:46Z</time>
      </trkpt>
      <trkpt lat="46.01885" lon="4.39857">
        <ele>565.2</ele>
        <time>2025-09-09T07:54:47Z</time>
      </trkpt>
      <trkpt lat="46.01885" lon="4.39858">
        <ele>565.2</ele>
        <time>2025-09-09T07:54:48Z</time>
      </trkpt>
      <trkpt lat="46.01885" lon="4.39859">
        <ele>565.4</ele>
        <time>2025-09-09T07:54:49Z</time>
      </trkpt>
      <trkpt lat="46.01885" lon="4.3986">
        <ele>565.6</ele>
        <time>2025-09-09T07:54:50Z</time>
      </trkpt>
      <trkpt lat="46.01885" lon="4.39861">
        <ele>565.6</ele>
        <time>2025-09-09T07:54:51Z</time>
      </trkpt>
      <trkpt lat="46.01885" lon="4.39862">
        <ele>566.2</ele>
        <time>2025-09-09T07:54:52Z</time>
      </trkpt>
      <trkpt lat="46.01885" lon="4.39863">
        <ele>566.2</ele>
        <time>2025-09-09T07:54:53Z</time>
      </trkpt>
      <trkpt lat="46.01885" lon="4.39864">
        <ele>566.4</ele>
        <time>2025-09-09T07:54:54Z</time>
      </trkpt>
      <trkpt lat="46.01885" lon="4.39866">
        <ele>566.4</ele>
        <time>2025-09-09T07:54:55Z</time>
      </trkpt>
      <trkpt lat="46.01885" lon="4.39867">
        <ele>566.6</ele>
        <time>2025-09-09T07:54:56Z</time>
      </trkpt>
      <trkpt lat="46.01885" lon="4.39869">
        <ele>566.6</ele>
        <time>2025-09-09T07:54:57Z</time>
      </trkpt>
      <trkpt lat="46.01886" lon="4.3987">
        <ele>567</ele>
        <time>2025-09-09T07:54:58Z</time>
      </trkpt>
      <trkpt lat="46.01886" lon="4.39872">
        <ele>567</ele>
        <time>2025-09-09T07:54:59Z</time>
      </trkpt>
      <trkpt lat="46.01886" lon="4.39873">
        <ele>567.2</ele>
        <time>2025-09-09T07:55:00Z</time>
      </trkpt>
      <trkpt lat="46.01886" lon="4.39874">
        <ele>567.2</ele>
        <time>2025-09-09T07:55:01Z</time>
      </trkpt>
      <trkpt lat="46.01886" lon="4.39875">
        <ele>567.6</ele>
        <time>2025-09-09T07:55:02Z</time>
      </trkpt>
      <trkpt lat="46.01886" lon="4.39876">
        <ele>567.6</ele>
        <time>2025-09-09T07:55:03Z</time>
      </trkpt>
      <trkpt lat="46.01887" lon="4.39876">
        <ele>567.6</ele>
        <time>2025-09-09T07:55:04Z</time>
      </trkpt>
      <trkpt lat="46.01887" lon="4.39878">
        <ele>567.6</ele>
        <time>2025-09-09T07:55:11Z</time>
      </trkpt>
      <trkpt lat="46.01887" lon="4.39879">
        <ele>567.8</ele>
        <time>2025-09-09T07:55:12Z</time>
      </trkpt>
      <trkpt lat="46.01887" lon="4.3988">
        <ele>567.8</ele>
        <time>2025-09-09T07:55:13Z</time>
      </trkpt>
      <trkpt lat="46.01887" lon="4.39882">
        <ele>567.8</ele>
        <time>2025-09-09T07:55:14Z</time>
      </trkpt>
      <trkpt lat="46.01887" lon="4.39883">
        <ele>568</ele>
        <time>2025-09-09T07:55:15Z</time>
      </trkpt>
      <trkpt lat="46.01888" lon="4.39884">
        <ele>568</ele>
        <time>2025-09-09T07:55:16Z</time>
      </trkpt>
      <trkpt lat="46.01888" lon="4.39886">
        <ele>568.2</ele>
        <time>2025-09-09T07:55:17Z</time>
      </trkpt>
      <trkpt lat="46.01888" lon="4.39887">
        <ele>568.2</ele>
        <time>2025-09-09T07:55:18Z</time>
      </trkpt>
      <trkpt lat="46.01888" lon="4.39888">
        <ele>568.4</ele>
        <time>2025-09-09T07:55:19Z</time>
      </trkpt>
      <trkpt lat="46.01889" lon="4.39889">
        <ele>568.8</ele>
        <time>2025-09-09T07:55:20Z</time>
      </trkpt>
      <trkpt lat="46.01888" lon="4.3989">
        <ele>568.8</ele>
        <time>2025-09-09T07:55:21Z</time>
      </trkpt>
      <trkpt lat="46.01888" lon="4.39892">
        <ele>569</ele>
        <time>2025-09-09T07:55:22Z</time>
      </trkpt>
      <trkpt lat="46.01888" lon="4.39893">
        <ele>569</ele>
        <time>2025-09-09T07:55:23Z</time>
      </trkpt>
      <trkpt lat="46.01888" lon="4.39894">
        <ele>569.2</ele>
        <time>2025-09-09T07:55:24Z</time>
      </trkpt>
      <trkpt lat="46.01888" lon="4.39895">
        <ele>569.2</ele>
        <time>2025-09-09T07:55:25Z</time>
      </trkpt>
      <trkpt lat="46.01888" lon="4.39896">
        <ele>569.6</ele>
        <time>2025-09-09T07:55:26Z</time>
      </trkpt>
      <trkpt lat="46.01888" lon="4.39898">
        <ele>569.6</ele>
        <time>2025-09-09T07:55:27Z</time>
      </trkpt>
      <trkpt lat="46.01889" lon="4.39899">
        <ele>569.8</ele>
        <time>2025-09-09T07:55:28Z</time>
      </trkpt>
      <trkpt lat="46.01889" lon="4.39901">
        <ele>570</ele>
        <time>2025-09-09T07:55:29Z</time>
      </trkpt>
      <trkpt lat="46.01889" lon="4.39903">
        <ele>570.4</ele>
        <time>2025-09-09T07:55:30Z</time>
      </trkpt>
      <trkpt lat="46.01889" lon="4.39904">
        <ele>570.4</ele>
        <time>2025-09-09T07:55:31Z</time>
      </trkpt>
      <trkpt lat="46.01889" lon="4.39905">
        <ele>570.8</ele>
        <time>2025-09-09T07:55:32Z</time>
      </trkpt>
      <trkpt lat="46.01889" lon="4.39907">
        <ele>570.8</ele>
        <time>2025-09-09T07:55:33Z</time>
      </trkpt>
      <trkpt lat="46.01889" lon="4.39908">
        <ele>571.2</ele>
        <time>2025-09-09T07:55:34Z</time>
      </trkpt>
      <trkpt lat="46.01889" lon="4.39909">
        <ele>571.2</ele>
        <time>2025-09-09T07:55:35Z</time>
      </trkpt>
      <trkpt lat="46.01888" lon="4.3991">
        <ele>571.2</ele>
        <time>2025-09-09T07:55:36Z</time>
      </trkpt>
      <trkpt lat="46.01888" lon="4.39911">
        <ele>571.2</ele>
        <time>2025-09-09T07:55:37Z</time>
      </trkpt>
      <trkpt lat="46.01888" lon="4.39912">
        <ele>571.4</ele>
        <time>2025-09-09T07:55:38Z</time>
      </trkpt>
      <trkpt lat="46.01888" lon="4.39914">
        <ele>571.4</ele>
        <time>2025-09-09T07:55:39Z</time>
      </trkpt>
      <trkpt lat="46.01888" lon="4.39914">
        <ele>571.8</ele>
        <time>2025-09-09T07:55:40Z</time>
      </trkpt>
      <trkpt lat="46.01888" lon="4.39915">
        <ele>572</ele>
        <time>2025-09-09T07:55:41Z</time>
      </trkpt>
      <trkpt lat="46.01888" lon="4.39917">
        <ele>572</ele>
        <time>2025-09-09T07:55:42Z</time>
      </trkpt>
      <trkpt lat="46.01888" lon="4.39918">
        <ele>572.4</ele>
        <time>2025-09-09T07:55:43Z</time>
      </trkpt>
      <trkpt lat="46.01888" lon="4.39919">
        <ele>572.4</ele>
        <time>2025-09-09T07:55:44Z</time>
      </trkpt>
      <trkpt lat="46.01888" lon="4.39921">
        <ele>572.4</ele>
        <time>2025-09-09T07:55:45Z</time>
      </trkpt>
      <trkpt lat="46.01888" lon="4.39922">
        <ele>572.8</ele>
        <time>2025-09-09T07:55:46Z</time>
      </trkpt>
      <trkpt lat="46.01888" lon="4.39923">
        <ele>572.8</ele>
        <time>2025-09-09T07:55:47Z</time>
      </trkpt>
      <trkpt lat="46.01888" lon="4.39924">
        <ele>573.2</ele>
        <time>2025-09-09T07:55:48Z</time>
      </trkpt>
      <trkpt lat="46.01888" lon="4.39925">
        <ele>573.2</ele>
        <time>2025-09-09T07:55:49Z</time>
      </trkpt>
      <trkpt lat="46.01887" lon="4.39926">
        <ele>573.4</ele>
        <time>2025-09-09T07:55:50Z</time>
      </trkpt>
      <trkpt lat="46.01887" lon="4.39928">
        <ele>573.4</ele>
        <time>2025-09-09T07:55:51Z</time>
      </trkpt>
      <trkpt lat="46.01887" lon="4.39929">
        <ele>573.8</ele>
        <time>2025-09-09T07:55:52Z</time>
      </trkpt>
      <trkpt lat="46.01887" lon="4.39931">
        <ele>574</ele>
        <time>2025-09-09T07:55:53Z</time>
      </trkpt>
      <trkpt lat="46.01887" lon="4.39932">
        <ele>574.2</ele>
        <time>2025-09-09T07:55:54Z</time>
      </trkpt>
      <trkpt lat="46.01887" lon="4.39934">
        <ele>574.2</ele>
        <time>2025-09-09T07:55:55Z</time>
      </trkpt>
      <trkpt lat="46.01887" lon="4.39935">
        <ele>574.6</ele>
        <time>2025-09-09T07:55:56Z</time>
      </trkpt>
      <trkpt lat="46.01888" lon="4.39936">
        <ele>575</ele>
        <time>2025-09-09T07:55:57Z</time>
      </trkpt>
      <trkpt lat="46.01888" lon="4.39937">
        <ele>575.2</ele>
        <time>2025-09-09T07:55:58Z</time>
      </trkpt>
      <trkpt lat="46.01888" lon="4.39938">
        <ele>575.4</ele>
        <time>2025-09-09T07:55:59Z</time>
      </trkpt>
      <trkpt lat="46.01888" lon="4.39939">
        <ele>575.4</ele>
        <time>2025-09-09T07:56:00Z</time>
      </trkpt>
      <trkpt lat="46.01888" lon="4.3994">
        <ele>575.4</ele>
        <time>2025-09-09T07:56:01Z</time>
      </trkpt>
      <trkpt lat="46.01888" lon="4.39941">
        <ele>575.6</ele>
        <time>2025-09-09T07:56:02Z</time>
      </trkpt>
      <trkpt lat="46.01888" lon="4.39942">
        <ele>575.6</ele>
        <time>2025-09-09T07:56:03Z</time>
      </trkpt>
      <trkpt lat="46.01888" lon="4.39943">
        <ele>575.6</ele>
        <time>2025-09-09T07:56:04Z</time>
      </trkpt>
      <trkpt lat="46.01889" lon="4.39944">
        <ele>576</ele>
        <time>2025-09-09T07:56:05Z</time>
      </trkpt>
      <trkpt lat="46.01889" lon="4.39946">
        <ele>576</ele>
        <time>2025-09-09T07:56:06Z</time>
      </trkpt>
      <trkpt lat="46.01889" lon="4.39947">
        <ele>576.2</ele>
        <time>2025-09-09T07:56:07Z</time>
      </trkpt>
      <trkpt lat="46.0189" lon="4.39948">
        <ele>576.2</ele>
        <time>2025-09-09T07:56:08Z</time>
      </trkpt>
      <trkpt lat="46.0189" lon="4.39949">
        <ele>576.6</ele>
        <time>2025-09-09T07:56:09Z</time>
      </trkpt>
      <trkpt lat="46.0189" lon="4.3995">
        <ele>576.6</ele>
        <time>2025-09-09T07:56:10Z</time>
      </trkpt>
      <trkpt lat="46.0189" lon="4.39952">
        <ele>576.8</ele>
        <time>2025-09-09T07:56:11Z</time>
      </trkpt>
      <trkpt lat="46.0189" lon="4.39953">
        <ele>577</ele>
        <time>2025-09-09T07:56:12Z</time>
      </trkpt>
      <trkpt lat="46.0189" lon="4.39954">
        <ele>577</ele>
        <time>2025-09-09T07:56:13Z</time>
      </trkpt>
      <trkpt lat="46.0189" lon="4.39955">
        <ele>577</ele>
        <time>2025-09-09T07:56:14Z</time>
      </trkpt>
      <trkpt lat="46.0189" lon="4.39957">
        <ele>577.6</ele>
        <time>2025-09-09T07:56:15Z</time>
      </trkpt>
      <trkpt lat="46.01889" lon="4.39958">
        <ele>577.6</ele>
        <time>2025-09-09T07:56:16Z</time>
      </trkpt>
      <trkpt lat="46.01889" lon="4.3996">
        <ele>577.6</ele>
        <time>2025-09-09T07:56:17Z</time>
      </trkpt>
      <trkpt lat="46.01889" lon="4.39961">
        <ele>577.8</ele>
        <time>2025-09-09T07:56:18Z</time>
      </trkpt>
      <trkpt lat="46.01889" lon="4.39962">
        <ele>577.8</ele>
        <time>2025-09-09T07:56:19Z</time>
      </trkpt>
      <trkpt lat="46.01889" lon="4.39963">
        <ele>578.2</ele>
        <time>2025-09-09T07:56:20Z</time>
      </trkpt>
      <trkpt lat="46.01889" lon="4.39964">
        <ele>578.6</ele>
        <time>2025-09-09T07:56:21Z</time>
      </trkpt>
      <trkpt lat="46.01889" lon="4.39965">
        <ele>578.6</ele>
        <time>2025-09-09T07:56:22Z</time>
      </trkpt>
      <trkpt lat="46.01889" lon="4.39966">
        <ele>578.6</ele>
        <time>2025-09-09T07:56:23Z</time>
      </trkpt>
      <trkpt lat="46.01889" lon="4.39967">
        <ele>578.8</ele>
        <time>2025-09-09T07:56:24Z</time>
      </trkpt>
      <trkpt lat="46.01889" lon="4.39968">
        <ele>578.8</ele>
        <time>2025-09-09T07:56:25Z</time>
      </trkpt>
      <trkpt lat="46.01889" lon="4.39969">
        <ele>579</ele>
        <time>2025-09-09T07:56:26Z</time>
      </trkpt>
      <trkpt lat="46.01889" lon="4.3997">
        <ele>579</ele>
        <time>2025-09-09T07:56:27Z</time>
      </trkpt>
      <trkpt lat="46.0189" lon="4.39971">
        <ele>579.4</ele>
        <time>2025-09-09T07:56:28Z</time>
      </trkpt>
      <trkpt lat="46.0189" lon="4.39973">
        <ele>579.4</ele>
        <time>2025-09-09T07:56:29Z</time>
      </trkpt>
      <trkpt lat="46.0189" lon="4.39974">
        <ele>579.4</ele>
        <time>2025-09-09T07:56:30Z</time>
      </trkpt>
      <trkpt lat="46.0189" lon="4.39975">
        <ele>579.8</ele>
        <time>2025-09-09T07:56:31Z</time>
      </trkpt>
      <trkpt lat="46.0189" lon="4.39977">
        <ele>579.8</ele>
        <time>2025-09-09T07:56:32Z</time>
      </trkpt>
      <trkpt lat="46.0189" lon="4.39977">
        <ele>580</ele>
        <time>2025-09-09T07:56:33Z</time>
      </trkpt>
      <trkpt lat="46.01891" lon="4.39977">
        <ele>580</ele>
        <time>2025-09-09T07:57:17Z</time>
      </trkpt>
      <trkpt lat="46.01891" lon="4.39979">
        <ele>580.2</ele>
        <time>2025-09-09T07:57:18Z</time>
      </trkpt>
      <trkpt lat="46.01891" lon="4.39981">
        <ele>580.2</ele>
        <time>2025-09-09T07:57:19Z</time>
      </trkpt>
      <trkpt lat="46.01891" lon="4.39982">
        <ele>580.2</ele>
        <time>2025-09-09T07:57:20Z</time>
      </trkpt>
      <trkpt lat="46.0189" lon="4.39983">
        <ele>580.4</ele>
        <time>2025-09-09T07:57:21Z</time>
      </trkpt>
      <trkpt lat="46.0189" lon="4.39985">
        <ele>580.4</ele>
        <time>2025-09-09T07:57:22Z</time>
      </trkpt>
      <trkpt lat="46.0189" lon="4.39986">
        <ele>580.8</ele>
        <time>2025-09-09T07:57:23Z</time>
      </trkpt>
      <trkpt lat="46.0189" lon="4.39987">
        <ele>581</ele>
        <time>2025-09-09T07:57:24Z</time>
      </trkpt>
      <trkpt lat="46.01889" lon="4.39989">
        <ele>581</ele>
        <time>2025-09-09T07:57:25Z</time>
      </trkpt>
      <trkpt lat="46.01889" lon="4.39991">
        <ele>581.2</ele>
        <time>2025-09-09T07:57:26Z</time>
      </trkpt>
      <trkpt lat="46.01889" lon="4.39992">
        <ele>581.2</ele>
        <time>2025-09-09T07:57:27Z</time>
      </trkpt>
      <trkpt lat="46.01889" lon="4.39991">
        <ele>581.2</ele>
        <time>2025-09-09T07:57:28Z</time>
      </trkpt>
      <trkpt lat="46.01889" lon="4.39992">
        <ele>581.8</ele>
        <time>2025-09-09T07:57:46Z</time>
      </trkpt>
      <trkpt lat="46.01889" lon="4.39994">
        <ele>581.8</ele>
        <time>2025-09-09T07:57:47Z</time>
      </trkpt>
      <trkpt lat="46.01889" lon="4.39995">
        <ele>582</ele>
        <time>2025-09-09T07:57:48Z</time>
      </trkpt>
      <trkpt lat="46.01889" lon="4.39997">
        <ele>582</ele>
        <time>2025-09-09T07:57:49Z</time>
      </trkpt>
      <trkpt lat="46.01889" lon="4.39999">
        <ele>582</ele>
        <time>2025-09-09T07:57:50Z</time>
      </trkpt>
      <trkpt lat="46.01889" lon="4.40001">
        <ele>582.4</ele>
        <time>2025-09-09T07:57:51Z</time>
      </trkpt>
      <trkpt lat="46.01889" lon="4.40002">
        <ele>582.8</ele>
        <time>2025-09-09T07:57:52Z</time>
      </trkpt>
      <trkpt lat="46.01889" lon="4.40004">
        <ele>582.8</ele>
        <time>2025-09-09T07:57:53Z</time>
      </trkpt>
      <trkpt lat="46.0189" lon="4.40005">
        <ele>583</ele>
        <time>2025-09-09T07:57:54Z</time>
      </trkpt>
      <trkpt lat="46.0189" lon="4.40008">
        <ele>583</ele>
        <time>2025-09-09T07:57:55Z</time>
      </trkpt>
      <trkpt lat="46.0189" lon="4.4001">
        <ele>583</ele>
        <time>2025-09-09T07:57:56Z</time>
      </trkpt>
      <trkpt lat="46.0189" lon="4.40011">
        <ele>583.2</ele>
        <time>2025-09-09T07:57:57Z</time>
      </trkpt>
      <trkpt lat="46.0189" lon="4.40012">
        <ele>583.2</ele>
        <time>2025-09-09T07:57:58Z</time>
      </trkpt>
      <trkpt lat="46.0189" lon="4.40014">
        <ele>583.2</ele>
        <time>2025-09-09T07:57:59Z</time>
      </trkpt>
      <trkpt lat="46.01889" lon="4.40015">
        <ele>583.8</ele>
        <time>2025-09-09T07:58:00Z</time>
      </trkpt>
      <trkpt lat="46.01889" lon="4.40017">
        <ele>583.8</ele>
        <time>2025-09-09T07:58:01Z</time>
      </trkpt>
      <trkpt lat="46.01888" lon="4.40018">
        <ele>584</ele>
        <time>2025-09-09T07:58:02Z</time>
      </trkpt>
      <trkpt lat="46.01887" lon="4.4002">
        <ele>584</ele>
        <time>2025-09-09T07:58:03Z</time>
      </trkpt>
      <trkpt lat="46.01886" lon="4.40021">
        <ele>584</ele>
        <time>2025-09-09T07:58:04Z</time>
      </trkpt>
      <trkpt lat="46.01886" lon="4.40022">
        <ele>584.4</ele>
        <time>2025-09-09T07:58:05Z</time>
      </trkpt>
      <trkpt lat="46.01886" lon="4.40023">
        <ele>584.4</ele>
        <time>2025-09-09T07:58:06Z</time>
      </trkpt>
      <trkpt lat="46.01886" lon="4.40024">
        <ele>584.6</ele>
        <time>2025-09-09T07:58:07Z</time>
      </trkpt>
      <trkpt lat="46.01886" lon="4.40026">
        <ele>584.6</ele>
        <time>2025-09-09T07:58:08Z</time>
      </trkpt>
      <trkpt lat="46.01886" lon="4.40026">
        <ele>584.6</ele>
        <time>2025-09-09T07:58:09Z</time>
      </trkpt>
      <trkpt lat="46.01886" lon="4.40027">
        <ele>584.6</ele>
        <time>2025-09-09T07:58:10Z</time>
      </trkpt>
      <trkpt lat="46.01886" lon="4.40027">
        <ele>585</ele>
        <time>2025-09-09T07:58:11Z</time>
      </trkpt>
      <trkpt lat="46.01887" lon="4.40027">
        <ele>585</ele>
        <time>2025-09-09T07:58:12Z</time>
      </trkpt>
      <trkpt lat="46.01887" lon="4.40031">
        <ele>585.2</ele>
        <time>2025-09-09T07:58:17Z</time>
      </trkpt>
      <trkpt lat="46.01887" lon="4.40033">
        <ele>585.2</ele>
        <time>2025-09-09T07:58:18Z</time>
      </trkpt>
      <trkpt lat="46.01887" lon="4.40035">
        <ele>585.6</ele>
        <time>2025-09-09T07:58:19Z</time>
      </trkpt>
      <trkpt lat="46.01887" lon="4.40037">
        <ele>585.6</ele>
        <time>2025-09-09T07:58:20Z</time>
      </trkpt>
      <trkpt lat="46.01888" lon="4.40039">
        <ele>585.6</ele>
        <time>2025-09-09T07:58:21Z</time>
      </trkpt>
      <trkpt lat="46.01888" lon="4.40039">
        <ele>585.8</ele>
        <time>2025-09-09T07:58:22Z</time>
      </trkpt>
      <trkpt lat="46.01888" lon="4.40041">
        <ele>586</ele>
        <time>2025-09-09T07:58:23Z</time>
      </trkpt>
      <trkpt lat="46.01888" lon="4.40044">
        <ele>586.2</ele>
        <time>2025-09-09T07:58:24Z</time>
      </trkpt>
      <trkpt lat="46.01888" lon="4.40046">
        <ele>586.2</ele>
        <time>2025-09-09T07:58:25Z</time>
      </trkpt>
      <trkpt lat="46.01888" lon="4.40048">
        <ele>586.6</ele>
        <time>2025-09-09T07:58:26Z</time>
      </trkpt>
      <trkpt lat="46.01888" lon="4.4005">
        <ele>587</ele>
        <time>2025-09-09T07:58:27Z</time>
      </trkpt>
      <trkpt lat="46.01888" lon="4.40052">
        <ele>587</ele>
        <time>2025-09-09T07:58:28Z</time>
      </trkpt>
      <trkpt lat="46.01888" lon="4.40054">
        <ele>587.2</ele>
        <time>2025-09-09T07:58:29Z</time>
      </trkpt>
      <trkpt lat="46.01888" lon="4.40056">
        <ele>587.2</ele>
        <time>2025-09-09T07:58:30Z</time>
      </trkpt>
      <trkpt lat="46.01888" lon="4.40057">
        <ele>587.6</ele>
        <time>2025-09-09T07:58:31Z</time>
      </trkpt>
      <trkpt lat="46.01888" lon="4.40059">
        <ele>587.6</ele>
        <time>2025-09-09T07:58:32Z</time>
      </trkpt>
      <trkpt lat="46.01888" lon="4.40061">
        <ele>587.8</ele>
        <time>2025-09-09T07:58:33Z</time>
      </trkpt>
      <trkpt lat="46.01888" lon="4.40063">
        <ele>588</ele>
        <time>2025-09-09T07:58:34Z</time>
      </trkpt>
      <trkpt lat="46.01888" lon="4.40065">
        <ele>588.4</ele>
        <time>2025-09-09T07:58:35Z</time>
      </trkpt>
      <trkpt lat="46.01888" lon="4.40067">
        <ele>588.4</ele>
        <time>2025-09-09T07:58:36Z</time>
      </trkpt>
      <trkpt lat="46.01888" lon="4.40069">
        <ele>588.6</ele>
        <time>2025-09-09T07:58:37Z</time>
      </trkpt>
      <trkpt lat="46.01888" lon="4.40071">
        <ele>588.6</ele>
        <time>2025-09-09T07:58:38Z</time>
      </trkpt>
      <trkpt lat="46.01888" lon="4.40074">
        <ele>588.6</ele>
        <time>2025-09-09T07:58:39Z</time>
      </trkpt>
      <trkpt lat="46.01888" lon="4.40075">
        <ele>588.6</ele>
        <time>2025-09-09T07:58:40Z</time>
      </trkpt>
      <trkpt lat="46.01887" lon="4.40077">
        <ele>588.8</ele>
        <time>2025-09-09T07:58:41Z</time>
      </trkpt>
      <trkpt lat="46.01887" lon="4.4008">
        <ele>588.8</ele>
        <time>2025-09-09T07:58:42Z</time>
      </trkpt>
      <trkpt lat="46.01887" lon="4.40082">
        <ele>588.8</ele>
        <time>2025-09-09T07:58:43Z</time>
      </trkpt>
      <trkpt lat="46.01886" lon="4.40084">
        <ele>589.2</ele>
        <time>2025-09-09T07:58:44Z</time>
      </trkpt>
      <trkpt lat="46.01886" lon="4.40086">
        <ele>589.4</ele>
        <time>2025-09-09T07:58:45Z</time>
      </trkpt>
      <trkpt lat="46.01886" lon="4.40088">
        <ele>589.6</ele>
        <time>2025-09-09T07:58:46Z</time>
      </trkpt>
      <trkpt lat="46.01885" lon="4.4009">
        <ele>589.6</ele>
        <time>2025-09-09T07:58:47Z</time>
      </trkpt>
      <trkpt lat="46.01886" lon="4.40092">
        <ele>590</ele>
        <time>2025-09-09T07:58:48Z</time>
      </trkpt>
      <trkpt lat="46.01886" lon="4.40094">
        <ele>590</ele>
        <time>2025-09-09T07:58:49Z</time>
      </trkpt>
      <trkpt lat="46.01886" lon="4.40096">
        <ele>590.2</ele>
        <time>2025-09-09T07:58:50Z</time>
      </trkpt>
      <trkpt lat="46.01886" lon="4.40099">
        <ele>590.2</ele>
        <time>2025-09-09T07:58:51Z</time>
      </trkpt>
      <trkpt lat="46.01885" lon="4.40101">
        <ele>590.4</ele>
        <time>2025-09-09T07:58:52Z</time>
      </trkpt>
      <trkpt lat="46.01885" lon="4.40103">
        <ele>590.4</ele>
        <time>2025-09-09T07:58:53Z</time>
      </trkpt>
      <trkpt lat="46.01885" lon="4.40105">
        <ele>590.4</ele>
        <time>2025-09-09T07:58:54Z</time>
      </trkpt>
      <trkpt lat="46.01886" lon="4.40108">
        <ele>590.8</ele>
        <time>2025-09-09T07:58:55Z</time>
      </trkpt>
      <trkpt lat="46.01886" lon="4.4011">
        <ele>590.8</ele>
        <time>2025-09-09T07:58:56Z</time>
      </trkpt>
      <trkpt lat="46.01886" lon="4.40112">
        <ele>591</ele>
        <time>2025-09-09T07:58:57Z</time>
      </trkpt>
      <trkpt lat="46.01885" lon="4.40114">
        <ele>591</ele>
        <time>2025-09-09T07:58:58Z</time>
      </trkpt>
      <trkpt lat="46.01885" lon="4.40115">
        <ele>591.2</ele>
        <time>2025-09-09T07:58:59Z</time>
      </trkpt>
      <trkpt lat="46.01884" lon="4.40117">
        <ele>591.6</ele>
        <time>2025-09-09T07:59:00Z</time>
      </trkpt>
      <trkpt lat="46.01884" lon="4.40119">
        <ele>591.8</ele>
        <time>2025-09-09T07:59:01Z</time>
      </trkpt>
      <trkpt lat="46.01884" lon="4.40121">
        <ele>591.8</ele>
        <time>2025-09-09T07:59:02Z</time>
      </trkpt>
      <trkpt lat="46.01884" lon="4.40123">
        <ele>592</ele>
        <time>2025-09-09T07:59:03Z</time>
      </trkpt>
      <trkpt lat="46.01884" lon="4.40126">
        <ele>592</ele>
        <time>2025-09-09T07:59:04Z</time>
      </trkpt>
      <trkpt lat="46.01884" lon="4.40128">
        <ele>592</ele>
        <time>2025-09-09T07:59:05Z</time>
      </trkpt>
      <trkpt lat="46.01883" lon="4.4013">
        <ele>592.2</ele>
        <time>2025-09-09T07:59:06Z</time>
      </trkpt>
      <trkpt lat="46.01882" lon="4.40132">
        <ele>592.2</ele>
        <time>2025-09-09T07:59:07Z</time>
      </trkpt>
      <trkpt lat="46.01881" lon="4.40134">
        <ele>592.6</ele>
        <time>2025-09-09T07:59:08Z</time>
      </trkpt>
      <trkpt lat="46.01881" lon="4.40136">
        <ele>592.8</ele>
        <time>2025-09-09T07:59:09Z</time>
      </trkpt>
      <trkpt lat="46.0188" lon="4.40138">
        <ele>592.8</ele>
        <time>2025-09-09T07:59:10Z</time>
      </trkpt>
      <trkpt lat="46.01879" lon="4.40141">
        <ele>592.8</ele>
        <time>2025-09-09T07:59:11Z</time>
      </trkpt>
      <trkpt lat="46.01879" lon="4.40143">
        <ele>592.8</ele>
        <time>2025-09-09T07:59:12Z</time>
      </trkpt>
      <trkpt lat="46.01879" lon="4.40146">
        <ele>592.8</ele>
        <time>2025-09-09T07:59:13Z</time>
      </trkpt>
      <trkpt lat="46.01879" lon="4.40149">
        <ele>592.8</ele>
        <time>2025-09-09T07:59:14Z</time>
      </trkpt>
      <trkpt lat="46.01879" lon="4.40152">
        <ele>592.8</ele>
        <time>2025-09-09T07:59:15Z</time>
      </trkpt>
      <trkpt lat="46.01878" lon="4.40155">
        <ele>592.8</ele>
        <time>2025-09-09T07:59:16Z</time>
      </trkpt>
      <trkpt lat="46.01878" lon="4.40158">
        <ele>592.8</ele>
        <time>2025-09-09T07:59:17Z</time>
      </trkpt>
      <trkpt lat="46.01877" lon="4.40161">
        <ele>592.8</ele>
        <time>2025-09-09T07:59:18Z</time>
      </trkpt>
      <trkpt lat="46.01876" lon="4.40165">
        <ele>593</ele>
        <time>2025-09-09T07:59:19Z</time>
      </trkpt>
      <trkpt lat="46.01876" lon="4.40169">
        <ele>593</ele>
        <time>2025-09-09T07:59:20Z</time>
      </trkpt>
      <trkpt lat="46.01875" lon="4.40172">
        <ele>593</ele>
        <time>2025-09-09T07:59:21Z</time>
      </trkpt>
      <trkpt lat="46.01874" lon="4.40176">
        <ele>593.4</ele>
        <time>2025-09-09T07:59:22Z</time>
      </trkpt>
      <trkpt lat="46.01873" lon="4.4018">
        <ele>593.6</ele>
        <time>2025-09-09T07:59:23Z</time>
      </trkpt>
      <trkpt lat="46.01872" lon="4.40184">
        <ele>593.2</ele>
        <time>2025-09-09T07:59:24Z</time>
      </trkpt>
      <trkpt lat="46.01871" lon="4.40187">
        <ele>593.2</ele>
        <time>2025-09-09T07:59:25Z</time>
      </trkpt>
      <trkpt lat="46.0187" lon="4.40191">
        <ele>593.4</ele>
        <time>2025-09-09T07:59:26Z</time>
      </trkpt>
      <trkpt lat="46.01869" lon="4.40195">
        <ele>593.4</ele>
        <time>2025-09-09T07:59:27Z</time>
      </trkpt>
      <trkpt lat="46.01868" lon="4.40199">
        <ele>593.4</ele>
        <time>2025-09-09T07:59:28Z</time>
      </trkpt>
      <trkpt lat="46.01867" lon="4.40204">
        <ele>593.4</ele>
        <time>2025-09-09T07:59:29Z</time>
      </trkpt>
      <trkpt lat="46.01866" lon="4.40208">
        <ele>593.4</ele>
        <time>2025-09-09T07:59:30Z</time>
      </trkpt>
      <trkpt lat="46.01865" lon="4.40213">
        <ele>593.4</ele>
        <time>2025-09-09T07:59:31Z</time>
      </trkpt>
      <trkpt lat="46.01864" lon="4.40217">
        <ele>593.4</ele>
        <time>2025-09-09T07:59:32Z</time>
      </trkpt>
      <trkpt lat="46.01863" lon="4.40221">
        <ele>593.4</ele>
        <time>2025-09-09T07:59:33Z</time>
      </trkpt>
      <trkpt lat="46.01861" lon="4.40225">
        <ele>593.4</ele>
        <time>2025-09-09T07:59:34Z</time>
      </trkpt>
      <trkpt lat="46.0186" lon="4.40229">
        <ele>593.6</ele>
        <time>2025-09-09T07:59:35Z</time>
      </trkpt>
      <trkpt lat="46.01858" lon="4.40233">
        <ele>593.6</ele>
        <time>2025-09-09T07:59:36Z</time>
      </trkpt>
      <trkpt lat="46.01857" lon="4.40236">
        <ele>593.6</ele>
        <time>2025-09-09T07:59:37Z</time>
      </trkpt>
      <trkpt lat="46.01856" lon="4.4024">
        <ele>593.8</ele>
        <time>2025-09-09T07:59:38Z</time>
      </trkpt>
      <trkpt lat="46.01855" lon="4.40244">
        <ele>593.8</ele>
        <time>2025-09-09T07:59:39Z</time>
      </trkpt>
      <trkpt lat="46.01855" lon="4.40247">
        <ele>594</ele>
        <time>2025-09-09T07:59:40Z</time>
      </trkpt>
      <trkpt lat="46.01854" lon="4.4025">
        <ele>594</ele>
        <time>2025-09-09T07:59:41Z</time>
      </trkpt>
      <trkpt lat="46.01854" lon="4.40252">
        <ele>594.4</ele>
        <time>2025-09-09T07:59:42Z</time>
      </trkpt>
      <trkpt lat="46.01853" lon="4.40255">
        <ele>594.6</ele>
        <time>2025-09-09T07:59:43Z</time>
      </trkpt>
      <trkpt lat="46.01852" lon="4.40258">
        <ele>594.8</ele>
        <time>2025-09-09T07:59:44Z</time>
      </trkpt>
      <trkpt lat="46.01852" lon="4.4026">
        <ele>595</ele>
        <time>2025-09-09T07:59:45Z</time>
      </trkpt>
      <trkpt lat="46.01851" lon="4.40262">
        <ele>595</ele>
        <time>2025-09-09T07:59:46Z</time>
      </trkpt>
      <trkpt lat="46.0185" lon="4.40265">
        <ele>595</ele>
        <time>2025-09-09T07:59:47Z</time>
      </trkpt>
      <trkpt lat="46.0185" lon="4.40267">
        <ele>595</ele>
        <time>2025-09-09T07:59:48Z</time>
      </trkpt>
      <trkpt lat="46.01849" lon="4.40269">
        <ele>595.2</ele>
        <time>2025-09-09T07:59:49Z</time>
      </trkpt>
      <trkpt lat="46.01849" lon="4.40271">
        <ele>595.2</ele>
        <time>2025-09-09T07:59:50Z</time>
      </trkpt>
      <trkpt lat="46.01848" lon="4.40273">
        <ele>595.2</ele>
        <time>2025-09-09T07:59:51Z</time>
      </trkpt>
      <trkpt lat="46.01848" lon="4.40275">
        <ele>595.6</ele>
        <time>2025-09-09T07:59:52Z</time>
      </trkpt>
      <trkpt lat="46.01847" lon="4.40277">
        <ele>595.8</ele>
        <time>2025-09-09T07:59:53Z</time>
      </trkpt>
      <trkpt lat="46.01846" lon="4.40279">
        <ele>595.8</ele>
        <time>2025-09-09T07:59:54Z</time>
      </trkpt>
      <trkpt lat="46.01845" lon="4.40281">
        <ele>596.2</ele>
        <time>2025-09-09T07:59:55Z</time>
      </trkpt>
      <trkpt lat="46.01845" lon="4.40283">
        <ele>596.2</ele>
        <time>2025-09-09T07:59:56Z</time>
      </trkpt>
      <trkpt lat="46.01844" lon="4.40285">
        <ele>596.2</ele>
        <time>2025-09-09T07:59:57Z</time>
      </trkpt>
      <trkpt lat="46.01844" lon="4.40287">
        <ele>596.6</ele>
        <time>2025-09-09T07:59:58Z</time>
      </trkpt>
      <trkpt lat="46.01843" lon="4.40289">
        <ele>596.6</ele>
        <time>2025-09-09T07:59:59Z</time>
      </trkpt>
      <trkpt lat="46.01843" lon="4.4029">
        <ele>596.8</ele>
        <time>2025-09-09T08:00:00Z</time>
      </trkpt>
      <trkpt lat="46.01843" lon="4.40291">
        <ele>597</ele>
        <time>2025-09-09T08:00:01Z</time>
      </trkpt>
      <trkpt lat="46.01843" lon="4.40293">
        <ele>597</ele>
        <time>2025-09-09T08:00:02Z</time>
      </trkpt>
      <trkpt lat="46.01842" lon="4.40295">
        <ele>597</ele>
        <time>2025-09-09T08:00:03Z</time>
      </trkpt>
      <trkpt lat="46.01841" lon="4.40297">
        <ele>597.6</ele>
        <time>2025-09-09T08:00:04Z</time>
      </trkpt>
      <trkpt lat="46.0184" lon="4.40298">
        <ele>597.6</ele>
        <time>2025-09-09T08:00:05Z</time>
      </trkpt>
      <trkpt lat="46.01839" lon="4.40299">
        <ele>597.8</ele>
        <time>2025-09-09T08:00:06Z</time>
      </trkpt>
      <trkpt lat="46.01838" lon="4.40301">
        <ele>597.8</ele>
        <time>2025-09-09T08:00:07Z</time>
      </trkpt>
      <trkpt lat="46.01837" lon="4.40302">
        <ele>597.8</ele>
        <time>2025-09-09T08:00:08Z</time>
      </trkpt>
      <trkpt lat="46.01837" lon="4.40304">
        <ele>597.8</ele>
        <time>2025-09-09T08:00:09Z</time>
      </trkpt>
      <trkpt lat="46.01837" lon="4.40306">
        <ele>598.4</ele>
        <time>2025-09-09T08:00:10Z</time>
      </trkpt>
      <trkpt lat="46.01837" lon="4.40307">
        <ele>598.4</ele>
        <time>2025-09-09T08:00:11Z</time>
      </trkpt>
      <trkpt lat="46.01836" lon="4.40309">
        <ele>598.4</ele>
        <time>2025-09-09T08:00:12Z</time>
      </trkpt>
      <trkpt lat="46.01836" lon="4.4031">
        <ele>598.8</ele>
        <time>2025-09-09T08:00:13Z</time>
      </trkpt>
      <trkpt lat="46.01836" lon="4.40312">
        <ele>598.8</ele>
        <time>2025-09-09T08:00:14Z</time>
      </trkpt>
      <trkpt lat="46.01835" lon="4.40314">
        <ele>598.8</ele>
        <time>2025-09-09T08:00:15Z</time>
      </trkpt>
      <trkpt lat="46.01835" lon="4.40315">
        <ele>599.2</ele>
        <time>2025-09-09T08:00:16Z</time>
      </trkpt>
      <trkpt lat="46.01834" lon="4.40316">
        <ele>599.4</ele>
        <time>2025-09-09T08:00:17Z</time>
      </trkpt>
      <trkpt lat="46.01834" lon="4.40318">
        <ele>599.8</ele>
        <time>2025-09-09T08:00:18Z</time>
      </trkpt>
      <trkpt lat="46.01834" lon="4.4032">
        <ele>599.8</ele>
        <time>2025-09-09T08:00:19Z</time>
      </trkpt>
      <trkpt lat="46.01833" lon="4.40321">
        <ele>599.8</ele>
        <time>2025-09-09T08:00:20Z</time>
      </trkpt>
      <trkpt lat="46.01833" lon="4.40323">
        <ele>599.8</ele>
        <time>2025-09-09T08:00:21Z</time>
      </trkpt>
      <trkpt lat="46.01832" lon="4.40324">
        <ele>600.2</ele>
        <time>2025-09-09T08:00:22Z</time>
      </trkpt>
      <trkpt lat="46.01832" lon="4.40326">
        <ele>600.2</ele>
        <time>2025-09-09T08:00:23Z</time>
      </trkpt>
      <trkpt lat="46.01831" lon="4.40328">
        <ele>600.4</ele>
        <time>2025-09-09T08:00:24Z</time>
      </trkpt>
      <trkpt lat="46.01831" lon="4.40329">
        <ele>600.4</ele>
        <time>2025-09-09T08:00:25Z</time>
      </trkpt>
      <trkpt lat="46.01831" lon="4.40331">
        <ele>600.8</ele>
        <time>2025-09-09T08:00:26Z</time>
      </trkpt>
      <trkpt lat="46.0183" lon="4.40334">
        <ele>601</ele>
        <time>2025-09-09T08:00:27Z</time>
      </trkpt>
      <trkpt lat="46.0183" lon="4.40336">
        <ele>601</ele>
        <time>2025-09-09T08:00:28Z</time>
      </trkpt>
      <trkpt lat="46.01829" lon="4.40338">
        <ele>601.4</ele>
        <time>2025-09-09T08:00:29Z</time>
      </trkpt>
      <trkpt lat="46.01829" lon="4.40339">
        <ele>601.4</ele>
        <time>2025-09-09T08:00:30Z</time>
      </trkpt>
      <trkpt lat="46.01829" lon="4.40341">
        <ele>601.6</ele>
        <time>2025-09-09T08:00:31Z</time>
      </trkpt>
      <trkpt lat="46.01829" lon="4.40342">
        <ele>601.8</ele>
        <time>2025-09-09T08:00:32Z</time>
      </trkpt>
      <trkpt lat="46.01828" lon="4.40344">
        <ele>602</ele>
        <time>2025-09-09T08:00:33Z</time>
      </trkpt>
      <trkpt lat="46.01828" lon="4.40346">
        <ele>602.2</ele>
        <time>2025-09-09T08:00:34Z</time>
      </trkpt>
      <trkpt lat="46.01827" lon="4.40348">
        <ele>602.2</ele>
        <time>2025-09-09T08:00:35Z</time>
      </trkpt>
      <trkpt lat="46.01827" lon="4.40349">
        <ele>602.8</ele>
        <time>2025-09-09T08:00:36Z</time>
      </trkpt>
      <trkpt lat="46.01827" lon="4.40351">
        <ele>603</ele>
        <time>2025-09-09T08:00:37Z</time>
      </trkpt>
      <trkpt lat="46.01827" lon="4.40352">
        <ele>603</ele>
        <time>2025-09-09T08:00:38Z</time>
      </trkpt>
      <trkpt lat="46.01826" lon="4.40353">
        <ele>603.2</ele>
        <time>2025-09-09T08:00:39Z</time>
      </trkpt>
      <trkpt lat="46.01826" lon="4.40355">
        <ele>603.4</ele>
        <time>2025-09-09T08:00:40Z</time>
      </trkpt>
      <trkpt lat="46.01825" lon="4.40356">
        <ele>603.4</ele>
        <time>2025-09-09T08:00:41Z</time>
      </trkpt>
      <trkpt lat="46.01825" lon="4.40357">
        <ele>603.8</ele>
        <time>2025-09-09T08:00:42Z</time>
      </trkpt>
      <trkpt lat="46.01825" lon="4.40359">
        <ele>603.8</ele>
        <time>2025-09-09T08:00:43Z</time>
      </trkpt>
      <trkpt lat="46.01825" lon="4.4036">
        <ele>604.2</ele>
        <time>2025-09-09T08:00:44Z</time>
      </trkpt>
      <trkpt lat="46.01825" lon="4.40362">
        <ele>604.2</ele>
        <time>2025-09-09T08:00:45Z</time>
      </trkpt>
      <trkpt lat="46.01824" lon="4.40363">
        <ele>604.2</ele>
        <time>2025-09-09T08:00:46Z</time>
      </trkpt>
      <trkpt lat="46.01824" lon="4.40365">
        <ele>604.6</ele>
        <time>2025-09-09T08:00:47Z</time>
      </trkpt>
      <trkpt lat="46.01824" lon="4.40366">
        <ele>604.8</ele>
        <time>2025-09-09T08:00:48Z</time>
      </trkpt>
      <trkpt lat="46.01823" lon="4.40367">
        <ele>604.8</ele>
        <time>2025-09-09T08:00:49Z</time>
      </trkpt>
      <trkpt lat="46.01823" lon="4.40369">
        <ele>605.2</ele>
        <time>2025-09-09T08:00:50Z</time>
      </trkpt>
      <trkpt lat="46.01823" lon="4.4037">
        <ele>605.2</ele>
        <time>2025-09-09T08:00:51Z</time>
      </trkpt>
      <trkpt lat="46.01823" lon="4.40372">
        <ele>605.4</ele>
        <time>2025-09-09T08:00:52Z</time>
      </trkpt>
      <trkpt lat="46.01822" lon="4.40374">
        <ele>605.4</ele>
        <time>2025-09-09T08:00:53Z</time>
      </trkpt>
      <trkpt lat="46.01822" lon="4.40376">
        <ele>605.8</ele>
        <time>2025-09-09T08:00:54Z</time>
      </trkpt>
      <trkpt lat="46.01821" lon="4.40378">
        <ele>605.8</ele>
        <time>2025-09-09T08:00:55Z</time>
      </trkpt>
      <trkpt lat="46.01821" lon="4.4038">
        <ele>605.8</ele>
        <time>2025-09-09T08:00:56Z</time>
      </trkpt>
      <trkpt lat="46.01821" lon="4.40381">
        <ele>606</ele>
        <time>2025-09-09T08:00:57Z</time>
      </trkpt>
      <trkpt lat="46.0182" lon="4.40383">
        <ele>606.2</ele>
        <time>2025-09-09T08:00:58Z</time>
      </trkpt>
      <trkpt lat="46.01819" lon="4.40384">
        <ele>606.4</ele>
        <time>2025-09-09T08:00:59Z</time>
      </trkpt>
      <trkpt lat="46.01819" lon="4.40384">
        <ele>606.8</ele>
        <time>2025-09-09T08:01:00Z</time>
      </trkpt>
      <trkpt lat="46.01819" lon="4.40385">
        <ele>606.8</ele>
        <time>2025-09-09T08:01:01Z</time>
      </trkpt>
      <trkpt lat="46.01818" lon="4.40388">
        <ele>607</ele>
        <time>2025-09-09T08:01:14Z</time>
      </trkpt>
      <trkpt lat="46.01818" lon="4.40389">
        <ele>607.4</ele>
        <time>2025-09-09T08:01:15Z</time>
      </trkpt>
      <trkpt lat="46.01817" lon="4.4039">
        <ele>607.4</ele>
        <time>2025-09-09T08:01:16Z</time>
      </trkpt>
      <trkpt lat="46.01817" lon="4.40391">
        <ele>607.4</ele>
        <time>2025-09-09T08:01:17Z</time>
      </trkpt>
      <trkpt lat="46.01817" lon="4.40392">
        <ele>607.6</ele>
        <time>2025-09-09T08:01:18Z</time>
      </trkpt>
      <trkpt lat="46.01816" lon="4.40393">
        <ele>607.6</ele>
        <time>2025-09-09T08:01:19Z</time>
      </trkpt>
      <trkpt lat="46.01816" lon="4.40394">
        <ele>607.6</ele>
        <time>2025-09-09T08:01:20Z</time>
      </trkpt>
      <trkpt lat="46.01816" lon="4.40395">
        <ele>607.6</ele>
        <time>2025-09-09T08:01:21Z</time>
      </trkpt>
      <trkpt lat="46.01816" lon="4.40397">
        <ele>607.8</ele>
        <time>2025-09-09T08:01:22Z</time>
      </trkpt>
      <trkpt lat="46.01815" lon="4.40399">
        <ele>608.2</ele>
        <time>2025-09-09T08:01:23Z</time>
      </trkpt>
      <trkpt lat="46.01815" lon="4.40401">
        <ele>608.2</ele>
        <time>2025-09-09T08:01:24Z</time>
      </trkpt>
      <trkpt lat="46.01815" lon="4.40402">
        <ele>608.2</ele>
        <time>2025-09-09T08:01:25Z</time>
      </trkpt>
      <trkpt lat="46.01814" lon="4.40404">
        <ele>608.6</ele>
        <time>2025-09-09T08:01:26Z</time>
      </trkpt>
      <trkpt lat="46.01813" lon="4.40406">
        <ele>608.6</ele>
        <time>2025-09-09T08:01:27Z</time>
      </trkpt>
      <trkpt lat="46.01813" lon="4.40407">
        <ele>608.8</ele>
        <time>2025-09-09T08:01:28Z</time>
      </trkpt>
      <trkpt lat="46.01813" lon="4.40409">
        <ele>608.8</ele>
        <time>2025-09-09T08:01:29Z</time>
      </trkpt>
      <trkpt lat="46.01812" lon="4.4041">
        <ele>608.8</ele>
        <time>2025-09-09T08:01:30Z</time>
      </trkpt>
      <trkpt lat="46.01812" lon="4.40411">
        <ele>609.2</ele>
        <time>2025-09-09T08:01:31Z</time>
      </trkpt>
      <trkpt lat="46.01812" lon="4.4041">
        <ele>609.2</ele>
        <time>2025-09-09T08:01:32Z</time>
      </trkpt>
      <trkpt lat="46.01815" lon="4.40412">
        <ele>609.6</ele>
        <time>2025-09-09T08:01:38Z</time>
      </trkpt>
      <trkpt lat="46.01815" lon="4.40413">
        <ele>610</ele>
        <time>2025-09-09T08:01:39Z</time>
      </trkpt>
      <trkpt lat="46.01814" lon="4.40414">
        <ele>610.4</ele>
        <time>2025-09-09T08:01:40Z</time>
      </trkpt>
      <trkpt lat="46.01813" lon="4.40415">
        <ele>610.6</ele>
        <time>2025-09-09T08:01:41Z</time>
      </trkpt>
      <trkpt lat="46.01812" lon="4.40417">
        <ele>610.6</ele>
        <time>2025-09-09T08:01:42Z</time>
      </trkpt>
      <trkpt lat="46.01811" lon="4.40418">
        <ele>610.6</ele>
        <time>2025-09-09T08:01:43Z</time>
      </trkpt>
      <trkpt lat="46.0181" lon="4.4042">
        <ele>610.8</ele>
        <time>2025-09-09T08:01:44Z</time>
      </trkpt>
      <trkpt lat="46.01809" lon="4.40421">
        <ele>611</ele>
        <time>2025-09-09T08:01:45Z</time>
      </trkpt>
      <trkpt lat="46.01809" lon="4.40423">
        <ele>611.2</ele>
        <time>2025-09-09T08:01:46Z</time>
      </trkpt>
      <trkpt lat="46.01809" lon="4.40425">
        <ele>611.2</ele>
        <time>2025-09-09T08:01:47Z</time>
      </trkpt>
      <trkpt lat="46.01809" lon="4.40427">
        <ele>611.6</ele>
        <time>2025-09-09T08:01:48Z</time>
      </trkpt>
      <trkpt lat="46.01809" lon="4.40428">
        <ele>611.6</ele>
        <time>2025-09-09T08:01:49Z</time>
      </trkpt>
      <trkpt lat="46.01809" lon="4.40428">
        <ele>612</ele>
        <time>2025-09-09T08:01:50Z</time>
      </trkpt>
      <trkpt lat="46.01809" lon="4.4043">
        <ele>612</ele>
        <time>2025-09-09T08:01:51Z</time>
      </trkpt>
      <trkpt lat="46.01808" lon="4.40431">
        <ele>612.2</ele>
        <time>2025-09-09T08:01:52Z</time>
      </trkpt>
      <trkpt lat="46.01808" lon="4.40432">
        <ele>612.2</ele>
        <time>2025-09-09T08:01:53Z</time>
      </trkpt>
      <trkpt lat="46.01807" lon="4.40433">
        <ele>612.2</ele>
        <time>2025-09-09T08:01:54Z</time>
      </trkpt>
      <trkpt lat="46.01807" lon="4.40434">
        <ele>612.4</ele>
        <time>2025-09-09T08:01:55Z</time>
      </trkpt>
      <trkpt lat="46.01806" lon="4.40435">
        <ele>612.4</ele>
        <time>2025-09-09T08:01:56Z</time>
      </trkpt>
      <trkpt lat="46.01806" lon="4.40436">
        <ele>612.8</ele>
        <time>2025-09-09T08:01:57Z</time>
      </trkpt>
      <trkpt lat="46.01805" lon="4.40438">
        <ele>612.8</ele>
        <time>2025-09-09T08:01:58Z</time>
      </trkpt>
      <trkpt lat="46.01805" lon="4.40439">
        <ele>612.8</ele>
        <time>2025-09-09T08:01:59Z</time>
      </trkpt>
      <trkpt lat="46.01804" lon="4.4044">
        <ele>613.2</ele>
        <time>2025-09-09T08:02:00Z</time>
      </trkpt>
      <trkpt lat="46.01803" lon="4.40441">
        <ele>613.2</ele>
        <time>2025-09-09T08:02:01Z</time>
      </trkpt>
      <trkpt lat="46.01803" lon="4.40442">
        <ele>613.2</ele>
        <time>2025-09-09T08:02:02Z</time>
      </trkpt>
      <trkpt lat="46.01802" lon="4.40443">
        <ele>613.6</ele>
        <time>2025-09-09T08:02:03Z</time>
      </trkpt>
      <trkpt lat="46.01802" lon="4.40445">
        <ele>613.6</ele>
        <time>2025-09-09T08:02:04Z</time>
      </trkpt>
      <trkpt lat="46.01802" lon="4.40446">
        <ele>613.8</ele>
        <time>2025-09-09T08:02:05Z</time>
      </trkpt>
      <trkpt lat="46.01801" lon="4.40447">
        <ele>613.8</ele>
        <time>2025-09-09T08:02:06Z</time>
      </trkpt>
      <trkpt lat="46.01801" lon="4.40448">
        <ele>614</ele>
        <time>2025-09-09T08:02:07Z</time>
      </trkpt>
      <trkpt lat="46.01801" lon="4.40449">
        <ele>614</ele>
        <time>2025-09-09T08:02:08Z</time>
      </trkpt>
      <trkpt lat="46.01801" lon="4.40451">
        <ele>614.4</ele>
        <time>2025-09-09T08:02:09Z</time>
      </trkpt>
      <trkpt lat="46.018" lon="4.40452">
        <ele>614.4</ele>
        <time>2025-09-09T08:02:10Z</time>
      </trkpt>
      <trkpt lat="46.018" lon="4.40453">
        <ele>614.6</ele>
        <time>2025-09-09T08:02:11Z</time>
      </trkpt>
      <trkpt lat="46.018" lon="4.40454">
        <ele>614.6</ele>
        <time>2025-09-09T08:02:12Z</time>
      </trkpt>
      <trkpt lat="46.018" lon="4.40455">
        <ele>614.6</ele>
        <time>2025-09-09T08:02:13Z</time>
      </trkpt>
      <trkpt lat="46.018" lon="4.40456">
        <ele>614.6</ele>
        <time>2025-09-09T08:02:14Z</time>
      </trkpt>
      <trkpt lat="46.018" lon="4.40456">
        <ele>615</ele>
        <time>2025-09-09T08:02:15Z</time>
      </trkpt>
      <trkpt lat="46.018" lon="4.40456">
        <ele>615</ele>
        <time>2025-09-09T08:02:16Z</time>
      </trkpt>
      <trkpt lat="46.01797" lon="4.4046">
        <ele>615.4</ele>
        <time>2025-09-09T08:02:18Z</time>
      </trkpt>
      <trkpt lat="46.01797" lon="4.40461">
        <ele>615.4</ele>
        <time>2025-09-09T08:02:19Z</time>
      </trkpt>
      <trkpt lat="46.01797" lon="4.40462">
        <ele>615.8</ele>
        <time>2025-09-09T08:02:20Z</time>
      </trkpt>
      <trkpt lat="46.01798" lon="4.40463">
        <ele>616</ele>
        <time>2025-09-09T08:02:21Z</time>
      </trkpt>
      <trkpt lat="46.01798" lon="4.40464">
        <ele>616</ele>
        <time>2025-09-09T08:02:22Z</time>
      </trkpt>
      <trkpt lat="46.01799" lon="4.40465">
        <ele>616.2</ele>
        <time>2025-09-09T08:02:23Z</time>
      </trkpt>
      <trkpt lat="46.01799" lon="4.40466">
        <ele>616.6</ele>
        <time>2025-09-09T08:02:24Z</time>
      </trkpt>
      <trkpt lat="46.01799" lon="4.40467">
        <ele>616.8</ele>
        <time>2025-09-09T08:02:25Z</time>
      </trkpt>
      <trkpt lat="46.01799" lon="4.40468">
        <ele>616.8</ele>
        <time>2025-09-09T08:02:26Z</time>
      </trkpt>
      <trkpt lat="46.01799" lon="4.4047">
        <ele>617.2</ele>
        <time>2025-09-09T08:02:27Z</time>
      </trkpt>
      <trkpt lat="46.01799" lon="4.40471">
        <ele>617.4</ele>
        <time>2025-09-09T08:02:28Z</time>
      </trkpt>
      <trkpt lat="46.01799" lon="4.40473">
        <ele>617.6</ele>
        <time>2025-09-09T08:02:29Z</time>
      </trkpt>
      <trkpt lat="46.01799" lon="4.40474">
        <ele>617.6</ele>
        <time>2025-09-09T08:02:30Z</time>
      </trkpt>
      <trkpt lat="46.01799" lon="4.40476">
        <ele>617.6</ele>
        <time>2025-09-09T08:02:31Z</time>
      </trkpt>
      <trkpt lat="46.01798" lon="4.40477">
        <ele>617.6</ele>
        <time>2025-09-09T08:02:32Z</time>
      </trkpt>
      <trkpt lat="46.01798" lon="4.40478">
        <ele>618</ele>
        <time>2025-09-09T08:02:33Z</time>
      </trkpt>
      <trkpt lat="46.01798" lon="4.40479">
        <ele>618.2</ele>
        <time>2025-09-09T08:02:34Z</time>
      </trkpt>
      <trkpt lat="46.01798" lon="4.4048">
        <ele>618.2</ele>
        <time>2025-09-09T08:02:35Z</time>
      </trkpt>
      <trkpt lat="46.01797" lon="4.40482">
        <ele>618.2</ele>
        <time>2025-09-09T08:02:36Z</time>
      </trkpt>
      <trkpt lat="46.01797" lon="4.40483">
        <ele>618.4</ele>
        <time>2025-09-09T08:02:37Z</time>
      </trkpt>
      <trkpt lat="46.01797" lon="4.40484">
        <ele>618.4</ele>
        <time>2025-09-09T08:02:38Z</time>
      </trkpt>
      <trkpt lat="46.01796" lon="4.40486">
        <ele>618.4</ele>
        <time>2025-09-09T08:02:39Z</time>
      </trkpt>
      <trkpt lat="46.01796" lon="4.40488">
        <ele>618.6</ele>
        <time>2025-09-09T08:02:40Z</time>
      </trkpt>
      <trkpt lat="46.01795" lon="4.4049">
        <ele>619</ele>
        <time>2025-09-09T08:02:41Z</time>
      </trkpt>
      <trkpt lat="46.01795" lon="4.40492">
        <ele>619</ele>
        <time>2025-09-09T08:02:42Z</time>
      </trkpt>
      <trkpt lat="46.01795" lon="4.40492">
        <ele>619.2</ele>
        <time>2025-09-09T08:02:43Z</time>
      </trkpt>
      <trkpt lat="46.01795" lon="4.40494">
        <ele>619.4</ele>
        <time>2025-09-09T08:02:44Z</time>
      </trkpt>
      <trkpt lat="46.01794" lon="4.40495">
        <ele>619.4</ele>
        <time>2025-09-09T08:02:45Z</time>
      </trkpt>
      <trkpt lat="46.01794" lon="4.40497">
        <ele>619.8</ele>
        <time>2025-09-09T08:02:46Z</time>
      </trkpt>
      <trkpt lat="46.01793" lon="4.40498">
        <ele>619.8</ele>
        <time>2025-09-09T08:02:47Z</time>
      </trkpt>
      <trkpt lat="46.01793" lon="4.40498">
        <ele>620</ele>
        <time>2025-09-09T08:02:48Z</time>
      </trkpt>
      <trkpt lat="46.01792" lon="4.40499">
        <ele>620</ele>
        <time>2025-09-09T08:02:49Z</time>
      </trkpt>
      <trkpt lat="46.01792" lon="4.405">
        <ele>620</ele>
        <time>2025-09-09T08:02:50Z</time>
      </trkpt>
      <trkpt lat="46.01791" lon="4.40501">
        <ele>620</ele>
        <time>2025-09-09T08:02:51Z</time>
      </trkpt>
      <trkpt lat="46.01791" lon="4.40502">
        <ele>620.2</ele>
        <time>2025-09-09T08:02:52Z</time>
      </trkpt>
      <trkpt lat="46.01791" lon="4.40503">
        <ele>620.2</ele>
        <time>2025-09-09T08:02:53Z</time>
      </trkpt>
      <trkpt lat="46.0179" lon="4.40505">
        <ele>620.6</ele>
        <time>2025-09-09T08:02:54Z</time>
      </trkpt>
      <trkpt lat="46.0179" lon="4.40506">
        <ele>620.6</ele>
        <time>2025-09-09T08:02:55Z</time>
      </trkpt>
      <trkpt lat="46.0179" lon="4.40507">
        <ele>620.8</ele>
        <time>2025-09-09T08:02:56Z</time>
      </trkpt>
      <trkpt lat="46.01789" lon="4.40508">
        <ele>620.8</ele>
        <time>2025-09-09T08:02:57Z</time>
      </trkpt>
      <trkpt lat="46.01789" lon="4.40509">
        <ele>621.2</ele>
        <time>2025-09-09T08:02:58Z</time>
      </trkpt>
      <trkpt lat="46.01789" lon="4.40511">
        <ele>621.2</ele>
        <time>2025-09-09T08:02:59Z</time>
      </trkpt>
      <trkpt lat="46.01789" lon="4.40512">
        <ele>621.2</ele>
        <time>2025-09-09T08:03:00Z</time>
      </trkpt>
      <trkpt lat="46.01789" lon="4.40513">
        <ele>621.4</ele>
        <time>2025-09-09T08:03:01Z</time>
      </trkpt>
      <trkpt lat="46.01789" lon="4.40515">
        <ele>621.8</ele>
        <time>2025-09-09T08:03:02Z</time>
      </trkpt>
      <trkpt lat="46.01788" lon="4.40516">
        <ele>621.8</ele>
        <time>2025-09-09T08:03:03Z</time>
      </trkpt>
      <trkpt lat="46.01788" lon="4.40517">
        <ele>622.2</ele>
        <time>2025-09-09T08:03:04Z</time>
      </trkpt>
      <trkpt lat="46.01787" lon="4.40518">
        <ele>622.2</ele>
        <time>2025-09-09T08:03:05Z</time>
      </trkpt>
      <trkpt lat="46.01787" lon="4.40519">
        <ele>622.6</ele>
        <time>2025-09-09T08:03:06Z</time>
      </trkpt>
      <trkpt lat="46.01787" lon="4.4052">
        <ele>622.6</ele>
        <time>2025-09-09T08:03:07Z</time>
      </trkpt>
      <trkpt lat="46.01787" lon="4.40521">
        <ele>622.6</ele>
        <time>2025-09-09T08:03:08Z</time>
      </trkpt>
      <trkpt lat="46.01787" lon="4.40522">
        <ele>622.8</ele>
        <time>2025-09-09T08:03:09Z</time>
      </trkpt>
      <trkpt lat="46.01787" lon="4.40523">
        <ele>622.8</ele>
        <time>2025-09-09T08:03:10Z</time>
      </trkpt>
      <trkpt lat="46.01787" lon="4.40524">
        <ele>622.8</ele>
        <time>2025-09-09T08:03:11Z</time>
      </trkpt>
      <trkpt lat="46.01787" lon="4.40526">
        <ele>623.2</ele>
        <time>2025-09-09T08:03:12Z</time>
      </trkpt>
      <trkpt lat="46.01787" lon="4.40527">
        <ele>623.2</ele>
        <time>2025-09-09T08:03:13Z</time>
      </trkpt>
      <trkpt lat="46.01787" lon="4.40528">
        <ele>623.6</ele>
        <time>2025-09-09T08:03:14Z</time>
      </trkpt>
      <trkpt lat="46.01786" lon="4.40529">
        <ele>623.6</ele>
        <time>2025-09-09T08:03:15Z</time>
      </trkpt>
      <trkpt lat="46.01786" lon="4.40531">
        <ele>623.8</ele>
        <time>2025-09-09T08:03:16Z</time>
      </trkpt>
      <trkpt lat="46.01785" lon="4.40532">
        <ele>623.8</ele>
        <time>2025-09-09T08:03:17Z</time>
      </trkpt>
      <trkpt lat="46.01785" lon="4.40533">
        <ele>624</ele>
        <time>2025-09-09T08:03:18Z</time>
      </trkpt>
      <trkpt lat="46.01784" lon="4.40534">
        <ele>624.2</ele>
        <time>2025-09-09T08:03:19Z</time>
      </trkpt>
      <trkpt lat="46.01784" lon="4.40535">
        <ele>624.2</ele>
        <time>2025-09-09T08:03:20Z</time>
      </trkpt>
      <trkpt lat="46.01783" lon="4.40536">
        <ele>624.2</ele>
        <time>2025-09-09T08:03:21Z</time>
      </trkpt>
      <trkpt lat="46.01784" lon="4.40537">
        <ele>624.6</ele>
        <time>2025-09-09T08:03:22Z</time>
      </trkpt>
      <trkpt lat="46.01784" lon="4.40538">
        <ele>624.6</ele>
        <time>2025-09-09T08:03:23Z</time>
      </trkpt>
      <trkpt lat="46.01785" lon="4.40539">
        <ele>624.8</ele>
        <time>2025-09-09T08:03:24Z</time>
      </trkpt>
      <trkpt lat="46.01785" lon="4.4054">
        <ele>624.8</ele>
        <time>2025-09-09T08:03:25Z</time>
      </trkpt>
      <trkpt lat="46.01785" lon="4.40541">
        <ele>625</ele>
        <time>2025-09-09T08:03:26Z</time>
      </trkpt>
      <trkpt lat="46.01785" lon="4.40542">
        <ele>625</ele>
        <time>2025-09-09T08:03:27Z</time>
      </trkpt>
      <trkpt lat="46.01785" lon="4.40543">
        <ele>625.4</ele>
        <time>2025-09-09T08:03:28Z</time>
      </trkpt>
      <trkpt lat="46.01786" lon="4.40544">
        <ele>625.4</ele>
        <time>2025-09-09T08:03:29Z</time>
      </trkpt>
      <trkpt lat="46.01786" lon="4.40544">
        <ele>625.6</ele>
        <time>2025-09-09T08:03:30Z</time>
      </trkpt>
      <trkpt lat="46.01786" lon="4.40546">
        <ele>625.6</ele>
        <time>2025-09-09T08:03:31Z</time>
      </trkpt>
      <trkpt lat="46.01786" lon="4.40547">
        <ele>626.2</ele>
        <time>2025-09-09T08:03:32Z</time>
      </trkpt>
      <trkpt lat="46.01785" lon="4.40549">
        <ele>626.2</ele>
        <time>2025-09-09T08:03:33Z</time>
      </trkpt>
      <trkpt lat="46.01785" lon="4.4055">
        <ele>626.2</ele>
        <time>2025-09-09T08:03:34Z</time>
      </trkpt>
      <trkpt lat="46.01784" lon="4.40551">
        <ele>626.6</ele>
        <time>2025-09-09T08:03:35Z</time>
      </trkpt>
      <trkpt lat="46.01783" lon="4.40552">
        <ele>626.6</ele>
        <time>2025-09-09T08:03:36Z</time>
      </trkpt>
      <trkpt lat="46.01783" lon="4.40553">
        <ele>626.8</ele>
        <time>2025-09-09T08:03:37Z</time>
      </trkpt>
      <trkpt lat="46.01783" lon="4.40553">
        <ele>626.8</ele>
        <time>2025-09-09T08:03:38Z</time>
      </trkpt>
      <trkpt lat="46.01783" lon="4.40552">
        <ele>627</ele>
        <time>2025-09-09T08:03:39Z</time>
      </trkpt>
      <trkpt lat="46.0178" lon="4.40556">
        <ele>627.2</ele>
        <time>2025-09-09T08:04:02Z</time>
      </trkpt>
      <trkpt lat="46.01779" lon="4.40558">
        <ele>627.2</ele>
        <time>2025-09-09T08:04:03Z</time>
      </trkpt>
      <trkpt lat="46.01779" lon="4.4056">
        <ele>627.4</ele>
        <time>2025-09-09T08:04:04Z</time>
      </trkpt>
      <trkpt lat="46.01779" lon="4.40561">
        <ele>627.4</ele>
        <time>2025-09-09T08:04:05Z</time>
      </trkpt>
      <trkpt lat="46.01779" lon="4.40562">
        <ele>627.8</ele>
        <time>2025-09-09T08:04:06Z</time>
      </trkpt>
      <trkpt lat="46.01779" lon="4.40563">
        <ele>628</ele>
        <time>2025-09-09T08:04:07Z</time>
      </trkpt>
      <trkpt lat="46.01778" lon="4.40564">
        <ele>628</ele>
        <time>2025-09-09T08:04:08Z</time>
      </trkpt>
      <trkpt lat="46.01778" lon="4.40565">
        <ele>628.4</ele>
        <time>2025-09-09T08:04:09Z</time>
      </trkpt>
      <trkpt lat="46.01778" lon="4.40566">
        <ele>628.4</ele>
        <time>2025-09-09T08:04:10Z</time>
      </trkpt>
      <trkpt lat="46.01778" lon="4.40568">
        <ele>628.4</ele>
        <time>2025-09-09T08:04:11Z</time>
      </trkpt>
      <trkpt lat="46.01778" lon="4.40569">
        <ele>628.8</ele>
        <time>2025-09-09T08:04:12Z</time>
      </trkpt>
      <trkpt lat="46.01779" lon="4.4057">
        <ele>628.8</ele>
        <time>2025-09-09T08:04:13Z</time>
      </trkpt>
      <trkpt lat="46.01779" lon="4.40572">
        <ele>629</ele>
        <time>2025-09-09T08:04:14Z</time>
      </trkpt>
      <trkpt lat="46.01779" lon="4.40573">
        <ele>629</ele>
        <time>2025-09-09T08:04:15Z</time>
      </trkpt>
      <trkpt lat="46.01779" lon="4.40574">
        <ele>629.4</ele>
        <time>2025-09-09T08:04:16Z</time>
      </trkpt>
      <trkpt lat="46.01779" lon="4.40576">
        <ele>629.4</ele>
        <time>2025-09-09T08:04:17Z</time>
      </trkpt>
      <trkpt lat="46.01778" lon="4.40577">
        <ele>629.4</ele>
        <time>2025-09-09T08:04:18Z</time>
      </trkpt>
      <trkpt lat="46.01777" lon="4.40579">
        <ele>629.8</ele>
        <time>2025-09-09T08:04:19Z</time>
      </trkpt>
      <trkpt lat="46.01777" lon="4.4058">
        <ele>629.8</ele>
        <time>2025-09-09T08:04:20Z</time>
      </trkpt>
      <trkpt lat="46.01777" lon="4.40581">
        <ele>630</ele>
        <time>2025-09-09T08:04:21Z</time>
      </trkpt>
      <trkpt lat="46.01777" lon="4.40582">
        <ele>630</ele>
        <time>2025-09-09T08:04:22Z</time>
      </trkpt>
      <trkpt lat="46.01777" lon="4.40582">
        <ele>630.4</ele>
        <time>2025-09-09T08:04:23Z</time>
      </trkpt>
      <trkpt lat="46.01778" lon="4.40583">
        <ele>630.4</ele>
        <time>2025-09-09T08:04:24Z</time>
      </trkpt>
      <trkpt lat="46.0178" lon="4.40586">
        <ele>631.4</ele>
        <time>2025-09-09T08:05:06Z</time>
      </trkpt>
      <trkpt lat="46.0178" lon="4.40588">
        <ele>631.4</ele>
        <time>2025-09-09T08:05:07Z</time>
      </trkpt>
      <trkpt lat="46.0178" lon="4.40589">
        <ele>631.4</ele>
        <time>2025-09-09T08:05:08Z</time>
      </trkpt>
      <trkpt lat="46.0178" lon="4.4059">
        <ele>631.4</ele>
        <time>2025-09-09T08:05:09Z</time>
      </trkpt>
      <trkpt lat="46.0178" lon="4.40591">
        <ele>631.8</ele>
        <time>2025-09-09T08:05:10Z</time>
      </trkpt>
      <trkpt lat="46.0178" lon="4.40592">
        <ele>632</ele>
        <time>2025-09-09T08:05:11Z</time>
      </trkpt>
      <trkpt lat="46.0178" lon="4.40594">
        <ele>632</ele>
        <time>2025-09-09T08:05:12Z</time>
      </trkpt>
      <trkpt lat="46.01781" lon="4.40596">
        <ele>632.4</ele>
        <time>2025-09-09T08:05:13Z</time>
      </trkpt>
      <trkpt lat="46.01781" lon="4.40597">
        <ele>632.4</ele>
        <time>2025-09-09T08:05:14Z</time>
      </trkpt>
      <trkpt lat="46.01781" lon="4.40598">
        <ele>632.4</ele>
        <time>2025-09-09T08:05:15Z</time>
      </trkpt>
      <trkpt lat="46.01781" lon="4.406">
        <ele>632.4</ele>
        <time>2025-09-09T08:05:16Z</time>
      </trkpt>
      <trkpt lat="46.01781" lon="4.40601">
        <ele>632.8</ele>
        <time>2025-09-09T08:05:17Z</time>
      </trkpt>
      <trkpt lat="46.01781" lon="4.40602">
        <ele>632.8</ele>
        <time>2025-09-09T08:05:18Z</time>
      </trkpt>
      <trkpt lat="46.01781" lon="4.40603">
        <ele>632.8</ele>
        <time>2025-09-09T08:05:19Z</time>
      </trkpt>
      <trkpt lat="46.01781" lon="4.40604">
        <ele>633.2</ele>
        <time>2025-09-09T08:05:20Z</time>
      </trkpt>
      <trkpt lat="46.01781" lon="4.40605">
        <ele>633.6</ele>
        <time>2025-09-09T08:05:21Z</time>
      </trkpt>
      <trkpt lat="46.01781" lon="4.40607">
        <ele>633.8</ele>
        <time>2025-09-09T08:05:22Z</time>
      </trkpt>
      <trkpt lat="46.01781" lon="4.40608">
        <ele>634</ele>
        <time>2025-09-09T08:05:23Z</time>
      </trkpt>
      <trkpt lat="46.01782" lon="4.40609">
        <ele>634.4</ele>
        <time>2025-09-09T08:05:24Z</time>
      </trkpt>
      <trkpt lat="46.0178" lon="4.4061">
        <ele>634.4</ele>
        <time>2025-09-09T08:05:25Z</time>
      </trkpt>
      <trkpt lat="46.01778" lon="4.40611">
        <ele>634.4</ele>
        <time>2025-09-09T08:05:26Z</time>
      </trkpt>
      <trkpt lat="46.01777" lon="4.40611">
        <ele>634.4</ele>
        <time>2025-09-09T08:05:27Z</time>
      </trkpt>
      <trkpt lat="46.01775" lon="4.40612">
        <ele>634.6</ele>
        <time>2025-09-09T08:05:28Z</time>
      </trkpt>
      <trkpt lat="46.01774" lon="4.40613">
        <ele>635</ele>
        <time>2025-09-09T08:05:29Z</time>
      </trkpt>
      <trkpt lat="46.01773" lon="4.40615">
        <ele>635</ele>
        <time>2025-09-09T08:05:30Z</time>
      </trkpt>
      <trkpt lat="46.01774" lon="4.40617">
        <ele>635</ele>
        <time>2025-09-09T08:05:31Z</time>
      </trkpt>
      <trkpt lat="46.01775" lon="4.40619">
        <ele>635.2</ele>
        <time>2025-09-09T08:05:32Z</time>
      </trkpt>
      <trkpt lat="46.01777" lon="4.40622">
        <ele>635.2</ele>
        <time>2025-09-09T08:05:33Z</time>
      </trkpt>
      <trkpt lat="46.01778" lon="4.40624">
        <ele>635.6</ele>
        <time>2025-09-09T08:05:34Z</time>
      </trkpt>
      <trkpt lat="46.0178" lon="4.40626">
        <ele>635.6</ele>
        <time>2025-09-09T08:05:35Z</time>
      </trkpt>
      <trkpt lat="46.0178" lon="4.40628">
        <ele>636</ele>
        <time>2025-09-09T08:05:36Z</time>
      </trkpt>
      <trkpt lat="46.0178" lon="4.4063">
        <ele>636</ele>
        <time>2025-09-09T08:05:37Z</time>
      </trkpt>
      <trkpt lat="46.01779" lon="4.40631">
        <ele>636.4</ele>
        <time>2025-09-09T08:05:38Z</time>
      </trkpt>
      <trkpt lat="46.01779" lon="4.40632">
        <ele>636.6</ele>
        <time>2025-09-09T08:05:39Z</time>
      </trkpt>
      <trkpt lat="46.01778" lon="4.40634">
        <ele>636.6</ele>
        <time>2025-09-09T08:05:40Z</time>
      </trkpt>
      <trkpt lat="46.01777" lon="4.40635">
        <ele>637</ele>
        <time>2025-09-09T08:05:41Z</time>
      </trkpt>
      <trkpt lat="46.01777" lon="4.40637">
        <ele>637</ele>
        <time>2025-09-09T08:05:42Z</time>
      </trkpt>
      <trkpt lat="46.01777" lon="4.40638">
        <ele>637.4</ele>
        <time>2025-09-09T08:05:43Z</time>
      </trkpt>
      <trkpt lat="46.01777" lon="4.4064">
        <ele>637.4</ele>
        <time>2025-09-09T08:05:44Z</time>
      </trkpt>
      <trkpt lat="46.01777" lon="4.40642">
        <ele>637.4</ele>
        <time>2025-09-09T08:05:45Z</time>
      </trkpt>
      <trkpt lat="46.01776" lon="4.40643">
        <ele>637.4</ele>
        <time>2025-09-09T08:05:46Z</time>
      </trkpt>
      <trkpt lat="46.01776" lon="4.40644">
        <ele>637.8</ele>
        <time>2025-09-09T08:05:47Z</time>
      </trkpt>
      <trkpt lat="46.01777" lon="4.40645">
        <ele>637.8</ele>
        <time>2025-09-09T08:05:48Z</time>
      </trkpt>
      <trkpt lat="46.01777" lon="4.40646">
        <ele>637.8</ele>
        <time>2025-09-09T08:05:49Z</time>
      </trkpt>
      <trkpt lat="46.01778" lon="4.40648">
        <ele>638</ele>
        <time>2025-09-09T08:05:50Z</time>
      </trkpt>
      <trkpt lat="46.01779" lon="4.4065">
        <ele>638.4</ele>
        <time>2025-09-09T08:05:51Z</time>
      </trkpt>
      <trkpt lat="46.01779" lon="4.4065">
        <ele>638.6</ele>
        <time>2025-09-09T08:05:52Z</time>
      </trkpt>
      <trkpt lat="46.0178" lon="4.4065">
        <ele>639</ele>
        <time>2025-09-09T08:05:53Z</time>
      </trkpt>
      <trkpt lat="46.0178" lon="4.40651">
        <ele>639</ele>
        <time>2025-09-09T08:05:54Z</time>
      </trkpt>
      <trkpt lat="46.01779" lon="4.40652">
        <ele>639</ele>
        <time>2025-09-09T08:05:55Z</time>
      </trkpt>
      <trkpt lat="46.01779" lon="4.40654">
        <ele>639</ele>
        <time>2025-09-09T08:05:56Z</time>
      </trkpt>
      <trkpt lat="46.01779" lon="4.40656">
        <ele>639.2</ele>
        <time>2025-09-09T08:05:57Z</time>
      </trkpt>
      <trkpt lat="46.01779" lon="4.40658">
        <ele>639.2</ele>
        <time>2025-09-09T08:05:58Z</time>
      </trkpt>
      <trkpt lat="46.01779" lon="4.40659">
        <ele>639.4</ele>
        <time>2025-09-09T08:05:59Z</time>
      </trkpt>
      <trkpt lat="46.01779" lon="4.4066">
        <ele>639.4</ele>
        <time>2025-09-09T08:06:00Z</time>
      </trkpt>
      <trkpt lat="46.01779" lon="4.40662">
        <ele>639.6</ele>
        <time>2025-09-09T08:06:01Z</time>
      </trkpt>
      <trkpt lat="46.01778" lon="4.40664">
        <ele>639.6</ele>
        <time>2025-09-09T08:06:02Z</time>
      </trkpt>
      <trkpt lat="46.01778" lon="4.40665">
        <ele>640</ele>
        <time>2025-09-09T08:06:03Z</time>
      </trkpt>
      <trkpt lat="46.01779" lon="4.40667">
        <ele>640</ele>
        <time>2025-09-09T08:06:04Z</time>
      </trkpt>
      <trkpt lat="46.01779" lon="4.40669">
        <ele>640</ele>
        <time>2025-09-09T08:06:05Z</time>
      </trkpt>
      <trkpt lat="46.01779" lon="4.40671">
        <ele>640.4</ele>
        <time>2025-09-09T08:06:06Z</time>
      </trkpt>
      <trkpt lat="46.01779" lon="4.40672">
        <ele>640.4</ele>
        <time>2025-09-09T08:06:07Z</time>
      </trkpt>
      <trkpt lat="46.01779" lon="4.40672">
        <ele>640.4</ele>
        <time>2025-09-09T08:06:08Z</time>
      </trkpt>
      <trkpt lat="46.0178" lon="4.40673">
        <ele>640.6</ele>
        <time>2025-09-09T08:06:09Z</time>
      </trkpt>
      <trkpt lat="46.0178" lon="4.40673">
        <ele>640.6</ele>
        <time>2025-09-09T08:06:10Z</time>
      </trkpt>
      <trkpt lat="46.0178" lon="4.40674">
        <ele>640.6</ele>
        <time>2025-09-09T08:06:11Z</time>
      </trkpt>
      <trkpt lat="46.0178" lon="4.40675">
        <ele>641</ele>
        <time>2025-09-09T08:06:12Z</time>
      </trkpt>
      <trkpt lat="46.0178" lon="4.40676">
        <ele>641.2</ele>
        <time>2025-09-09T08:06:13Z</time>
      </trkpt>
      <trkpt lat="46.01779" lon="4.40677">
        <ele>641.4</ele>
        <time>2025-09-09T08:06:14Z</time>
      </trkpt>
      <trkpt lat="46.01779" lon="4.40679">
        <ele>641.6</ele>
        <time>2025-09-09T08:06:15Z</time>
      </trkpt>
      <trkpt lat="46.01778" lon="4.40681">
        <ele>641.6</ele>
        <time>2025-09-09T08:06:16Z</time>
      </trkpt>
      <trkpt lat="46.01777" lon="4.40683">
        <ele>641.6</ele>
        <time>2025-09-09T08:06:17Z</time>
      </trkpt>
      <trkpt lat="46.01777" lon="4.40685">
        <ele>641.6</ele>
        <time>2025-09-09T08:06:18Z</time>
      </trkpt>
      <trkpt lat="46.01777" lon="4.40686">
        <ele>641.6</ele>
        <time>2025-09-09T08:06:19Z</time>
      </trkpt>
      <trkpt lat="46.01778" lon="4.40687">
        <ele>641.6</ele>
        <time>2025-09-09T08:06:20Z</time>
      </trkpt>
      <trkpt lat="46.01778" lon="4.40689">
        <ele>642</ele>
        <time>2025-09-09T08:06:21Z</time>
      </trkpt>
      <trkpt lat="46.01777" lon="4.4069">
        <ele>642</ele>
        <time>2025-09-09T08:06:22Z</time>
      </trkpt>
      <trkpt lat="46.01777" lon="4.40692">
        <ele>642</ele>
        <time>2025-09-09T08:06:23Z</time>
      </trkpt>
      <trkpt lat="46.01777" lon="4.40694">
        <ele>642</ele>
        <time>2025-09-09T08:06:24Z</time>
      </trkpt>
      <trkpt lat="46.01777" lon="4.40695">
        <ele>642.2</ele>
        <time>2025-09-09T08:06:25Z</time>
      </trkpt>
      <trkpt lat="46.01776" lon="4.40697">
        <ele>642.2</ele>
        <time>2025-09-09T08:06:26Z</time>
      </trkpt>
      <trkpt lat="46.01776" lon="4.40699">
        <ele>642.4</ele>
        <time>2025-09-09T08:06:27Z</time>
      </trkpt>
      <trkpt lat="46.01775" lon="4.407">
        <ele>642.4</ele>
        <time>2025-09-09T08:06:28Z</time>
      </trkpt>
      <trkpt lat="46.01775" lon="4.407">
        <ele>642.8</ele>
        <time>2025-09-09T08:06:29Z</time>
      </trkpt>
      <trkpt lat="46.01775" lon="4.40701">
        <ele>642.8</ele>
        <time>2025-09-09T08:06:30Z</time>
      </trkpt>
      <trkpt lat="46.01775" lon="4.40702">
        <ele>643</ele>
        <time>2025-09-09T08:06:31Z</time>
      </trkpt>
      <trkpt lat="46.01775" lon="4.40704">
        <ele>643</ele>
        <time>2025-09-09T08:06:32Z</time>
      </trkpt>
      <trkpt lat="46.01775" lon="4.40705">
        <ele>643</ele>
        <time>2025-09-09T08:06:33Z</time>
      </trkpt>
      <trkpt lat="46.01775" lon="4.40707">
        <ele>643.2</ele>
        <time>2025-09-09T08:06:34Z</time>
      </trkpt>
      <trkpt lat="46.01774" lon="4.40708">
        <ele>643.2</ele>
        <time>2025-09-09T08:06:35Z</time>
      </trkpt>
      <trkpt lat="46.01774" lon="4.4071">
        <ele>643.2</ele>
        <time>2025-09-09T08:06:36Z</time>
      </trkpt>
      <trkpt lat="46.01775" lon="4.40711">
        <ele>643.6</ele>
        <time>2025-09-09T08:06:37Z</time>
      </trkpt>
      <trkpt lat="46.01776" lon="4.40712">
        <ele>643.6</ele>
        <time>2025-09-09T08:06:38Z</time>
      </trkpt>
      <trkpt lat="46.01777" lon="4.40713">
        <ele>643.6</ele>
        <time>2025-09-09T08:06:39Z</time>
      </trkpt>
      <trkpt lat="46.01777" lon="4.40714">
        <ele>644</ele>
        <time>2025-09-09T08:06:40Z</time>
      </trkpt>
      <trkpt lat="46.01777" lon="4.40715">
        <ele>644</ele>
        <time>2025-09-09T08:06:41Z</time>
      </trkpt>
      <trkpt lat="46.01777" lon="4.40717">
        <ele>644.2</ele>
        <time>2025-09-09T08:06:42Z</time>
      </trkpt>
      <trkpt lat="46.01778" lon="4.40718">
        <ele>644.2</ele>
        <time>2025-09-09T08:06:43Z</time>
      </trkpt>
      <trkpt lat="46.01779" lon="4.40718">
        <ele>644.6</ele>
        <time>2025-09-09T08:06:44Z</time>
      </trkpt>
      <trkpt lat="46.0178" lon="4.40719">
        <ele>644.6</ele>
        <time>2025-09-09T08:06:45Z</time>
      </trkpt>
      <trkpt lat="46.0178" lon="4.4072">
        <ele>644.8</ele>
        <time>2025-09-09T08:06:46Z</time>
      </trkpt>
      <trkpt lat="46.01781" lon="4.40721">
        <ele>644.8</ele>
        <time>2025-09-09T08:06:47Z</time>
      </trkpt>
      <trkpt lat="46.01782" lon="4.40722">
        <ele>645.2</ele>
        <time>2025-09-09T08:06:48Z</time>
      </trkpt>
      <trkpt lat="46.01782" lon="4.40723">
        <ele>645.4</ele>
        <time>2025-09-09T08:06:49Z</time>
      </trkpt>
      <trkpt lat="46.01783" lon="4.40723">
        <ele>645.4</ele>
        <time>2025-09-09T08:06:50Z</time>
      </trkpt>
      <trkpt lat="46.01784" lon="4.40724">
        <ele>645.8</ele>
        <time>2025-09-09T08:06:51Z</time>
      </trkpt>
      <trkpt lat="46.01785" lon="4.40725">
        <ele>645.8</ele>
        <time>2025-09-09T08:06:52Z</time>
      </trkpt>
      <trkpt lat="46.01786" lon="4.40726">
        <ele>646.2</ele>
        <time>2025-09-09T08:06:53Z</time>
      </trkpt>
      <trkpt lat="46.01787" lon="4.40727">
        <ele>646.2</ele>
        <time>2025-09-09T08:06:54Z</time>
      </trkpt>
      <trkpt lat="46.01788" lon="4.40728">
        <ele>646.4</ele>
        <time>2025-09-09T08:06:55Z</time>
      </trkpt>
      <trkpt lat="46.01788" lon="4.40729">
        <ele>646.4</ele>
        <time>2025-09-09T08:06:56Z</time>
      </trkpt>
      <trkpt lat="46.01788" lon="4.4073">
        <ele>646.6</ele>
        <time>2025-09-09T08:06:57Z</time>
      </trkpt>
      <trkpt lat="46.01787" lon="4.40731">
        <ele>646.6</ele>
        <time>2025-09-09T08:06:58Z</time>
      </trkpt>
      <trkpt lat="46.01787" lon="4.40732">
        <ele>647</ele>
        <time>2025-09-09T08:06:59Z</time>
      </trkpt>
      <trkpt lat="46.01788" lon="4.40733">
        <ele>647</ele>
        <time>2025-09-09T08:07:00Z</time>
      </trkpt>
      <trkpt lat="46.01788" lon="4.40734">
        <ele>647</ele>
        <time>2025-09-09T08:07:01Z</time>
      </trkpt>
      <trkpt lat="46.01788" lon="4.40735">
        <ele>647.2</ele>
        <time>2025-09-09T08:07:02Z</time>
      </trkpt>
      <trkpt lat="46.01788" lon="4.40736">
        <ele>647.6</ele>
        <time>2025-09-09T08:07:03Z</time>
      </trkpt>
      <trkpt lat="46.01789" lon="4.40737">
        <ele>647.6</ele>
        <time>2025-09-09T08:07:04Z</time>
      </trkpt>
      <trkpt lat="46.0179" lon="4.40737">
        <ele>647.6</ele>
        <time>2025-09-09T08:07:05Z</time>
      </trkpt>
      <trkpt lat="46.01795" lon="4.40741">
        <ele>647.6</ele>
        <time>2025-09-09T08:07:27Z</time>
      </trkpt>
      <trkpt lat="46.01795" lon="4.40742">
        <ele>647.6</ele>
        <time>2025-09-09T08:07:28Z</time>
      </trkpt>
      <trkpt lat="46.01795" lon="4.40743">
        <ele>647.6</ele>
        <time>2025-09-09T08:07:29Z</time>
      </trkpt>
      <trkpt lat="46.01795" lon="4.40745">
        <ele>647.8</ele>
        <time>2025-09-09T08:07:30Z</time>
      </trkpt>
      <trkpt lat="46.01795" lon="4.40746">
        <ele>647.8</ele>
        <time>2025-09-09T08:07:31Z</time>
      </trkpt>
      <trkpt lat="46.01796" lon="4.40747">
        <ele>648</ele>
        <time>2025-09-09T08:07:32Z</time>
      </trkpt>
      <trkpt lat="46.01796" lon="4.40749">
        <ele>648</ele>
        <time>2025-09-09T08:07:33Z</time>
      </trkpt>
      <trkpt lat="46.01796" lon="4.4075">
        <ele>648.2</ele>
        <time>2025-09-09T08:07:34Z</time>
      </trkpt>
      <trkpt lat="46.01795" lon="4.40751">
        <ele>648.2</ele>
        <time>2025-09-09T08:07:35Z</time>
      </trkpt>
      <trkpt lat="46.01795" lon="4.40752">
        <ele>648.4</ele>
        <time>2025-09-09T08:07:36Z</time>
      </trkpt>
      <trkpt lat="46.01795" lon="4.40753">
        <ele>648.6</ele>
        <time>2025-09-09T08:07:37Z</time>
      </trkpt>
      <trkpt lat="46.01796" lon="4.40754">
        <ele>648.8</ele>
        <time>2025-09-09T08:07:38Z</time>
      </trkpt>
      <trkpt lat="46.01796" lon="4.40756">
        <ele>649.2</ele>
        <time>2025-09-09T08:07:39Z</time>
      </trkpt>
      <trkpt lat="46.01797" lon="4.40757">
        <ele>649.2</ele>
        <time>2025-09-09T08:07:40Z</time>
      </trkpt>
      <trkpt lat="46.01798" lon="4.40758">
        <ele>649.2</ele>
        <time>2025-09-09T08:07:41Z</time>
      </trkpt>
      <trkpt lat="46.01798" lon="4.40759">
        <ele>649.6</ele>
        <time>2025-09-09T08:07:42Z</time>
      </trkpt>
      <trkpt lat="46.01798" lon="4.4076">
        <ele>649.8</ele>
        <time>2025-09-09T08:07:43Z</time>
      </trkpt>
      <trkpt lat="46.01799" lon="4.40761">
        <ele>649.8</ele>
        <time>2025-09-09T08:07:44Z</time>
      </trkpt>
      <trkpt lat="46.01799" lon="4.40763">
        <ele>649.8</ele>
        <time>2025-09-09T08:07:45Z</time>
      </trkpt>
      <trkpt lat="46.018" lon="4.40765">
        <ele>650</ele>
        <time>2025-09-09T08:07:46Z</time>
      </trkpt>
      <trkpt lat="46.018" lon="4.40766">
        <ele>650</ele>
        <time>2025-09-09T08:07:47Z</time>
      </trkpt>
      <trkpt lat="46.018" lon="4.40766">
        <ele>650.2</ele>
        <time>2025-09-09T08:07:48Z</time>
      </trkpt>
      <trkpt lat="46.018" lon="4.40768">
        <ele>650.2</ele>
        <time>2025-09-09T08:07:49Z</time>
      </trkpt>
      <trkpt lat="46.01799" lon="4.40769">
        <ele>650.6</ele>
        <time>2025-09-09T08:07:50Z</time>
      </trkpt>
      <trkpt lat="46.01799" lon="4.4077">
        <ele>650.6</ele>
        <time>2025-09-09T08:07:51Z</time>
      </trkpt>
      <trkpt lat="46.01799" lon="4.40771">
        <ele>650.8</ele>
        <time>2025-09-09T08:07:52Z</time>
      </trkpt>
      <trkpt lat="46.01799" lon="4.40772">
        <ele>650.8</ele>
        <time>2025-09-09T08:07:53Z</time>
      </trkpt>
      <trkpt lat="46.01799" lon="4.40774">
        <ele>650.8</ele>
        <time>2025-09-09T08:07:54Z</time>
      </trkpt>
      <trkpt lat="46.018" lon="4.40776">
        <ele>650.8</ele>
        <time>2025-09-09T08:07:55Z</time>
      </trkpt>
      <trkpt lat="46.01801" lon="4.40778">
        <ele>651</ele>
        <time>2025-09-09T08:07:56Z</time>
      </trkpt>
      <trkpt lat="46.01802" lon="4.4078">
        <ele>651</ele>
        <time>2025-09-09T08:07:57Z</time>
      </trkpt>
      <trkpt lat="46.01803" lon="4.40781">
        <ele>651</ele>
        <time>2025-09-09T08:07:58Z</time>
      </trkpt>
      <trkpt lat="46.01803" lon="4.40783">
        <ele>651.2</ele>
        <time>2025-09-09T08:07:59Z</time>
      </trkpt>
      <trkpt lat="46.01803" lon="4.40785">
        <ele>651.2</ele>
        <time>2025-09-09T08:08:00Z</time>
      </trkpt>
      <trkpt lat="46.01804" lon="4.40786">
        <ele>651.4</ele>
        <time>2025-09-09T08:08:01Z</time>
      </trkpt>
      <trkpt lat="46.01804" lon="4.40788">
        <ele>651.4</ele>
        <time>2025-09-09T08:08:02Z</time>
      </trkpt>
      <trkpt lat="46.01803" lon="4.40789">
        <ele>651.4</ele>
        <time>2025-09-09T08:08:03Z</time>
      </trkpt>
      <trkpt lat="46.01802" lon="4.4079">
        <ele>651.8</ele>
        <time>2025-09-09T08:08:04Z</time>
      </trkpt>
      <trkpt lat="46.01801" lon="4.40791">
        <ele>652.2</ele>
        <time>2025-09-09T08:08:05Z</time>
      </trkpt>
      <trkpt lat="46.01801" lon="4.40792">
        <ele>652.2</ele>
        <time>2025-09-09T08:08:06Z</time>
      </trkpt>
      <trkpt lat="46.01801" lon="4.40793">
        <ele>652.6</ele>
        <time>2025-09-09T08:08:07Z</time>
      </trkpt>
      <trkpt lat="46.018" lon="4.40794">
        <ele>652.6</ele>
        <time>2025-09-09T08:08:08Z</time>
      </trkpt>
      <trkpt lat="46.018" lon="4.40795">
        <ele>652.8</ele>
        <time>2025-09-09T08:08:09Z</time>
      </trkpt>
      <trkpt lat="46.018" lon="4.40796">
        <ele>652.8</ele>
        <time>2025-09-09T08:08:10Z</time>
      </trkpt>
      <trkpt lat="46.018" lon="4.40798">
        <ele>653</ele>
        <time>2025-09-09T08:08:11Z</time>
      </trkpt>
      <trkpt lat="46.018" lon="4.40799">
        <ele>653</ele>
        <time>2025-09-09T08:08:12Z</time>
      </trkpt>
      <trkpt lat="46.018" lon="4.40801">
        <ele>653.2</ele>
        <time>2025-09-09T08:08:13Z</time>
      </trkpt>
      <trkpt lat="46.018" lon="4.40803">
        <ele>653.2</ele>
        <time>2025-09-09T08:08:14Z</time>
      </trkpt>
      <trkpt lat="46.018" lon="4.40803">
        <ele>653.2</ele>
        <time>2025-09-09T08:08:15Z</time>
      </trkpt>
      <trkpt lat="46.018" lon="4.40804">
        <ele>653.8</ele>
        <time>2025-09-09T08:08:16Z</time>
      </trkpt>
      <trkpt lat="46.018" lon="4.40805">
        <ele>653.8</ele>
        <time>2025-09-09T08:08:17Z</time>
      </trkpt>
      <trkpt lat="46.018" lon="4.40807">
        <ele>653.8</ele>
        <time>2025-09-09T08:08:18Z</time>
      </trkpt>
      <trkpt lat="46.018" lon="4.40809">
        <ele>654</ele>
        <time>2025-09-09T08:08:19Z</time>
      </trkpt>
      <trkpt lat="46.018" lon="4.4081">
        <ele>654</ele>
        <time>2025-09-09T08:08:20Z</time>
      </trkpt>
      <trkpt lat="46.018" lon="4.40811">
        <ele>654.4</ele>
        <time>2025-09-09T08:08:21Z</time>
      </trkpt>
      <trkpt lat="46.018" lon="4.40813">
        <ele>654.4</ele>
        <time>2025-09-09T08:08:22Z</time>
      </trkpt>
      <trkpt lat="46.018" lon="4.40814">
        <ele>654.6</ele>
        <time>2025-09-09T08:08:23Z</time>
      </trkpt>
      <trkpt lat="46.018" lon="4.40816">
        <ele>654.6</ele>
        <time>2025-09-09T08:08:24Z</time>
      </trkpt>
      <trkpt lat="46.018" lon="4.40817">
        <ele>654.6</ele>
        <time>2025-09-09T08:08:25Z</time>
      </trkpt>
      <trkpt lat="46.01799" lon="4.40818">
        <ele>655</ele>
        <time>2025-09-09T08:08:26Z</time>
      </trkpt>
      <trkpt lat="46.01799" lon="4.4082">
        <ele>655</ele>
        <time>2025-09-09T08:08:27Z</time>
      </trkpt>
      <trkpt lat="46.01798" lon="4.40821">
        <ele>655.2</ele>
        <time>2025-09-09T08:08:28Z</time>
      </trkpt>
      <trkpt lat="46.01798" lon="4.40822">
        <ele>655.2</ele>
        <time>2025-09-09T08:08:29Z</time>
      </trkpt>
      <trkpt lat="46.01797" lon="4.40823">
        <ele>655.4</ele>
        <time>2025-09-09T08:08:30Z</time>
      </trkpt>
      <trkpt lat="46.01797" lon="4.40824">
        <ele>655.6</ele>
        <time>2025-09-09T08:08:31Z</time>
      </trkpt>
      <trkpt lat="46.01797" lon="4.40825">
        <ele>655.6</ele>
        <time>2025-09-09T08:08:32Z</time>
      </trkpt>
      <trkpt lat="46.01797" lon="4.40827">
        <ele>656</ele>
        <time>2025-09-09T08:08:33Z</time>
      </trkpt>
      <trkpt lat="46.01798" lon="4.40828">
        <ele>656</ele>
        <time>2025-09-09T08:08:34Z</time>
      </trkpt>
      <trkpt lat="46.01798" lon="4.40829">
        <ele>656.2</ele>
        <time>2025-09-09T08:08:35Z</time>
      </trkpt>
      <trkpt lat="46.01798" lon="4.4083">
        <ele>656.2</ele>
        <time>2025-09-09T08:08:36Z</time>
      </trkpt>
      <trkpt lat="46.01798" lon="4.40831">
        <ele>656.2</ele>
        <time>2025-09-09T08:08:37Z</time>
      </trkpt>
      <trkpt lat="46.01797" lon="4.40832">
        <ele>656.4</ele>
        <time>2025-09-09T08:08:38Z</time>
      </trkpt>
      <trkpt lat="46.01797" lon="4.40833">
        <ele>656.4</ele>
        <time>2025-09-09T08:08:39Z</time>
      </trkpt>
      <trkpt lat="46.01797" lon="4.40834">
        <ele>656.4</ele>
        <time>2025-09-09T08:08:40Z</time>
      </trkpt>
      <trkpt lat="46.01797" lon="4.40836">
        <ele>656.8</ele>
        <time>2025-09-09T08:08:41Z</time>
      </trkpt>
      <trkpt lat="46.01798" lon="4.40837">
        <ele>656.8</ele>
        <time>2025-09-09T08:08:42Z</time>
      </trkpt>
      <trkpt lat="46.01798" lon="4.40839">
        <ele>657</ele>
        <time>2025-09-09T08:08:43Z</time>
      </trkpt>
      <trkpt lat="46.01798" lon="4.4084">
        <ele>657.4</ele>
        <time>2025-09-09T08:08:44Z</time>
      </trkpt>
      <trkpt lat="46.01798" lon="4.40842">
        <ele>657.4</ele>
        <time>2025-09-09T08:08:45Z</time>
      </trkpt>
      <trkpt lat="46.01798" lon="4.40843">
        <ele>657.6</ele>
        <time>2025-09-09T08:08:46Z</time>
      </trkpt>
      <trkpt lat="46.01798" lon="4.40845">
        <ele>657.6</ele>
        <time>2025-09-09T08:08:47Z</time>
      </trkpt>
      <trkpt lat="46.01798" lon="4.40847">
        <ele>657.6</ele>
        <time>2025-09-09T08:08:48Z</time>
      </trkpt>
      <trkpt lat="46.01798" lon="4.40848">
        <ele>657.6</ele>
        <time>2025-09-09T08:08:49Z</time>
      </trkpt>
      <trkpt lat="46.01799" lon="4.40849">
        <ele>657.6</ele>
        <time>2025-09-09T08:08:50Z</time>
      </trkpt>
      <trkpt lat="46.01799" lon="4.40851">
        <ele>657.8</ele>
        <time>2025-09-09T08:08:51Z</time>
      </trkpt>
      <trkpt lat="46.01799" lon="4.40852">
        <ele>657.8</ele>
        <time>2025-09-09T08:08:52Z</time>
      </trkpt>
      <trkpt lat="46.018" lon="4.40853">
        <ele>658</ele>
        <time>2025-09-09T08:08:53Z</time>
      </trkpt>
      <trkpt lat="46.018" lon="4.40855">
        <ele>658</ele>
        <time>2025-09-09T08:08:54Z</time>
      </trkpt>
      <trkpt lat="46.018" lon="4.40856">
        <ele>658.2</ele>
        <time>2025-09-09T08:08:55Z</time>
      </trkpt>
      <trkpt lat="46.018" lon="4.40858">
        <ele>658.2</ele>
        <time>2025-09-09T08:08:56Z</time>
      </trkpt>
      <trkpt lat="46.01801" lon="4.40859">
        <ele>658.4</ele>
        <time>2025-09-09T08:08:57Z</time>
      </trkpt>
      <trkpt lat="46.01801" lon="4.40861">
        <ele>658.4</ele>
        <time>2025-09-09T08:08:58Z</time>
      </trkpt>
      <trkpt lat="46.01801" lon="4.40862">
        <ele>658.8</ele>
        <time>2025-09-09T08:08:59Z</time>
      </trkpt>
      <trkpt lat="46.01801" lon="4.40863">
        <ele>659</ele>
        <time>2025-09-09T08:09:00Z</time>
      </trkpt>
      <trkpt lat="46.01801" lon="4.40865">
        <ele>659</ele>
        <time>2025-09-09T08:09:01Z</time>
      </trkpt>
      <trkpt lat="46.01801" lon="4.40866">
        <ele>659</ele>
        <time>2025-09-09T08:09:02Z</time>
      </trkpt>
      <trkpt lat="46.018" lon="4.40867">
        <ele>659.2</ele>
        <time>2025-09-09T08:09:03Z</time>
      </trkpt>
      <trkpt lat="46.018" lon="4.40868">
        <ele>659.2</ele>
        <time>2025-09-09T08:09:04Z</time>
      </trkpt>
      <trkpt lat="46.018" lon="4.40869">
        <ele>659.4</ele>
        <time>2025-09-09T08:09:05Z</time>
      </trkpt>
      <trkpt lat="46.01801" lon="4.4087">
        <ele>659.4</ele>
        <time>2025-09-09T08:09:06Z</time>
      </trkpt>
      <trkpt lat="46.01801" lon="4.40871">
        <ele>659.8</ele>
        <time>2025-09-09T08:09:07Z</time>
      </trkpt>
      <trkpt lat="46.01801" lon="4.40872">
        <ele>659.8</ele>
        <time>2025-09-09T08:09:08Z</time>
      </trkpt>
      <trkpt lat="46.01801" lon="4.40874">
        <ele>659.8</ele>
        <time>2025-09-09T08:09:09Z</time>
      </trkpt>
      <trkpt lat="46.018" lon="4.40875">
        <ele>659.8</ele>
        <time>2025-09-09T08:09:10Z</time>
      </trkpt>
      <trkpt lat="46.018" lon="4.40876">
        <ele>659.8</ele>
        <time>2025-09-09T08:09:11Z</time>
      </trkpt>
      <trkpt lat="46.018" lon="4.40877">
        <ele>660</ele>
        <time>2025-09-09T08:09:12Z</time>
      </trkpt>
      <trkpt lat="46.018" lon="4.40878">
        <ele>660</ele>
        <time>2025-09-09T08:09:13Z</time>
      </trkpt>
      <trkpt lat="46.018" lon="4.40878">
        <ele>660.4</ele>
        <time>2025-09-09T08:09:14Z</time>
      </trkpt>
      <trkpt lat="46.01799" lon="4.40879">
        <ele>660.4</ele>
        <time>2025-09-09T08:09:19Z</time>
      </trkpt>
      <trkpt lat="46.01799" lon="4.4088">
        <ele>660.4</ele>
        <time>2025-09-09T08:09:20Z</time>
      </trkpt>
      <trkpt lat="46.018" lon="4.40881">
        <ele>660.4</ele>
        <time>2025-09-09T08:09:21Z</time>
      </trkpt>
      <trkpt lat="46.018" lon="4.40882">
        <ele>660.6</ele>
        <time>2025-09-09T08:09:22Z</time>
      </trkpt>
      <trkpt lat="46.018" lon="4.40884">
        <ele>660.6</ele>
        <time>2025-09-09T08:09:23Z</time>
      </trkpt>
      <trkpt lat="46.018" lon="4.40886">
        <ele>660.6</ele>
        <time>2025-09-09T08:09:24Z</time>
      </trkpt>
      <trkpt lat="46.018" lon="4.40887">
        <ele>660.6</ele>
        <time>2025-09-09T08:09:25Z</time>
      </trkpt>
      <trkpt lat="46.018" lon="4.40889">
        <ele>660.6</ele>
        <time>2025-09-09T08:09:26Z</time>
      </trkpt>
      <trkpt lat="46.018" lon="4.4089">
        <ele>660.8</ele>
        <time>2025-09-09T08:09:27Z</time>
      </trkpt>
      <trkpt lat="46.018" lon="4.40891">
        <ele>661.2</ele>
        <time>2025-09-09T08:09:28Z</time>
      </trkpt>
      <trkpt lat="46.018" lon="4.40892">
        <ele>661.4</ele>
        <time>2025-09-09T08:09:29Z</time>
      </trkpt>
      <trkpt lat="46.018" lon="4.40893">
        <ele>661.4</ele>
        <time>2025-09-09T08:09:30Z</time>
      </trkpt>
      <trkpt lat="46.018" lon="4.40894">
        <ele>661.8</ele>
        <time>2025-09-09T08:09:31Z</time>
      </trkpt>
      <trkpt lat="46.018" lon="4.40895">
        <ele>661.8</ele>
        <time>2025-09-09T08:09:32Z</time>
      </trkpt>
      <trkpt lat="46.018" lon="4.40896">
        <ele>662</ele>
        <time>2025-09-09T08:09:33Z</time>
      </trkpt>
      <trkpt lat="46.01801" lon="4.40896">
        <ele>662</ele>
        <time>2025-09-09T08:09:34Z</time>
      </trkpt>
      <trkpt lat="46.018" lon="4.40896">
        <ele>662</ele>
        <time>2025-09-09T08:09:35Z</time>
      </trkpt>
      <trkpt lat="46.01801" lon="4.40897">
        <ele>662.6</ele>
        <time>2025-09-09T08:09:39Z</time>
      </trkpt>
      <trkpt lat="46.01801" lon="4.40898">
        <ele>662.6</ele>
        <time>2025-09-09T08:09:40Z</time>
      </trkpt>
      <trkpt lat="46.01801" lon="4.40899">
        <ele>662.6</ele>
        <time>2025-09-09T08:09:41Z</time>
      </trkpt>
      <trkpt lat="46.01801" lon="4.40899">
        <ele>662.8</ele>
        <time>2025-09-09T08:09:42Z</time>
      </trkpt>
      <trkpt lat="46.01802" lon="4.40908">
        <ele>663.2</ele>
        <time>2025-09-09T08:11:32Z</time>
      </trkpt>
      <trkpt lat="46.01801" lon="4.40909">
        <ele>663.2</ele>
        <time>2025-09-09T08:11:33Z</time>
      </trkpt>
      <trkpt lat="46.018" lon="4.4091">
        <ele>663.2</ele>
        <time>2025-09-09T08:11:34Z</time>
      </trkpt>
      <trkpt lat="46.018" lon="4.40911">
        <ele>663.2</ele>
        <time>2025-09-09T08:11:35Z</time>
      </trkpt>
      <trkpt lat="46.018" lon="4.40913">
        <ele>663.2</ele>
        <time>2025-09-09T08:11:36Z</time>
      </trkpt>
      <trkpt lat="46.01801" lon="4.40913">
        <ele>663.2</ele>
        <time>2025-09-09T08:11:37Z</time>
      </trkpt>
      <trkpt lat="46.01801" lon="4.40914">
        <ele>663.2</ele>
        <time>2025-09-09T08:11:38Z</time>
      </trkpt>
      <trkpt lat="46.01801" lon="4.40915">
        <ele>663.2</ele>
        <time>2025-09-09T08:11:39Z</time>
      </trkpt>
      <trkpt lat="46.018" lon="4.40916">
        <ele>663.4</ele>
        <time>2025-09-09T08:11:40Z</time>
      </trkpt>
      <trkpt lat="46.018" lon="4.40918">
        <ele>663.4</ele>
        <time>2025-09-09T08:11:41Z</time>
      </trkpt>
      <trkpt lat="46.01801" lon="4.40919">
        <ele>663.6</ele>
        <time>2025-09-09T08:11:42Z</time>
      </trkpt>
      <trkpt lat="46.01801" lon="4.40919">
        <ele>664</ele>
        <time>2025-09-09T08:11:43Z</time>
      </trkpt>
      <trkpt lat="46.01801" lon="4.4092">
        <ele>664</ele>
        <time>2025-09-09T08:11:44Z</time>
      </trkpt>
      <trkpt lat="46.01801" lon="4.40921">
        <ele>664.4</ele>
        <time>2025-09-09T08:11:45Z</time>
      </trkpt>
      <trkpt lat="46.01801" lon="4.40922">
        <ele>664.6</ele>
        <time>2025-09-09T08:11:46Z</time>
      </trkpt>
      <trkpt lat="46.018" lon="4.40923">
        <ele>665</ele>
        <time>2025-09-09T08:11:47Z</time>
      </trkpt>
      <trkpt lat="46.01801" lon="4.40925">
        <ele>665</ele>
        <time>2025-09-09T08:11:48Z</time>
      </trkpt>
      <trkpt lat="46.01801" lon="4.40926">
        <ele>665.2</ele>
        <time>2025-09-09T08:11:49Z</time>
      </trkpt>
      <trkpt lat="46.01801" lon="4.40927">
        <ele>665.4</ele>
        <time>2025-09-09T08:11:50Z</time>
      </trkpt>
      <trkpt lat="46.01801" lon="4.40928">
        <ele>665.4</ele>
        <time>2025-09-09T08:11:51Z</time>
      </trkpt>
      <trkpt lat="46.01801" lon="4.40929">
        <ele>665.8</ele>
        <time>2025-09-09T08:11:52Z</time>
      </trkpt>
      <trkpt lat="46.01801" lon="4.40931">
        <ele>665.8</ele>
        <time>2025-09-09T08:11:53Z</time>
      </trkpt>
      <trkpt lat="46.01802" lon="4.40932">
        <ele>666.2</ele>
        <time>2025-09-09T08:11:54Z</time>
      </trkpt>
      <trkpt lat="46.01802" lon="4.40934">
        <ele>666.2</ele>
        <time>2025-09-09T08:11:55Z</time>
      </trkpt>
      <trkpt lat="46.01802" lon="4.40935">
        <ele>666.4</ele>
        <time>2025-09-09T08:11:56Z</time>
      </trkpt>
      <trkpt lat="46.01803" lon="4.40936">
        <ele>666.4</ele>
        <time>2025-09-09T08:11:57Z</time>
      </trkpt>
      <trkpt lat="46.01803" lon="4.40938">
        <ele>666.4</ele>
        <time>2025-09-09T08:11:58Z</time>
      </trkpt>
      <trkpt lat="46.01803" lon="4.40939">
        <ele>666.8</ele>
        <time>2025-09-09T08:11:59Z</time>
      </trkpt>
      <trkpt lat="46.01804" lon="4.40941">
        <ele>666.8</ele>
        <time>2025-09-09T08:12:00Z</time>
      </trkpt>
      <trkpt lat="46.01803" lon="4.40942">
        <ele>667</ele>
        <time>2025-09-09T08:12:01Z</time>
      </trkpt>
      <trkpt lat="46.01804" lon="4.40942">
        <ele>667</ele>
        <time>2025-09-09T08:12:02Z</time>
      </trkpt>
      <trkpt lat="46.01803" lon="4.40943">
        <ele>667.4</ele>
        <time>2025-09-09T08:12:03Z</time>
      </trkpt>
      <trkpt lat="46.01803" lon="4.40944">
        <ele>667.6</ele>
        <time>2025-09-09T08:12:04Z</time>
      </trkpt>
      <trkpt lat="46.01803" lon="4.40946">
        <ele>668</ele>
        <time>2025-09-09T08:12:05Z</time>
      </trkpt>
      <trkpt lat="46.01804" lon="4.40947">
        <ele>668</ele>
        <time>2025-09-09T08:12:06Z</time>
      </trkpt>
      <trkpt lat="46.01804" lon="4.40949">
        <ele>668.2</ele>
        <time>2025-09-09T08:12:07Z</time>
      </trkpt>
      <trkpt lat="46.01804" lon="4.4095">
        <ele>668.4</ele>
        <time>2025-09-09T08:12:08Z</time>
      </trkpt>
      <trkpt lat="46.01803" lon="4.4095">
        <ele>668.4</ele>
        <time>2025-09-09T08:12:09Z</time>
      </trkpt>
      <trkpt lat="46.01803" lon="4.40952">
        <ele>668.8</ele>
        <time>2025-09-09T08:12:10Z</time>
      </trkpt>
      <trkpt lat="46.01803" lon="4.40953">
        <ele>668.8</ele>
        <time>2025-09-09T08:12:11Z</time>
      </trkpt>
      <trkpt lat="46.01803" lon="4.40954">
        <ele>669</ele>
        <time>2025-09-09T08:12:12Z</time>
      </trkpt>
      <trkpt lat="46.01802" lon="4.40955">
        <ele>669</ele>
        <time>2025-09-09T08:12:13Z</time>
      </trkpt>
      <trkpt lat="46.01803" lon="4.40956">
        <ele>669.2</ele>
        <time>2025-09-09T08:12:14Z</time>
      </trkpt>
      <trkpt lat="46.01803" lon="4.40957">
        <ele>669.2</ele>
        <time>2025-09-09T08:12:15Z</time>
      </trkpt>
      <trkpt lat="46.01803" lon="4.40958">
        <ele>669.6</ele>
        <time>2025-09-09T08:12:16Z</time>
      </trkpt>
      <trkpt lat="46.01804" lon="4.40959">
        <ele>669.6</ele>
        <time>2025-09-09T08:12:17Z</time>
      </trkpt>
      <trkpt lat="46.01804" lon="4.4096">
        <ele>669.8</ele>
        <time>2025-09-09T08:12:18Z</time>
      </trkpt>
      <trkpt lat="46.01805" lon="4.40961">
        <ele>670.2</ele>
        <time>2025-09-09T08:12:19Z</time>
      </trkpt>
      <trkpt lat="46.01805" lon="4.40962">
        <ele>670.2</ele>
        <time>2025-09-09T08:12:20Z</time>
      </trkpt>
      <trkpt lat="46.01805" lon="4.40963">
        <ele>670.2</ele>
        <time>2025-09-09T08:12:21Z</time>
      </trkpt>
      <trkpt lat="46.01805" lon="4.40964">
        <ele>670.4</ele>
        <time>2025-09-09T08:12:22Z</time>
      </trkpt>
      <trkpt lat="46.01805" lon="4.40965">
        <ele>670.4</ele>
        <time>2025-09-09T08:12:23Z</time>
      </trkpt>
      <trkpt lat="46.01805" lon="4.40966">
        <ele>671</ele>
        <time>2025-09-09T08:12:24Z</time>
      </trkpt>
      <trkpt lat="46.01805" lon="4.40966">
        <ele>671</ele>
        <time>2025-09-09T08:12:25Z</time>
      </trkpt>
      <trkpt lat="46.01805" lon="4.40967">
        <ele>671.4</ele>
        <time>2025-09-09T08:12:26Z</time>
      </trkpt>
      <trkpt lat="46.01804" lon="4.40968">
        <ele>671.8</ele>
        <time>2025-09-09T08:12:27Z</time>
      </trkpt>
      <trkpt lat="46.01804" lon="4.40969">
        <ele>671.8</ele>
        <time>2025-09-09T08:12:28Z</time>
      </trkpt>
      <trkpt lat="46.01804" lon="4.4097">
        <ele>672</ele>
        <time>2025-09-09T08:12:29Z</time>
      </trkpt>
      <trkpt lat="46.01804" lon="4.40971">
        <ele>672.4</ele>
        <time>2025-09-09T08:12:30Z</time>
      </trkpt>
      <trkpt lat="46.01804" lon="4.40972">
        <ele>672.4</ele>
        <time>2025-09-09T08:12:31Z</time>
      </trkpt>
      <trkpt lat="46.01804" lon="4.40973">
        <ele>672.6</ele>
        <time>2025-09-09T08:12:32Z</time>
      </trkpt>
      <trkpt lat="46.01804" lon="4.40975">
        <ele>672.8</ele>
        <time>2025-09-09T08:12:33Z</time>
      </trkpt>
      <trkpt lat="46.01805" lon="4.40977">
        <ele>673.2</ele>
        <time>2025-09-09T08:12:34Z</time>
      </trkpt>
      <trkpt lat="46.01806" lon="4.40978">
        <ele>673.2</ele>
        <time>2025-09-09T08:12:35Z</time>
      </trkpt>
      <trkpt lat="46.01806" lon="4.40979">
        <ele>673.4</ele>
        <time>2025-09-09T08:12:36Z</time>
      </trkpt>
      <trkpt lat="46.01806" lon="4.4098">
        <ele>673.4</ele>
        <time>2025-09-09T08:12:37Z</time>
      </trkpt>
      <trkpt lat="46.01806" lon="4.40981">
        <ele>673.4</ele>
        <time>2025-09-09T08:12:38Z</time>
      </trkpt>
      <trkpt lat="46.01806" lon="4.40982">
        <ele>673.8</ele>
        <time>2025-09-09T08:12:39Z</time>
      </trkpt>
      <trkpt lat="46.01805" lon="4.40983">
        <ele>674</ele>
        <time>2025-09-09T08:12:40Z</time>
      </trkpt>
      <trkpt lat="46.01804" lon="4.40984">
        <ele>674</ele>
        <time>2025-09-09T08:12:41Z</time>
      </trkpt>
      <trkpt lat="46.01804" lon="4.40984">
        <ele>674</ele>
        <time>2025-09-09T08:12:42Z</time>
      </trkpt>
      <trkpt lat="46.01805" lon="4.40985">
        <ele>674</ele>
        <time>2025-09-09T08:13:18Z</time>
      </trkpt>
      <trkpt lat="46.01804" lon="4.40986">
        <ele>674</ele>
        <time>2025-09-09T08:13:19Z</time>
      </trkpt>
      <trkpt lat="46.01803" lon="4.40987">
        <ele>674.2</ele>
        <time>2025-09-09T08:13:20Z</time>
      </trkpt>
      <trkpt lat="46.01802" lon="4.40989">
        <ele>674.2</ele>
        <time>2025-09-09T08:13:21Z</time>
      </trkpt>
      <trkpt lat="46.01802" lon="4.4099">
        <ele>674.4</ele>
        <time>2025-09-09T08:13:22Z</time>
      </trkpt>
      <trkpt lat="46.01802" lon="4.40991">
        <ele>674.4</ele>
        <time>2025-09-09T08:13:23Z</time>
      </trkpt>
      <trkpt lat="46.01802" lon="4.40993">
        <ele>674.4</ele>
        <time>2025-09-09T08:13:24Z</time>
      </trkpt>
      <trkpt lat="46.01801" lon="4.40995">
        <ele>674.8</ele>
        <time>2025-09-09T08:13:25Z</time>
      </trkpt>
      <trkpt lat="46.01801" lon="4.40996">
        <ele>674.8</ele>
        <time>2025-09-09T08:13:26Z</time>
      </trkpt>
      <trkpt lat="46.018" lon="4.40998">
        <ele>675</ele>
        <time>2025-09-09T08:13:27Z</time>
      </trkpt>
      <trkpt lat="46.018" lon="4.40999">
        <ele>675</ele>
        <time>2025-09-09T08:13:28Z</time>
      </trkpt>
      <trkpt lat="46.018" lon="4.41">
        <ele>675.2</ele>
        <time>2025-09-09T08:13:29Z</time>
      </trkpt>
      <trkpt lat="46.01799" lon="4.41002">
        <ele>675.2</ele>
        <time>2025-09-09T08:13:30Z</time>
      </trkpt>
      <trkpt lat="46.01799" lon="4.41003">
        <ele>675.6</ele>
        <time>2025-09-09T08:13:31Z</time>
      </trkpt>
      <trkpt lat="46.018" lon="4.41005">
        <ele>675.6</ele>
        <time>2025-09-09T08:13:32Z</time>
      </trkpt>
      <trkpt lat="46.018" lon="4.41006">
        <ele>676</ele>
        <time>2025-09-09T08:13:33Z</time>
      </trkpt>
      <trkpt lat="46.01799" lon="4.41007">
        <ele>676</ele>
        <time>2025-09-09T08:13:34Z</time>
      </trkpt>
      <trkpt lat="46.01799" lon="4.41008">
        <ele>676.2</ele>
        <time>2025-09-09T08:13:35Z</time>
      </trkpt>
      <trkpt lat="46.01799" lon="4.4101">
        <ele>676.4</ele>
        <time>2025-09-09T08:13:36Z</time>
      </trkpt>
      <trkpt lat="46.01798" lon="4.41011">
        <ele>676.8</ele>
        <time>2025-09-09T08:13:37Z</time>
      </trkpt>
      <trkpt lat="46.01798" lon="4.41013">
        <ele>676.8</ele>
        <time>2025-09-09T08:13:38Z</time>
      </trkpt>
      <trkpt lat="46.01798" lon="4.41014">
        <ele>676.8</ele>
        <time>2025-09-09T08:13:39Z</time>
      </trkpt>
      <trkpt lat="46.01798" lon="4.41015">
        <ele>677</ele>
        <time>2025-09-09T08:13:40Z</time>
      </trkpt>
      <trkpt lat="46.01798" lon="4.41017">
        <ele>677</ele>
        <time>2025-09-09T08:13:41Z</time>
      </trkpt>
      <trkpt lat="46.01798" lon="4.41018">
        <ele>677.4</ele>
        <time>2025-09-09T08:13:42Z</time>
      </trkpt>
      <trkpt lat="46.01797" lon="4.4102">
        <ele>677.6</ele>
        <time>2025-09-09T08:13:43Z</time>
      </trkpt>
      <trkpt lat="46.01797" lon="4.41021">
        <ele>677.8</ele>
        <time>2025-09-09T08:13:44Z</time>
      </trkpt>
      <trkpt lat="46.01797" lon="4.41022">
        <ele>678</ele>
        <time>2025-09-09T08:13:45Z</time>
      </trkpt>
      <trkpt lat="46.01797" lon="4.41024">
        <ele>678</ele>
        <time>2025-09-09T08:13:46Z</time>
      </trkpt>
      <trkpt lat="46.01797" lon="4.41025">
        <ele>678</ele>
        <time>2025-09-09T08:13:47Z</time>
      </trkpt>
      <trkpt lat="46.01796" lon="4.41026">
        <ele>678.4</ele>
        <time>2025-09-09T08:13:48Z</time>
      </trkpt>
      <trkpt lat="46.01796" lon="4.41027">
        <ele>678.6</ele>
        <time>2025-09-09T08:13:49Z</time>
      </trkpt>
      <trkpt lat="46.01796" lon="4.41028">
        <ele>678.6</ele>
        <time>2025-09-09T08:13:50Z</time>
      </trkpt>
      <trkpt lat="46.01796" lon="4.41029">
        <ele>679</ele>
        <time>2025-09-09T08:13:51Z</time>
      </trkpt>
      <trkpt lat="46.01796" lon="4.41029">
        <ele>679</ele>
        <time>2025-09-09T08:13:52Z</time>
      </trkpt>
      <trkpt lat="46.01796" lon="4.4103">
        <ele>679</ele>
        <time>2025-09-09T08:13:53Z</time>
      </trkpt>
      <trkpt lat="46.01796" lon="4.41031">
        <ele>679</ele>
        <time>2025-09-09T08:13:54Z</time>
      </trkpt>
      <trkpt lat="46.01796" lon="4.41031">
        <ele>679.4</ele>
        <time>2025-09-09T08:13:55Z</time>
      </trkpt>
      <trkpt lat="46.01797" lon="4.41032">
        <ele>679.4</ele>
        <time>2025-09-09T08:13:56Z</time>
      </trkpt>
      <trkpt lat="46.01797" lon="4.41033">
        <ele>679.6</ele>
        <time>2025-09-09T08:13:57Z</time>
      </trkpt>
      <trkpt lat="46.01797" lon="4.41034">
        <ele>679.8</ele>
        <time>2025-09-09T08:13:58Z</time>
      </trkpt>
      <trkpt lat="46.01797" lon="4.41036">
        <ele>680.2</ele>
        <time>2025-09-09T08:13:59Z</time>
      </trkpt>
      <trkpt lat="46.01797" lon="4.41037">
        <ele>680.2</ele>
        <time>2025-09-09T08:14:00Z</time>
      </trkpt>
      <trkpt lat="46.01797" lon="4.41038">
        <ele>680.4</ele>
        <time>2025-09-09T08:14:01Z</time>
      </trkpt>
      <trkpt lat="46.01797" lon="4.41038">
        <ele>680.4</ele>
        <time>2025-09-09T08:14:02Z</time>
      </trkpt>
      <trkpt lat="46.01797" lon="4.41039">
        <ele>680.8</ele>
        <time>2025-09-09T08:14:03Z</time>
      </trkpt>
      <trkpt lat="46.01797" lon="4.4104">
        <ele>680.8</ele>
        <time>2025-09-09T08:14:04Z</time>
      </trkpt>
      <trkpt lat="46.01797" lon="4.4104">
        <ele>681.2</ele>
        <time>2025-09-09T08:14:05Z</time>
      </trkpt>
      <trkpt lat="46.01797" lon="4.41041">
        <ele>681.2</ele>
        <time>2025-09-09T08:14:06Z</time>
      </trkpt>
      <trkpt lat="46.01797" lon="4.41041">
        <ele>681.2</ele>
        <time>2025-09-09T08:14:07Z</time>
      </trkpt>
      <trkpt lat="46.01797" lon="4.41042">
        <ele>681.4</ele>
        <time>2025-09-09T08:14:08Z</time>
      </trkpt>
      <trkpt lat="46.01797" lon="4.41043">
        <ele>681.4</ele>
        <time>2025-09-09T08:14:09Z</time>
      </trkpt>
      <trkpt lat="46.01797" lon="4.41044">
        <ele>681.4</ele>
        <time>2025-09-09T08:14:10Z</time>
      </trkpt>
      <trkpt lat="46.01797" lon="4.41045">
        <ele>681.8</ele>
        <time>2025-09-09T08:14:11Z</time>
      </trkpt>
      <trkpt lat="46.01797" lon="4.41045">
        <ele>681.8</ele>
        <time>2025-09-09T08:14:12Z</time>
      </trkpt>
      <trkpt lat="46.01797" lon="4.41046">
        <ele>682.2</ele>
        <time>2025-09-09T08:14:13Z</time>
      </trkpt>
      <trkpt lat="46.01797" lon="4.41047">
        <ele>682.2</ele>
        <time>2025-09-09T08:14:14Z</time>
      </trkpt>
      <trkpt lat="46.01797" lon="4.41048">
        <ele>682.4</ele>
        <time>2025-09-09T08:14:15Z</time>
      </trkpt>
      <trkpt lat="46.01797" lon="4.41048">
        <ele>682.4</ele>
        <time>2025-09-09T08:14:16Z</time>
      </trkpt>
      <trkpt lat="46.01797" lon="4.41049">
        <ele>682.4</ele>
        <time>2025-09-09T08:14:17Z</time>
      </trkpt>
      <trkpt lat="46.01796" lon="4.41049">
        <ele>682.8</ele>
        <time>2025-09-09T08:14:18Z</time>
      </trkpt>
      <trkpt lat="46.01796" lon="4.41051">
        <ele>682.8</ele>
        <time>2025-09-09T08:14:19Z</time>
      </trkpt>
      <trkpt lat="46.01797" lon="4.41052">
        <ele>683.2</ele>
        <time>2025-09-09T08:14:20Z</time>
      </trkpt>
      <trkpt lat="46.01797" lon="4.41052">
        <ele>683.4</ele>
        <time>2025-09-09T08:14:21Z</time>
      </trkpt>
      <trkpt lat="46.01797" lon="4.41052">
        <ele>683.4</ele>
        <time>2025-09-09T08:14:22Z</time>
      </trkpt>
      <trkpt lat="46.01796" lon="4.41052">
        <ele>683.4</ele>
        <time>2025-09-09T08:14:23Z</time>
      </trkpt>
      <trkpt lat="46.01796" lon="4.41053">
        <ele>683.6</ele>
        <time>2025-09-09T08:14:24Z</time>
      </trkpt>
      <trkpt lat="46.01796" lon="4.41053">
        <ele>683.8</ele>
        <time>2025-09-09T08:14:25Z</time>
      </trkpt>
      <trkpt lat="46.01796" lon="4.41054">
        <ele>683.8</ele>
        <time>2025-09-09T08:14:26Z</time>
      </trkpt>
      <trkpt lat="46.01796" lon="4.41055">
        <ele>683.8</ele>
        <time>2025-09-09T08:14:27Z</time>
      </trkpt>
      <trkpt lat="46.01796" lon="4.41057">
        <ele>684.2</ele>
        <time>2025-09-09T08:14:28Z</time>
      </trkpt>
      <trkpt lat="46.01795" lon="4.41058">
        <ele>684.2</ele>
        <time>2025-09-09T08:14:29Z</time>
      </trkpt>
      <trkpt lat="46.01795" lon="4.41059">
        <ele>684.4</ele>
        <time>2025-09-09T08:14:30Z</time>
      </trkpt>
      <trkpt lat="46.01795" lon="4.4106">
        <ele>684.4</ele>
        <time>2025-09-09T08:14:31Z</time>
      </trkpt>
      <trkpt lat="46.01795" lon="4.41061">
        <ele>684.4</ele>
        <time>2025-09-09T08:14:32Z</time>
      </trkpt>
      <trkpt lat="46.01795" lon="4.41062">
        <ele>684.8</ele>
        <time>2025-09-09T08:14:33Z</time>
      </trkpt>
      <trkpt lat="46.01795" lon="4.41063">
        <ele>684.8</ele>
        <time>2025-09-09T08:14:34Z</time>
      </trkpt>
      <trkpt lat="46.01795" lon="4.41064">
        <ele>684.8</ele>
        <time>2025-09-09T08:14:35Z</time>
      </trkpt>
      <trkpt lat="46.01795" lon="4.41065">
        <ele>685.2</ele>
        <time>2025-09-09T08:14:36Z</time>
      </trkpt>
      <trkpt lat="46.01795" lon="4.41066">
        <ele>685.2</ele>
        <time>2025-09-09T08:14:37Z</time>
      </trkpt>
      <trkpt lat="46.01795" lon="4.41067">
        <ele>685.8</ele>
        <time>2025-09-09T08:14:38Z</time>
      </trkpt>
      <trkpt lat="46.01795" lon="4.41068">
        <ele>685.8</ele>
        <time>2025-09-09T08:14:39Z</time>
      </trkpt>
      <trkpt lat="46.01795" lon="4.41069">
        <ele>686</ele>
        <time>2025-09-09T08:14:40Z</time>
      </trkpt>
      <trkpt lat="46.01794" lon="4.4107">
        <ele>686.2</ele>
        <time>2025-09-09T08:14:41Z</time>
      </trkpt>
      <trkpt lat="46.01794" lon="4.41072">
        <ele>686.2</ele>
        <time>2025-09-09T08:14:42Z</time>
      </trkpt>
      <trkpt lat="46.01794" lon="4.41073">
        <ele>686.6</ele>
        <time>2025-09-09T08:14:43Z</time>
      </trkpt>
      <trkpt lat="46.01794" lon="4.41074">
        <ele>686.8</ele>
        <time>2025-09-09T08:14:44Z</time>
      </trkpt>
      <trkpt lat="46.01794" lon="4.41076">
        <ele>686.8</ele>
        <time>2025-09-09T08:14:45Z</time>
      </trkpt>
      <trkpt lat="46.01794" lon="4.41077">
        <ele>687</ele>
        <time>2025-09-09T08:14:46Z</time>
      </trkpt>
      <trkpt lat="46.01794" lon="4.41078">
        <ele>687</ele>
        <time>2025-09-09T08:14:47Z</time>
      </trkpt>
      <trkpt lat="46.01794" lon="4.4108">
        <ele>687</ele>
        <time>2025-09-09T08:14:48Z</time>
      </trkpt>
      <trkpt lat="46.01794" lon="4.41081">
        <ele>687.2</ele>
        <time>2025-09-09T08:14:49Z</time>
      </trkpt>
      <trkpt lat="46.01794" lon="4.41082">
        <ele>687.2</ele>
        <time>2025-09-09T08:14:50Z</time>
      </trkpt>
      <trkpt lat="46.01794" lon="4.41083">
        <ele>687.6</ele>
        <time>2025-09-09T08:14:51Z</time>
      </trkpt>
      <trkpt lat="46.01794" lon="4.41085">
        <ele>687.6</ele>
        <time>2025-09-09T08:14:52Z</time>
      </trkpt>
      <trkpt lat="46.01794" lon="4.41086">
        <ele>687.6</ele>
        <time>2025-09-09T08:14:53Z</time>
      </trkpt>
      <trkpt lat="46.01794" lon="4.41087">
        <ele>687.8</ele>
        <time>2025-09-09T08:14:54Z</time>
      </trkpt>
      <trkpt lat="46.01794" lon="4.41087">
        <ele>687.8</ele>
        <time>2025-09-09T08:14:55Z</time>
      </trkpt>
      <trkpt lat="46.01793" lon="4.41087">
        <ele>688.2</ele>
        <time>2025-09-09T08:14:56Z</time>
      </trkpt>
      <trkpt lat="46.01793" lon="4.41088">
        <ele>688.2</ele>
        <time>2025-09-09T08:15:05Z</time>
      </trkpt>
      <trkpt lat="46.01793" lon="4.41089">
        <ele>688.2</ele>
        <time>2025-09-09T08:15:06Z</time>
      </trkpt>
      <trkpt lat="46.01794" lon="4.4109">
        <ele>688.2</ele>
        <time>2025-09-09T08:15:07Z</time>
      </trkpt>
      <trkpt lat="46.01794" lon="4.41091">
        <ele>688.4</ele>
        <time>2025-09-09T08:15:08Z</time>
      </trkpt>
      <trkpt lat="46.01794" lon="4.4109">
        <ele>688.4</ele>
        <time>2025-09-09T08:15:09Z</time>
      </trkpt>
      <trkpt lat="46.01794" lon="4.41092">
        <ele>689</ele>
        <time>2025-09-09T08:15:16Z</time>
      </trkpt>
      <trkpt lat="46.01794" lon="4.41093">
        <ele>689</ele>
        <time>2025-09-09T08:15:17Z</time>
      </trkpt>
      <trkpt lat="46.01794" lon="4.41094">
        <ele>689</ele>
        <time>2025-09-09T08:15:18Z</time>
      </trkpt>
      <trkpt lat="46.01794" lon="4.41094">
        <ele>689</ele>
        <time>2025-09-09T08:15:19Z</time>
      </trkpt>
      <trkpt lat="46.01794" lon="4.41094">
        <ele>689</ele>
        <time>2025-09-09T08:15:20Z</time>
      </trkpt>
      <trkpt lat="46.01795" lon="4.41096">
        <ele>689</ele>
        <time>2025-09-09T08:15:21Z</time>
      </trkpt>
      <trkpt lat="46.01795" lon="4.41097">
        <ele>689</ele>
        <time>2025-09-09T08:15:22Z</time>
      </trkpt>
      <trkpt lat="46.01796" lon="4.41098">
        <ele>689.2</ele>
        <time>2025-09-09T08:15:23Z</time>
      </trkpt>
      <trkpt lat="46.01796" lon="4.41099">
        <ele>689.2</ele>
        <time>2025-09-09T08:15:24Z</time>
      </trkpt>
      <trkpt lat="46.01796" lon="4.41099">
        <ele>689.4</ele>
        <time>2025-09-09T08:15:25Z</time>
      </trkpt>
      <trkpt lat="46.01796" lon="4.41099">
        <ele>689.4</ele>
        <time>2025-09-09T08:15:26Z</time>
      </trkpt>
      <trkpt lat="46.01796" lon="4.411">
        <ele>689.4</ele>
        <time>2025-09-09T08:15:27Z</time>
      </trkpt>
      <trkpt lat="46.01797" lon="4.41101">
        <ele>689.6</ele>
        <time>2025-09-09T08:15:28Z</time>
      </trkpt>
      <trkpt lat="46.01797" lon="4.41102">
        <ele>689.6</ele>
        <time>2025-09-09T08:15:29Z</time>
      </trkpt>
      <trkpt lat="46.01797" lon="4.41103">
        <ele>690</ele>
        <time>2025-09-09T08:15:30Z</time>
      </trkpt>
      <trkpt lat="46.01797" lon="4.41104">
        <ele>690</ele>
        <time>2025-09-09T08:15:31Z</time>
      </trkpt>
      <trkpt lat="46.01797" lon="4.41105">
        <ele>690</ele>
        <time>2025-09-09T08:15:32Z</time>
      </trkpt>
      <trkpt lat="46.01797" lon="4.41106">
        <ele>690</ele>
        <time>2025-09-09T08:15:33Z</time>
      </trkpt>
      <trkpt lat="46.01796" lon="4.41107">
        <ele>690</ele>
        <time>2025-09-09T08:15:34Z</time>
      </trkpt>
      <trkpt lat="46.01796" lon="4.41107">
        <ele>690</ele>
        <time>2025-09-09T08:15:35Z</time>
      </trkpt>
      <trkpt lat="46.01796" lon="4.41108">
        <ele>690</ele>
        <time>2025-09-09T08:15:36Z</time>
      </trkpt>
      <trkpt lat="46.01795" lon="4.41107">
        <ele>690</ele>
        <time>2025-09-09T08:15:37Z</time>
      </trkpt>
      <trkpt lat="46.01795" lon="4.41106">
        <ele>689.8</ele>
        <time>2025-09-09T08:15:45Z</time>
      </trkpt>
      <trkpt lat="46.01796" lon="4.41106">
        <ele>689.8</ele>
        <time>2025-09-09T08:15:46Z</time>
      </trkpt>
      <trkpt lat="46.01798" lon="4.41106">
        <ele>689.8</ele>
        <time>2025-09-09T08:15:55Z</time>
      </trkpt>
      <trkpt lat="46.01799" lon="4.41107">
        <ele>689.8</ele>
        <time>2025-09-09T08:15:56Z</time>
      </trkpt>
      <trkpt lat="46.01799" lon="4.4111">
        <ele>689.8</ele>
        <time>2025-09-09T08:15:57Z</time>
      </trkpt>
      <trkpt lat="46.01799" lon="4.41111">
        <ele>689.8</ele>
        <time>2025-09-09T08:15:58Z</time>
      </trkpt>
      <trkpt lat="46.01799" lon="4.41112">
        <ele>689.6</ele>
        <time>2025-09-09T08:15:59Z</time>
      </trkpt>
      <trkpt lat="46.01799" lon="4.41112">
        <ele>689.6</ele>
        <time>2025-09-09T08:16:00Z</time>
      </trkpt>
      <trkpt lat="46.018" lon="4.41111">
        <ele>689.6</ele>
        <time>2025-09-09T08:16:01Z</time>
      </trkpt>
      <trkpt lat="46.018" lon="4.41111">
        <ele>689.8</ele>
        <time>2025-09-09T08:16:02Z</time>
      </trkpt>
      <trkpt lat="46.018" lon="4.41108">
        <ele>689.8</ele>
        <time>2025-09-09T08:17:31Z</time>
      </trkpt>
      <trkpt lat="46.01801" lon="4.41109">
        <ele>689.8</ele>
        <time>2025-09-09T08:17:32Z</time>
      </trkpt>
      <trkpt lat="46.01802" lon="4.41109">
        <ele>690</ele>
        <time>2025-09-09T08:17:33Z</time>
      </trkpt>
      <trkpt lat="46.01803" lon="4.4111">
        <ele>690</ele>
        <time>2025-09-09T08:17:34Z</time>
      </trkpt>
      <trkpt lat="46.01804" lon="4.4111">
        <ele>690</ele>
        <time>2025-09-09T08:17:35Z</time>
      </trkpt>
      <trkpt lat="46.01804" lon="4.4111">
        <ele>690</ele>
        <time>2025-09-09T08:17:36Z</time>
      </trkpt>
      <trkpt lat="46.01805" lon="4.41112">
        <ele>690</ele>
        <time>2025-09-09T08:17:42Z</time>
      </trkpt>
      <trkpt lat="46.01806" lon="4.41114">
        <ele>690</ele>
        <time>2025-09-09T08:17:43Z</time>
      </trkpt>
      <trkpt lat="46.01807" lon="4.41116">
        <ele>690.4</ele>
        <time>2025-09-09T08:17:44Z</time>
      </trkpt>
      <trkpt lat="46.01807" lon="4.41118">
        <ele>690.4</ele>
        <time>2025-09-09T08:17:45Z</time>
      </trkpt>
      <trkpt lat="46.01808" lon="4.4112">
        <ele>690.4</ele>
        <time>2025-09-09T08:17:46Z</time>
      </trkpt>
      <trkpt lat="46.01809" lon="4.41122">
        <ele>690.6</ele>
        <time>2025-09-09T08:17:47Z</time>
      </trkpt>
      <trkpt lat="46.0181" lon="4.41124">
        <ele>690.6</ele>
        <time>2025-09-09T08:17:48Z</time>
      </trkpt>
      <trkpt lat="46.0181" lon="4.41127">
        <ele>690.8</ele>
        <time>2025-09-09T08:17:49Z</time>
      </trkpt>
      <trkpt lat="46.0181" lon="4.41129">
        <ele>690.8</ele>
        <time>2025-09-09T08:17:50Z</time>
      </trkpt>
      <trkpt lat="46.01811" lon="4.41131">
        <ele>691.2</ele>
        <time>2025-09-09T08:17:51Z</time>
      </trkpt>
      <trkpt lat="46.01812" lon="4.41133">
        <ele>691.2</ele>
        <time>2025-09-09T08:17:52Z</time>
      </trkpt>
      <trkpt lat="46.01813" lon="4.41135">
        <ele>691.2</ele>
        <time>2025-09-09T08:17:53Z</time>
      </trkpt>
      <trkpt lat="46.01814" lon="4.41136">
        <ele>691.2</ele>
        <time>2025-09-09T08:17:54Z</time>
      </trkpt>
      <trkpt lat="46.01815" lon="4.41138">
        <ele>691.4</ele>
        <time>2025-09-09T08:17:55Z</time>
      </trkpt>
      <trkpt lat="46.01816" lon="4.4114">
        <ele>691.4</ele>
        <time>2025-09-09T08:17:56Z</time>
      </trkpt>
      <trkpt lat="46.01816" lon="4.41142">
        <ele>691.4</ele>
        <time>2025-09-09T08:17:57Z</time>
      </trkpt>
      <trkpt lat="46.01817" lon="4.41143">
        <ele>691.4</ele>
        <time>2025-09-09T08:17:58Z</time>
      </trkpt>
      <trkpt lat="46.01818" lon="4.41144">
        <ele>691.4</ele>
        <time>2025-09-09T08:17:59Z</time>
      </trkpt>
      <trkpt lat="46.0182" lon="4.41145">
        <ele>691.6</ele>
        <time>2025-09-09T08:18:00Z</time>
      </trkpt>
      <trkpt lat="46.0182" lon="4.41146">
        <ele>691.6</ele>
        <time>2025-09-09T08:18:01Z</time>
      </trkpt>
      <trkpt lat="46.0182" lon="4.41147">
        <ele>692</ele>
        <time>2025-09-09T08:18:02Z</time>
      </trkpt>
      <trkpt lat="46.0182" lon="4.41146">
        <ele>692</ele>
        <time>2025-09-09T08:18:03Z</time>
      </trkpt>
      <trkpt lat="46.0182" lon="4.41145">
        <ele>692.4</ele>
        <time>2025-09-09T08:18:12Z</time>
      </trkpt>
      <trkpt lat="46.0182" lon="4.41144">
        <ele>692.4</ele>
        <time>2025-09-09T08:18:13Z</time>
      </trkpt>
      <trkpt lat="46.0182" lon="4.41144">
        <ele>692.2</ele>
        <time>2025-09-09T08:18:14Z</time>
      </trkpt>
      <trkpt lat="46.01819" lon="4.41145">
        <ele>692.2</ele>
        <time>2025-09-09T08:18:15Z</time>
      </trkpt>
      <trkpt lat="46.01818" lon="4.41144">
        <ele>692.2</ele>
        <time>2025-09-09T08:18:16Z</time>
      </trkpt>
      <trkpt lat="46.01817" lon="4.41142">
        <ele>692.2</ele>
        <time>2025-09-09T08:18:17Z</time>
      </trkpt>
      <trkpt lat="46.01817" lon="4.41141">
        <ele>692.2</ele>
        <time>2025-09-09T08:18:18Z</time>
      </trkpt>
      <trkpt lat="46.01817" lon="4.4114">
        <ele>692.2</ele>
        <time>2025-09-09T08:18:19Z</time>
      </trkpt>
      <trkpt lat="46.01816" lon="4.41139">
        <ele>692.2</ele>
        <time>2025-09-09T08:18:20Z</time>
      </trkpt>
      <trkpt lat="46.01816" lon="4.41138">
        <ele>692</ele>
        <time>2025-09-09T08:18:21Z</time>
      </trkpt>
      <trkpt lat="46.01816" lon="4.41138">
        <ele>692</ele>
        <time>2025-09-09T08:18:22Z</time>
      </trkpt>
      <trkpt lat="46.01815" lon="4.41137">
        <ele>692</ele>
        <time>2025-09-09T08:18:23Z</time>
      </trkpt>
      <trkpt lat="46.01815" lon="4.41137">
        <ele>691.8</ele>
        <time>2025-09-09T08:18:24Z</time>
      </trkpt>
      <trkpt lat="46.01815" lon="4.41137">
        <ele>691.8</ele>
        <time>2025-09-09T08:18:25Z</time>
      </trkpt>
      <trkpt lat="46.01817" lon="4.41136">
        <ele>692</ele>
        <time>2025-09-09T08:19:40Z</time>
      </trkpt>
      <trkpt lat="46.01816" lon="4.41133">
        <ele>691.4</ele>
        <time>2025-09-09T08:19:41Z</time>
      </trkpt>
      <trkpt lat="46.01814" lon="4.41131">
        <ele>691.6</ele>
        <time>2025-09-09T08:19:42Z</time>
      </trkpt>
      <trkpt lat="46.01813" lon="4.41128">
        <ele>691.2</ele>
        <time>2025-09-09T08:19:43Z</time>
      </trkpt>
      <trkpt lat="46.01812" lon="4.41124">
        <ele>691.2</ele>
        <time>2025-09-09T08:19:44Z</time>
      </trkpt>
      <trkpt lat="46.0181" lon="4.4112">
        <ele>690.8</ele>
        <time>2025-09-09T08:19:45Z</time>
      </trkpt>
      <trkpt lat="46.01809" lon="4.41117">
        <ele>690.8</ele>
        <time>2025-09-09T08:19:46Z</time>
      </trkpt>
      <trkpt lat="46.01808" lon="4.41114">
        <ele>690.8</ele>
        <time>2025-09-09T08:19:47Z</time>
      </trkpt>
      <trkpt lat="46.01806" lon="4.41111">
        <ele>690.6</ele>
        <time>2025-09-09T08:19:48Z</time>
      </trkpt>
      <trkpt lat="46.01804" lon="4.41108">
        <ele>690.2</ele>
        <time>2025-09-09T08:19:49Z</time>
      </trkpt>
      <trkpt lat="46.01802" lon="4.41106">
        <ele>690.2</ele>
        <time>2025-09-09T08:19:50Z</time>
      </trkpt>
      <trkpt lat="46.018" lon="4.41105">
        <ele>689.8</ele>
        <time>2025-09-09T08:19:51Z</time>
      </trkpt>
      <trkpt lat="46.01797" lon="4.41105">
        <ele>689.4</ele>
        <time>2025-09-09T08:19:52Z</time>
      </trkpt>
      <trkpt lat="46.01795" lon="4.41105">
        <ele>689.4</ele>
        <time>2025-09-09T08:19:53Z</time>
      </trkpt>
      <trkpt lat="46.01792" lon="4.41106">
        <ele>689.4</ele>
        <time>2025-09-09T08:19:54Z</time>
      </trkpt>
      <trkpt lat="46.01791" lon="4.41108">
        <ele>689</ele>
        <time>2025-09-09T08:19:55Z</time>
      </trkpt>
      <trkpt lat="46.01789" lon="4.41111">
        <ele>688.8</ele>
        <time>2025-09-09T08:19:56Z</time>
      </trkpt>
      <trkpt lat="46.01789" lon="4.41114">
        <ele>688.8</ele>
        <time>2025-09-09T08:19:57Z</time>
      </trkpt>
      <trkpt lat="46.01788" lon="4.41118">
        <ele>688.8</ele>
        <time>2025-09-09T08:19:58Z</time>
      </trkpt>
      <trkpt lat="46.01789" lon="4.41123">
        <ele>688.6</ele>
        <time>2025-09-09T08:19:59Z</time>
      </trkpt>
      <trkpt lat="46.01789" lon="4.41126">
        <ele>688.6</ele>
        <time>2025-09-09T08:20:00Z</time>
      </trkpt>
      <trkpt lat="46.0179" lon="4.4113">
        <ele>688.2</ele>
        <time>2025-09-09T08:20:01Z</time>
      </trkpt>
      <trkpt lat="46.0179" lon="4.41136">
        <ele>687.8</ele>
        <time>2025-09-09T08:20:02Z</time>
      </trkpt>
      <trkpt lat="46.01791" lon="4.41142">
        <ele>687.4</ele>
        <time>2025-09-09T08:20:03Z</time>
      </trkpt>
      <trkpt lat="46.01792" lon="4.41148">
        <ele>687</ele>
        <time>2025-09-09T08:20:04Z</time>
      </trkpt>
      <trkpt lat="46.01793" lon="4.41153">
        <ele>686.6</ele>
        <time>2025-09-09T08:20:05Z</time>
      </trkpt>
      <trkpt lat="46.01794" lon="4.41158">
        <ele>686.6</ele>
        <time>2025-09-09T08:20:06Z</time>
      </trkpt>
      <trkpt lat="46.01794" lon="4.41163">
        <ele>686.6</ele>
        <time>2025-09-09T08:20:07Z</time>
      </trkpt>
      <trkpt lat="46.01795" lon="4.41168">
        <ele>686.2</ele>
        <time>2025-09-09T08:20:08Z</time>
      </trkpt>
      <trkpt lat="46.01796" lon="4.41174">
        <ele>685.8</ele>
        <time>2025-09-09T08:20:09Z</time>
      </trkpt>
      <trkpt lat="46.01797" lon="4.41181">
        <ele>685.6</ele>
        <time>2025-09-09T08:20:10Z</time>
      </trkpt>
      <trkpt lat="46.018" lon="4.41188">
        <ele>685.6</ele>
        <time>2025-09-09T08:20:11Z</time>
      </trkpt>
      <trkpt lat="46.01802" lon="4.41194">
        <ele>685.2</ele>
        <time>2025-09-09T08:20:12Z</time>
      </trkpt>
      <trkpt lat="46.01804" lon="4.41199">
        <ele>684.6</ele>
        <time>2025-09-09T08:20:13Z</time>
      </trkpt>
      <trkpt lat="46.01806" lon="4.41205">
        <ele>684.6</ele>
        <time>2025-09-09T08:20:14Z</time>
      </trkpt>
      <trkpt lat="46.01807" lon="4.4121">
        <ele>684</ele>
        <time>2025-09-09T08:20:15Z</time>
      </trkpt>
      <trkpt lat="46.0181" lon="4.41215">
        <ele>684</ele>
        <time>2025-09-09T08:20:16Z</time>
      </trkpt>
      <trkpt lat="46.0181" lon="4.41219">
        <ele>684</ele>
        <time>2025-09-09T08:20:17Z</time>
      </trkpt>
      <trkpt lat="46.01813" lon="4.41223">
        <ele>683.2</ele>
        <time>2025-09-09T08:20:18Z</time>
      </trkpt>
      <trkpt lat="46.01813" lon="4.41227">
        <ele>683.2</ele>
        <time>2025-09-09T08:20:19Z</time>
      </trkpt>
      <trkpt lat="46.01816" lon="4.4123">
        <ele>682.8</ele>
        <time>2025-09-09T08:20:20Z</time>
      </trkpt>
      <trkpt lat="46.01817" lon="4.41232">
        <ele>682.8</ele>
        <time>2025-09-09T08:20:21Z</time>
      </trkpt>
      <trkpt lat="46.01819" lon="4.41235">
        <ele>682.8</ele>
        <time>2025-09-09T08:20:22Z</time>
      </trkpt>
      <trkpt lat="46.01819" lon="4.41239">
        <ele>682.8</ele>
        <time>2025-09-09T08:20:23Z</time>
      </trkpt>
      <trkpt lat="46.01821" lon="4.41244">
        <ele>682.8</ele>
        <time>2025-09-09T08:20:24Z</time>
      </trkpt>
      <trkpt lat="46.01822" lon="4.4125">
        <ele>682.2</ele>
        <time>2025-09-09T08:20:25Z</time>
      </trkpt>
      <trkpt lat="46.01823" lon="4.41256">
        <ele>682.4</ele>
        <time>2025-09-09T08:20:26Z</time>
      </trkpt>
      <trkpt lat="46.01824" lon="4.41263">
        <ele>682.2</ele>
        <time>2025-09-09T08:20:27Z</time>
      </trkpt>
      <trkpt lat="46.01825" lon="4.41271">
        <ele>681.6</ele>
        <time>2025-09-09T08:20:28Z</time>
      </trkpt>
      <trkpt lat="46.01825" lon="4.41277">
        <ele>681.6</ele>
        <time>2025-09-09T08:20:29Z</time>
      </trkpt>
      <trkpt lat="46.01826" lon="4.41285">
        <ele>681</ele>
        <time>2025-09-09T08:20:30Z</time>
      </trkpt>
      <trkpt lat="46.01827" lon="4.41292">
        <ele>680.6</ele>
        <time>2025-09-09T08:20:31Z</time>
      </trkpt>
      <trkpt lat="46.01827" lon="4.41299">
        <ele>680.2</ele>
        <time>2025-09-09T08:20:32Z</time>
      </trkpt>
      <trkpt lat="46.01828" lon="4.41306">
        <ele>680</ele>
        <time>2025-09-09T08:20:33Z</time>
      </trkpt>
      <trkpt lat="46.01828" lon="4.41312">
        <ele>680</ele>
        <time>2025-09-09T08:20:34Z</time>
      </trkpt>
      <trkpt lat="46.01829" lon="4.41315">
        <ele>680</ele>
        <time>2025-09-09T08:20:35Z</time>
      </trkpt>
      <trkpt lat="46.01829" lon="4.41319">
        <ele>680</ele>
        <time>2025-09-09T08:20:36Z</time>
      </trkpt>
      <trkpt lat="46.01829" lon="4.41322">
        <ele>679.6</ele>
        <time>2025-09-09T08:20:37Z</time>
      </trkpt>
      <trkpt lat="46.01829" lon="4.41324">
        <ele>679.6</ele>
        <time>2025-09-09T08:20:38Z</time>
      </trkpt>
      <trkpt lat="46.0183" lon="4.41325">
        <ele>679.6</ele>
        <time>2025-09-09T08:20:39Z</time>
      </trkpt>
      <trkpt lat="46.0183" lon="4.41326">
        <ele>679.6</ele>
        <time>2025-09-09T08:20:40Z</time>
      </trkpt>
      <trkpt lat="46.0183" lon="4.41327">
        <ele>679.6</ele>
        <time>2025-09-09T08:20:41Z</time>
      </trkpt>
      <trkpt lat="46.0183" lon="4.41326">
        <ele>679.6</ele>
        <time>2025-09-09T08:20:42Z</time>
      </trkpt>
      <trkpt lat="46.01826" lon="4.41326">
        <ele>678.8</ele>
        <time>2025-09-09T08:26:08Z</time>
      </trkpt>
      <trkpt lat="46.01826" lon="4.41326">
        <ele>678.8</ele>
        <time>2025-09-09T08:26:09Z</time>
      </trkpt>
      <trkpt lat="46.01825" lon="4.41328">
        <ele>678.6</ele>
        <time>2025-09-09T08:26:10Z</time>
      </trkpt>
      <trkpt lat="46.01824" lon="4.41331">
        <ele>678.2</ele>
        <time>2025-09-09T08:26:11Z</time>
      </trkpt>
      <trkpt lat="46.01824" lon="4.41334">
        <ele>678</ele>
        <time>2025-09-09T08:26:12Z</time>
      </trkpt>
      <trkpt lat="46.01825" lon="4.41337">
        <ele>678</ele>
        <time>2025-09-09T08:26:13Z</time>
      </trkpt>
      <trkpt lat="46.01826" lon="4.41341">
        <ele>678</ele>
        <time>2025-09-09T08:26:14Z</time>
      </trkpt>
      <trkpt lat="46.01826" lon="4.41345">
        <ele>677.6</ele>
        <time>2025-09-09T08:26:15Z</time>
      </trkpt>
      <trkpt lat="46.01827" lon="4.4135">
        <ele>677.6</ele>
        <time>2025-09-09T08:26:16Z</time>
      </trkpt>
      <trkpt lat="46.01827" lon="4.41354">
        <ele>677.6</ele>
        <time>2025-09-09T08:26:17Z</time>
      </trkpt>
      <trkpt lat="46.01827" lon="4.41356">
        <ele>677.2</ele>
        <time>2025-09-09T08:26:18Z</time>
      </trkpt>
      <trkpt lat="46.01828" lon="4.41358">
        <ele>677</ele>
        <time>2025-09-09T08:26:19Z</time>
      </trkpt>
      <trkpt lat="46.01828" lon="4.41359">
        <ele>677</ele>
        <time>2025-09-09T08:26:20Z</time>
      </trkpt>
      <trkpt lat="46.01828" lon="4.41359">
        <ele>676.8</ele>
        <time>2025-09-09T08:26:21Z</time>
      </trkpt>
      <trkpt lat="46.01831" lon="4.4136">
        <ele>676.6</ele>
        <time>2025-09-09T08:26:41Z</time>
      </trkpt>
      <trkpt lat="46.01831" lon="4.41362">
        <ele>676.6</ele>
        <time>2025-09-09T08:26:42Z</time>
      </trkpt>
      <trkpt lat="46.01832" lon="4.41364">
        <ele>676.8</ele>
        <time>2025-09-09T08:26:43Z</time>
      </trkpt>
      <trkpt lat="46.01832" lon="4.41366">
        <ele>676.2</ele>
        <time>2025-09-09T08:26:44Z</time>
      </trkpt>
      <trkpt lat="46.01832" lon="4.41369">
        <ele>676.2</ele>
        <time>2025-09-09T08:26:45Z</time>
      </trkpt>
      <trkpt lat="46.01833" lon="4.41372">
        <ele>675.4</ele>
        <time>2025-09-09T08:26:46Z</time>
      </trkpt>
      <trkpt lat="46.01833" lon="4.41376">
        <ele>675.2</ele>
        <time>2025-09-09T08:26:47Z</time>
      </trkpt>
      <trkpt lat="46.01833" lon="4.41379">
        <ele>674.8</ele>
        <time>2025-09-09T08:26:48Z</time>
      </trkpt>
      <trkpt lat="46.01833" lon="4.41383">
        <ele>674.4</ele>
        <time>2025-09-09T08:26:49Z</time>
      </trkpt>
      <trkpt lat="46.01833" lon="4.41387">
        <ele>674.4</ele>
        <time>2025-09-09T08:26:50Z</time>
      </trkpt>
      <trkpt lat="46.01834" lon="4.41391">
        <ele>674.4</ele>
        <time>2025-09-09T08:26:51Z</time>
      </trkpt>
      <trkpt lat="46.01834" lon="4.41396">
        <ele>674.8</ele>
        <time>2025-09-09T08:26:52Z</time>
      </trkpt>
      <trkpt lat="46.01835" lon="4.414">
        <ele>674.4</ele>
        <time>2025-09-09T08:26:53Z</time>
      </trkpt>
      <trkpt lat="46.01835" lon="4.41405">
        <ele>674</ele>
        <time>2025-09-09T08:26:54Z</time>
      </trkpt>
      <trkpt lat="46.01836" lon="4.4141">
        <ele>674</ele>
        <time>2025-09-09T08:26:55Z</time>
      </trkpt>
      <trkpt lat="46.01836" lon="4.41415">
        <ele>673</ele>
        <time>2025-09-09T08:26:56Z</time>
      </trkpt>
      <trkpt lat="46.01836" lon="4.41421">
        <ele>673</ele>
        <time>2025-09-09T08:26:57Z</time>
      </trkpt>
      <trkpt lat="46.01836" lon="4.41426">
        <ele>673</ele>
        <time>2025-09-09T08:26:58Z</time>
      </trkpt>
      <trkpt lat="46.01837" lon="4.41432">
        <ele>672.4</ele>
        <time>2025-09-09T08:26:59Z</time>
      </trkpt>
      <trkpt lat="46.01837" lon="4.41438">
        <ele>672.4</ele>
        <time>2025-09-09T08:27:00Z</time>
      </trkpt>
      <trkpt lat="46.01837" lon="4.41444">
        <ele>672</ele>
        <time>2025-09-09T08:27:01Z</time>
      </trkpt>
      <trkpt lat="46.01837" lon="4.41449">
        <ele>671.6</ele>
        <time>2025-09-09T08:27:02Z</time>
      </trkpt>
      <trkpt lat="46.01837" lon="4.41455">
        <ele>671.2</ele>
        <time>2025-09-09T08:27:03Z</time>
      </trkpt>
      <trkpt lat="46.01837" lon="4.41461">
        <ele>671.2</ele>
        <time>2025-09-09T08:27:04Z</time>
      </trkpt>
      <trkpt lat="46.01838" lon="4.41466">
        <ele>671.2</ele>
        <time>2025-09-09T08:27:05Z</time>
      </trkpt>
      <trkpt lat="46.01838" lon="4.41471">
        <ele>670.8</ele>
        <time>2025-09-09T08:27:06Z</time>
      </trkpt>
      <trkpt lat="46.01838" lon="4.41476">
        <ele>670.4</ele>
        <time>2025-09-09T08:27:07Z</time>
      </trkpt>
      <trkpt lat="46.01839" lon="4.41482">
        <ele>669.8</ele>
        <time>2025-09-09T08:27:08Z</time>
      </trkpt>
      <trkpt lat="46.01839" lon="4.41487">
        <ele>669.4</ele>
        <time>2025-09-09T08:27:09Z</time>
      </trkpt>
      <trkpt lat="46.01839" lon="4.41492">
        <ele>669.4</ele>
        <time>2025-09-09T08:27:10Z</time>
      </trkpt>
      <trkpt lat="46.01838" lon="4.41498">
        <ele>669</ele>
        <time>2025-09-09T08:27:11Z</time>
      </trkpt>
      <trkpt lat="46.01838" lon="4.41503">
        <ele>668.8</ele>
        <time>2025-09-09T08:27:12Z</time>
      </trkpt>
      <trkpt lat="46.01837" lon="4.41509">
        <ele>668.8</ele>
        <time>2025-09-09T08:27:13Z</time>
      </trkpt>
      <trkpt lat="46.01836" lon="4.41514">
        <ele>668.4</ele>
        <time>2025-09-09T08:27:14Z</time>
      </trkpt>
      <trkpt lat="46.01835" lon="4.41519">
        <ele>668.4</ele>
        <time>2025-09-09T08:27:15Z</time>
      </trkpt>
      <trkpt lat="46.01834" lon="4.41523">
        <ele>668.4</ele>
        <time>2025-09-09T08:27:16Z</time>
      </trkpt>
      <trkpt lat="46.01833" lon="4.41528">
        <ele>668.2</ele>
        <time>2025-09-09T08:27:17Z</time>
      </trkpt>
      <trkpt lat="46.0183" lon="4.41533">
        <ele>668.2</ele>
        <time>2025-09-09T08:27:18Z</time>
      </trkpt>
      <trkpt lat="46.01828" lon="4.41537">
        <ele>668.2</ele>
        <time>2025-09-09T08:27:19Z</time>
      </trkpt>
      <trkpt lat="46.01825" lon="4.41541">
        <ele>667.6</ele>
        <time>2025-09-09T08:27:20Z</time>
      </trkpt>
      <trkpt lat="46.01822" lon="4.41546">
        <ele>667.2</ele>
        <time>2025-09-09T08:27:21Z</time>
      </trkpt>
      <trkpt lat="46.01821" lon="4.41549">
        <ele>666</ele>
        <time>2025-09-09T08:27:22Z</time>
      </trkpt>
      <trkpt lat="46.0182" lon="4.4155">
        <ele>665.8</ele>
        <time>2025-09-09T08:27:23Z</time>
      </trkpt>
      <trkpt lat="46.01819" lon="4.41551">
        <ele>666.4</ele>
        <time>2025-09-09T08:27:24Z</time>
      </trkpt>
      <trkpt lat="46.01818" lon="4.41554">
        <ele>666.4</ele>
        <time>2025-09-09T08:27:25Z</time>
      </trkpt>
      <trkpt lat="46.01817" lon="4.41556">
        <ele>666.4</ele>
        <time>2025-09-09T08:27:26Z</time>
      </trkpt>
      <trkpt lat="46.01816" lon="4.41558">
        <ele>666.4</ele>
        <time>2025-09-09T08:27:27Z</time>
      </trkpt>
      <trkpt lat="46.01814" lon="4.4156">
        <ele>666</ele>
        <time>2025-09-09T08:27:28Z</time>
      </trkpt>
      <trkpt lat="46.01813" lon="4.41561">
        <ele>666</ele>
        <time>2025-09-09T08:27:29Z</time>
      </trkpt>
      <trkpt lat="46.0181" lon="4.41562">
        <ele>666</ele>
        <time>2025-09-09T08:27:30Z</time>
      </trkpt>
      <trkpt lat="46.01808" lon="4.41564">
        <ele>666</ele>
        <time>2025-09-09T08:27:31Z</time>
      </trkpt>
      <trkpt lat="46.01804" lon="4.41566">
        <ele>666</ele>
        <time>2025-09-09T08:27:32Z</time>
      </trkpt>
      <trkpt lat="46.01801" lon="4.41568">
        <ele>666</ele>
        <time>2025-09-09T08:27:33Z</time>
      </trkpt>
      <trkpt lat="46.01798" lon="4.4157">
        <ele>666</ele>
        <time>2025-09-09T08:27:34Z</time>
      </trkpt>
      <trkpt lat="46.01795" lon="4.41571">
        <ele>666</ele>
        <time>2025-09-09T08:27:35Z</time>
      </trkpt>
      <trkpt lat="46.01792" lon="4.41573">
        <ele>665.8</ele>
        <time>2025-09-09T08:27:36Z</time>
      </trkpt>
      <trkpt lat="46.01789" lon="4.41574">
        <ele>665.8</ele>
        <time>2025-09-09T08:27:37Z</time>
      </trkpt>
      <trkpt lat="46.01786" lon="4.41575">
        <ele>665.4</ele>
        <time>2025-09-09T08:27:38Z</time>
      </trkpt>
      <trkpt lat="46.01783" lon="4.41575">
        <ele>665.4</ele>
        <time>2025-09-09T08:27:39Z</time>
      </trkpt>
      <trkpt lat="46.01781" lon="4.41575">
        <ele>665.4</ele>
        <time>2025-09-09T08:27:40Z</time>
      </trkpt>
      <trkpt lat="46.01779" lon="4.41575">
        <ele>665.4</ele>
        <time>2025-09-09T08:27:41Z</time>
      </trkpt>
      <trkpt lat="46.01777" lon="4.41576">
        <ele>665.4</ele>
        <time>2025-09-09T08:27:42Z</time>
      </trkpt>
      <trkpt lat="46.01775" lon="4.41576">
        <ele>665.8</ele>
        <time>2025-09-09T08:27:43Z</time>
      </trkpt>
      <trkpt lat="46.01773" lon="4.41576">
        <ele>665.8</ele>
        <time>2025-09-09T08:27:44Z</time>
      </trkpt>
      <trkpt lat="46.01771" lon="4.41577">
        <ele>665.8</ele>
        <time>2025-09-09T08:27:45Z</time>
      </trkpt>
      <trkpt lat="46.0177" lon="4.41577">
        <ele>665.8</ele>
        <time>2025-09-09T08:27:46Z</time>
      </trkpt>
      <trkpt lat="46.01768" lon="4.41577">
        <ele>665.8</ele>
        <time>2025-09-09T08:27:47Z</time>
      </trkpt>
      <trkpt lat="46.01767" lon="4.41577">
        <ele>665.8</ele>
        <time>2025-09-09T08:27:48Z</time>
      </trkpt>
      <trkpt lat="46.01765" lon="4.41576">
        <ele>665.8</ele>
        <time>2025-09-09T08:27:49Z</time>
      </trkpt>
      <trkpt lat="46.01764" lon="4.41576">
        <ele>665.8</ele>
        <time>2025-09-09T08:27:50Z</time>
      </trkpt>
      <trkpt lat="46.01762" lon="4.41576">
        <ele>665.8</ele>
        <time>2025-09-09T08:27:51Z</time>
      </trkpt>
      <trkpt lat="46.01761" lon="4.41576">
        <ele>665.8</ele>
        <time>2025-09-09T08:27:52Z</time>
      </trkpt>
      <trkpt lat="46.0176" lon="4.41576">
        <ele>666</ele>
        <time>2025-09-09T08:27:53Z</time>
      </trkpt>
      <trkpt lat="46.01757" lon="4.41575">
        <ele>665.8</ele>
        <time>2025-09-09T08:27:54Z</time>
      </trkpt>
      <trkpt lat="46.01756" lon="4.41575">
        <ele>665.8</ele>
        <time>2025-09-09T08:27:55Z</time>
      </trkpt>
      <trkpt lat="46.01754" lon="4.41575">
        <ele>665.6</ele>
        <time>2025-09-09T08:27:56Z</time>
      </trkpt>
      <trkpt lat="46.01753" lon="4.41574">
        <ele>665.6</ele>
        <time>2025-09-09T08:27:57Z</time>
      </trkpt>
      <trkpt lat="46.01752" lon="4.41573">
        <ele>665.6</ele>
        <time>2025-09-09T08:27:58Z</time>
      </trkpt>
      <trkpt lat="46.01752" lon="4.41573">
        <ele>665.6</ele>
        <time>2025-09-09T08:27:59Z</time>
      </trkpt>
      <trkpt lat="46.01749" lon="4.41572">
        <ele>665.6</ele>
        <time>2025-09-09T08:28:03Z</time>
      </trkpt>
      <trkpt lat="46.01747" lon="4.41572">
        <ele>665.6</ele>
        <time>2025-09-09T08:28:04Z</time>
      </trkpt>
      <trkpt lat="46.01744" lon="4.41574">
        <ele>665.6</ele>
        <time>2025-09-09T08:28:05Z</time>
      </trkpt>
      <trkpt lat="46.01742" lon="4.41576">
        <ele>665.6</ele>
        <time>2025-09-09T08:28:06Z</time>
      </trkpt>
      <trkpt lat="46.0174" lon="4.41577">
        <ele>665.6</ele>
        <time>2025-09-09T08:28:07Z</time>
      </trkpt>
      <trkpt lat="46.01738" lon="4.41577">
        <ele>665.6</ele>
        <time>2025-09-09T08:28:08Z</time>
      </trkpt>
      <trkpt lat="46.01736" lon="4.41576">
        <ele>665.6</ele>
        <time>2025-09-09T08:28:09Z</time>
      </trkpt>
      <trkpt lat="46.01734" lon="4.41575">
        <ele>665.6</ele>
        <time>2025-09-09T08:28:10Z</time>
      </trkpt>
      <trkpt lat="46.01731" lon="4.41575">
        <ele>665.6</ele>
        <time>2025-09-09T08:28:11Z</time>
      </trkpt>
      <trkpt lat="46.01728" lon="4.41575">
        <ele>665.6</ele>
        <time>2025-09-09T08:28:12Z</time>
      </trkpt>
      <trkpt lat="46.01718" lon="4.4157">
        <ele>665.6</ele>
        <time>2025-09-09T08:28:13Z</time>
      </trkpt>
      <trkpt lat="46.01715" lon="4.41567">
        <ele>665.6</ele>
        <time>2025-09-09T08:28:14Z</time>
      </trkpt>
      <trkpt lat="46.01711" lon="4.41566">
        <ele>665.2</ele>
        <time>2025-09-09T08:28:15Z</time>
      </trkpt>
      <trkpt lat="46.01706" lon="4.41565">
        <ele>665.2</ele>
        <time>2025-09-09T08:28:16Z</time>
      </trkpt>
      <trkpt lat="46.01702" lon="4.41563">
        <ele>665.2</ele>
        <time>2025-09-09T08:28:17Z</time>
      </trkpt>
      <trkpt lat="46.01698" lon="4.41564">
        <ele>665.2</ele>
        <time>2025-09-09T08:28:18Z</time>
      </trkpt>
      <trkpt lat="46.01694" lon="4.41564">
        <ele>665.2</ele>
        <time>2025-09-09T08:28:19Z</time>
      </trkpt>
      <trkpt lat="46.01691" lon="4.41564">
        <ele>665.2</ele>
        <time>2025-09-09T08:28:20Z</time>
      </trkpt>
      <trkpt lat="46.01687" lon="4.41564">
        <ele>665</ele>
        <time>2025-09-09T08:28:21Z</time>
      </trkpt>
      <trkpt lat="46.01683" lon="4.41564">
        <ele>665</ele>
        <time>2025-09-09T08:28:22Z</time>
      </trkpt>
      <trkpt lat="46.0168" lon="4.41564">
        <ele>665</ele>
        <time>2025-09-09T08:28:23Z</time>
      </trkpt>
      <trkpt lat="46.01675" lon="4.41565">
        <ele>664.6</ele>
        <time>2025-09-09T08:28:24Z</time>
      </trkpt>
      <trkpt lat="46.01671" lon="4.41565">
        <ele>664.6</ele>
        <time>2025-09-09T08:28:25Z</time>
      </trkpt>
      <trkpt lat="46.01668" lon="4.41565">
        <ele>664.6</ele>
        <time>2025-09-09T08:28:26Z</time>
      </trkpt>
      <trkpt lat="46.01665" lon="4.41565">
        <ele>664.6</ele>
        <time>2025-09-09T08:28:27Z</time>
      </trkpt>
      <trkpt lat="46.01661" lon="4.41565">
        <ele>664.4</ele>
        <time>2025-09-09T08:28:28Z</time>
      </trkpt>
      <trkpt lat="46.01658" lon="4.41566">
        <ele>664.4</ele>
        <time>2025-09-09T08:28:29Z</time>
      </trkpt>
      <trkpt lat="46.01654" lon="4.41567">
        <ele>663.8</ele>
        <time>2025-09-09T08:28:30Z</time>
      </trkpt>
      <trkpt lat="46.01651" lon="4.41567">
        <ele>663.8</ele>
        <time>2025-09-09T08:28:31Z</time>
      </trkpt>
      <trkpt lat="46.01647" lon="4.41568">
        <ele>663.8</ele>
        <time>2025-09-09T08:28:32Z</time>
      </trkpt>
      <trkpt lat="46.01644" lon="4.41568">
        <ele>663.8</ele>
        <time>2025-09-09T08:28:33Z</time>
      </trkpt>
      <trkpt lat="46.0164" lon="4.41568">
        <ele>663.8</ele>
        <time>2025-09-09T08:28:34Z</time>
      </trkpt>
      <trkpt lat="46.01637" lon="4.41568">
        <ele>663.2</ele>
        <time>2025-09-09T08:28:35Z</time>
      </trkpt>
      <trkpt lat="46.01633" lon="4.41569">
        <ele>662.6</ele>
        <time>2025-09-09T08:28:36Z</time>
      </trkpt>
      <trkpt lat="46.0163" lon="4.41569">
        <ele>662.6</ele>
        <time>2025-09-09T08:28:37Z</time>
      </trkpt>
      <trkpt lat="46.01628" lon="4.4157">
        <ele>662.2</ele>
        <time>2025-09-09T08:28:38Z</time>
      </trkpt>
      <trkpt lat="46.01624" lon="4.4157">
        <ele>662</ele>
        <time>2025-09-09T08:28:39Z</time>
      </trkpt>
      <trkpt lat="46.01621" lon="4.41571">
        <ele>662</ele>
        <time>2025-09-09T08:28:40Z</time>
      </trkpt>
      <trkpt lat="46.01618" lon="4.41571">
        <ele>661.6</ele>
        <time>2025-09-09T08:28:41Z</time>
      </trkpt>
      <trkpt lat="46.01615" lon="4.41571">
        <ele>661.4</ele>
        <time>2025-09-09T08:28:42Z</time>
      </trkpt>
      <trkpt lat="46.01612" lon="4.41571">
        <ele>661.4</ele>
        <time>2025-09-09T08:28:43Z</time>
      </trkpt>
      <trkpt lat="46.01608" lon="4.41571">
        <ele>661</ele>
        <time>2025-09-09T08:28:44Z</time>
      </trkpt>
      <trkpt lat="46.01605" lon="4.41571">
        <ele>660.6</ele>
        <time>2025-09-09T08:28:45Z</time>
      </trkpt>
      <trkpt lat="46.01603" lon="4.41571">
        <ele>660.6</ele>
        <time>2025-09-09T08:28:46Z</time>
      </trkpt>
      <trkpt lat="46.016" lon="4.41571">
        <ele>659.8</ele>
        <time>2025-09-09T08:28:47Z</time>
      </trkpt>
      <trkpt lat="46.01598" lon="4.41572">
        <ele>659.4</ele>
        <time>2025-09-09T08:28:48Z</time>
      </trkpt>
      <trkpt lat="46.01595" lon="4.41573">
        <ele>659.4</ele>
        <time>2025-09-09T08:28:49Z</time>
      </trkpt>
      <trkpt lat="46.01593" lon="4.41573">
        <ele>659.2</ele>
        <time>2025-09-09T08:28:50Z</time>
      </trkpt>
      <trkpt lat="46.0159" lon="4.41575">
        <ele>659.2</ele>
        <time>2025-09-09T08:28:51Z</time>
      </trkpt>
      <trkpt lat="46.01586" lon="4.41576">
        <ele>658.8</ele>
        <time>2025-09-09T08:28:52Z</time>
      </trkpt>
      <trkpt lat="46.01583" lon="4.41576">
        <ele>658.2</ele>
        <time>2025-09-09T08:28:53Z</time>
      </trkpt>
      <trkpt lat="46.01579" lon="4.41577">
        <ele>657.8</ele>
        <time>2025-09-09T08:28:54Z</time>
      </trkpt>
      <trkpt lat="46.01575" lon="4.41577">
        <ele>657.4</ele>
        <time>2025-09-09T08:28:55Z</time>
      </trkpt>
      <trkpt lat="46.01572" lon="4.41577">
        <ele>656.8</ele>
        <time>2025-09-09T08:28:56Z</time>
      </trkpt>
      <trkpt lat="46.01568" lon="4.41578">
        <ele>656.4</ele>
        <time>2025-09-09T08:28:57Z</time>
      </trkpt>
      <trkpt lat="46.01565" lon="4.41578">
        <ele>656</ele>
        <time>2025-09-09T08:28:58Z</time>
      </trkpt>
      <trkpt lat="46.01562" lon="4.41579">
        <ele>655.4</ele>
        <time>2025-09-09T08:28:59Z</time>
      </trkpt>
      <trkpt lat="46.0156" lon="4.41581">
        <ele>654.8</ele>
        <time>2025-09-09T08:29:00Z</time>
      </trkpt>
      <trkpt lat="46.01558" lon="4.41583">
        <ele>654.2</ele>
        <time>2025-09-09T08:29:01Z</time>
      </trkpt>
      <trkpt lat="46.01555" lon="4.41586">
        <ele>653.8</ele>
        <time>2025-09-09T08:29:02Z</time>
      </trkpt>
      <trkpt lat="46.01552" lon="4.41589">
        <ele>653</ele>
        <time>2025-09-09T08:29:03Z</time>
      </trkpt>
      <trkpt lat="46.01549" lon="4.41593">
        <ele>652.8</ele>
        <time>2025-09-09T08:29:04Z</time>
      </trkpt>
      <trkpt lat="46.01546" lon="4.41601">
        <ele>652.2</ele>
        <time>2025-09-09T08:29:05Z</time>
      </trkpt>
      <trkpt lat="46.01544" lon="4.41606">
        <ele>651.6</ele>
        <time>2025-09-09T08:29:06Z</time>
      </trkpt>
      <trkpt lat="46.01542" lon="4.41612">
        <ele>651</ele>
        <time>2025-09-09T08:29:07Z</time>
      </trkpt>
      <trkpt lat="46.01541" lon="4.41618">
        <ele>650.2</ele>
        <time>2025-09-09T08:29:08Z</time>
      </trkpt>
      <trkpt lat="46.0154" lon="4.41624">
        <ele>649.6</ele>
        <time>2025-09-09T08:29:09Z</time>
      </trkpt>
      <trkpt lat="46.01539" lon="4.4163">
        <ele>648.8</ele>
        <time>2025-09-09T08:29:10Z</time>
      </trkpt>
      <trkpt lat="46.01539" lon="4.41636">
        <ele>648.2</ele>
        <time>2025-09-09T08:29:11Z</time>
      </trkpt>
      <trkpt lat="46.01539" lon="4.41643">
        <ele>647.8</ele>
        <time>2025-09-09T08:29:12Z</time>
      </trkpt>
      <trkpt lat="46.01539" lon="4.41649">
        <ele>646.8</ele>
        <time>2025-09-09T08:29:13Z</time>
      </trkpt>
      <trkpt lat="46.01542" lon="4.41658">
        <ele>646.6</ele>
        <time>2025-09-09T08:29:14Z</time>
      </trkpt>
      <trkpt lat="46.01544" lon="4.41667">
        <ele>646.2</ele>
        <time>2025-09-09T08:29:15Z</time>
      </trkpt>
      <trkpt lat="46.01545" lon="4.41675">
        <ele>645.6</ele>
        <time>2025-09-09T08:29:16Z</time>
      </trkpt>
      <trkpt lat="46.01547" lon="4.41684">
        <ele>645</ele>
        <time>2025-09-09T08:29:17Z</time>
      </trkpt>
      <trkpt lat="46.0155" lon="4.41692">
        <ele>645</ele>
        <time>2025-09-09T08:29:18Z</time>
      </trkpt>
      <trkpt lat="46.01551" lon="4.41702">
        <ele>644</ele>
        <time>2025-09-09T08:29:19Z</time>
      </trkpt>
      <trkpt lat="46.01554" lon="4.41706">
        <ele>643.4</ele>
        <time>2025-09-09T08:29:20Z</time>
      </trkpt>
      <trkpt lat="46.01555" lon="4.41713">
        <ele>643</ele>
        <time>2025-09-09T08:29:21Z</time>
      </trkpt>
      <trkpt lat="46.01556" lon="4.41719">
        <ele>642.6</ele>
        <time>2025-09-09T08:29:22Z</time>
      </trkpt>
      <trkpt lat="46.01555" lon="4.41725">
        <ele>642.6</ele>
        <time>2025-09-09T08:29:23Z</time>
      </trkpt>
      <trkpt lat="46.01546" lon="4.41727">
        <ele>642.6</ele>
        <time>2025-09-09T08:29:24Z</time>
      </trkpt>
      <trkpt lat="46.01543" lon="4.41728">
        <ele>642.6</ele>
        <time>2025-09-09T08:29:25Z</time>
      </trkpt>
      <trkpt lat="46.01539" lon="4.41729">
        <ele>642.6</ele>
        <time>2025-09-09T08:29:26Z</time>
      </trkpt>
      <trkpt lat="46.01535" lon="4.4173">
        <ele>643</ele>
        <time>2025-09-09T08:29:27Z</time>
      </trkpt>
      <trkpt lat="46.01531" lon="4.4173">
        <ele>643</ele>
        <time>2025-09-09T08:29:28Z</time>
      </trkpt>
      <trkpt lat="46.01528" lon="4.4173">
        <ele>643</ele>
        <time>2025-09-09T08:29:29Z</time>
      </trkpt>
      <trkpt lat="46.01525" lon="4.41728">
        <ele>643.4</ele>
        <time>2025-09-09T08:29:30Z</time>
      </trkpt>
      <trkpt lat="46.01522" lon="4.41726">
        <ele>643.4</ele>
        <time>2025-09-09T08:29:31Z</time>
      </trkpt>
      <trkpt lat="46.01518" lon="4.41727">
        <ele>643.8</ele>
        <time>2025-09-09T08:29:32Z</time>
      </trkpt>
      <trkpt lat="46.01515" lon="4.41728">
        <ele>643.8</ele>
        <time>2025-09-09T08:29:33Z</time>
      </trkpt>
      <trkpt lat="46.01512" lon="4.41728">
        <ele>643.8</ele>
        <time>2025-09-09T08:29:34Z</time>
      </trkpt>
      <trkpt lat="46.0151" lon="4.41729">
        <ele>644.2</ele>
        <time>2025-09-09T08:29:35Z</time>
      </trkpt>
      <trkpt lat="46.01507" lon="4.41729">
        <ele>644.4</ele>
        <time>2025-09-09T08:29:36Z</time>
      </trkpt>
      <trkpt lat="46.01505" lon="4.4173">
        <ele>644.4</ele>
        <time>2025-09-09T08:29:37Z</time>
      </trkpt>
      <trkpt lat="46.01503" lon="4.4173">
        <ele>644.6</ele>
        <time>2025-09-09T08:29:38Z</time>
      </trkpt>
      <trkpt lat="46.015" lon="4.41731">
        <ele>644.8</ele>
        <time>2025-09-09T08:29:39Z</time>
      </trkpt>
      <trkpt lat="46.01499" lon="4.41732">
        <ele>644.8</ele>
        <time>2025-09-09T08:29:40Z</time>
      </trkpt>
      <trkpt lat="46.01498" lon="4.41732">
        <ele>645.2</ele>
        <time>2025-09-09T08:29:41Z</time>
      </trkpt>
      <trkpt lat="46.01498" lon="4.41732">
        <ele>645.2</ele>
        <time>2025-09-09T08:29:42Z</time>
      </trkpt>
      <trkpt lat="46.01497" lon="4.41733">
        <ele>645.4</ele>
        <time>2025-09-09T08:32:18Z</time>
      </trkpt>
      <trkpt lat="46.01495" lon="4.41733">
        <ele>645.4</ele>
        <time>2025-09-09T08:32:19Z</time>
      </trkpt>
      <trkpt lat="46.01493" lon="4.41732">
        <ele>645.4</ele>
        <time>2025-09-09T08:32:20Z</time>
      </trkpt>
      <trkpt lat="46.01492" lon="4.41731">
        <ele>645.4</ele>
        <time>2025-09-09T08:32:21Z</time>
      </trkpt>
      <trkpt lat="46.01491" lon="4.41731">
        <ele>645.4</ele>
        <time>2025-09-09T08:32:22Z</time>
      </trkpt>
      <trkpt lat="46.0149" lon="4.41732">
        <ele>645.4</ele>
        <time>2025-09-09T08:32:23Z</time>
      </trkpt>
      <trkpt lat="46.01489" lon="4.41732">
        <ele>645.6</ele>
        <time>2025-09-09T08:32:24Z</time>
      </trkpt>
      <trkpt lat="46.01488" lon="4.41732">
        <ele>645.6</ele>
        <time>2025-09-09T08:32:25Z</time>
      </trkpt>
      <trkpt lat="46.01486" lon="4.41732">
        <ele>645.8</ele>
        <time>2025-09-09T08:32:26Z</time>
      </trkpt>
      <trkpt lat="46.01484" lon="4.41732">
        <ele>645.8</ele>
        <time>2025-09-09T08:32:27Z</time>
      </trkpt>
      <trkpt lat="46.01483" lon="4.41732">
        <ele>646</ele>
        <time>2025-09-09T08:32:28Z</time>
      </trkpt>
      <trkpt lat="46.01481" lon="4.41733">
        <ele>646</ele>
        <time>2025-09-09T08:32:29Z</time>
      </trkpt>
      <trkpt lat="46.01479" lon="4.41733">
        <ele>646</ele>
        <time>2025-09-09T08:32:30Z</time>
      </trkpt>
      <trkpt lat="46.01478" lon="4.41734">
        <ele>646.4</ele>
        <time>2025-09-09T08:32:31Z</time>
      </trkpt>
      <trkpt lat="46.01476" lon="4.41734">
        <ele>646.8</ele>
        <time>2025-09-09T08:32:32Z</time>
      </trkpt>
      <trkpt lat="46.01475" lon="4.41733">
        <ele>646.8</ele>
        <time>2025-09-09T08:32:33Z</time>
      </trkpt>
      <trkpt lat="46.01472" lon="4.41732">
        <ele>646.8</ele>
        <time>2025-09-09T08:32:34Z</time>
      </trkpt>
      <trkpt lat="46.01471" lon="4.41732">
        <ele>646.8</ele>
        <time>2025-09-09T08:32:35Z</time>
      </trkpt>
      <trkpt lat="46.01469" lon="4.41732">
        <ele>646.8</ele>
        <time>2025-09-09T08:32:36Z</time>
      </trkpt>
      <trkpt lat="46.01468" lon="4.41732">
        <ele>647</ele>
        <time>2025-09-09T08:32:37Z</time>
      </trkpt>
      <trkpt lat="46.01467" lon="4.41732">
        <ele>647.4</ele>
        <time>2025-09-09T08:32:38Z</time>
      </trkpt>
      <trkpt lat="46.01466" lon="4.41732">
        <ele>647.6</ele>
        <time>2025-09-09T08:32:39Z</time>
      </trkpt>
      <trkpt lat="46.01464" lon="4.41732">
        <ele>647.6</ele>
        <time>2025-09-09T08:32:40Z</time>
      </trkpt>
      <trkpt lat="46.01462" lon="4.41732">
        <ele>647.6</ele>
        <time>2025-09-09T08:32:41Z</time>
      </trkpt>
      <trkpt lat="46.01461" lon="4.41732">
        <ele>647.8</ele>
        <time>2025-09-09T08:32:42Z</time>
      </trkpt>
      <trkpt lat="46.01459" lon="4.41732">
        <ele>647.8</ele>
        <time>2025-09-09T08:32:43Z</time>
      </trkpt>
      <trkpt lat="46.01457" lon="4.41732">
        <ele>648.2</ele>
        <time>2025-09-09T08:32:44Z</time>
      </trkpt>
      <trkpt lat="46.01456" lon="4.41731">
        <ele>648.6</ele>
        <time>2025-09-09T08:32:45Z</time>
      </trkpt>
      <trkpt lat="46.01455" lon="4.41731">
        <ele>648.6</ele>
        <time>2025-09-09T08:32:46Z</time>
      </trkpt>
      <trkpt lat="46.01454" lon="4.41732">
        <ele>648.8</ele>
        <time>2025-09-09T08:32:47Z</time>
      </trkpt>
      <trkpt lat="46.01452" lon="4.41731">
        <ele>648.8</ele>
        <time>2025-09-09T08:32:48Z</time>
      </trkpt>
      <trkpt lat="46.0145" lon="4.41731">
        <ele>648.8</ele>
        <time>2025-09-09T08:32:49Z</time>
      </trkpt>
      <trkpt lat="46.01449" lon="4.4173">
        <ele>649.6</ele>
        <time>2025-09-09T08:32:50Z</time>
      </trkpt>
      <trkpt lat="46.01448" lon="4.4173">
        <ele>649.6</ele>
        <time>2025-09-09T08:32:51Z</time>
      </trkpt>
      <trkpt lat="46.01446" lon="4.41729">
        <ele>649.6</ele>
        <time>2025-09-09T08:32:52Z</time>
      </trkpt>
      <trkpt lat="46.01444" lon="4.41729">
        <ele>649.6</ele>
        <time>2025-09-09T08:32:53Z</time>
      </trkpt>
      <trkpt lat="46.01443" lon="4.41728">
        <ele>649.6</ele>
        <time>2025-09-09T08:32:54Z</time>
      </trkpt>
      <trkpt lat="46.01441" lon="4.41728">
        <ele>650</ele>
        <time>2025-09-09T08:32:55Z</time>
      </trkpt>
      <trkpt lat="46.0144" lon="4.41727">
        <ele>650.2</ele>
        <time>2025-09-09T08:32:56Z</time>
      </trkpt>
      <trkpt lat="46.01438" lon="4.41727">
        <ele>650.4</ele>
        <time>2025-09-09T08:32:57Z</time>
      </trkpt>
      <trkpt lat="46.01436" lon="4.41727">
        <ele>650.4</ele>
        <time>2025-09-09T08:32:58Z</time>
      </trkpt>
      <trkpt lat="46.01435" lon="4.41727">
        <ele>650.4</ele>
        <time>2025-09-09T08:32:59Z</time>
      </trkpt>
      <trkpt lat="46.01434" lon="4.41727">
        <ele>650.8</ele>
        <time>2025-09-09T08:33:00Z</time>
      </trkpt>
      <trkpt lat="46.01433" lon="4.41727">
        <ele>650.8</ele>
        <time>2025-09-09T08:33:01Z</time>
      </trkpt>
      <trkpt lat="46.01433" lon="4.41727">
        <ele>651</ele>
        <time>2025-09-09T08:33:02Z</time>
      </trkpt>
      <trkpt lat="46.01431" lon="4.41727">
        <ele>651.2</ele>
        <time>2025-09-09T08:33:03Z</time>
      </trkpt>
      <trkpt lat="46.01431" lon="4.41726">
        <ele>651.2</ele>
        <time>2025-09-09T08:33:04Z</time>
      </trkpt>
      <trkpt lat="46.0143" lon="4.41726">
        <ele>651.4</ele>
        <time>2025-09-09T08:33:05Z</time>
      </trkpt>
      <trkpt lat="46.01429" lon="4.41725">
        <ele>651.4</ele>
        <time>2025-09-09T08:33:06Z</time>
      </trkpt>
      <trkpt lat="46.01427" lon="4.41724">
        <ele>651.8</ele>
        <time>2025-09-09T08:33:07Z</time>
      </trkpt>
      <trkpt lat="46.01426" lon="4.41724">
        <ele>651.8</ele>
        <time>2025-09-09T08:33:08Z</time>
      </trkpt>
      <trkpt lat="46.01425" lon="4.41724">
        <ele>652</ele>
        <time>2025-09-09T08:33:09Z</time>
      </trkpt>
      <trkpt lat="46.01424" lon="4.41724">
        <ele>652</ele>
        <time>2025-09-09T08:33:10Z</time>
      </trkpt>
      <trkpt lat="46.01422" lon="4.41723">
        <ele>652.4</ele>
        <time>2025-09-09T08:33:11Z</time>
      </trkpt>
      <trkpt lat="46.01422" lon="4.41722">
        <ele>652.4</ele>
        <time>2025-09-09T08:33:12Z</time>
      </trkpt>
      <trkpt lat="46.0142" lon="4.41722">
        <ele>652.4</ele>
        <time>2025-09-09T08:33:13Z</time>
      </trkpt>
      <trkpt lat="46.01419" lon="4.41722">
        <ele>652.4</ele>
        <time>2025-09-09T08:33:14Z</time>
      </trkpt>
      <trkpt lat="46.01418" lon="4.41722">
        <ele>653</ele>
        <time>2025-09-09T08:33:15Z</time>
      </trkpt>
      <trkpt lat="46.01417" lon="4.41722">
        <ele>653</ele>
        <time>2025-09-09T08:33:16Z</time>
      </trkpt>
      <trkpt lat="46.01417" lon="4.41722">
        <ele>653</ele>
        <time>2025-09-09T08:33:17Z</time>
      </trkpt>
      <trkpt lat="46.01417" lon="4.41722">
        <ele>653</ele>
        <time>2025-09-09T08:33:18Z</time>
      </trkpt>
      <trkpt lat="46.01417" lon="4.41722">
        <ele>653.2</ele>
        <time>2025-09-09T08:33:19Z</time>
      </trkpt>
      <trkpt lat="46.01412" lon="4.4172">
        <ele>653.6</ele>
        <time>2025-09-09T08:33:21Z</time>
      </trkpt>
      <trkpt lat="46.01411" lon="4.4172">
        <ele>653.6</ele>
        <time>2025-09-09T08:33:22Z</time>
      </trkpt>
      <trkpt lat="46.0141" lon="4.4172">
        <ele>653.8</ele>
        <time>2025-09-09T08:33:23Z</time>
      </trkpt>
      <trkpt lat="46.01408" lon="4.4172">
        <ele>653.8</ele>
        <time>2025-09-09T08:33:24Z</time>
      </trkpt>
      <trkpt lat="46.01407" lon="4.4172">
        <ele>654</ele>
        <time>2025-09-09T08:33:25Z</time>
      </trkpt>
      <trkpt lat="46.01406" lon="4.4172">
        <ele>654.4</ele>
        <time>2025-09-09T08:33:26Z</time>
      </trkpt>
      <trkpt lat="46.01405" lon="4.41719">
        <ele>654.4</ele>
        <time>2025-09-09T08:33:27Z</time>
      </trkpt>
      <trkpt lat="46.01404" lon="4.41718">
        <ele>654.8</ele>
        <time>2025-09-09T08:33:28Z</time>
      </trkpt>
      <trkpt lat="46.01403" lon="4.41718">
        <ele>654.8</ele>
        <time>2025-09-09T08:33:29Z</time>
      </trkpt>
      <trkpt lat="46.01402" lon="4.41717">
        <ele>655</ele>
        <time>2025-09-09T08:33:30Z</time>
      </trkpt>
      <trkpt lat="46.01401" lon="4.41717">
        <ele>655</ele>
        <time>2025-09-09T08:33:31Z</time>
      </trkpt>
      <trkpt lat="46.014" lon="4.41717">
        <ele>655.2</ele>
        <time>2025-09-09T08:33:32Z</time>
      </trkpt>
      <trkpt lat="46.01399" lon="4.41717">
        <ele>655.2</ele>
        <time>2025-09-09T08:33:33Z</time>
      </trkpt>
      <trkpt lat="46.01398" lon="4.41717">
        <ele>655.2</ele>
        <time>2025-09-09T08:33:34Z</time>
      </trkpt>
      <trkpt lat="46.01397" lon="4.41718">
        <ele>655.6</ele>
        <time>2025-09-09T08:33:35Z</time>
      </trkpt>
      <trkpt lat="46.01395" lon="4.41718">
        <ele>655.6</ele>
        <time>2025-09-09T08:33:36Z</time>
      </trkpt>
      <trkpt lat="46.01394" lon="4.41718">
        <ele>655.8</ele>
        <time>2025-09-09T08:33:37Z</time>
      </trkpt>
      <trkpt lat="46.01393" lon="4.41718">
        <ele>655.8</ele>
        <time>2025-09-09T08:33:38Z</time>
      </trkpt>
      <trkpt lat="46.01392" lon="4.41718">
        <ele>656.2</ele>
        <time>2025-09-09T08:33:39Z</time>
      </trkpt>
      <trkpt lat="46.01392" lon="4.41717">
        <ele>656.4</ele>
        <time>2025-09-09T08:33:40Z</time>
      </trkpt>
      <trkpt lat="46.01392" lon="4.41717">
        <ele>656.4</ele>
        <time>2025-09-09T08:33:41Z</time>
      </trkpt>
      <trkpt lat="46.01391" lon="4.41717">
        <ele>656.6</ele>
        <time>2025-09-09T08:33:42Z</time>
      </trkpt>
      <trkpt lat="46.0139" lon="4.41717">
        <ele>656.6</ele>
        <time>2025-09-09T08:33:43Z</time>
      </trkpt>
      <trkpt lat="46.01389" lon="4.41716">
        <ele>657.2</ele>
        <time>2025-09-09T08:33:44Z</time>
      </trkpt>
      <trkpt lat="46.01388" lon="4.41716">
        <ele>657.4</ele>
        <time>2025-09-09T08:33:45Z</time>
      </trkpt>
      <trkpt lat="46.01386" lon="4.41716">
        <ele>657.6</ele>
        <time>2025-09-09T08:33:46Z</time>
      </trkpt>
      <trkpt lat="46.01385" lon="4.41715">
        <ele>657.6</ele>
        <time>2025-09-09T08:33:47Z</time>
      </trkpt>
      <trkpt lat="46.01384" lon="4.41714">
        <ele>658</ele>
        <time>2025-09-09T08:33:48Z</time>
      </trkpt>
      <trkpt lat="46.01383" lon="4.41713">
        <ele>658</ele>
        <time>2025-09-09T08:33:49Z</time>
      </trkpt>
      <trkpt lat="46.01382" lon="4.41712">
        <ele>658.4</ele>
        <time>2025-09-09T08:33:50Z</time>
      </trkpt>
      <trkpt lat="46.01381" lon="4.41711">
        <ele>658.8</ele>
        <time>2025-09-09T08:33:51Z</time>
      </trkpt>
      <trkpt lat="46.01381" lon="4.41711">
        <ele>659</ele>
        <time>2025-09-09T08:33:52Z</time>
      </trkpt>
      <trkpt lat="46.0138" lon="4.41711">
        <ele>659</ele>
        <time>2025-09-09T08:33:53Z</time>
      </trkpt>
      <trkpt lat="46.01379" lon="4.4171">
        <ele>659.2</ele>
        <time>2025-09-09T08:33:54Z</time>
      </trkpt>
      <trkpt lat="46.01378" lon="4.41709">
        <ele>659.2</ele>
        <time>2025-09-09T08:33:55Z</time>
      </trkpt>
      <trkpt lat="46.01378" lon="4.41707">
        <ele>659.4</ele>
        <time>2025-09-09T08:33:56Z</time>
      </trkpt>
      <trkpt lat="46.01377" lon="4.41706">
        <ele>659.4</ele>
        <time>2025-09-09T08:33:57Z</time>
      </trkpt>
      <trkpt lat="46.01376" lon="4.41704">
        <ele>659.8</ele>
        <time>2025-09-09T08:33:58Z</time>
      </trkpt>
      <trkpt lat="46.01375" lon="4.41704">
        <ele>659.8</ele>
        <time>2025-09-09T08:33:59Z</time>
      </trkpt>
      <trkpt lat="46.01374" lon="4.41703">
        <ele>660</ele>
        <time>2025-09-09T08:34:00Z</time>
      </trkpt>
      <trkpt lat="46.01373" lon="4.41703">
        <ele>660</ele>
        <time>2025-09-09T08:34:01Z</time>
      </trkpt>
      <trkpt lat="46.01371" lon="4.41703">
        <ele>660</ele>
        <time>2025-09-09T08:34:02Z</time>
      </trkpt>
      <trkpt lat="46.0137" lon="4.41702">
        <ele>660.4</ele>
        <time>2025-09-09T08:34:03Z</time>
      </trkpt>
      <trkpt lat="46.01368" lon="4.41701">
        <ele>660.4</ele>
        <time>2025-09-09T08:34:04Z</time>
      </trkpt>
      <trkpt lat="46.01367" lon="4.41701">
        <ele>660.8</ele>
        <time>2025-09-09T08:34:05Z</time>
      </trkpt>
      <trkpt lat="46.01366" lon="4.417">
        <ele>661</ele>
        <time>2025-09-09T08:34:06Z</time>
      </trkpt>
      <trkpt lat="46.01365" lon="4.417">
        <ele>661</ele>
        <time>2025-09-09T08:34:07Z</time>
      </trkpt>
      <trkpt lat="46.01363" lon="4.41701">
        <ele>661</ele>
        <time>2025-09-09T08:34:08Z</time>
      </trkpt>
      <trkpt lat="46.01362" lon="4.41701">
        <ele>661.2</ele>
        <time>2025-09-09T08:34:09Z</time>
      </trkpt>
      <trkpt lat="46.01361" lon="4.417">
        <ele>661.6</ele>
        <time>2025-09-09T08:34:10Z</time>
      </trkpt>
      <trkpt lat="46.0136" lon="4.417">
        <ele>661.6</ele>
        <time>2025-09-09T08:34:11Z</time>
      </trkpt>
      <trkpt lat="46.01359" lon="4.417">
        <ele>661.8</ele>
        <time>2025-09-09T08:34:12Z</time>
      </trkpt>
      <trkpt lat="46.01358" lon="4.417">
        <ele>661.8</ele>
        <time>2025-09-09T08:34:13Z</time>
      </trkpt>
      <trkpt lat="46.01357" lon="4.41701">
        <ele>661.8</ele>
        <time>2025-09-09T08:34:14Z</time>
      </trkpt>
      <trkpt lat="46.01356" lon="4.41701">
        <ele>662.2</ele>
        <time>2025-09-09T08:34:15Z</time>
      </trkpt>
      <trkpt lat="46.01355" lon="4.41702">
        <ele>662.2</ele>
        <time>2025-09-09T08:34:16Z</time>
      </trkpt>
      <trkpt lat="46.01354" lon="4.41702">
        <ele>662.4</ele>
        <time>2025-09-09T08:34:17Z</time>
      </trkpt>
      <trkpt lat="46.01352" lon="4.41701">
        <ele>662.8</ele>
        <time>2025-09-09T08:34:18Z</time>
      </trkpt>
      <trkpt lat="46.01351" lon="4.41701">
        <ele>662.8</ele>
        <time>2025-09-09T08:34:19Z</time>
      </trkpt>
      <trkpt lat="46.0135" lon="4.41701">
        <ele>663</ele>
        <time>2025-09-09T08:34:20Z</time>
      </trkpt>
      <trkpt lat="46.01349" lon="4.41701">
        <ele>663</ele>
        <time>2025-09-09T08:34:21Z</time>
      </trkpt>
      <trkpt lat="46.01347" lon="4.41701">
        <ele>663</ele>
        <time>2025-09-09T08:34:22Z</time>
      </trkpt>
      <trkpt lat="46.01346" lon="4.417">
        <ele>663.4</ele>
        <time>2025-09-09T08:34:23Z</time>
      </trkpt>
      <trkpt lat="46.01345" lon="4.417">
        <ele>663.4</ele>
        <time>2025-09-09T08:34:24Z</time>
      </trkpt>
      <trkpt lat="46.01344" lon="4.41699">
        <ele>663.6</ele>
        <time>2025-09-09T08:34:25Z</time>
      </trkpt>
      <trkpt lat="46.01343" lon="4.41699">
        <ele>663.6</ele>
        <time>2025-09-09T08:34:26Z</time>
      </trkpt>
      <trkpt lat="46.01342" lon="4.41699">
        <ele>663.8</ele>
        <time>2025-09-09T08:34:27Z</time>
      </trkpt>
      <trkpt lat="46.01342" lon="4.41698">
        <ele>664</ele>
        <time>2025-09-09T08:34:28Z</time>
      </trkpt>
      <trkpt lat="46.01341" lon="4.41698">
        <ele>664</ele>
        <time>2025-09-09T08:34:29Z</time>
      </trkpt>
      <trkpt lat="46.0134" lon="4.41698">
        <ele>664.4</ele>
        <time>2025-09-09T08:34:30Z</time>
      </trkpt>
      <trkpt lat="46.01339" lon="4.41698">
        <ele>664.4</ele>
        <time>2025-09-09T08:34:31Z</time>
      </trkpt>
      <trkpt lat="46.01338" lon="4.41698">
        <ele>664.6</ele>
        <time>2025-09-09T08:34:32Z</time>
      </trkpt>
      <trkpt lat="46.01337" lon="4.41698">
        <ele>664.6</ele>
        <time>2025-09-09T08:34:33Z</time>
      </trkpt>
      <trkpt lat="46.01336" lon="4.41698">
        <ele>665</ele>
        <time>2025-09-09T08:34:34Z</time>
      </trkpt>
      <trkpt lat="46.01334" lon="4.41698">
        <ele>665</ele>
        <time>2025-09-09T08:34:35Z</time>
      </trkpt>
      <trkpt lat="46.01334" lon="4.41697">
        <ele>665.2</ele>
        <time>2025-09-09T08:34:36Z</time>
      </trkpt>
      <trkpt lat="46.01333" lon="4.41696">
        <ele>665.2</ele>
        <time>2025-09-09T08:34:37Z</time>
      </trkpt>
      <trkpt lat="46.01333" lon="4.41695">
        <ele>665.6</ele>
        <time>2025-09-09T08:34:38Z</time>
      </trkpt>
      <trkpt lat="46.01332" lon="4.41695">
        <ele>665.6</ele>
        <time>2025-09-09T08:34:39Z</time>
      </trkpt>
      <trkpt lat="46.01331" lon="4.41694">
        <ele>665.6</ele>
        <time>2025-09-09T08:34:40Z</time>
      </trkpt>
      <trkpt lat="46.01331" lon="4.41693">
        <ele>665.8</ele>
        <time>2025-09-09T08:34:41Z</time>
      </trkpt>
      <trkpt lat="46.0133" lon="4.41693">
        <ele>666</ele>
        <time>2025-09-09T08:34:42Z</time>
      </trkpt>
      <trkpt lat="46.0133" lon="4.41693">
        <ele>666</ele>
        <time>2025-09-09T08:34:43Z</time>
      </trkpt>
      <trkpt lat="46.01329" lon="4.41692">
        <ele>666.4</ele>
        <time>2025-09-09T08:34:44Z</time>
      </trkpt>
      <trkpt lat="46.01328" lon="4.41692">
        <ele>666.4</ele>
        <time>2025-09-09T08:34:45Z</time>
      </trkpt>
      <trkpt lat="46.01327" lon="4.41691">
        <ele>666.8</ele>
        <time>2025-09-09T08:34:46Z</time>
      </trkpt>
      <trkpt lat="46.01326" lon="4.4169">
        <ele>666.8</ele>
        <time>2025-09-09T08:34:47Z</time>
      </trkpt>
      <trkpt lat="46.01324" lon="4.41688">
        <ele>666.8</ele>
        <time>2025-09-09T08:34:48Z</time>
      </trkpt>
      <trkpt lat="46.01323" lon="4.41687">
        <ele>667</ele>
        <time>2025-09-09T08:34:49Z</time>
      </trkpt>
      <trkpt lat="46.01323" lon="4.41687">
        <ele>667</ele>
        <time>2025-09-09T08:34:50Z</time>
      </trkpt>
      <trkpt lat="46.01322" lon="4.41686">
        <ele>667.4</ele>
        <time>2025-09-09T08:34:51Z</time>
      </trkpt>
      <trkpt lat="46.01321" lon="4.41685">
        <ele>667.4</ele>
        <time>2025-09-09T08:34:52Z</time>
      </trkpt>
      <trkpt lat="46.0132" lon="4.41684">
        <ele>667.6</ele>
        <time>2025-09-09T08:34:53Z</time>
      </trkpt>
      <trkpt lat="46.01319" lon="4.41683">
        <ele>667.6</ele>
        <time>2025-09-09T08:34:54Z</time>
      </trkpt>
      <trkpt lat="46.01317" lon="4.41683">
        <ele>667.6</ele>
        <time>2025-09-09T08:34:55Z</time>
      </trkpt>
      <trkpt lat="46.01316" lon="4.41682">
        <ele>667.6</ele>
        <time>2025-09-09T08:34:56Z</time>
      </trkpt>
      <trkpt lat="46.01315" lon="4.41681">
        <ele>668</ele>
        <time>2025-09-09T08:34:57Z</time>
      </trkpt>
      <trkpt lat="46.01314" lon="4.4168">
        <ele>668.2</ele>
        <time>2025-09-09T08:34:58Z</time>
      </trkpt>
      <trkpt lat="46.01313" lon="4.41679">
        <ele>668.2</ele>
        <time>2025-09-09T08:34:59Z</time>
      </trkpt>
      <trkpt lat="46.01313" lon="4.41678">
        <ele>668.4</ele>
        <time>2025-09-09T08:35:00Z</time>
      </trkpt>
      <trkpt lat="46.01312" lon="4.41676">
        <ele>668.4</ele>
        <time>2025-09-09T08:35:01Z</time>
      </trkpt>
      <trkpt lat="46.01311" lon="4.41675">
        <ele>668.6</ele>
        <time>2025-09-09T08:35:02Z</time>
      </trkpt>
      <trkpt lat="46.0131" lon="4.41673">
        <ele>668.6</ele>
        <time>2025-09-09T08:35:03Z</time>
      </trkpt>
      <trkpt lat="46.0131" lon="4.41672">
        <ele>669</ele>
        <time>2025-09-09T08:35:04Z</time>
      </trkpt>
      <trkpt lat="46.01309" lon="4.4167">
        <ele>669</ele>
        <time>2025-09-09T08:35:05Z</time>
      </trkpt>
      <trkpt lat="46.01309" lon="4.4167">
        <ele>669</ele>
        <time>2025-09-09T08:35:06Z</time>
      </trkpt>
      <trkpt lat="46.01309" lon="4.4167">
        <ele>669.4</ele>
        <time>2025-09-09T08:35:07Z</time>
      </trkpt>
      <trkpt lat="46.01308" lon="4.41669">
        <ele>669.4</ele>
        <time>2025-09-09T08:35:08Z</time>
      </trkpt>
      <trkpt lat="46.01307" lon="4.41667">
        <ele>669.4</ele>
        <time>2025-09-09T08:35:09Z</time>
      </trkpt>
      <trkpt lat="46.01306" lon="4.41666">
        <ele>669.6</ele>
        <time>2025-09-09T08:35:10Z</time>
      </trkpt>
      <trkpt lat="46.01304" lon="4.41666">
        <ele>669.6</ele>
        <time>2025-09-09T08:35:11Z</time>
      </trkpt>
      <trkpt lat="46.01303" lon="4.41665">
        <ele>669.6</ele>
        <time>2025-09-09T08:35:12Z</time>
      </trkpt>
      <trkpt lat="46.01302" lon="4.41665">
        <ele>669.6</ele>
        <time>2025-09-09T08:35:13Z</time>
      </trkpt>
      <trkpt lat="46.01301" lon="4.41664">
        <ele>669.6</ele>
        <time>2025-09-09T08:35:14Z</time>
      </trkpt>
      <trkpt lat="46.013" lon="4.41664">
        <ele>669.6</ele>
        <time>2025-09-09T08:35:15Z</time>
      </trkpt>
      <trkpt lat="46.01299" lon="4.41663">
        <ele>669.6</ele>
        <time>2025-09-09T08:35:16Z</time>
      </trkpt>
      <trkpt lat="46.01299" lon="4.41663">
        <ele>669.6</ele>
        <time>2025-09-09T08:35:17Z</time>
      </trkpt>
      <trkpt lat="46.01298" lon="4.41662">
        <ele>670</ele>
        <time>2025-09-09T08:35:18Z</time>
      </trkpt>
      <trkpt lat="46.01297" lon="4.41662">
        <ele>670.2</ele>
        <time>2025-09-09T08:35:19Z</time>
      </trkpt>
      <trkpt lat="46.01295" lon="4.41661">
        <ele>670.2</ele>
        <time>2025-09-09T08:35:20Z</time>
      </trkpt>
      <trkpt lat="46.01294" lon="4.41661">
        <ele>670.6</ele>
        <time>2025-09-09T08:35:21Z</time>
      </trkpt>
      <trkpt lat="46.01293" lon="4.4166">
        <ele>670.6</ele>
        <time>2025-09-09T08:35:22Z</time>
      </trkpt>
      <trkpt lat="46.01291" lon="4.41659">
        <ele>670.6</ele>
        <time>2025-09-09T08:35:23Z</time>
      </trkpt>
      <trkpt lat="46.01291" lon="4.41657">
        <ele>671</ele>
        <time>2025-09-09T08:35:24Z</time>
      </trkpt>
      <trkpt lat="46.0129" lon="4.41657">
        <ele>671</ele>
        <time>2025-09-09T08:35:25Z</time>
      </trkpt>
      <trkpt lat="46.01289" lon="4.41656">
        <ele>671</ele>
        <time>2025-09-09T08:35:26Z</time>
      </trkpt>
      <trkpt lat="46.01288" lon="4.41656">
        <ele>671.2</ele>
        <time>2025-09-09T08:35:27Z</time>
      </trkpt>
      <trkpt lat="46.01287" lon="4.41655">
        <ele>671.2</ele>
        <time>2025-09-09T08:35:28Z</time>
      </trkpt>
      <trkpt lat="46.01286" lon="4.41655">
        <ele>671.2</ele>
        <time>2025-09-09T08:35:29Z</time>
      </trkpt>
      <trkpt lat="46.01286" lon="4.41656">
        <ele>671.2</ele>
        <time>2025-09-09T08:35:30Z</time>
      </trkpt>
      <trkpt lat="46.01285" lon="4.41657">
        <ele>671.6</ele>
        <time>2025-09-09T08:35:31Z</time>
      </trkpt>
      <trkpt lat="46.01285" lon="4.4166">
        <ele>672</ele>
        <time>2025-09-09T08:36:31Z</time>
      </trkpt>
      <trkpt lat="46.01284" lon="4.4166">
        <ele>672</ele>
        <time>2025-09-09T08:36:32Z</time>
      </trkpt>
      <trkpt lat="46.01282" lon="4.41658">
        <ele>672</ele>
        <time>2025-09-09T08:36:33Z</time>
      </trkpt>
      <trkpt lat="46.01281" lon="4.41657">
        <ele>672.6</ele>
        <time>2025-09-09T08:36:34Z</time>
      </trkpt>
      <trkpt lat="46.0128" lon="4.41656">
        <ele>672.6</ele>
        <time>2025-09-09T08:36:35Z</time>
      </trkpt>
      <trkpt lat="46.01278" lon="4.41655">
        <ele>672.8</ele>
        <time>2025-09-09T08:36:36Z</time>
      </trkpt>
      <trkpt lat="46.01277" lon="4.41654">
        <ele>672.8</ele>
        <time>2025-09-09T08:36:37Z</time>
      </trkpt>
      <trkpt lat="46.01276" lon="4.41653">
        <ele>673.2</ele>
        <time>2025-09-09T08:36:38Z</time>
      </trkpt>
      <trkpt lat="46.01275" lon="4.41651">
        <ele>673.4</ele>
        <time>2025-09-09T08:36:39Z</time>
      </trkpt>
      <trkpt lat="46.01276" lon="4.4165">
        <ele>673.6</ele>
        <time>2025-09-09T08:36:40Z</time>
      </trkpt>
      <trkpt lat="46.01274" lon="4.41649">
        <ele>674.8</ele>
        <time>2025-09-09T08:36:45Z</time>
      </trkpt>
      <trkpt lat="46.01272" lon="4.41649">
        <ele>675</ele>
        <time>2025-09-09T08:36:46Z</time>
      </trkpt>
      <trkpt lat="46.01271" lon="4.41649">
        <ele>675.4</ele>
        <time>2025-09-09T08:36:47Z</time>
      </trkpt>
      <trkpt lat="46.0127" lon="4.41648">
        <ele>675.6</ele>
        <time>2025-09-09T08:36:48Z</time>
      </trkpt>
      <trkpt lat="46.01268" lon="4.41646">
        <ele>675.8</ele>
        <time>2025-09-09T08:36:49Z</time>
      </trkpt>
      <trkpt lat="46.01267" lon="4.41645">
        <ele>675.8</ele>
        <time>2025-09-09T08:36:50Z</time>
      </trkpt>
      <trkpt lat="46.01266" lon="4.41644">
        <ele>676.2</ele>
        <time>2025-09-09T08:36:51Z</time>
      </trkpt>
      <trkpt lat="46.01265" lon="4.41643">
        <ele>676.2</ele>
        <time>2025-09-09T08:36:52Z</time>
      </trkpt>
      <trkpt lat="46.01265" lon="4.41642">
        <ele>676.6</ele>
        <time>2025-09-09T08:36:53Z</time>
      </trkpt>
      <trkpt lat="46.01264" lon="4.41642">
        <ele>676.8</ele>
        <time>2025-09-09T08:36:54Z</time>
      </trkpt>
      <trkpt lat="46.01263" lon="4.41641">
        <ele>676.8</ele>
        <time>2025-09-09T08:36:55Z</time>
      </trkpt>
      <trkpt lat="46.01261" lon="4.4164">
        <ele>677.2</ele>
        <time>2025-09-09T08:36:56Z</time>
      </trkpt>
      <trkpt lat="46.01259" lon="4.41638">
        <ele>677.2</ele>
        <time>2025-09-09T08:36:57Z</time>
      </trkpt>
      <trkpt lat="46.01257" lon="4.41637">
        <ele>677.6</ele>
        <time>2025-09-09T08:36:58Z</time>
      </trkpt>
      <trkpt lat="46.01256" lon="4.41636">
        <ele>677.8</ele>
        <time>2025-09-09T08:36:59Z</time>
      </trkpt>
      <trkpt lat="46.01254" lon="4.41636">
        <ele>677.8</ele>
        <time>2025-09-09T08:37:00Z</time>
      </trkpt>
      <trkpt lat="46.01253" lon="4.41635">
        <ele>678.2</ele>
        <time>2025-09-09T08:37:01Z</time>
      </trkpt>
      <trkpt lat="46.01252" lon="4.41635">
        <ele>678.2</ele>
        <time>2025-09-09T08:37:02Z</time>
      </trkpt>
      <trkpt lat="46.0125" lon="4.41635">
        <ele>678.4</ele>
        <time>2025-09-09T08:37:03Z</time>
      </trkpt>
      <trkpt lat="46.01249" lon="4.41634">
        <ele>678.6</ele>
        <time>2025-09-09T08:37:04Z</time>
      </trkpt>
      <trkpt lat="46.01248" lon="4.41633">
        <ele>679</ele>
        <time>2025-09-09T08:37:05Z</time>
      </trkpt>
      <trkpt lat="46.01247" lon="4.41633">
        <ele>679</ele>
        <time>2025-09-09T08:37:06Z</time>
      </trkpt>
      <trkpt lat="46.01246" lon="4.41632">
        <ele>679.2</ele>
        <time>2025-09-09T08:37:07Z</time>
      </trkpt>
      <trkpt lat="46.01245" lon="4.41631">
        <ele>679.2</ele>
        <time>2025-09-09T08:37:08Z</time>
      </trkpt>
      <trkpt lat="46.01244" lon="4.4163">
        <ele>679.4</ele>
        <time>2025-09-09T08:37:09Z</time>
      </trkpt>
      <trkpt lat="46.01242" lon="4.41629">
        <ele>679.4</ele>
        <time>2025-09-09T08:37:10Z</time>
      </trkpt>
      <trkpt lat="46.01241" lon="4.41628">
        <ele>679.4</ele>
        <time>2025-09-09T08:37:11Z</time>
      </trkpt>
      <trkpt lat="46.01239" lon="4.41627">
        <ele>679.8</ele>
        <time>2025-09-09T08:37:12Z</time>
      </trkpt>
      <trkpt lat="46.01238" lon="4.41626">
        <ele>679.8</ele>
        <time>2025-09-09T08:37:13Z</time>
      </trkpt>
      <trkpt lat="46.01237" lon="4.41625">
        <ele>680</ele>
        <time>2025-09-09T08:37:14Z</time>
      </trkpt>
      <trkpt lat="46.01235" lon="4.41623">
        <ele>680</ele>
        <time>2025-09-09T08:37:15Z</time>
      </trkpt>
      <trkpt lat="46.01234" lon="4.41622">
        <ele>680.2</ele>
        <time>2025-09-09T08:37:16Z</time>
      </trkpt>
      <trkpt lat="46.01233" lon="4.41622">
        <ele>680.2</ele>
        <time>2025-09-09T08:37:17Z</time>
      </trkpt>
      <trkpt lat="46.01232" lon="4.41621">
        <ele>680.6</ele>
        <time>2025-09-09T08:37:18Z</time>
      </trkpt>
      <trkpt lat="46.01232" lon="4.4162">
        <ele>680.6</ele>
        <time>2025-09-09T08:37:19Z</time>
      </trkpt>
      <trkpt lat="46.01231" lon="4.41619">
        <ele>680.8</ele>
        <time>2025-09-09T08:37:20Z</time>
      </trkpt>
      <trkpt lat="46.01229" lon="4.41618">
        <ele>681.2</ele>
        <time>2025-09-09T08:37:21Z</time>
      </trkpt>
      <trkpt lat="46.01228" lon="4.41617">
        <ele>681.4</ele>
        <time>2025-09-09T08:37:22Z</time>
      </trkpt>
      <trkpt lat="46.01226" lon="4.41617">
        <ele>681.4</ele>
        <time>2025-09-09T08:37:23Z</time>
      </trkpt>
      <trkpt lat="46.01225" lon="4.41615">
        <ele>681.6</ele>
        <time>2025-09-09T08:37:24Z</time>
      </trkpt>
      <trkpt lat="46.01224" lon="4.41614">
        <ele>681.6</ele>
        <time>2025-09-09T08:37:25Z</time>
      </trkpt>
      <trkpt lat="46.01224" lon="4.41612">
        <ele>682.2</ele>
        <time>2025-09-09T08:37:26Z</time>
      </trkpt>
      <trkpt lat="46.01224" lon="4.41611">
        <ele>682.4</ele>
        <time>2025-09-09T08:37:27Z</time>
      </trkpt>
      <trkpt lat="46.01223" lon="4.41609">
        <ele>682.4</ele>
        <time>2025-09-09T08:37:28Z</time>
      </trkpt>
      <trkpt lat="46.01222" lon="4.41608">
        <ele>682.8</ele>
        <time>2025-09-09T08:37:29Z</time>
      </trkpt>
      <trkpt lat="46.01221" lon="4.41607">
        <ele>682.8</ele>
        <time>2025-09-09T08:37:30Z</time>
      </trkpt>
      <trkpt lat="46.0122" lon="4.41606">
        <ele>683.2</ele>
        <time>2025-09-09T08:37:31Z</time>
      </trkpt>
      <trkpt lat="46.01218" lon="4.41606">
        <ele>683.2</ele>
        <time>2025-09-09T08:37:32Z</time>
      </trkpt>
      <trkpt lat="46.01217" lon="4.41606">
        <ele>683.2</ele>
        <time>2025-09-09T08:37:33Z</time>
      </trkpt>
      <trkpt lat="46.01215" lon="4.41606">
        <ele>683.4</ele>
        <time>2025-09-09T08:37:34Z</time>
      </trkpt>
      <trkpt lat="46.01214" lon="4.41606">
        <ele>683.4</ele>
        <time>2025-09-09T08:37:35Z</time>
      </trkpt>
      <trkpt lat="46.01212" lon="4.41606">
        <ele>683.8</ele>
        <time>2025-09-09T08:37:36Z</time>
      </trkpt>
      <trkpt lat="46.01211" lon="4.41605">
        <ele>683.8</ele>
        <time>2025-09-09T08:37:37Z</time>
      </trkpt>
      <trkpt lat="46.0121" lon="4.41605">
        <ele>684.2</ele>
        <time>2025-09-09T08:37:38Z</time>
      </trkpt>
      <trkpt lat="46.01208" lon="4.41605">
        <ele>684.2</ele>
        <time>2025-09-09T08:37:39Z</time>
      </trkpt>
      <trkpt lat="46.01207" lon="4.41605">
        <ele>684.4</ele>
        <time>2025-09-09T08:37:40Z</time>
      </trkpt>
      <trkpt lat="46.01205" lon="4.41605">
        <ele>684.6</ele>
        <time>2025-09-09T08:37:41Z</time>
      </trkpt>
      <trkpt lat="46.01205" lon="4.41605">
        <ele>684.6</ele>
        <time>2025-09-09T08:37:42Z</time>
      </trkpt>
      <trkpt lat="46.01204" lon="4.41606">
        <ele>684.6</ele>
        <time>2025-09-09T08:37:43Z</time>
      </trkpt>
      <trkpt lat="46.01202" lon="4.41607">
        <ele>685</ele>
        <time>2025-09-09T08:37:44Z</time>
      </trkpt>
      <trkpt lat="46.01201" lon="4.41608">
        <ele>685</ele>
        <time>2025-09-09T08:37:45Z</time>
      </trkpt>
      <trkpt lat="46.012" lon="4.41609">
        <ele>685.4</ele>
        <time>2025-09-09T08:37:46Z</time>
      </trkpt>
      <trkpt lat="46.01198" lon="4.41609">
        <ele>685.4</ele>
        <time>2025-09-09T08:37:47Z</time>
      </trkpt>
      <trkpt lat="46.01197" lon="4.41609">
        <ele>685.6</ele>
        <time>2025-09-09T08:37:48Z</time>
      </trkpt>
      <trkpt lat="46.01196" lon="4.41609">
        <ele>685.6</ele>
        <time>2025-09-09T08:37:49Z</time>
      </trkpt>
      <trkpt lat="46.01195" lon="4.41608">
        <ele>686</ele>
        <time>2025-09-09T08:37:50Z</time>
      </trkpt>
      <trkpt lat="46.01195" lon="4.41608">
        <ele>686</ele>
        <time>2025-09-09T08:37:51Z</time>
      </trkpt>
      <trkpt lat="46.01194" lon="4.41608">
        <ele>686.4</ele>
        <time>2025-09-09T08:37:52Z</time>
      </trkpt>
      <trkpt lat="46.01193" lon="4.41608">
        <ele>686.6</ele>
        <time>2025-09-09T08:37:53Z</time>
      </trkpt>
      <trkpt lat="46.01191" lon="4.41609">
        <ele>686.6</ele>
        <time>2025-09-09T08:37:54Z</time>
      </trkpt>
      <trkpt lat="46.0119" lon="4.41609">
        <ele>686.8</ele>
        <time>2025-09-09T08:37:55Z</time>
      </trkpt>
      <trkpt lat="46.01189" lon="4.4161">
        <ele>686.8</ele>
        <time>2025-09-09T08:37:56Z</time>
      </trkpt>
      <trkpt lat="46.01188" lon="4.4161">
        <ele>687</ele>
        <time>2025-09-09T08:37:57Z</time>
      </trkpt>
      <trkpt lat="46.01187" lon="4.4161">
        <ele>687</ele>
        <time>2025-09-09T08:37:58Z</time>
      </trkpt>
      <trkpt lat="46.01185" lon="4.41611">
        <ele>687.4</ele>
        <time>2025-09-09T08:37:59Z</time>
      </trkpt>
      <trkpt lat="46.01184" lon="4.41612">
        <ele>687.4</ele>
        <time>2025-09-09T08:38:00Z</time>
      </trkpt>
      <trkpt lat="46.01183" lon="4.41613">
        <ele>687.6</ele>
        <time>2025-09-09T08:38:01Z</time>
      </trkpt>
      <trkpt lat="46.01181" lon="4.41613">
        <ele>687.6</ele>
        <time>2025-09-09T08:38:02Z</time>
      </trkpt>
      <trkpt lat="46.0118" lon="4.41614">
        <ele>687.6</ele>
        <time>2025-09-09T08:38:03Z</time>
      </trkpt>
      <trkpt lat="46.0118" lon="4.41614">
        <ele>687.8</ele>
        <time>2025-09-09T08:38:04Z</time>
      </trkpt>
      <trkpt lat="46.01177" lon="4.41617">
        <ele>688.2</ele>
        <time>2025-09-09T08:38:25Z</time>
      </trkpt>
      <trkpt lat="46.01176" lon="4.41619">
        <ele>688.2</ele>
        <time>2025-09-09T08:38:26Z</time>
      </trkpt>
      <trkpt lat="46.01175" lon="4.41622">
        <ele>688.2</ele>
        <time>2025-09-09T08:38:27Z</time>
      </trkpt>
      <trkpt lat="46.01174" lon="4.41624">
        <ele>688.2</ele>
        <time>2025-09-09T08:38:28Z</time>
      </trkpt>
      <trkpt lat="46.01174" lon="4.41626">
        <ele>688.2</ele>
        <time>2025-09-09T08:38:29Z</time>
      </trkpt>
      <trkpt lat="46.01173" lon="4.41628">
        <ele>688.2</ele>
        <time>2025-09-09T08:38:30Z</time>
      </trkpt>
      <trkpt lat="46.01173" lon="4.4163">
        <ele>688.2</ele>
        <time>2025-09-09T08:38:31Z</time>
      </trkpt>
      <trkpt lat="46.01172" lon="4.41632">
        <ele>688.4</ele>
        <time>2025-09-09T08:38:32Z</time>
      </trkpt>
      <trkpt lat="46.01172" lon="4.41635">
        <ele>688.4</ele>
        <time>2025-09-09T08:38:33Z</time>
      </trkpt>
      <trkpt lat="46.01172" lon="4.41637">
        <ele>688.4</ele>
        <time>2025-09-09T08:38:34Z</time>
      </trkpt>
      <trkpt lat="46.01171" lon="4.41639">
        <ele>688.6</ele>
        <time>2025-09-09T08:38:35Z</time>
      </trkpt>
      <trkpt lat="46.01171" lon="4.41641">
        <ele>688.6</ele>
        <time>2025-09-09T08:38:36Z</time>
      </trkpt>
      <trkpt lat="46.01171" lon="4.41643">
        <ele>688.6</ele>
        <time>2025-09-09T08:38:37Z</time>
      </trkpt>
      <trkpt lat="46.01171" lon="4.41644">
        <ele>688.6</ele>
        <time>2025-09-09T08:38:38Z</time>
      </trkpt>
      <trkpt lat="46.01171" lon="4.41647">
        <ele>689</ele>
        <time>2025-09-09T08:38:39Z</time>
      </trkpt>
      <trkpt lat="46.01171" lon="4.41649">
        <ele>689.2</ele>
        <time>2025-09-09T08:38:40Z</time>
      </trkpt>
      <trkpt lat="46.01172" lon="4.41652">
        <ele>689.2</ele>
        <time>2025-09-09T08:38:41Z</time>
      </trkpt>
      <trkpt lat="46.01173" lon="4.41654">
        <ele>689.2</ele>
        <time>2025-09-09T08:38:42Z</time>
      </trkpt>
      <trkpt lat="46.01174" lon="4.41656">
        <ele>689.4</ele>
        <time>2025-09-09T08:38:43Z</time>
      </trkpt>
      <trkpt lat="46.01174" lon="4.41658">
        <ele>689.4</ele>
        <time>2025-09-09T08:38:44Z</time>
      </trkpt>
      <trkpt lat="46.01175" lon="4.41661">
        <ele>689.4</ele>
        <time>2025-09-09T08:38:45Z</time>
      </trkpt>
      <trkpt lat="46.01176" lon="4.41663">
        <ele>689.4</ele>
        <time>2025-09-09T08:38:46Z</time>
      </trkpt>
      <trkpt lat="46.01177" lon="4.41666">
        <ele>689.8</ele>
        <time>2025-09-09T08:38:47Z</time>
      </trkpt>
      <trkpt lat="46.01177" lon="4.41668">
        <ele>689.8</ele>
        <time>2025-09-09T08:38:48Z</time>
      </trkpt>
      <trkpt lat="46.01178" lon="4.4167">
        <ele>690.2</ele>
        <time>2025-09-09T08:38:49Z</time>
      </trkpt>
      <trkpt lat="46.01179" lon="4.41673">
        <ele>690.2</ele>
        <time>2025-09-09T08:38:50Z</time>
      </trkpt>
      <trkpt lat="46.0118" lon="4.41675">
        <ele>690.4</ele>
        <time>2025-09-09T08:38:51Z</time>
      </trkpt>
      <trkpt lat="46.01181" lon="4.41678">
        <ele>690.4</ele>
        <time>2025-09-09T08:38:52Z</time>
      </trkpt>
      <trkpt lat="46.01181" lon="4.41681">
        <ele>690.6</ele>
        <time>2025-09-09T08:38:53Z</time>
      </trkpt>
      <trkpt lat="46.01182" lon="4.41684">
        <ele>690.6</ele>
        <time>2025-09-09T08:38:54Z</time>
      </trkpt>
      <trkpt lat="46.01182" lon="4.41686">
        <ele>690.6</ele>
        <time>2025-09-09T08:38:55Z</time>
      </trkpt>
      <trkpt lat="46.01182" lon="4.41689">
        <ele>690.8</ele>
        <time>2025-09-09T08:38:56Z</time>
      </trkpt>
      <trkpt lat="46.01182" lon="4.41692">
        <ele>690.8</ele>
        <time>2025-09-09T08:38:57Z</time>
      </trkpt>
      <trkpt lat="46.01182" lon="4.41695">
        <ele>690.8</ele>
        <time>2025-09-09T08:38:58Z</time>
      </trkpt>
      <trkpt lat="46.01182" lon="4.41697">
        <ele>690.8</ele>
        <time>2025-09-09T08:38:59Z</time>
      </trkpt>
      <trkpt lat="46.01183" lon="4.417">
        <ele>690.8</ele>
        <time>2025-09-09T08:39:00Z</time>
      </trkpt>
      <trkpt lat="46.01183" lon="4.41702">
        <ele>690.8</ele>
        <time>2025-09-09T08:39:01Z</time>
      </trkpt>
      <trkpt lat="46.01184" lon="4.41705">
        <ele>690.8</ele>
        <time>2025-09-09T08:39:02Z</time>
      </trkpt>
      <trkpt lat="46.01185" lon="4.41707">
        <ele>691</ele>
        <time>2025-09-09T08:39:03Z</time>
      </trkpt>
      <trkpt lat="46.01185" lon="4.41709">
        <ele>691</ele>
        <time>2025-09-09T08:39:04Z</time>
      </trkpt>
      <trkpt lat="46.01186" lon="4.41711">
        <ele>691</ele>
        <time>2025-09-09T08:39:05Z</time>
      </trkpt>
      <trkpt lat="46.01187" lon="4.41713">
        <ele>691.4</ele>
        <time>2025-09-09T08:39:06Z</time>
      </trkpt>
      <trkpt lat="46.01188" lon="4.41715">
        <ele>691.6</ele>
        <time>2025-09-09T08:39:07Z</time>
      </trkpt>
      <trkpt lat="46.01188" lon="4.41717">
        <ele>691.8</ele>
        <time>2025-09-09T08:39:08Z</time>
      </trkpt>
      <trkpt lat="46.01189" lon="4.41718">
        <ele>691.8</ele>
        <time>2025-09-09T08:39:09Z</time>
      </trkpt>
      <trkpt lat="46.0119" lon="4.4172">
        <ele>692.4</ele>
        <time>2025-09-09T08:39:10Z</time>
      </trkpt>
      <trkpt lat="46.0119" lon="4.41721">
        <ele>692.6</ele>
        <time>2025-09-09T08:39:11Z</time>
      </trkpt>
      <trkpt lat="46.01191" lon="4.41723">
        <ele>692.6</ele>
        <time>2025-09-09T08:39:12Z</time>
      </trkpt>
      <trkpt lat="46.01191" lon="4.41725">
        <ele>693</ele>
        <time>2025-09-09T08:39:13Z</time>
      </trkpt>
      <trkpt lat="46.01192" lon="4.41726">
        <ele>693</ele>
        <time>2025-09-09T08:39:14Z</time>
      </trkpt>
      <trkpt lat="46.01192" lon="4.41729">
        <ele>693.2</ele>
        <time>2025-09-09T08:39:15Z</time>
      </trkpt>
      <trkpt lat="46.01193" lon="4.41731">
        <ele>693.2</ele>
        <time>2025-09-09T08:39:16Z</time>
      </trkpt>
      <trkpt lat="46.01193" lon="4.41733">
        <ele>693.4</ele>
        <time>2025-09-09T08:39:17Z</time>
      </trkpt>
      <trkpt lat="46.01194" lon="4.41735">
        <ele>693.4</ele>
        <time>2025-09-09T08:39:18Z</time>
      </trkpt>
      <trkpt lat="46.01194" lon="4.41738">
        <ele>693.6</ele>
        <time>2025-09-09T08:39:19Z</time>
      </trkpt>
      <trkpt lat="46.01194" lon="4.4174">
        <ele>693.6</ele>
        <time>2025-09-09T08:39:20Z</time>
      </trkpt>
      <trkpt lat="46.01194" lon="4.41742">
        <ele>693.6</ele>
        <time>2025-09-09T08:39:21Z</time>
      </trkpt>
      <trkpt lat="46.01194" lon="4.41744">
        <ele>694</ele>
        <time>2025-09-09T08:39:22Z</time>
      </trkpt>
      <trkpt lat="46.01194" lon="4.41747">
        <ele>694</ele>
        <time>2025-09-09T08:39:23Z</time>
      </trkpt>
      <trkpt lat="46.01194" lon="4.41749">
        <ele>694.2</ele>
        <time>2025-09-09T08:39:24Z</time>
      </trkpt>
      <trkpt lat="46.01194" lon="4.41752">
        <ele>694.2</ele>
        <time>2025-09-09T08:39:25Z</time>
      </trkpt>
      <trkpt lat="46.01194" lon="4.41754">
        <ele>694.2</ele>
        <time>2025-09-09T08:39:26Z</time>
      </trkpt>
      <trkpt lat="46.01194" lon="4.41756">
        <ele>694.2</ele>
        <time>2025-09-09T08:39:27Z</time>
      </trkpt>
      <trkpt lat="46.01194" lon="4.41759">
        <ele>694.6</ele>
        <time>2025-09-09T08:39:28Z</time>
      </trkpt>
      <trkpt lat="46.01195" lon="4.41761">
        <ele>695</ele>
        <time>2025-09-09T08:39:29Z</time>
      </trkpt>
      <trkpt lat="46.01196" lon="4.41763">
        <ele>695</ele>
        <time>2025-09-09T08:39:30Z</time>
      </trkpt>
      <trkpt lat="46.01196" lon="4.41765">
        <ele>695</ele>
        <time>2025-09-09T08:39:31Z</time>
      </trkpt>
      <trkpt lat="46.01196" lon="4.41767">
        <ele>695.2</ele>
        <time>2025-09-09T08:39:32Z</time>
      </trkpt>
      <trkpt lat="46.01197" lon="4.4177">
        <ele>695.2</ele>
        <time>2025-09-09T08:39:33Z</time>
      </trkpt>
      <trkpt lat="46.01197" lon="4.41772">
        <ele>695.4</ele>
        <time>2025-09-09T08:39:34Z</time>
      </trkpt>
      <trkpt lat="46.01197" lon="4.41775">
        <ele>695.4</ele>
        <time>2025-09-09T08:39:35Z</time>
      </trkpt>
      <trkpt lat="46.01197" lon="4.41778">
        <ele>695.8</ele>
        <time>2025-09-09T08:39:36Z</time>
      </trkpt>
      <trkpt lat="46.01197" lon="4.4178">
        <ele>695.8</ele>
        <time>2025-09-09T08:39:37Z</time>
      </trkpt>
      <trkpt lat="46.01197" lon="4.41782">
        <ele>696.2</ele>
        <time>2025-09-09T08:39:38Z</time>
      </trkpt>
      <trkpt lat="46.01197" lon="4.41784">
        <ele>696.2</ele>
        <time>2025-09-09T08:39:39Z</time>
      </trkpt>
      <trkpt lat="46.01197" lon="4.41786">
        <ele>696.4</ele>
        <time>2025-09-09T08:39:40Z</time>
      </trkpt>
      <trkpt lat="46.01197" lon="4.41788">
        <ele>696.4</ele>
        <time>2025-09-09T08:39:41Z</time>
      </trkpt>
      <trkpt lat="46.01197" lon="4.41789">
        <ele>696.6</ele>
        <time>2025-09-09T08:39:42Z</time>
      </trkpt>
      <trkpt lat="46.01197" lon="4.41791">
        <ele>696.6</ele>
        <time>2025-09-09T08:39:43Z</time>
      </trkpt>
      <trkpt lat="46.01197" lon="4.41793">
        <ele>697</ele>
        <time>2025-09-09T08:39:44Z</time>
      </trkpt>
      <trkpt lat="46.01198" lon="4.41795">
        <ele>697.4</ele>
        <time>2025-09-09T08:39:45Z</time>
      </trkpt>
      <trkpt lat="46.01198" lon="4.41797">
        <ele>697.6</ele>
        <time>2025-09-09T08:39:46Z</time>
      </trkpt>
      <trkpt lat="46.01198" lon="4.41799">
        <ele>697.6</ele>
        <time>2025-09-09T08:39:47Z</time>
      </trkpt>
      <trkpt lat="46.01198" lon="4.41801">
        <ele>698</ele>
        <time>2025-09-09T08:39:48Z</time>
      </trkpt>
      <trkpt lat="46.01197" lon="4.41803">
        <ele>698</ele>
        <time>2025-09-09T08:39:49Z</time>
      </trkpt>
      <trkpt lat="46.01198" lon="4.41805">
        <ele>698</ele>
        <time>2025-09-09T08:39:50Z</time>
      </trkpt>
      <trkpt lat="46.01198" lon="4.41807">
        <ele>698.4</ele>
        <time>2025-09-09T08:39:51Z</time>
      </trkpt>
      <trkpt lat="46.01198" lon="4.41809">
        <ele>698.4</ele>
        <time>2025-09-09T08:39:52Z</time>
      </trkpt>
      <trkpt lat="46.01198" lon="4.41811">
        <ele>698.6</ele>
        <time>2025-09-09T08:39:53Z</time>
      </trkpt>
      <trkpt lat="46.01198" lon="4.41813">
        <ele>698.6</ele>
        <time>2025-09-09T08:39:54Z</time>
      </trkpt>
      <trkpt lat="46.01198" lon="4.41815">
        <ele>699</ele>
        <time>2025-09-09T08:39:55Z</time>
      </trkpt>
      <trkpt lat="46.01198" lon="4.41817">
        <ele>699</ele>
        <time>2025-09-09T08:39:56Z</time>
      </trkpt>
      <trkpt lat="46.01198" lon="4.41819">
        <ele>699</ele>
        <time>2025-09-09T08:39:57Z</time>
      </trkpt>
      <trkpt lat="46.01198" lon="4.41821">
        <ele>699</ele>
        <time>2025-09-09T08:39:58Z</time>
      </trkpt>
      <trkpt lat="46.01198" lon="4.41823">
        <ele>699.2</ele>
        <time>2025-09-09T08:39:59Z</time>
      </trkpt>
      <trkpt lat="46.01198" lon="4.41826">
        <ele>699.2</ele>
        <time>2025-09-09T08:40:00Z</time>
      </trkpt>
      <trkpt lat="46.01198" lon="4.41828">
        <ele>699.4</ele>
        <time>2025-09-09T08:40:01Z</time>
      </trkpt>
      <trkpt lat="46.01198" lon="4.41829">
        <ele>699.4</ele>
        <time>2025-09-09T08:40:02Z</time>
      </trkpt>
      <trkpt lat="46.01198" lon="4.41831">
        <ele>699.8</ele>
        <time>2025-09-09T08:40:03Z</time>
      </trkpt>
      <trkpt lat="46.01197" lon="4.41833">
        <ele>699.8</ele>
        <time>2025-09-09T08:40:04Z</time>
      </trkpt>
      <trkpt lat="46.01197" lon="4.41835">
        <ele>700</ele>
        <time>2025-09-09T08:40:05Z</time>
      </trkpt>
      <trkpt lat="46.01197" lon="4.41836">
        <ele>700</ele>
        <time>2025-09-09T08:40:06Z</time>
      </trkpt>
      <trkpt lat="46.01197" lon="4.41839">
        <ele>700</ele>
        <time>2025-09-09T08:40:07Z</time>
      </trkpt>
      <trkpt lat="46.01197" lon="4.4184">
        <ele>700.4</ele>
        <time>2025-09-09T08:40:08Z</time>
      </trkpt>
      <trkpt lat="46.01197" lon="4.41842">
        <ele>700.4</ele>
        <time>2025-09-09T08:40:09Z</time>
      </trkpt>
      <trkpt lat="46.01196" lon="4.41845">
        <ele>700.6</ele>
        <time>2025-09-09T08:40:10Z</time>
      </trkpt>
      <trkpt lat="46.01196" lon="4.41846">
        <ele>700.6</ele>
        <time>2025-09-09T08:40:11Z</time>
      </trkpt>
      <trkpt lat="46.01196" lon="4.41848">
        <ele>700.8</ele>
        <time>2025-09-09T08:40:12Z</time>
      </trkpt>
      <trkpt lat="46.01196" lon="4.4185">
        <ele>700.8</ele>
        <time>2025-09-09T08:40:13Z</time>
      </trkpt>
      <trkpt lat="46.01195" lon="4.41852">
        <ele>700.8</ele>
        <time>2025-09-09T08:40:14Z</time>
      </trkpt>
      <trkpt lat="46.01195" lon="4.41853">
        <ele>701</ele>
        <time>2025-09-09T08:40:15Z</time>
      </trkpt>
      <trkpt lat="46.01194" lon="4.41855">
        <ele>701</ele>
        <time>2025-09-09T08:40:16Z</time>
      </trkpt>
      <trkpt lat="46.01193" lon="4.41856">
        <ele>701.4</ele>
        <time>2025-09-09T08:40:17Z</time>
      </trkpt>
      <trkpt lat="46.01193" lon="4.41858">
        <ele>701.4</ele>
        <time>2025-09-09T08:40:18Z</time>
      </trkpt>
      <trkpt lat="46.01192" lon="4.41859">
        <ele>701.6</ele>
        <time>2025-09-09T08:40:19Z</time>
      </trkpt>
      <trkpt lat="46.01192" lon="4.4186">
        <ele>701.6</ele>
        <time>2025-09-09T08:40:20Z</time>
      </trkpt>
      <trkpt lat="46.01191" lon="4.41862">
        <ele>701.6</ele>
        <time>2025-09-09T08:40:21Z</time>
      </trkpt>
      <trkpt lat="46.0119" lon="4.41864">
        <ele>701.6</ele>
        <time>2025-09-09T08:40:22Z</time>
      </trkpt>
      <trkpt lat="46.01189" lon="4.41865">
        <ele>701.6</ele>
        <time>2025-09-09T08:40:23Z</time>
      </trkpt>
      <trkpt lat="46.01188" lon="4.41867">
        <ele>702</ele>
        <time>2025-09-09T08:40:24Z</time>
      </trkpt>
      <trkpt lat="46.01188" lon="4.41868">
        <ele>702</ele>
        <time>2025-09-09T08:40:25Z</time>
      </trkpt>
      <trkpt lat="46.01188" lon="4.4187">
        <ele>702.2</ele>
        <time>2025-09-09T08:40:26Z</time>
      </trkpt>
      <trkpt lat="46.01188" lon="4.41871">
        <ele>702.4</ele>
        <time>2025-09-09T08:40:27Z</time>
      </trkpt>
      <trkpt lat="46.01189" lon="4.41871">
        <ele>702.4</ele>
        <time>2025-09-09T08:40:28Z</time>
      </trkpt>
      <trkpt lat="46.0119" lon="4.41871">
        <ele>702.4</ele>
        <time>2025-09-09T08:40:29Z</time>
      </trkpt>
      <trkpt lat="46.01191" lon="4.4187">
        <ele>702.4</ele>
        <time>2025-09-09T08:40:30Z</time>
      </trkpt>
      <trkpt lat="46.01192" lon="4.4187">
        <ele>702.6</ele>
        <time>2025-09-09T08:40:31Z</time>
      </trkpt>
      <trkpt lat="46.01192" lon="4.41869">
        <ele>702.6</ele>
        <time>2025-09-09T08:40:32Z</time>
      </trkpt>
      <trkpt lat="46.01193" lon="4.41869">
        <ele>703</ele>
        <time>2025-09-09T08:41:15Z</time>
      </trkpt>
      <trkpt lat="46.01195" lon="4.41869">
        <ele>703</ele>
        <time>2025-09-09T08:41:16Z</time>
      </trkpt>
      <trkpt lat="46.01197" lon="4.4187">
        <ele>703.6</ele>
        <time>2025-09-09T08:41:17Z</time>
      </trkpt>
      <trkpt lat="46.01198" lon="4.41871">
        <ele>703.8</ele>
        <time>2025-09-09T08:41:18Z</time>
      </trkpt>
      <trkpt lat="46.012" lon="4.41872">
        <ele>703.8</ele>
        <time>2025-09-09T08:41:19Z</time>
      </trkpt>
      <trkpt lat="46.01201" lon="4.41873">
        <ele>703.8</ele>
        <time>2025-09-09T08:41:20Z</time>
      </trkpt>
      <trkpt lat="46.01203" lon="4.41875">
        <ele>703.8</ele>
        <time>2025-09-09T08:41:21Z</time>
      </trkpt>
      <trkpt lat="46.01204" lon="4.41876">
        <ele>703.8</ele>
        <time>2025-09-09T08:41:22Z</time>
      </trkpt>
      <trkpt lat="46.01205" lon="4.41878">
        <ele>704.2</ele>
        <time>2025-09-09T08:41:23Z</time>
      </trkpt>
      <trkpt lat="46.01207" lon="4.41879">
        <ele>704.2</ele>
        <time>2025-09-09T08:41:24Z</time>
      </trkpt>
      <trkpt lat="46.01208" lon="4.4188">
        <ele>704.2</ele>
        <time>2025-09-09T08:41:25Z</time>
      </trkpt>
      <trkpt lat="46.01209" lon="4.41881">
        <ele>704.6</ele>
        <time>2025-09-09T08:41:26Z</time>
      </trkpt>
      <trkpt lat="46.0121" lon="4.41882">
        <ele>704.6</ele>
        <time>2025-09-09T08:41:27Z</time>
      </trkpt>
      <trkpt lat="46.01211" lon="4.41882">
        <ele>704.8</ele>
        <time>2025-09-09T08:41:28Z</time>
      </trkpt>
      <trkpt lat="46.01212" lon="4.41883">
        <ele>705.2</ele>
        <time>2025-09-09T08:41:29Z</time>
      </trkpt>
      <trkpt lat="46.01213" lon="4.41884">
        <ele>705.4</ele>
        <time>2025-09-09T08:41:30Z</time>
      </trkpt>
      <trkpt lat="46.01214" lon="4.41885">
        <ele>705.8</ele>
        <time>2025-09-09T08:41:31Z</time>
      </trkpt>
      <trkpt lat="46.01215" lon="4.41886">
        <ele>705.8</ele>
        <time>2025-09-09T08:41:32Z</time>
      </trkpt>
      <trkpt lat="46.01216" lon="4.41888">
        <ele>706.4</ele>
        <time>2025-09-09T08:41:33Z</time>
      </trkpt>
      <trkpt lat="46.01217" lon="4.41889">
        <ele>706.6</ele>
        <time>2025-09-09T08:41:34Z</time>
      </trkpt>
      <trkpt lat="46.01218" lon="4.4189">
        <ele>706.6</ele>
        <time>2025-09-09T08:41:35Z</time>
      </trkpt>
      <trkpt lat="46.01219" lon="4.41891">
        <ele>706.6</ele>
        <time>2025-09-09T08:41:36Z</time>
      </trkpt>
      <trkpt lat="46.01221" lon="4.41892">
        <ele>707.2</ele>
        <time>2025-09-09T08:41:37Z</time>
      </trkpt>
      <trkpt lat="46.01222" lon="4.41893">
        <ele>707.2</ele>
        <time>2025-09-09T08:41:38Z</time>
      </trkpt>
      <trkpt lat="46.01223" lon="4.41894">
        <ele>707.4</ele>
        <time>2025-09-09T08:41:39Z</time>
      </trkpt>
      <trkpt lat="46.01223" lon="4.41895">
        <ele>707.4</ele>
        <time>2025-09-09T08:41:40Z</time>
      </trkpt>
      <trkpt lat="46.01224" lon="4.41896">
        <ele>707.8</ele>
        <time>2025-09-09T08:41:41Z</time>
      </trkpt>
      <trkpt lat="46.01225" lon="4.41897">
        <ele>707.8</ele>
        <time>2025-09-09T08:41:42Z</time>
      </trkpt>
      <trkpt lat="46.01226" lon="4.41897">
        <ele>707.8</ele>
        <time>2025-09-09T08:41:43Z</time>
      </trkpt>
      <trkpt lat="46.01227" lon="4.41898">
        <ele>707.8</ele>
        <time>2025-09-09T08:41:44Z</time>
      </trkpt>
      <trkpt lat="46.01229" lon="4.419">
        <ele>708.2</ele>
        <time>2025-09-09T08:41:45Z</time>
      </trkpt>
      <trkpt lat="46.01229" lon="4.419">
        <ele>708.4</ele>
        <time>2025-09-09T08:41:46Z</time>
      </trkpt>
      <trkpt lat="46.0123" lon="4.41901">
        <ele>708.6</ele>
        <time>2025-09-09T08:41:47Z</time>
      </trkpt>
      <trkpt lat="46.01232" lon="4.41902">
        <ele>708.6</ele>
        <time>2025-09-09T08:41:48Z</time>
      </trkpt>
      <trkpt lat="46.01233" lon="4.41902">
        <ele>709</ele>
        <time>2025-09-09T08:41:49Z</time>
      </trkpt>
      <trkpt lat="46.01234" lon="4.41902">
        <ele>709</ele>
        <time>2025-09-09T08:41:50Z</time>
      </trkpt>
      <trkpt lat="46.01235" lon="4.41903">
        <ele>709.2</ele>
        <time>2025-09-09T08:41:51Z</time>
      </trkpt>
      <trkpt lat="46.01236" lon="4.41905">
        <ele>709.4</ele>
        <time>2025-09-09T08:41:52Z</time>
      </trkpt>
      <trkpt lat="46.01237" lon="4.41906">
        <ele>709.4</ele>
        <time>2025-09-09T08:41:53Z</time>
      </trkpt>
      <trkpt lat="46.01239" lon="4.41907">
        <ele>709.8</ele>
        <time>2025-09-09T08:41:54Z</time>
      </trkpt>
      <trkpt lat="46.0124" lon="4.41907">
        <ele>710</ele>
        <time>2025-09-09T08:41:55Z</time>
      </trkpt>
      <trkpt lat="46.01242" lon="4.41908">
        <ele>710</ele>
        <time>2025-09-09T08:41:56Z</time>
      </trkpt>
      <trkpt lat="46.01243" lon="4.41909">
        <ele>710.2</ele>
        <time>2025-09-09T08:41:57Z</time>
      </trkpt>
      <trkpt lat="46.01244" lon="4.41909">
        <ele>710.2</ele>
        <time>2025-09-09T08:41:58Z</time>
      </trkpt>
      <trkpt lat="46.01245" lon="4.4191">
        <ele>710.2</ele>
        <time>2025-09-09T08:41:59Z</time>
      </trkpt>
      <trkpt lat="46.01247" lon="4.4191">
        <ele>710.6</ele>
        <time>2025-09-09T08:42:00Z</time>
      </trkpt>
      <trkpt lat="46.01248" lon="4.41911">
        <ele>710.6</ele>
        <time>2025-09-09T08:42:01Z</time>
      </trkpt>
      <trkpt lat="46.01249" lon="4.41911">
        <ele>710.6</ele>
        <time>2025-09-09T08:42:02Z</time>
      </trkpt>
      <trkpt lat="46.01251" lon="4.41912">
        <ele>710.6</ele>
        <time>2025-09-09T08:42:03Z</time>
      </trkpt>
      <trkpt lat="46.01252" lon="4.41913">
        <ele>710.8</ele>
        <time>2025-09-09T08:42:04Z</time>
      </trkpt>
      <trkpt lat="46.01254" lon="4.41914">
        <ele>710.8</ele>
        <time>2025-09-09T08:42:05Z</time>
      </trkpt>
      <trkpt lat="46.01255" lon="4.41915">
        <ele>710.8</ele>
        <time>2025-09-09T08:42:06Z</time>
      </trkpt>
      <trkpt lat="46.01257" lon="4.41916">
        <ele>710.8</ele>
        <time>2025-09-09T08:42:07Z</time>
      </trkpt>
      <trkpt lat="46.01258" lon="4.41916">
        <ele>711.2</ele>
        <time>2025-09-09T08:42:08Z</time>
      </trkpt>
      <trkpt lat="46.0126" lon="4.41918">
        <ele>711.2</ele>
        <time>2025-09-09T08:42:09Z</time>
      </trkpt>
      <trkpt lat="46.01261" lon="4.41919">
        <ele>711.2</ele>
        <time>2025-09-09T08:42:10Z</time>
      </trkpt>
      <trkpt lat="46.01262" lon="4.41921">
        <ele>711.2</ele>
        <time>2025-09-09T08:42:11Z</time>
      </trkpt>
      <trkpt lat="46.01263" lon="4.41922">
        <ele>711.2</ele>
        <time>2025-09-09T08:42:12Z</time>
      </trkpt>
      <trkpt lat="46.01264" lon="4.41924">
        <ele>711.2</ele>
        <time>2025-09-09T08:42:13Z</time>
      </trkpt>
      <trkpt lat="46.01265" lon="4.41925">
        <ele>711.2</ele>
        <time>2025-09-09T08:42:14Z</time>
      </trkpt>
      <trkpt lat="46.01267" lon="4.41927">
        <ele>711.6</ele>
        <time>2025-09-09T08:42:15Z</time>
      </trkpt>
      <trkpt lat="46.01268" lon="4.41928">
        <ele>711.6</ele>
        <time>2025-09-09T08:42:16Z</time>
      </trkpt>
      <trkpt lat="46.01269" lon="4.4193">
        <ele>711.8</ele>
        <time>2025-09-09T08:42:17Z</time>
      </trkpt>
      <trkpt lat="46.0127" lon="4.41931">
        <ele>711.8</ele>
        <time>2025-09-09T08:42:18Z</time>
      </trkpt>
      <trkpt lat="46.01271" lon="4.41933">
        <ele>712</ele>
        <time>2025-09-09T08:42:19Z</time>
      </trkpt>
      <trkpt lat="46.01272" lon="4.41934">
        <ele>712</ele>
        <time>2025-09-09T08:42:20Z</time>
      </trkpt>
      <trkpt lat="46.01274" lon="4.41935">
        <ele>712</ele>
        <time>2025-09-09T08:42:21Z</time>
      </trkpt>
      <trkpt lat="46.01275" lon="4.41935">
        <ele>712</ele>
        <time>2025-09-09T08:42:22Z</time>
      </trkpt>
      <trkpt lat="46.01276" lon="4.41937">
        <ele>712.2</ele>
        <time>2025-09-09T08:42:23Z</time>
      </trkpt>
      <trkpt lat="46.01277" lon="4.41939">
        <ele>712.2</ele>
        <time>2025-09-09T08:42:24Z</time>
      </trkpt>
      <trkpt lat="46.01278" lon="4.4194">
        <ele>712.4</ele>
        <time>2025-09-09T08:42:25Z</time>
      </trkpt>
      <trkpt lat="46.01279" lon="4.41941">
        <ele>712.4</ele>
        <time>2025-09-09T08:42:26Z</time>
      </trkpt>
      <trkpt lat="46.0128" lon="4.41942">
        <ele>712.8</ele>
        <time>2025-09-09T08:42:27Z</time>
      </trkpt>
      <trkpt lat="46.01281" lon="4.41943">
        <ele>712.8</ele>
        <time>2025-09-09T08:42:28Z</time>
      </trkpt>
      <trkpt lat="46.01282" lon="4.41944">
        <ele>712.8</ele>
        <time>2025-09-09T08:42:29Z</time>
      </trkpt>
      <trkpt lat="46.01283" lon="4.41945">
        <ele>713</ele>
        <time>2025-09-09T08:42:30Z</time>
      </trkpt>
      <trkpt lat="46.01285" lon="4.41945">
        <ele>713</ele>
        <time>2025-09-09T08:42:31Z</time>
      </trkpt>
      <trkpt lat="46.01286" lon="4.41946">
        <ele>713.2</ele>
        <time>2025-09-09T08:42:32Z</time>
      </trkpt>
      <trkpt lat="46.01287" lon="4.41947">
        <ele>713.4</ele>
        <time>2025-09-09T08:42:33Z</time>
      </trkpt>
      <trkpt lat="46.01288" lon="4.41948">
        <ele>713.6</ele>
        <time>2025-09-09T08:42:34Z</time>
      </trkpt>
      <trkpt lat="46.01288" lon="4.41949">
        <ele>713.6</ele>
        <time>2025-09-09T08:42:35Z</time>
      </trkpt>
      <trkpt lat="46.01289" lon="4.41949">
        <ele>714</ele>
        <time>2025-09-09T08:42:36Z</time>
      </trkpt>
      <trkpt lat="46.0129" lon="4.4195">
        <ele>714</ele>
        <time>2025-09-09T08:42:37Z</time>
      </trkpt>
      <trkpt lat="46.01291" lon="4.41951">
        <ele>714.2</ele>
        <time>2025-09-09T08:42:38Z</time>
      </trkpt>
      <trkpt lat="46.01293" lon="4.41952">
        <ele>714.2</ele>
        <time>2025-09-09T08:42:39Z</time>
      </trkpt>
      <trkpt lat="46.01294" lon="4.41952">
        <ele>714.4</ele>
        <time>2025-09-09T08:42:40Z</time>
      </trkpt>
      <trkpt lat="46.01295" lon="4.41954">
        <ele>714.4</ele>
        <time>2025-09-09T08:42:41Z</time>
      </trkpt>
      <trkpt lat="46.01296" lon="4.41956">
        <ele>714.6</ele>
        <time>2025-09-09T08:42:42Z</time>
      </trkpt>
      <trkpt lat="46.01296" lon="4.41956">
        <ele>714.8</ele>
        <time>2025-09-09T08:42:43Z</time>
      </trkpt>
      <trkpt lat="46.01297" lon="4.41957">
        <ele>715.2</ele>
        <time>2025-09-09T08:42:44Z</time>
      </trkpt>
      <trkpt lat="46.01299" lon="4.41957">
        <ele>715.2</ele>
        <time>2025-09-09T08:42:45Z</time>
      </trkpt>
      <trkpt lat="46.013" lon="4.41958">
        <ele>715.2</ele>
        <time>2025-09-09T08:42:46Z</time>
      </trkpt>
      <trkpt lat="46.01302" lon="4.41959">
        <ele>715.2</ele>
        <time>2025-09-09T08:42:47Z</time>
      </trkpt>
      <trkpt lat="46.01303" lon="4.41961">
        <ele>715.2</ele>
        <time>2025-09-09T08:42:48Z</time>
      </trkpt>
      <trkpt lat="46.01305" lon="4.41963">
        <ele>715.6</ele>
        <time>2025-09-09T08:42:49Z</time>
      </trkpt>
      <trkpt lat="46.01307" lon="4.41965">
        <ele>715.6</ele>
        <time>2025-09-09T08:42:50Z</time>
      </trkpt>
      <trkpt lat="46.01308" lon="4.41966">
        <ele>715.6</ele>
        <time>2025-09-09T08:42:51Z</time>
      </trkpt>
      <trkpt lat="46.01309" lon="4.41967">
        <ele>715.8</ele>
        <time>2025-09-09T08:42:52Z</time>
      </trkpt>
      <trkpt lat="46.0131" lon="4.41968">
        <ele>715.8</ele>
        <time>2025-09-09T08:42:53Z</time>
      </trkpt>
      <trkpt lat="46.01312" lon="4.41969">
        <ele>715.8</ele>
        <time>2025-09-09T08:42:54Z</time>
      </trkpt>
      <trkpt lat="46.01314" lon="4.41972">
        <ele>715.8</ele>
        <time>2025-09-09T08:42:55Z</time>
      </trkpt>
      <trkpt lat="46.01316" lon="4.41973">
        <ele>716.2</ele>
        <time>2025-09-09T08:42:56Z</time>
      </trkpt>
      <trkpt lat="46.01318" lon="4.41975">
        <ele>716.2</ele>
        <time>2025-09-09T08:42:57Z</time>
      </trkpt>
      <trkpt lat="46.01319" lon="4.41977">
        <ele>716.4</ele>
        <time>2025-09-09T08:42:58Z</time>
      </trkpt>
      <trkpt lat="46.0132" lon="4.41977">
        <ele>716.4</ele>
        <time>2025-09-09T08:42:59Z</time>
      </trkpt>
      <trkpt lat="46.01322" lon="4.41978">
        <ele>716.4</ele>
        <time>2025-09-09T08:43:00Z</time>
      </trkpt>
      <trkpt lat="46.01324" lon="4.41978">
        <ele>716.4</ele>
        <time>2025-09-09T08:43:01Z</time>
      </trkpt>
      <trkpt lat="46.01325" lon="4.41979">
        <ele>716.4</ele>
        <time>2025-09-09T08:43:02Z</time>
      </trkpt>
      <trkpt lat="46.01327" lon="4.41981">
        <ele>716</ele>
        <time>2025-09-09T08:43:03Z</time>
      </trkpt>
      <trkpt lat="46.01328" lon="4.41983">
        <ele>716</ele>
        <time>2025-09-09T08:43:04Z</time>
      </trkpt>
      <trkpt lat="46.01328" lon="4.41983">
        <ele>716.4</ele>
        <time>2025-09-09T08:43:05Z</time>
      </trkpt>
      <trkpt lat="46.01329" lon="4.41985">
        <ele>716.4</ele>
        <time>2025-09-09T08:43:06Z</time>
      </trkpt>
      <trkpt lat="46.01331" lon="4.41986">
        <ele>716.8</ele>
        <time>2025-09-09T08:43:07Z</time>
      </trkpt>
      <trkpt lat="46.01332" lon="4.41988">
        <ele>716.8</ele>
        <time>2025-09-09T08:43:08Z</time>
      </trkpt>
      <trkpt lat="46.01333" lon="4.41989">
        <ele>716.8</ele>
        <time>2025-09-09T08:43:09Z</time>
      </trkpt>
      <trkpt lat="46.01334" lon="4.4199">
        <ele>716.8</ele>
        <time>2025-09-09T08:43:10Z</time>
      </trkpt>
      <trkpt lat="46.01335" lon="4.41992">
        <ele>716.8</ele>
        <time>2025-09-09T08:43:11Z</time>
      </trkpt>
      <trkpt lat="46.01336" lon="4.41995">
        <ele>717</ele>
        <time>2025-09-09T08:43:12Z</time>
      </trkpt>
      <trkpt lat="46.01337" lon="4.41998">
        <ele>717</ele>
        <time>2025-09-09T08:43:13Z</time>
      </trkpt>
      <trkpt lat="46.01338" lon="4.42">
        <ele>717</ele>
        <time>2025-09-09T08:43:14Z</time>
      </trkpt>
      <trkpt lat="46.01338" lon="4.42002">
        <ele>717.4</ele>
        <time>2025-09-09T08:43:15Z</time>
      </trkpt>
      <trkpt lat="46.01338" lon="4.42004">
        <ele>717.4</ele>
        <time>2025-09-09T08:43:16Z</time>
      </trkpt>
      <trkpt lat="46.01338" lon="4.42006">
        <ele>717.6</ele>
        <time>2025-09-09T08:43:17Z</time>
      </trkpt>
      <trkpt lat="46.01339" lon="4.42008">
        <ele>717.6</ele>
        <time>2025-09-09T08:43:18Z</time>
      </trkpt>
      <trkpt lat="46.01339" lon="4.4201">
        <ele>717.8</ele>
        <time>2025-09-09T08:43:19Z</time>
      </trkpt>
      <trkpt lat="46.0134" lon="4.42012">
        <ele>717.8</ele>
        <time>2025-09-09T08:43:20Z</time>
      </trkpt>
      <trkpt lat="46.01341" lon="4.42014">
        <ele>717.8</ele>
        <time>2025-09-09T08:43:21Z</time>
      </trkpt>
      <trkpt lat="46.01342" lon="4.42016">
        <ele>718.2</ele>
        <time>2025-09-09T08:43:22Z</time>
      </trkpt>
      <trkpt lat="46.01343" lon="4.42018">
        <ele>718.2</ele>
        <time>2025-09-09T08:43:23Z</time>
      </trkpt>
      <trkpt lat="46.01344" lon="4.42019">
        <ele>718.4</ele>
        <time>2025-09-09T08:43:24Z</time>
      </trkpt>
      <trkpt lat="46.01346" lon="4.42021">
        <ele>718.4</ele>
        <time>2025-09-09T08:43:25Z</time>
      </trkpt>
      <trkpt lat="46.01347" lon="4.42022">
        <ele>718.8</ele>
        <time>2025-09-09T08:43:26Z</time>
      </trkpt>
      <trkpt lat="46.0135" lon="4.42025">
        <ele>718.8</ele>
        <time>2025-09-09T08:43:27Z</time>
      </trkpt>
      <trkpt lat="46.01353" lon="4.42027">
        <ele>718.8</ele>
        <time>2025-09-09T08:43:28Z</time>
      </trkpt>
      <trkpt lat="46.01355" lon="4.42029">
        <ele>719</ele>
        <time>2025-09-09T08:43:29Z</time>
      </trkpt>
      <trkpt lat="46.01356" lon="4.4203">
        <ele>719</ele>
        <time>2025-09-09T08:43:30Z</time>
      </trkpt>
      <trkpt lat="46.01357" lon="4.42032">
        <ele>719.4</ele>
        <time>2025-09-09T08:43:31Z</time>
      </trkpt>
      <trkpt lat="46.01358" lon="4.42035">
        <ele>719.4</ele>
        <time>2025-09-09T08:43:32Z</time>
      </trkpt>
      <trkpt lat="46.01359" lon="4.42037">
        <ele>719.4</ele>
        <time>2025-09-09T08:43:33Z</time>
      </trkpt>
      <trkpt lat="46.0136" lon="4.42039">
        <ele>719.4</ele>
        <time>2025-09-09T08:43:34Z</time>
      </trkpt>
      <trkpt lat="46.01361" lon="4.4204">
        <ele>719.6</ele>
        <time>2025-09-09T08:43:35Z</time>
      </trkpt>
      <trkpt lat="46.01362" lon="4.42042">
        <ele>719.6</ele>
        <time>2025-09-09T08:43:36Z</time>
      </trkpt>
      <trkpt lat="46.01365" lon="4.42043">
        <ele>719.6</ele>
        <time>2025-09-09T08:43:37Z</time>
      </trkpt>
      <trkpt lat="46.01366" lon="4.42044">
        <ele>719.6</ele>
        <time>2025-09-09T08:43:38Z</time>
      </trkpt>
      <trkpt lat="46.01368" lon="4.42045">
        <ele>719.6</ele>
        <time>2025-09-09T08:43:39Z</time>
      </trkpt>
      <trkpt lat="46.01369" lon="4.42046">
        <ele>720</ele>
        <time>2025-09-09T08:43:40Z</time>
      </trkpt>
      <trkpt lat="46.01371" lon="4.42048">
        <ele>720</ele>
        <time>2025-09-09T08:43:41Z</time>
      </trkpt>
      <trkpt lat="46.01374" lon="4.42049">
        <ele>720.2</ele>
        <time>2025-09-09T08:43:42Z</time>
      </trkpt>
      <trkpt lat="46.01375" lon="4.4205">
        <ele>720.2</ele>
        <time>2025-09-09T08:43:43Z</time>
      </trkpt>
      <trkpt lat="46.01377" lon="4.42052">
        <ele>720.2</ele>
        <time>2025-09-09T08:43:44Z</time>
      </trkpt>
      <trkpt lat="46.01377" lon="4.42054">
        <ele>720.6</ele>
        <time>2025-09-09T08:43:45Z</time>
      </trkpt>
      <trkpt lat="46.01379" lon="4.42058">
        <ele>720.6</ele>
        <time>2025-09-09T08:43:46Z</time>
      </trkpt>
      <trkpt lat="46.01381" lon="4.42061">
        <ele>721</ele>
        <time>2025-09-09T08:43:47Z</time>
      </trkpt>
      <trkpt lat="46.01383" lon="4.42063">
        <ele>721</ele>
        <time>2025-09-09T08:43:48Z</time>
      </trkpt>
      <trkpt lat="46.01386" lon="4.42065">
        <ele>721</ele>
        <time>2025-09-09T08:43:49Z</time>
      </trkpt>
      <trkpt lat="46.01388" lon="4.42067">
        <ele>720.8</ele>
        <time>2025-09-09T08:43:50Z</time>
      </trkpt>
      <trkpt lat="46.01389" lon="4.42069">
        <ele>720.8</ele>
        <time>2025-09-09T08:43:51Z</time>
      </trkpt>
      <trkpt lat="46.01391" lon="4.42071">
        <ele>721</ele>
        <time>2025-09-09T08:43:52Z</time>
      </trkpt>
      <trkpt lat="46.01392" lon="4.42073">
        <ele>721</ele>
        <time>2025-09-09T08:43:53Z</time>
      </trkpt>
      <trkpt lat="46.01395" lon="4.42075">
        <ele>721</ele>
        <time>2025-09-09T08:43:54Z</time>
      </trkpt>
      <trkpt lat="46.01397" lon="4.42076">
        <ele>721.4</ele>
        <time>2025-09-09T08:43:55Z</time>
      </trkpt>
      <trkpt lat="46.01399" lon="4.42078">
        <ele>721.6</ele>
        <time>2025-09-09T08:43:56Z</time>
      </trkpt>
      <trkpt lat="46.01402" lon="4.42081">
        <ele>720.8</ele>
        <time>2025-09-09T08:43:57Z</time>
      </trkpt>
      <trkpt lat="46.01405" lon="4.42084">
        <ele>721</ele>
        <time>2025-09-09T08:43:58Z</time>
      </trkpt>
      <trkpt lat="46.01408" lon="4.42087">
        <ele>720.6</ele>
        <time>2025-09-09T08:43:59Z</time>
      </trkpt>
      <trkpt lat="46.0141" lon="4.4209">
        <ele>720.6</ele>
        <time>2025-09-09T08:44:00Z</time>
      </trkpt>
      <trkpt lat="46.01414" lon="4.42093">
        <ele>720.6</ele>
        <time>2025-09-09T08:44:01Z</time>
      </trkpt>
      <trkpt lat="46.01418" lon="4.42096">
        <ele>720.2</ele>
        <time>2025-09-09T08:44:02Z</time>
      </trkpt>
      <trkpt lat="46.01421" lon="4.42099">
        <ele>720</ele>
        <time>2025-09-09T08:44:03Z</time>
      </trkpt>
      <trkpt lat="46.01426" lon="4.42101">
        <ele>719.4</ele>
        <time>2025-09-09T08:44:04Z</time>
      </trkpt>
      <trkpt lat="46.01429" lon="4.42105">
        <ele>719.4</ele>
        <time>2025-09-09T08:44:05Z</time>
      </trkpt>
      <trkpt lat="46.01433" lon="4.42107">
        <ele>718.8</ele>
        <time>2025-09-09T08:44:06Z</time>
      </trkpt>
      <trkpt lat="46.01437" lon="4.42112">
        <ele>718.2</ele>
        <time>2025-09-09T08:44:07Z</time>
      </trkpt>
      <trkpt lat="46.01441" lon="4.42114">
        <ele>717.8</ele>
        <time>2025-09-09T08:44:08Z</time>
      </trkpt>
      <trkpt lat="46.01445" lon="4.42121">
        <ele>717.6</ele>
        <time>2025-09-09T08:44:09Z</time>
      </trkpt>
      <trkpt lat="46.0145" lon="4.42122">
        <ele>716.8</ele>
        <time>2025-09-09T08:44:10Z</time>
      </trkpt>
      <trkpt lat="46.01454" lon="4.42125">
        <ele>716.8</ele>
        <time>2025-09-09T08:44:11Z</time>
      </trkpt>
      <trkpt lat="46.01459" lon="4.42126">
        <ele>716.8</ele>
        <time>2025-09-09T08:44:12Z</time>
      </trkpt>
      <trkpt lat="46.01462" lon="4.42129">
        <ele>716.4</ele>
        <time>2025-09-09T08:44:13Z</time>
      </trkpt>
      <trkpt lat="46.01465" lon="4.4213">
        <ele>716.2</ele>
        <time>2025-09-09T08:44:14Z</time>
      </trkpt>
      <trkpt lat="46.01469" lon="4.42134">
        <ele>716.2</ele>
        <time>2025-09-09T08:44:15Z</time>
      </trkpt>
      <trkpt lat="46.01473" lon="4.42138">
        <ele>716.2</ele>
        <time>2025-09-09T08:44:16Z</time>
      </trkpt>
      <trkpt lat="46.01476" lon="4.42141">
        <ele>716.2</ele>
        <time>2025-09-09T08:44:17Z</time>
      </trkpt>
      <trkpt lat="46.01481" lon="4.42148">
        <ele>715.8</ele>
        <time>2025-09-09T08:44:18Z</time>
      </trkpt>
      <trkpt lat="46.01485" lon="4.42151">
        <ele>715.4</ele>
        <time>2025-09-09T08:44:19Z</time>
      </trkpt>
      <trkpt lat="46.0149" lon="4.42152">
        <ele>715.4</ele>
        <time>2025-09-09T08:44:20Z</time>
      </trkpt>
      <trkpt lat="46.01495" lon="4.42153">
        <ele>715.4</ele>
        <time>2025-09-09T08:44:21Z</time>
      </trkpt>
      <trkpt lat="46.01503" lon="4.42156">
        <ele>715.8</ele>
        <time>2025-09-09T08:44:22Z</time>
      </trkpt>
      <trkpt lat="46.01506" lon="4.42161">
        <ele>715.4</ele>
        <time>2025-09-09T08:44:23Z</time>
      </trkpt>
      <trkpt lat="46.0151" lon="4.42165">
        <ele>715.4</ele>
        <time>2025-09-09T08:44:24Z</time>
      </trkpt>
      <trkpt lat="46.01515" lon="4.42167">
        <ele>715.4</ele>
        <time>2025-09-09T08:44:25Z</time>
      </trkpt>
      <trkpt lat="46.01514" lon="4.42166">
        <ele>715.4</ele>
        <time>2025-09-09T08:44:26Z</time>
      </trkpt>
      <trkpt lat="46.01517" lon="4.42166">
        <ele>715.4</ele>
        <time>2025-09-09T08:44:27Z</time>
      </trkpt>
      <trkpt lat="46.01524" lon="4.42168">
        <ele>714.8</ele>
        <time>2025-09-09T08:44:28Z</time>
      </trkpt>
      <trkpt lat="46.01527" lon="4.42171">
        <ele>714.8</ele>
        <time>2025-09-09T08:44:29Z</time>
      </trkpt>
      <trkpt lat="46.01531" lon="4.42175">
        <ele>715.2</ele>
        <time>2025-09-09T08:44:30Z</time>
      </trkpt>
      <trkpt lat="46.01535" lon="4.42178">
        <ele>715.2</ele>
        <time>2025-09-09T08:44:31Z</time>
      </trkpt>
      <trkpt lat="46.01539" lon="4.4218">
        <ele>715.2</ele>
        <time>2025-09-09T08:44:32Z</time>
      </trkpt>
      <trkpt lat="46.01542" lon="4.42182">
        <ele>715.2</ele>
        <time>2025-09-09T08:44:33Z</time>
      </trkpt>
      <trkpt lat="46.01545" lon="4.42183">
        <ele>715.6</ele>
        <time>2025-09-09T08:44:34Z</time>
      </trkpt>
      <trkpt lat="46.01549" lon="4.42185">
        <ele>715.2</ele>
        <time>2025-09-09T08:44:35Z</time>
      </trkpt>
      <trkpt lat="46.01552" lon="4.42188">
        <ele>715.2</ele>
        <time>2025-09-09T08:44:36Z</time>
      </trkpt>
      <trkpt lat="46.01556" lon="4.42191">
        <ele>715.4</ele>
        <time>2025-09-09T08:44:37Z</time>
      </trkpt>
      <trkpt lat="46.01559" lon="4.42194">
        <ele>715.4</ele>
        <time>2025-09-09T08:44:38Z</time>
      </trkpt>
      <trkpt lat="46.01562" lon="4.42197">
        <ele>715.4</ele>
        <time>2025-09-09T08:44:39Z</time>
      </trkpt>
      <trkpt lat="46.01565" lon="4.422">
        <ele>715.4</ele>
        <time>2025-09-09T08:44:40Z</time>
      </trkpt>
      <trkpt lat="46.01569" lon="4.42203">
        <ele>715.2</ele>
        <time>2025-09-09T08:44:41Z</time>
      </trkpt>
      <trkpt lat="46.01573" lon="4.42205">
        <ele>715.4</ele>
        <time>2025-09-09T08:44:42Z</time>
      </trkpt>
      <trkpt lat="46.01576" lon="4.42208">
        <ele>715.4</ele>
        <time>2025-09-09T08:44:43Z</time>
      </trkpt>
      <trkpt lat="46.0158" lon="4.4221">
        <ele>715.4</ele>
        <time>2025-09-09T08:44:44Z</time>
      </trkpt>
      <trkpt lat="46.01584" lon="4.42213">
        <ele>715.4</ele>
        <time>2025-09-09T08:44:45Z</time>
      </trkpt>
      <trkpt lat="46.01587" lon="4.42215">
        <ele>715.6</ele>
        <time>2025-09-09T08:44:46Z</time>
      </trkpt>
      <trkpt lat="46.0159" lon="4.42218">
        <ele>715.6</ele>
        <time>2025-09-09T08:44:47Z</time>
      </trkpt>
      <trkpt lat="46.01593" lon="4.4222">
        <ele>716.2</ele>
        <time>2025-09-09T08:44:48Z</time>
      </trkpt>
      <trkpt lat="46.01597" lon="4.42222">
        <ele>716.2</ele>
        <time>2025-09-09T08:44:49Z</time>
      </trkpt>
      <trkpt lat="46.016" lon="4.42225">
        <ele>716.2</ele>
        <time>2025-09-09T08:44:50Z</time>
      </trkpt>
      <trkpt lat="46.01604" lon="4.42228">
        <ele>715.8</ele>
        <time>2025-09-09T08:44:51Z</time>
      </trkpt>
      <trkpt lat="46.01607" lon="4.4223">
        <ele>715.2</ele>
        <time>2025-09-09T08:44:52Z</time>
      </trkpt>
      <trkpt lat="46.01607" lon="4.4223">
        <ele>715.6</ele>
        <time>2025-09-09T08:44:53Z</time>
      </trkpt>
      <trkpt lat="46.0161" lon="4.42234">
        <ele>715.6</ele>
        <time>2025-09-09T08:44:54Z</time>
      </trkpt>
      <trkpt lat="46.01614" lon="4.42237">
        <ele>715.2</ele>
        <time>2025-09-09T08:44:55Z</time>
      </trkpt>
      <trkpt lat="46.01617" lon="4.42239">
        <ele>715.2</ele>
        <time>2025-09-09T08:44:56Z</time>
      </trkpt>
      <trkpt lat="46.0162" lon="4.42243">
        <ele>715.2</ele>
        <time>2025-09-09T08:44:57Z</time>
      </trkpt>
      <trkpt lat="46.01623" lon="4.42246">
        <ele>715.2</ele>
        <time>2025-09-09T08:44:58Z</time>
      </trkpt>
      <trkpt lat="46.01626" lon="4.42249">
        <ele>715.4</ele>
        <time>2025-09-09T08:44:59Z</time>
      </trkpt>
      <trkpt lat="46.01629" lon="4.42251">
        <ele>716</ele>
        <time>2025-09-09T08:45:00Z</time>
      </trkpt>
      <trkpt lat="46.01631" lon="4.42253">
        <ele>716.2</ele>
        <time>2025-09-09T08:45:01Z</time>
      </trkpt>
      <trkpt lat="46.01633" lon="4.42255">
        <ele>716.2</ele>
        <time>2025-09-09T08:45:02Z</time>
      </trkpt>
      <trkpt lat="46.01636" lon="4.42257">
        <ele>716</ele>
        <time>2025-09-09T08:45:03Z</time>
      </trkpt>
      <trkpt lat="46.01638" lon="4.42259">
        <ele>716</ele>
        <time>2025-09-09T08:45:04Z</time>
      </trkpt>
      <trkpt lat="46.0164" lon="4.42261">
        <ele>716</ele>
        <time>2025-09-09T08:45:05Z</time>
      </trkpt>
      <trkpt lat="46.01643" lon="4.42264">
        <ele>716</ele>
        <time>2025-09-09T08:45:06Z</time>
      </trkpt>
      <trkpt lat="46.01645" lon="4.42266">
        <ele>716</ele>
        <time>2025-09-09T08:45:07Z</time>
      </trkpt>
      <trkpt lat="46.01647" lon="4.42267">
        <ele>716</ele>
        <time>2025-09-09T08:45:08Z</time>
      </trkpt>
      <trkpt lat="46.01649" lon="4.42269">
        <ele>716</ele>
        <time>2025-09-09T08:45:09Z</time>
      </trkpt>
      <trkpt lat="46.01651" lon="4.4227">
        <ele>716</ele>
        <time>2025-09-09T08:45:10Z</time>
      </trkpt>
      <trkpt lat="46.01653" lon="4.42271">
        <ele>716</ele>
        <time>2025-09-09T08:45:11Z</time>
      </trkpt>
      <trkpt lat="46.01656" lon="4.42272">
        <ele>716.2</ele>
        <time>2025-09-09T08:45:12Z</time>
      </trkpt>
      <trkpt lat="46.01658" lon="4.42273">
        <ele>716.2</ele>
        <time>2025-09-09T08:45:13Z</time>
      </trkpt>
      <trkpt lat="46.01661" lon="4.42273">
        <ele>716.2</ele>
        <time>2025-09-09T08:45:14Z</time>
      </trkpt>
      <trkpt lat="46.01664" lon="4.42273">
        <ele>716.2</ele>
        <time>2025-09-09T08:45:15Z</time>
      </trkpt>
      <trkpt lat="46.01667" lon="4.42274">
        <ele>716.6</ele>
        <time>2025-09-09T08:45:16Z</time>
      </trkpt>
      <trkpt lat="46.01669" lon="4.42276">
        <ele>716.6</ele>
        <time>2025-09-09T08:45:17Z</time>
      </trkpt>
      <trkpt lat="46.01672" lon="4.42277">
        <ele>716.6</ele>
        <time>2025-09-09T08:45:18Z</time>
      </trkpt>
      <trkpt lat="46.01674" lon="4.42279">
        <ele>716.6</ele>
        <time>2025-09-09T08:45:19Z</time>
      </trkpt>
      <trkpt lat="46.01676" lon="4.42281">
        <ele>716.6</ele>
        <time>2025-09-09T08:45:20Z</time>
      </trkpt>
      <trkpt lat="46.01678" lon="4.42282">
        <ele>716.8</ele>
        <time>2025-09-09T08:45:21Z</time>
      </trkpt>
      <trkpt lat="46.0168" lon="4.42283">
        <ele>716.8</ele>
        <time>2025-09-09T08:45:22Z</time>
      </trkpt>
      <trkpt lat="46.01681" lon="4.42285">
        <ele>717.2</ele>
        <time>2025-09-09T08:45:23Z</time>
      </trkpt>
      <trkpt lat="46.01683" lon="4.42287">
        <ele>717.2</ele>
        <time>2025-09-09T08:45:24Z</time>
      </trkpt>
      <trkpt lat="46.01685" lon="4.42289">
        <ele>717.2</ele>
        <time>2025-09-09T08:45:25Z</time>
      </trkpt>
      <trkpt lat="46.01687" lon="4.4229">
        <ele>717.2</ele>
        <time>2025-09-09T08:45:26Z</time>
      </trkpt>
      <trkpt lat="46.0169" lon="4.42292">
        <ele>717.4</ele>
        <time>2025-09-09T08:45:27Z</time>
      </trkpt>
      <trkpt lat="46.01693" lon="4.42293">
        <ele>717.4</ele>
        <time>2025-09-09T08:45:28Z</time>
      </trkpt>
      <trkpt lat="46.01697" lon="4.42293">
        <ele>717.4</ele>
        <time>2025-09-09T08:45:29Z</time>
      </trkpt>
      <trkpt lat="46.017" lon="4.42294">
        <ele>717.4</ele>
        <time>2025-09-09T08:45:30Z</time>
      </trkpt>
      <trkpt lat="46.01702" lon="4.42294">
        <ele>717.4</ele>
        <time>2025-09-09T08:45:31Z</time>
      </trkpt>
      <trkpt lat="46.01705" lon="4.42295">
        <ele>717.8</ele>
        <time>2025-09-09T08:45:32Z</time>
      </trkpt>
      <trkpt lat="46.01707" lon="4.42295">
        <ele>717.8</ele>
        <time>2025-09-09T08:45:33Z</time>
      </trkpt>
      <trkpt lat="46.0171" lon="4.42296">
        <ele>717.8</ele>
        <time>2025-09-09T08:45:34Z</time>
      </trkpt>
      <trkpt lat="46.01713" lon="4.42296">
        <ele>717.8</ele>
        <time>2025-09-09T08:45:35Z</time>
      </trkpt>
      <trkpt lat="46.01715" lon="4.42297">
        <ele>718</ele>
        <time>2025-09-09T08:45:36Z</time>
      </trkpt>
      <trkpt lat="46.01717" lon="4.42298">
        <ele>718</ele>
        <time>2025-09-09T08:45:37Z</time>
      </trkpt>
      <trkpt lat="46.0172" lon="4.423">
        <ele>718.2</ele>
        <time>2025-09-09T08:45:38Z</time>
      </trkpt>
      <trkpt lat="46.01722" lon="4.42302">
        <ele>718.2</ele>
        <time>2025-09-09T08:45:39Z</time>
      </trkpt>
      <trkpt lat="46.01724" lon="4.42304">
        <ele>718.4</ele>
        <time>2025-09-09T08:45:40Z</time>
      </trkpt>
      <trkpt lat="46.01726" lon="4.42305">
        <ele>718.4</ele>
        <time>2025-09-09T08:45:41Z</time>
      </trkpt>
      <trkpt lat="46.01728" lon="4.42307">
        <ele>718.4</ele>
        <time>2025-09-09T08:45:42Z</time>
      </trkpt>
      <trkpt lat="46.01729" lon="4.42309">
        <ele>718.4</ele>
        <time>2025-09-09T08:45:43Z</time>
      </trkpt>
      <trkpt lat="46.0173" lon="4.42311">
        <ele>718.4</ele>
        <time>2025-09-09T08:45:44Z</time>
      </trkpt>
      <trkpt lat="46.01731" lon="4.42312">
        <ele>718.8</ele>
        <time>2025-09-09T08:45:45Z</time>
      </trkpt>
      <trkpt lat="46.01732" lon="4.42314">
        <ele>718.8</ele>
        <time>2025-09-09T08:45:46Z</time>
      </trkpt>
      <trkpt lat="46.01734" lon="4.42315">
        <ele>718.8</ele>
        <time>2025-09-09T08:45:47Z</time>
      </trkpt>
      <trkpt lat="46.01736" lon="4.42316">
        <ele>718.8</ele>
        <time>2025-09-09T08:45:48Z</time>
      </trkpt>
      <trkpt lat="46.01739" lon="4.42317">
        <ele>718.8</ele>
        <time>2025-09-09T08:45:49Z</time>
      </trkpt>
      <trkpt lat="46.0174" lon="4.42317">
        <ele>719</ele>
        <time>2025-09-09T08:45:50Z</time>
      </trkpt>
      <trkpt lat="46.01741" lon="4.42318">
        <ele>719</ele>
        <time>2025-09-09T08:45:51Z</time>
      </trkpt>
      <trkpt lat="46.01742" lon="4.42319">
        <ele>719.4</ele>
        <time>2025-09-09T08:45:52Z</time>
      </trkpt>
      <trkpt lat="46.01743" lon="4.42321">
        <ele>719.6</ele>
        <time>2025-09-09T08:45:53Z</time>
      </trkpt>
      <trkpt lat="46.01744" lon="4.42321">
        <ele>719.6</ele>
        <time>2025-09-09T08:45:54Z</time>
      </trkpt>
      <trkpt lat="46.01744" lon="4.42322">
        <ele>719.8</ele>
        <time>2025-09-09T08:45:55Z</time>
      </trkpt>
      <trkpt lat="46.01746" lon="4.42323">
        <ele>719.8</ele>
        <time>2025-09-09T08:45:56Z</time>
      </trkpt>
      <trkpt lat="46.01747" lon="4.42324">
        <ele>719.8</ele>
        <time>2025-09-09T08:45:57Z</time>
      </trkpt>
      <trkpt lat="46.01749" lon="4.42325">
        <ele>720.4</ele>
        <time>2025-09-09T08:45:58Z</time>
      </trkpt>
      <trkpt lat="46.0175" lon="4.42326">
        <ele>720.4</ele>
        <time>2025-09-09T08:45:59Z</time>
      </trkpt>
      <trkpt lat="46.01752" lon="4.42327">
        <ele>720.4</ele>
        <time>2025-09-09T08:46:00Z</time>
      </trkpt>
      <trkpt lat="46.01752" lon="4.42329">
        <ele>720.4</ele>
        <time>2025-09-09T08:46:01Z</time>
      </trkpt>
      <trkpt lat="46.01754" lon="4.42331">
        <ele>720.4</ele>
        <time>2025-09-09T08:46:02Z</time>
      </trkpt>
      <trkpt lat="46.01755" lon="4.42332">
        <ele>720.6</ele>
        <time>2025-09-09T08:46:03Z</time>
      </trkpt>
      <trkpt lat="46.01757" lon="4.42333">
        <ele>720.6</ele>
        <time>2025-09-09T08:46:04Z</time>
      </trkpt>
      <trkpt lat="46.0176" lon="4.42334">
        <ele>720.8</ele>
        <time>2025-09-09T08:46:05Z</time>
      </trkpt>
      <trkpt lat="46.01763" lon="4.42335">
        <ele>720.8</ele>
        <time>2025-09-09T08:46:06Z</time>
      </trkpt>
      <trkpt lat="46.01765" lon="4.42335">
        <ele>720.8</ele>
        <time>2025-09-09T08:46:07Z</time>
      </trkpt>
      <trkpt lat="46.01766" lon="4.42335">
        <ele>720.8</ele>
        <time>2025-09-09T08:46:08Z</time>
      </trkpt>
      <trkpt lat="46.01766" lon="4.42335">
        <ele>720.8</ele>
        <time>2025-09-09T08:46:09Z</time>
      </trkpt>
      <trkpt lat="46.01766" lon="4.42335">
        <ele>720.8</ele>
        <time>2025-09-09T08:46:10Z</time>
      </trkpt>
      <trkpt lat="46.01772" lon="4.4234">
        <ele>720.8</ele>
        <time>2025-09-09T08:46:12Z</time>
      </trkpt>
      <trkpt lat="46.01775" lon="4.4234">
        <ele>720.8</ele>
        <time>2025-09-09T08:46:13Z</time>
      </trkpt>
      <trkpt lat="46.01776" lon="4.4234">
        <ele>721.2</ele>
        <time>2025-09-09T08:46:14Z</time>
      </trkpt>
      <trkpt lat="46.01778" lon="4.42341">
        <ele>721.2</ele>
        <time>2025-09-09T08:46:15Z</time>
      </trkpt>
      <trkpt lat="46.01779" lon="4.42343">
        <ele>721.2</ele>
        <time>2025-09-09T08:46:16Z</time>
      </trkpt>
      <trkpt lat="46.01781" lon="4.42344">
        <ele>721.2</ele>
        <time>2025-09-09T08:46:17Z</time>
      </trkpt>
      <trkpt lat="46.01782" lon="4.42344">
        <ele>721.4</ele>
        <time>2025-09-09T08:46:18Z</time>
      </trkpt>
      <trkpt lat="46.01785" lon="4.42344">
        <ele>721.4</ele>
        <time>2025-09-09T08:46:19Z</time>
      </trkpt>
      <trkpt lat="46.01787" lon="4.42344">
        <ele>721.6</ele>
        <time>2025-09-09T08:46:20Z</time>
      </trkpt>
      <trkpt lat="46.01789" lon="4.42344">
        <ele>721.6</ele>
        <time>2025-09-09T08:46:21Z</time>
      </trkpt>
      <trkpt lat="46.0179" lon="4.42345">
        <ele>721.6</ele>
        <time>2025-09-09T08:46:22Z</time>
      </trkpt>
      <trkpt lat="46.01791" lon="4.42346">
        <ele>721.6</ele>
        <time>2025-09-09T08:46:23Z</time>
      </trkpt>
      <trkpt lat="46.01792" lon="4.42346">
        <ele>721.8</ele>
        <time>2025-09-09T08:46:24Z</time>
      </trkpt>
      <trkpt lat="46.01793" lon="4.42347">
        <ele>721.8</ele>
        <time>2025-09-09T08:46:25Z</time>
      </trkpt>
      <trkpt lat="46.01793" lon="4.42348">
        <ele>722.2</ele>
        <time>2025-09-09T08:46:26Z</time>
      </trkpt>
      <trkpt lat="46.01794" lon="4.42348">
        <ele>722.2</ele>
        <time>2025-09-09T08:46:27Z</time>
      </trkpt>
      <trkpt lat="46.01795" lon="4.42349">
        <ele>722.2</ele>
        <time>2025-09-09T08:46:28Z</time>
      </trkpt>
      <trkpt lat="46.01797" lon="4.42349">
        <ele>722.4</ele>
        <time>2025-09-09T08:46:29Z</time>
      </trkpt>
      <trkpt lat="46.01798" lon="4.42348">
        <ele>722.4</ele>
        <time>2025-09-09T08:46:30Z</time>
      </trkpt>
      <trkpt lat="46.018" lon="4.42348">
        <ele>722.4</ele>
        <time>2025-09-09T08:46:31Z</time>
      </trkpt>
      <trkpt lat="46.01801" lon="4.42348">
        <ele>722.4</ele>
        <time>2025-09-09T08:46:32Z</time>
      </trkpt>
      <trkpt lat="46.01802" lon="4.42347">
        <ele>722.8</ele>
        <time>2025-09-09T08:46:33Z</time>
      </trkpt>
      <trkpt lat="46.01803" lon="4.42346">
        <ele>722.8</ele>
        <time>2025-09-09T08:46:34Z</time>
      </trkpt>
      <trkpt lat="46.01805" lon="4.42345">
        <ele>723.2</ele>
        <time>2025-09-09T08:46:35Z</time>
      </trkpt>
      <trkpt lat="46.01805" lon="4.42345">
        <ele>723.2</ele>
        <time>2025-09-09T08:46:36Z</time>
      </trkpt>
      <trkpt lat="46.01807" lon="4.42343">
        <ele>723.8</ele>
        <time>2025-09-09T08:46:53Z</time>
      </trkpt>
      <trkpt lat="46.01808" lon="4.42342">
        <ele>723.8</ele>
        <time>2025-09-09T08:46:54Z</time>
      </trkpt>
      <trkpt lat="46.01809" lon="4.42342">
        <ele>724</ele>
        <time>2025-09-09T08:46:55Z</time>
      </trkpt>
      <trkpt lat="46.0181" lon="4.42341">
        <ele>724</ele>
        <time>2025-09-09T08:47:01Z</time>
      </trkpt>
      <trkpt lat="46.01811" lon="4.4234">
        <ele>724</ele>
        <time>2025-09-09T08:47:02Z</time>
      </trkpt>
      <trkpt lat="46.01811" lon="4.42339">
        <ele>724</ele>
        <time>2025-09-09T08:47:03Z</time>
      </trkpt>
      <trkpt lat="46.01813" lon="4.42339">
        <ele>724</ele>
        <time>2025-09-09T08:47:04Z</time>
      </trkpt>
      <trkpt lat="46.01814" lon="4.42339">
        <ele>724</ele>
        <time>2025-09-09T08:47:05Z</time>
      </trkpt>
      <trkpt lat="46.01816" lon="4.42339">
        <ele>724.2</ele>
        <time>2025-09-09T08:47:06Z</time>
      </trkpt>
      <trkpt lat="46.01818" lon="4.42339">
        <ele>724.2</ele>
        <time>2025-09-09T08:47:07Z</time>
      </trkpt>
      <trkpt lat="46.0182" lon="4.4234">
        <ele>724.2</ele>
        <time>2025-09-09T08:47:08Z</time>
      </trkpt>
      <trkpt lat="46.0182" lon="4.42341">
        <ele>724.2</ele>
        <time>2025-09-09T08:47:09Z</time>
      </trkpt>
      <trkpt lat="46.01821" lon="4.4234">
        <ele>724.2</ele>
        <time>2025-09-09T08:47:10Z</time>
      </trkpt>
      <trkpt lat="46.01821" lon="4.4234">
        <ele>724.4</ele>
        <time>2025-09-09T08:47:11Z</time>
      </trkpt>
      <trkpt lat="46.01822" lon="4.42339">
        <ele>724.4</ele>
        <time>2025-09-09T08:47:12Z</time>
      </trkpt>
      <trkpt lat="46.01824" lon="4.42338">
        <ele>724.8</ele>
        <time>2025-09-09T08:47:13Z</time>
      </trkpt>
      <trkpt lat="46.01825" lon="4.42337">
        <ele>724.8</ele>
        <time>2025-09-09T08:47:14Z</time>
      </trkpt>
      <trkpt lat="46.01827" lon="4.42336">
        <ele>725</ele>
        <time>2025-09-09T08:47:15Z</time>
      </trkpt>
      <trkpt lat="46.01829" lon="4.42335">
        <ele>725</ele>
        <time>2025-09-09T08:47:16Z</time>
      </trkpt>
      <trkpt lat="46.0183" lon="4.42335">
        <ele>725</ele>
        <time>2025-09-09T08:47:17Z</time>
      </trkpt>
      <trkpt lat="46.01831" lon="4.42334">
        <ele>725.4</ele>
        <time>2025-09-09T08:47:18Z</time>
      </trkpt>
      <trkpt lat="46.01832" lon="4.42334">
        <ele>725.4</ele>
        <time>2025-09-09T08:47:19Z</time>
      </trkpt>
      <trkpt lat="46.01833" lon="4.42333">
        <ele>725.6</ele>
        <time>2025-09-09T08:47:20Z</time>
      </trkpt>
      <trkpt lat="46.01834" lon="4.42333">
        <ele>725.6</ele>
        <time>2025-09-09T08:47:21Z</time>
      </trkpt>
      <trkpt lat="46.01835" lon="4.42332">
        <ele>725.6</ele>
        <time>2025-09-09T08:47:22Z</time>
      </trkpt>
      <trkpt lat="46.01837" lon="4.42331">
        <ele>725.6</ele>
        <time>2025-09-09T08:47:23Z</time>
      </trkpt>
      <trkpt lat="46.01839" lon="4.4233">
        <ele>725.8</ele>
        <time>2025-09-09T08:47:24Z</time>
      </trkpt>
      <trkpt lat="46.01841" lon="4.4233">
        <ele>725.8</ele>
        <time>2025-09-09T08:47:25Z</time>
      </trkpt>
      <trkpt lat="46.01842" lon="4.4233">
        <ele>725.8</ele>
        <time>2025-09-09T08:47:26Z</time>
      </trkpt>
      <trkpt lat="46.01844" lon="4.4233">
        <ele>726</ele>
        <time>2025-09-09T08:47:27Z</time>
      </trkpt>
      <trkpt lat="46.01845" lon="4.42329">
        <ele>726</ele>
        <time>2025-09-09T08:47:28Z</time>
      </trkpt>
      <trkpt lat="46.01846" lon="4.42329">
        <ele>726</ele>
        <time>2025-09-09T08:47:29Z</time>
      </trkpt>
      <trkpt lat="46.01847" lon="4.42329">
        <ele>726.4</ele>
        <time>2025-09-09T08:47:30Z</time>
      </trkpt>
      <trkpt lat="46.01849" lon="4.42329">
        <ele>726.4</ele>
        <time>2025-09-09T08:47:31Z</time>
      </trkpt>
      <trkpt lat="46.0185" lon="4.4233">
        <ele>726.4</ele>
        <time>2025-09-09T08:47:32Z</time>
      </trkpt>
      <trkpt lat="46.01852" lon="4.4233">
        <ele>726.4</ele>
        <time>2025-09-09T08:47:33Z</time>
      </trkpt>
      <trkpt lat="46.01853" lon="4.4233">
        <ele>726.4</ele>
        <time>2025-09-09T08:47:34Z</time>
      </trkpt>
      <trkpt lat="46.01853" lon="4.42329">
        <ele>726.8</ele>
        <time>2025-09-09T08:47:35Z</time>
      </trkpt>
      <trkpt lat="46.01854" lon="4.42329">
        <ele>726.8</ele>
        <time>2025-09-09T08:47:36Z</time>
      </trkpt>
      <trkpt lat="46.01854" lon="4.42328">
        <ele>726.8</ele>
        <time>2025-09-09T08:47:37Z</time>
      </trkpt>
      <trkpt lat="46.01855" lon="4.42327">
        <ele>727</ele>
        <time>2025-09-09T08:47:38Z</time>
      </trkpt>
      <trkpt lat="46.01856" lon="4.42326">
        <ele>727</ele>
        <time>2025-09-09T08:47:39Z</time>
      </trkpt>
      <trkpt lat="46.01857" lon="4.42325">
        <ele>727.2</ele>
        <time>2025-09-09T08:47:40Z</time>
      </trkpt>
      <trkpt lat="46.01857" lon="4.42325">
        <ele>727.2</ele>
        <time>2025-09-09T08:47:41Z</time>
      </trkpt>
      <trkpt lat="46.01859" lon="4.42325">
        <ele>727.6</ele>
        <time>2025-09-09T08:47:42Z</time>
      </trkpt>
      <trkpt lat="46.0186" lon="4.42325">
        <ele>727.6</ele>
        <time>2025-09-09T08:47:43Z</time>
      </trkpt>
      <trkpt lat="46.0186" lon="4.42325">
        <ele>727.6</ele>
        <time>2025-09-09T08:47:44Z</time>
      </trkpt>
      <trkpt lat="46.01861" lon="4.42324">
        <ele>727.6</ele>
        <time>2025-09-09T08:47:45Z</time>
      </trkpt>
      <trkpt lat="46.01862" lon="4.42323">
        <ele>727.6</ele>
        <time>2025-09-09T08:47:46Z</time>
      </trkpt>
      <trkpt lat="46.01864" lon="4.42322">
        <ele>727.6</ele>
        <time>2025-09-09T08:47:47Z</time>
      </trkpt>
      <trkpt lat="46.01865" lon="4.42321">
        <ele>728</ele>
        <time>2025-09-09T08:47:48Z</time>
      </trkpt>
      <trkpt lat="46.01866" lon="4.4232">
        <ele>728</ele>
        <time>2025-09-09T08:47:49Z</time>
      </trkpt>
      <trkpt lat="46.01867" lon="4.42319">
        <ele>728</ele>
        <time>2025-09-09T08:47:50Z</time>
      </trkpt>
      <trkpt lat="46.01868" lon="4.42318">
        <ele>728</ele>
        <time>2025-09-09T08:47:51Z</time>
      </trkpt>
      <trkpt lat="46.01869" lon="4.42318">
        <ele>728</ele>
        <time>2025-09-09T08:47:52Z</time>
      </trkpt>
      <trkpt lat="46.0187" lon="4.42317">
        <ele>728</ele>
        <time>2025-09-09T08:47:53Z</time>
      </trkpt>
      <trkpt lat="46.01871" lon="4.42316">
        <ele>728.4</ele>
        <time>2025-09-09T08:47:54Z</time>
      </trkpt>
      <trkpt lat="46.01873" lon="4.42315">
        <ele>728.4</ele>
        <time>2025-09-09T08:47:55Z</time>
      </trkpt>
      <trkpt lat="46.01874" lon="4.42314">
        <ele>728.4</ele>
        <time>2025-09-09T08:47:56Z</time>
      </trkpt>
      <trkpt lat="46.01875" lon="4.42313">
        <ele>728.4</ele>
        <time>2025-09-09T08:47:57Z</time>
      </trkpt>
      <trkpt lat="46.01876" lon="4.42312">
        <ele>728.6</ele>
        <time>2025-09-09T08:47:58Z</time>
      </trkpt>
      <trkpt lat="46.01876" lon="4.42311">
        <ele>728.6</ele>
        <time>2025-09-09T08:47:59Z</time>
      </trkpt>
      <trkpt lat="46.01877" lon="4.42311">
        <ele>728.8</ele>
        <time>2025-09-09T08:48:00Z</time>
      </trkpt>
      <trkpt lat="46.01878" lon="4.4231">
        <ele>728.8</ele>
        <time>2025-09-09T08:48:01Z</time>
      </trkpt>
      <trkpt lat="46.01879" lon="4.42309">
        <ele>728.8</ele>
        <time>2025-09-09T08:48:02Z</time>
      </trkpt>
      <trkpt lat="46.01879" lon="4.42308">
        <ele>728.8</ele>
        <time>2025-09-09T08:48:03Z</time>
      </trkpt>
      <trkpt lat="46.0188" lon="4.42308">
        <ele>728.8</ele>
        <time>2025-09-09T08:48:04Z</time>
      </trkpt>
      <trkpt lat="46.01881" lon="4.42307">
        <ele>728.8</ele>
        <time>2025-09-09T08:48:05Z</time>
      </trkpt>
      <trkpt lat="46.01882" lon="4.42306">
        <ele>728.8</ele>
        <time>2025-09-09T08:48:06Z</time>
      </trkpt>
      <trkpt lat="46.01883" lon="4.42305">
        <ele>728.8</ele>
        <time>2025-09-09T08:48:07Z</time>
      </trkpt>
      <trkpt lat="46.01884" lon="4.42304">
        <ele>729.2</ele>
        <time>2025-09-09T08:48:08Z</time>
      </trkpt>
      <trkpt lat="46.01884" lon="4.42302">
        <ele>729.2</ele>
        <time>2025-09-09T08:48:09Z</time>
      </trkpt>
      <trkpt lat="46.01885" lon="4.42301">
        <ele>729.2</ele>
        <time>2025-09-09T08:48:10Z</time>
      </trkpt>
      <trkpt lat="46.01885" lon="4.423">
        <ele>729.2</ele>
        <time>2025-09-09T08:48:11Z</time>
      </trkpt>
      <trkpt lat="46.01886" lon="4.42299">
        <ele>729.4</ele>
        <time>2025-09-09T08:48:12Z</time>
      </trkpt>
      <trkpt lat="46.01887" lon="4.42297">
        <ele>729.4</ele>
        <time>2025-09-09T08:48:13Z</time>
      </trkpt>
      <trkpt lat="46.01887" lon="4.42296">
        <ele>729.4</ele>
        <time>2025-09-09T08:48:14Z</time>
      </trkpt>
      <trkpt lat="46.01887" lon="4.42296">
        <ele>729.4</ele>
        <time>2025-09-09T08:48:15Z</time>
      </trkpt>
      <trkpt lat="46.01888" lon="4.42295">
        <ele>729.4</ele>
        <time>2025-09-09T08:48:16Z</time>
      </trkpt>
      <trkpt lat="46.01888" lon="4.42294">
        <ele>729.4</ele>
        <time>2025-09-09T08:48:17Z</time>
      </trkpt>
      <trkpt lat="46.01889" lon="4.42294">
        <ele>729.4</ele>
        <time>2025-09-09T08:48:18Z</time>
      </trkpt>
      <trkpt lat="46.0189" lon="4.42294">
        <ele>729.4</ele>
        <time>2025-09-09T08:48:19Z</time>
      </trkpt>
      <trkpt lat="46.0189" lon="4.42294">
        <ele>729.8</ele>
        <time>2025-09-09T08:48:20Z</time>
      </trkpt>
      <trkpt lat="46.0189" lon="4.42295">
        <ele>729.8</ele>
        <time>2025-09-09T08:48:21Z</time>
      </trkpt>
      <trkpt lat="46.0189" lon="4.42295">
        <ele>729.8</ele>
        <time>2025-09-09T08:48:22Z</time>
      </trkpt>
      <trkpt lat="46.0189" lon="4.42296">
        <ele>730</ele>
        <time>2025-09-09T08:48:23Z</time>
      </trkpt>
      <trkpt lat="46.0189" lon="4.42297">
        <ele>730.2</ele>
        <time>2025-09-09T08:48:43Z</time>
      </trkpt>
      <trkpt lat="46.0189" lon="4.42299">
        <ele>730.2</ele>
        <time>2025-09-09T08:48:44Z</time>
      </trkpt>
      <trkpt lat="46.0189" lon="4.42302">
        <ele>730.2</ele>
        <time>2025-09-09T08:48:45Z</time>
      </trkpt>
      <trkpt lat="46.0189" lon="4.42304">
        <ele>730.2</ele>
        <time>2025-09-09T08:48:46Z</time>
      </trkpt>
      <trkpt lat="46.01891" lon="4.42307">
        <ele>730.2</ele>
        <time>2025-09-09T08:48:47Z</time>
      </trkpt>
      <trkpt lat="46.01891" lon="4.4231">
        <ele>730.2</ele>
        <time>2025-09-09T08:48:48Z</time>
      </trkpt>
      <trkpt lat="46.01891" lon="4.42313">
        <ele>730.2</ele>
        <time>2025-09-09T08:48:49Z</time>
      </trkpt>
      <trkpt lat="46.01892" lon="4.42314">
        <ele>730.2</ele>
        <time>2025-09-09T08:48:50Z</time>
      </trkpt>
      <trkpt lat="46.01893" lon="4.42315">
        <ele>730.8</ele>
        <time>2025-09-09T08:48:51Z</time>
      </trkpt>
      <trkpt lat="46.01895" lon="4.42316">
        <ele>730.8</ele>
        <time>2025-09-09T08:48:52Z</time>
      </trkpt>
      <trkpt lat="46.01897" lon="4.42317">
        <ele>730.8</ele>
        <time>2025-09-09T08:48:53Z</time>
      </trkpt>
      <trkpt lat="46.01897" lon="4.4232">
        <ele>731</ele>
        <time>2025-09-09T08:48:54Z</time>
      </trkpt>
      <trkpt lat="46.01898" lon="4.42322">
        <ele>731</ele>
        <time>2025-09-09T08:48:55Z</time>
      </trkpt>
      <trkpt lat="46.01898" lon="4.42325">
        <ele>731.4</ele>
        <time>2025-09-09T08:48:56Z</time>
      </trkpt>
      <trkpt lat="46.01899" lon="4.42328">
        <ele>731.4</ele>
        <time>2025-09-09T08:48:57Z</time>
      </trkpt>
      <trkpt lat="46.01899" lon="4.42332">
        <ele>731.8</ele>
        <time>2025-09-09T08:48:58Z</time>
      </trkpt>
      <trkpt lat="46.019" lon="4.42335">
        <ele>731.8</ele>
        <time>2025-09-09T08:48:59Z</time>
      </trkpt>
      <trkpt lat="46.019" lon="4.42338">
        <ele>731.8</ele>
        <time>2025-09-09T08:49:00Z</time>
      </trkpt>
      <trkpt lat="46.019" lon="4.4234">
        <ele>732.2</ele>
        <time>2025-09-09T08:49:01Z</time>
      </trkpt>
      <trkpt lat="46.019" lon="4.42342">
        <ele>732.2</ele>
        <time>2025-09-09T08:49:02Z</time>
      </trkpt>
      <trkpt lat="46.019" lon="4.42345">
        <ele>732.2</ele>
        <time>2025-09-09T08:49:03Z</time>
      </trkpt>
      <trkpt lat="46.01901" lon="4.42348">
        <ele>732.4</ele>
        <time>2025-09-09T08:49:04Z</time>
      </trkpt>
      <trkpt lat="46.01901" lon="4.4235">
        <ele>732.4</ele>
        <time>2025-09-09T08:49:05Z</time>
      </trkpt>
      <trkpt lat="46.01902" lon="4.42352">
        <ele>732.4</ele>
        <time>2025-09-09T08:49:06Z</time>
      </trkpt>
      <trkpt lat="46.01902" lon="4.42355">
        <ele>733</ele>
        <time>2025-09-09T08:49:07Z</time>
      </trkpt>
      <trkpt lat="46.01902" lon="4.42357">
        <ele>733</ele>
        <time>2025-09-09T08:49:08Z</time>
      </trkpt>
      <trkpt lat="46.01902" lon="4.4236">
        <ele>733</ele>
        <time>2025-09-09T08:49:09Z</time>
      </trkpt>
      <trkpt lat="46.01902" lon="4.42363">
        <ele>733.2</ele>
        <time>2025-09-09T08:49:10Z</time>
      </trkpt>
      <trkpt lat="46.01901" lon="4.42366">
        <ele>733.2</ele>
        <time>2025-09-09T08:49:11Z</time>
      </trkpt>
      <trkpt lat="46.01901" lon="4.4237">
        <ele>733.2</ele>
        <time>2025-09-09T08:49:12Z</time>
      </trkpt>
      <trkpt lat="46.019" lon="4.42372">
        <ele>733.2</ele>
        <time>2025-09-09T08:49:13Z</time>
      </trkpt>
      <trkpt lat="46.01899" lon="4.42376">
        <ele>733.6</ele>
        <time>2025-09-09T08:49:14Z</time>
      </trkpt>
      <trkpt lat="46.01898" lon="4.4238">
        <ele>733.8</ele>
        <time>2025-09-09T08:49:15Z</time>
      </trkpt>
      <trkpt lat="46.01897" lon="4.42383">
        <ele>733.8</ele>
        <time>2025-09-09T08:49:16Z</time>
      </trkpt>
      <trkpt lat="46.01897" lon="4.42387">
        <ele>733.8</ele>
        <time>2025-09-09T08:49:17Z</time>
      </trkpt>
      <trkpt lat="46.01897" lon="4.42391">
        <ele>734.2</ele>
        <time>2025-09-09T08:49:18Z</time>
      </trkpt>
      <trkpt lat="46.01897" lon="4.42393">
        <ele>734.2</ele>
        <time>2025-09-09T08:49:19Z</time>
      </trkpt>
      <trkpt lat="46.01898" lon="4.42395">
        <ele>734.4</ele>
        <time>2025-09-09T08:49:20Z</time>
      </trkpt>
      <trkpt lat="46.01899" lon="4.42397">
        <ele>734.4</ele>
        <time>2025-09-09T08:49:21Z</time>
      </trkpt>
      <trkpt lat="46.01899" lon="4.42399">
        <ele>734.8</ele>
        <time>2025-09-09T08:49:22Z</time>
      </trkpt>
      <trkpt lat="46.01898" lon="4.42401">
        <ele>735</ele>
        <time>2025-09-09T08:49:23Z</time>
      </trkpt>
      <trkpt lat="46.01898" lon="4.42403">
        <ele>735.2</ele>
        <time>2025-09-09T08:49:24Z</time>
      </trkpt>
      <trkpt lat="46.01897" lon="4.42406">
        <ele>735.2</ele>
        <time>2025-09-09T08:49:25Z</time>
      </trkpt>
      <trkpt lat="46.01897" lon="4.42409">
        <ele>735.4</ele>
        <time>2025-09-09T08:49:26Z</time>
      </trkpt>
      <trkpt lat="46.01896" lon="4.42412">
        <ele>735.4</ele>
        <time>2025-09-09T08:49:27Z</time>
      </trkpt>
      <trkpt lat="46.01896" lon="4.42415">
        <ele>735.8</ele>
        <time>2025-09-09T08:49:28Z</time>
      </trkpt>
      <trkpt lat="46.01896" lon="4.42417">
        <ele>735.8</ele>
        <time>2025-09-09T08:49:29Z</time>
      </trkpt>
      <trkpt lat="46.01895" lon="4.42421">
        <ele>735.8</ele>
        <time>2025-09-09T08:49:30Z</time>
      </trkpt>
      <trkpt lat="46.01895" lon="4.42424">
        <ele>736</ele>
        <time>2025-09-09T08:49:31Z</time>
      </trkpt>
      <trkpt lat="46.01895" lon="4.42427">
        <ele>736</ele>
        <time>2025-09-09T08:49:32Z</time>
      </trkpt>
      <trkpt lat="46.01895" lon="4.4243">
        <ele>736</ele>
        <time>2025-09-09T08:49:33Z</time>
      </trkpt>
      <trkpt lat="46.01894" lon="4.42433">
        <ele>736.4</ele>
        <time>2025-09-09T08:49:34Z</time>
      </trkpt>
      <trkpt lat="46.01894" lon="4.42435">
        <ele>736.4</ele>
        <time>2025-09-09T08:49:35Z</time>
      </trkpt>
      <trkpt lat="46.01894" lon="4.42437">
        <ele>736.8</ele>
        <time>2025-09-09T08:49:36Z</time>
      </trkpt>
      <trkpt lat="46.01894" lon="4.42439">
        <ele>736.8</ele>
        <time>2025-09-09T08:49:37Z</time>
      </trkpt>
      <trkpt lat="46.01894" lon="4.42442">
        <ele>736.8</ele>
        <time>2025-09-09T08:49:38Z</time>
      </trkpt>
      <trkpt lat="46.01894" lon="4.42444">
        <ele>737</ele>
        <time>2025-09-09T08:49:39Z</time>
      </trkpt>
      <trkpt lat="46.01894" lon="4.42447">
        <ele>737</ele>
        <time>2025-09-09T08:49:40Z</time>
      </trkpt>
      <trkpt lat="46.01893" lon="4.42449">
        <ele>737.2</ele>
        <time>2025-09-09T08:49:41Z</time>
      </trkpt>
      <trkpt lat="46.01892" lon="4.42452">
        <ele>737.2</ele>
        <time>2025-09-09T08:49:42Z</time>
      </trkpt>
      <trkpt lat="46.01892" lon="4.42455">
        <ele>737.6</ele>
        <time>2025-09-09T08:49:43Z</time>
      </trkpt>
      <trkpt lat="46.01892" lon="4.42458">
        <ele>737.6</ele>
        <time>2025-09-09T08:49:44Z</time>
      </trkpt>
      <trkpt lat="46.01891" lon="4.42461">
        <ele>737.6</ele>
        <time>2025-09-09T08:49:45Z</time>
      </trkpt>
      <trkpt lat="46.01891" lon="4.42463">
        <ele>737.8</ele>
        <time>2025-09-09T08:49:46Z</time>
      </trkpt>
      <trkpt lat="46.01891" lon="4.42464">
        <ele>737.8</ele>
        <time>2025-09-09T08:49:47Z</time>
      </trkpt>
      <trkpt lat="46.01891" lon="4.42466">
        <ele>737.8</ele>
        <time>2025-09-09T08:49:48Z</time>
      </trkpt>
      <trkpt lat="46.01891" lon="4.42468">
        <ele>737.8</ele>
        <time>2025-09-09T08:49:49Z</time>
      </trkpt>
      <trkpt lat="46.0189" lon="4.42471">
        <ele>738</ele>
        <time>2025-09-09T08:49:50Z</time>
      </trkpt>
      <trkpt lat="46.01889" lon="4.42473">
        <ele>738</ele>
        <time>2025-09-09T08:49:51Z</time>
      </trkpt>
      <trkpt lat="46.01889" lon="4.42475">
        <ele>738.4</ele>
        <time>2025-09-09T08:49:52Z</time>
      </trkpt>
      <trkpt lat="46.01888" lon="4.42477">
        <ele>738.4</ele>
        <time>2025-09-09T08:49:53Z</time>
      </trkpt>
      <trkpt lat="46.01888" lon="4.4248">
        <ele>738.6</ele>
        <time>2025-09-09T08:49:54Z</time>
      </trkpt>
      <trkpt lat="46.01887" lon="4.42483">
        <ele>738.6</ele>
        <time>2025-09-09T08:49:55Z</time>
      </trkpt>
      <trkpt lat="46.01887" lon="4.42485">
        <ele>738.6</ele>
        <time>2025-09-09T08:49:56Z</time>
      </trkpt>
      <trkpt lat="46.01886" lon="4.42488">
        <ele>738.6</ele>
        <time>2025-09-09T08:49:57Z</time>
      </trkpt>
      <trkpt lat="46.01886" lon="4.42491">
        <ele>738.6</ele>
        <time>2025-09-09T08:49:58Z</time>
      </trkpt>
      <trkpt lat="46.01885" lon="4.42494">
        <ele>738.6</ele>
        <time>2025-09-09T08:49:59Z</time>
      </trkpt>
      <trkpt lat="46.01884" lon="4.42497">
        <ele>738.6</ele>
        <time>2025-09-09T08:50:00Z</time>
      </trkpt>
      <trkpt lat="46.01884" lon="4.42499">
        <ele>738.8</ele>
        <time>2025-09-09T08:50:01Z</time>
      </trkpt>
      <trkpt lat="46.01884" lon="4.42502">
        <ele>738.8</ele>
        <time>2025-09-09T08:50:02Z</time>
      </trkpt>
      <trkpt lat="46.01884" lon="4.42504">
        <ele>738.8</ele>
        <time>2025-09-09T08:50:03Z</time>
      </trkpt>
      <trkpt lat="46.01883" lon="4.42506">
        <ele>738.8</ele>
        <time>2025-09-09T08:50:04Z</time>
      </trkpt>
      <trkpt lat="46.01884" lon="4.42509">
        <ele>739.2</ele>
        <time>2025-09-09T08:50:05Z</time>
      </trkpt>
      <trkpt lat="46.01884" lon="4.42512">
        <ele>739.2</ele>
        <time>2025-09-09T08:50:06Z</time>
      </trkpt>
      <trkpt lat="46.01883" lon="4.42515">
        <ele>739.6</ele>
        <time>2025-09-09T08:50:07Z</time>
      </trkpt>
      <trkpt lat="46.01883" lon="4.42517">
        <ele>739.6</ele>
        <time>2025-09-09T08:50:08Z</time>
      </trkpt>
      <trkpt lat="46.01883" lon="4.4252">
        <ele>739.6</ele>
        <time>2025-09-09T08:50:09Z</time>
      </trkpt>
      <trkpt lat="46.01882" lon="4.42522">
        <ele>739.6</ele>
        <time>2025-09-09T08:50:10Z</time>
      </trkpt>
      <trkpt lat="46.01882" lon="4.42525">
        <ele>739.6</ele>
        <time>2025-09-09T08:50:11Z</time>
      </trkpt>
      <trkpt lat="46.01881" lon="4.42527">
        <ele>739.8</ele>
        <time>2025-09-09T08:50:12Z</time>
      </trkpt>
      <trkpt lat="46.01881" lon="4.4253">
        <ele>739.8</ele>
        <time>2025-09-09T08:50:13Z</time>
      </trkpt>
      <trkpt lat="46.0188" lon="4.42533">
        <ele>739.8</ele>
        <time>2025-09-09T08:50:14Z</time>
      </trkpt>
      <trkpt lat="46.0188" lon="4.42536">
        <ele>739.8</ele>
        <time>2025-09-09T08:50:15Z</time>
      </trkpt>
      <trkpt lat="46.01879" lon="4.42539">
        <ele>740</ele>
        <time>2025-09-09T08:50:16Z</time>
      </trkpt>
      <trkpt lat="46.01878" lon="4.42541">
        <ele>740</ele>
        <time>2025-09-09T08:50:17Z</time>
      </trkpt>
      <trkpt lat="46.01877" lon="4.42543">
        <ele>740.2</ele>
        <time>2025-09-09T08:50:18Z</time>
      </trkpt>
      <trkpt lat="46.01876" lon="4.42546">
        <ele>740.2</ele>
        <time>2025-09-09T08:50:19Z</time>
      </trkpt>
      <trkpt lat="46.01875" lon="4.42548">
        <ele>740.6</ele>
        <time>2025-09-09T08:50:20Z</time>
      </trkpt>
      <trkpt lat="46.01875" lon="4.4255">
        <ele>740.6</ele>
        <time>2025-09-09T08:50:21Z</time>
      </trkpt>
      <trkpt lat="46.01874" lon="4.42552">
        <ele>740.6</ele>
        <time>2025-09-09T08:50:22Z</time>
      </trkpt>
      <trkpt lat="46.01873" lon="4.42554">
        <ele>740.6</ele>
        <time>2025-09-09T08:50:23Z</time>
      </trkpt>
      <trkpt lat="46.01872" lon="4.42556">
        <ele>741</ele>
        <time>2025-09-09T08:50:24Z</time>
      </trkpt>
      <trkpt lat="46.0187" lon="4.42557">
        <ele>741.2</ele>
        <time>2025-09-09T08:50:25Z</time>
      </trkpt>
      <trkpt lat="46.01869" lon="4.42558">
        <ele>741.2</ele>
        <time>2025-09-09T08:50:26Z</time>
      </trkpt>
      <trkpt lat="46.01868" lon="4.42559">
        <ele>741.6</ele>
        <time>2025-09-09T08:50:27Z</time>
      </trkpt>
      <trkpt lat="46.01867" lon="4.4256">
        <ele>741.6</ele>
        <time>2025-09-09T08:50:28Z</time>
      </trkpt>
      <trkpt lat="46.01866" lon="4.42562">
        <ele>741.8</ele>
        <time>2025-09-09T08:50:29Z</time>
      </trkpt>
      <trkpt lat="46.01865" lon="4.42563">
        <ele>741.8</ele>
        <time>2025-09-09T08:50:30Z</time>
      </trkpt>
      <trkpt lat="46.01864" lon="4.42564">
        <ele>741.8</ele>
        <time>2025-09-09T08:50:31Z</time>
      </trkpt>
      <trkpt lat="46.01865" lon="4.42564">
        <ele>741.8</ele>
        <time>2025-09-09T08:50:32Z</time>
      </trkpt>
      <trkpt lat="46.01864" lon="4.42567">
        <ele>741.8</ele>
        <time>2025-09-09T08:50:42Z</time>
      </trkpt>
      <trkpt lat="46.01863" lon="4.42568">
        <ele>741.8</ele>
        <time>2025-09-09T08:50:43Z</time>
      </trkpt>
      <trkpt lat="46.01863" lon="4.42569">
        <ele>741.8</ele>
        <time>2025-09-09T08:50:44Z</time>
      </trkpt>
      <trkpt lat="46.01863" lon="4.42571">
        <ele>742.2</ele>
        <time>2025-09-09T08:50:45Z</time>
      </trkpt>
      <trkpt lat="46.01863" lon="4.42572">
        <ele>742.2</ele>
        <time>2025-09-09T08:50:46Z</time>
      </trkpt>
      <trkpt lat="46.01862" lon="4.42573">
        <ele>742.2</ele>
        <time>2025-09-09T08:50:47Z</time>
      </trkpt>
      <trkpt lat="46.01862" lon="4.42575">
        <ele>742.6</ele>
        <time>2025-09-09T08:50:48Z</time>
      </trkpt>
      <trkpt lat="46.01861" lon="4.42577">
        <ele>742.6</ele>
        <time>2025-09-09T08:50:49Z</time>
      </trkpt>
      <trkpt lat="46.0186" lon="4.42578">
        <ele>742.6</ele>
        <time>2025-09-09T08:50:50Z</time>
      </trkpt>
      <trkpt lat="46.01859" lon="4.4258">
        <ele>742.8</ele>
        <time>2025-09-09T08:50:51Z</time>
      </trkpt>
      <trkpt lat="46.01858" lon="4.42581">
        <ele>742.8</ele>
        <time>2025-09-09T08:50:52Z</time>
      </trkpt>
      <trkpt lat="46.01858" lon="4.42583">
        <ele>743.2</ele>
        <time>2025-09-09T08:50:53Z</time>
      </trkpt>
      <trkpt lat="46.01857" lon="4.42583">
        <ele>743.2</ele>
        <time>2025-09-09T08:50:54Z</time>
      </trkpt>
      <trkpt lat="46.01857" lon="4.42584">
        <ele>743.4</ele>
        <time>2025-09-09T08:50:55Z</time>
      </trkpt>
      <trkpt lat="46.01856" lon="4.42584">
        <ele>743.8</ele>
        <time>2025-09-09T08:50:56Z</time>
      </trkpt>
      <trkpt lat="46.01855" lon="4.42585">
        <ele>743.8</ele>
        <time>2025-09-09T08:50:57Z</time>
      </trkpt>
      <trkpt lat="46.01855" lon="4.42587">
        <ele>743.8</ele>
        <time>2025-09-09T08:50:58Z</time>
      </trkpt>
      <trkpt lat="46.01854" lon="4.42588">
        <ele>744.2</ele>
        <time>2025-09-09T08:50:59Z</time>
      </trkpt>
      <trkpt lat="46.01853" lon="4.4259">
        <ele>744.2</ele>
        <time>2025-09-09T08:51:00Z</time>
      </trkpt>
      <trkpt lat="46.01852" lon="4.42591">
        <ele>744.4</ele>
        <time>2025-09-09T08:51:01Z</time>
      </trkpt>
      <trkpt lat="46.01851" lon="4.42592">
        <ele>744.4</ele>
        <time>2025-09-09T08:51:02Z</time>
      </trkpt>
      <trkpt lat="46.0185" lon="4.42594">
        <ele>745</ele>
        <time>2025-09-09T08:51:03Z</time>
      </trkpt>
      <trkpt lat="46.01849" lon="4.42595">
        <ele>745.2</ele>
        <time>2025-09-09T08:51:04Z</time>
      </trkpt>
      <trkpt lat="46.01848" lon="4.42597">
        <ele>745.2</ele>
        <time>2025-09-09T08:51:05Z</time>
      </trkpt>
      <trkpt lat="46.01847" lon="4.42597">
        <ele>745.4</ele>
        <time>2025-09-09T08:51:06Z</time>
      </trkpt>
      <trkpt lat="46.01848" lon="4.42598">
        <ele>745.4</ele>
        <time>2025-09-09T08:51:07Z</time>
      </trkpt>
      <trkpt lat="46.01847" lon="4.426">
        <ele>745.8</ele>
        <time>2025-09-09T08:51:08Z</time>
      </trkpt>
      <trkpt lat="46.01845" lon="4.42602">
        <ele>745.4</ele>
        <time>2025-09-09T08:51:09Z</time>
      </trkpt>
      <trkpt lat="46.01844" lon="4.42603">
        <ele>745</ele>
        <time>2025-09-09T08:51:10Z</time>
      </trkpt>
      <trkpt lat="46.01843" lon="4.42604">
        <ele>745.4</ele>
        <time>2025-09-09T08:51:11Z</time>
      </trkpt>
      <trkpt lat="46.01841" lon="4.42606">
        <ele>745.6</ele>
        <time>2025-09-09T08:51:12Z</time>
      </trkpt>
      <trkpt lat="46.0184" lon="4.42608">
        <ele>745.8</ele>
        <time>2025-09-09T08:51:13Z</time>
      </trkpt>
      <trkpt lat="46.01839" lon="4.42609">
        <ele>745.8</ele>
        <time>2025-09-09T08:51:14Z</time>
      </trkpt>
      <trkpt lat="46.01837" lon="4.4261">
        <ele>746.4</ele>
        <time>2025-09-09T08:51:15Z</time>
      </trkpt>
      <trkpt lat="46.01836" lon="4.42612">
        <ele>746.6</ele>
        <time>2025-09-09T08:51:16Z</time>
      </trkpt>
      <trkpt lat="46.01835" lon="4.42614">
        <ele>747</ele>
        <time>2025-09-09T08:51:17Z</time>
      </trkpt>
      <trkpt lat="46.01835" lon="4.42615">
        <ele>747</ele>
        <time>2025-09-09T08:51:18Z</time>
      </trkpt>
      <trkpt lat="46.01834" lon="4.42616">
        <ele>747.2</ele>
        <time>2025-09-09T08:51:19Z</time>
      </trkpt>
      <trkpt lat="46.01834" lon="4.42616">
        <ele>747.2</ele>
        <time>2025-09-09T08:51:20Z</time>
      </trkpt>
      <trkpt lat="46.01832" lon="4.42619">
        <ele>748</ele>
        <time>2025-09-09T08:51:24Z</time>
      </trkpt>
      <trkpt lat="46.01831" lon="4.42621">
        <ele>748.8</ele>
        <time>2025-09-09T08:51:25Z</time>
      </trkpt>
      <trkpt lat="46.01831" lon="4.42622">
        <ele>748.8</ele>
        <time>2025-09-09T08:51:26Z</time>
      </trkpt>
      <trkpt lat="46.0183" lon="4.42623">
        <ele>748.4</ele>
        <time>2025-09-09T08:51:27Z</time>
      </trkpt>
      <trkpt lat="46.0183" lon="4.42625">
        <ele>748.4</ele>
        <time>2025-09-09T08:51:28Z</time>
      </trkpt>
      <trkpt lat="46.01829" lon="4.42627">
        <ele>748.6</ele>
        <time>2025-09-09T08:51:29Z</time>
      </trkpt>
      <trkpt lat="46.01828" lon="4.42627">
        <ele>748.6</ele>
        <time>2025-09-09T08:51:30Z</time>
      </trkpt>
      <trkpt lat="46.01828" lon="4.42628">
        <ele>748.8</ele>
        <time>2025-09-09T08:51:31Z</time>
      </trkpt>
      <trkpt lat="46.01827" lon="4.42629">
        <ele>748.8</ele>
        <time>2025-09-09T08:51:32Z</time>
      </trkpt>
      <trkpt lat="46.01826" lon="4.42629">
        <ele>749.2</ele>
        <time>2025-09-09T08:51:33Z</time>
      </trkpt>
      <trkpt lat="46.01825" lon="4.4263">
        <ele>749.2</ele>
        <time>2025-09-09T08:51:34Z</time>
      </trkpt>
      <trkpt lat="46.01824" lon="4.42631">
        <ele>749.2</ele>
        <time>2025-09-09T08:51:35Z</time>
      </trkpt>
      <trkpt lat="46.01823" lon="4.42633">
        <ele>749.6</ele>
        <time>2025-09-09T08:51:36Z</time>
      </trkpt>
      <trkpt lat="46.01822" lon="4.42634">
        <ele>749.8</ele>
        <time>2025-09-09T08:51:37Z</time>
      </trkpt>
      <trkpt lat="46.01821" lon="4.42636">
        <ele>749.8</ele>
        <time>2025-09-09T08:51:38Z</time>
      </trkpt>
      <trkpt lat="46.0182" lon="4.42637">
        <ele>750.4</ele>
        <time>2025-09-09T08:51:39Z</time>
      </trkpt>
      <trkpt lat="46.01818" lon="4.42639">
        <ele>750.4</ele>
        <time>2025-09-09T08:51:40Z</time>
      </trkpt>
      <trkpt lat="46.01817" lon="4.4264">
        <ele>750.6</ele>
        <time>2025-09-09T08:51:41Z</time>
      </trkpt>
      <trkpt lat="46.01818" lon="4.42641">
        <ele>750.6</ele>
        <time>2025-09-09T08:51:42Z</time>
      </trkpt>
      <trkpt lat="46.01818" lon="4.42642">
        <ele>750.6</ele>
        <time>2025-09-09T08:51:43Z</time>
      </trkpt>
      <trkpt lat="46.01818" lon="4.42643">
        <ele>750.8</ele>
        <time>2025-09-09T08:51:44Z</time>
      </trkpt>
      <trkpt lat="46.01818" lon="4.42643">
        <ele>750.8</ele>
        <time>2025-09-09T08:51:45Z</time>
      </trkpt>
      <trkpt lat="46.01818" lon="4.42646">
        <ele>751.2</ele>
        <time>2025-09-09T08:51:57Z</time>
      </trkpt>
      <trkpt lat="46.01817" lon="4.42646">
        <ele>751.2</ele>
        <time>2025-09-09T08:51:58Z</time>
      </trkpt>
      <trkpt lat="46.01817" lon="4.42646">
        <ele>751.2</ele>
        <time>2025-09-09T08:51:59Z</time>
      </trkpt>
      <trkpt lat="46.01816" lon="4.42647">
        <ele>751.4</ele>
        <time>2025-09-09T08:52:05Z</time>
      </trkpt>
      <trkpt lat="46.01816" lon="4.42647">
        <ele>751.4</ele>
        <time>2025-09-09T08:52:06Z</time>
      </trkpt>
      <trkpt lat="46.01816" lon="4.42648">
        <ele>751.4</ele>
        <time>2025-09-09T08:52:07Z</time>
      </trkpt>
      <trkpt lat="46.01816" lon="4.42649">
        <ele>751.4</ele>
        <time>2025-09-09T08:52:08Z</time>
      </trkpt>
      <trkpt lat="46.01816" lon="4.4265">
        <ele>751.4</ele>
        <time>2025-09-09T08:52:09Z</time>
      </trkpt>
      <trkpt lat="46.01816" lon="4.4265">
        <ele>751.4</ele>
        <time>2025-09-09T08:52:10Z</time>
      </trkpt>
      <trkpt lat="46.01816" lon="4.42651">
        <ele>751.4</ele>
        <time>2025-09-09T08:52:11Z</time>
      </trkpt>
      <trkpt lat="46.01815" lon="4.42652">
        <ele>751.6</ele>
        <time>2025-09-09T08:52:12Z</time>
      </trkpt>
      <trkpt lat="46.01814" lon="4.42653">
        <ele>752</ele>
        <time>2025-09-09T08:52:13Z</time>
      </trkpt>
      <trkpt lat="46.01814" lon="4.42655">
        <ele>752.6</ele>
        <time>2025-09-09T08:52:18Z</time>
      </trkpt>
      <trkpt lat="46.01812" lon="4.42656">
        <ele>752.6</ele>
        <time>2025-09-09T08:52:19Z</time>
      </trkpt>
      <trkpt lat="46.01811" lon="4.42658">
        <ele>752.6</ele>
        <time>2025-09-09T08:52:20Z</time>
      </trkpt>
      <trkpt lat="46.0181" lon="4.4266">
        <ele>752.6</ele>
        <time>2025-09-09T08:52:21Z</time>
      </trkpt>
      <trkpt lat="46.01809" lon="4.42662">
        <ele>753</ele>
        <time>2025-09-09T08:52:22Z</time>
      </trkpt>
      <trkpt lat="46.01809" lon="4.42664">
        <ele>753</ele>
        <time>2025-09-09T08:52:23Z</time>
      </trkpt>
      <trkpt lat="46.01809" lon="4.42667">
        <ele>753.2</ele>
        <time>2025-09-09T08:52:24Z</time>
      </trkpt>
      <trkpt lat="46.01809" lon="4.4267">
        <ele>753.2</ele>
        <time>2025-09-09T08:52:25Z</time>
      </trkpt>
      <trkpt lat="46.01809" lon="4.42671">
        <ele>753.6</ele>
        <time>2025-09-09T08:52:26Z</time>
      </trkpt>
      <trkpt lat="46.01809" lon="4.42673">
        <ele>753.6</ele>
        <time>2025-09-09T08:52:27Z</time>
      </trkpt>
      <trkpt lat="46.01808" lon="4.42673">
        <ele>754</ele>
        <time>2025-09-09T08:52:28Z</time>
      </trkpt>
      <trkpt lat="46.01808" lon="4.42675">
        <ele>754.2</ele>
        <time>2025-09-09T08:52:29Z</time>
      </trkpt>
      <trkpt lat="46.01807" lon="4.42677">
        <ele>754.2</ele>
        <time>2025-09-09T08:52:30Z</time>
      </trkpt>
      <trkpt lat="46.01806" lon="4.42677">
        <ele>754.6</ele>
        <time>2025-09-09T08:52:31Z</time>
      </trkpt>
      <trkpt lat="46.01806" lon="4.42678">
        <ele>754.8</ele>
        <time>2025-09-09T08:52:32Z</time>
      </trkpt>
      <trkpt lat="46.01806" lon="4.4268">
        <ele>755</ele>
        <time>2025-09-09T08:52:35Z</time>
      </trkpt>
      <trkpt lat="46.01805" lon="4.42681">
        <ele>755</ele>
        <time>2025-09-09T08:52:36Z</time>
      </trkpt>
      <trkpt lat="46.01805" lon="4.42681">
        <ele>755</ele>
        <time>2025-09-09T08:52:37Z</time>
      </trkpt>
      <trkpt lat="46.01804" lon="4.42683">
        <ele>755.4</ele>
        <time>2025-09-09T08:52:38Z</time>
      </trkpt>
      <trkpt lat="46.01803" lon="4.42684">
        <ele>755.4</ele>
        <time>2025-09-09T08:52:39Z</time>
      </trkpt>
      <trkpt lat="46.01802" lon="4.42685">
        <ele>755.6</ele>
        <time>2025-09-09T08:52:40Z</time>
      </trkpt>
      <trkpt lat="46.01801" lon="4.42686">
        <ele>755.6</ele>
        <time>2025-09-09T08:52:41Z</time>
      </trkpt>
      <trkpt lat="46.018" lon="4.42687">
        <ele>755.8</ele>
        <time>2025-09-09T08:52:42Z</time>
      </trkpt>
      <trkpt lat="46.018" lon="4.42688">
        <ele>755.8</ele>
        <time>2025-09-09T08:52:43Z</time>
      </trkpt>
      <trkpt lat="46.018" lon="4.42688">
        <ele>756.2</ele>
        <time>2025-09-09T08:52:44Z</time>
      </trkpt>
      <trkpt lat="46.01799" lon="4.4269">
        <ele>756.2</ele>
        <time>2025-09-09T08:52:45Z</time>
      </trkpt>
      <trkpt lat="46.01798" lon="4.42691">
        <ele>756.4</ele>
        <time>2025-09-09T08:52:46Z</time>
      </trkpt>
      <trkpt lat="46.01797" lon="4.42693">
        <ele>756.4</ele>
        <time>2025-09-09T08:52:47Z</time>
      </trkpt>
      <trkpt lat="46.01796" lon="4.42694">
        <ele>756.4</ele>
        <time>2025-09-09T08:52:48Z</time>
      </trkpt>
      <trkpt lat="46.01795" lon="4.42694">
        <ele>756.4</ele>
        <time>2025-09-09T08:52:49Z</time>
      </trkpt>
      <trkpt lat="46.01794" lon="4.42694">
        <ele>756.8</ele>
        <time>2025-09-09T08:52:50Z</time>
      </trkpt>
      <trkpt lat="46.01793" lon="4.42696">
        <ele>756.8</ele>
        <time>2025-09-09T08:52:51Z</time>
      </trkpt>
      <trkpt lat="46.01792" lon="4.42696">
        <ele>756.8</ele>
        <time>2025-09-09T08:52:52Z</time>
      </trkpt>
      <trkpt lat="46.01791" lon="4.42697">
        <ele>757</ele>
        <time>2025-09-09T08:52:53Z</time>
      </trkpt>
      <trkpt lat="46.01791" lon="4.42698">
        <ele>757.2</ele>
        <time>2025-09-09T08:52:54Z</time>
      </trkpt>
      <trkpt lat="46.0179" lon="4.42699">
        <ele>757.2</ele>
        <time>2025-09-09T08:52:55Z</time>
      </trkpt>
      <trkpt lat="46.0179" lon="4.427">
        <ele>757.6</ele>
        <time>2025-09-09T08:52:56Z</time>
      </trkpt>
      <trkpt lat="46.0179" lon="4.42702">
        <ele>757.6</ele>
        <time>2025-09-09T08:52:57Z</time>
      </trkpt>
      <trkpt lat="46.01789" lon="4.42703">
        <ele>758</ele>
        <time>2025-09-09T08:52:58Z</time>
      </trkpt>
      <trkpt lat="46.01788" lon="4.42705">
        <ele>758</ele>
        <time>2025-09-09T08:52:59Z</time>
      </trkpt>
      <trkpt lat="46.01787" lon="4.42707">
        <ele>758.2</ele>
        <time>2025-09-09T08:53:00Z</time>
      </trkpt>
      <trkpt lat="46.01787" lon="4.42709">
        <ele>758.2</ele>
        <time>2025-09-09T08:53:01Z</time>
      </trkpt>
      <trkpt lat="46.01786" lon="4.4271">
        <ele>758.2</ele>
        <time>2025-09-09T08:53:02Z</time>
      </trkpt>
      <trkpt lat="46.01785" lon="4.42711">
        <ele>758.2</ele>
        <time>2025-09-09T08:53:03Z</time>
      </trkpt>
      <trkpt lat="46.01785" lon="4.42713">
        <ele>758.2</ele>
        <time>2025-09-09T08:53:04Z</time>
      </trkpt>
      <trkpt lat="46.01784" lon="4.42715">
        <ele>758.2</ele>
        <time>2025-09-09T08:53:05Z</time>
      </trkpt>
      <trkpt lat="46.01784" lon="4.42717">
        <ele>758.2</ele>
        <time>2025-09-09T08:53:06Z</time>
      </trkpt>
      <trkpt lat="46.01783" lon="4.42718">
        <ele>758.4</ele>
        <time>2025-09-09T08:53:07Z</time>
      </trkpt>
      <trkpt lat="46.01783" lon="4.42719">
        <ele>758.4</ele>
        <time>2025-09-09T08:53:08Z</time>
      </trkpt>
      <trkpt lat="46.01782" lon="4.42721">
        <ele>758.4</ele>
        <time>2025-09-09T08:53:09Z</time>
      </trkpt>
      <trkpt lat="46.01782" lon="4.42724">
        <ele>758.8</ele>
        <time>2025-09-09T08:53:10Z</time>
      </trkpt>
      <trkpt lat="46.01781" lon="4.42726">
        <ele>758.8</ele>
        <time>2025-09-09T08:53:11Z</time>
      </trkpt>
      <trkpt lat="46.01781" lon="4.42727">
        <ele>758.8</ele>
        <time>2025-09-09T08:53:12Z</time>
      </trkpt>
      <trkpt lat="46.01782" lon="4.42727">
        <ele>759.2</ele>
        <time>2025-09-09T08:53:13Z</time>
      </trkpt>
      <trkpt lat="46.01782" lon="4.42727">
        <ele>759.4</ele>
        <time>2025-09-09T08:53:14Z</time>
      </trkpt>
      <trkpt lat="46.01782" lon="4.42728">
        <ele>759.4</ele>
        <time>2025-09-09T08:53:15Z</time>
      </trkpt>
      <trkpt lat="46.01783" lon="4.4273">
        <ele>759.8</ele>
        <time>2025-09-09T08:53:16Z</time>
      </trkpt>
      <trkpt lat="46.01783" lon="4.4273">
        <ele>760</ele>
        <time>2025-09-09T08:53:17Z</time>
      </trkpt>
      <trkpt lat="46.01783" lon="4.42731">
        <ele>760</ele>
        <time>2025-09-09T08:53:18Z</time>
      </trkpt>
      <trkpt lat="46.01783" lon="4.42731">
        <ele>760.4</ele>
        <time>2025-09-09T08:53:19Z</time>
      </trkpt>
      <trkpt lat="46.01783" lon="4.42731">
        <ele>760.6</ele>
        <time>2025-09-09T08:53:20Z</time>
      </trkpt>
      <trkpt lat="46.01784" lon="4.42731">
        <ele>760.6</ele>
        <time>2025-09-09T08:53:21Z</time>
      </trkpt>
      <trkpt lat="46.01784" lon="4.42731">
        <ele>760.6</ele>
        <time>2025-09-09T08:53:22Z</time>
      </trkpt>
      <trkpt lat="46.01784" lon="4.42731">
        <ele>760.6</ele>
        <time>2025-09-09T08:53:23Z</time>
      </trkpt>
      <trkpt lat="46.01784" lon="4.42731">
        <ele>760.6</ele>
        <time>2025-09-09T08:53:24Z</time>
      </trkpt>
      <trkpt lat="46.01785" lon="4.42731">
        <ele>760.6</ele>
        <time>2025-09-09T08:53:25Z</time>
      </trkpt>
      <trkpt lat="46.01785" lon="4.4273">
        <ele>760.8</ele>
        <time>2025-09-09T08:53:26Z</time>
      </trkpt>
      <trkpt lat="46.01785" lon="4.4273">
        <ele>760.8</ele>
        <time>2025-09-09T08:53:27Z</time>
      </trkpt>
      <trkpt lat="46.01782" lon="4.42737">
        <ele>761.8</ele>
        <time>2025-09-09T09:04:56Z</time>
      </trkpt>
      <trkpt lat="46.01782" lon="4.42739">
        <ele>761.8</ele>
        <time>2025-09-09T09:04:57Z</time>
      </trkpt>
      <trkpt lat="46.01781" lon="4.42741">
        <ele>761.6</ele>
        <time>2025-09-09T09:04:58Z</time>
      </trkpt>
      <trkpt lat="46.01781" lon="4.42741">
        <ele>761.6</ele>
        <time>2025-09-09T09:04:59Z</time>
      </trkpt>
      <trkpt lat="46.01781" lon="4.42741">
        <ele>761.6</ele>
        <time>2025-09-09T09:05:00Z</time>
      </trkpt>
      <trkpt lat="46.01781" lon="4.42741">
        <ele>761.6</ele>
        <time>2025-09-09T09:05:01Z</time>
      </trkpt>
      <trkpt lat="46.01783" lon="4.42736">
        <ele>761.4</ele>
        <time>2025-09-09T09:05:31Z</time>
      </trkpt>
      <trkpt lat="46.01783" lon="4.42736">
        <ele>761.4</ele>
        <time>2025-09-09T09:05:32Z</time>
      </trkpt>
      <trkpt lat="46.01782" lon="4.42737">
        <ele>761.4</ele>
        <time>2025-09-09T09:05:33Z</time>
      </trkpt>
      <trkpt lat="46.01781" lon="4.42737">
        <ele>761.4</ele>
        <time>2025-09-09T09:05:36Z</time>
      </trkpt>
      <trkpt lat="46.0178" lon="4.42737">
        <ele>761.4</ele>
        <time>2025-09-09T09:05:37Z</time>
      </trkpt>
      <trkpt lat="46.01778" lon="4.42737">
        <ele>761.4</ele>
        <time>2025-09-09T09:05:38Z</time>
      </trkpt>
      <trkpt lat="46.01776" lon="4.42737">
        <ele>761.4</ele>
        <time>2025-09-09T09:05:39Z</time>
      </trkpt>
      <trkpt lat="46.01774" lon="4.42736">
        <ele>761.4</ele>
        <time>2025-09-09T09:05:40Z</time>
      </trkpt>
      <trkpt lat="46.01772" lon="4.42735">
        <ele>761.4</ele>
        <time>2025-09-09T09:05:41Z</time>
      </trkpt>
      <trkpt lat="46.0177" lon="4.42733">
        <ele>761.4</ele>
        <time>2025-09-09T09:05:42Z</time>
      </trkpt>
      <trkpt lat="46.01768" lon="4.4273">
        <ele>761.4</ele>
        <time>2025-09-09T09:05:43Z</time>
      </trkpt>
      <trkpt lat="46.01767" lon="4.42727">
        <ele>761.4</ele>
        <time>2025-09-09T09:05:44Z</time>
      </trkpt>
      <trkpt lat="46.01765" lon="4.42724">
        <ele>761.4</ele>
        <time>2025-09-09T09:05:45Z</time>
      </trkpt>
      <trkpt lat="46.01763" lon="4.42722">
        <ele>761.4</ele>
        <time>2025-09-09T09:05:46Z</time>
      </trkpt>
      <trkpt lat="46.01762" lon="4.42721">
        <ele>761.4</ele>
        <time>2025-09-09T09:05:47Z</time>
      </trkpt>
      <trkpt lat="46.0176" lon="4.4272">
        <ele>761.6</ele>
        <time>2025-09-09T09:05:48Z</time>
      </trkpt>
      <trkpt lat="46.01758" lon="4.42719">
        <ele>761.6</ele>
        <time>2025-09-09T09:05:49Z</time>
      </trkpt>
      <trkpt lat="46.01756" lon="4.42718">
        <ele>761.6</ele>
        <time>2025-09-09T09:05:50Z</time>
      </trkpt>
      <trkpt lat="46.01755" lon="4.42716">
        <ele>761.6</ele>
        <time>2025-09-09T09:05:51Z</time>
      </trkpt>
      <trkpt lat="46.01753" lon="4.42714">
        <ele>761.6</ele>
        <time>2025-09-09T09:05:52Z</time>
      </trkpt>
      <trkpt lat="46.01751" lon="4.42713">
        <ele>761.6</ele>
        <time>2025-09-09T09:05:53Z</time>
      </trkpt>
      <trkpt lat="46.01749" lon="4.42711">
        <ele>761.6</ele>
        <time>2025-09-09T09:05:54Z</time>
      </trkpt>
      <trkpt lat="46.01748" lon="4.42709">
        <ele>761.6</ele>
        <time>2025-09-09T09:05:55Z</time>
      </trkpt>
      <trkpt lat="46.01746" lon="4.42707">
        <ele>761.6</ele>
        <time>2025-09-09T09:05:56Z</time>
      </trkpt>
      <trkpt lat="46.01744" lon="4.42706">
        <ele>761.8</ele>
        <time>2025-09-09T09:05:57Z</time>
      </trkpt>
      <trkpt lat="46.01742" lon="4.42705">
        <ele>761.8</ele>
        <time>2025-09-09T09:05:58Z</time>
      </trkpt>
      <trkpt lat="46.01741" lon="4.42703">
        <ele>761.8</ele>
        <time>2025-09-09T09:05:59Z</time>
      </trkpt>
      <trkpt lat="46.01739" lon="4.42701">
        <ele>762</ele>
        <time>2025-09-09T09:06:00Z</time>
      </trkpt>
      <trkpt lat="46.01738" lon="4.42699">
        <ele>762.4</ele>
        <time>2025-09-09T09:06:01Z</time>
      </trkpt>
      <trkpt lat="46.01737" lon="4.42697">
        <ele>762.4</ele>
        <time>2025-09-09T09:06:02Z</time>
      </trkpt>
      <trkpt lat="46.01735" lon="4.42695">
        <ele>762.4</ele>
        <time>2025-09-09T09:06:03Z</time>
      </trkpt>
      <trkpt lat="46.01734" lon="4.42693">
        <ele>762.4</ele>
        <time>2025-09-09T09:06:04Z</time>
      </trkpt>
      <trkpt lat="46.01733" lon="4.42691">
        <ele>762.4</ele>
        <time>2025-09-09T09:06:05Z</time>
      </trkpt>
      <trkpt lat="46.01732" lon="4.42689">
        <ele>762.4</ele>
        <time>2025-09-09T09:06:06Z</time>
      </trkpt>
      <trkpt lat="46.0173" lon="4.42688">
        <ele>762.4</ele>
        <time>2025-09-09T09:06:07Z</time>
      </trkpt>
      <trkpt lat="46.01729" lon="4.42686">
        <ele>762.4</ele>
        <time>2025-09-09T09:06:08Z</time>
      </trkpt>
      <trkpt lat="46.01728" lon="4.42684">
        <ele>762.4</ele>
        <time>2025-09-09T09:06:09Z</time>
      </trkpt>
      <trkpt lat="46.01727" lon="4.42682">
        <ele>762.6</ele>
        <time>2025-09-09T09:06:10Z</time>
      </trkpt>
      <trkpt lat="46.01725" lon="4.4268">
        <ele>762.6</ele>
        <time>2025-09-09T09:06:11Z</time>
      </trkpt>
      <trkpt lat="46.01724" lon="4.42679">
        <ele>763</ele>
        <time>2025-09-09T09:06:12Z</time>
      </trkpt>
      <trkpt lat="46.01723" lon="4.42677">
        <ele>763.2</ele>
        <time>2025-09-09T09:06:13Z</time>
      </trkpt>
      <trkpt lat="46.01722" lon="4.42675">
        <ele>763.2</ele>
        <time>2025-09-09T09:06:14Z</time>
      </trkpt>
      <trkpt lat="46.01721" lon="4.42673">
        <ele>763.4</ele>
        <time>2025-09-09T09:06:15Z</time>
      </trkpt>
      <trkpt lat="46.0172" lon="4.42672">
        <ele>763.4</ele>
        <time>2025-09-09T09:06:16Z</time>
      </trkpt>
      <trkpt lat="46.01719" lon="4.42671">
        <ele>763.8</ele>
        <time>2025-09-09T09:06:17Z</time>
      </trkpt>
      <trkpt lat="46.01718" lon="4.4267">
        <ele>763.8</ele>
        <time>2025-09-09T09:06:18Z</time>
      </trkpt>
      <trkpt lat="46.01716" lon="4.42669">
        <ele>764.2</ele>
        <time>2025-09-09T09:06:19Z</time>
      </trkpt>
      <trkpt lat="46.01715" lon="4.42668">
        <ele>764.4</ele>
        <time>2025-09-09T09:06:20Z</time>
      </trkpt>
      <trkpt lat="46.01714" lon="4.42667">
        <ele>764.4</ele>
        <time>2025-09-09T09:06:21Z</time>
      </trkpt>
      <trkpt lat="46.01713" lon="4.42666">
        <ele>764.6</ele>
        <time>2025-09-09T09:06:22Z</time>
      </trkpt>
      <trkpt lat="46.01712" lon="4.42666">
        <ele>764.6</ele>
        <time>2025-09-09T09:06:23Z</time>
      </trkpt>
      <trkpt lat="46.01711" lon="4.42663">
        <ele>764.8</ele>
        <time>2025-09-09T09:06:24Z</time>
      </trkpt>
      <trkpt lat="46.0171" lon="4.42662">
        <ele>764.8</ele>
        <time>2025-09-09T09:06:25Z</time>
      </trkpt>
      <trkpt lat="46.01709" lon="4.4266">
        <ele>765.2</ele>
        <time>2025-09-09T09:06:26Z</time>
      </trkpt>
      <trkpt lat="46.01709" lon="4.42659">
        <ele>765.2</ele>
        <time>2025-09-09T09:06:27Z</time>
      </trkpt>
      <trkpt lat="46.01708" lon="4.42659">
        <ele>765.6</ele>
        <time>2025-09-09T09:06:28Z</time>
      </trkpt>
      <trkpt lat="46.01707" lon="4.42658">
        <ele>765.8</ele>
        <time>2025-09-09T09:06:29Z</time>
      </trkpt>
      <trkpt lat="46.01706" lon="4.42657">
        <ele>765.8</ele>
        <time>2025-09-09T09:06:30Z</time>
      </trkpt>
      <trkpt lat="46.01704" lon="4.42657">
        <ele>765.8</ele>
        <time>2025-09-09T09:06:31Z</time>
      </trkpt>
      <trkpt lat="46.01703" lon="4.42657">
        <ele>766.2</ele>
        <time>2025-09-09T09:06:32Z</time>
      </trkpt>
      <trkpt lat="46.01702" lon="4.42657">
        <ele>766.2</ele>
        <time>2025-09-09T09:06:33Z</time>
      </trkpt>
      <trkpt lat="46.01701" lon="4.42657">
        <ele>766.4</ele>
        <time>2025-09-09T09:06:34Z</time>
      </trkpt>
      <trkpt lat="46.017" lon="4.42657">
        <ele>766.4</ele>
        <time>2025-09-09T09:06:35Z</time>
      </trkpt>
      <trkpt lat="46.01699" lon="4.42656">
        <ele>766.4</ele>
        <time>2025-09-09T09:06:36Z</time>
      </trkpt>
      <trkpt lat="46.01698" lon="4.42655">
        <ele>766.4</ele>
        <time>2025-09-09T09:06:37Z</time>
      </trkpt>
      <trkpt lat="46.01697" lon="4.42654">
        <ele>766.8</ele>
        <time>2025-09-09T09:06:38Z</time>
      </trkpt>
      <trkpt lat="46.01696" lon="4.42653">
        <ele>766.8</ele>
        <time>2025-09-09T09:06:39Z</time>
      </trkpt>
      <trkpt lat="46.01696" lon="4.42651">
        <ele>766.8</ele>
        <time>2025-09-09T09:06:40Z</time>
      </trkpt>
      <trkpt lat="46.01696" lon="4.42651">
        <ele>767.2</ele>
        <time>2025-09-09T09:06:41Z</time>
      </trkpt>
      <trkpt lat="46.01696" lon="4.42651">
        <ele>767.2</ele>
        <time>2025-09-09T09:06:42Z</time>
      </trkpt>
      <trkpt lat="46.01694" lon="4.42648">
        <ele>767.4</ele>
        <time>2025-09-09T09:06:43Z</time>
      </trkpt>
      <trkpt lat="46.01693" lon="4.42647">
        <ele>767.4</ele>
        <time>2025-09-09T09:06:44Z</time>
      </trkpt>
      <trkpt lat="46.01693" lon="4.42646">
        <ele>767.6</ele>
        <time>2025-09-09T09:06:45Z</time>
      </trkpt>
      <trkpt lat="46.01692" lon="4.42645">
        <ele>767.6</ele>
        <time>2025-09-09T09:06:46Z</time>
      </trkpt>
      <trkpt lat="46.01692" lon="4.42644">
        <ele>768</ele>
        <time>2025-09-09T09:06:47Z</time>
      </trkpt>
      <trkpt lat="46.01691" lon="4.42643">
        <ele>768.2</ele>
        <time>2025-09-09T09:06:48Z</time>
      </trkpt>
      <trkpt lat="46.0169" lon="4.42642">
        <ele>768.6</ele>
        <time>2025-09-09T09:06:49Z</time>
      </trkpt>
      <trkpt lat="46.01689" lon="4.42641">
        <ele>768.6</ele>
        <time>2025-09-09T09:06:50Z</time>
      </trkpt>
      <trkpt lat="46.01689" lon="4.4264">
        <ele>768.6</ele>
        <time>2025-09-09T09:06:51Z</time>
      </trkpt>
      <trkpt lat="46.01687" lon="4.42637">
        <ele>768.8</ele>
        <time>2025-09-09T09:06:52Z</time>
      </trkpt>
      <trkpt lat="46.01686" lon="4.42636">
        <ele>768.8</ele>
        <time>2025-09-09T09:06:53Z</time>
      </trkpt>
      <trkpt lat="46.01685" lon="4.42635">
        <ele>769.2</ele>
        <time>2025-09-09T09:06:54Z</time>
      </trkpt>
      <trkpt lat="46.01685" lon="4.42633">
        <ele>769.2</ele>
        <time>2025-09-09T09:06:55Z</time>
      </trkpt>
      <trkpt lat="46.01684" lon="4.42632">
        <ele>769.2</ele>
        <time>2025-09-09T09:06:56Z</time>
      </trkpt>
      <trkpt lat="46.01683" lon="4.42631">
        <ele>769.2</ele>
        <time>2025-09-09T09:06:57Z</time>
      </trkpt>
      <trkpt lat="46.01682" lon="4.4263">
        <ele>769.4</ele>
        <time>2025-09-09T09:06:58Z</time>
      </trkpt>
      <trkpt lat="46.01681" lon="4.42628">
        <ele>769.4</ele>
        <time>2025-09-09T09:06:59Z</time>
      </trkpt>
      <trkpt lat="46.0168" lon="4.42627">
        <ele>769.6</ele>
        <time>2025-09-09T09:07:00Z</time>
      </trkpt>
      <trkpt lat="46.01679" lon="4.42626">
        <ele>769.6</ele>
        <time>2025-09-09T09:07:01Z</time>
      </trkpt>
      <trkpt lat="46.01678" lon="4.42624">
        <ele>769.6</ele>
        <time>2025-09-09T09:07:02Z</time>
      </trkpt>
      <trkpt lat="46.01677" lon="4.42623">
        <ele>769.6</ele>
        <time>2025-09-09T09:07:03Z</time>
      </trkpt>
      <trkpt lat="46.01677" lon="4.42622">
        <ele>770</ele>
        <time>2025-09-09T09:07:04Z</time>
      </trkpt>
      <trkpt lat="46.01676" lon="4.4262">
        <ele>770</ele>
        <time>2025-09-09T09:07:05Z</time>
      </trkpt>
      <trkpt lat="46.01675" lon="4.42619">
        <ele>770</ele>
        <time>2025-09-09T09:07:06Z</time>
      </trkpt>
      <trkpt lat="46.01674" lon="4.42618">
        <ele>770.4</ele>
        <time>2025-09-09T09:07:07Z</time>
      </trkpt>
      <trkpt lat="46.01672" lon="4.42616">
        <ele>770.4</ele>
        <time>2025-09-09T09:07:08Z</time>
      </trkpt>
      <trkpt lat="46.01671" lon="4.42615">
        <ele>770.6</ele>
        <time>2025-09-09T09:07:09Z</time>
      </trkpt>
      <trkpt lat="46.0167" lon="4.42615">
        <ele>770.6</ele>
        <time>2025-09-09T09:07:10Z</time>
      </trkpt>
      <trkpt lat="46.01669" lon="4.42613">
        <ele>770.8</ele>
        <time>2025-09-09T09:07:11Z</time>
      </trkpt>
      <trkpt lat="46.01668" lon="4.42612">
        <ele>770.8</ele>
        <time>2025-09-09T09:07:12Z</time>
      </trkpt>
      <trkpt lat="46.01667" lon="4.42611">
        <ele>771</ele>
        <time>2025-09-09T09:07:13Z</time>
      </trkpt>
      <trkpt lat="46.01666" lon="4.42609">
        <ele>771</ele>
        <time>2025-09-09T09:07:14Z</time>
      </trkpt>
      <trkpt lat="46.01665" lon="4.42608">
        <ele>771</ele>
        <time>2025-09-09T09:07:15Z</time>
      </trkpt>
      <trkpt lat="46.01664" lon="4.42606">
        <ele>771</ele>
        <time>2025-09-09T09:07:16Z</time>
      </trkpt>
      <trkpt lat="46.01663" lon="4.42605">
        <ele>771.2</ele>
        <time>2025-09-09T09:07:17Z</time>
      </trkpt>
      <trkpt lat="46.01663" lon="4.42603">
        <ele>771.2</ele>
        <time>2025-09-09T09:07:18Z</time>
      </trkpt>
      <trkpt lat="46.01663" lon="4.426">
        <ele>771.6</ele>
        <time>2025-09-09T09:07:19Z</time>
      </trkpt>
      <trkpt lat="46.01663" lon="4.42598">
        <ele>771.6</ele>
        <time>2025-09-09T09:07:20Z</time>
      </trkpt>
      <trkpt lat="46.01663" lon="4.42597">
        <ele>771.6</ele>
        <time>2025-09-09T09:07:21Z</time>
      </trkpt>
      <trkpt lat="46.01661" lon="4.42595">
        <ele>772</ele>
        <time>2025-09-09T09:07:22Z</time>
      </trkpt>
      <trkpt lat="46.0166" lon="4.42594">
        <ele>772</ele>
        <time>2025-09-09T09:07:23Z</time>
      </trkpt>
      <trkpt lat="46.01659" lon="4.42593">
        <ele>772.2</ele>
        <time>2025-09-09T09:07:24Z</time>
      </trkpt>
      <trkpt lat="46.01658" lon="4.42592">
        <ele>772.2</ele>
        <time>2025-09-09T09:07:25Z</time>
      </trkpt>
      <trkpt lat="46.01657" lon="4.42591">
        <ele>772.6</ele>
        <time>2025-09-09T09:07:26Z</time>
      </trkpt>
      <trkpt lat="46.01656" lon="4.4259">
        <ele>772.6</ele>
        <time>2025-09-09T09:07:27Z</time>
      </trkpt>
      <trkpt lat="46.01655" lon="4.42588">
        <ele>772.6</ele>
        <time>2025-09-09T09:07:28Z</time>
      </trkpt>
      <trkpt lat="46.01654" lon="4.42586">
        <ele>772.6</ele>
        <time>2025-09-09T09:07:29Z</time>
      </trkpt>
      <trkpt lat="46.01654" lon="4.42585">
        <ele>772.8</ele>
        <time>2025-09-09T09:07:30Z</time>
      </trkpt>
      <trkpt lat="46.01652" lon="4.42584">
        <ele>772.8</ele>
        <time>2025-09-09T09:07:31Z</time>
      </trkpt>
      <trkpt lat="46.01651" lon="4.42584">
        <ele>772.8</ele>
        <time>2025-09-09T09:07:32Z</time>
      </trkpt>
      <trkpt lat="46.0165" lon="4.42583">
        <ele>772.8</ele>
        <time>2025-09-09T09:07:33Z</time>
      </trkpt>
      <trkpt lat="46.01648" lon="4.42582">
        <ele>773.2</ele>
        <time>2025-09-09T09:07:34Z</time>
      </trkpt>
      <trkpt lat="46.01647" lon="4.42581">
        <ele>773.2</ele>
        <time>2025-09-09T09:07:35Z</time>
      </trkpt>
      <trkpt lat="46.01646" lon="4.42578">
        <ele>773.6</ele>
        <time>2025-09-09T09:07:36Z</time>
      </trkpt>
      <trkpt lat="46.01645" lon="4.42576">
        <ele>773.8</ele>
        <time>2025-09-09T09:07:37Z</time>
      </trkpt>
      <trkpt lat="46.01644" lon="4.42574">
        <ele>773.8</ele>
        <time>2025-09-09T09:07:38Z</time>
      </trkpt>
      <trkpt lat="46.01642" lon="4.42572">
        <ele>774.2</ele>
        <time>2025-09-09T09:07:39Z</time>
      </trkpt>
      <trkpt lat="46.0164" lon="4.42571">
        <ele>774.4</ele>
        <time>2025-09-09T09:07:40Z</time>
      </trkpt>
      <trkpt lat="46.01638" lon="4.4257">
        <ele>774.4</ele>
        <time>2025-09-09T09:07:41Z</time>
      </trkpt>
      <trkpt lat="46.01636" lon="4.42569">
        <ele>774.4</ele>
        <time>2025-09-09T09:07:42Z</time>
      </trkpt>
      <trkpt lat="46.01635" lon="4.42568">
        <ele>774.4</ele>
        <time>2025-09-09T09:07:43Z</time>
      </trkpt>
      <trkpt lat="46.01634" lon="4.42566">
        <ele>774.8</ele>
        <time>2025-09-09T09:07:44Z</time>
      </trkpt>
      <trkpt lat="46.01634" lon="4.42566">
        <ele>775</ele>
        <time>2025-09-09T09:07:45Z</time>
      </trkpt>
      <trkpt lat="46.01633" lon="4.42564">
        <ele>775.2</ele>
        <time>2025-09-09T09:07:46Z</time>
      </trkpt>
      <trkpt lat="46.01632" lon="4.42561">
        <ele>775.2</ele>
        <time>2025-09-09T09:07:47Z</time>
      </trkpt>
      <trkpt lat="46.01632" lon="4.42558">
        <ele>775.2</ele>
        <time>2025-09-09T09:07:48Z</time>
      </trkpt>
      <trkpt lat="46.01631" lon="4.42556">
        <ele>775.6</ele>
        <time>2025-09-09T09:07:49Z</time>
      </trkpt>
      <trkpt lat="46.0163" lon="4.42553">
        <ele>775.6</ele>
        <time>2025-09-09T09:07:50Z</time>
      </trkpt>
      <trkpt lat="46.01628" lon="4.42551">
        <ele>775.8</ele>
        <time>2025-09-09T09:07:51Z</time>
      </trkpt>
      <trkpt lat="46.01627" lon="4.42549">
        <ele>775.8</ele>
        <time>2025-09-09T09:07:52Z</time>
      </trkpt>
      <trkpt lat="46.01624" lon="4.42547">
        <ele>775.8</ele>
        <time>2025-09-09T09:07:53Z</time>
      </trkpt>
      <trkpt lat="46.01622" lon="4.42545">
        <ele>775.8</ele>
        <time>2025-09-09T09:07:54Z</time>
      </trkpt>
      <trkpt lat="46.01621" lon="4.42543">
        <ele>776</ele>
        <time>2025-09-09T09:07:55Z</time>
      </trkpt>
      <trkpt lat="46.01619" lon="4.4254">
        <ele>776</ele>
        <time>2025-09-09T09:07:56Z</time>
      </trkpt>
      <trkpt lat="46.01616" lon="4.42538">
        <ele>776</ele>
        <time>2025-09-09T09:07:57Z</time>
      </trkpt>
      <trkpt lat="46.01614" lon="4.42535">
        <ele>775.8</ele>
        <time>2025-09-09T09:07:58Z</time>
      </trkpt>
      <trkpt lat="46.01612" lon="4.42532">
        <ele>775.8</ele>
        <time>2025-09-09T09:07:59Z</time>
      </trkpt>
      <trkpt lat="46.01609" lon="4.42528">
        <ele>775.8</ele>
        <time>2025-09-09T09:08:00Z</time>
      </trkpt>
      <trkpt lat="46.01606" lon="4.42524">
        <ele>775.4</ele>
        <time>2025-09-09T09:08:01Z</time>
      </trkpt>
      <trkpt lat="46.01601" lon="4.42521">
        <ele>775</ele>
        <time>2025-09-09T09:08:02Z</time>
      </trkpt>
      <trkpt lat="46.01601" lon="4.42513">
        <ele>775</ele>
        <time>2025-09-09T09:08:03Z</time>
      </trkpt>
      <trkpt lat="46.01595" lon="4.4251">
        <ele>774.8</ele>
        <time>2025-09-09T09:08:04Z</time>
      </trkpt>
      <trkpt lat="46.01591" lon="4.42505">
        <ele>774.2</ele>
        <time>2025-09-09T09:08:05Z</time>
      </trkpt>
      <trkpt lat="46.01587" lon="4.42502">
        <ele>774.2</ele>
        <time>2025-09-09T09:08:06Z</time>
      </trkpt>
      <trkpt lat="46.01582" lon="4.42498">
        <ele>774.2</ele>
        <time>2025-09-09T09:08:07Z</time>
      </trkpt>
      <trkpt lat="46.01578" lon="4.42495">
        <ele>774.2</ele>
        <time>2025-09-09T09:08:08Z</time>
      </trkpt>
      <trkpt lat="46.01573" lon="4.42495">
        <ele>774.2</ele>
        <time>2025-09-09T09:08:09Z</time>
      </trkpt>
      <trkpt lat="46.0157" lon="4.42491">
        <ele>774.2</ele>
        <time>2025-09-09T09:08:10Z</time>
      </trkpt>
      <trkpt lat="46.01566" lon="4.42488">
        <ele>774.2</ele>
        <time>2025-09-09T09:08:11Z</time>
      </trkpt>
      <trkpt lat="46.01562" lon="4.42485">
        <ele>774.2</ele>
        <time>2025-09-09T09:08:12Z</time>
      </trkpt>
      <trkpt lat="46.01553" lon="4.42488">
        <ele>774.6</ele>
        <time>2025-09-09T09:08:13Z</time>
      </trkpt>
      <trkpt lat="46.01549" lon="4.42485">
        <ele>774.6</ele>
        <time>2025-09-09T09:08:14Z</time>
      </trkpt>
      <trkpt lat="46.01542" lon="4.42486">
        <ele>774.6</ele>
        <time>2025-09-09T09:08:15Z</time>
      </trkpt>
      <trkpt lat="46.01536" lon="4.42485">
        <ele>775</ele>
        <time>2025-09-09T09:08:16Z</time>
      </trkpt>
      <trkpt lat="46.01532" lon="4.42483">
        <ele>775</ele>
        <time>2025-09-09T09:08:17Z</time>
      </trkpt>
      <trkpt lat="46.0153" lon="4.42481">
        <ele>775</ele>
        <time>2025-09-09T09:08:18Z</time>
      </trkpt>
      <trkpt lat="46.01527" lon="4.42478">
        <ele>775</ele>
        <time>2025-09-09T09:08:19Z</time>
      </trkpt>
      <trkpt lat="46.01523" lon="4.42476">
        <ele>775</ele>
        <time>2025-09-09T09:08:20Z</time>
      </trkpt>
      <trkpt lat="46.01523" lon="4.42476">
        <ele>775</ele>
        <time>2025-09-09T09:08:21Z</time>
      </trkpt>
      <trkpt lat="46.01523" lon="4.42476">
        <ele>775</ele>
        <time>2025-09-09T09:08:22Z</time>
      </trkpt>
      <trkpt lat="46.01514" lon="4.4247">
        <ele>775</ele>
        <time>2025-09-09T09:08:23Z</time>
      </trkpt>
      <trkpt lat="46.01511" lon="4.42468">
        <ele>775</ele>
        <time>2025-09-09T09:08:24Z</time>
      </trkpt>
      <trkpt lat="46.01508" lon="4.42467">
        <ele>775</ele>
        <time>2025-09-09T09:08:25Z</time>
      </trkpt>
      <trkpt lat="46.01504" lon="4.42465">
        <ele>775</ele>
        <time>2025-09-09T09:08:26Z</time>
      </trkpt>
      <trkpt lat="46.01501" lon="4.42463">
        <ele>775</ele>
        <time>2025-09-09T09:08:27Z</time>
      </trkpt>
      <trkpt lat="46.01498" lon="4.4246">
        <ele>775.2</ele>
        <time>2025-09-09T09:08:28Z</time>
      </trkpt>
      <trkpt lat="46.01495" lon="4.42459">
        <ele>775.2</ele>
        <time>2025-09-09T09:08:29Z</time>
      </trkpt>
      <trkpt lat="46.01493" lon="4.42457">
        <ele>775.2</ele>
        <time>2025-09-09T09:08:30Z</time>
      </trkpt>
      <trkpt lat="46.0149" lon="4.42455">
        <ele>775.4</ele>
        <time>2025-09-09T09:08:31Z</time>
      </trkpt>
      <trkpt lat="46.01487" lon="4.42453">
        <ele>775.4</ele>
        <time>2025-09-09T09:08:32Z</time>
      </trkpt>
      <trkpt lat="46.01484" lon="4.42451">
        <ele>775.4</ele>
        <time>2025-09-09T09:08:33Z</time>
      </trkpt>
      <trkpt lat="46.01481" lon="4.42449">
        <ele>776</ele>
        <time>2025-09-09T09:08:34Z</time>
      </trkpt>
      <trkpt lat="46.01479" lon="4.42449">
        <ele>776</ele>
        <time>2025-09-09T09:08:35Z</time>
      </trkpt>
      <trkpt lat="46.01478" lon="4.42447">
        <ele>776</ele>
        <time>2025-09-09T09:08:36Z</time>
      </trkpt>
      <trkpt lat="46.01477" lon="4.42446">
        <ele>776.2</ele>
        <time>2025-09-09T09:08:37Z</time>
      </trkpt>
      <trkpt lat="46.01475" lon="4.42446">
        <ele>776.2</ele>
        <time>2025-09-09T09:08:38Z</time>
      </trkpt>
      <trkpt lat="46.01473" lon="4.42445">
        <ele>776.6</ele>
        <time>2025-09-09T09:08:39Z</time>
      </trkpt>
      <trkpt lat="46.01471" lon="4.42445">
        <ele>776.8</ele>
        <time>2025-09-09T09:08:40Z</time>
      </trkpt>
      <trkpt lat="46.0147" lon="4.42444">
        <ele>777</ele>
        <time>2025-09-09T09:08:41Z</time>
      </trkpt>
      <trkpt lat="46.01468" lon="4.42444">
        <ele>777.2</ele>
        <time>2025-09-09T09:08:42Z</time>
      </trkpt>
      <trkpt lat="46.01467" lon="4.42443">
        <ele>777.2</ele>
        <time>2025-09-09T09:08:43Z</time>
      </trkpt>
      <trkpt lat="46.01466" lon="4.42443">
        <ele>777.2</ele>
        <time>2025-09-09T09:08:44Z</time>
      </trkpt>
      <trkpt lat="46.01465" lon="4.42442">
        <ele>777.4</ele>
        <time>2025-09-09T09:08:45Z</time>
      </trkpt>
      <trkpt lat="46.01464" lon="4.42442">
        <ele>777.8</ele>
        <time>2025-09-09T09:08:46Z</time>
      </trkpt>
      <trkpt lat="46.01461" lon="4.42443">
        <ele>777.8</ele>
        <time>2025-09-09T09:08:47Z</time>
      </trkpt>
      <trkpt lat="46.01459" lon="4.42444">
        <ele>778</ele>
        <time>2025-09-09T09:08:48Z</time>
      </trkpt>
      <trkpt lat="46.01457" lon="4.42445">
        <ele>778</ele>
        <time>2025-09-09T09:08:49Z</time>
      </trkpt>
      <trkpt lat="46.01455" lon="4.42445">
        <ele>778</ele>
        <time>2025-09-09T09:08:50Z</time>
      </trkpt>
      <trkpt lat="46.01454" lon="4.42444">
        <ele>778.4</ele>
        <time>2025-09-09T09:08:51Z</time>
      </trkpt>
      <trkpt lat="46.01453" lon="4.42443">
        <ele>778.6</ele>
        <time>2025-09-09T09:08:52Z</time>
      </trkpt>
      <trkpt lat="46.01452" lon="4.42442">
        <ele>778.6</ele>
        <time>2025-09-09T09:08:53Z</time>
      </trkpt>
      <trkpt lat="46.0145" lon="4.42442">
        <ele>778.8</ele>
        <time>2025-09-09T09:08:54Z</time>
      </trkpt>
      <trkpt lat="46.01448" lon="4.42442">
        <ele>778.8</ele>
        <time>2025-09-09T09:08:55Z</time>
      </trkpt>
      <trkpt lat="46.01446" lon="4.42442">
        <ele>779</ele>
        <time>2025-09-09T09:08:56Z</time>
      </trkpt>
      <trkpt lat="46.01445" lon="4.42442">
        <ele>779</ele>
        <time>2025-09-09T09:08:57Z</time>
      </trkpt>
      <trkpt lat="46.01443" lon="4.42442">
        <ele>779.4</ele>
        <time>2025-09-09T09:08:58Z</time>
      </trkpt>
      <trkpt lat="46.01442" lon="4.42441">
        <ele>779.4</ele>
        <time>2025-09-09T09:08:59Z</time>
      </trkpt>
      <trkpt lat="46.01441" lon="4.42441">
        <ele>779.4</ele>
        <time>2025-09-09T09:09:00Z</time>
      </trkpt>
      <trkpt lat="46.01439" lon="4.42441">
        <ele>779.6</ele>
        <time>2025-09-09T09:09:01Z</time>
      </trkpt>
      <trkpt lat="46.01438" lon="4.4244">
        <ele>779.6</ele>
        <time>2025-09-09T09:09:02Z</time>
      </trkpt>
      <trkpt lat="46.01437" lon="4.42439">
        <ele>779.6</ele>
        <time>2025-09-09T09:09:03Z</time>
      </trkpt>
      <trkpt lat="46.01436" lon="4.42439">
        <ele>779.6</ele>
        <time>2025-09-09T09:09:04Z</time>
      </trkpt>
      <trkpt lat="46.01434" lon="4.42438">
        <ele>780</ele>
        <time>2025-09-09T09:09:05Z</time>
      </trkpt>
      <trkpt lat="46.01433" lon="4.42438">
        <ele>780</ele>
        <time>2025-09-09T09:09:06Z</time>
      </trkpt>
      <trkpt lat="46.01432" lon="4.42438">
        <ele>780.4</ele>
        <time>2025-09-09T09:09:07Z</time>
      </trkpt>
      <trkpt lat="46.0143" lon="4.42438">
        <ele>780.4</ele>
        <time>2025-09-09T09:09:08Z</time>
      </trkpt>
      <trkpt lat="46.01429" lon="4.42438">
        <ele>780.8</ele>
        <time>2025-09-09T09:09:09Z</time>
      </trkpt>
      <trkpt lat="46.01428" lon="4.42437">
        <ele>780.8</ele>
        <time>2025-09-09T09:09:10Z</time>
      </trkpt>
      <trkpt lat="46.01427" lon="4.42436">
        <ele>780.8</ele>
        <time>2025-09-09T09:09:11Z</time>
      </trkpt>
      <trkpt lat="46.01426" lon="4.42436">
        <ele>781</ele>
        <time>2025-09-09T09:09:12Z</time>
      </trkpt>
      <trkpt lat="46.01425" lon="4.42435">
        <ele>781.2</ele>
        <time>2025-09-09T09:09:13Z</time>
      </trkpt>
      <trkpt lat="46.01425" lon="4.42434">
        <ele>781.4</ele>
        <time>2025-09-09T09:09:14Z</time>
      </trkpt>
      <trkpt lat="46.01424" lon="4.42434">
        <ele>781.4</ele>
        <time>2025-09-09T09:09:15Z</time>
      </trkpt>
      <trkpt lat="46.01423" lon="4.42433">
        <ele>781.8</ele>
        <time>2025-09-09T09:09:16Z</time>
      </trkpt>
      <trkpt lat="46.01422" lon="4.42432">
        <ele>781.8</ele>
        <time>2025-09-09T09:09:17Z</time>
      </trkpt>
      <trkpt lat="46.01421" lon="4.42432">
        <ele>782</ele>
        <time>2025-09-09T09:09:18Z</time>
      </trkpt>
      <trkpt lat="46.0142" lon="4.42431">
        <ele>782</ele>
        <time>2025-09-09T09:09:19Z</time>
      </trkpt>
      <trkpt lat="46.01419" lon="4.42431">
        <ele>782.2</ele>
        <time>2025-09-09T09:09:20Z</time>
      </trkpt>
      <trkpt lat="46.01418" lon="4.4243">
        <ele>782.2</ele>
        <time>2025-09-09T09:09:21Z</time>
      </trkpt>
      <trkpt lat="46.01417" lon="4.4243">
        <ele>782.6</ele>
        <time>2025-09-09T09:09:22Z</time>
      </trkpt>
      <trkpt lat="46.01416" lon="4.42429">
        <ele>782.6</ele>
        <time>2025-09-09T09:09:23Z</time>
      </trkpt>
      <trkpt lat="46.01416" lon="4.42428">
        <ele>782.6</ele>
        <time>2025-09-09T09:09:24Z</time>
      </trkpt>
      <trkpt lat="46.01415" lon="4.42428">
        <ele>782.8</ele>
        <time>2025-09-09T09:09:25Z</time>
      </trkpt>
      <trkpt lat="46.01414" lon="4.42427">
        <ele>782.8</ele>
        <time>2025-09-09T09:09:26Z</time>
      </trkpt>
      <trkpt lat="46.01413" lon="4.42427">
        <ele>782.8</ele>
        <time>2025-09-09T09:09:27Z</time>
      </trkpt>
      <trkpt lat="46.01412" lon="4.42427">
        <ele>783</ele>
        <time>2025-09-09T09:09:28Z</time>
      </trkpt>
      <trkpt lat="46.01411" lon="4.42426">
        <ele>783</ele>
        <time>2025-09-09T09:09:29Z</time>
      </trkpt>
      <trkpt lat="46.0141" lon="4.42426">
        <ele>783</ele>
        <time>2025-09-09T09:09:30Z</time>
      </trkpt>
      <trkpt lat="46.01409" lon="4.42426">
        <ele>783</ele>
        <time>2025-09-09T09:09:31Z</time>
      </trkpt>
      <trkpt lat="46.01408" lon="4.42426">
        <ele>783.4</ele>
        <time>2025-09-09T09:09:32Z</time>
      </trkpt>
      <trkpt lat="46.01408" lon="4.42425">
        <ele>783.6</ele>
        <time>2025-09-09T09:09:33Z</time>
      </trkpt>
      <trkpt lat="46.01407" lon="4.42424">
        <ele>783.6</ele>
        <time>2025-09-09T09:09:34Z</time>
      </trkpt>
      <trkpt lat="46.01406" lon="4.42424">
        <ele>784</ele>
        <time>2025-09-09T09:09:35Z</time>
      </trkpt>
      <trkpt lat="46.01405" lon="4.42424">
        <ele>784.2</ele>
        <time>2025-09-09T09:09:36Z</time>
      </trkpt>
      <trkpt lat="46.01404" lon="4.42423">
        <ele>784.2</ele>
        <time>2025-09-09T09:09:37Z</time>
      </trkpt>
      <trkpt lat="46.01404" lon="4.42423">
        <ele>784.6</ele>
        <time>2025-09-09T09:09:38Z</time>
      </trkpt>
      <trkpt lat="46.01403" lon="4.42423">
        <ele>784.8</ele>
        <time>2025-09-09T09:09:39Z</time>
      </trkpt>
      <trkpt lat="46.01401" lon="4.42422">
        <ele>784.8</ele>
        <time>2025-09-09T09:09:40Z</time>
      </trkpt>
      <trkpt lat="46.01401" lon="4.42422">
        <ele>785</ele>
        <time>2025-09-09T09:09:41Z</time>
      </trkpt>
      <trkpt lat="46.014" lon="4.42422">
        <ele>785</ele>
        <time>2025-09-09T09:09:42Z</time>
      </trkpt>
      <trkpt lat="46.01399" lon="4.42422">
        <ele>785.4</ele>
        <time>2025-09-09T09:09:43Z</time>
      </trkpt>
      <trkpt lat="46.01398" lon="4.42422">
        <ele>785.4</ele>
        <time>2025-09-09T09:09:44Z</time>
      </trkpt>
      <trkpt lat="46.01397" lon="4.42421">
        <ele>785.8</ele>
        <time>2025-09-09T09:09:45Z</time>
      </trkpt>
      <trkpt lat="46.01396" lon="4.42421">
        <ele>785.8</ele>
        <time>2025-09-09T09:09:46Z</time>
      </trkpt>
      <trkpt lat="46.01395" lon="4.42421">
        <ele>785.8</ele>
        <time>2025-09-09T09:09:47Z</time>
      </trkpt>
      <trkpt lat="46.01394" lon="4.4242">
        <ele>785.8</ele>
        <time>2025-09-09T09:09:48Z</time>
      </trkpt>
      <trkpt lat="46.01393" lon="4.4242">
        <ele>785.8</ele>
        <time>2025-09-09T09:09:49Z</time>
      </trkpt>
      <trkpt lat="46.01392" lon="4.4242">
        <ele>786</ele>
        <time>2025-09-09T09:09:50Z</time>
      </trkpt>
      <trkpt lat="46.01391" lon="4.4242">
        <ele>786.4</ele>
        <time>2025-09-09T09:09:51Z</time>
      </trkpt>
      <trkpt lat="46.0139" lon="4.4242">
        <ele>786.4</ele>
        <time>2025-09-09T09:09:52Z</time>
      </trkpt>
      <trkpt lat="46.01389" lon="4.4242">
        <ele>786.6</ele>
        <time>2025-09-09T09:09:53Z</time>
      </trkpt>
      <trkpt lat="46.01388" lon="4.42419">
        <ele>787.2</ele>
        <time>2025-09-09T09:09:54Z</time>
      </trkpt>
      <trkpt lat="46.01387" lon="4.42419">
        <ele>787.2</ele>
        <time>2025-09-09T09:09:55Z</time>
      </trkpt>
      <trkpt lat="46.01386" lon="4.42419">
        <ele>787.2</ele>
        <time>2025-09-09T09:09:56Z</time>
      </trkpt>
      <trkpt lat="46.01385" lon="4.42419">
        <ele>787.2</ele>
        <time>2025-09-09T09:09:57Z</time>
      </trkpt>
      <trkpt lat="46.01383" lon="4.42419">
        <ele>787.4</ele>
        <time>2025-09-09T09:09:58Z</time>
      </trkpt>
      <trkpt lat="46.01382" lon="4.42418">
        <ele>787.4</ele>
        <time>2025-09-09T09:09:59Z</time>
      </trkpt>
      <trkpt lat="46.01381" lon="4.42418">
        <ele>787.4</ele>
        <time>2025-09-09T09:10:00Z</time>
      </trkpt>
      <trkpt lat="46.01381" lon="4.42417">
        <ele>787.4</ele>
        <time>2025-09-09T09:10:01Z</time>
      </trkpt>
      <trkpt lat="46.0138" lon="4.42417">
        <ele>787.4</ele>
        <time>2025-09-09T09:10:02Z</time>
      </trkpt>
      <trkpt lat="46.01379" lon="4.42416">
        <ele>787.8</ele>
        <time>2025-09-09T09:10:03Z</time>
      </trkpt>
      <trkpt lat="46.01378" lon="4.42416">
        <ele>787.8</ele>
        <time>2025-09-09T09:10:04Z</time>
      </trkpt>
      <trkpt lat="46.01377" lon="4.42415">
        <ele>788</ele>
        <time>2025-09-09T09:10:05Z</time>
      </trkpt>
      <trkpt lat="46.01376" lon="4.42414">
        <ele>788</ele>
        <time>2025-09-09T09:10:06Z</time>
      </trkpt>
      <trkpt lat="46.01375" lon="4.42414">
        <ele>788</ele>
        <time>2025-09-09T09:10:07Z</time>
      </trkpt>
      <trkpt lat="46.01374" lon="4.42414">
        <ele>788.6</ele>
        <time>2025-09-09T09:10:08Z</time>
      </trkpt>
      <trkpt lat="46.01373" lon="4.42414">
        <ele>788.6</ele>
        <time>2025-09-09T09:10:09Z</time>
      </trkpt>
      <trkpt lat="46.01372" lon="4.42415">
        <ele>788.8</ele>
        <time>2025-09-09T09:10:10Z</time>
      </trkpt>
      <trkpt lat="46.01371" lon="4.42416">
        <ele>788.8</ele>
        <time>2025-09-09T09:10:11Z</time>
      </trkpt>
      <trkpt lat="46.0137" lon="4.42416">
        <ele>789.2</ele>
        <time>2025-09-09T09:10:12Z</time>
      </trkpt>
      <trkpt lat="46.01369" lon="4.42417">
        <ele>789.2</ele>
        <time>2025-09-09T09:10:13Z</time>
      </trkpt>
      <trkpt lat="46.01367" lon="4.42416">
        <ele>789.2</ele>
        <time>2025-09-09T09:10:14Z</time>
      </trkpt>
      <trkpt lat="46.01366" lon="4.42414">
        <ele>789.6</ele>
        <time>2025-09-09T09:10:15Z</time>
      </trkpt>
      <trkpt lat="46.01366" lon="4.42413">
        <ele>789.6</ele>
        <time>2025-09-09T09:10:16Z</time>
      </trkpt>
      <trkpt lat="46.01365" lon="4.42413">
        <ele>789.6</ele>
        <time>2025-09-09T09:10:17Z</time>
      </trkpt>
      <trkpt lat="46.01365" lon="4.42412">
        <ele>789.6</ele>
        <time>2025-09-09T09:10:18Z</time>
      </trkpt>
      <trkpt lat="46.01364" lon="4.42411">
        <ele>790</ele>
        <time>2025-09-09T09:10:19Z</time>
      </trkpt>
      <trkpt lat="46.01364" lon="4.42411">
        <ele>790.2</ele>
        <time>2025-09-09T09:10:20Z</time>
      </trkpt>
      <trkpt lat="46.01363" lon="4.42411">
        <ele>790.2</ele>
        <time>2025-09-09T09:10:21Z</time>
      </trkpt>
      <trkpt lat="46.01362" lon="4.42411">
        <ele>790.4</ele>
        <time>2025-09-09T09:10:22Z</time>
      </trkpt>
      <trkpt lat="46.0136" lon="4.42411">
        <ele>790.4</ele>
        <time>2025-09-09T09:10:23Z</time>
      </trkpt>
      <trkpt lat="46.01359" lon="4.4241">
        <ele>790.6</ele>
        <time>2025-09-09T09:10:24Z</time>
      </trkpt>
      <trkpt lat="46.01359" lon="4.42409">
        <ele>790.6</ele>
        <time>2025-09-09T09:10:25Z</time>
      </trkpt>
      <trkpt lat="46.01358" lon="4.42408">
        <ele>790.6</ele>
        <time>2025-09-09T09:10:26Z</time>
      </trkpt>
      <trkpt lat="46.01358" lon="4.42407">
        <ele>791</ele>
        <time>2025-09-09T09:10:27Z</time>
      </trkpt>
      <trkpt lat="46.01357" lon="4.42406">
        <ele>791.2</ele>
        <time>2025-09-09T09:10:28Z</time>
      </trkpt>
      <trkpt lat="46.01356" lon="4.42405">
        <ele>791.2</ele>
        <time>2025-09-09T09:10:29Z</time>
      </trkpt>
      <trkpt lat="46.01355" lon="4.42404">
        <ele>791.2</ele>
        <time>2025-09-09T09:10:30Z</time>
      </trkpt>
      <trkpt lat="46.01354" lon="4.42403">
        <ele>791.6</ele>
        <time>2025-09-09T09:10:31Z</time>
      </trkpt>
      <trkpt lat="46.01353" lon="4.42403">
        <ele>791.8</ele>
        <time>2025-09-09T09:10:32Z</time>
      </trkpt>
      <trkpt lat="46.01352" lon="4.42403">
        <ele>791.8</ele>
        <time>2025-09-09T09:10:33Z</time>
      </trkpt>
      <trkpt lat="46.01351" lon="4.42402">
        <ele>792.2</ele>
        <time>2025-09-09T09:10:34Z</time>
      </trkpt>
      <trkpt lat="46.0135" lon="4.42402">
        <ele>792.2</ele>
        <time>2025-09-09T09:10:35Z</time>
      </trkpt>
      <trkpt lat="46.01348" lon="4.42402">
        <ele>792.4</ele>
        <time>2025-09-09T09:10:36Z</time>
      </trkpt>
      <trkpt lat="46.01347" lon="4.42403">
        <ele>792.4</ele>
        <time>2025-09-09T09:10:37Z</time>
      </trkpt>
      <trkpt lat="46.01346" lon="4.42404">
        <ele>792.8</ele>
        <time>2025-09-09T09:10:38Z</time>
      </trkpt>
      <trkpt lat="46.01344" lon="4.42405">
        <ele>792.8</ele>
        <time>2025-09-09T09:10:39Z</time>
      </trkpt>
      <trkpt lat="46.01343" lon="4.42405">
        <ele>793</ele>
        <time>2025-09-09T09:10:40Z</time>
      </trkpt>
      <trkpt lat="46.01342" lon="4.42404">
        <ele>793</ele>
        <time>2025-09-09T09:10:41Z</time>
      </trkpt>
      <trkpt lat="46.0134" lon="4.42404">
        <ele>793</ele>
        <time>2025-09-09T09:10:42Z</time>
      </trkpt>
      <trkpt lat="46.01339" lon="4.42404">
        <ele>793</ele>
        <time>2025-09-09T09:10:43Z</time>
      </trkpt>
      <trkpt lat="46.01337" lon="4.42405">
        <ele>793.2</ele>
        <time>2025-09-09T09:10:44Z</time>
      </trkpt>
      <trkpt lat="46.01335" lon="4.42406">
        <ele>793.2</ele>
        <time>2025-09-09T09:10:45Z</time>
      </trkpt>
      <trkpt lat="46.01333" lon="4.42408">
        <ele>793.6</ele>
        <time>2025-09-09T09:10:46Z</time>
      </trkpt>
      <trkpt lat="46.01331" lon="4.42409">
        <ele>793.6</ele>
        <time>2025-09-09T09:10:47Z</time>
      </trkpt>
      <trkpt lat="46.01329" lon="4.4241">
        <ele>793.6</ele>
        <time>2025-09-09T09:10:48Z</time>
      </trkpt>
      <trkpt lat="46.01327" lon="4.42411">
        <ele>793.6</ele>
        <time>2025-09-09T09:10:49Z</time>
      </trkpt>
      <trkpt lat="46.01323" lon="4.42414">
        <ele>793.8</ele>
        <time>2025-09-09T09:10:50Z</time>
      </trkpt>
      <trkpt lat="46.01321" lon="4.42415">
        <ele>793.8</ele>
        <time>2025-09-09T09:10:51Z</time>
      </trkpt>
      <trkpt lat="46.01319" lon="4.42416">
        <ele>793.8</ele>
        <time>2025-09-09T09:10:52Z</time>
      </trkpt>
      <trkpt lat="46.01317" lon="4.42417">
        <ele>794.2</ele>
        <time>2025-09-09T09:10:53Z</time>
      </trkpt>
      <trkpt lat="46.01315" lon="4.42417">
        <ele>794.2</ele>
        <time>2025-09-09T09:10:54Z</time>
      </trkpt>
      <trkpt lat="46.01313" lon="4.42417">
        <ele>794.2</ele>
        <time>2025-09-09T09:10:55Z</time>
      </trkpt>
      <trkpt lat="46.01311" lon="4.42417">
        <ele>794.2</ele>
        <time>2025-09-09T09:10:56Z</time>
      </trkpt>
      <trkpt lat="46.01309" lon="4.42417">
        <ele>794.2</ele>
        <time>2025-09-09T09:10:57Z</time>
      </trkpt>
      <trkpt lat="46.01308" lon="4.42417">
        <ele>794.2</ele>
        <time>2025-09-09T09:10:58Z</time>
      </trkpt>
      <trkpt lat="46.01308" lon="4.42417">
        <ele>794.2</ele>
        <time>2025-09-09T09:10:59Z</time>
      </trkpt>
      <trkpt lat="46.01308" lon="4.42417">
        <ele>794.2</ele>
        <time>2025-09-09T09:11:00Z</time>
      </trkpt>
      <trkpt lat="46.01308" lon="4.42418">
        <ele>794.2</ele>
        <time>2025-09-09T09:11:01Z</time>
      </trkpt>
      <trkpt lat="46.0131" lon="4.42415">
        <ele>793.8</ele>
        <time>2025-09-09T09:12:43Z</time>
      </trkpt>
      <trkpt lat="46.01309" lon="4.42414">
        <ele>793.8</ele>
        <time>2025-09-09T09:12:44Z</time>
      </trkpt>
      <trkpt lat="46.01307" lon="4.42413">
        <ele>793.6</ele>
        <time>2025-09-09T09:12:45Z</time>
      </trkpt>
      <trkpt lat="46.01305" lon="4.42412">
        <ele>793.6</ele>
        <time>2025-09-09T09:12:46Z</time>
      </trkpt>
      <trkpt lat="46.01304" lon="4.4241">
        <ele>792.6</ele>
        <time>2025-09-09T09:12:47Z</time>
      </trkpt>
      <trkpt lat="46.01302" lon="4.42409">
        <ele>792.6</ele>
        <time>2025-09-09T09:12:48Z</time>
      </trkpt>
      <trkpt lat="46.013" lon="4.42409">
        <ele>792.6</ele>
        <time>2025-09-09T09:12:49Z</time>
      </trkpt>
      <trkpt lat="46.01296" lon="4.42408">
        <ele>792.6</ele>
        <time>2025-09-09T09:12:50Z</time>
      </trkpt>
      <trkpt lat="46.01293" lon="4.42408">
        <ele>792.6</ele>
        <time>2025-09-09T09:12:51Z</time>
      </trkpt>
      <trkpt lat="46.01289" lon="4.42407">
        <ele>792.6</ele>
        <time>2025-09-09T09:12:52Z</time>
      </trkpt>
      <trkpt lat="46.01286" lon="4.42406">
        <ele>792.4</ele>
        <time>2025-09-09T09:12:53Z</time>
      </trkpt>
      <trkpt lat="46.01282" lon="4.42405">
        <ele>792</ele>
        <time>2025-09-09T09:12:54Z</time>
      </trkpt>
      <trkpt lat="46.01278" lon="4.42405">
        <ele>791.6</ele>
        <time>2025-09-09T09:12:55Z</time>
      </trkpt>
      <trkpt lat="46.01274" lon="4.42405">
        <ele>791.2</ele>
        <time>2025-09-09T09:12:56Z</time>
      </trkpt>
      <trkpt lat="46.01269" lon="4.42406">
        <ele>790.8</ele>
        <time>2025-09-09T09:12:57Z</time>
      </trkpt>
      <trkpt lat="46.01264" lon="4.42406">
        <ele>790.6</ele>
        <time>2025-09-09T09:12:58Z</time>
      </trkpt>
      <trkpt lat="46.0126" lon="4.42406">
        <ele>790.2</ele>
        <time>2025-09-09T09:12:59Z</time>
      </trkpt>
      <trkpt lat="46.01256" lon="4.42405">
        <ele>789.6</ele>
        <time>2025-09-09T09:13:00Z</time>
      </trkpt>
      <trkpt lat="46.01244" lon="4.42407">
        <ele>788.6</ele>
        <time>2025-09-09T09:13:01Z</time>
      </trkpt>
      <trkpt lat="46.01237" lon="4.42406">
        <ele>787.6</ele>
        <time>2025-09-09T09:13:02Z</time>
      </trkpt>
      <trkpt lat="46.01233" lon="4.42404">
        <ele>787.2</ele>
        <time>2025-09-09T09:13:03Z</time>
      </trkpt>
      <trkpt lat="46.01228" lon="4.42403">
        <ele>786.6</ele>
        <time>2025-09-09T09:13:04Z</time>
      </trkpt>
      <trkpt lat="46.01225" lon="4.424">
        <ele>785.8</ele>
        <time>2025-09-09T09:13:05Z</time>
      </trkpt>
      <trkpt lat="46.01221" lon="4.42397">
        <ele>785</ele>
        <time>2025-09-09T09:13:06Z</time>
      </trkpt>
      <trkpt lat="46.01219" lon="4.42398">
        <ele>784.4</ele>
        <time>2025-09-09T09:13:07Z</time>
      </trkpt>
      <trkpt lat="46.01217" lon="4.42396">
        <ele>784</ele>
        <time>2025-09-09T09:13:08Z</time>
      </trkpt>
      <trkpt lat="46.01217" lon="4.42394">
        <ele>783.4</ele>
        <time>2025-09-09T09:13:09Z</time>
      </trkpt>
      <trkpt lat="46.01214" lon="4.42393">
        <ele>783.2</ele>
        <time>2025-09-09T09:13:10Z</time>
      </trkpt>
      <trkpt lat="46.01213" lon="4.42391">
        <ele>782.8</ele>
        <time>2025-09-09T09:13:11Z</time>
      </trkpt>
      <trkpt lat="46.01211" lon="4.42389">
        <ele>782.4</ele>
        <time>2025-09-09T09:13:12Z</time>
      </trkpt>
      <trkpt lat="46.01209" lon="4.42388">
        <ele>782</ele>
        <time>2025-09-09T09:13:13Z</time>
      </trkpt>
      <trkpt lat="46.01207" lon="4.42388">
        <ele>781.6</ele>
        <time>2025-09-09T09:13:14Z</time>
      </trkpt>
      <trkpt lat="46.01205" lon="4.42387">
        <ele>781.4</ele>
        <time>2025-09-09T09:13:15Z</time>
      </trkpt>
      <trkpt lat="46.01203" lon="4.42387">
        <ele>780.8</ele>
        <time>2025-09-09T09:13:16Z</time>
      </trkpt>
      <trkpt lat="46.01202" lon="4.42387">
        <ele>780.8</ele>
        <time>2025-09-09T09:13:17Z</time>
      </trkpt>
      <trkpt lat="46.012" lon="4.42388">
        <ele>780.2</ele>
        <time>2025-09-09T09:13:18Z</time>
      </trkpt>
      <trkpt lat="46.01197" lon="4.42386">
        <ele>779.8</ele>
        <time>2025-09-09T09:13:19Z</time>
      </trkpt>
      <trkpt lat="46.01194" lon="4.42384">
        <ele>779.2</ele>
        <time>2025-09-09T09:13:20Z</time>
      </trkpt>
      <trkpt lat="46.01191" lon="4.42383">
        <ele>778.8</ele>
        <time>2025-09-09T09:13:21Z</time>
      </trkpt>
      <trkpt lat="46.01189" lon="4.42382">
        <ele>778.4</ele>
        <time>2025-09-09T09:13:22Z</time>
      </trkpt>
      <trkpt lat="46.01186" lon="4.42382">
        <ele>777.8</ele>
        <time>2025-09-09T09:13:23Z</time>
      </trkpt>
      <trkpt lat="46.01183" lon="4.4238">
        <ele>777.6</ele>
        <time>2025-09-09T09:13:24Z</time>
      </trkpt>
      <trkpt lat="46.0118" lon="4.42378">
        <ele>777.2</ele>
        <time>2025-09-09T09:13:25Z</time>
      </trkpt>
      <trkpt lat="46.01177" lon="4.42376">
        <ele>777</ele>
        <time>2025-09-09T09:13:26Z</time>
      </trkpt>
      <trkpt lat="46.01174" lon="4.42373">
        <ele>776.4</ele>
        <time>2025-09-09T09:13:27Z</time>
      </trkpt>
      <trkpt lat="46.01168" lon="4.42367">
        <ele>776.4</ele>
        <time>2025-09-09T09:13:28Z</time>
      </trkpt>
      <trkpt lat="46.01162" lon="4.42363">
        <ele>776.4</ele>
        <time>2025-09-09T09:13:29Z</time>
      </trkpt>
      <trkpt lat="46.01158" lon="4.42356">
        <ele>776</ele>
        <time>2025-09-09T09:13:30Z</time>
      </trkpt>
      <trkpt lat="46.01154" lon="4.42352">
        <ele>775.4</ele>
        <time>2025-09-09T09:13:31Z</time>
      </trkpt>
      <trkpt lat="46.0115" lon="4.42349">
        <ele>774.6</ele>
        <time>2025-09-09T09:13:32Z</time>
      </trkpt>
      <trkpt lat="46.01147" lon="4.42343">
        <ele>774.4</ele>
        <time>2025-09-09T09:13:33Z</time>
      </trkpt>
      <trkpt lat="46.01141" lon="4.42342">
        <ele>773.8</ele>
        <time>2025-09-09T09:13:34Z</time>
      </trkpt>
      <trkpt lat="46.01137" lon="4.42339">
        <ele>773.2</ele>
        <time>2025-09-09T09:13:35Z</time>
      </trkpt>
      <trkpt lat="46.01131" lon="4.42339">
        <ele>772.2</ele>
        <time>2025-09-09T09:13:36Z</time>
      </trkpt>
      <trkpt lat="46.01127" lon="4.42337">
        <ele>771.4</ele>
        <time>2025-09-09T09:13:37Z</time>
      </trkpt>
      <trkpt lat="46.01121" lon="4.42339">
        <ele>770.8</ele>
        <time>2025-09-09T09:13:38Z</time>
      </trkpt>
      <trkpt lat="46.01116" lon="4.42339">
        <ele>770</ele>
        <time>2025-09-09T09:13:39Z</time>
      </trkpt>
      <trkpt lat="46.01112" lon="4.4234">
        <ele>769.6</ele>
        <time>2025-09-09T09:13:40Z</time>
      </trkpt>
      <trkpt lat="46.01109" lon="4.4234">
        <ele>768.6</ele>
        <time>2025-09-09T09:13:41Z</time>
      </trkpt>
      <trkpt lat="46.01106" lon="4.42337">
        <ele>768</ele>
        <time>2025-09-09T09:13:42Z</time>
      </trkpt>
      <trkpt lat="46.01103" lon="4.42338">
        <ele>767</ele>
        <time>2025-09-09T09:13:43Z</time>
      </trkpt>
      <trkpt lat="46.01098" lon="4.42339">
        <ele>766</ele>
        <time>2025-09-09T09:13:44Z</time>
      </trkpt>
      <trkpt lat="46.01093" lon="4.4234">
        <ele>766</ele>
        <time>2025-09-09T09:13:45Z</time>
      </trkpt>
      <trkpt lat="46.01087" lon="4.42339">
        <ele>765.6</ele>
        <time>2025-09-09T09:13:46Z</time>
      </trkpt>
      <trkpt lat="46.01082" lon="4.42339">
        <ele>765.6</ele>
        <time>2025-09-09T09:13:47Z</time>
      </trkpt>
      <trkpt lat="46.01075" lon="4.42337">
        <ele>764.6</ele>
        <time>2025-09-09T09:13:48Z</time>
      </trkpt>
      <trkpt lat="46.01068" lon="4.42336">
        <ele>764.2</ele>
        <time>2025-09-09T09:13:49Z</time>
      </trkpt>
      <trkpt lat="46.01062" lon="4.42334">
        <ele>763.2</ele>
        <time>2025-09-09T09:13:50Z</time>
      </trkpt>
      <trkpt lat="46.01059" lon="4.42331">
        <ele>762.6</ele>
        <time>2025-09-09T09:13:51Z</time>
      </trkpt>
      <trkpt lat="46.01054" lon="4.42328">
        <ele>762</ele>
        <time>2025-09-09T09:13:52Z</time>
      </trkpt>
      <trkpt lat="46.01051" lon="4.42327">
        <ele>761.4</ele>
        <time>2025-09-09T09:13:53Z</time>
      </trkpt>
      <trkpt lat="46.01046" lon="4.42324">
        <ele>759.4</ele>
        <time>2025-09-09T09:13:54Z</time>
      </trkpt>
      <trkpt lat="46.01043" lon="4.42318">
        <ele>759</ele>
        <time>2025-09-09T09:13:55Z</time>
      </trkpt>
      <trkpt lat="46.01038" lon="4.42316">
        <ele>758.6</ele>
        <time>2025-09-09T09:13:56Z</time>
      </trkpt>
      <trkpt lat="46.01037" lon="4.42311">
        <ele>758.2</ele>
        <time>2025-09-09T09:13:57Z</time>
      </trkpt>
      <trkpt lat="46.01032" lon="4.42309">
        <ele>758</ele>
        <time>2025-09-09T09:13:58Z</time>
      </trkpt>
      <trkpt lat="46.01025" lon="4.4231">
        <ele>757.6</ele>
        <time>2025-09-09T09:13:59Z</time>
      </trkpt>
      <trkpt lat="46.0102" lon="4.42309">
        <ele>757.2</ele>
        <time>2025-09-09T09:14:00Z</time>
      </trkpt>
      <trkpt lat="46.01018" lon="4.42308">
        <ele>757</ele>
        <time>2025-09-09T09:14:01Z</time>
      </trkpt>
      <trkpt lat="46.01014" lon="4.42305">
        <ele>757</ele>
        <time>2025-09-09T09:14:02Z</time>
      </trkpt>
      <trkpt lat="46.01008" lon="4.42299">
        <ele>757</ele>
        <time>2025-09-09T09:14:03Z</time>
      </trkpt>
      <trkpt lat="46.01" lon="4.42301">
        <ele>756.6</ele>
        <time>2025-09-09T09:14:04Z</time>
      </trkpt>
      <trkpt lat="46.00997" lon="4.42296">
        <ele>756</ele>
        <time>2025-09-09T09:14:05Z</time>
      </trkpt>
      <trkpt lat="46.00991" lon="4.42294">
        <ele>756</ele>
        <time>2025-09-09T09:14:06Z</time>
      </trkpt>
      <trkpt lat="46.00985" lon="4.42291">
        <ele>756.4</ele>
        <time>2025-09-09T09:14:07Z</time>
      </trkpt>
      <trkpt lat="46.00981" lon="4.42292">
        <ele>756</ele>
        <time>2025-09-09T09:14:08Z</time>
      </trkpt>
      <trkpt lat="46.00978" lon="4.42288">
        <ele>755.6</ele>
        <time>2025-09-09T09:14:09Z</time>
      </trkpt>
      <trkpt lat="46.00974" lon="4.42285">
        <ele>755.6</ele>
        <time>2025-09-09T09:14:10Z</time>
      </trkpt>
      <trkpt lat="46.00971" lon="4.42283">
        <ele>755.2</ele>
        <time>2025-09-09T09:14:11Z</time>
      </trkpt>
      <trkpt lat="46.00967" lon="4.42281">
        <ele>755.2</ele>
        <time>2025-09-09T09:14:12Z</time>
      </trkpt>
      <trkpt lat="46.00964" lon="4.4228">
        <ele>755.2</ele>
        <time>2025-09-09T09:14:13Z</time>
      </trkpt>
      <trkpt lat="46.00961" lon="4.42278">
        <ele>755.2</ele>
        <time>2025-09-09T09:14:14Z</time>
      </trkpt>
      <trkpt lat="46.00957" lon="4.42276">
        <ele>755.2</ele>
        <time>2025-09-09T09:14:15Z</time>
      </trkpt>
      <trkpt lat="46.00953" lon="4.42276">
        <ele>755</ele>
        <time>2025-09-09T09:14:16Z</time>
      </trkpt>
      <trkpt lat="46.0095" lon="4.42275">
        <ele>755</ele>
        <time>2025-09-09T09:14:17Z</time>
      </trkpt>
      <trkpt lat="46.00948" lon="4.42272">
        <ele>755</ele>
        <time>2025-09-09T09:14:18Z</time>
      </trkpt>
      <trkpt lat="46.00944" lon="4.42272">
        <ele>754.8</ele>
        <time>2025-09-09T09:14:19Z</time>
      </trkpt>
      <trkpt lat="46.00941" lon="4.42272">
        <ele>754.8</ele>
        <time>2025-09-09T09:14:20Z</time>
      </trkpt>
      <trkpt lat="46.00938" lon="4.4227">
        <ele>755</ele>
        <time>2025-09-09T09:14:21Z</time>
      </trkpt>
      <trkpt lat="46.00935" lon="4.42268">
        <ele>755</ele>
        <time>2025-09-09T09:14:22Z</time>
      </trkpt>
      <trkpt lat="46.00933" lon="4.42266">
        <ele>755.2</ele>
        <time>2025-09-09T09:14:23Z</time>
      </trkpt>
      <trkpt lat="46.00931" lon="4.42264">
        <ele>755.2</ele>
        <time>2025-09-09T09:14:24Z</time>
      </trkpt>
      <trkpt lat="46.00928" lon="4.42261">
        <ele>755.2</ele>
        <time>2025-09-09T09:14:25Z</time>
      </trkpt>
      <trkpt lat="46.00926" lon="4.42258">
        <ele>755.2</ele>
        <time>2025-09-09T09:14:26Z</time>
      </trkpt>
      <trkpt lat="46.00924" lon="4.42256">
        <ele>755.2</ele>
        <time>2025-09-09T09:14:27Z</time>
      </trkpt>
      <trkpt lat="46.0092" lon="4.42254">
        <ele>755.2</ele>
        <time>2025-09-09T09:14:28Z</time>
      </trkpt>
      <trkpt lat="46.00917" lon="4.42253">
        <ele>755.6</ele>
        <time>2025-09-09T09:14:29Z</time>
      </trkpt>
      <trkpt lat="46.00914" lon="4.42251">
        <ele>755.6</ele>
        <time>2025-09-09T09:14:30Z</time>
      </trkpt>
      <trkpt lat="46.00912" lon="4.42249">
        <ele>755.4</ele>
        <time>2025-09-09T09:14:31Z</time>
      </trkpt>
      <trkpt lat="46.00909" lon="4.42247">
        <ele>755.4</ele>
        <time>2025-09-09T09:14:32Z</time>
      </trkpt>
      <trkpt lat="46.00905" lon="4.42245">
        <ele>755.4</ele>
        <time>2025-09-09T09:14:33Z</time>
      </trkpt>
      <trkpt lat="46.00902" lon="4.42243">
        <ele>755.4</ele>
        <time>2025-09-09T09:14:34Z</time>
      </trkpt>
      <trkpt lat="46.00898" lon="4.42241">
        <ele>755.4</ele>
        <time>2025-09-09T09:14:35Z</time>
      </trkpt>
      <trkpt lat="46.00896" lon="4.42239">
        <ele>755.4</ele>
        <time>2025-09-09T09:14:36Z</time>
      </trkpt>
      <trkpt lat="46.00892" lon="4.42235">
        <ele>755</ele>
        <time>2025-09-09T09:14:37Z</time>
      </trkpt>
      <trkpt lat="46.00889" lon="4.42232">
        <ele>755</ele>
        <time>2025-09-09T09:14:38Z</time>
      </trkpt>
      <trkpt lat="46.00885" lon="4.4223">
        <ele>755</ele>
        <time>2025-09-09T09:14:39Z</time>
      </trkpt>
      <trkpt lat="46.00882" lon="4.42229">
        <ele>755</ele>
        <time>2025-09-09T09:14:40Z</time>
      </trkpt>
      <trkpt lat="46.00878" lon="4.42226">
        <ele>755</ele>
        <time>2025-09-09T09:14:41Z</time>
      </trkpt>
      <trkpt lat="46.00877" lon="4.42221">
        <ele>755</ele>
        <time>2025-09-09T09:14:42Z</time>
      </trkpt>
      <trkpt lat="46.00873" lon="4.42221">
        <ele>755</ele>
        <time>2025-09-09T09:14:43Z</time>
      </trkpt>
      <trkpt lat="46.00873" lon="4.42217">
        <ele>754.8</ele>
        <time>2025-09-09T09:14:44Z</time>
      </trkpt>
      <trkpt lat="46.00871" lon="4.42215">
        <ele>754.8</ele>
        <time>2025-09-09T09:14:45Z</time>
      </trkpt>
      <trkpt lat="46.00868" lon="4.42212">
        <ele>755</ele>
        <time>2025-09-09T09:14:46Z</time>
      </trkpt>
      <trkpt lat="46.00866" lon="4.42212">
        <ele>755</ele>
        <time>2025-09-09T09:14:47Z</time>
      </trkpt>
      <trkpt lat="46.00864" lon="4.42209">
        <ele>755</ele>
        <time>2025-09-09T09:14:48Z</time>
      </trkpt>
      <trkpt lat="46.00862" lon="4.42204">
        <ele>755</ele>
        <time>2025-09-09T09:14:49Z</time>
      </trkpt>
      <trkpt lat="46.0086" lon="4.422">
        <ele>755</ele>
        <time>2025-09-09T09:14:50Z</time>
      </trkpt>
      <trkpt lat="46.00858" lon="4.42198">
        <ele>755</ele>
        <time>2025-09-09T09:14:51Z</time>
      </trkpt>
      <trkpt lat="46.00856" lon="4.42195">
        <ele>755</ele>
        <time>2025-09-09T09:14:52Z</time>
      </trkpt>
      <trkpt lat="46.00854" lon="4.42193">
        <ele>755</ele>
        <time>2025-09-09T09:14:53Z</time>
      </trkpt>
      <trkpt lat="46.00852" lon="4.42191">
        <ele>755.2</ele>
        <time>2025-09-09T09:14:54Z</time>
      </trkpt>
      <trkpt lat="46.0085" lon="4.4219">
        <ele>755.2</ele>
        <time>2025-09-09T09:14:55Z</time>
      </trkpt>
      <trkpt lat="46.00848" lon="4.42188">
        <ele>755.2</ele>
        <time>2025-09-09T09:14:56Z</time>
      </trkpt>
      <trkpt lat="46.00846" lon="4.42186">
        <ele>755.2</ele>
        <time>2025-09-09T09:14:57Z</time>
      </trkpt>
      <trkpt lat="46.00843" lon="4.42184">
        <ele>755.2</ele>
        <time>2025-09-09T09:14:58Z</time>
      </trkpt>
      <trkpt lat="46.00841" lon="4.42182">
        <ele>755.2</ele>
        <time>2025-09-09T09:14:59Z</time>
      </trkpt>
      <trkpt lat="46.00839" lon="4.4218">
        <ele>755.6</ele>
        <time>2025-09-09T09:15:00Z</time>
      </trkpt>
      <trkpt lat="46.00836" lon="4.42178">
        <ele>755.6</ele>
        <time>2025-09-09T09:15:01Z</time>
      </trkpt>
      <trkpt lat="46.00834" lon="4.42177">
        <ele>755.6</ele>
        <time>2025-09-09T09:15:02Z</time>
      </trkpt>
      <trkpt lat="46.00832" lon="4.42176">
        <ele>755.2</ele>
        <time>2025-09-09T09:15:03Z</time>
      </trkpt>
      <trkpt lat="46.0083" lon="4.42174">
        <ele>755.2</ele>
        <time>2025-09-09T09:15:04Z</time>
      </trkpt>
      <trkpt lat="46.00827" lon="4.42171">
        <ele>755.2</ele>
        <time>2025-09-09T09:15:05Z</time>
      </trkpt>
      <trkpt lat="46.00825" lon="4.42169">
        <ele>755.4</ele>
        <time>2025-09-09T09:15:06Z</time>
      </trkpt>
      <trkpt lat="46.00822" lon="4.42166">
        <ele>755.6</ele>
        <time>2025-09-09T09:15:07Z</time>
      </trkpt>
      <trkpt lat="46.00818" lon="4.42165">
        <ele>755.6</ele>
        <time>2025-09-09T09:15:08Z</time>
      </trkpt>
      <trkpt lat="46.00815" lon="4.42165">
        <ele>755.4</ele>
        <time>2025-09-09T09:15:09Z</time>
      </trkpt>
      <trkpt lat="46.00813" lon="4.42164">
        <ele>755.4</ele>
        <time>2025-09-09T09:15:10Z</time>
      </trkpt>
      <trkpt lat="46.00811" lon="4.42162">
        <ele>755.4</ele>
        <time>2025-09-09T09:15:11Z</time>
      </trkpt>
      <trkpt lat="46.00809" lon="4.42161">
        <ele>755.4</ele>
        <time>2025-09-09T09:15:12Z</time>
      </trkpt>
      <trkpt lat="46.00807" lon="4.42159">
        <ele>755.4</ele>
        <time>2025-09-09T09:15:13Z</time>
      </trkpt>
      <trkpt lat="46.00804" lon="4.42157">
        <ele>755</ele>
        <time>2025-09-09T09:15:14Z</time>
      </trkpt>
      <trkpt lat="46.00801" lon="4.42156">
        <ele>755</ele>
        <time>2025-09-09T09:15:15Z</time>
      </trkpt>
      <trkpt lat="46.00797" lon="4.42154">
        <ele>755</ele>
        <time>2025-09-09T09:15:16Z</time>
      </trkpt>
      <trkpt lat="46.00795" lon="4.42153">
        <ele>755.4</ele>
        <time>2025-09-09T09:15:17Z</time>
      </trkpt>
      <trkpt lat="46.00793" lon="4.42151">
        <ele>755.4</ele>
        <time>2025-09-09T09:15:18Z</time>
      </trkpt>
      <trkpt lat="46.00791" lon="4.42149">
        <ele>755.4</ele>
        <time>2025-09-09T09:15:19Z</time>
      </trkpt>
      <trkpt lat="46.00788" lon="4.42147">
        <ele>755.6</ele>
        <time>2025-09-09T09:15:20Z</time>
      </trkpt>
      <trkpt lat="46.00786" lon="4.42145">
        <ele>755.6</ele>
        <time>2025-09-09T09:15:21Z</time>
      </trkpt>
      <trkpt lat="46.00783" lon="4.42143">
        <ele>755.8</ele>
        <time>2025-09-09T09:15:22Z</time>
      </trkpt>
      <trkpt lat="46.0078" lon="4.42141">
        <ele>756.2</ele>
        <time>2025-09-09T09:15:23Z</time>
      </trkpt>
      <trkpt lat="46.00778" lon="4.42139">
        <ele>756.2</ele>
        <time>2025-09-09T09:15:24Z</time>
      </trkpt>
      <trkpt lat="46.00776" lon="4.42136">
        <ele>756.2</ele>
        <time>2025-09-09T09:15:25Z</time>
      </trkpt>
      <trkpt lat="46.00773" lon="4.42134">
        <ele>756.2</ele>
        <time>2025-09-09T09:15:26Z</time>
      </trkpt>
      <trkpt lat="46.00771" lon="4.42133">
        <ele>756.2</ele>
        <time>2025-09-09T09:15:27Z</time>
      </trkpt>
      <trkpt lat="46.00768" lon="4.42131">
        <ele>756.2</ele>
        <time>2025-09-09T09:15:28Z</time>
      </trkpt>
      <trkpt lat="46.00764" lon="4.42129">
        <ele>756.2</ele>
        <time>2025-09-09T09:15:29Z</time>
      </trkpt>
      <trkpt lat="46.00762" lon="4.42128">
        <ele>756.2</ele>
        <time>2025-09-09T09:15:30Z</time>
      </trkpt>
      <trkpt lat="46.00761" lon="4.42127">
        <ele>756.2</ele>
        <time>2025-09-09T09:15:31Z</time>
      </trkpt>
      <trkpt lat="46.0076" lon="4.42126">
        <ele>756.2</ele>
        <time>2025-09-09T09:15:32Z</time>
      </trkpt>
      <trkpt lat="46.00759" lon="4.42126">
        <ele>756.2</ele>
        <time>2025-09-09T09:15:33Z</time>
      </trkpt>
      <trkpt lat="46.00756" lon="4.42126">
        <ele>756.2</ele>
        <time>2025-09-09T09:15:34Z</time>
      </trkpt>
      <trkpt lat="46.00754" lon="4.42126">
        <ele>756.2</ele>
        <time>2025-09-09T09:15:35Z</time>
      </trkpt>
      <trkpt lat="46.00747" lon="4.42122">
        <ele>756.2</ele>
        <time>2025-09-09T09:15:36Z</time>
      </trkpt>
      <trkpt lat="46.00744" lon="4.42119">
        <ele>756.2</ele>
        <time>2025-09-09T09:15:37Z</time>
      </trkpt>
      <trkpt lat="46.0074" lon="4.42116">
        <ele>755.6</ele>
        <time>2025-09-09T09:15:38Z</time>
      </trkpt>
      <trkpt lat="46.00736" lon="4.42114">
        <ele>755.6</ele>
        <time>2025-09-09T09:15:39Z</time>
      </trkpt>
      <trkpt lat="46.00731" lon="4.42111">
        <ele>755.2</ele>
        <time>2025-09-09T09:15:40Z</time>
      </trkpt>
      <trkpt lat="46.00728" lon="4.42107">
        <ele>755.2</ele>
        <time>2025-09-09T09:15:41Z</time>
      </trkpt>
      <trkpt lat="46.00726" lon="4.42104">
        <ele>755.2</ele>
        <time>2025-09-09T09:15:42Z</time>
      </trkpt>
      <trkpt lat="46.00722" lon="4.42091">
        <ele>755</ele>
        <time>2025-09-09T09:15:43Z</time>
      </trkpt>
      <trkpt lat="46.00718" lon="4.42084">
        <ele>754.6</ele>
        <time>2025-09-09T09:15:44Z</time>
      </trkpt>
      <trkpt lat="46.00714" lon="4.42076">
        <ele>754.2</ele>
        <time>2025-09-09T09:15:45Z</time>
      </trkpt>
      <trkpt lat="46.00718" lon="4.42061">
        <ele>753.8</ele>
        <time>2025-09-09T09:15:46Z</time>
      </trkpt>
      <trkpt lat="46.00716" lon="4.42052">
        <ele>753.4</ele>
        <time>2025-09-09T09:15:47Z</time>
      </trkpt>
      <trkpt lat="46.00715" lon="4.42043">
        <ele>753</ele>
        <time>2025-09-09T09:15:48Z</time>
      </trkpt>
      <trkpt lat="46.00714" lon="4.42032">
        <ele>752.4</ele>
        <time>2025-09-09T09:15:49Z</time>
      </trkpt>
      <trkpt lat="46.00707" lon="4.42023">
        <ele>751.8</ele>
        <time>2025-09-09T09:15:50Z</time>
      </trkpt>
      <trkpt lat="46.00702" lon="4.42015">
        <ele>750.8</ele>
        <time>2025-09-09T09:15:51Z</time>
      </trkpt>
      <trkpt lat="46.00699" lon="4.42007">
        <ele>749.8</ele>
        <time>2025-09-09T09:15:52Z</time>
      </trkpt>
      <trkpt lat="46.00696" lon="4.41999">
        <ele>749</ele>
        <time>2025-09-09T09:15:53Z</time>
      </trkpt>
      <trkpt lat="46.00696" lon="4.41988">
        <ele>748.6</ele>
        <time>2025-09-09T09:15:54Z</time>
      </trkpt>
      <trkpt lat="46.00691" lon="4.41976">
        <ele>748</ele>
        <time>2025-09-09T09:15:55Z</time>
      </trkpt>
      <trkpt lat="46.00686" lon="4.41966">
        <ele>747.4</ele>
        <time>2025-09-09T09:15:56Z</time>
      </trkpt>
      <trkpt lat="46.00682" lon="4.41956">
        <ele>746.8</ele>
        <time>2025-09-09T09:15:57Z</time>
      </trkpt>
      <trkpt lat="46.00679" lon="4.41943">
        <ele>746.6</ele>
        <time>2025-09-09T09:15:58Z</time>
      </trkpt>
      <trkpt lat="46.00673" lon="4.41934">
        <ele>746.2</ele>
        <time>2025-09-09T09:15:59Z</time>
      </trkpt>
      <trkpt lat="46.00669" lon="4.41926">
        <ele>746</ele>
        <time>2025-09-09T09:16:00Z</time>
      </trkpt>
      <trkpt lat="46.00661" lon="4.41918">
        <ele>745.8</ele>
        <time>2025-09-09T09:16:01Z</time>
      </trkpt>
      <trkpt lat="46.0066" lon="4.41908">
        <ele>745.8</ele>
        <time>2025-09-09T09:16:02Z</time>
      </trkpt>
      <trkpt lat="46.00655" lon="4.419">
        <ele>745.8</ele>
        <time>2025-09-09T09:16:03Z</time>
      </trkpt>
      <trkpt lat="46.00654" lon="4.41891">
        <ele>745.4</ele>
        <time>2025-09-09T09:16:04Z</time>
      </trkpt>
      <trkpt lat="46.0065" lon="4.41882">
        <ele>745.4</ele>
        <time>2025-09-09T09:16:05Z</time>
      </trkpt>
      <trkpt lat="46.00646" lon="4.41874">
        <ele>745.6</ele>
        <time>2025-09-09T09:16:06Z</time>
      </trkpt>
      <trkpt lat="46.00643" lon="4.41867">
        <ele>745.8</ele>
        <time>2025-09-09T09:16:07Z</time>
      </trkpt>
      <trkpt lat="46.00641" lon="4.4186">
        <ele>745.8</ele>
        <time>2025-09-09T09:16:08Z</time>
      </trkpt>
      <trkpt lat="46.00638" lon="4.41853">
        <ele>746</ele>
        <time>2025-09-09T09:16:09Z</time>
      </trkpt>
      <trkpt lat="46.00637" lon="4.41846">
        <ele>746.4</ele>
        <time>2025-09-09T09:16:10Z</time>
      </trkpt>
      <trkpt lat="46.00635" lon="4.41841">
        <ele>746.4</ele>
        <time>2025-09-09T09:16:11Z</time>
      </trkpt>
      <trkpt lat="46.00633" lon="4.41838">
        <ele>746.6</ele>
        <time>2025-09-09T09:16:12Z</time>
      </trkpt>
      <trkpt lat="46.0063" lon="4.41834">
        <ele>746.6</ele>
        <time>2025-09-09T09:16:13Z</time>
      </trkpt>
      <trkpt lat="46.00627" lon="4.41829">
        <ele>746.8</ele>
        <time>2025-09-09T09:16:14Z</time>
      </trkpt>
      <trkpt lat="46.00624" lon="4.41827">
        <ele>746.8</ele>
        <time>2025-09-09T09:16:15Z</time>
      </trkpt>
      <trkpt lat="46.00621" lon="4.41821">
        <ele>747.2</ele>
        <time>2025-09-09T09:16:16Z</time>
      </trkpt>
      <trkpt lat="46.00619" lon="4.41818">
        <ele>747.2</ele>
        <time>2025-09-09T09:16:17Z</time>
      </trkpt>
      <trkpt lat="46.00619" lon="4.41815">
        <ele>747.2</ele>
        <time>2025-09-09T09:16:18Z</time>
      </trkpt>
      <trkpt lat="46.00618" lon="4.41811">
        <ele>747.6</ele>
        <time>2025-09-09T09:16:19Z</time>
      </trkpt>
      <trkpt lat="46.00612" lon="4.41809">
        <ele>747.8</ele>
        <time>2025-09-09T09:16:20Z</time>
      </trkpt>
      <trkpt lat="46.00611" lon="4.41809">
        <ele>748</ele>
        <time>2025-09-09T09:16:21Z</time>
      </trkpt>
      <trkpt lat="46.0061" lon="4.41807">
        <ele>748</ele>
        <time>2025-09-09T09:16:22Z</time>
      </trkpt>
      <trkpt lat="46.00607" lon="4.41806">
        <ele>748.4</ele>
        <time>2025-09-09T09:16:23Z</time>
      </trkpt>
      <trkpt lat="46.00607" lon="4.41806">
        <ele>748.6</ele>
        <time>2025-09-09T09:16:24Z</time>
      </trkpt>
      <trkpt lat="46.00603" lon="4.41805">
        <ele>748.8</ele>
        <time>2025-09-09T09:16:25Z</time>
      </trkpt>
      <trkpt lat="46.00602" lon="4.41803">
        <ele>749</ele>
        <time>2025-09-09T09:16:26Z</time>
      </trkpt>
      <trkpt lat="46.006" lon="4.41802">
        <ele>749</ele>
        <time>2025-09-09T09:16:27Z</time>
      </trkpt>
      <trkpt lat="46.00598" lon="4.418">
        <ele>749.4</ele>
        <time>2025-09-09T09:16:28Z</time>
      </trkpt>
      <trkpt lat="46.00596" lon="4.41799">
        <ele>749.6</ele>
        <time>2025-09-09T09:16:29Z</time>
      </trkpt>
      <trkpt lat="46.00594" lon="4.41798">
        <ele>749.8</ele>
        <time>2025-09-09T09:16:30Z</time>
      </trkpt>
      <trkpt lat="46.00591" lon="4.41797">
        <ele>749.8</ele>
        <time>2025-09-09T09:16:31Z</time>
      </trkpt>
      <trkpt lat="46.00589" lon="4.41795">
        <ele>749.8</ele>
        <time>2025-09-09T09:16:32Z</time>
      </trkpt>
      <trkpt lat="46.00588" lon="4.41793">
        <ele>750.2</ele>
        <time>2025-09-09T09:16:33Z</time>
      </trkpt>
      <trkpt lat="46.00587" lon="4.4179">
        <ele>750.2</ele>
        <time>2025-09-09T09:16:34Z</time>
      </trkpt>
      <trkpt lat="46.00586" lon="4.41787">
        <ele>750.2</ele>
        <time>2025-09-09T09:16:35Z</time>
      </trkpt>
      <trkpt lat="46.00586" lon="4.41784">
        <ele>750.4</ele>
        <time>2025-09-09T09:16:36Z</time>
      </trkpt>
      <trkpt lat="46.00585" lon="4.41782">
        <ele>750.4</ele>
        <time>2025-09-09T09:16:37Z</time>
      </trkpt>
      <trkpt lat="46.00584" lon="4.41778">
        <ele>750.4</ele>
        <time>2025-09-09T09:16:38Z</time>
      </trkpt>
      <trkpt lat="46.00584" lon="4.41776">
        <ele>750.6</ele>
        <time>2025-09-09T09:16:39Z</time>
      </trkpt>
      <trkpt lat="46.00584" lon="4.41773">
        <ele>750.6</ele>
        <time>2025-09-09T09:16:40Z</time>
      </trkpt>
      <trkpt lat="46.00583" lon="4.4177">
        <ele>750.8</ele>
        <time>2025-09-09T09:16:41Z</time>
      </trkpt>
      <trkpt lat="46.00582" lon="4.41767">
        <ele>750.8</ele>
        <time>2025-09-09T09:16:42Z</time>
      </trkpt>
      <trkpt lat="46.00581" lon="4.41765">
        <ele>750.8</ele>
        <time>2025-09-09T09:16:43Z</time>
      </trkpt>
      <trkpt lat="46.0058" lon="4.41763">
        <ele>750.8</ele>
        <time>2025-09-09T09:16:44Z</time>
      </trkpt>
      <trkpt lat="46.00578" lon="4.41761">
        <ele>751.4</ele>
        <time>2025-09-09T09:16:45Z</time>
      </trkpt>
      <trkpt lat="46.00577" lon="4.41759">
        <ele>751.4</ele>
        <time>2025-09-09T09:16:46Z</time>
      </trkpt>
      <trkpt lat="46.00575" lon="4.41757">
        <ele>751.4</ele>
        <time>2025-09-09T09:16:47Z</time>
      </trkpt>
      <trkpt lat="46.00574" lon="4.41754">
        <ele>751.6</ele>
        <time>2025-09-09T09:16:48Z</time>
      </trkpt>
      <trkpt lat="46.00573" lon="4.41751">
        <ele>751.6</ele>
        <time>2025-09-09T09:16:49Z</time>
      </trkpt>
      <trkpt lat="46.00571" lon="4.41749">
        <ele>751.8</ele>
        <time>2025-09-09T09:16:50Z</time>
      </trkpt>
      <trkpt lat="46.0057" lon="4.41747">
        <ele>751.8</ele>
        <time>2025-09-09T09:16:51Z</time>
      </trkpt>
      <trkpt lat="46.00568" lon="4.41746">
        <ele>751.8</ele>
        <time>2025-09-09T09:16:52Z</time>
      </trkpt>
      <trkpt lat="46.00567" lon="4.41744">
        <ele>752.4</ele>
        <time>2025-09-09T09:16:53Z</time>
      </trkpt>
      <trkpt lat="46.00565" lon="4.41741">
        <ele>752.4</ele>
        <time>2025-09-09T09:16:54Z</time>
      </trkpt>
      <trkpt lat="46.00563" lon="4.41738">
        <ele>752.4</ele>
        <time>2025-09-09T09:16:55Z</time>
      </trkpt>
      <trkpt lat="46.00562" lon="4.41735">
        <ele>752.6</ele>
        <time>2025-09-09T09:16:56Z</time>
      </trkpt>
      <trkpt lat="46.0056" lon="4.41733">
        <ele>752.6</ele>
        <time>2025-09-09T09:16:57Z</time>
      </trkpt>
      <trkpt lat="46.00559" lon="4.41732">
        <ele>752.8</ele>
        <time>2025-09-09T09:16:58Z</time>
      </trkpt>
      <trkpt lat="46.00558" lon="4.41729">
        <ele>752.8</ele>
        <time>2025-09-09T09:16:59Z</time>
      </trkpt>
      <trkpt lat="46.00556" lon="4.41726">
        <ele>753.2</ele>
        <time>2025-09-09T09:17:00Z</time>
      </trkpt>
      <trkpt lat="46.00554" lon="4.41723">
        <ele>753.2</ele>
        <time>2025-09-09T09:17:01Z</time>
      </trkpt>
      <trkpt lat="46.00554" lon="4.4172">
        <ele>753.2</ele>
        <time>2025-09-09T09:17:02Z</time>
      </trkpt>
      <trkpt lat="46.00553" lon="4.41716">
        <ele>753.4</ele>
        <time>2025-09-09T09:17:03Z</time>
      </trkpt>
      <trkpt lat="46.00552" lon="4.41713">
        <ele>753.4</ele>
        <time>2025-09-09T09:17:04Z</time>
      </trkpt>
      <trkpt lat="46.00551" lon="4.4171">
        <ele>753.4</ele>
        <time>2025-09-09T09:17:05Z</time>
      </trkpt>
      <trkpt lat="46.0055" lon="4.41708">
        <ele>753.6</ele>
        <time>2025-09-09T09:17:06Z</time>
      </trkpt>
      <trkpt lat="46.0055" lon="4.41705">
        <ele>754</ele>
        <time>2025-09-09T09:17:07Z</time>
      </trkpt>
      <trkpt lat="46.00549" lon="4.41703">
        <ele>754</ele>
        <time>2025-09-09T09:17:08Z</time>
      </trkpt>
      <trkpt lat="46.00547" lon="4.417">
        <ele>754.2</ele>
        <time>2025-09-09T09:17:09Z</time>
      </trkpt>
      <trkpt lat="46.00546" lon="4.41697">
        <ele>754.4</ele>
        <time>2025-09-09T09:17:10Z</time>
      </trkpt>
      <trkpt lat="46.00544" lon="4.41695">
        <ele>754.6</ele>
        <time>2025-09-09T09:17:11Z</time>
      </trkpt>
      <trkpt lat="46.00542" lon="4.41694">
        <ele>754.6</ele>
        <time>2025-09-09T09:17:12Z</time>
      </trkpt>
      <trkpt lat="46.0054" lon="4.41693">
        <ele>754.6</ele>
        <time>2025-09-09T09:17:13Z</time>
      </trkpt>
      <trkpt lat="46.00539" lon="4.41692">
        <ele>755</ele>
        <time>2025-09-09T09:17:14Z</time>
      </trkpt>
      <trkpt lat="46.00537" lon="4.41691">
        <ele>755.2</ele>
        <time>2025-09-09T09:17:15Z</time>
      </trkpt>
      <trkpt lat="46.00536" lon="4.41688">
        <ele>755.2</ele>
        <time>2025-09-09T09:17:16Z</time>
      </trkpt>
      <trkpt lat="46.00535" lon="4.41687">
        <ele>755.4</ele>
        <time>2025-09-09T09:17:17Z</time>
      </trkpt>
      <trkpt lat="46.00533" lon="4.41686">
        <ele>755.4</ele>
        <time>2025-09-09T09:17:18Z</time>
      </trkpt>
      <trkpt lat="46.00533" lon="4.41683">
        <ele>755.4</ele>
        <time>2025-09-09T09:17:19Z</time>
      </trkpt>
      <trkpt lat="46.00533" lon="4.41683">
        <ele>755.8</ele>
        <time>2025-09-09T09:17:20Z</time>
      </trkpt>
      <trkpt lat="46.00533" lon="4.41683">
        <ele>755.8</ele>
        <time>2025-09-09T09:17:21Z</time>
      </trkpt>
      <trkpt lat="46.00531" lon="4.41671">
        <ele>756.4</ele>
        <time>2025-09-09T09:17:22Z</time>
      </trkpt>
      <trkpt lat="46.00529" lon="4.4167">
        <ele>756.6</ele>
        <time>2025-09-09T09:17:23Z</time>
      </trkpt>
      <trkpt lat="46.00528" lon="4.41667">
        <ele>756.6</ele>
        <time>2025-09-09T09:17:24Z</time>
      </trkpt>
      <trkpt lat="46.00526" lon="4.41665">
        <ele>756.8</ele>
        <time>2025-09-09T09:17:25Z</time>
      </trkpt>
      <trkpt lat="46.00525" lon="4.41663">
        <ele>756.8</ele>
        <time>2025-09-09T09:17:26Z</time>
      </trkpt>
      <trkpt lat="46.00523" lon="4.41663">
        <ele>757</ele>
        <time>2025-09-09T09:17:27Z</time>
      </trkpt>
      <trkpt lat="46.00521" lon="4.41661">
        <ele>757.2</ele>
        <time>2025-09-09T09:17:28Z</time>
      </trkpt>
      <trkpt lat="46.0052" lon="4.41661">
        <ele>757.2</ele>
        <time>2025-09-09T09:17:29Z</time>
      </trkpt>
      <trkpt lat="46.00519" lon="4.41659">
        <ele>757.6</ele>
        <time>2025-09-09T09:17:30Z</time>
      </trkpt>
      <trkpt lat="46.00518" lon="4.41657">
        <ele>757.6</ele>
        <time>2025-09-09T09:17:31Z</time>
      </trkpt>
      <trkpt lat="46.00517" lon="4.41655">
        <ele>758</ele>
        <time>2025-09-09T09:17:32Z</time>
      </trkpt>
      <trkpt lat="46.00517" lon="4.41652">
        <ele>758</ele>
        <time>2025-09-09T09:17:33Z</time>
      </trkpt>
      <trkpt lat="46.00517" lon="4.41648">
        <ele>758.2</ele>
        <time>2025-09-09T09:17:34Z</time>
      </trkpt>
      <trkpt lat="46.00517" lon="4.41644">
        <ele>758.6</ele>
        <time>2025-09-09T09:17:35Z</time>
      </trkpt>
      <trkpt lat="46.00517" lon="4.41643">
        <ele>758.6</ele>
        <time>2025-09-09T09:17:36Z</time>
      </trkpt>
      <trkpt lat="46.00516" lon="4.41642">
        <ele>758.6</ele>
        <time>2025-09-09T09:17:37Z</time>
      </trkpt>
      <trkpt lat="46.00514" lon="4.4164">
        <ele>758.8</ele>
        <time>2025-09-09T09:17:38Z</time>
      </trkpt>
      <trkpt lat="46.00513" lon="4.41638">
        <ele>758.8</ele>
        <time>2025-09-09T09:17:39Z</time>
      </trkpt>
      <trkpt lat="46.00511" lon="4.41638">
        <ele>759</ele>
        <time>2025-09-09T09:17:40Z</time>
      </trkpt>
      <trkpt lat="46.00508" lon="4.41638">
        <ele>759</ele>
        <time>2025-09-09T09:17:41Z</time>
      </trkpt>
      <trkpt lat="46.00506" lon="4.41638">
        <ele>759.4</ele>
        <time>2025-09-09T09:17:42Z</time>
      </trkpt>
      <trkpt lat="46.00505" lon="4.41638">
        <ele>759.4</ele>
        <time>2025-09-09T09:17:43Z</time>
      </trkpt>
      <trkpt lat="46.00504" lon="4.41636">
        <ele>759.4</ele>
        <time>2025-09-09T09:17:44Z</time>
      </trkpt>
      <trkpt lat="46.00503" lon="4.41634">
        <ele>759.6</ele>
        <time>2025-09-09T09:17:45Z</time>
      </trkpt>
      <trkpt lat="46.00503" lon="4.41634">
        <ele>759.6</ele>
        <time>2025-09-09T09:17:46Z</time>
      </trkpt>
      <trkpt lat="46.00502" lon="4.41632">
        <ele>759.8</ele>
        <time>2025-09-09T09:17:47Z</time>
      </trkpt>
      <trkpt lat="46.00501" lon="4.4163">
        <ele>759.8</ele>
        <time>2025-09-09T09:17:48Z</time>
      </trkpt>
      <trkpt lat="46.005" lon="4.41629">
        <ele>760</ele>
        <time>2025-09-09T09:17:49Z</time>
      </trkpt>
      <trkpt lat="46.00499" lon="4.41627">
        <ele>760</ele>
        <time>2025-09-09T09:17:50Z</time>
      </trkpt>
      <trkpt lat="46.00498" lon="4.41626">
        <ele>760.4</ele>
        <time>2025-09-09T09:17:51Z</time>
      </trkpt>
      <trkpt lat="46.00497" lon="4.41625">
        <ele>760.4</ele>
        <time>2025-09-09T09:17:52Z</time>
      </trkpt>
      <trkpt lat="46.00495" lon="4.41624">
        <ele>760.4</ele>
        <time>2025-09-09T09:17:53Z</time>
      </trkpt>
      <trkpt lat="46.00493" lon="4.41623">
        <ele>760.6</ele>
        <time>2025-09-09T09:17:54Z</time>
      </trkpt>
      <trkpt lat="46.00492" lon="4.4162">
        <ele>760.6</ele>
        <time>2025-09-09T09:17:55Z</time>
      </trkpt>
      <trkpt lat="46.00492" lon="4.41617">
        <ele>760.8</ele>
        <time>2025-09-09T09:17:56Z</time>
      </trkpt>
      <trkpt lat="46.00492" lon="4.41615">
        <ele>760.8</ele>
        <time>2025-09-09T09:17:57Z</time>
      </trkpt>
      <trkpt lat="46.00493" lon="4.4161">
        <ele>760.8</ele>
        <time>2025-09-09T09:17:58Z</time>
      </trkpt>
      <trkpt lat="46.00494" lon="4.41605">
        <ele>760.8</ele>
        <time>2025-09-09T09:17:59Z</time>
      </trkpt>
      <trkpt lat="46.00495" lon="4.41603">
        <ele>761.2</ele>
        <time>2025-09-09T09:18:00Z</time>
      </trkpt>
      <trkpt lat="46.00495" lon="4.41601">
        <ele>761.2</ele>
        <time>2025-09-09T09:18:01Z</time>
      </trkpt>
      <trkpt lat="46.00494" lon="4.41599">
        <ele>761.4</ele>
        <time>2025-09-09T09:18:02Z</time>
      </trkpt>
      <trkpt lat="46.00494" lon="4.41596">
        <ele>761.4</ele>
        <time>2025-09-09T09:18:03Z</time>
      </trkpt>
      <trkpt lat="46.00494" lon="4.41593">
        <ele>761.4</ele>
        <time>2025-09-09T09:18:04Z</time>
      </trkpt>
      <trkpt lat="46.00494" lon="4.4159">
        <ele>761.6</ele>
        <time>2025-09-09T09:18:05Z</time>
      </trkpt>
      <trkpt lat="46.00495" lon="4.41586">
        <ele>761.6</ele>
        <time>2025-09-09T09:18:06Z</time>
      </trkpt>
      <trkpt lat="46.00495" lon="4.41581">
        <ele>762</ele>
        <time>2025-09-09T09:18:07Z</time>
      </trkpt>
      <trkpt lat="46.00496" lon="4.41577">
        <ele>762</ele>
        <time>2025-09-09T09:18:08Z</time>
      </trkpt>
      <trkpt lat="46.00495" lon="4.41573">
        <ele>762</ele>
        <time>2025-09-09T09:18:09Z</time>
      </trkpt>
      <trkpt lat="46.00494" lon="4.41571">
        <ele>762</ele>
        <time>2025-09-09T09:18:10Z</time>
      </trkpt>
      <trkpt lat="46.00492" lon="4.41569">
        <ele>762.2</ele>
        <time>2025-09-09T09:18:11Z</time>
      </trkpt>
      <trkpt lat="46.00491" lon="4.41566">
        <ele>762.2</ele>
        <time>2025-09-09T09:18:12Z</time>
      </trkpt>
      <trkpt lat="46.00489" lon="4.41564">
        <ele>762.2</ele>
        <time>2025-09-09T09:18:13Z</time>
      </trkpt>
      <trkpt lat="46.00489" lon="4.41561">
        <ele>762.2</ele>
        <time>2025-09-09T09:18:14Z</time>
      </trkpt>
      <trkpt lat="46.00488" lon="4.41559">
        <ele>762.2</ele>
        <time>2025-09-09T09:18:15Z</time>
      </trkpt>
      <trkpt lat="46.00486" lon="4.41556">
        <ele>762.2</ele>
        <time>2025-09-09T09:18:16Z</time>
      </trkpt>
      <trkpt lat="46.00486" lon="4.41552">
        <ele>762.4</ele>
        <time>2025-09-09T09:18:17Z</time>
      </trkpt>
      <trkpt lat="46.00485" lon="4.41548">
        <ele>762.4</ele>
        <time>2025-09-09T09:18:18Z</time>
      </trkpt>
      <trkpt lat="46.00485" lon="4.41545">
        <ele>762.4</ele>
        <time>2025-09-09T09:18:19Z</time>
      </trkpt>
      <trkpt lat="46.00484" lon="4.41542">
        <ele>762.6</ele>
        <time>2025-09-09T09:18:20Z</time>
      </trkpt>
      <trkpt lat="46.00484" lon="4.41538">
        <ele>762.6</ele>
        <time>2025-09-09T09:18:21Z</time>
      </trkpt>
      <trkpt lat="46.00482" lon="4.41535">
        <ele>762.6</ele>
        <time>2025-09-09T09:18:22Z</time>
      </trkpt>
      <trkpt lat="46.00481" lon="4.41531">
        <ele>762.6</ele>
        <time>2025-09-09T09:18:23Z</time>
      </trkpt>
      <trkpt lat="46.00479" lon="4.41527">
        <ele>762.6</ele>
        <time>2025-09-09T09:18:24Z</time>
      </trkpt>
      <trkpt lat="46.00478" lon="4.41523">
        <ele>762.6</ele>
        <time>2025-09-09T09:18:25Z</time>
      </trkpt>
      <trkpt lat="46.00477" lon="4.41519">
        <ele>762.6</ele>
        <time>2025-09-09T09:18:26Z</time>
      </trkpt>
      <trkpt lat="46.00475" lon="4.41513">
        <ele>762.6</ele>
        <time>2025-09-09T09:18:27Z</time>
      </trkpt>
      <trkpt lat="46.00471" lon="4.41508">
        <ele>762.2</ele>
        <time>2025-09-09T09:18:28Z</time>
      </trkpt>
      <trkpt lat="46.00468" lon="4.41502">
        <ele>762.2</ele>
        <time>2025-09-09T09:18:29Z</time>
      </trkpt>
      <trkpt lat="46.00465" lon="4.41496">
        <ele>761.8</ele>
        <time>2025-09-09T09:18:30Z</time>
      </trkpt>
      <trkpt lat="46.00464" lon="4.41486">
        <ele>761.2</ele>
        <time>2025-09-09T09:18:31Z</time>
      </trkpt>
      <trkpt lat="46.00459" lon="4.41478">
        <ele>761.2</ele>
        <time>2025-09-09T09:18:32Z</time>
      </trkpt>
      <trkpt lat="46.00457" lon="4.41467">
        <ele>760.8</ele>
        <time>2025-09-09T09:18:33Z</time>
      </trkpt>
      <trkpt lat="46.00451" lon="4.41458">
        <ele>760</ele>
        <time>2025-09-09T09:18:34Z</time>
      </trkpt>
      <trkpt lat="46.00444" lon="4.41452">
        <ele>760</ele>
        <time>2025-09-09T09:18:35Z</time>
      </trkpt>
      <trkpt lat="46.00441" lon="4.41444">
        <ele>759.6</ele>
        <time>2025-09-09T09:18:36Z</time>
      </trkpt>
      <trkpt lat="46.00436" lon="4.41435">
        <ele>759.2</ele>
        <time>2025-09-09T09:18:37Z</time>
      </trkpt>
      <trkpt lat="46.00431" lon="4.41428">
        <ele>758.8</ele>
        <time>2025-09-09T09:18:38Z</time>
      </trkpt>
      <trkpt lat="46.00426" lon="4.41422">
        <ele>758.6</ele>
        <time>2025-09-09T09:18:39Z</time>
      </trkpt>
      <trkpt lat="46.0042" lon="4.41414">
        <ele>758.4</ele>
        <time>2025-09-09T09:18:40Z</time>
      </trkpt>
      <trkpt lat="46.00414" lon="4.41409">
        <ele>758.4</ele>
        <time>2025-09-09T09:18:41Z</time>
      </trkpt>
      <trkpt lat="46.00409" lon="4.41402">
        <ele>758.4</ele>
        <time>2025-09-09T09:18:42Z</time>
      </trkpt>
      <trkpt lat="46.00404" lon="4.41397">
        <ele>758.4</ele>
        <time>2025-09-09T09:18:43Z</time>
      </trkpt>
      <trkpt lat="46.00399" lon="4.41392">
        <ele>757.8</ele>
        <time>2025-09-09T09:18:44Z</time>
      </trkpt>
      <trkpt lat="46.00388" lon="4.41392">
        <ele>757.6</ele>
        <time>2025-09-09T09:18:45Z</time>
      </trkpt>
      <trkpt lat="46.0038" lon="4.41393">
        <ele>757.6</ele>
        <time>2025-09-09T09:18:46Z</time>
      </trkpt>
      <trkpt lat="46.00373" lon="4.41391">
        <ele>757.6</ele>
        <time>2025-09-09T09:18:47Z</time>
      </trkpt>
      <trkpt lat="46.00367" lon="4.41388">
        <ele>757.4</ele>
        <time>2025-09-09T09:18:48Z</time>
      </trkpt>
      <trkpt lat="46.00361" lon="4.41389">
        <ele>757.4</ele>
        <time>2025-09-09T09:18:49Z</time>
      </trkpt>
      <trkpt lat="46.00355" lon="4.41388">
        <ele>757.6</ele>
        <time>2025-09-09T09:18:50Z</time>
      </trkpt>
      <trkpt lat="46.00345" lon="4.41394">
        <ele>757.6</ele>
        <time>2025-09-09T09:18:51Z</time>
      </trkpt>
      <trkpt lat="46.00338" lon="4.41399">
        <ele>757.4</ele>
        <time>2025-09-09T09:18:52Z</time>
      </trkpt>
      <trkpt lat="46.00332" lon="4.41402">
        <ele>757.6</ele>
        <time>2025-09-09T09:18:53Z</time>
      </trkpt>
      <trkpt lat="46.00326" lon="4.41406">
        <ele>757.6</ele>
        <time>2025-09-09T09:18:54Z</time>
      </trkpt>
      <trkpt lat="46.00319" lon="4.41408">
        <ele>757.6</ele>
        <time>2025-09-09T09:18:55Z</time>
      </trkpt>
      <trkpt lat="46.00314" lon="4.41411">
        <ele>757.4</ele>
        <time>2025-09-09T09:18:56Z</time>
      </trkpt>
      <trkpt lat="46.00308" lon="4.41411">
        <ele>757.4</ele>
        <time>2025-09-09T09:18:57Z</time>
      </trkpt>
      <trkpt lat="46.00301" lon="4.41413">
        <ele>757.4</ele>
        <time>2025-09-09T09:18:58Z</time>
      </trkpt>
      <trkpt lat="46.00295" lon="4.41416">
        <ele>757.4</ele>
        <time>2025-09-09T09:18:59Z</time>
      </trkpt>
      <trkpt lat="46.00289" lon="4.41417">
        <ele>757.4</ele>
        <time>2025-09-09T09:19:00Z</time>
      </trkpt>
      <trkpt lat="46.00289" lon="4.41417">
        <ele>757.6</ele>
        <time>2025-09-09T09:19:01Z</time>
      </trkpt>
      <trkpt lat="46.00277" lon="4.41421">
        <ele>757.2</ele>
        <time>2025-09-09T09:19:02Z</time>
      </trkpt>
      <trkpt lat="46.00269" lon="4.41422">
        <ele>757.2</ele>
        <time>2025-09-09T09:19:03Z</time>
      </trkpt>
      <trkpt lat="46.00263" lon="4.41426">
        <ele>757.2</ele>
        <time>2025-09-09T09:19:04Z</time>
      </trkpt>
      <trkpt lat="46.00255" lon="4.41429">
        <ele>757.2</ele>
        <time>2025-09-09T09:19:05Z</time>
      </trkpt>
      <trkpt lat="46.00249" lon="4.41429">
        <ele>757</ele>
        <time>2025-09-09T09:19:06Z</time>
      </trkpt>
      <trkpt lat="46.00243" lon="4.4143">
        <ele>757</ele>
        <time>2025-09-09T09:19:07Z</time>
      </trkpt>
      <trkpt lat="46.00237" lon="4.41433">
        <ele>757</ele>
        <time>2025-09-09T09:19:08Z</time>
      </trkpt>
      <trkpt lat="46.0023" lon="4.41437">
        <ele>757</ele>
        <time>2025-09-09T09:19:09Z</time>
      </trkpt>
      <trkpt lat="46.00222" lon="4.4144">
        <ele>757</ele>
        <time>2025-09-09T09:19:10Z</time>
      </trkpt>
      <trkpt lat="46.00216" lon="4.41443">
        <ele>756.6</ele>
        <time>2025-09-09T09:19:11Z</time>
      </trkpt>
      <trkpt lat="46.00209" lon="4.41446">
        <ele>756.4</ele>
        <time>2025-09-09T09:19:12Z</time>
      </trkpt>
      <trkpt lat="46.00203" lon="4.41447">
        <ele>756.4</ele>
        <time>2025-09-09T09:19:13Z</time>
      </trkpt>
      <trkpt lat="46.00196" lon="4.41449">
        <ele>756.4</ele>
        <time>2025-09-09T09:19:14Z</time>
      </trkpt>
      <trkpt lat="46.0019" lon="4.41452">
        <ele>756.4</ele>
        <time>2025-09-09T09:19:15Z</time>
      </trkpt>
      <trkpt lat="46.00185" lon="4.41453">
        <ele>756.4</ele>
        <time>2025-09-09T09:19:16Z</time>
      </trkpt>
      <trkpt lat="46.00181" lon="4.41451">
        <ele>757.2</ele>
        <time>2025-09-09T09:19:17Z</time>
      </trkpt>
      <trkpt lat="46.00177" lon="4.41448">
        <ele>757.2</ele>
        <time>2025-09-09T09:19:18Z</time>
      </trkpt>
      <trkpt lat="46.00172" lon="4.4145">
        <ele>757.2</ele>
        <time>2025-09-09T09:19:19Z</time>
      </trkpt>
      <trkpt lat="46.00167" lon="4.41453">
        <ele>757.6</ele>
        <time>2025-09-09T09:19:20Z</time>
      </trkpt>
      <trkpt lat="46.00163" lon="4.41455">
        <ele>757.6</ele>
        <time>2025-09-09T09:19:21Z</time>
      </trkpt>
      <trkpt lat="46.00158" lon="4.41456">
        <ele>757.6</ele>
        <time>2025-09-09T09:19:22Z</time>
      </trkpt>
      <trkpt lat="46.00154" lon="4.41459">
        <ele>757.6</ele>
        <time>2025-09-09T09:19:23Z</time>
      </trkpt>
      <trkpt lat="46.00152" lon="4.41459">
        <ele>757.6</ele>
        <time>2025-09-09T09:19:24Z</time>
      </trkpt>
      <trkpt lat="46.00147" lon="4.4146">
        <ele>758</ele>
        <time>2025-09-09T09:19:25Z</time>
      </trkpt>
      <trkpt lat="46.00144" lon="4.41462">
        <ele>758</ele>
        <time>2025-09-09T09:19:26Z</time>
      </trkpt>
      <trkpt lat="46.00142" lon="4.41462">
        <ele>758.2</ele>
        <time>2025-09-09T09:19:27Z</time>
      </trkpt>
      <trkpt lat="46.00139" lon="4.41464">
        <ele>758.2</ele>
        <time>2025-09-09T09:19:28Z</time>
      </trkpt>
      <trkpt lat="46.00136" lon="4.41465">
        <ele>758.6</ele>
        <time>2025-09-09T09:19:29Z</time>
      </trkpt>
      <trkpt lat="46.00133" lon="4.41468">
        <ele>758.6</ele>
        <time>2025-09-09T09:19:30Z</time>
      </trkpt>
      <trkpt lat="46.0013" lon="4.41469">
        <ele>758.8</ele>
        <time>2025-09-09T09:19:31Z</time>
      </trkpt>
      <trkpt lat="46.00127" lon="4.41472">
        <ele>758.8</ele>
        <time>2025-09-09T09:19:32Z</time>
      </trkpt>
      <trkpt lat="46.00125" lon="4.41474">
        <ele>758.8</ele>
        <time>2025-09-09T09:19:33Z</time>
      </trkpt>
      <trkpt lat="46.00123" lon="4.41475">
        <ele>759.2</ele>
        <time>2025-09-09T09:19:34Z</time>
      </trkpt>
      <trkpt lat="46.00121" lon="4.41476">
        <ele>759.6</ele>
        <time>2025-09-09T09:19:35Z</time>
      </trkpt>
      <trkpt lat="46.0012" lon="4.41476">
        <ele>759.8</ele>
        <time>2025-09-09T09:19:36Z</time>
      </trkpt>
      <trkpt lat="46.00119" lon="4.41477">
        <ele>759.8</ele>
        <time>2025-09-09T09:19:37Z</time>
      </trkpt>
      <trkpt lat="46.00117" lon="4.41478">
        <ele>760</ele>
        <time>2025-09-09T09:19:38Z</time>
      </trkpt>
      <trkpt lat="46.00116" lon="4.41479">
        <ele>760</ele>
        <time>2025-09-09T09:19:39Z</time>
      </trkpt>
      <trkpt lat="46.00114" lon="4.41481">
        <ele>760.4</ele>
        <time>2025-09-09T09:19:40Z</time>
      </trkpt>
      <trkpt lat="46.00112" lon="4.41483">
        <ele>760.4</ele>
        <time>2025-09-09T09:19:41Z</time>
      </trkpt>
      <trkpt lat="46.00111" lon="4.41484">
        <ele>760.8</ele>
        <time>2025-09-09T09:19:42Z</time>
      </trkpt>
      <trkpt lat="46.0011" lon="4.41485">
        <ele>761</ele>
        <time>2025-09-09T09:19:43Z</time>
      </trkpt>
      <trkpt lat="46.00109" lon="4.41486">
        <ele>761</ele>
        <time>2025-09-09T09:19:44Z</time>
      </trkpt>
      <trkpt lat="46.00108" lon="4.41487">
        <ele>761.2</ele>
        <time>2025-09-09T09:19:45Z</time>
      </trkpt>
      <trkpt lat="46.00107" lon="4.41489">
        <ele>761.6</ele>
        <time>2025-09-09T09:19:46Z</time>
      </trkpt>
      <trkpt lat="46.00106" lon="4.4149">
        <ele>761.6</ele>
        <time>2025-09-09T09:19:47Z</time>
      </trkpt>
      <trkpt lat="46.00105" lon="4.41492">
        <ele>762</ele>
        <time>2025-09-09T09:19:48Z</time>
      </trkpt>
      <trkpt lat="46.00104" lon="4.41493">
        <ele>762</ele>
        <time>2025-09-09T09:19:49Z</time>
      </trkpt>
      <trkpt lat="46.00103" lon="4.41495">
        <ele>762</ele>
        <time>2025-09-09T09:19:50Z</time>
      </trkpt>
      <trkpt lat="46.00102" lon="4.41496">
        <ele>762.2</ele>
        <time>2025-09-09T09:19:51Z</time>
      </trkpt>
      <trkpt lat="46.00101" lon="4.41498">
        <ele>762.4</ele>
        <time>2025-09-09T09:19:52Z</time>
      </trkpt>
      <trkpt lat="46.00101" lon="4.41499">
        <ele>762.6</ele>
        <time>2025-09-09T09:19:53Z</time>
      </trkpt>
      <trkpt lat="46.001" lon="4.415">
        <ele>762.6</ele>
        <time>2025-09-09T09:19:54Z</time>
      </trkpt>
      <trkpt lat="46.00099" lon="4.41501">
        <ele>762.6</ele>
        <time>2025-09-09T09:19:55Z</time>
      </trkpt>
      <trkpt lat="46.00098" lon="4.41502">
        <ele>763</ele>
        <time>2025-09-09T09:19:56Z</time>
      </trkpt>
      <trkpt lat="46.00096" lon="4.41503">
        <ele>763</ele>
        <time>2025-09-09T09:19:57Z</time>
      </trkpt>
      <trkpt lat="46.00095" lon="4.41503">
        <ele>763.2</ele>
        <time>2025-09-09T09:19:58Z</time>
      </trkpt>
      <trkpt lat="46.00093" lon="4.41504">
        <ele>763.2</ele>
        <time>2025-09-09T09:19:59Z</time>
      </trkpt>
      <trkpt lat="46.00092" lon="4.41506">
        <ele>763.2</ele>
        <time>2025-09-09T09:20:00Z</time>
      </trkpt>
      <trkpt lat="46.00091" lon="4.41508">
        <ele>763.6</ele>
        <time>2025-09-09T09:20:01Z</time>
      </trkpt>
      <trkpt lat="46.0009" lon="4.41509">
        <ele>763.6</ele>
        <time>2025-09-09T09:20:02Z</time>
      </trkpt>
      <trkpt lat="46.00089" lon="4.41512">
        <ele>763.8</ele>
        <time>2025-09-09T09:20:03Z</time>
      </trkpt>
      <trkpt lat="46.00088" lon="4.41514">
        <ele>763.8</ele>
        <time>2025-09-09T09:20:04Z</time>
      </trkpt>
      <trkpt lat="46.00087" lon="4.41515">
        <ele>764</ele>
        <time>2025-09-09T09:20:05Z</time>
      </trkpt>
      <trkpt lat="46.00086" lon="4.41517">
        <ele>764</ele>
        <time>2025-09-09T09:20:06Z</time>
      </trkpt>
      <trkpt lat="46.00086" lon="4.41518">
        <ele>764</ele>
        <time>2025-09-09T09:20:07Z</time>
      </trkpt>
      <trkpt lat="46.00085" lon="4.41519">
        <ele>764.2</ele>
        <time>2025-09-09T09:20:08Z</time>
      </trkpt>
      <trkpt lat="46.00084" lon="4.41521">
        <ele>764.2</ele>
        <time>2025-09-09T09:20:09Z</time>
      </trkpt>
      <trkpt lat="46.00083" lon="4.41523">
        <ele>764.4</ele>
        <time>2025-09-09T09:20:10Z</time>
      </trkpt>
      <trkpt lat="46.00082" lon="4.41524">
        <ele>764.4</ele>
        <time>2025-09-09T09:20:11Z</time>
      </trkpt>
      <trkpt lat="46.00081" lon="4.41526">
        <ele>764.4</ele>
        <time>2025-09-09T09:20:12Z</time>
      </trkpt>
      <trkpt lat="46.0008" lon="4.41527">
        <ele>764.8</ele>
        <time>2025-09-09T09:20:13Z</time>
      </trkpt>
      <trkpt lat="46.00079" lon="4.41528">
        <ele>764.8</ele>
        <time>2025-09-09T09:20:14Z</time>
      </trkpt>
      <trkpt lat="46.00078" lon="4.41528">
        <ele>765</ele>
        <time>2025-09-09T09:20:15Z</time>
      </trkpt>
      <trkpt lat="46.00077" lon="4.41529">
        <ele>765</ele>
        <time>2025-09-09T09:20:16Z</time>
      </trkpt>
      <trkpt lat="46.00076" lon="4.4153">
        <ele>765</ele>
        <time>2025-09-09T09:20:17Z</time>
      </trkpt>
      <trkpt lat="46.00074" lon="4.41531">
        <ele>765.2</ele>
        <time>2025-09-09T09:20:18Z</time>
      </trkpt>
      <trkpt lat="46.00073" lon="4.41533">
        <ele>765.2</ele>
        <time>2025-09-09T09:20:19Z</time>
      </trkpt>
      <trkpt lat="46.00071" lon="4.41534">
        <ele>765.2</ele>
        <time>2025-09-09T09:20:20Z</time>
      </trkpt>
      <trkpt lat="46.0007" lon="4.41536">
        <ele>765.6</ele>
        <time>2025-09-09T09:20:21Z</time>
      </trkpt>
      <trkpt lat="46.00066" lon="4.4154">
        <ele>765.6</ele>
        <time>2025-09-09T09:20:22Z</time>
      </trkpt>
      <trkpt lat="46.00065" lon="4.41542">
        <ele>766</ele>
        <time>2025-09-09T09:20:23Z</time>
      </trkpt>
      <trkpt lat="46.00063" lon="4.41544">
        <ele>766</ele>
        <time>2025-09-09T09:20:24Z</time>
      </trkpt>
      <trkpt lat="46.00062" lon="4.41546">
        <ele>766</ele>
        <time>2025-09-09T09:20:25Z</time>
      </trkpt>
      <trkpt lat="46.0006" lon="4.41548">
        <ele>766</ele>
        <time>2025-09-09T09:20:26Z</time>
      </trkpt>
      <trkpt lat="46.00058" lon="4.41549">
        <ele>766.6</ele>
        <time>2025-09-09T09:20:27Z</time>
      </trkpt>
      <trkpt lat="46.00057" lon="4.41551">
        <ele>766.6</ele>
        <time>2025-09-09T09:20:28Z</time>
      </trkpt>
      <trkpt lat="46.00055" lon="4.41553">
        <ele>766.6</ele>
        <time>2025-09-09T09:20:29Z</time>
      </trkpt>
      <trkpt lat="46.00054" lon="4.41555">
        <ele>766.2</ele>
        <time>2025-09-09T09:20:30Z</time>
      </trkpt>
      <trkpt lat="46.00052" lon="4.41556">
        <ele>766.2</ele>
        <time>2025-09-09T09:20:31Z</time>
      </trkpt>
      <trkpt lat="46.00051" lon="4.41558">
        <ele>766.2</ele>
        <time>2025-09-09T09:20:32Z</time>
      </trkpt>
      <trkpt lat="46.00049" lon="4.4156">
        <ele>766.4</ele>
        <time>2025-09-09T09:20:33Z</time>
      </trkpt>
      <trkpt lat="46.00047" lon="4.41562">
        <ele>766.4</ele>
        <time>2025-09-09T09:20:34Z</time>
      </trkpt>
      <trkpt lat="46.00045" lon="4.41565">
        <ele>766.4</ele>
        <time>2025-09-09T09:20:35Z</time>
      </trkpt>
      <trkpt lat="46.00043" lon="4.41568">
        <ele>766.6</ele>
        <time>2025-09-09T09:20:36Z</time>
      </trkpt>
      <trkpt lat="46.00041" lon="4.41571">
        <ele>766.6</ele>
        <time>2025-09-09T09:20:37Z</time>
      </trkpt>
      <trkpt lat="46.0004" lon="4.41573">
        <ele>766.6</ele>
        <time>2025-09-09T09:20:38Z</time>
      </trkpt>
      <trkpt lat="46.00039" lon="4.41575">
        <ele>766.6</ele>
        <time>2025-09-09T09:20:39Z</time>
      </trkpt>
      <trkpt lat="46.00038" lon="4.41579">
        <ele>766.6</ele>
        <time>2025-09-09T09:20:40Z</time>
      </trkpt>
      <trkpt lat="46.00036" lon="4.41581">
        <ele>766.6</ele>
        <time>2025-09-09T09:20:41Z</time>
      </trkpt>
      <trkpt lat="46.00035" lon="4.41584">
        <ele>767</ele>
        <time>2025-09-09T09:20:42Z</time>
      </trkpt>
      <trkpt lat="46.00033" lon="4.41586">
        <ele>767</ele>
        <time>2025-09-09T09:20:43Z</time>
      </trkpt>
      <trkpt lat="46.00032" lon="4.41588">
        <ele>767.2</ele>
        <time>2025-09-09T09:20:44Z</time>
      </trkpt>
      <trkpt lat="46.00031" lon="4.4159">
        <ele>767.4</ele>
        <time>2025-09-09T09:20:45Z</time>
      </trkpt>
      <trkpt lat="46.0003" lon="4.41592">
        <ele>767.4</ele>
        <time>2025-09-09T09:20:46Z</time>
      </trkpt>
      <trkpt lat="46.00028" lon="4.41595">
        <ele>767.8</ele>
        <time>2025-09-09T09:20:47Z</time>
      </trkpt>
      <trkpt lat="46.00027" lon="4.41599">
        <ele>767.8</ele>
        <time>2025-09-09T09:20:48Z</time>
      </trkpt>
      <trkpt lat="46.00025" lon="4.41602">
        <ele>767.8</ele>
        <time>2025-09-09T09:20:49Z</time>
      </trkpt>
      <trkpt lat="46.00023" lon="4.41605">
        <ele>768</ele>
        <time>2025-09-09T09:20:50Z</time>
      </trkpt>
      <trkpt lat="46.00021" lon="4.41607">
        <ele>768</ele>
        <time>2025-09-09T09:20:51Z</time>
      </trkpt>
      <trkpt lat="46.0002" lon="4.4161">
        <ele>768</ele>
        <time>2025-09-09T09:20:52Z</time>
      </trkpt>
      <trkpt lat="46.00019" lon="4.41614">
        <ele>768</ele>
        <time>2025-09-09T09:20:53Z</time>
      </trkpt>
      <trkpt lat="46.00018" lon="4.41619">
        <ele>768</ele>
        <time>2025-09-09T09:20:54Z</time>
      </trkpt>
      <trkpt lat="46.00017" lon="4.41621">
        <ele>768</ele>
        <time>2025-09-09T09:20:55Z</time>
      </trkpt>
      <trkpt lat="46.00017" lon="4.41623">
        <ele>768.2</ele>
        <time>2025-09-09T09:20:56Z</time>
      </trkpt>
      <trkpt lat="46.00016" lon="4.41625">
        <ele>768.2</ele>
        <time>2025-09-09T09:20:57Z</time>
      </trkpt>
      <trkpt lat="46.00015" lon="4.41629">
        <ele>768.2</ele>
        <time>2025-09-09T09:20:58Z</time>
      </trkpt>
      <trkpt lat="46.00014" lon="4.41632">
        <ele>768.4</ele>
        <time>2025-09-09T09:20:59Z</time>
      </trkpt>
      <trkpt lat="46.00013" lon="4.41636">
        <ele>768.4</ele>
        <time>2025-09-09T09:21:00Z</time>
      </trkpt>
      <trkpt lat="46.00012" lon="4.41638">
        <ele>768.4</ele>
        <time>2025-09-09T09:21:01Z</time>
      </trkpt>
      <trkpt lat="46.00011" lon="4.4164">
        <ele>768.8</ele>
        <time>2025-09-09T09:21:02Z</time>
      </trkpt>
      <trkpt lat="46.0001" lon="4.41643">
        <ele>768.8</ele>
        <time>2025-09-09T09:21:03Z</time>
      </trkpt>
      <trkpt lat="46.0001" lon="4.41646">
        <ele>769</ele>
        <time>2025-09-09T09:21:04Z</time>
      </trkpt>
      <trkpt lat="46.0001" lon="4.41648">
        <ele>769</ele>
        <time>2025-09-09T09:21:05Z</time>
      </trkpt>
      <trkpt lat="46.00009" lon="4.4165">
        <ele>769</ele>
        <time>2025-09-09T09:21:06Z</time>
      </trkpt>
      <trkpt lat="46.00008" lon="4.41652">
        <ele>769</ele>
        <time>2025-09-09T09:21:07Z</time>
      </trkpt>
      <trkpt lat="46.00008" lon="4.41652">
        <ele>769</ele>
        <time>2025-09-09T09:21:08Z</time>
      </trkpt>
      <trkpt lat="46.00007" lon="4.41654">
        <ele>769.2</ele>
        <time>2025-09-09T09:21:09Z</time>
      </trkpt>
      <trkpt lat="46.00007" lon="4.41657">
        <ele>769.2</ele>
        <time>2025-09-09T09:21:10Z</time>
      </trkpt>
      <trkpt lat="46.00006" lon="4.41661">
        <ele>769.4</ele>
        <time>2025-09-09T09:21:11Z</time>
      </trkpt>
      <trkpt lat="46.00004" lon="4.41665">
        <ele>769.4</ele>
        <time>2025-09-09T09:21:12Z</time>
      </trkpt>
      <trkpt lat="46.00003" lon="4.41668">
        <ele>769.4</ele>
        <time>2025-09-09T09:21:13Z</time>
      </trkpt>
      <trkpt lat="46.00002" lon="4.41671">
        <ele>769.4</ele>
        <time>2025-09-09T09:21:14Z</time>
      </trkpt>
      <trkpt lat="46.00002" lon="4.41674">
        <ele>769.4</ele>
        <time>2025-09-09T09:21:15Z</time>
      </trkpt>
      <trkpt lat="46.00001" lon="4.41677">
        <ele>769.8</ele>
        <time>2025-09-09T09:21:16Z</time>
      </trkpt>
      <trkpt lat="46.00001" lon="4.41679">
        <ele>769.8</ele>
        <time>2025-09-09T09:21:17Z</time>
      </trkpt>
      <trkpt lat="46" lon="4.41682">
        <ele>769.8</ele>
        <time>2025-09-09T09:21:18Z</time>
      </trkpt>
      <trkpt lat="45.99999" lon="4.41686">
        <ele>770</ele>
        <time>2025-09-09T09:21:19Z</time>
      </trkpt>
      <trkpt lat="45.99999" lon="4.41689">
        <ele>770</ele>
        <time>2025-09-09T09:21:20Z</time>
      </trkpt>
      <trkpt lat="45.99998" lon="4.41692">
        <ele>770.2</ele>
        <time>2025-09-09T09:21:21Z</time>
      </trkpt>
      <trkpt lat="45.99997" lon="4.41694">
        <ele>770.2</ele>
        <time>2025-09-09T09:21:22Z</time>
      </trkpt>
      <trkpt lat="45.99996" lon="4.41697">
        <ele>770.2</ele>
        <time>2025-09-09T09:21:23Z</time>
      </trkpt>
      <trkpt lat="45.99995" lon="4.417">
        <ele>770.2</ele>
        <time>2025-09-09T09:21:24Z</time>
      </trkpt>
      <trkpt lat="45.99994" lon="4.41703">
        <ele>770.6</ele>
        <time>2025-09-09T09:21:25Z</time>
      </trkpt>
      <trkpt lat="45.99991" lon="4.41707">
        <ele>770.6</ele>
        <time>2025-09-09T09:21:26Z</time>
      </trkpt>
      <trkpt lat="45.9999" lon="4.41712">
        <ele>770.8</ele>
        <time>2025-09-09T09:21:27Z</time>
      </trkpt>
      <trkpt lat="45.99989" lon="4.41717">
        <ele>770.8</ele>
        <time>2025-09-09T09:21:28Z</time>
      </trkpt>
      <trkpt lat="45.99988" lon="4.4172">
        <ele>770.8</ele>
        <time>2025-09-09T09:21:29Z</time>
      </trkpt>
      <trkpt lat="45.99987" lon="4.41723">
        <ele>770.8</ele>
        <time>2025-09-09T09:21:30Z</time>
      </trkpt>
      <trkpt lat="45.99986" lon="4.41726">
        <ele>771</ele>
        <time>2025-09-09T09:21:31Z</time>
      </trkpt>
      <trkpt lat="45.99985" lon="4.41729">
        <ele>771</ele>
        <time>2025-09-09T09:21:32Z</time>
      </trkpt>
      <trkpt lat="45.99983" lon="4.41733">
        <ele>771</ele>
        <time>2025-09-09T09:21:33Z</time>
      </trkpt>
      <trkpt lat="45.99982" lon="4.41737">
        <ele>771</ele>
        <time>2025-09-09T09:21:34Z</time>
      </trkpt>
      <trkpt lat="45.99981" lon="4.41741">
        <ele>771</ele>
        <time>2025-09-09T09:21:35Z</time>
      </trkpt>
      <trkpt lat="45.99981" lon="4.41745">
        <ele>771</ele>
        <time>2025-09-09T09:21:36Z</time>
      </trkpt>
      <trkpt lat="45.99979" lon="4.41749">
        <ele>771.2</ele>
        <time>2025-09-09T09:21:37Z</time>
      </trkpt>
      <trkpt lat="45.99977" lon="4.41754">
        <ele>771.2</ele>
        <time>2025-09-09T09:21:38Z</time>
      </trkpt>
      <trkpt lat="45.99976" lon="4.41757">
        <ele>771.2</ele>
        <time>2025-09-09T09:21:39Z</time>
      </trkpt>
      <trkpt lat="45.99975" lon="4.41759">
        <ele>771.2</ele>
        <time>2025-09-09T09:21:40Z</time>
      </trkpt>
      <trkpt lat="45.99973" lon="4.41762">
        <ele>771.2</ele>
        <time>2025-09-09T09:21:41Z</time>
      </trkpt>
      <trkpt lat="45.99971" lon="4.41765">
        <ele>771.4</ele>
        <time>2025-09-09T09:21:42Z</time>
      </trkpt>
      <trkpt lat="45.99969" lon="4.41768">
        <ele>771.4</ele>
        <time>2025-09-09T09:21:43Z</time>
      </trkpt>
      <trkpt lat="45.99967" lon="4.41771">
        <ele>771.4</ele>
        <time>2025-09-09T09:21:44Z</time>
      </trkpt>
      <trkpt lat="45.99966" lon="4.41774">
        <ele>771.4</ele>
        <time>2025-09-09T09:21:45Z</time>
      </trkpt>
      <trkpt lat="45.99963" lon="4.41778">
        <ele>771.4</ele>
        <time>2025-09-09T09:21:46Z</time>
      </trkpt>
      <trkpt lat="45.99962" lon="4.4178">
        <ele>771.4</ele>
        <time>2025-09-09T09:21:47Z</time>
      </trkpt>
      <trkpt lat="45.99962" lon="4.41781">
        <ele>771.4</ele>
        <time>2025-09-09T09:21:48Z</time>
      </trkpt>
      <trkpt lat="45.99963" lon="4.41785">
        <ele>771.4</ele>
        <time>2025-09-09T09:22:14Z</time>
      </trkpt>
      <trkpt lat="45.99961" lon="4.41787">
        <ele>771.4</ele>
        <time>2025-09-09T09:22:15Z</time>
      </trkpt>
      <trkpt lat="45.99959" lon="4.41789">
        <ele>771.4</ele>
        <time>2025-09-09T09:22:16Z</time>
      </trkpt>
      <trkpt lat="45.99957" lon="4.41791">
        <ele>771.4</ele>
        <time>2025-09-09T09:22:17Z</time>
      </trkpt>
      <trkpt lat="45.99955" lon="4.41792">
        <ele>771.6</ele>
        <time>2025-09-09T09:22:18Z</time>
      </trkpt>
      <trkpt lat="45.99953" lon="4.41793">
        <ele>771.6</ele>
        <time>2025-09-09T09:22:19Z</time>
      </trkpt>
      <trkpt lat="45.9995" lon="4.41794">
        <ele>771.6</ele>
        <time>2025-09-09T09:22:20Z</time>
      </trkpt>
      <trkpt lat="45.99947" lon="4.41796">
        <ele>771.6</ele>
        <time>2025-09-09T09:22:21Z</time>
      </trkpt>
      <trkpt lat="45.99945" lon="4.41798">
        <ele>771.6</ele>
        <time>2025-09-09T09:22:22Z</time>
      </trkpt>
      <trkpt lat="45.99942" lon="4.41802">
        <ele>771.6</ele>
        <time>2025-09-09T09:22:23Z</time>
      </trkpt>
      <trkpt lat="45.99939" lon="4.41806">
        <ele>771.2</ele>
        <time>2025-09-09T09:22:24Z</time>
      </trkpt>
      <trkpt lat="45.99933" lon="4.41812">
        <ele>771.2</ele>
        <time>2025-09-09T09:22:25Z</time>
      </trkpt>
      <trkpt lat="45.99928" lon="4.41816">
        <ele>770.8</ele>
        <time>2025-09-09T09:22:26Z</time>
      </trkpt>
      <trkpt lat="45.99925" lon="4.4182">
        <ele>770.8</ele>
        <time>2025-09-09T09:22:27Z</time>
      </trkpt>
      <trkpt lat="45.9992" lon="4.41826">
        <ele>770.4</ele>
        <time>2025-09-09T09:22:28Z</time>
      </trkpt>
      <trkpt lat="45.99915" lon="4.41831">
        <ele>770.4</ele>
        <time>2025-09-09T09:22:29Z</time>
      </trkpt>
      <trkpt lat="45.9991" lon="4.41838">
        <ele>770</ele>
        <time>2025-09-09T09:22:30Z</time>
      </trkpt>
      <trkpt lat="45.99905" lon="4.41845">
        <ele>769.8</ele>
        <time>2025-09-09T09:22:31Z</time>
      </trkpt>
      <trkpt lat="45.99901" lon="4.4185">
        <ele>769</ele>
        <time>2025-09-09T09:22:32Z</time>
      </trkpt>
      <trkpt lat="45.99896" lon="4.41857">
        <ele>769</ele>
        <time>2025-09-09T09:22:33Z</time>
      </trkpt>
      <trkpt lat="45.99893" lon="4.41862">
        <ele>769</ele>
        <time>2025-09-09T09:22:34Z</time>
      </trkpt>
      <trkpt lat="45.99889" lon="4.41867">
        <ele>769</ele>
        <time>2025-09-09T09:22:35Z</time>
      </trkpt>
      <trkpt lat="45.99885" lon="4.41873">
        <ele>769</ele>
        <time>2025-09-09T09:22:36Z</time>
      </trkpt>
      <trkpt lat="45.9988" lon="4.41879">
        <ele>769</ele>
        <time>2025-09-09T09:22:37Z</time>
      </trkpt>
      <trkpt lat="45.99875" lon="4.41884">
        <ele>769</ele>
        <time>2025-09-09T09:22:38Z</time>
      </trkpt>
      <trkpt lat="45.9987" lon="4.41888">
        <ele>769</ele>
        <time>2025-09-09T09:22:39Z</time>
      </trkpt>
      <trkpt lat="45.99866" lon="4.41891">
        <ele>769.2</ele>
        <time>2025-09-09T09:22:40Z</time>
      </trkpt>
      <trkpt lat="45.99862" lon="4.41893">
        <ele>769.2</ele>
        <time>2025-09-09T09:22:41Z</time>
      </trkpt>
      <trkpt lat="45.9986" lon="4.41896">
        <ele>769.2</ele>
        <time>2025-09-09T09:22:42Z</time>
      </trkpt>
      <trkpt lat="45.99857" lon="4.41899">
        <ele>769.2</ele>
        <time>2025-09-09T09:22:43Z</time>
      </trkpt>
      <trkpt lat="45.99854" lon="4.41902">
        <ele>769.4</ele>
        <time>2025-09-09T09:22:44Z</time>
      </trkpt>
      <trkpt lat="45.99853" lon="4.41905">
        <ele>769.4</ele>
        <time>2025-09-09T09:22:45Z</time>
      </trkpt>
      <trkpt lat="45.99851" lon="4.41907">
        <ele>769.4</ele>
        <time>2025-09-09T09:22:46Z</time>
      </trkpt>
      <trkpt lat="45.9985" lon="4.41909">
        <ele>769.4</ele>
        <time>2025-09-09T09:22:47Z</time>
      </trkpt>
      <trkpt lat="45.99849" lon="4.4191">
        <ele>769.4</ele>
        <time>2025-09-09T09:22:48Z</time>
      </trkpt>
      <trkpt lat="45.99847" lon="4.4191">
        <ele>769.4</ele>
        <time>2025-09-09T09:22:49Z</time>
      </trkpt>
      <trkpt lat="45.99848" lon="4.41909">
        <ele>769.4</ele>
        <time>2025-09-09T09:22:50Z</time>
      </trkpt>
      <trkpt lat="45.99846" lon="4.41909">
        <ele>769.4</ele>
        <time>2025-09-09T09:22:51Z</time>
      </trkpt>
      <trkpt lat="45.99844" lon="4.41909">
        <ele>769.4</ele>
        <time>2025-09-09T09:22:52Z</time>
      </trkpt>
      <trkpt lat="45.99842" lon="4.4191">
        <ele>768.2</ele>
        <time>2025-09-09T09:22:53Z</time>
      </trkpt>
      <trkpt lat="45.99839" lon="4.4191">
        <ele>768.8</ele>
        <time>2025-09-09T09:22:54Z</time>
      </trkpt>
      <trkpt lat="45.99837" lon="4.41911">
        <ele>769.2</ele>
        <time>2025-09-09T09:22:55Z</time>
      </trkpt>
      <trkpt lat="45.99834" lon="4.41911">
        <ele>769.2</ele>
        <time>2025-09-09T09:22:56Z</time>
      </trkpt>
      <trkpt lat="45.99832" lon="4.41912">
        <ele>769.2</ele>
        <time>2025-09-09T09:22:57Z</time>
      </trkpt>
      <trkpt lat="45.9983" lon="4.41913">
        <ele>769.2</ele>
        <time>2025-09-09T09:22:58Z</time>
      </trkpt>
      <trkpt lat="45.99827" lon="4.41914">
        <ele>769.2</ele>
        <time>2025-09-09T09:22:59Z</time>
      </trkpt>
      <trkpt lat="45.99825" lon="4.41915">
        <ele>769.4</ele>
        <time>2025-09-09T09:23:00Z</time>
      </trkpt>
      <trkpt lat="45.99823" lon="4.41916">
        <ele>769.2</ele>
        <time>2025-09-09T09:23:01Z</time>
      </trkpt>
      <trkpt lat="45.99821" lon="4.41916">
        <ele>769.4</ele>
        <time>2025-09-09T09:23:02Z</time>
      </trkpt>
      <trkpt lat="45.99818" lon="4.41916">
        <ele>769.4</ele>
        <time>2025-09-09T09:23:03Z</time>
      </trkpt>
      <trkpt lat="45.99816" lon="4.41916">
        <ele>769.6</ele>
        <time>2025-09-09T09:23:04Z</time>
      </trkpt>
      <trkpt lat="45.99814" lon="4.41915">
        <ele>769.6</ele>
        <time>2025-09-09T09:23:05Z</time>
      </trkpt>
      <trkpt lat="45.99811" lon="4.41915">
        <ele>769.6</ele>
        <time>2025-09-09T09:23:06Z</time>
      </trkpt>
      <trkpt lat="45.9981" lon="4.41914">
        <ele>770</ele>
        <time>2025-09-09T09:23:07Z</time>
      </trkpt>
      <trkpt lat="45.99809" lon="4.41913">
        <ele>770</ele>
        <time>2025-09-09T09:23:08Z</time>
      </trkpt>
      <trkpt lat="45.99807" lon="4.41912">
        <ele>770</ele>
        <time>2025-09-09T09:23:09Z</time>
      </trkpt>
      <trkpt lat="45.99806" lon="4.41911">
        <ele>770.2</ele>
        <time>2025-09-09T09:23:10Z</time>
      </trkpt>
      <trkpt lat="45.99805" lon="4.4191">
        <ele>770.2</ele>
        <time>2025-09-09T09:23:11Z</time>
      </trkpt>
      <trkpt lat="45.99803" lon="4.4191">
        <ele>770.2</ele>
        <time>2025-09-09T09:23:12Z</time>
      </trkpt>
      <trkpt lat="45.99802" lon="4.4191">
        <ele>770.6</ele>
        <time>2025-09-09T09:23:13Z</time>
      </trkpt>
      <trkpt lat="45.998" lon="4.4191">
        <ele>770.6</ele>
        <time>2025-09-09T09:23:14Z</time>
      </trkpt>
      <trkpt lat="45.99798" lon="4.41909">
        <ele>770.6</ele>
        <time>2025-09-09T09:23:15Z</time>
      </trkpt>
      <trkpt lat="45.99797" lon="4.41908">
        <ele>771</ele>
        <time>2025-09-09T09:23:16Z</time>
      </trkpt>
      <trkpt lat="45.99794" lon="4.41909">
        <ele>771</ele>
        <time>2025-09-09T09:23:17Z</time>
      </trkpt>
      <trkpt lat="45.99792" lon="4.41909">
        <ele>771.4</ele>
        <time>2025-09-09T09:23:18Z</time>
      </trkpt>
      <trkpt lat="45.9979" lon="4.41909">
        <ele>771.6</ele>
        <time>2025-09-09T09:23:19Z</time>
      </trkpt>
      <trkpt lat="45.99788" lon="4.41908">
        <ele>771.6</ele>
        <time>2025-09-09T09:23:20Z</time>
      </trkpt>
      <trkpt lat="45.99787" lon="4.41907">
        <ele>772</ele>
        <time>2025-09-09T09:23:21Z</time>
      </trkpt>
      <trkpt lat="45.99785" lon="4.41906">
        <ele>772</ele>
        <time>2025-09-09T09:23:22Z</time>
      </trkpt>
      <trkpt lat="45.99783" lon="4.41905">
        <ele>772.2</ele>
        <time>2025-09-09T09:23:23Z</time>
      </trkpt>
      <trkpt lat="45.99781" lon="4.41903">
        <ele>772.2</ele>
        <time>2025-09-09T09:23:24Z</time>
      </trkpt>
      <trkpt lat="45.9978" lon="4.41902">
        <ele>772.6</ele>
        <time>2025-09-09T09:23:25Z</time>
      </trkpt>
      <trkpt lat="45.99779" lon="4.41902">
        <ele>772.6</ele>
        <time>2025-09-09T09:23:26Z</time>
      </trkpt>
      <trkpt lat="45.99777" lon="4.41901">
        <ele>773</ele>
        <time>2025-09-09T09:23:27Z</time>
      </trkpt>
      <trkpt lat="45.99776" lon="4.41901">
        <ele>773</ele>
        <time>2025-09-09T09:23:28Z</time>
      </trkpt>
      <trkpt lat="45.99775" lon="4.419">
        <ele>773.4</ele>
        <time>2025-09-09T09:23:29Z</time>
      </trkpt>
      <trkpt lat="45.99773" lon="4.419">
        <ele>773.6</ele>
        <time>2025-09-09T09:23:30Z</time>
      </trkpt>
      <trkpt lat="45.99771" lon="4.41899">
        <ele>773.8</ele>
        <time>2025-09-09T09:23:31Z</time>
      </trkpt>
      <trkpt lat="45.99769" lon="4.41899">
        <ele>774</ele>
        <time>2025-09-09T09:23:32Z</time>
      </trkpt>
      <trkpt lat="45.99767" lon="4.41898">
        <ele>774</ele>
        <time>2025-09-09T09:23:33Z</time>
      </trkpt>
      <trkpt lat="45.99765" lon="4.41897">
        <ele>774.4</ele>
        <time>2025-09-09T09:23:34Z</time>
      </trkpt>
      <trkpt lat="45.99764" lon="4.41897">
        <ele>774.4</ele>
        <time>2025-09-09T09:23:35Z</time>
      </trkpt>
      <trkpt lat="45.99763" lon="4.41896">
        <ele>774.6</ele>
        <time>2025-09-09T09:23:36Z</time>
      </trkpt>
      <trkpt lat="45.99762" lon="4.41896">
        <ele>775</ele>
        <time>2025-09-09T09:23:37Z</time>
      </trkpt>
      <trkpt lat="45.99761" lon="4.41895">
        <ele>775</ele>
        <time>2025-09-09T09:23:38Z</time>
      </trkpt>
      <trkpt lat="45.99759" lon="4.41895">
        <ele>775</ele>
        <time>2025-09-09T09:23:39Z</time>
      </trkpt>
      <trkpt lat="45.99758" lon="4.41895">
        <ele>775.2</ele>
        <time>2025-09-09T09:23:40Z</time>
      </trkpt>
      <trkpt lat="45.99756" lon="4.41895">
        <ele>775.2</ele>
        <time>2025-09-09T09:23:41Z</time>
      </trkpt>
      <trkpt lat="45.99756" lon="4.41895">
        <ele>775.4</ele>
        <time>2025-09-09T09:23:42Z</time>
      </trkpt>
      <trkpt lat="45.99754" lon="4.41894">
        <ele>775.8</ele>
        <time>2025-09-09T09:23:43Z</time>
      </trkpt>
      <trkpt lat="45.99753" lon="4.41893">
        <ele>776</ele>
        <time>2025-09-09T09:23:44Z</time>
      </trkpt>
      <trkpt lat="45.99753" lon="4.41893">
        <ele>776.2</ele>
        <time>2025-09-09T09:23:45Z</time>
      </trkpt>
      <trkpt lat="45.99753" lon="4.41892">
        <ele>776.2</ele>
        <time>2025-09-09T09:23:46Z</time>
      </trkpt>
      <trkpt lat="45.99753" lon="4.4189">
        <ele>776.2</ele>
        <time>2025-09-09T09:23:47Z</time>
      </trkpt>
      <trkpt lat="45.99753" lon="4.41888">
        <ele>776.6</ele>
        <time>2025-09-09T09:23:48Z</time>
      </trkpt>
      <trkpt lat="45.99753" lon="4.41886">
        <ele>776.6</ele>
        <time>2025-09-09T09:23:49Z</time>
      </trkpt>
      <trkpt lat="45.99752" lon="4.41885">
        <ele>776.6</ele>
        <time>2025-09-09T09:23:50Z</time>
      </trkpt>
      <trkpt lat="45.9975" lon="4.41885">
        <ele>776.8</ele>
        <time>2025-09-09T09:23:51Z</time>
      </trkpt>
      <trkpt lat="45.99748" lon="4.41885">
        <ele>776.8</ele>
        <time>2025-09-09T09:23:52Z</time>
      </trkpt>
      <trkpt lat="45.99746" lon="4.41886">
        <ele>777</ele>
        <time>2025-09-09T09:23:53Z</time>
      </trkpt>
      <trkpt lat="45.99745" lon="4.41886">
        <ele>777.2</ele>
        <time>2025-09-09T09:23:54Z</time>
      </trkpt>
      <trkpt lat="45.99743" lon="4.41886">
        <ele>777.2</ele>
        <time>2025-09-09T09:23:55Z</time>
      </trkpt>
      <trkpt lat="45.99743" lon="4.41886">
        <ele>777.6</ele>
        <time>2025-09-09T09:23:56Z</time>
      </trkpt>
      <trkpt lat="45.99741" lon="4.41887">
        <ele>777.6</ele>
        <time>2025-09-09T09:23:57Z</time>
      </trkpt>
      <trkpt lat="45.9974" lon="4.41887">
        <ele>777.8</ele>
        <time>2025-09-09T09:23:58Z</time>
      </trkpt>
      <trkpt lat="45.99739" lon="4.41888">
        <ele>777.8</ele>
        <time>2025-09-09T09:23:59Z</time>
      </trkpt>
      <trkpt lat="45.99737" lon="4.41889">
        <ele>778</ele>
        <time>2025-09-09T09:24:00Z</time>
      </trkpt>
      <trkpt lat="45.99735" lon="4.4189">
        <ele>778</ele>
        <time>2025-09-09T09:24:01Z</time>
      </trkpt>
      <trkpt lat="45.99735" lon="4.41889">
        <ele>778.4</ele>
        <time>2025-09-09T09:24:02Z</time>
      </trkpt>
      <trkpt lat="45.99735" lon="4.41888">
        <ele>778.4</ele>
        <time>2025-09-09T09:24:03Z</time>
      </trkpt>
      <trkpt lat="45.99734" lon="4.41888">
        <ele>778.6</ele>
        <time>2025-09-09T09:24:04Z</time>
      </trkpt>
      <trkpt lat="45.99734" lon="4.41886">
        <ele>778.6</ele>
        <time>2025-09-09T09:24:05Z</time>
      </trkpt>
      <trkpt lat="45.99733" lon="4.41885">
        <ele>779</ele>
        <time>2025-09-09T09:24:06Z</time>
      </trkpt>
      <trkpt lat="45.99732" lon="4.41884">
        <ele>779</ele>
        <time>2025-09-09T09:24:07Z</time>
      </trkpt>
      <trkpt lat="45.9973" lon="4.41883">
        <ele>779.2</ele>
        <time>2025-09-09T09:24:08Z</time>
      </trkpt>
      <trkpt lat="45.99728" lon="4.41883">
        <ele>779.4</ele>
        <time>2025-09-09T09:24:09Z</time>
      </trkpt>
      <trkpt lat="45.99727" lon="4.41882">
        <ele>779.8</ele>
        <time>2025-09-09T09:24:10Z</time>
      </trkpt>
      <trkpt lat="45.99726" lon="4.41882">
        <ele>779.8</ele>
        <time>2025-09-09T09:24:11Z</time>
      </trkpt>
      <trkpt lat="45.99724" lon="4.41882">
        <ele>779.8</ele>
        <time>2025-09-09T09:24:12Z</time>
      </trkpt>
      <trkpt lat="45.99722" lon="4.41883">
        <ele>780</ele>
        <time>2025-09-09T09:24:13Z</time>
      </trkpt>
      <trkpt lat="45.99721" lon="4.41884">
        <ele>780</ele>
        <time>2025-09-09T09:24:14Z</time>
      </trkpt>
      <trkpt lat="45.9972" lon="4.41885">
        <ele>780.4</ele>
        <time>2025-09-09T09:24:15Z</time>
      </trkpt>
      <trkpt lat="45.99718" lon="4.41885">
        <ele>780.4</ele>
        <time>2025-09-09T09:24:16Z</time>
      </trkpt>
      <trkpt lat="45.99716" lon="4.41885">
        <ele>780.6</ele>
        <time>2025-09-09T09:24:17Z</time>
      </trkpt>
      <trkpt lat="45.99715" lon="4.41885">
        <ele>780.6</ele>
        <time>2025-09-09T09:24:18Z</time>
      </trkpt>
      <trkpt lat="45.99715" lon="4.41884">
        <ele>781</ele>
        <time>2025-09-09T09:24:19Z</time>
      </trkpt>
      <trkpt lat="45.99714" lon="4.41883">
        <ele>781</ele>
        <time>2025-09-09T09:24:20Z</time>
      </trkpt>
      <trkpt lat="45.99713" lon="4.41881">
        <ele>781.2</ele>
        <time>2025-09-09T09:24:21Z</time>
      </trkpt>
      <trkpt lat="45.99711" lon="4.4188">
        <ele>781.2</ele>
        <time>2025-09-09T09:24:22Z</time>
      </trkpt>
      <trkpt lat="45.99711" lon="4.4188">
        <ele>781.2</ele>
        <time>2025-09-09T09:24:23Z</time>
      </trkpt>
      <trkpt lat="45.9971" lon="4.41879">
        <ele>781.6</ele>
        <time>2025-09-09T09:24:24Z</time>
      </trkpt>
      <trkpt lat="45.99709" lon="4.41878">
        <ele>781.6</ele>
        <time>2025-09-09T09:24:25Z</time>
      </trkpt>
      <trkpt lat="45.99709" lon="4.41877">
        <ele>781.8</ele>
        <time>2025-09-09T09:24:26Z</time>
      </trkpt>
      <trkpt lat="45.99708" lon="4.41877">
        <ele>782</ele>
        <time>2025-09-09T09:24:27Z</time>
      </trkpt>
      <trkpt lat="45.99707" lon="4.41876">
        <ele>782</ele>
        <time>2025-09-09T09:24:28Z</time>
      </trkpt>
      <trkpt lat="45.99705" lon="4.41876">
        <ele>782.4</ele>
        <time>2025-09-09T09:24:29Z</time>
      </trkpt>
      <trkpt lat="45.99704" lon="4.41877">
        <ele>782.4</ele>
        <time>2025-09-09T09:24:30Z</time>
      </trkpt>
      <trkpt lat="45.99703" lon="4.41878">
        <ele>782.6</ele>
        <time>2025-09-09T09:24:31Z</time>
      </trkpt>
      <trkpt lat="45.99702" lon="4.41879">
        <ele>782.6</ele>
        <time>2025-09-09T09:24:32Z</time>
      </trkpt>
      <trkpt lat="45.99701" lon="4.41881">
        <ele>782.6</ele>
        <time>2025-09-09T09:24:33Z</time>
      </trkpt>
      <trkpt lat="45.997" lon="4.41882">
        <ele>782.6</ele>
        <time>2025-09-09T09:24:34Z</time>
      </trkpt>
      <trkpt lat="45.99698" lon="4.41882">
        <ele>783</ele>
        <time>2025-09-09T09:24:35Z</time>
      </trkpt>
      <trkpt lat="45.99697" lon="4.41882">
        <ele>783</ele>
        <time>2025-09-09T09:24:36Z</time>
      </trkpt>
      <trkpt lat="45.99695" lon="4.41883">
        <ele>783.2</ele>
        <time>2025-09-09T09:24:37Z</time>
      </trkpt>
      <trkpt lat="45.99694" lon="4.41883">
        <ele>783.2</ele>
        <time>2025-09-09T09:24:38Z</time>
      </trkpt>
      <trkpt lat="45.99693" lon="4.41884">
        <ele>783.6</ele>
        <time>2025-09-09T09:24:39Z</time>
      </trkpt>
      <trkpt lat="45.99692" lon="4.41883">
        <ele>783.8</ele>
        <time>2025-09-09T09:24:40Z</time>
      </trkpt>
      <trkpt lat="45.99691" lon="4.41883">
        <ele>783.8</ele>
        <time>2025-09-09T09:24:41Z</time>
      </trkpt>
      <trkpt lat="45.9969" lon="4.41882">
        <ele>784.2</ele>
        <time>2025-09-09T09:24:42Z</time>
      </trkpt>
      <trkpt lat="45.99689" lon="4.41882">
        <ele>784.6</ele>
        <time>2025-09-09T09:24:43Z</time>
      </trkpt>
      <trkpt lat="45.99688" lon="4.41882">
        <ele>784.6</ele>
        <time>2025-09-09T09:24:44Z</time>
      </trkpt>
      <trkpt lat="45.99688" lon="4.41882">
        <ele>784.8</ele>
        <time>2025-09-09T09:24:45Z</time>
      </trkpt>
      <trkpt lat="45.99687" lon="4.41882">
        <ele>784.8</ele>
        <time>2025-09-09T09:24:46Z</time>
      </trkpt>
      <trkpt lat="45.99686" lon="4.41882">
        <ele>785.2</ele>
        <time>2025-09-09T09:24:47Z</time>
      </trkpt>
      <trkpt lat="45.99685" lon="4.41882">
        <ele>785.2</ele>
        <time>2025-09-09T09:24:48Z</time>
      </trkpt>
      <trkpt lat="45.99684" lon="4.41883">
        <ele>785.2</ele>
        <time>2025-09-09T09:24:49Z</time>
      </trkpt>
      <trkpt lat="45.99683" lon="4.41883">
        <ele>785.4</ele>
        <time>2025-09-09T09:24:50Z</time>
      </trkpt>
      <trkpt lat="45.99682" lon="4.41883">
        <ele>785.4</ele>
        <time>2025-09-09T09:24:51Z</time>
      </trkpt>
      <trkpt lat="45.99681" lon="4.41883">
        <ele>785.6</ele>
        <time>2025-09-09T09:24:52Z</time>
      </trkpt>
      <trkpt lat="45.9968" lon="4.41883">
        <ele>785.6</ele>
        <time>2025-09-09T09:24:53Z</time>
      </trkpt>
      <trkpt lat="45.99678" lon="4.41884">
        <ele>785.6</ele>
        <time>2025-09-09T09:24:54Z</time>
      </trkpt>
      <trkpt lat="45.99676" lon="4.41884">
        <ele>785.6</ele>
        <time>2025-09-09T09:24:55Z</time>
      </trkpt>
      <trkpt lat="45.99675" lon="4.41885">
        <ele>785.6</ele>
        <time>2025-09-09T09:24:56Z</time>
      </trkpt>
      <trkpt lat="45.99674" lon="4.41885">
        <ele>785.6</ele>
        <time>2025-09-09T09:24:57Z</time>
      </trkpt>
      <trkpt lat="45.99672" lon="4.41886">
        <ele>785.8</ele>
        <time>2025-09-09T09:24:58Z</time>
      </trkpt>
      <trkpt lat="45.99671" lon="4.41886">
        <ele>785.8</ele>
        <time>2025-09-09T09:24:59Z</time>
      </trkpt>
      <trkpt lat="45.9967" lon="4.41887">
        <ele>785.8</ele>
        <time>2025-09-09T09:25:00Z</time>
      </trkpt>
      <trkpt lat="45.99668" lon="4.41888">
        <ele>786</ele>
        <time>2025-09-09T09:25:01Z</time>
      </trkpt>
      <trkpt lat="45.99667" lon="4.41889">
        <ele>786</ele>
        <time>2025-09-09T09:25:02Z</time>
      </trkpt>
      <trkpt lat="45.99666" lon="4.4189">
        <ele>786</ele>
        <time>2025-09-09T09:25:03Z</time>
      </trkpt>
      <trkpt lat="45.99665" lon="4.4189">
        <ele>786.4</ele>
        <time>2025-09-09T09:25:04Z</time>
      </trkpt>
      <trkpt lat="45.99664" lon="4.41891">
        <ele>786.4</ele>
        <time>2025-09-09T09:25:05Z</time>
      </trkpt>
      <trkpt lat="45.99663" lon="4.41891">
        <ele>786.4</ele>
        <time>2025-09-09T09:25:06Z</time>
      </trkpt>
      <trkpt lat="45.99662" lon="4.41892">
        <ele>786.4</ele>
        <time>2025-09-09T09:25:07Z</time>
      </trkpt>
      <trkpt lat="45.99661" lon="4.41892">
        <ele>785.2</ele>
        <time>2025-09-09T09:25:08Z</time>
      </trkpt>
      <trkpt lat="45.99659" lon="4.41892">
        <ele>785.4</ele>
        <time>2025-09-09T09:25:09Z</time>
      </trkpt>
      <trkpt lat="45.99657" lon="4.41892">
        <ele>785.8</ele>
        <time>2025-09-09T09:25:10Z</time>
      </trkpt>
      <trkpt lat="45.99656" lon="4.41891">
        <ele>785.8</ele>
        <time>2025-09-09T09:25:11Z</time>
      </trkpt>
      <trkpt lat="45.99654" lon="4.41891">
        <ele>786</ele>
        <time>2025-09-09T09:25:12Z</time>
      </trkpt>
      <trkpt lat="45.99652" lon="4.41891">
        <ele>786</ele>
        <time>2025-09-09T09:25:13Z</time>
      </trkpt>
      <trkpt lat="45.9965" lon="4.41891">
        <ele>786</ele>
        <time>2025-09-09T09:25:14Z</time>
      </trkpt>
      <trkpt lat="45.99648" lon="4.41891">
        <ele>786</ele>
        <time>2025-09-09T09:25:15Z</time>
      </trkpt>
      <trkpt lat="45.99643" lon="4.4189">
        <ele>786</ele>
        <time>2025-09-09T09:25:16Z</time>
      </trkpt>
      <trkpt lat="45.9964" lon="4.41891">
        <ele>786</ele>
        <time>2025-09-09T09:25:17Z</time>
      </trkpt>
      <trkpt lat="45.99636" lon="4.4189">
        <ele>786</ele>
        <time>2025-09-09T09:25:18Z</time>
      </trkpt>
      <trkpt lat="45.99632" lon="4.41889">
        <ele>785.4</ele>
        <time>2025-09-09T09:25:19Z</time>
      </trkpt>
      <trkpt lat="45.99628" lon="4.41889">
        <ele>785.2</ele>
        <time>2025-09-09T09:25:20Z</time>
      </trkpt>
      <trkpt lat="45.99624" lon="4.41888">
        <ele>785.2</ele>
        <time>2025-09-09T09:25:21Z</time>
      </trkpt>
      <trkpt lat="45.9962" lon="4.41887">
        <ele>785</ele>
        <time>2025-09-09T09:25:22Z</time>
      </trkpt>
      <trkpt lat="45.99615" lon="4.41886">
        <ele>785</ele>
        <time>2025-09-09T09:25:23Z</time>
      </trkpt>
      <trkpt lat="45.99611" lon="4.41886">
        <ele>784.4</ele>
        <time>2025-09-09T09:25:24Z</time>
      </trkpt>
      <trkpt lat="45.99605" lon="4.41887">
        <ele>784.4</ele>
        <time>2025-09-09T09:25:25Z</time>
      </trkpt>
      <trkpt lat="45.99601" lon="4.41887">
        <ele>784.4</ele>
        <time>2025-09-09T09:25:26Z</time>
      </trkpt>
      <trkpt lat="45.99597" lon="4.41887">
        <ele>784.4</ele>
        <time>2025-09-09T09:25:27Z</time>
      </trkpt>
      <trkpt lat="45.99595" lon="4.41887">
        <ele>784.2</ele>
        <time>2025-09-09T09:25:28Z</time>
      </trkpt>
      <trkpt lat="45.99593" lon="4.41888">
        <ele>784.2</ele>
        <time>2025-09-09T09:25:29Z</time>
      </trkpt>
      <trkpt lat="45.99585" lon="4.41891">
        <ele>784.2</ele>
        <time>2025-09-09T09:25:30Z</time>
      </trkpt>
      <trkpt lat="45.99583" lon="4.41889">
        <ele>784.6</ele>
        <time>2025-09-09T09:25:31Z</time>
      </trkpt>
      <trkpt lat="45.99581" lon="4.41889">
        <ele>784.6</ele>
        <time>2025-09-09T09:25:32Z</time>
      </trkpt>
      <trkpt lat="45.99577" lon="4.41887">
        <ele>784.2</ele>
        <time>2025-09-09T09:25:33Z</time>
      </trkpt>
      <trkpt lat="45.99576" lon="4.41884">
        <ele>784.6</ele>
        <time>2025-09-09T09:25:34Z</time>
      </trkpt>
      <trkpt lat="45.99574" lon="4.41882">
        <ele>784.6</ele>
        <time>2025-09-09T09:25:35Z</time>
      </trkpt>
      <trkpt lat="45.99572" lon="4.41881">
        <ele>784.6</ele>
        <time>2025-09-09T09:25:36Z</time>
      </trkpt>
      <trkpt lat="45.99571" lon="4.41878">
        <ele>784.8</ele>
        <time>2025-09-09T09:25:37Z</time>
      </trkpt>
      <trkpt lat="45.99568" lon="4.41875">
        <ele>784.8</ele>
        <time>2025-09-09T09:25:38Z</time>
      </trkpt>
      <trkpt lat="45.99565" lon="4.41874">
        <ele>785.2</ele>
        <time>2025-09-09T09:25:39Z</time>
      </trkpt>
      <trkpt lat="45.99563" lon="4.41873">
        <ele>785.2</ele>
        <time>2025-09-09T09:25:40Z</time>
      </trkpt>
      <trkpt lat="45.99561" lon="4.41872">
        <ele>784.8</ele>
        <time>2025-09-09T09:25:41Z</time>
      </trkpt>
      <trkpt lat="45.99559" lon="4.41871">
        <ele>784.8</ele>
        <time>2025-09-09T09:25:42Z</time>
      </trkpt>
      <trkpt lat="45.99556" lon="4.41871">
        <ele>785.2</ele>
        <time>2025-09-09T09:25:43Z</time>
      </trkpt>
      <trkpt lat="45.99554" lon="4.4187">
        <ele>785.2</ele>
        <time>2025-09-09T09:25:44Z</time>
      </trkpt>
      <trkpt lat="45.99551" lon="4.4187">
        <ele>785.2</ele>
        <time>2025-09-09T09:25:45Z</time>
      </trkpt>
      <trkpt lat="45.99549" lon="4.41869">
        <ele>785.2</ele>
        <time>2025-09-09T09:25:46Z</time>
      </trkpt>
      <trkpt lat="45.99546" lon="4.41868">
        <ele>785.2</ele>
        <time>2025-09-09T09:25:47Z</time>
      </trkpt>
      <trkpt lat="45.99543" lon="4.41866">
        <ele>785.2</ele>
        <time>2025-09-09T09:25:48Z</time>
      </trkpt>
      <trkpt lat="45.9954" lon="4.41865">
        <ele>785.4</ele>
        <time>2025-09-09T09:25:49Z</time>
      </trkpt>
      <trkpt lat="45.99538" lon="4.41865">
        <ele>785.4</ele>
        <time>2025-09-09T09:25:50Z</time>
      </trkpt>
      <trkpt lat="45.99536" lon="4.41863">
        <ele>785.4</ele>
        <time>2025-09-09T09:25:51Z</time>
      </trkpt>
      <trkpt lat="45.99534" lon="4.41862">
        <ele>785.8</ele>
        <time>2025-09-09T09:25:52Z</time>
      </trkpt>
      <trkpt lat="45.99533" lon="4.4186">
        <ele>786.2</ele>
        <time>2025-09-09T09:25:53Z</time>
      </trkpt>
      <trkpt lat="45.99531" lon="4.41859">
        <ele>786.2</ele>
        <time>2025-09-09T09:25:54Z</time>
      </trkpt>
      <trkpt lat="45.9953" lon="4.41858">
        <ele>786.4</ele>
        <time>2025-09-09T09:25:55Z</time>
      </trkpt>
      <trkpt lat="45.99527" lon="4.41856">
        <ele>786.8</ele>
        <time>2025-09-09T09:25:56Z</time>
      </trkpt>
      <trkpt lat="45.99524" lon="4.41854">
        <ele>787</ele>
        <time>2025-09-09T09:25:57Z</time>
      </trkpt>
      <trkpt lat="45.99522" lon="4.41852">
        <ele>787.2</ele>
        <time>2025-09-09T09:25:58Z</time>
      </trkpt>
      <trkpt lat="45.9952" lon="4.41851">
        <ele>787.4</ele>
        <time>2025-09-09T09:25:59Z</time>
      </trkpt>
      <trkpt lat="45.99518" lon="4.4185">
        <ele>787.8</ele>
        <time>2025-09-09T09:26:00Z</time>
      </trkpt>
      <trkpt lat="45.99516" lon="4.4185">
        <ele>787.8</ele>
        <time>2025-09-09T09:26:01Z</time>
      </trkpt>
      <trkpt lat="45.99514" lon="4.41848">
        <ele>788</ele>
        <time>2025-09-09T09:26:02Z</time>
      </trkpt>
      <trkpt lat="45.99512" lon="4.41846">
        <ele>788.2</ele>
        <time>2025-09-09T09:26:03Z</time>
      </trkpt>
      <trkpt lat="45.99509" lon="4.41844">
        <ele>788.2</ele>
        <time>2025-09-09T09:26:04Z</time>
      </trkpt>
      <trkpt lat="45.99507" lon="4.41843">
        <ele>788.2</ele>
        <time>2025-09-09T09:26:05Z</time>
      </trkpt>
      <trkpt lat="45.99505" lon="4.41841">
        <ele>788.2</ele>
        <time>2025-09-09T09:26:06Z</time>
      </trkpt>
      <trkpt lat="45.99503" lon="4.41839">
        <ele>788.2</ele>
        <time>2025-09-09T09:26:07Z</time>
      </trkpt>
      <trkpt lat="45.99501" lon="4.41837">
        <ele>788.2</ele>
        <time>2025-09-09T09:26:08Z</time>
      </trkpt>
      <trkpt lat="45.995" lon="4.41834">
        <ele>788.4</ele>
        <time>2025-09-09T09:26:09Z</time>
      </trkpt>
      <trkpt lat="45.99498" lon="4.41831">
        <ele>788.4</ele>
        <time>2025-09-09T09:26:10Z</time>
      </trkpt>
      <trkpt lat="45.99497" lon="4.4183">
        <ele>788.6</ele>
        <time>2025-09-09T09:26:11Z</time>
      </trkpt>
      <trkpt lat="45.99495" lon="4.41829">
        <ele>788.6</ele>
        <time>2025-09-09T09:26:12Z</time>
      </trkpt>
      <trkpt lat="45.99493" lon="4.41828">
        <ele>788.6</ele>
        <time>2025-09-09T09:26:13Z</time>
      </trkpt>
      <trkpt lat="45.99491" lon="4.41826">
        <ele>788.6</ele>
        <time>2025-09-09T09:26:14Z</time>
      </trkpt>
      <trkpt lat="45.99491" lon="4.41826">
        <ele>789</ele>
        <time>2025-09-09T09:26:15Z</time>
      </trkpt>
      <trkpt lat="45.99489" lon="4.41825">
        <ele>789</ele>
        <time>2025-09-09T09:26:16Z</time>
      </trkpt>
      <trkpt lat="45.99488" lon="4.41824">
        <ele>789</ele>
        <time>2025-09-09T09:26:17Z</time>
      </trkpt>
      <trkpt lat="45.99486" lon="4.41822">
        <ele>789</ele>
        <time>2025-09-09T09:26:18Z</time>
      </trkpt>
      <trkpt lat="45.99484" lon="4.4182">
        <ele>789.2</ele>
        <time>2025-09-09T09:26:19Z</time>
      </trkpt>
      <trkpt lat="45.99481" lon="4.41818">
        <ele>789.2</ele>
        <time>2025-09-09T09:26:20Z</time>
      </trkpt>
      <trkpt lat="45.99479" lon="4.41817">
        <ele>789.2</ele>
        <time>2025-09-09T09:26:21Z</time>
      </trkpt>
      <trkpt lat="45.99477" lon="4.41817">
        <ele>789.2</ele>
        <time>2025-09-09T09:26:22Z</time>
      </trkpt>
      <trkpt lat="45.99475" lon="4.41818">
        <ele>789.4</ele>
        <time>2025-09-09T09:26:23Z</time>
      </trkpt>
      <trkpt lat="45.99473" lon="4.41819">
        <ele>789.4</ele>
        <time>2025-09-09T09:26:24Z</time>
      </trkpt>
      <trkpt lat="45.99471" lon="4.4182">
        <ele>789.4</ele>
        <time>2025-09-09T09:26:25Z</time>
      </trkpt>
      <trkpt lat="45.9947" lon="4.41821">
        <ele>789.6</ele>
        <time>2025-09-09T09:26:26Z</time>
      </trkpt>
      <trkpt lat="45.9947" lon="4.41821">
        <ele>789.6</ele>
        <time>2025-09-09T09:26:27Z</time>
      </trkpt>
      <trkpt lat="45.9947" lon="4.41821">
        <ele>789.2</ele>
        <time>2025-09-09T09:26:28Z</time>
      </trkpt>
      <trkpt lat="45.99467" lon="4.41823">
        <ele>789.8</ele>
        <time>2025-09-09T09:26:55Z</time>
      </trkpt>
      <trkpt lat="45.99467" lon="4.41823">
        <ele>789.8</ele>
        <time>2025-09-09T09:26:56Z</time>
      </trkpt>
      <trkpt lat="45.99466" lon="4.41823">
        <ele>789.8</ele>
        <time>2025-09-09T09:26:57Z</time>
      </trkpt>
      <trkpt lat="45.99464" lon="4.41821">
        <ele>789.8</ele>
        <time>2025-09-09T09:27:02Z</time>
      </trkpt>
      <trkpt lat="45.99463" lon="4.4182">
        <ele>790.4</ele>
        <time>2025-09-09T09:27:03Z</time>
      </trkpt>
      <trkpt lat="45.99462" lon="4.4182">
        <ele>790.4</ele>
        <time>2025-09-09T09:27:04Z</time>
      </trkpt>
      <trkpt lat="45.99461" lon="4.4182">
        <ele>790.4</ele>
        <time>2025-09-09T09:27:05Z</time>
      </trkpt>
      <trkpt lat="45.9946" lon="4.41819">
        <ele>790.4</ele>
        <time>2025-09-09T09:27:06Z</time>
      </trkpt>
      <trkpt lat="45.99458" lon="4.41818">
        <ele>790.4</ele>
        <time>2025-09-09T09:27:07Z</time>
      </trkpt>
      <trkpt lat="45.99457" lon="4.41817">
        <ele>790.4</ele>
        <time>2025-09-09T09:27:08Z</time>
      </trkpt>
      <trkpt lat="45.99455" lon="4.41815">
        <ele>790.6</ele>
        <time>2025-09-09T09:27:09Z</time>
      </trkpt>
      <trkpt lat="45.99454" lon="4.41814">
        <ele>790.6</ele>
        <time>2025-09-09T09:27:10Z</time>
      </trkpt>
      <trkpt lat="45.99452" lon="4.41812">
        <ele>790.6</ele>
        <time>2025-09-09T09:27:11Z</time>
      </trkpt>
      <trkpt lat="45.99451" lon="4.41812">
        <ele>790.6</ele>
        <time>2025-09-09T09:27:12Z</time>
      </trkpt>
      <trkpt lat="45.99449" lon="4.41811">
        <ele>790.6</ele>
        <time>2025-09-09T09:27:13Z</time>
      </trkpt>
      <trkpt lat="45.99448" lon="4.41811">
        <ele>791</ele>
        <time>2025-09-09T09:27:14Z</time>
      </trkpt>
      <trkpt lat="45.99446" lon="4.41811">
        <ele>791.6</ele>
        <time>2025-09-09T09:27:15Z</time>
      </trkpt>
      <trkpt lat="45.99444" lon="4.41812">
        <ele>791.6</ele>
        <time>2025-09-09T09:27:16Z</time>
      </trkpt>
      <trkpt lat="45.99443" lon="4.41813">
        <ele>791.2</ele>
        <time>2025-09-09T09:27:17Z</time>
      </trkpt>
      <trkpt lat="45.99441" lon="4.41814">
        <ele>791.2</ele>
        <time>2025-09-09T09:27:18Z</time>
      </trkpt>
      <trkpt lat="45.99439" lon="4.41814">
        <ele>791.6</ele>
        <time>2025-09-09T09:27:19Z</time>
      </trkpt>
      <trkpt lat="45.99438" lon="4.41814">
        <ele>791.6</ele>
        <time>2025-09-09T09:27:20Z</time>
      </trkpt>
      <trkpt lat="45.99436" lon="4.41815">
        <ele>791.8</ele>
        <time>2025-09-09T09:27:21Z</time>
      </trkpt>
      <trkpt lat="45.99434" lon="4.41816">
        <ele>791.8</ele>
        <time>2025-09-09T09:27:22Z</time>
      </trkpt>
      <trkpt lat="45.99433" lon="4.41817">
        <ele>792</ele>
        <time>2025-09-09T09:27:23Z</time>
      </trkpt>
      <trkpt lat="45.99431" lon="4.41819">
        <ele>792.2</ele>
        <time>2025-09-09T09:27:24Z</time>
      </trkpt>
      <trkpt lat="45.9943" lon="4.4182">
        <ele>792.6</ele>
        <time>2025-09-09T09:27:25Z</time>
      </trkpt>
      <trkpt lat="45.99428" lon="4.41821">
        <ele>792.6</ele>
        <time>2025-09-09T09:27:26Z</time>
      </trkpt>
      <trkpt lat="45.99427" lon="4.41821">
        <ele>792.6</ele>
        <time>2025-09-09T09:27:27Z</time>
      </trkpt>
      <trkpt lat="45.99425" lon="4.41821">
        <ele>792.6</ele>
        <time>2025-09-09T09:27:28Z</time>
      </trkpt>
      <trkpt lat="45.99424" lon="4.41821">
        <ele>792.8</ele>
        <time>2025-09-09T09:27:29Z</time>
      </trkpt>
      <trkpt lat="45.99422" lon="4.41821">
        <ele>793</ele>
        <time>2025-09-09T09:27:30Z</time>
      </trkpt>
      <trkpt lat="45.99421" lon="4.4182">
        <ele>793</ele>
        <time>2025-09-09T09:27:31Z</time>
      </trkpt>
      <trkpt lat="45.99419" lon="4.4182">
        <ele>793</ele>
        <time>2025-09-09T09:27:32Z</time>
      </trkpt>
      <trkpt lat="45.99417" lon="4.41819">
        <ele>793</ele>
        <time>2025-09-09T09:27:33Z</time>
      </trkpt>
      <trkpt lat="45.99417" lon="4.41819">
        <ele>793.4</ele>
        <time>2025-09-09T09:27:34Z</time>
      </trkpt>
      <trkpt lat="45.99416" lon="4.41819">
        <ele>793.4</ele>
        <time>2025-09-09T09:27:35Z</time>
      </trkpt>
      <trkpt lat="45.99415" lon="4.41819">
        <ele>793.4</ele>
        <time>2025-09-09T09:27:36Z</time>
      </trkpt>
      <trkpt lat="45.99415" lon="4.41819">
        <ele>793.8</ele>
        <time>2025-09-09T09:27:37Z</time>
      </trkpt>
      <trkpt lat="45.99415" lon="4.41819">
        <ele>793.8</ele>
        <time>2025-09-09T09:27:38Z</time>
      </trkpt>
      <trkpt lat="45.99415" lon="4.41819">
        <ele>794</ele>
        <time>2025-09-09T09:27:39Z</time>
      </trkpt>
      <trkpt lat="45.99415" lon="4.41819">
        <ele>794.2</ele>
        <time>2025-09-09T09:27:40Z</time>
      </trkpt>
      <trkpt lat="45.99415" lon="4.41819">
        <ele>794.2</ele>
        <time>2025-09-09T09:27:41Z</time>
      </trkpt>
      <trkpt lat="45.99411" lon="4.41818">
        <ele>794.6</ele>
        <time>2025-09-09T09:27:42Z</time>
      </trkpt>
      <trkpt lat="45.9941" lon="4.41817">
        <ele>794.6</ele>
        <time>2025-09-09T09:27:43Z</time>
      </trkpt>
      <trkpt lat="45.99409" lon="4.41817">
        <ele>794.8</ele>
        <time>2025-09-09T09:27:44Z</time>
      </trkpt>
      <trkpt lat="45.99407" lon="4.41815">
        <ele>794.8</ele>
        <time>2025-09-09T09:27:45Z</time>
      </trkpt>
      <trkpt lat="45.99406" lon="4.41814">
        <ele>795.2</ele>
        <time>2025-09-09T09:27:46Z</time>
      </trkpt>
      <trkpt lat="45.99405" lon="4.41812">
        <ele>795.6</ele>
        <time>2025-09-09T09:27:47Z</time>
      </trkpt>
      <trkpt lat="45.99404" lon="4.41811">
        <ele>795.6</ele>
        <time>2025-09-09T09:27:48Z</time>
      </trkpt>
      <trkpt lat="45.99403" lon="4.41811">
        <ele>795.8</ele>
        <time>2025-09-09T09:27:49Z</time>
      </trkpt>
      <trkpt lat="45.99401" lon="4.41811">
        <ele>796.2</ele>
        <time>2025-09-09T09:27:50Z</time>
      </trkpt>
      <trkpt lat="45.994" lon="4.41811">
        <ele>796.2</ele>
        <time>2025-09-09T09:27:51Z</time>
      </trkpt>
      <trkpt lat="45.99399" lon="4.4181">
        <ele>796.4</ele>
        <time>2025-09-09T09:27:52Z</time>
      </trkpt>
      <trkpt lat="45.99398" lon="4.4181">
        <ele>796.4</ele>
        <time>2025-09-09T09:27:53Z</time>
      </trkpt>
      <trkpt lat="45.99397" lon="4.41809">
        <ele>796.8</ele>
        <time>2025-09-09T09:27:54Z</time>
      </trkpt>
      <trkpt lat="45.99396" lon="4.41808">
        <ele>796.8</ele>
        <time>2025-09-09T09:27:55Z</time>
      </trkpt>
      <trkpt lat="45.99395" lon="4.41807">
        <ele>796.8</ele>
        <time>2025-09-09T09:27:56Z</time>
      </trkpt>
      <trkpt lat="45.99394" lon="4.41805">
        <ele>797</ele>
        <time>2025-09-09T09:27:57Z</time>
      </trkpt>
      <trkpt lat="45.99394" lon="4.41803">
        <ele>797</ele>
        <time>2025-09-09T09:27:58Z</time>
      </trkpt>
      <trkpt lat="45.99393" lon="4.41802">
        <ele>797.4</ele>
        <time>2025-09-09T09:27:59Z</time>
      </trkpt>
      <trkpt lat="45.99391" lon="4.41802">
        <ele>797.4</ele>
        <time>2025-09-09T09:28:00Z</time>
      </trkpt>
      <trkpt lat="45.9939" lon="4.41802">
        <ele>797.6</ele>
        <time>2025-09-09T09:28:01Z</time>
      </trkpt>
      <trkpt lat="45.99388" lon="4.41801">
        <ele>797.6</ele>
        <time>2025-09-09T09:28:02Z</time>
      </trkpt>
      <trkpt lat="45.99387" lon="4.418">
        <ele>798</ele>
        <time>2025-09-09T09:28:03Z</time>
      </trkpt>
      <trkpt lat="45.99386" lon="4.41799">
        <ele>798</ele>
        <time>2025-09-09T09:28:04Z</time>
      </trkpt>
      <trkpt lat="45.99385" lon="4.41798">
        <ele>798</ele>
        <time>2025-09-09T09:28:05Z</time>
      </trkpt>
      <trkpt lat="45.99385" lon="4.41798">
        <ele>798.2</ele>
        <time>2025-09-09T09:28:06Z</time>
      </trkpt>
      <trkpt lat="45.99385" lon="4.41796">
        <ele>798.4</ele>
        <time>2025-09-09T09:28:07Z</time>
      </trkpt>
      <trkpt lat="45.99385" lon="4.41795">
        <ele>798.8</ele>
        <time>2025-09-09T09:28:08Z</time>
      </trkpt>
      <trkpt lat="45.99384" lon="4.41794">
        <ele>798.8</ele>
        <time>2025-09-09T09:28:09Z</time>
      </trkpt>
      <trkpt lat="45.99384" lon="4.41792">
        <ele>799</ele>
        <time>2025-09-09T09:28:10Z</time>
      </trkpt>
      <trkpt lat="45.99383" lon="4.41792">
        <ele>799</ele>
        <time>2025-09-09T09:28:11Z</time>
      </trkpt>
      <trkpt lat="45.99382" lon="4.41791">
        <ele>799.2</ele>
        <time>2025-09-09T09:28:12Z</time>
      </trkpt>
      <trkpt lat="45.99382" lon="4.4179">
        <ele>799.4</ele>
        <time>2025-09-09T09:28:13Z</time>
      </trkpt>
      <trkpt lat="45.99381" lon="4.41789">
        <ele>799.4</ele>
        <time>2025-09-09T09:28:14Z</time>
      </trkpt>
      <trkpt lat="45.9938" lon="4.41788">
        <ele>799.8</ele>
        <time>2025-09-09T09:28:15Z</time>
      </trkpt>
      <trkpt lat="45.99379" lon="4.41787">
        <ele>799.8</ele>
        <time>2025-09-09T09:28:16Z</time>
      </trkpt>
      <trkpt lat="45.99378" lon="4.41786">
        <ele>799.8</ele>
        <time>2025-09-09T09:28:17Z</time>
      </trkpt>
      <trkpt lat="45.99377" lon="4.41785">
        <ele>800</ele>
        <time>2025-09-09T09:28:18Z</time>
      </trkpt>
      <trkpt lat="45.99376" lon="4.41784">
        <ele>800</ele>
        <time>2025-09-09T09:28:19Z</time>
      </trkpt>
      <trkpt lat="45.99374" lon="4.41784">
        <ele>800.4</ele>
        <time>2025-09-09T09:28:20Z</time>
      </trkpt>
      <trkpt lat="45.99373" lon="4.41783">
        <ele>800.4</ele>
        <time>2025-09-09T09:28:21Z</time>
      </trkpt>
      <trkpt lat="45.99373" lon="4.41782">
        <ele>800.6</ele>
        <time>2025-09-09T09:28:22Z</time>
      </trkpt>
      <trkpt lat="45.99372" lon="4.4178">
        <ele>800.6</ele>
        <time>2025-09-09T09:28:23Z</time>
      </trkpt>
      <trkpt lat="45.99371" lon="4.41779">
        <ele>800.8</ele>
        <time>2025-09-09T09:28:24Z</time>
      </trkpt>
      <trkpt lat="45.99371" lon="4.41777">
        <ele>800.8</ele>
        <time>2025-09-09T09:28:25Z</time>
      </trkpt>
      <trkpt lat="45.99369" lon="4.41776">
        <ele>800.8</ele>
        <time>2025-09-09T09:28:26Z</time>
      </trkpt>
      <trkpt lat="45.99368" lon="4.41776">
        <ele>800.8</ele>
        <time>2025-09-09T09:28:27Z</time>
      </trkpt>
      <trkpt lat="45.99367" lon="4.41775">
        <ele>801.2</ele>
        <time>2025-09-09T09:28:28Z</time>
      </trkpt>
      <trkpt lat="45.99366" lon="4.41774">
        <ele>801.2</ele>
        <time>2025-09-09T09:28:29Z</time>
      </trkpt>
      <trkpt lat="45.99365" lon="4.41774">
        <ele>801.6</ele>
        <time>2025-09-09T09:28:30Z</time>
      </trkpt>
      <trkpt lat="45.99364" lon="4.41773">
        <ele>801.6</ele>
        <time>2025-09-09T09:28:31Z</time>
      </trkpt>
      <trkpt lat="45.99363" lon="4.41772">
        <ele>802</ele>
        <time>2025-09-09T09:28:32Z</time>
      </trkpt>
      <trkpt lat="45.99362" lon="4.41771">
        <ele>802</ele>
        <time>2025-09-09T09:28:33Z</time>
      </trkpt>
      <trkpt lat="45.99362" lon="4.4177">
        <ele>802.2</ele>
        <time>2025-09-09T09:28:34Z</time>
      </trkpt>
      <trkpt lat="45.99361" lon="4.41769">
        <ele>802.2</ele>
        <time>2025-09-09T09:28:35Z</time>
      </trkpt>
      <trkpt lat="45.99361" lon="4.41768">
        <ele>802.2</ele>
        <time>2025-09-09T09:28:36Z</time>
      </trkpt>
      <trkpt lat="45.99359" lon="4.41767">
        <ele>802.2</ele>
        <time>2025-09-09T09:28:37Z</time>
      </trkpt>
      <trkpt lat="45.99359" lon="4.41766">
        <ele>802.6</ele>
        <time>2025-09-09T09:28:38Z</time>
      </trkpt>
      <trkpt lat="45.99358" lon="4.41766">
        <ele>802.6</ele>
        <time>2025-09-09T09:28:39Z</time>
      </trkpt>
      <trkpt lat="45.99357" lon="4.41764">
        <ele>802.6</ele>
        <time>2025-09-09T09:28:40Z</time>
      </trkpt>
      <trkpt lat="45.99356" lon="4.41763">
        <ele>802.6</ele>
        <time>2025-09-09T09:28:41Z</time>
      </trkpt>
      <trkpt lat="45.99355" lon="4.41762">
        <ele>802.6</ele>
        <time>2025-09-09T09:28:42Z</time>
      </trkpt>
      <trkpt lat="45.99354" lon="4.41761">
        <ele>802.8</ele>
        <time>2025-09-09T09:28:43Z</time>
      </trkpt>
      <trkpt lat="45.99352" lon="4.4176">
        <ele>802.8</ele>
        <time>2025-09-09T09:28:44Z</time>
      </trkpt>
      <trkpt lat="45.99351" lon="4.41759">
        <ele>802.8</ele>
        <time>2025-09-09T09:28:45Z</time>
      </trkpt>
      <trkpt lat="45.9935" lon="4.41757">
        <ele>802.8</ele>
        <time>2025-09-09T09:28:46Z</time>
      </trkpt>
      <trkpt lat="45.99348" lon="4.41757">
        <ele>803</ele>
        <time>2025-09-09T09:28:47Z</time>
      </trkpt>
      <trkpt lat="45.99347" lon="4.41756">
        <ele>803</ele>
        <time>2025-09-09T09:28:48Z</time>
      </trkpt>
      <trkpt lat="45.99345" lon="4.41755">
        <ele>803</ele>
        <time>2025-09-09T09:28:49Z</time>
      </trkpt>
      <trkpt lat="45.99344" lon="4.41753">
        <ele>803</ele>
        <time>2025-09-09T09:28:50Z</time>
      </trkpt>
      <trkpt lat="45.99342" lon="4.41752">
        <ele>803</ele>
        <time>2025-09-09T09:28:51Z</time>
      </trkpt>
      <trkpt lat="45.99342" lon="4.41752">
        <ele>803.4</ele>
        <time>2025-09-09T09:28:52Z</time>
      </trkpt>
      <trkpt lat="45.99338" lon="4.41747">
        <ele>803.4</ele>
        <time>2025-09-09T09:28:53Z</time>
      </trkpt>
      <trkpt lat="45.99336" lon="4.41745">
        <ele>803.6</ele>
        <time>2025-09-09T09:28:54Z</time>
      </trkpt>
      <trkpt lat="45.99334" lon="4.41744">
        <ele>803.6</ele>
        <time>2025-09-09T09:28:55Z</time>
      </trkpt>
      <trkpt lat="45.99333" lon="4.41743">
        <ele>803.6</ele>
        <time>2025-09-09T09:28:56Z</time>
      </trkpt>
      <trkpt lat="45.99332" lon="4.41742">
        <ele>803.6</ele>
        <time>2025-09-09T09:28:57Z</time>
      </trkpt>
      <trkpt lat="45.99331" lon="4.41741">
        <ele>803.6</ele>
        <time>2025-09-09T09:28:58Z</time>
      </trkpt>
      <trkpt lat="45.99329" lon="4.4174">
        <ele>804</ele>
        <time>2025-09-09T09:28:59Z</time>
      </trkpt>
      <trkpt lat="45.99327" lon="4.41739">
        <ele>804</ele>
        <time>2025-09-09T09:29:00Z</time>
      </trkpt>
      <trkpt lat="45.99325" lon="4.41738">
        <ele>804</ele>
        <time>2025-09-09T09:29:01Z</time>
      </trkpt>
      <trkpt lat="45.99324" lon="4.41737">
        <ele>804.4</ele>
        <time>2025-09-09T09:29:02Z</time>
      </trkpt>
      <trkpt lat="45.99324" lon="4.41737">
        <ele>804.4</ele>
        <time>2025-09-09T09:29:03Z</time>
      </trkpt>
      <trkpt lat="45.99323" lon="4.41736">
        <ele>804.4</ele>
        <time>2025-09-09T09:29:04Z</time>
      </trkpt>
      <trkpt lat="45.99321" lon="4.41734">
        <ele>804.4</ele>
        <time>2025-09-09T09:29:05Z</time>
      </trkpt>
      <trkpt lat="45.9932" lon="4.41733">
        <ele>804.4</ele>
        <time>2025-09-09T09:29:06Z</time>
      </trkpt>
      <trkpt lat="45.99319" lon="4.41731">
        <ele>804.4</ele>
        <time>2025-09-09T09:29:07Z</time>
      </trkpt>
      <trkpt lat="45.99318" lon="4.4173">
        <ele>804.4</ele>
        <time>2025-09-09T09:29:08Z</time>
      </trkpt>
      <trkpt lat="45.99316" lon="4.41729">
        <ele>804.4</ele>
        <time>2025-09-09T09:29:09Z</time>
      </trkpt>
      <trkpt lat="45.99315" lon="4.41728">
        <ele>804.4</ele>
        <time>2025-09-09T09:29:10Z</time>
      </trkpt>
      <trkpt lat="45.99314" lon="4.41727">
        <ele>804.6</ele>
        <time>2025-09-09T09:29:11Z</time>
      </trkpt>
      <trkpt lat="45.99313" lon="4.41727">
        <ele>804.6</ele>
        <time>2025-09-09T09:29:12Z</time>
      </trkpt>
      <trkpt lat="45.99312" lon="4.41726">
        <ele>804.6</ele>
        <time>2025-09-09T09:29:13Z</time>
      </trkpt>
      <trkpt lat="45.9931" lon="4.41724">
        <ele>804.8</ele>
        <time>2025-09-09T09:29:14Z</time>
      </trkpt>
      <trkpt lat="45.99308" lon="4.41722">
        <ele>804.8</ele>
        <time>2025-09-09T09:29:15Z</time>
      </trkpt>
      <trkpt lat="45.99306" lon="4.4172">
        <ele>804.8</ele>
        <time>2025-09-09T09:29:16Z</time>
      </trkpt>
      <trkpt lat="45.99305" lon="4.41718">
        <ele>804.8</ele>
        <time>2025-09-09T09:29:17Z</time>
      </trkpt>
      <trkpt lat="45.99303" lon="4.41717">
        <ele>804.8</ele>
        <time>2025-09-09T09:29:18Z</time>
      </trkpt>
      <trkpt lat="45.99302" lon="4.41715">
        <ele>804.8</ele>
        <time>2025-09-09T09:29:19Z</time>
      </trkpt>
      <trkpt lat="45.993" lon="4.41713">
        <ele>805</ele>
        <time>2025-09-09T09:29:20Z</time>
      </trkpt>
      <trkpt lat="45.99298" lon="4.41711">
        <ele>805</ele>
        <time>2025-09-09T09:29:21Z</time>
      </trkpt>
      <trkpt lat="45.99295" lon="4.4171">
        <ele>805.4</ele>
        <time>2025-09-09T09:29:22Z</time>
      </trkpt>
      <trkpt lat="45.99293" lon="4.41708">
        <ele>805.4</ele>
        <time>2025-09-09T09:29:23Z</time>
      </trkpt>
      <trkpt lat="45.99292" lon="4.41707">
        <ele>805.6</ele>
        <time>2025-09-09T09:29:24Z</time>
      </trkpt>
      <trkpt lat="45.99291" lon="4.41706">
        <ele>805.6</ele>
        <time>2025-09-09T09:29:25Z</time>
      </trkpt>
      <trkpt lat="45.99289" lon="4.41704">
        <ele>805.6</ele>
        <time>2025-09-09T09:29:26Z</time>
      </trkpt>
      <trkpt lat="45.99288" lon="4.41702">
        <ele>805.6</ele>
        <time>2025-09-09T09:29:27Z</time>
      </trkpt>
      <trkpt lat="45.99286" lon="4.41701">
        <ele>805.8</ele>
        <time>2025-09-09T09:29:28Z</time>
      </trkpt>
      <trkpt lat="45.99285" lon="4.41699">
        <ele>805.8</ele>
        <time>2025-09-09T09:29:29Z</time>
      </trkpt>
      <trkpt lat="45.99285" lon="4.41697">
        <ele>805.8</ele>
        <time>2025-09-09T09:29:30Z</time>
      </trkpt>
      <trkpt lat="45.99284" lon="4.41696">
        <ele>805.8</ele>
        <time>2025-09-09T09:29:31Z</time>
      </trkpt>
      <trkpt lat="45.99284" lon="4.41696">
        <ele>805.8</ele>
        <time>2025-09-09T09:29:32Z</time>
      </trkpt>
      <trkpt lat="45.99283" lon="4.41694">
        <ele>805.8</ele>
        <time>2025-09-09T09:29:33Z</time>
      </trkpt>
      <trkpt lat="45.99281" lon="4.41693">
        <ele>805.8</ele>
        <time>2025-09-09T09:29:34Z</time>
      </trkpt>
      <trkpt lat="45.9928" lon="4.41691">
        <ele>805.8</ele>
        <time>2025-09-09T09:29:35Z</time>
      </trkpt>
      <trkpt lat="45.99279" lon="4.41689">
        <ele>805.8</ele>
        <time>2025-09-09T09:29:36Z</time>
      </trkpt>
      <trkpt lat="45.99278" lon="4.41688">
        <ele>806.2</ele>
        <time>2025-09-09T09:29:37Z</time>
      </trkpt>
      <trkpt lat="45.99278" lon="4.41686">
        <ele>806.4</ele>
        <time>2025-09-09T09:29:38Z</time>
      </trkpt>
      <trkpt lat="45.99276" lon="4.41685">
        <ele>806.4</ele>
        <time>2025-09-09T09:29:39Z</time>
      </trkpt>
      <trkpt lat="45.99274" lon="4.41684">
        <ele>806.4</ele>
        <time>2025-09-09T09:29:40Z</time>
      </trkpt>
      <trkpt lat="45.99273" lon="4.41684">
        <ele>806.6</ele>
        <time>2025-09-09T09:29:41Z</time>
      </trkpt>
      <trkpt lat="45.99272" lon="4.41683">
        <ele>806.6</ele>
        <time>2025-09-09T09:29:42Z</time>
      </trkpt>
      <trkpt lat="45.9927" lon="4.41682">
        <ele>806.8</ele>
        <time>2025-09-09T09:29:43Z</time>
      </trkpt>
      <trkpt lat="45.99269" lon="4.4168">
        <ele>806.8</ele>
        <time>2025-09-09T09:29:44Z</time>
      </trkpt>
      <trkpt lat="45.99267" lon="4.41679">
        <ele>806.8</ele>
        <time>2025-09-09T09:29:45Z</time>
      </trkpt>
      <trkpt lat="45.99266" lon="4.41678">
        <ele>806.8</ele>
        <time>2025-09-09T09:29:46Z</time>
      </trkpt>
      <trkpt lat="45.99264" lon="4.41676">
        <ele>806.8</ele>
        <time>2025-09-09T09:29:47Z</time>
      </trkpt>
      <trkpt lat="45.99263" lon="4.41675">
        <ele>807</ele>
        <time>2025-09-09T09:29:48Z</time>
      </trkpt>
      <trkpt lat="45.99262" lon="4.41674">
        <ele>807.2</ele>
        <time>2025-09-09T09:29:49Z</time>
      </trkpt>
      <trkpt lat="45.99261" lon="4.41672">
        <ele>807.2</ele>
        <time>2025-09-09T09:29:50Z</time>
      </trkpt>
      <trkpt lat="45.99259" lon="4.4167">
        <ele>807.2</ele>
        <time>2025-09-09T09:29:51Z</time>
      </trkpt>
      <trkpt lat="45.99257" lon="4.41669">
        <ele>807.6</ele>
        <time>2025-09-09T09:29:52Z</time>
      </trkpt>
      <trkpt lat="45.99255" lon="4.41668">
        <ele>807.6</ele>
        <time>2025-09-09T09:29:53Z</time>
      </trkpt>
      <trkpt lat="45.99254" lon="4.41667">
        <ele>807.6</ele>
        <time>2025-09-09T09:29:54Z</time>
      </trkpt>
      <trkpt lat="45.99252" lon="4.41666">
        <ele>807.6</ele>
        <time>2025-09-09T09:29:55Z</time>
      </trkpt>
      <trkpt lat="45.99251" lon="4.41664">
        <ele>807.8</ele>
        <time>2025-09-09T09:29:56Z</time>
      </trkpt>
      <trkpt lat="45.9925" lon="4.41663">
        <ele>807.8</ele>
        <time>2025-09-09T09:29:57Z</time>
      </trkpt>
      <trkpt lat="45.99248" lon="4.41662">
        <ele>807.8</ele>
        <time>2025-09-09T09:29:58Z</time>
      </trkpt>
      <trkpt lat="45.99247" lon="4.41661">
        <ele>807.8</ele>
        <time>2025-09-09T09:29:59Z</time>
      </trkpt>
      <trkpt lat="45.99246" lon="4.4166">
        <ele>808</ele>
        <time>2025-09-09T09:30:00Z</time>
      </trkpt>
      <trkpt lat="45.99245" lon="4.41659">
        <ele>808</ele>
        <time>2025-09-09T09:30:01Z</time>
      </trkpt>
      <trkpt lat="45.99244" lon="4.41658">
        <ele>808.6</ele>
        <time>2025-09-09T09:30:02Z</time>
      </trkpt>
      <trkpt lat="45.99243" lon="4.41657">
        <ele>808.6</ele>
        <time>2025-09-09T09:30:03Z</time>
      </trkpt>
      <trkpt lat="45.99241" lon="4.41656">
        <ele>808.6</ele>
        <time>2025-09-09T09:30:04Z</time>
      </trkpt>
      <trkpt lat="45.9924" lon="4.41655">
        <ele>808.8</ele>
        <time>2025-09-09T09:30:05Z</time>
      </trkpt>
      <trkpt lat="45.99239" lon="4.41654">
        <ele>808.8</ele>
        <time>2025-09-09T09:30:06Z</time>
      </trkpt>
      <trkpt lat="45.99238" lon="4.41652">
        <ele>809.2</ele>
        <time>2025-09-09T09:30:07Z</time>
      </trkpt>
      <trkpt lat="45.99237" lon="4.41651">
        <ele>809.6</ele>
        <time>2025-09-09T09:30:08Z</time>
      </trkpt>
      <trkpt lat="45.99236" lon="4.4165">
        <ele>809.8</ele>
        <time>2025-09-09T09:30:09Z</time>
      </trkpt>
      <trkpt lat="45.99234" lon="4.41649">
        <ele>809.8</ele>
        <time>2025-09-09T09:30:10Z</time>
      </trkpt>
      <trkpt lat="45.99232" lon="4.41648">
        <ele>810</ele>
        <time>2025-09-09T09:30:11Z</time>
      </trkpt>
      <trkpt lat="45.99231" lon="4.41647">
        <ele>810</ele>
        <time>2025-09-09T09:30:12Z</time>
      </trkpt>
      <trkpt lat="45.9923" lon="4.41647">
        <ele>810</ele>
        <time>2025-09-09T09:30:13Z</time>
      </trkpt>
      <trkpt lat="45.9923" lon="4.41647">
        <ele>810.4</ele>
        <time>2025-09-09T09:30:14Z</time>
      </trkpt>
      <trkpt lat="45.99229" lon="4.41646">
        <ele>810.4</ele>
        <time>2025-09-09T09:30:15Z</time>
      </trkpt>
      <trkpt lat="45.99227" lon="4.41645">
        <ele>810.4</ele>
        <time>2025-09-09T09:30:16Z</time>
      </trkpt>
      <trkpt lat="45.99226" lon="4.41644">
        <ele>810.6</ele>
        <time>2025-09-09T09:30:17Z</time>
      </trkpt>
      <trkpt lat="45.99225" lon="4.41643">
        <ele>810.8</ele>
        <time>2025-09-09T09:30:18Z</time>
      </trkpt>
      <trkpt lat="45.99224" lon="4.41642">
        <ele>810.8</ele>
        <time>2025-09-09T09:30:19Z</time>
      </trkpt>
      <trkpt lat="45.99222" lon="4.41641">
        <ele>811.2</ele>
        <time>2025-09-09T09:30:20Z</time>
      </trkpt>
      <trkpt lat="45.99221" lon="4.4164">
        <ele>811.2</ele>
        <time>2025-09-09T09:30:21Z</time>
      </trkpt>
      <trkpt lat="45.99221" lon="4.4164">
        <ele>811.4</ele>
        <time>2025-09-09T09:30:22Z</time>
      </trkpt>
      <trkpt lat="45.9922" lon="4.41639">
        <ele>811.4</ele>
        <time>2025-09-09T09:30:23Z</time>
      </trkpt>
      <trkpt lat="45.9922" lon="4.41638">
        <ele>811.6</ele>
        <time>2025-09-09T09:30:24Z</time>
      </trkpt>
      <trkpt lat="45.9922" lon="4.41637">
        <ele>812</ele>
        <time>2025-09-09T09:30:25Z</time>
      </trkpt>
      <trkpt lat="45.99219" lon="4.41637">
        <ele>812</ele>
        <time>2025-09-09T09:30:26Z</time>
      </trkpt>
      <trkpt lat="45.99218" lon="4.41636">
        <ele>812</ele>
        <time>2025-09-09T09:30:27Z</time>
      </trkpt>
      <trkpt lat="45.99217" lon="4.41636">
        <ele>812</ele>
        <time>2025-09-09T09:30:28Z</time>
      </trkpt>
      <trkpt lat="45.99217" lon="4.41635">
        <ele>812.2</ele>
        <time>2025-09-09T09:30:29Z</time>
      </trkpt>
      <trkpt lat="45.99216" lon="4.41635">
        <ele>812.2</ele>
        <time>2025-09-09T09:30:30Z</time>
      </trkpt>
      <trkpt lat="45.99214" lon="4.41635">
        <ele>812.6</ele>
        <time>2025-09-09T09:30:31Z</time>
      </trkpt>
      <trkpt lat="45.99213" lon="4.41635">
        <ele>812.6</ele>
        <time>2025-09-09T09:30:32Z</time>
      </trkpt>
      <trkpt lat="45.99211" lon="4.41635">
        <ele>813</ele>
        <time>2025-09-09T09:30:33Z</time>
      </trkpt>
      <trkpt lat="45.9921" lon="4.41635">
        <ele>813.4</ele>
        <time>2025-09-09T09:30:34Z</time>
      </trkpt>
      <trkpt lat="45.99209" lon="4.41634">
        <ele>813.8</ele>
        <time>2025-09-09T09:30:35Z</time>
      </trkpt>
      <trkpt lat="45.99208" lon="4.41633">
        <ele>813.8</ele>
        <time>2025-09-09T09:30:36Z</time>
      </trkpt>
      <trkpt lat="45.99207" lon="4.41632">
        <ele>814</ele>
        <time>2025-09-09T09:30:37Z</time>
      </trkpt>
      <trkpt lat="45.99206" lon="4.41632">
        <ele>814.2</ele>
        <time>2025-09-09T09:30:38Z</time>
      </trkpt>
      <trkpt lat="45.99205" lon="4.41631">
        <ele>814.6</ele>
        <time>2025-09-09T09:30:39Z</time>
      </trkpt>
      <trkpt lat="45.99205" lon="4.4163">
        <ele>814.6</ele>
        <time>2025-09-09T09:30:40Z</time>
      </trkpt>
      <trkpt lat="45.99203" lon="4.4163">
        <ele>814.8</ele>
        <time>2025-09-09T09:30:41Z</time>
      </trkpt>
      <trkpt lat="45.99202" lon="4.41629">
        <ele>815</ele>
        <time>2025-09-09T09:30:42Z</time>
      </trkpt>
      <trkpt lat="45.992" lon="4.41629">
        <ele>815</ele>
        <time>2025-09-09T09:30:43Z</time>
      </trkpt>
      <trkpt lat="45.99199" lon="4.41629">
        <ele>815.2</ele>
        <time>2025-09-09T09:30:44Z</time>
      </trkpt>
      <trkpt lat="45.99198" lon="4.41629">
        <ele>815.6</ele>
        <time>2025-09-09T09:30:45Z</time>
      </trkpt>
      <trkpt lat="45.99197" lon="4.41628">
        <ele>815.6</ele>
        <time>2025-09-09T09:30:46Z</time>
      </trkpt>
      <trkpt lat="45.99196" lon="4.41627">
        <ele>815.6</ele>
        <time>2025-09-09T09:30:47Z</time>
      </trkpt>
      <trkpt lat="45.99194" lon="4.41627">
        <ele>815.8</ele>
        <time>2025-09-09T09:30:48Z</time>
      </trkpt>
      <trkpt lat="45.99193" lon="4.41626">
        <ele>815.8</ele>
        <time>2025-09-09T09:30:49Z</time>
      </trkpt>
      <trkpt lat="45.99193" lon="4.41627">
        <ele>815.8</ele>
        <time>2025-09-09T09:30:50Z</time>
      </trkpt>
      <trkpt lat="45.99192" lon="4.41627">
        <ele>816</ele>
        <time>2025-09-09T09:30:51Z</time>
      </trkpt>
      <trkpt lat="45.99192" lon="4.41627">
        <ele>816</ele>
        <time>2025-09-09T09:30:52Z</time>
      </trkpt>
      <trkpt lat="45.99191" lon="4.41626">
        <ele>816.2</ele>
        <time>2025-09-09T09:30:53Z</time>
      </trkpt>
      <trkpt lat="45.99189" lon="4.41625">
        <ele>816.4</ele>
        <time>2025-09-09T09:30:54Z</time>
      </trkpt>
      <trkpt lat="45.99188" lon="4.41624">
        <ele>816.4</ele>
        <time>2025-09-09T09:30:55Z</time>
      </trkpt>
      <trkpt lat="45.99187" lon="4.41624">
        <ele>816.6</ele>
        <time>2025-09-09T09:30:56Z</time>
      </trkpt>
      <trkpt lat="45.99186" lon="4.41623">
        <ele>816.6</ele>
        <time>2025-09-09T09:30:57Z</time>
      </trkpt>
      <trkpt lat="45.99184" lon="4.41623">
        <ele>817</ele>
        <time>2025-09-09T09:30:58Z</time>
      </trkpt>
      <trkpt lat="45.99183" lon="4.41622">
        <ele>817.2</ele>
        <time>2025-09-09T09:30:59Z</time>
      </trkpt>
      <trkpt lat="45.99182" lon="4.41621">
        <ele>817.2</ele>
        <time>2025-09-09T09:31:00Z</time>
      </trkpt>
      <trkpt lat="45.99181" lon="4.4162">
        <ele>817.2</ele>
        <time>2025-09-09T09:31:01Z</time>
      </trkpt>
      <trkpt lat="45.9918" lon="4.41618">
        <ele>817.6</ele>
        <time>2025-09-09T09:31:02Z</time>
      </trkpt>
      <trkpt lat="45.99179" lon="4.41616">
        <ele>817.6</ele>
        <time>2025-09-09T09:31:03Z</time>
      </trkpt>
      <trkpt lat="45.99178" lon="4.41614">
        <ele>817.6</ele>
        <time>2025-09-09T09:31:04Z</time>
      </trkpt>
      <trkpt lat="45.99176" lon="4.41613">
        <ele>817.6</ele>
        <time>2025-09-09T09:31:05Z</time>
      </trkpt>
      <trkpt lat="45.99175" lon="4.41612">
        <ele>817.8</ele>
        <time>2025-09-09T09:31:06Z</time>
      </trkpt>
      <trkpt lat="45.99175" lon="4.41612">
        <ele>817.8</ele>
        <time>2025-09-09T09:31:07Z</time>
      </trkpt>
      <trkpt lat="45.99174" lon="4.41611">
        <ele>817.8</ele>
        <time>2025-09-09T09:31:08Z</time>
      </trkpt>
      <trkpt lat="45.99173" lon="4.41611">
        <ele>817.8</ele>
        <time>2025-09-09T09:31:09Z</time>
      </trkpt>
      <trkpt lat="45.99172" lon="4.41612">
        <ele>818.4</ele>
        <time>2025-09-09T09:31:10Z</time>
      </trkpt>
      <trkpt lat="45.99171" lon="4.41612">
        <ele>818.4</ele>
        <time>2025-09-09T09:31:11Z</time>
      </trkpt>
      <trkpt lat="45.99169" lon="4.41612">
        <ele>818.6</ele>
        <time>2025-09-09T09:31:12Z</time>
      </trkpt>
      <trkpt lat="45.99168" lon="4.41611">
        <ele>819</ele>
        <time>2025-09-09T09:31:13Z</time>
      </trkpt>
      <trkpt lat="45.99168" lon="4.41609">
        <ele>819</ele>
        <time>2025-09-09T09:31:14Z</time>
      </trkpt>
      <trkpt lat="45.99167" lon="4.41608">
        <ele>819</ele>
        <time>2025-09-09T09:31:15Z</time>
      </trkpt>
      <trkpt lat="45.99166" lon="4.41606">
        <ele>819.2</ele>
        <time>2025-09-09T09:31:16Z</time>
      </trkpt>
      <trkpt lat="45.99165" lon="4.41604">
        <ele>819.2</ele>
        <time>2025-09-09T09:31:17Z</time>
      </trkpt>
      <trkpt lat="45.99163" lon="4.41603">
        <ele>819.4</ele>
        <time>2025-09-09T09:31:18Z</time>
      </trkpt>
      <trkpt lat="45.99163" lon="4.41602">
        <ele>819.4</ele>
        <time>2025-09-09T09:31:19Z</time>
      </trkpt>
      <trkpt lat="45.99161" lon="4.41602">
        <ele>819.8</ele>
        <time>2025-09-09T09:31:20Z</time>
      </trkpt>
      <trkpt lat="45.9916" lon="4.41601">
        <ele>819.8</ele>
        <time>2025-09-09T09:31:21Z</time>
      </trkpt>
      <trkpt lat="45.99159" lon="4.416">
        <ele>819.8</ele>
        <time>2025-09-09T09:31:22Z</time>
      </trkpt>
      <trkpt lat="45.99158" lon="4.41598">
        <ele>820</ele>
        <time>2025-09-09T09:31:23Z</time>
      </trkpt>
      <trkpt lat="45.99158" lon="4.41597">
        <ele>820</ele>
        <time>2025-09-09T09:31:24Z</time>
      </trkpt>
      <trkpt lat="45.99157" lon="4.41596">
        <ele>820.2</ele>
        <time>2025-09-09T09:31:25Z</time>
      </trkpt>
      <trkpt lat="45.99156" lon="4.41595">
        <ele>820.2</ele>
        <time>2025-09-09T09:31:26Z</time>
      </trkpt>
      <trkpt lat="45.99155" lon="4.41593">
        <ele>820.2</ele>
        <time>2025-09-09T09:31:27Z</time>
      </trkpt>
      <trkpt lat="45.99154" lon="4.41592">
        <ele>820.2</ele>
        <time>2025-09-09T09:31:28Z</time>
      </trkpt>
      <trkpt lat="45.99153" lon="4.41592">
        <ele>820.4</ele>
        <time>2025-09-09T09:31:29Z</time>
      </trkpt>
      <trkpt lat="45.99151" lon="4.41592">
        <ele>820.4</ele>
        <time>2025-09-09T09:31:30Z</time>
      </trkpt>
      <trkpt lat="45.99151" lon="4.4159">
        <ele>820.4</ele>
        <time>2025-09-09T09:31:31Z</time>
      </trkpt>
      <trkpt lat="45.9915" lon="4.41589">
        <ele>820.8</ele>
        <time>2025-09-09T09:31:32Z</time>
      </trkpt>
      <trkpt lat="45.99149" lon="4.41587">
        <ele>821.2</ele>
        <time>2025-09-09T09:31:33Z</time>
      </trkpt>
      <trkpt lat="45.99149" lon="4.41585">
        <ele>821.2</ele>
        <time>2025-09-09T09:31:34Z</time>
      </trkpt>
      <trkpt lat="45.99146" lon="4.41584">
        <ele>821.4</ele>
        <time>2025-09-09T09:31:35Z</time>
      </trkpt>
      <trkpt lat="45.99143" lon="4.41583">
        <ele>821.4</ele>
        <time>2025-09-09T09:31:36Z</time>
      </trkpt>
      <trkpt lat="45.99142" lon="4.41582">
        <ele>821.4</ele>
        <time>2025-09-09T09:31:37Z</time>
      </trkpt>
      <trkpt lat="45.99141" lon="4.41581">
        <ele>821.8</ele>
        <time>2025-09-09T09:31:38Z</time>
      </trkpt>
      <trkpt lat="45.99142" lon="4.41579">
        <ele>821.8</ele>
        <time>2025-09-09T09:31:39Z</time>
      </trkpt>
      <trkpt lat="45.99142" lon="4.41578">
        <ele>822</ele>
        <time>2025-09-09T09:31:40Z</time>
      </trkpt>
      <trkpt lat="45.99141" lon="4.41576">
        <ele>822</ele>
        <time>2025-09-09T09:31:41Z</time>
      </trkpt>
      <trkpt lat="45.99141" lon="4.41575">
        <ele>822</ele>
        <time>2025-09-09T09:31:42Z</time>
      </trkpt>
      <trkpt lat="45.9914" lon="4.41574">
        <ele>822.4</ele>
        <time>2025-09-09T09:31:43Z</time>
      </trkpt>
      <trkpt lat="45.99139" lon="4.41573">
        <ele>822</ele>
        <time>2025-09-09T09:31:44Z</time>
      </trkpt>
      <trkpt lat="45.99138" lon="4.41572">
        <ele>822</ele>
        <time>2025-09-09T09:31:45Z</time>
      </trkpt>
      <trkpt lat="45.99137" lon="4.41572">
        <ele>822.4</ele>
        <time>2025-09-09T09:31:46Z</time>
      </trkpt>
      <trkpt lat="45.99135" lon="4.41571">
        <ele>822.4</ele>
        <time>2025-09-09T09:31:47Z</time>
      </trkpt>
      <trkpt lat="45.99135" lon="4.41571">
        <ele>822.4</ele>
        <time>2025-09-09T09:31:48Z</time>
      </trkpt>
      <trkpt lat="45.99133" lon="4.4157">
        <ele>822.8</ele>
        <time>2025-09-09T09:31:49Z</time>
      </trkpt>
      <trkpt lat="45.99133" lon="4.41569">
        <ele>822.8</ele>
        <time>2025-09-09T09:31:50Z</time>
      </trkpt>
      <trkpt lat="45.99131" lon="4.41566">
        <ele>823.2</ele>
        <time>2025-09-09T09:31:51Z</time>
      </trkpt>
      <trkpt lat="45.9913" lon="4.41564">
        <ele>823.2</ele>
        <time>2025-09-09T09:31:52Z</time>
      </trkpt>
      <trkpt lat="45.99129" lon="4.41562">
        <ele>823.4</ele>
        <time>2025-09-09T09:31:53Z</time>
      </trkpt>
      <trkpt lat="45.99129" lon="4.41561">
        <ele>823.6</ele>
        <time>2025-09-09T09:31:54Z</time>
      </trkpt>
      <trkpt lat="45.99129" lon="4.4156">
        <ele>823.6</ele>
        <time>2025-09-09T09:31:55Z</time>
      </trkpt>
      <trkpt lat="45.99129" lon="4.41558">
        <ele>824</ele>
        <time>2025-09-09T09:31:56Z</time>
      </trkpt>
      <trkpt lat="45.99129" lon="4.41555">
        <ele>824.2</ele>
        <time>2025-09-09T09:31:57Z</time>
      </trkpt>
      <trkpt lat="45.99128" lon="4.41554">
        <ele>824.2</ele>
        <time>2025-09-09T09:31:58Z</time>
      </trkpt>
      <trkpt lat="45.99128" lon="4.41552">
        <ele>824.2</ele>
        <time>2025-09-09T09:31:59Z</time>
      </trkpt>
      <trkpt lat="45.99126" lon="4.41551">
        <ele>824.6</ele>
        <time>2025-09-09T09:32:00Z</time>
      </trkpt>
      <trkpt lat="45.99125" lon="4.4155">
        <ele>824.6</ele>
        <time>2025-09-09T09:32:01Z</time>
      </trkpt>
      <trkpt lat="45.99124" lon="4.41549">
        <ele>824.8</ele>
        <time>2025-09-09T09:32:02Z</time>
      </trkpt>
      <trkpt lat="45.99123" lon="4.41547">
        <ele>824.8</ele>
        <time>2025-09-09T09:32:03Z</time>
      </trkpt>
      <trkpt lat="45.99122" lon="4.41546">
        <ele>824.8</ele>
        <time>2025-09-09T09:32:04Z</time>
      </trkpt>
      <trkpt lat="45.99121" lon="4.41545">
        <ele>824.8</ele>
        <time>2025-09-09T09:32:05Z</time>
      </trkpt>
      <trkpt lat="45.99121" lon="4.41543">
        <ele>824.8</ele>
        <time>2025-09-09T09:32:06Z</time>
      </trkpt>
      <trkpt lat="45.9912" lon="4.41542">
        <ele>825.2</ele>
        <time>2025-09-09T09:32:07Z</time>
      </trkpt>
      <trkpt lat="45.9912" lon="4.41542">
        <ele>825.2</ele>
        <time>2025-09-09T09:32:08Z</time>
      </trkpt>
      <trkpt lat="45.9912" lon="4.41541">
        <ele>825.4</ele>
        <time>2025-09-09T09:32:09Z</time>
      </trkpt>
      <trkpt lat="45.99119" lon="4.4154">
        <ele>825.4</ele>
        <time>2025-09-09T09:32:10Z</time>
      </trkpt>
      <trkpt lat="45.99118" lon="4.4154">
        <ele>825.8</ele>
        <time>2025-09-09T09:32:11Z</time>
      </trkpt>
      <trkpt lat="45.99117" lon="4.4154">
        <ele>825.8</ele>
        <time>2025-09-09T09:32:12Z</time>
      </trkpt>
      <trkpt lat="45.99115" lon="4.41539">
        <ele>826.2</ele>
        <time>2025-09-09T09:32:13Z</time>
      </trkpt>
      <trkpt lat="45.99113" lon="4.41538">
        <ele>826.2</ele>
        <time>2025-09-09T09:32:14Z</time>
      </trkpt>
      <trkpt lat="45.99112" lon="4.41538">
        <ele>826.4</ele>
        <time>2025-09-09T09:32:15Z</time>
      </trkpt>
      <trkpt lat="45.99111" lon="4.41537">
        <ele>826.8</ele>
        <time>2025-09-09T09:32:16Z</time>
      </trkpt>
      <trkpt lat="45.99111" lon="4.41535">
        <ele>826.8</ele>
        <time>2025-09-09T09:32:17Z</time>
      </trkpt>
      <trkpt lat="45.9911" lon="4.41533">
        <ele>826.8</ele>
        <time>2025-09-09T09:32:18Z</time>
      </trkpt>
      <trkpt lat="45.9911" lon="4.41532">
        <ele>827</ele>
        <time>2025-09-09T09:32:19Z</time>
      </trkpt>
      <trkpt lat="45.9911" lon="4.4153">
        <ele>827.4</ele>
        <time>2025-09-09T09:32:20Z</time>
      </trkpt>
      <trkpt lat="45.9911" lon="4.41529">
        <ele>827.6</ele>
        <time>2025-09-09T09:32:21Z</time>
      </trkpt>
      <trkpt lat="45.9911" lon="4.41528">
        <ele>827.6</ele>
        <time>2025-09-09T09:32:22Z</time>
      </trkpt>
      <trkpt lat="45.99109" lon="4.41527">
        <ele>828</ele>
        <time>2025-09-09T09:32:23Z</time>
      </trkpt>
      <trkpt lat="45.99107" lon="4.41527">
        <ele>828.2</ele>
        <time>2025-09-09T09:32:24Z</time>
      </trkpt>
      <trkpt lat="45.99105" lon="4.41526">
        <ele>828.2</ele>
        <time>2025-09-09T09:32:25Z</time>
      </trkpt>
      <trkpt lat="45.99104" lon="4.41527">
        <ele>828.4</ele>
        <time>2025-09-09T09:32:26Z</time>
      </trkpt>
      <trkpt lat="45.99103" lon="4.41526">
        <ele>828.4</ele>
        <time>2025-09-09T09:32:27Z</time>
      </trkpt>
      <trkpt lat="45.99101" lon="4.41525">
        <ele>828.4</ele>
        <time>2025-09-09T09:32:28Z</time>
      </trkpt>
      <trkpt lat="45.99101" lon="4.41524">
        <ele>828.8</ele>
        <time>2025-09-09T09:32:29Z</time>
      </trkpt>
      <trkpt lat="45.991" lon="4.41523">
        <ele>829</ele>
        <time>2025-09-09T09:32:30Z</time>
      </trkpt>
      <trkpt lat="45.99099" lon="4.41521">
        <ele>829</ele>
        <time>2025-09-09T09:32:31Z</time>
      </trkpt>
      <trkpt lat="45.99098" lon="4.4152">
        <ele>829.4</ele>
        <time>2025-09-09T09:32:32Z</time>
      </trkpt>
      <trkpt lat="45.99097" lon="4.4152">
        <ele>829.4</ele>
        <time>2025-09-09T09:32:33Z</time>
      </trkpt>
      <trkpt lat="45.99096" lon="4.41519">
        <ele>829.4</ele>
        <time>2025-09-09T09:32:34Z</time>
      </trkpt>
      <trkpt lat="45.99095" lon="4.41519">
        <ele>829.4</ele>
        <time>2025-09-09T09:32:35Z</time>
      </trkpt>
      <trkpt lat="45.99094" lon="4.41517">
        <ele>830</ele>
        <time>2025-09-09T09:32:36Z</time>
      </trkpt>
      <trkpt lat="45.99093" lon="4.41515">
        <ele>830</ele>
        <time>2025-09-09T09:32:37Z</time>
      </trkpt>
      <trkpt lat="45.99093" lon="4.41514">
        <ele>830.2</ele>
        <time>2025-09-09T09:32:38Z</time>
      </trkpt>
      <trkpt lat="45.99092" lon="4.41514">
        <ele>830.2</ele>
        <time>2025-09-09T09:32:39Z</time>
      </trkpt>
      <trkpt lat="45.99092" lon="4.41514">
        <ele>830.2</ele>
        <time>2025-09-09T09:32:40Z</time>
      </trkpt>
      <trkpt lat="45.99089" lon="4.41509">
        <ele>830.4</ele>
        <time>2025-09-09T09:33:03Z</time>
      </trkpt>
      <trkpt lat="45.99088" lon="4.41508">
        <ele>830.4</ele>
        <time>2025-09-09T09:33:04Z</time>
      </trkpt>
      <trkpt lat="45.99087" lon="4.41507">
        <ele>830.8</ele>
        <time>2025-09-09T09:33:05Z</time>
      </trkpt>
      <trkpt lat="45.99086" lon="4.41506">
        <ele>830.8</ele>
        <time>2025-09-09T09:33:06Z</time>
      </trkpt>
      <trkpt lat="45.99085" lon="4.41505">
        <ele>830.8</ele>
        <time>2025-09-09T09:33:07Z</time>
      </trkpt>
      <trkpt lat="45.99084" lon="4.41505">
        <ele>831.2</ele>
        <time>2025-09-09T09:33:08Z</time>
      </trkpt>
      <trkpt lat="45.99084" lon="4.41504">
        <ele>831.4</ele>
        <time>2025-09-09T09:33:09Z</time>
      </trkpt>
      <trkpt lat="45.99084" lon="4.41504">
        <ele>831.4</ele>
        <time>2025-09-09T09:33:10Z</time>
      </trkpt>
      <trkpt lat="45.99083" lon="4.41503">
        <ele>831.8</ele>
        <time>2025-09-09T09:33:11Z</time>
      </trkpt>
      <trkpt lat="45.99083" lon="4.41503">
        <ele>831.8</ele>
        <time>2025-09-09T09:33:12Z</time>
      </trkpt>
      <trkpt lat="45.99082" lon="4.41503">
        <ele>831.8</ele>
        <time>2025-09-09T09:33:13Z</time>
      </trkpt>
      <trkpt lat="45.99081" lon="4.41502">
        <ele>832</ele>
        <time>2025-09-09T09:33:14Z</time>
      </trkpt>
      <trkpt lat="45.9908" lon="4.41501">
        <ele>832</ele>
        <time>2025-09-09T09:33:15Z</time>
      </trkpt>
      <trkpt lat="45.9908" lon="4.41501">
        <ele>832.2</ele>
        <time>2025-09-09T09:33:16Z</time>
      </trkpt>
      <trkpt lat="45.99079" lon="4.41501">
        <ele>832.2</ele>
        <time>2025-09-09T09:33:17Z</time>
      </trkpt>
      <trkpt lat="45.99078" lon="4.415">
        <ele>832.2</ele>
        <time>2025-09-09T09:33:18Z</time>
      </trkpt>
      <trkpt lat="45.99077" lon="4.415">
        <ele>832.6</ele>
        <time>2025-09-09T09:33:19Z</time>
      </trkpt>
      <trkpt lat="45.99077" lon="4.41499">
        <ele>832.6</ele>
        <time>2025-09-09T09:33:20Z</time>
      </trkpt>
      <trkpt lat="45.99077" lon="4.41498">
        <ele>832.8</ele>
        <time>2025-09-09T09:33:21Z</time>
      </trkpt>
      <trkpt lat="45.99077" lon="4.41497">
        <ele>832.8</ele>
        <time>2025-09-09T09:33:22Z</time>
      </trkpt>
      <trkpt lat="45.99076" lon="4.41496">
        <ele>833</ele>
        <time>2025-09-09T09:33:23Z</time>
      </trkpt>
      <trkpt lat="45.99075" lon="4.41495">
        <ele>833.2</ele>
        <time>2025-09-09T09:33:24Z</time>
      </trkpt>
      <trkpt lat="45.99074" lon="4.41494">
        <ele>833.2</ele>
        <time>2025-09-09T09:33:25Z</time>
      </trkpt>
      <trkpt lat="45.99074" lon="4.41493">
        <ele>833.2</ele>
        <time>2025-09-09T09:33:26Z</time>
      </trkpt>
      <trkpt lat="45.99073" lon="4.41493">
        <ele>833.6</ele>
        <time>2025-09-09T09:33:27Z</time>
      </trkpt>
      <trkpt lat="45.99072" lon="4.41492">
        <ele>833.6</ele>
        <time>2025-09-09T09:33:28Z</time>
      </trkpt>
      <trkpt lat="45.9907" lon="4.41491">
        <ele>833.8</ele>
        <time>2025-09-09T09:33:29Z</time>
      </trkpt>
      <trkpt lat="45.99069" lon="4.4149">
        <ele>833.8</ele>
        <time>2025-09-09T09:33:30Z</time>
      </trkpt>
      <trkpt lat="45.99068" lon="4.4149">
        <ele>833.8</ele>
        <time>2025-09-09T09:33:31Z</time>
      </trkpt>
      <trkpt lat="45.99067" lon="4.41489">
        <ele>833.8</ele>
        <time>2025-09-09T09:33:32Z</time>
      </trkpt>
      <trkpt lat="45.99066" lon="4.41488">
        <ele>833.8</ele>
        <time>2025-09-09T09:33:33Z</time>
      </trkpt>
      <trkpt lat="45.99065" lon="4.41487">
        <ele>834.2</ele>
        <time>2025-09-09T09:33:34Z</time>
      </trkpt>
      <trkpt lat="45.99065" lon="4.41486">
        <ele>834.2</ele>
        <time>2025-09-09T09:33:35Z</time>
      </trkpt>
      <trkpt lat="45.99064" lon="4.41485">
        <ele>834.2</ele>
        <time>2025-09-09T09:33:36Z</time>
      </trkpt>
      <trkpt lat="45.99063" lon="4.41485">
        <ele>834.4</ele>
        <time>2025-09-09T09:33:37Z</time>
      </trkpt>
      <trkpt lat="45.99062" lon="4.41484">
        <ele>834.4</ele>
        <time>2025-09-09T09:33:38Z</time>
      </trkpt>
      <trkpt lat="45.99061" lon="4.41484">
        <ele>834.4</ele>
        <time>2025-09-09T09:33:39Z</time>
      </trkpt>
      <trkpt lat="45.99061" lon="4.41485">
        <ele>834.4</ele>
        <time>2025-09-09T09:33:40Z</time>
      </trkpt>
      <trkpt lat="45.9906" lon="4.41484">
        <ele>834.2</ele>
        <time>2025-09-09T09:33:56Z</time>
      </trkpt>
      <trkpt lat="45.9906" lon="4.41483">
        <ele>834.2</ele>
        <time>2025-09-09T09:33:57Z</time>
      </trkpt>
      <trkpt lat="45.99059" lon="4.41481">
        <ele>834.2</ele>
        <time>2025-09-09T09:33:58Z</time>
      </trkpt>
      <trkpt lat="45.99059" lon="4.4148">
        <ele>834.6</ele>
        <time>2025-09-09T09:33:59Z</time>
      </trkpt>
      <trkpt lat="45.99058" lon="4.41479">
        <ele>834.6</ele>
        <time>2025-09-09T09:34:00Z</time>
      </trkpt>
      <trkpt lat="45.99057" lon="4.41477">
        <ele>835</ele>
        <time>2025-09-09T09:34:01Z</time>
      </trkpt>
      <trkpt lat="45.99057" lon="4.41476">
        <ele>834.6</ele>
        <time>2025-09-09T09:34:02Z</time>
      </trkpt>
      <trkpt lat="45.99056" lon="4.41475">
        <ele>834.6</ele>
        <time>2025-09-09T09:34:03Z</time>
      </trkpt>
      <trkpt lat="45.99056" lon="4.41474">
        <ele>835</ele>
        <time>2025-09-09T09:34:04Z</time>
      </trkpt>
      <trkpt lat="45.99055" lon="4.41472">
        <ele>835</ele>
        <time>2025-09-09T09:34:05Z</time>
      </trkpt>
      <trkpt lat="45.99054" lon="4.41472">
        <ele>835</ele>
        <time>2025-09-09T09:34:06Z</time>
      </trkpt>
      <trkpt lat="45.99054" lon="4.4147">
        <ele>835.2</ele>
        <time>2025-09-09T09:34:07Z</time>
      </trkpt>
      <trkpt lat="45.99053" lon="4.41468">
        <ele>835.2</ele>
        <time>2025-09-09T09:34:08Z</time>
      </trkpt>
      <trkpt lat="45.99052" lon="4.41468">
        <ele>835.6</ele>
        <time>2025-09-09T09:34:09Z</time>
      </trkpt>
      <trkpt lat="45.99051" lon="4.41468">
        <ele>835.6</ele>
        <time>2025-09-09T09:34:10Z</time>
      </trkpt>
      <trkpt lat="45.9905" lon="4.41468">
        <ele>836</ele>
        <time>2025-09-09T09:34:11Z</time>
      </trkpt>
      <trkpt lat="45.99049" lon="4.41468">
        <ele>836.2</ele>
        <time>2025-09-09T09:34:12Z</time>
      </trkpt>
      <trkpt lat="45.99048" lon="4.41468">
        <ele>836.4</ele>
        <time>2025-09-09T09:34:13Z</time>
      </trkpt>
      <trkpt lat="45.99047" lon="4.41468">
        <ele>836.4</ele>
        <time>2025-09-09T09:34:14Z</time>
      </trkpt>
      <trkpt lat="45.99046" lon="4.41468">
        <ele>836.4</ele>
        <time>2025-09-09T09:34:15Z</time>
      </trkpt>
      <trkpt lat="45.99045" lon="4.41467">
        <ele>836.4</ele>
        <time>2025-09-09T09:34:16Z</time>
      </trkpt>
      <trkpt lat="45.99045" lon="4.41465">
        <ele>836.6</ele>
        <time>2025-09-09T09:34:17Z</time>
      </trkpt>
      <trkpt lat="45.99044" lon="4.41463">
        <ele>836.6</ele>
        <time>2025-09-09T09:34:18Z</time>
      </trkpt>
      <trkpt lat="45.99043" lon="4.41462">
        <ele>837</ele>
        <time>2025-09-09T09:34:19Z</time>
      </trkpt>
      <trkpt lat="45.99043" lon="4.4146">
        <ele>837.2</ele>
        <time>2025-09-09T09:34:20Z</time>
      </trkpt>
      <trkpt lat="45.99042" lon="4.41459">
        <ele>837.2</ele>
        <time>2025-09-09T09:34:21Z</time>
      </trkpt>
      <trkpt lat="45.99042" lon="4.41459">
        <ele>837.2</ele>
        <time>2025-09-09T09:34:22Z</time>
      </trkpt>
      <trkpt lat="45.99041" lon="4.41458">
        <ele>837.4</ele>
        <time>2025-09-09T09:34:23Z</time>
      </trkpt>
      <trkpt lat="45.9904" lon="4.41457">
        <ele>837.6</ele>
        <time>2025-09-09T09:34:24Z</time>
      </trkpt>
      <trkpt lat="45.99039" lon="4.41456">
        <ele>837.6</ele>
        <time>2025-09-09T09:34:25Z</time>
      </trkpt>
      <trkpt lat="45.99037" lon="4.41456">
        <ele>837.6</ele>
        <time>2025-09-09T09:34:26Z</time>
      </trkpt>
      <trkpt lat="45.99037" lon="4.41456">
        <ele>837.8</ele>
        <time>2025-09-09T09:34:27Z</time>
      </trkpt>
      <trkpt lat="45.99036" lon="4.41455">
        <ele>837.8</ele>
        <time>2025-09-09T09:34:28Z</time>
      </trkpt>
      <trkpt lat="45.99035" lon="4.41453">
        <ele>837.8</ele>
        <time>2025-09-09T09:34:29Z</time>
      </trkpt>
      <trkpt lat="45.99035" lon="4.41452">
        <ele>837.8</ele>
        <time>2025-09-09T09:34:30Z</time>
      </trkpt>
      <trkpt lat="45.99034" lon="4.41451">
        <ele>838.2</ele>
        <time>2025-09-09T09:34:31Z</time>
      </trkpt>
      <trkpt lat="45.99034" lon="4.41449">
        <ele>838.2</ele>
        <time>2025-09-09T09:34:32Z</time>
      </trkpt>
      <trkpt lat="45.99034" lon="4.41448">
        <ele>838.4</ele>
        <time>2025-09-09T09:34:33Z</time>
      </trkpt>
      <trkpt lat="45.99033" lon="4.41447">
        <ele>838.4</ele>
        <time>2025-09-09T09:34:34Z</time>
      </trkpt>
      <trkpt lat="45.99032" lon="4.41446">
        <ele>838.4</ele>
        <time>2025-09-09T09:34:35Z</time>
      </trkpt>
      <trkpt lat="45.99031" lon="4.41445">
        <ele>838.4</ele>
        <time>2025-09-09T09:34:36Z</time>
      </trkpt>
      <trkpt lat="45.99031" lon="4.41445">
        <ele>838.6</ele>
        <time>2025-09-09T09:34:37Z</time>
      </trkpt>
      <trkpt lat="45.9903" lon="4.41444">
        <ele>838.6</ele>
        <time>2025-09-09T09:34:38Z</time>
      </trkpt>
      <trkpt lat="45.99029" lon="4.41443">
        <ele>838.6</ele>
        <time>2025-09-09T09:34:39Z</time>
      </trkpt>
      <trkpt lat="45.99029" lon="4.41442">
        <ele>838.6</ele>
        <time>2025-09-09T09:34:40Z</time>
      </trkpt>
      <trkpt lat="45.99028" lon="4.41441">
        <ele>838.6</ele>
        <time>2025-09-09T09:34:41Z</time>
      </trkpt>
      <trkpt lat="45.99027" lon="4.4144">
        <ele>838.6</ele>
        <time>2025-09-09T09:34:42Z</time>
      </trkpt>
      <trkpt lat="45.99027" lon="4.4144">
        <ele>839</ele>
        <time>2025-09-09T09:34:43Z</time>
      </trkpt>
      <trkpt lat="45.99027" lon="4.41439">
        <ele>839.2</ele>
        <time>2025-09-09T09:34:44Z</time>
      </trkpt>
      <trkpt lat="45.99026" lon="4.41438">
        <ele>839.2</ele>
        <time>2025-09-09T09:34:45Z</time>
      </trkpt>
      <trkpt lat="45.99026" lon="4.41437">
        <ele>839.2</ele>
        <time>2025-09-09T09:34:46Z</time>
      </trkpt>
      <trkpt lat="45.99025" lon="4.41436">
        <ele>839.6</ele>
        <time>2025-09-09T09:34:47Z</time>
      </trkpt>
      <trkpt lat="45.99024" lon="4.41434">
        <ele>839.6</ele>
        <time>2025-09-09T09:34:48Z</time>
      </trkpt>
      <trkpt lat="45.99023" lon="4.41433">
        <ele>839.8</ele>
        <time>2025-09-09T09:34:49Z</time>
      </trkpt>
      <trkpt lat="45.99022" lon="4.41432">
        <ele>839.8</ele>
        <time>2025-09-09T09:34:50Z</time>
      </trkpt>
      <trkpt lat="45.99022" lon="4.41431">
        <ele>840.4</ele>
        <time>2025-09-09T09:34:51Z</time>
      </trkpt>
      <trkpt lat="45.99021" lon="4.4143">
        <ele>840.4</ele>
        <time>2025-09-09T09:34:52Z</time>
      </trkpt>
      <trkpt lat="45.99021" lon="4.41429">
        <ele>840.8</ele>
        <time>2025-09-09T09:34:53Z</time>
      </trkpt>
      <trkpt lat="45.9902" lon="4.41428">
        <ele>841</ele>
        <time>2025-09-09T09:34:54Z</time>
      </trkpt>
      <trkpt lat="45.9902" lon="4.41427">
        <ele>841.2</ele>
        <time>2025-09-09T09:34:55Z</time>
      </trkpt>
      <trkpt lat="45.99019" lon="4.41425">
        <ele>841.2</ele>
        <time>2025-09-09T09:34:56Z</time>
      </trkpt>
      <trkpt lat="45.99019" lon="4.41424">
        <ele>841.2</ele>
        <time>2025-09-09T09:34:57Z</time>
      </trkpt>
      <trkpt lat="45.99018" lon="4.41423">
        <ele>841.2</ele>
        <time>2025-09-09T09:34:58Z</time>
      </trkpt>
      <trkpt lat="45.99018" lon="4.41422">
        <ele>841.2</ele>
        <time>2025-09-09T09:34:59Z</time>
      </trkpt>
      <trkpt lat="45.99018" lon="4.41421">
        <ele>841.6</ele>
        <time>2025-09-09T09:35:00Z</time>
      </trkpt>
      <trkpt lat="45.99017" lon="4.41421">
        <ele>841.6</ele>
        <time>2025-09-09T09:35:01Z</time>
      </trkpt>
      <trkpt lat="45.99017" lon="4.4142">
        <ele>841.6</ele>
        <time>2025-09-09T09:35:02Z</time>
      </trkpt>
      <trkpt lat="45.99016" lon="4.41419">
        <ele>841.6</ele>
        <time>2025-09-09T09:35:03Z</time>
      </trkpt>
      <trkpt lat="45.99016" lon="4.41419">
        <ele>841.6</ele>
        <time>2025-09-09T09:35:04Z</time>
      </trkpt>
      <trkpt lat="45.99015" lon="4.41418">
        <ele>842</ele>
        <time>2025-09-09T09:35:05Z</time>
      </trkpt>
      <trkpt lat="45.99015" lon="4.41418">
        <ele>842</ele>
        <time>2025-09-09T09:35:06Z</time>
      </trkpt>
      <trkpt lat="45.99014" lon="4.41417">
        <ele>842.2</ele>
        <time>2025-09-09T09:35:07Z</time>
      </trkpt>
      <trkpt lat="45.99013" lon="4.41416">
        <ele>842.2</ele>
        <time>2025-09-09T09:35:08Z</time>
      </trkpt>
      <trkpt lat="45.99012" lon="4.41415">
        <ele>842.2</ele>
        <time>2025-09-09T09:35:09Z</time>
      </trkpt>
      <trkpt lat="45.99012" lon="4.41414">
        <ele>842.4</ele>
        <time>2025-09-09T09:35:10Z</time>
      </trkpt>
      <trkpt lat="45.99011" lon="4.41413">
        <ele>842.4</ele>
        <time>2025-09-09T09:35:11Z</time>
      </trkpt>
      <trkpt lat="45.99011" lon="4.41412">
        <ele>842.8</ele>
        <time>2025-09-09T09:35:12Z</time>
      </trkpt>
      <trkpt lat="45.9901" lon="4.41412">
        <ele>842.8</ele>
        <time>2025-09-09T09:35:13Z</time>
      </trkpt>
      <trkpt lat="45.99009" lon="4.41412">
        <ele>842.8</ele>
        <time>2025-09-09T09:35:14Z</time>
      </trkpt>
      <trkpt lat="45.99007" lon="4.41411">
        <ele>842.8</ele>
        <time>2025-09-09T09:35:24Z</time>
      </trkpt>
      <trkpt lat="45.99007" lon="4.41408">
        <ele>842.8</ele>
        <time>2025-09-09T09:35:25Z</time>
      </trkpt>
      <trkpt lat="45.99007" lon="4.41406">
        <ele>842.8</ele>
        <time>2025-09-09T09:35:26Z</time>
      </trkpt>
      <trkpt lat="45.99006" lon="4.41404">
        <ele>842.8</ele>
        <time>2025-09-09T09:35:27Z</time>
      </trkpt>
      <trkpt lat="45.99006" lon="4.41402">
        <ele>843</ele>
        <time>2025-09-09T09:35:28Z</time>
      </trkpt>
      <trkpt lat="45.99004" lon="4.41401">
        <ele>843.2</ele>
        <time>2025-09-09T09:35:29Z</time>
      </trkpt>
      <trkpt lat="45.99003" lon="4.41399">
        <ele>843.4</ele>
        <time>2025-09-09T09:35:30Z</time>
      </trkpt>
      <trkpt lat="45.99002" lon="4.41397">
        <ele>843.4</ele>
        <time>2025-09-09T09:35:31Z</time>
      </trkpt>
      <trkpt lat="45.99001" lon="4.41396">
        <ele>843.8</ele>
        <time>2025-09-09T09:35:32Z</time>
      </trkpt>
      <trkpt lat="45.99001" lon="4.41395">
        <ele>843.8</ele>
        <time>2025-09-09T09:35:33Z</time>
      </trkpt>
      <trkpt lat="45.99" lon="4.41394">
        <ele>844</ele>
        <time>2025-09-09T09:35:34Z</time>
      </trkpt>
      <trkpt lat="45.98999" lon="4.41393">
        <ele>844</ele>
        <time>2025-09-09T09:35:35Z</time>
      </trkpt>
      <trkpt lat="45.98998" lon="4.41393">
        <ele>844.2</ele>
        <time>2025-09-09T09:35:36Z</time>
      </trkpt>
      <trkpt lat="45.98997" lon="4.41392">
        <ele>844.6</ele>
        <time>2025-09-09T09:35:37Z</time>
      </trkpt>
      <trkpt lat="45.98995" lon="4.41391">
        <ele>844.6</ele>
        <time>2025-09-09T09:35:38Z</time>
      </trkpt>
      <trkpt lat="45.98994" lon="4.41389">
        <ele>845</ele>
        <time>2025-09-09T09:35:39Z</time>
      </trkpt>
      <trkpt lat="45.98993" lon="4.41388">
        <ele>844.8</ele>
        <time>2025-09-09T09:35:40Z</time>
      </trkpt>
      <trkpt lat="45.98991" lon="4.41387">
        <ele>845.2</ele>
        <time>2025-09-09T09:35:41Z</time>
      </trkpt>
      <trkpt lat="45.9899" lon="4.41386">
        <ele>845.2</ele>
        <time>2025-09-09T09:35:42Z</time>
      </trkpt>
      <trkpt lat="45.98989" lon="4.41385">
        <ele>845.2</ele>
        <time>2025-09-09T09:35:43Z</time>
      </trkpt>
      <trkpt lat="45.98988" lon="4.41385">
        <ele>845.6</ele>
        <time>2025-09-09T09:35:44Z</time>
      </trkpt>
      <trkpt lat="45.98986" lon="4.41385">
        <ele>845.6</ele>
        <time>2025-09-09T09:35:45Z</time>
      </trkpt>
      <trkpt lat="45.98985" lon="4.41385">
        <ele>846</ele>
        <time>2025-09-09T09:35:46Z</time>
      </trkpt>
      <trkpt lat="45.98984" lon="4.41384">
        <ele>846</ele>
        <time>2025-09-09T09:35:47Z</time>
      </trkpt>
      <trkpt lat="45.98983" lon="4.41383">
        <ele>846.4</ele>
        <time>2025-09-09T09:35:48Z</time>
      </trkpt>
      <trkpt lat="45.98982" lon="4.41382">
        <ele>846.4</ele>
        <time>2025-09-09T09:35:49Z</time>
      </trkpt>
      <trkpt lat="45.98981" lon="4.41381">
        <ele>846.4</ele>
        <time>2025-09-09T09:35:50Z</time>
      </trkpt>
      <trkpt lat="45.9898" lon="4.41379">
        <ele>846.6</ele>
        <time>2025-09-09T09:35:51Z</time>
      </trkpt>
      <trkpt lat="45.98979" lon="4.41379">
        <ele>846.6</ele>
        <time>2025-09-09T09:35:52Z</time>
      </trkpt>
      <trkpt lat="45.98978" lon="4.41378">
        <ele>846.6</ele>
        <time>2025-09-09T09:35:53Z</time>
      </trkpt>
      <trkpt lat="45.98976" lon="4.41378">
        <ele>846.8</ele>
        <time>2025-09-09T09:35:54Z</time>
      </trkpt>
      <trkpt lat="45.98975" lon="4.41378">
        <ele>846.8</ele>
        <time>2025-09-09T09:35:55Z</time>
      </trkpt>
      <trkpt lat="45.98974" lon="4.41377">
        <ele>847.2</ele>
        <time>2025-09-09T09:35:56Z</time>
      </trkpt>
      <trkpt lat="45.98973" lon="4.41376">
        <ele>847.2</ele>
        <time>2025-09-09T09:35:57Z</time>
      </trkpt>
      <trkpt lat="45.98971" lon="4.41375">
        <ele>847.6</ele>
        <time>2025-09-09T09:35:58Z</time>
      </trkpt>
      <trkpt lat="45.9897" lon="4.41375">
        <ele>847.8</ele>
        <time>2025-09-09T09:35:59Z</time>
      </trkpt>
      <trkpt lat="45.98969" lon="4.41374">
        <ele>847.8</ele>
        <time>2025-09-09T09:36:00Z</time>
      </trkpt>
      <trkpt lat="45.98968" lon="4.41374">
        <ele>847.8</ele>
        <time>2025-09-09T09:36:01Z</time>
      </trkpt>
      <trkpt lat="45.98967" lon="4.41373">
        <ele>848.2</ele>
        <time>2025-09-09T09:36:02Z</time>
      </trkpt>
      <trkpt lat="45.98965" lon="4.41373">
        <ele>848.4</ele>
        <time>2025-09-09T09:36:03Z</time>
      </trkpt>
      <trkpt lat="45.98964" lon="4.41372">
        <ele>848.8</ele>
        <time>2025-09-09T09:36:04Z</time>
      </trkpt>
      <trkpt lat="45.98963" lon="4.41371">
        <ele>848.8</ele>
        <time>2025-09-09T09:36:05Z</time>
      </trkpt>
      <trkpt lat="45.98962" lon="4.41371">
        <ele>848.8</ele>
        <time>2025-09-09T09:36:06Z</time>
      </trkpt>
      <trkpt lat="45.98961" lon="4.4137">
        <ele>848.8</ele>
        <time>2025-09-09T09:36:07Z</time>
      </trkpt>
      <trkpt lat="45.9896" lon="4.41369">
        <ele>849</ele>
        <time>2025-09-09T09:36:08Z</time>
      </trkpt>
      <trkpt lat="45.9896" lon="4.41368">
        <ele>849</ele>
        <time>2025-09-09T09:36:09Z</time>
      </trkpt>
      <trkpt lat="45.98959" lon="4.41367">
        <ele>849.4</ele>
        <time>2025-09-09T09:36:10Z</time>
      </trkpt>
      <trkpt lat="45.98958" lon="4.41365">
        <ele>849.4</ele>
        <time>2025-09-09T09:36:11Z</time>
      </trkpt>
      <trkpt lat="45.98957" lon="4.41364">
        <ele>849.4</ele>
        <time>2025-09-09T09:36:12Z</time>
      </trkpt>
      <trkpt lat="45.98957" lon="4.41362">
        <ele>849.6</ele>
        <time>2025-09-09T09:36:13Z</time>
      </trkpt>
      <trkpt lat="45.98956" lon="4.41359">
        <ele>849.6</ele>
        <time>2025-09-09T09:36:14Z</time>
      </trkpt>
      <trkpt lat="45.98955" lon="4.41358">
        <ele>850</ele>
        <time>2025-09-09T09:36:15Z</time>
      </trkpt>
      <trkpt lat="45.98954" lon="4.41356">
        <ele>850</ele>
        <time>2025-09-09T09:36:16Z</time>
      </trkpt>
      <trkpt lat="45.98952" lon="4.41355">
        <ele>850</ele>
        <time>2025-09-09T09:36:17Z</time>
      </trkpt>
      <trkpt lat="45.98951" lon="4.41355">
        <ele>850.2</ele>
        <time>2025-09-09T09:36:18Z</time>
      </trkpt>
      <trkpt lat="45.9895" lon="4.41355">
        <ele>850.2</ele>
        <time>2025-09-09T09:36:19Z</time>
      </trkpt>
      <trkpt lat="45.98948" lon="4.41354">
        <ele>850.2</ele>
        <time>2025-09-09T09:36:20Z</time>
      </trkpt>
      <trkpt lat="45.98946" lon="4.41353">
        <ele>850.2</ele>
        <time>2025-09-09T09:36:21Z</time>
      </trkpt>
      <trkpt lat="45.98945" lon="4.41352">
        <ele>850.2</ele>
        <time>2025-09-09T09:36:22Z</time>
      </trkpt>
      <trkpt lat="45.98943" lon="4.41351">
        <ele>850.6</ele>
        <time>2025-09-09T09:36:23Z</time>
      </trkpt>
      <trkpt lat="45.98942" lon="4.4135">
        <ele>850.6</ele>
        <time>2025-09-09T09:36:24Z</time>
      </trkpt>
      <trkpt lat="45.98941" lon="4.41348">
        <ele>851</ele>
        <time>2025-09-09T09:36:25Z</time>
      </trkpt>
      <trkpt lat="45.98939" lon="4.41346">
        <ele>851</ele>
        <time>2025-09-09T09:36:26Z</time>
      </trkpt>
      <trkpt lat="45.98938" lon="4.41344">
        <ele>851</ele>
        <time>2025-09-09T09:36:27Z</time>
      </trkpt>
      <trkpt lat="45.98937" lon="4.41343">
        <ele>851.2</ele>
        <time>2025-09-09T09:36:28Z</time>
      </trkpt>
      <trkpt lat="45.98936" lon="4.41342">
        <ele>851.2</ele>
        <time>2025-09-09T09:36:29Z</time>
      </trkpt>
      <trkpt lat="45.98936" lon="4.41341">
        <ele>851.2</ele>
        <time>2025-09-09T09:36:30Z</time>
      </trkpt>
      <trkpt lat="45.98935" lon="4.4134">
        <ele>851.2</ele>
        <time>2025-09-09T09:36:31Z</time>
      </trkpt>
      <trkpt lat="45.98935" lon="4.41339">
        <ele>851.2</ele>
        <time>2025-09-09T09:36:32Z</time>
      </trkpt>
      <trkpt lat="45.98935" lon="4.41338">
        <ele>851.2</ele>
        <time>2025-09-09T09:36:33Z</time>
      </trkpt>
      <trkpt lat="45.98936" lon="4.41339">
        <ele>851.2</ele>
        <time>2025-09-09T09:36:34Z</time>
      </trkpt>
      <trkpt lat="45.98941" lon="4.41339">
        <ele>851.6</ele>
        <time>2025-09-09T09:37:10Z</time>
      </trkpt>
      <trkpt lat="45.98941" lon="4.41338">
        <ele>851.6</ele>
        <time>2025-09-09T09:37:11Z</time>
      </trkpt>
      <trkpt lat="45.9894" lon="4.41337">
        <ele>851.6</ele>
        <time>2025-09-09T09:37:12Z</time>
      </trkpt>
      <trkpt lat="45.98939" lon="4.41335">
        <ele>851.6</ele>
        <time>2025-09-09T09:37:13Z</time>
      </trkpt>
      <trkpt lat="45.98939" lon="4.41334">
        <ele>851.6</ele>
        <time>2025-09-09T09:37:14Z</time>
      </trkpt>
      <trkpt lat="45.98938" lon="4.41334">
        <ele>851.6</ele>
        <time>2025-09-09T09:37:15Z</time>
      </trkpt>
      <trkpt lat="45.98938" lon="4.41333">
        <ele>851.6</ele>
        <time>2025-09-09T09:37:16Z</time>
      </trkpt>
      <trkpt lat="45.98938" lon="4.41333">
        <ele>851.6</ele>
        <time>2025-09-09T09:37:17Z</time>
      </trkpt>
      <trkpt lat="45.98936" lon="4.4133">
        <ele>851.8</ele>
        <time>2025-09-09T09:38:01Z</time>
      </trkpt>
      <trkpt lat="45.98935" lon="4.41328">
        <ele>851.8</ele>
        <time>2025-09-09T09:38:02Z</time>
      </trkpt>
      <trkpt lat="45.98935" lon="4.41326">
        <ele>851.8</ele>
        <time>2025-09-09T09:38:03Z</time>
      </trkpt>
      <trkpt lat="45.98934" lon="4.41324">
        <ele>851.8</ele>
        <time>2025-09-09T09:38:04Z</time>
      </trkpt>
      <trkpt lat="45.98934" lon="4.41322">
        <ele>851.8</ele>
        <time>2025-09-09T09:38:05Z</time>
      </trkpt>
      <trkpt lat="45.98934" lon="4.41319">
        <ele>852</ele>
        <time>2025-09-09T09:38:06Z</time>
      </trkpt>
      <trkpt lat="45.98933" lon="4.41316">
        <ele>852</ele>
        <time>2025-09-09T09:38:07Z</time>
      </trkpt>
      <trkpt lat="45.98933" lon="4.41313">
        <ele>852</ele>
        <time>2025-09-09T09:38:08Z</time>
      </trkpt>
      <trkpt lat="45.98932" lon="4.41311">
        <ele>852.4</ele>
        <time>2025-09-09T09:38:09Z</time>
      </trkpt>
      <trkpt lat="45.98932" lon="4.4131">
        <ele>852.4</ele>
        <time>2025-09-09T09:38:10Z</time>
      </trkpt>
      <trkpt lat="45.98931" lon="4.41308">
        <ele>852.4</ele>
        <time>2025-09-09T09:38:11Z</time>
      </trkpt>
      <trkpt lat="45.9893" lon="4.41306">
        <ele>852.4</ele>
        <time>2025-09-09T09:38:12Z</time>
      </trkpt>
      <trkpt lat="45.98929" lon="4.41305">
        <ele>852.4</ele>
        <time>2025-09-09T09:38:13Z</time>
      </trkpt>
      <trkpt lat="45.98928" lon="4.41302">
        <ele>852.6</ele>
        <time>2025-09-09T09:38:14Z</time>
      </trkpt>
      <trkpt lat="45.98927" lon="4.41301">
        <ele>852.8</ele>
        <time>2025-09-09T09:38:15Z</time>
      </trkpt>
      <trkpt lat="45.98927" lon="4.41299">
        <ele>852.8</ele>
        <time>2025-09-09T09:38:16Z</time>
      </trkpt>
      <trkpt lat="45.98925" lon="4.41297">
        <ele>853.4</ele>
        <time>2025-09-09T09:38:17Z</time>
      </trkpt>
      <trkpt lat="45.98925" lon="4.41295">
        <ele>853.4</ele>
        <time>2025-09-09T09:38:18Z</time>
      </trkpt>
      <trkpt lat="45.98925" lon="4.41293">
        <ele>853.6</ele>
        <time>2025-09-09T09:38:19Z</time>
      </trkpt>
      <trkpt lat="45.98925" lon="4.41291">
        <ele>853.6</ele>
        <time>2025-09-09T09:38:20Z</time>
      </trkpt>
      <trkpt lat="45.98924" lon="4.41288">
        <ele>853.6</ele>
        <time>2025-09-09T09:38:21Z</time>
      </trkpt>
      <trkpt lat="45.98924" lon="4.41285">
        <ele>853.6</ele>
        <time>2025-09-09T09:38:22Z</time>
      </trkpt>
      <trkpt lat="45.98924" lon="4.41283">
        <ele>853.6</ele>
        <time>2025-09-09T09:38:23Z</time>
      </trkpt>
      <trkpt lat="45.98924" lon="4.41279">
        <ele>853.6</ele>
        <time>2025-09-09T09:38:24Z</time>
      </trkpt>
      <trkpt lat="45.98924" lon="4.41276">
        <ele>853.8</ele>
        <time>2025-09-09T09:38:25Z</time>
      </trkpt>
      <trkpt lat="45.98924" lon="4.41274">
        <ele>853.8</ele>
        <time>2025-09-09T09:38:26Z</time>
      </trkpt>
      <trkpt lat="45.98923" lon="4.41272">
        <ele>853.8</ele>
        <time>2025-09-09T09:38:27Z</time>
      </trkpt>
      <trkpt lat="45.98923" lon="4.41269">
        <ele>853.8</ele>
        <time>2025-09-09T09:38:28Z</time>
      </trkpt>
      <trkpt lat="45.98922" lon="4.41266">
        <ele>854.2</ele>
        <time>2025-09-09T09:38:29Z</time>
      </trkpt>
      <trkpt lat="45.98921" lon="4.41265">
        <ele>854.2</ele>
        <time>2025-09-09T09:38:30Z</time>
      </trkpt>
      <trkpt lat="45.9892" lon="4.41263">
        <ele>854.2</ele>
        <time>2025-09-09T09:38:31Z</time>
      </trkpt>
      <trkpt lat="45.9892" lon="4.4126">
        <ele>854.2</ele>
        <time>2025-09-09T09:38:32Z</time>
      </trkpt>
      <trkpt lat="45.98919" lon="4.41257">
        <ele>854.4</ele>
        <time>2025-09-09T09:38:33Z</time>
      </trkpt>
      <trkpt lat="45.98918" lon="4.41255">
        <ele>854.4</ele>
        <time>2025-09-09T09:38:34Z</time>
      </trkpt>
      <trkpt lat="45.98918" lon="4.41251">
        <ele>854.4</ele>
        <time>2025-09-09T09:38:35Z</time>
      </trkpt>
      <trkpt lat="45.98918" lon="4.41248">
        <ele>854.4</ele>
        <time>2025-09-09T09:38:36Z</time>
      </trkpt>
      <trkpt lat="45.98918" lon="4.41245">
        <ele>854.4</ele>
        <time>2025-09-09T09:38:37Z</time>
      </trkpt>
      <trkpt lat="45.98918" lon="4.41242">
        <ele>854.6</ele>
        <time>2025-09-09T09:38:38Z</time>
      </trkpt>
      <trkpt lat="45.98918" lon="4.41239">
        <ele>854.6</ele>
        <time>2025-09-09T09:38:39Z</time>
      </trkpt>
      <trkpt lat="45.98917" lon="4.41236">
        <ele>854.6</ele>
        <time>2025-09-09T09:38:40Z</time>
      </trkpt>
      <trkpt lat="45.98916" lon="4.41235">
        <ele>854.6</ele>
        <time>2025-09-09T09:38:41Z</time>
      </trkpt>
      <trkpt lat="45.98915" lon="4.41232">
        <ele>854.6</ele>
        <time>2025-09-09T09:38:42Z</time>
      </trkpt>
      <trkpt lat="45.98914" lon="4.41229">
        <ele>854.6</ele>
        <time>2025-09-09T09:38:43Z</time>
      </trkpt>
      <trkpt lat="45.98912" lon="4.41225">
        <ele>855</ele>
        <time>2025-09-09T09:38:44Z</time>
      </trkpt>
      <trkpt lat="45.98911" lon="4.41222">
        <ele>855</ele>
        <time>2025-09-09T09:38:45Z</time>
      </trkpt>
      <trkpt lat="45.9891" lon="4.41219">
        <ele>855.2</ele>
        <time>2025-09-09T09:38:46Z</time>
      </trkpt>
      <trkpt lat="45.98909" lon="4.41216">
        <ele>855.8</ele>
        <time>2025-09-09T09:38:47Z</time>
      </trkpt>
      <trkpt lat="45.98908" lon="4.41213">
        <ele>855.8</ele>
        <time>2025-09-09T09:38:48Z</time>
      </trkpt>
      <trkpt lat="45.98907" lon="4.41211">
        <ele>855.6</ele>
        <time>2025-09-09T09:38:49Z</time>
      </trkpt>
      <trkpt lat="45.98904" lon="4.41208">
        <ele>855.6</ele>
        <time>2025-09-09T09:38:50Z</time>
      </trkpt>
      <trkpt lat="45.98902" lon="4.41204">
        <ele>855.6</ele>
        <time>2025-09-09T09:38:51Z</time>
      </trkpt>
      <trkpt lat="45.98901" lon="4.41202">
        <ele>855.6</ele>
        <time>2025-09-09T09:38:52Z</time>
      </trkpt>
      <trkpt lat="45.989" lon="4.412">
        <ele>855.6</ele>
        <time>2025-09-09T09:38:53Z</time>
      </trkpt>
      <trkpt lat="45.98899" lon="4.41197">
        <ele>855.8</ele>
        <time>2025-09-09T09:38:54Z</time>
      </trkpt>
      <trkpt lat="45.98898" lon="4.41194">
        <ele>855.8</ele>
        <time>2025-09-09T09:38:55Z</time>
      </trkpt>
      <trkpt lat="45.98896" lon="4.4119">
        <ele>855.8</ele>
        <time>2025-09-09T09:38:56Z</time>
      </trkpt>
      <trkpt lat="45.98894" lon="4.41188">
        <ele>855.8</ele>
        <time>2025-09-09T09:38:57Z</time>
      </trkpt>
      <trkpt lat="45.98892" lon="4.41186">
        <ele>855.8</ele>
        <time>2025-09-09T09:38:58Z</time>
      </trkpt>
      <trkpt lat="45.9889" lon="4.41185">
        <ele>855.8</ele>
        <time>2025-09-09T09:38:59Z</time>
      </trkpt>
      <trkpt lat="45.98889" lon="4.41184">
        <ele>856.2</ele>
        <time>2025-09-09T09:39:00Z</time>
      </trkpt>
      <trkpt lat="45.98889" lon="4.41184">
        <ele>856.2</ele>
        <time>2025-09-09T09:39:01Z</time>
      </trkpt>
      <trkpt lat="45.98889" lon="4.41184">
        <ele>856.2</ele>
        <time>2025-09-09T09:39:02Z</time>
      </trkpt>
      <trkpt lat="45.98882" lon="4.41171">
        <ele>856.2</ele>
        <time>2025-09-09T09:39:03Z</time>
      </trkpt>
      <trkpt lat="45.98879" lon="4.41168">
        <ele>856.2</ele>
        <time>2025-09-09T09:39:04Z</time>
      </trkpt>
      <trkpt lat="45.98877" lon="4.41164">
        <ele>856.2</ele>
        <time>2025-09-09T09:39:05Z</time>
      </trkpt>
      <trkpt lat="45.98874" lon="4.41162">
        <ele>856.2</ele>
        <time>2025-09-09T09:39:06Z</time>
      </trkpt>
      <trkpt lat="45.98873" lon="4.41158">
        <ele>856.4</ele>
        <time>2025-09-09T09:39:07Z</time>
      </trkpt>
      <trkpt lat="45.98871" lon="4.41154">
        <ele>856.4</ele>
        <time>2025-09-09T09:39:08Z</time>
      </trkpt>
      <trkpt lat="45.98871" lon="4.41148">
        <ele>856.4</ele>
        <time>2025-09-09T09:39:09Z</time>
      </trkpt>
      <trkpt lat="45.9887" lon="4.41143">
        <ele>856.4</ele>
        <time>2025-09-09T09:39:10Z</time>
      </trkpt>
      <trkpt lat="45.98869" lon="4.41138">
        <ele>856.6</ele>
        <time>2025-09-09T09:39:11Z</time>
      </trkpt>
      <trkpt lat="45.98868" lon="4.41134">
        <ele>856.6</ele>
        <time>2025-09-09T09:39:12Z</time>
      </trkpt>
      <trkpt lat="45.98867" lon="4.41131">
        <ele>856.6</ele>
        <time>2025-09-09T09:39:13Z</time>
      </trkpt>
      <trkpt lat="45.98865" lon="4.41127">
        <ele>856.6</ele>
        <time>2025-09-09T09:39:14Z</time>
      </trkpt>
      <trkpt lat="45.98863" lon="4.41123">
        <ele>856.6</ele>
        <time>2025-09-09T09:39:15Z</time>
      </trkpt>
      <trkpt lat="45.98862" lon="4.41119">
        <ele>856.6</ele>
        <time>2025-09-09T09:39:16Z</time>
      </trkpt>
      <trkpt lat="45.98861" lon="4.41115">
        <ele>856.6</ele>
        <time>2025-09-09T09:39:17Z</time>
      </trkpt>
      <trkpt lat="45.9886" lon="4.41112">
        <ele>857</ele>
        <time>2025-09-09T09:39:18Z</time>
      </trkpt>
      <trkpt lat="45.98859" lon="4.41108">
        <ele>857</ele>
        <time>2025-09-09T09:39:19Z</time>
      </trkpt>
      <trkpt lat="45.98857" lon="4.41104">
        <ele>857</ele>
        <time>2025-09-09T09:39:20Z</time>
      </trkpt>
      <trkpt lat="45.98855" lon="4.41101">
        <ele>857</ele>
        <time>2025-09-09T09:39:21Z</time>
      </trkpt>
      <trkpt lat="45.98854" lon="4.41098">
        <ele>857</ele>
        <time>2025-09-09T09:39:22Z</time>
      </trkpt>
      <trkpt lat="45.98852" lon="4.41095">
        <ele>857</ele>
        <time>2025-09-09T09:39:23Z</time>
      </trkpt>
      <trkpt lat="45.9885" lon="4.41093">
        <ele>857.2</ele>
        <time>2025-09-09T09:39:24Z</time>
      </trkpt>
      <trkpt lat="45.98848" lon="4.41092">
        <ele>857.2</ele>
        <time>2025-09-09T09:39:25Z</time>
      </trkpt>
      <trkpt lat="45.98847" lon="4.4109">
        <ele>857.6</ele>
        <time>2025-09-09T09:39:26Z</time>
      </trkpt>
      <trkpt lat="45.98845" lon="4.41088">
        <ele>857.6</ele>
        <time>2025-09-09T09:39:27Z</time>
      </trkpt>
      <trkpt lat="45.98843" lon="4.41086">
        <ele>857.8</ele>
        <time>2025-09-09T09:39:28Z</time>
      </trkpt>
      <trkpt lat="45.98842" lon="4.41083">
        <ele>857.8</ele>
        <time>2025-09-09T09:39:29Z</time>
      </trkpt>
      <trkpt lat="45.98841" lon="4.41079">
        <ele>857.6</ele>
        <time>2025-09-09T09:39:30Z</time>
      </trkpt>
      <trkpt lat="45.9884" lon="4.41076">
        <ele>857.8</ele>
        <time>2025-09-09T09:39:31Z</time>
      </trkpt>
      <trkpt lat="45.9884" lon="4.41072">
        <ele>857.8</ele>
        <time>2025-09-09T09:39:32Z</time>
      </trkpt>
      <trkpt lat="45.9884" lon="4.41069">
        <ele>858.2</ele>
        <time>2025-09-09T09:39:33Z</time>
      </trkpt>
      <trkpt lat="45.9884" lon="4.41066">
        <ele>858.2</ele>
        <time>2025-09-09T09:39:34Z</time>
      </trkpt>
      <trkpt lat="45.98839" lon="4.41064">
        <ele>858.4</ele>
        <time>2025-09-09T09:39:35Z</time>
      </trkpt>
      <trkpt lat="45.98837" lon="4.41062">
        <ele>858.4</ele>
        <time>2025-09-09T09:39:36Z</time>
      </trkpt>
      <trkpt lat="45.98837" lon="4.41062">
        <ele>858.4</ele>
        <time>2025-09-09T09:39:37Z</time>
      </trkpt>
      <trkpt lat="45.98836" lon="4.4106">
        <ele>858.4</ele>
        <time>2025-09-09T09:39:38Z</time>
      </trkpt>
      <trkpt lat="45.98835" lon="4.41058">
        <ele>858.8</ele>
        <time>2025-09-09T09:39:39Z</time>
      </trkpt>
      <trkpt lat="45.98834" lon="4.41057">
        <ele>859.4</ele>
        <time>2025-09-09T09:39:40Z</time>
      </trkpt>
      <trkpt lat="45.98832" lon="4.41056">
        <ele>859.4</ele>
        <time>2025-09-09T09:39:41Z</time>
      </trkpt>
      <trkpt lat="45.9883" lon="4.41055">
        <ele>859.4</ele>
        <time>2025-09-09T09:39:42Z</time>
      </trkpt>
      <trkpt lat="45.98828" lon="4.41054">
        <ele>859.6</ele>
        <time>2025-09-09T09:39:43Z</time>
      </trkpt>
      <trkpt lat="45.98826" lon="4.41054">
        <ele>859.6</ele>
        <time>2025-09-09T09:39:44Z</time>
      </trkpt>
      <trkpt lat="45.98825" lon="4.41052">
        <ele>859.8</ele>
        <time>2025-09-09T09:39:45Z</time>
      </trkpt>
      <trkpt lat="45.98823" lon="4.41051">
        <ele>859.8</ele>
        <time>2025-09-09T09:39:46Z</time>
      </trkpt>
      <trkpt lat="45.98822" lon="4.41049">
        <ele>859.8</ele>
        <time>2025-09-09T09:39:47Z</time>
      </trkpt>
      <trkpt lat="45.98822" lon="4.41047">
        <ele>859.8</ele>
        <time>2025-09-09T09:39:48Z</time>
      </trkpt>
      <trkpt lat="45.98821" lon="4.41045">
        <ele>860</ele>
        <time>2025-09-09T09:39:49Z</time>
      </trkpt>
      <trkpt lat="45.9882" lon="4.41044">
        <ele>860.4</ele>
        <time>2025-09-09T09:39:50Z</time>
      </trkpt>
      <trkpt lat="45.98819" lon="4.41042">
        <ele>860.4</ele>
        <time>2025-09-09T09:39:51Z</time>
      </trkpt>
      <trkpt lat="45.98818" lon="4.41041">
        <ele>860.4</ele>
        <time>2025-09-09T09:39:52Z</time>
      </trkpt>
      <trkpt lat="45.98817" lon="4.41041">
        <ele>860.6</ele>
        <time>2025-09-09T09:39:53Z</time>
      </trkpt>
      <trkpt lat="45.98815" lon="4.41039">
        <ele>860.6</ele>
        <time>2025-09-09T09:39:54Z</time>
      </trkpt>
      <trkpt lat="45.98814" lon="4.41038">
        <ele>860.6</ele>
        <time>2025-09-09T09:39:55Z</time>
      </trkpt>
      <trkpt lat="45.98812" lon="4.41037">
        <ele>860.8</ele>
        <time>2025-09-09T09:39:56Z</time>
      </trkpt>
      <trkpt lat="45.98811" lon="4.41035">
        <ele>860.8</ele>
        <time>2025-09-09T09:39:57Z</time>
      </trkpt>
      <trkpt lat="45.98809" lon="4.41034">
        <ele>860.8</ele>
        <time>2025-09-09T09:39:58Z</time>
      </trkpt>
      <trkpt lat="45.98808" lon="4.41034">
        <ele>860.8</ele>
        <time>2025-09-09T09:39:59Z</time>
      </trkpt>
      <trkpt lat="45.98807" lon="4.41032">
        <ele>861.2</ele>
        <time>2025-09-09T09:40:00Z</time>
      </trkpt>
      <trkpt lat="45.98806" lon="4.4103">
        <ele>861.2</ele>
        <time>2025-09-09T09:40:01Z</time>
      </trkpt>
      <trkpt lat="45.98805" lon="4.41027">
        <ele>861.2</ele>
        <time>2025-09-09T09:40:02Z</time>
      </trkpt>
      <trkpt lat="45.98804" lon="4.41025">
        <ele>861.2</ele>
        <time>2025-09-09T09:40:03Z</time>
      </trkpt>
      <trkpt lat="45.98802" lon="4.41023">
        <ele>861.2</ele>
        <time>2025-09-09T09:40:04Z</time>
      </trkpt>
      <trkpt lat="45.98801" lon="4.41021">
        <ele>861.6</ele>
        <time>2025-09-09T09:40:05Z</time>
      </trkpt>
      <trkpt lat="45.988" lon="4.41018">
        <ele>861.6</ele>
        <time>2025-09-09T09:40:06Z</time>
      </trkpt>
      <trkpt lat="45.98798" lon="4.41016">
        <ele>861.6</ele>
        <time>2025-09-09T09:40:07Z</time>
      </trkpt>
      <trkpt lat="45.98797" lon="4.41014">
        <ele>861.6</ele>
        <time>2025-09-09T09:40:08Z</time>
      </trkpt>
      <trkpt lat="45.98796" lon="4.41012">
        <ele>861.6</ele>
        <time>2025-09-09T09:40:09Z</time>
      </trkpt>
      <trkpt lat="45.98793" lon="4.4101">
        <ele>861.6</ele>
        <time>2025-09-09T09:40:10Z</time>
      </trkpt>
      <trkpt lat="45.98792" lon="4.41009">
        <ele>861.6</ele>
        <time>2025-09-09T09:40:11Z</time>
      </trkpt>
      <trkpt lat="45.9879" lon="4.41006">
        <ele>861.6</ele>
        <time>2025-09-09T09:40:12Z</time>
      </trkpt>
      <trkpt lat="45.98789" lon="4.41004">
        <ele>861.6</ele>
        <time>2025-09-09T09:40:13Z</time>
      </trkpt>
      <trkpt lat="45.98788" lon="4.41002">
        <ele>861.6</ele>
        <time>2025-09-09T09:40:14Z</time>
      </trkpt>
      <trkpt lat="45.98786" lon="4.41">
        <ele>861.6</ele>
        <time>2025-09-09T09:40:15Z</time>
      </trkpt>
      <trkpt lat="45.98783" lon="4.40998">
        <ele>861.6</ele>
        <time>2025-09-09T09:40:16Z</time>
      </trkpt>
      <trkpt lat="45.98781" lon="4.40996">
        <ele>861.6</ele>
        <time>2025-09-09T09:40:17Z</time>
      </trkpt>
      <trkpt lat="45.98779" lon="4.40994">
        <ele>861.6</ele>
        <time>2025-09-09T09:40:18Z</time>
      </trkpt>
      <trkpt lat="45.98777" lon="4.40991">
        <ele>861.6</ele>
        <time>2025-09-09T09:40:19Z</time>
      </trkpt>
      <trkpt lat="45.98774" lon="4.40989">
        <ele>861.6</ele>
        <time>2025-09-09T09:40:20Z</time>
      </trkpt>
      <trkpt lat="45.98772" lon="4.40986">
        <ele>861.8</ele>
        <time>2025-09-09T09:40:21Z</time>
      </trkpt>
      <trkpt lat="45.9877" lon="4.40984">
        <ele>861.8</ele>
        <time>2025-09-09T09:40:22Z</time>
      </trkpt>
      <trkpt lat="45.98768" lon="4.40982">
        <ele>861.8</ele>
        <time>2025-09-09T09:40:23Z</time>
      </trkpt>
      <trkpt lat="45.98766" lon="4.4098">
        <ele>861.8</ele>
        <time>2025-09-09T09:40:24Z</time>
      </trkpt>
      <trkpt lat="45.98765" lon="4.40977">
        <ele>861.8</ele>
        <time>2025-09-09T09:40:25Z</time>
      </trkpt>
      <trkpt lat="45.98763" lon="4.40973">
        <ele>861.8</ele>
        <time>2025-09-09T09:40:26Z</time>
      </trkpt>
      <trkpt lat="45.98762" lon="4.40971">
        <ele>861.8</ele>
        <time>2025-09-09T09:40:27Z</time>
      </trkpt>
      <trkpt lat="45.9876" lon="4.40968">
        <ele>861.8</ele>
        <time>2025-09-09T09:40:28Z</time>
      </trkpt>
      <trkpt lat="45.98758" lon="4.40966">
        <ele>861.8</ele>
        <time>2025-09-09T09:40:29Z</time>
      </trkpt>
      <trkpt lat="45.98757" lon="4.40963">
        <ele>861.8</ele>
        <time>2025-09-09T09:40:30Z</time>
      </trkpt>
      <trkpt lat="45.98756" lon="4.40962">
        <ele>861.8</ele>
        <time>2025-09-09T09:40:31Z</time>
      </trkpt>
      <trkpt lat="45.98755" lon="4.4096">
        <ele>861.8</ele>
        <time>2025-09-09T09:40:32Z</time>
      </trkpt>
      <trkpt lat="45.98754" lon="4.40958">
        <ele>861.8</ele>
        <time>2025-09-09T09:40:33Z</time>
      </trkpt>
      <trkpt lat="45.98753" lon="4.40956">
        <ele>861.8</ele>
        <time>2025-09-09T09:40:34Z</time>
      </trkpt>
      <trkpt lat="45.98752" lon="4.40953">
        <ele>862.2</ele>
        <time>2025-09-09T09:40:35Z</time>
      </trkpt>
      <trkpt lat="45.98751" lon="4.40951">
        <ele>862.2</ele>
        <time>2025-09-09T09:40:36Z</time>
      </trkpt>
      <trkpt lat="45.9875" lon="4.40949">
        <ele>862.2</ele>
        <time>2025-09-09T09:40:37Z</time>
      </trkpt>
      <trkpt lat="45.98749" lon="4.40948">
        <ele>862.2</ele>
        <time>2025-09-09T09:40:38Z</time>
      </trkpt>
      <trkpt lat="45.98748" lon="4.40947">
        <ele>862.2</ele>
        <time>2025-09-09T09:40:39Z</time>
      </trkpt>
      <trkpt lat="45.98747" lon="4.40946">
        <ele>862.2</ele>
        <time>2025-09-09T09:40:40Z</time>
      </trkpt>
      <trkpt lat="45.98746" lon="4.40946">
        <ele>862.2</ele>
        <time>2025-09-09T09:40:41Z</time>
      </trkpt>
      <trkpt lat="45.98746" lon="4.40945">
        <ele>862.4</ele>
        <time>2025-09-09T09:40:42Z</time>
      </trkpt>
      <trkpt lat="45.98745" lon="4.40945">
        <ele>862.4</ele>
        <time>2025-09-09T09:40:43Z</time>
      </trkpt>
      <trkpt lat="45.98745" lon="4.40946">
        <ele>862.4</ele>
        <time>2025-09-09T09:40:44Z</time>
      </trkpt>
      <trkpt lat="45.98745" lon="4.40947">
        <ele>862.4</ele>
        <time>2025-09-09T09:40:45Z</time>
      </trkpt>
      <trkpt lat="45.98746" lon="4.40947">
        <ele>862.4</ele>
        <time>2025-09-09T09:40:46Z</time>
      </trkpt>
      <trkpt lat="45.98747" lon="4.40946">
        <ele>862.4</ele>
        <time>2025-09-09T09:40:47Z</time>
      </trkpt>
      <trkpt lat="45.98748" lon="4.40947">
        <ele>862.2</ele>
        <time>2025-09-09T09:41:44Z</time>
      </trkpt>
      <trkpt lat="45.98748" lon="4.40946">
        <ele>862.2</ele>
        <time>2025-09-09T09:41:45Z</time>
      </trkpt>
      <trkpt lat="45.98748" lon="4.40945">
        <ele>862</ele>
        <time>2025-09-09T09:41:46Z</time>
      </trkpt>
      <trkpt lat="45.98746" lon="4.40946">
        <ele>862</ele>
        <time>2025-09-09T09:41:47Z</time>
      </trkpt>
      <trkpt lat="45.98746" lon="4.40946">
        <ele>862</ele>
        <time>2025-09-09T09:41:48Z</time>
      </trkpt>
      <trkpt lat="45.98746" lon="4.40945">
        <ele>862</ele>
        <time>2025-09-09T09:41:49Z</time>
      </trkpt>
      <trkpt lat="45.98746" lon="4.40943">
        <ele>862</ele>
        <time>2025-09-09T09:41:50Z</time>
      </trkpt>
      <trkpt lat="45.98746" lon="4.4094">
        <ele>861.8</ele>
        <time>2025-09-09T09:41:51Z</time>
      </trkpt>
      <trkpt lat="45.98745" lon="4.40938">
        <ele>861.8</ele>
        <time>2025-09-09T09:41:52Z</time>
      </trkpt>
      <trkpt lat="45.98744" lon="4.40936">
        <ele>861.8</ele>
        <time>2025-09-09T09:41:53Z</time>
      </trkpt>
      <trkpt lat="45.98742" lon="4.40933">
        <ele>861.8</ele>
        <time>2025-09-09T09:41:54Z</time>
      </trkpt>
      <trkpt lat="45.98742" lon="4.40933">
        <ele>862</ele>
        <time>2025-09-09T09:41:55Z</time>
      </trkpt>
      <trkpt lat="45.98741" lon="4.40931">
        <ele>862</ele>
        <time>2025-09-09T09:41:56Z</time>
      </trkpt>
      <trkpt lat="45.9874" lon="4.40929">
        <ele>862</ele>
        <time>2025-09-09T09:41:57Z</time>
      </trkpt>
      <trkpt lat="45.98738" lon="4.40926">
        <ele>862.4</ele>
        <time>2025-09-09T09:41:58Z</time>
      </trkpt>
      <trkpt lat="45.98736" lon="4.40924">
        <ele>862.4</ele>
        <time>2025-09-09T09:41:59Z</time>
      </trkpt>
      <trkpt lat="45.98734" lon="4.40921">
        <ele>862.6</ele>
        <time>2025-09-09T09:42:00Z</time>
      </trkpt>
      <trkpt lat="45.98731" lon="4.40918">
        <ele>862.6</ele>
        <time>2025-09-09T09:42:01Z</time>
      </trkpt>
      <trkpt lat="45.98729" lon="4.40914">
        <ele>862.8</ele>
        <time>2025-09-09T09:42:02Z</time>
      </trkpt>
      <trkpt lat="45.98726" lon="4.4091">
        <ele>862.8</ele>
        <time>2025-09-09T09:42:03Z</time>
      </trkpt>
      <trkpt lat="45.98724" lon="4.40907">
        <ele>863</ele>
        <time>2025-09-09T09:42:04Z</time>
      </trkpt>
      <trkpt lat="45.98722" lon="4.40904">
        <ele>863</ele>
        <time>2025-09-09T09:42:05Z</time>
      </trkpt>
      <trkpt lat="45.98719" lon="4.409">
        <ele>863</ele>
        <time>2025-09-09T09:42:06Z</time>
      </trkpt>
      <trkpt lat="45.98717" lon="4.40896">
        <ele>863.2</ele>
        <time>2025-09-09T09:42:07Z</time>
      </trkpt>
      <trkpt lat="45.98716" lon="4.40892">
        <ele>863</ele>
        <time>2025-09-09T09:42:08Z</time>
      </trkpt>
      <trkpt lat="45.98715" lon="4.40889">
        <ele>863.2</ele>
        <time>2025-09-09T09:42:09Z</time>
      </trkpt>
      <trkpt lat="45.98713" lon="4.40887">
        <ele>863.2</ele>
        <time>2025-09-09T09:42:10Z</time>
      </trkpt>
      <trkpt lat="45.98712" lon="4.40884">
        <ele>863.2</ele>
        <time>2025-09-09T09:42:11Z</time>
      </trkpt>
      <trkpt lat="45.9871" lon="4.40881">
        <ele>863.2</ele>
        <time>2025-09-09T09:42:12Z</time>
      </trkpt>
      <trkpt lat="45.98709" lon="4.40878">
        <ele>863.2</ele>
        <time>2025-09-09T09:42:13Z</time>
      </trkpt>
      <trkpt lat="45.98708" lon="4.40875">
        <ele>863.2</ele>
        <time>2025-09-09T09:42:14Z</time>
      </trkpt>
      <trkpt lat="45.98706" lon="4.40872">
        <ele>863.2</ele>
        <time>2025-09-09T09:42:15Z</time>
      </trkpt>
      <trkpt lat="45.98705" lon="4.4087">
        <ele>863.6</ele>
        <time>2025-09-09T09:42:16Z</time>
      </trkpt>
      <trkpt lat="45.98703" lon="4.40866">
        <ele>863.6</ele>
        <time>2025-09-09T09:42:17Z</time>
      </trkpt>
      <trkpt lat="45.98702" lon="4.40863">
        <ele>863.6</ele>
        <time>2025-09-09T09:42:18Z</time>
      </trkpt>
      <trkpt lat="45.98701" lon="4.40859">
        <ele>863.6</ele>
        <time>2025-09-09T09:42:19Z</time>
      </trkpt>
      <trkpt lat="45.987" lon="4.40854">
        <ele>863.6</ele>
        <time>2025-09-09T09:42:20Z</time>
      </trkpt>
      <trkpt lat="45.98698" lon="4.40849">
        <ele>863.8</ele>
        <time>2025-09-09T09:42:21Z</time>
      </trkpt>
      <trkpt lat="45.98697" lon="4.40846">
        <ele>863.8</ele>
        <time>2025-09-09T09:42:22Z</time>
      </trkpt>
      <trkpt lat="45.98695" lon="4.40842">
        <ele>863.8</ele>
        <time>2025-09-09T09:42:23Z</time>
      </trkpt>
      <trkpt lat="45.98693" lon="4.40839">
        <ele>864.2</ele>
        <time>2025-09-09T09:42:24Z</time>
      </trkpt>
      <trkpt lat="45.9869" lon="4.40836">
        <ele>864.2</ele>
        <time>2025-09-09T09:42:25Z</time>
      </trkpt>
      <trkpt lat="45.98688" lon="4.40833">
        <ele>864.2</ele>
        <time>2025-09-09T09:42:26Z</time>
      </trkpt>
      <trkpt lat="45.98687" lon="4.40829">
        <ele>864.4</ele>
        <time>2025-09-09T09:42:27Z</time>
      </trkpt>
      <trkpt lat="45.98685" lon="4.40824">
        <ele>864.6</ele>
        <time>2025-09-09T09:42:28Z</time>
      </trkpt>
      <trkpt lat="45.98682" lon="4.40821">
        <ele>864.6</ele>
        <time>2025-09-09T09:42:29Z</time>
      </trkpt>
      <trkpt lat="45.98679" lon="4.4082">
        <ele>865</ele>
        <time>2025-09-09T09:42:30Z</time>
      </trkpt>
      <trkpt lat="45.98675" lon="4.40819">
        <ele>865.2</ele>
        <time>2025-09-09T09:42:31Z</time>
      </trkpt>
      <trkpt lat="45.98671" lon="4.40817">
        <ele>865.4</ele>
        <time>2025-09-09T09:42:32Z</time>
      </trkpt>
      <trkpt lat="45.98669" lon="4.40814">
        <ele>865.4</ele>
        <time>2025-09-09T09:42:33Z</time>
      </trkpt>
      <trkpt lat="45.98667" lon="4.40811">
        <ele>865.4</ele>
        <time>2025-09-09T09:42:34Z</time>
      </trkpt>
      <trkpt lat="45.98665" lon="4.40808">
        <ele>865.4</ele>
        <time>2025-09-09T09:42:35Z</time>
      </trkpt>
      <trkpt lat="45.98663" lon="4.40805">
        <ele>865.8</ele>
        <time>2025-09-09T09:42:36Z</time>
      </trkpt>
      <trkpt lat="45.98662" lon="4.40802">
        <ele>865.8</ele>
        <time>2025-09-09T09:42:37Z</time>
      </trkpt>
      <trkpt lat="45.9866" lon="4.408">
        <ele>865.8</ele>
        <time>2025-09-09T09:42:38Z</time>
      </trkpt>
      <trkpt lat="45.98659" lon="4.40798">
        <ele>866</ele>
        <time>2025-09-09T09:42:39Z</time>
      </trkpt>
      <trkpt lat="45.98657" lon="4.40794">
        <ele>866</ele>
        <time>2025-09-09T09:42:40Z</time>
      </trkpt>
      <trkpt lat="45.98656" lon="4.4079">
        <ele>866.2</ele>
        <time>2025-09-09T09:42:41Z</time>
      </trkpt>
      <trkpt lat="45.98655" lon="4.40786">
        <ele>866.2</ele>
        <time>2025-09-09T09:42:42Z</time>
      </trkpt>
      <trkpt lat="45.98654" lon="4.40781">
        <ele>866.2</ele>
        <time>2025-09-09T09:42:43Z</time>
      </trkpt>
      <trkpt lat="45.98654" lon="4.40777">
        <ele>866.2</ele>
        <time>2025-09-09T09:42:44Z</time>
      </trkpt>
      <trkpt lat="45.98653" lon="4.40773">
        <ele>866.2</ele>
        <time>2025-09-09T09:42:45Z</time>
      </trkpt>
      <trkpt lat="45.98653" lon="4.40768">
        <ele>866.2</ele>
        <time>2025-09-09T09:42:46Z</time>
      </trkpt>
      <trkpt lat="45.98652" lon="4.40763">
        <ele>866.2</ele>
        <time>2025-09-09T09:42:47Z</time>
      </trkpt>
      <trkpt lat="45.98652" lon="4.40759">
        <ele>866.6</ele>
        <time>2025-09-09T09:42:48Z</time>
      </trkpt>
      <trkpt lat="45.98652" lon="4.40755">
        <ele>866.6</ele>
        <time>2025-09-09T09:42:49Z</time>
      </trkpt>
      <trkpt lat="45.98652" lon="4.40751">
        <ele>866.6</ele>
        <time>2025-09-09T09:42:50Z</time>
      </trkpt>
      <trkpt lat="45.98651" lon="4.40747">
        <ele>866.6</ele>
        <time>2025-09-09T09:42:51Z</time>
      </trkpt>
      <trkpt lat="45.9865" lon="4.40744">
        <ele>866.6</ele>
        <time>2025-09-09T09:42:52Z</time>
      </trkpt>
      <trkpt lat="45.98648" lon="4.40742">
        <ele>866.6</ele>
        <time>2025-09-09T09:42:53Z</time>
      </trkpt>
      <trkpt lat="45.98646" lon="4.40741">
        <ele>866.6</ele>
        <time>2025-09-09T09:42:54Z</time>
      </trkpt>
      <trkpt lat="45.98644" lon="4.4074">
        <ele>866.6</ele>
        <time>2025-09-09T09:42:55Z</time>
      </trkpt>
      <trkpt lat="45.98641" lon="4.40738">
        <ele>866.6</ele>
        <time>2025-09-09T09:42:56Z</time>
      </trkpt>
      <trkpt lat="45.9864" lon="4.40737">
        <ele>866.6</ele>
        <time>2025-09-09T09:42:57Z</time>
      </trkpt>
      <trkpt lat="45.98638" lon="4.40736">
        <ele>866.6</ele>
        <time>2025-09-09T09:42:58Z</time>
      </trkpt>
      <trkpt lat="45.98636" lon="4.40736">
        <ele>866.6</ele>
        <time>2025-09-09T09:42:59Z</time>
      </trkpt>
      <trkpt lat="45.98633" lon="4.40735">
        <ele>866</ele>
        <time>2025-09-09T09:43:00Z</time>
      </trkpt>
      <trkpt lat="45.9863" lon="4.40735">
        <ele>866</ele>
        <time>2025-09-09T09:43:01Z</time>
      </trkpt>
      <trkpt lat="45.98627" lon="4.40736">
        <ele>867</ele>
        <time>2025-09-09T09:43:02Z</time>
      </trkpt>
      <trkpt lat="45.98624" lon="4.40736">
        <ele>866.4</ele>
        <time>2025-09-09T09:43:03Z</time>
      </trkpt>
      <trkpt lat="45.98622" lon="4.40737">
        <ele>866</ele>
        <time>2025-09-09T09:43:04Z</time>
      </trkpt>
      <trkpt lat="45.9862" lon="4.40738">
        <ele>865.2</ele>
        <time>2025-09-09T09:43:05Z</time>
      </trkpt>
      <trkpt lat="45.98617" lon="4.40741">
        <ele>864.6</ele>
        <time>2025-09-09T09:43:06Z</time>
      </trkpt>
      <trkpt lat="45.98615" lon="4.40744">
        <ele>864.2</ele>
        <time>2025-09-09T09:43:07Z</time>
      </trkpt>
      <trkpt lat="45.98613" lon="4.40747">
        <ele>864.2</ele>
        <time>2025-09-09T09:43:08Z</time>
      </trkpt>
      <trkpt lat="45.98612" lon="4.40748">
        <ele>864</ele>
        <time>2025-09-09T09:43:09Z</time>
      </trkpt>
      <trkpt lat="45.98612" lon="4.40749">
        <ele>864</ele>
        <time>2025-09-09T09:43:10Z</time>
      </trkpt>
      <trkpt lat="45.98605" lon="4.40753">
        <ele>864.2</ele>
        <time>2025-09-09T09:43:57Z</time>
      </trkpt>
      <trkpt lat="45.98603" lon="4.40754">
        <ele>864.2</ele>
        <time>2025-09-09T09:43:58Z</time>
      </trkpt>
      <trkpt lat="45.98602" lon="4.40755">
        <ele>863.8</ele>
        <time>2025-09-09T09:43:59Z</time>
      </trkpt>
      <trkpt lat="45.98601" lon="4.40757">
        <ele>863.8</ele>
        <time>2025-09-09T09:44:00Z</time>
      </trkpt>
      <trkpt lat="45.98599" lon="4.40759">
        <ele>863.6</ele>
        <time>2025-09-09T09:44:01Z</time>
      </trkpt>
      <trkpt lat="45.98598" lon="4.40761">
        <ele>863.8</ele>
        <time>2025-09-09T09:44:02Z</time>
      </trkpt>
      <trkpt lat="45.98596" lon="4.40763">
        <ele>863.8</ele>
        <time>2025-09-09T09:44:03Z</time>
      </trkpt>
      <trkpt lat="45.98593" lon="4.40764">
        <ele>863.8</ele>
        <time>2025-09-09T09:44:04Z</time>
      </trkpt>
      <trkpt lat="45.9859" lon="4.40765">
        <ele>863.2</ele>
        <time>2025-09-09T09:44:05Z</time>
      </trkpt>
      <trkpt lat="45.98588" lon="4.40766">
        <ele>863.6</ele>
        <time>2025-09-09T09:44:06Z</time>
      </trkpt>
      <trkpt lat="45.98586" lon="4.40768">
        <ele>863.6</ele>
        <time>2025-09-09T09:44:07Z</time>
      </trkpt>
      <trkpt lat="45.98584" lon="4.4077">
        <ele>863.8</ele>
        <time>2025-09-09T09:44:08Z</time>
      </trkpt>
      <trkpt lat="45.98583" lon="4.40772">
        <ele>863.8</ele>
        <time>2025-09-09T09:44:09Z</time>
      </trkpt>
      <trkpt lat="45.98582" lon="4.40773">
        <ele>864.2</ele>
        <time>2025-09-09T09:44:10Z</time>
      </trkpt>
      <trkpt lat="45.98578" lon="4.40775">
        <ele>863.4</ele>
        <time>2025-09-09T09:44:11Z</time>
      </trkpt>
      <trkpt lat="45.98576" lon="4.40777">
        <ele>863.2</ele>
        <time>2025-09-09T09:44:12Z</time>
      </trkpt>
      <trkpt lat="45.98573" lon="4.40777">
        <ele>863.2</ele>
        <time>2025-09-09T09:44:13Z</time>
      </trkpt>
      <trkpt lat="45.98569" lon="4.40779">
        <ele>863.2</ele>
        <time>2025-09-09T09:44:14Z</time>
      </trkpt>
      <trkpt lat="45.98565" lon="4.40781">
        <ele>863.2</ele>
        <time>2025-09-09T09:44:15Z</time>
      </trkpt>
      <trkpt lat="45.98563" lon="4.40783">
        <ele>863</ele>
        <time>2025-09-09T09:44:16Z</time>
      </trkpt>
      <trkpt lat="45.98561" lon="4.40785">
        <ele>862.4</ele>
        <time>2025-09-09T09:44:17Z</time>
      </trkpt>
      <trkpt lat="45.98559" lon="4.40786">
        <ele>862.2</ele>
        <time>2025-09-09T09:44:18Z</time>
      </trkpt>
      <trkpt lat="45.98558" lon="4.40787">
        <ele>862.2</ele>
        <time>2025-09-09T09:44:19Z</time>
      </trkpt>
      <trkpt lat="45.98557" lon="4.40787">
        <ele>862.2</ele>
        <time>2025-09-09T09:44:20Z</time>
      </trkpt>
      <trkpt lat="45.98555" lon="4.40788">
        <ele>862.4</ele>
        <time>2025-09-09T09:44:42Z</time>
      </trkpt>
      <trkpt lat="45.98556" lon="4.40787">
        <ele>862.4</ele>
        <time>2025-09-09T09:44:43Z</time>
      </trkpt>
      <trkpt lat="45.98558" lon="4.40786">
        <ele>862.8</ele>
        <time>2025-09-09T09:44:44Z</time>
      </trkpt>
      <trkpt lat="45.9856" lon="4.40786">
        <ele>862.8</ele>
        <time>2025-09-09T09:44:45Z</time>
      </trkpt>
      <trkpt lat="45.98562" lon="4.40786">
        <ele>862.8</ele>
        <time>2025-09-09T09:44:46Z</time>
      </trkpt>
      <trkpt lat="45.98564" lon="4.40785">
        <ele>863.2</ele>
        <time>2025-09-09T09:44:47Z</time>
      </trkpt>
      <trkpt lat="45.98566" lon="4.40784">
        <ele>863.4</ele>
        <time>2025-09-09T09:44:48Z</time>
      </trkpt>
      <trkpt lat="45.98567" lon="4.40783">
        <ele>863.4</ele>
        <time>2025-09-09T09:44:49Z</time>
      </trkpt>
      <trkpt lat="45.98568" lon="4.40782">
        <ele>863.4</ele>
        <time>2025-09-09T09:44:50Z</time>
      </trkpt>
      <trkpt lat="45.98569" lon="4.40781">
        <ele>863.4</ele>
        <time>2025-09-09T09:44:51Z</time>
      </trkpt>
      <trkpt lat="45.9857" lon="4.40781">
        <ele>863.6</ele>
        <time>2025-09-09T09:44:52Z</time>
      </trkpt>
      <trkpt lat="45.98571" lon="4.40781">
        <ele>863.6</ele>
        <time>2025-09-09T09:44:53Z</time>
      </trkpt>
      <trkpt lat="45.98572" lon="4.4078">
        <ele>863.6</ele>
        <time>2025-09-09T09:44:54Z</time>
      </trkpt>
      <trkpt lat="45.98573" lon="4.4078">
        <ele>863.6</ele>
        <time>2025-09-09T09:44:55Z</time>
      </trkpt>
      <trkpt lat="45.98574" lon="4.4078">
        <ele>863.6</ele>
        <time>2025-09-09T09:44:56Z</time>
      </trkpt>
      <trkpt lat="45.98575" lon="4.40778">
        <ele>863.8</ele>
        <time>2025-09-09T09:45:01Z</time>
      </trkpt>
      <trkpt lat="45.98576" lon="4.40777">
        <ele>863.8</ele>
        <time>2025-09-09T09:45:02Z</time>
      </trkpt>
      <trkpt lat="45.98578" lon="4.40776">
        <ele>863.8</ele>
        <time>2025-09-09T09:45:03Z</time>
      </trkpt>
      <trkpt lat="45.98579" lon="4.40776">
        <ele>863.8</ele>
        <time>2025-09-09T09:45:04Z</time>
      </trkpt>
      <trkpt lat="45.98581" lon="4.40775">
        <ele>863.8</ele>
        <time>2025-09-09T09:45:05Z</time>
      </trkpt>
      <trkpt lat="45.98582" lon="4.40776">
        <ele>864.2</ele>
        <time>2025-09-09T09:45:06Z</time>
      </trkpt>
      <trkpt lat="45.98584" lon="4.40774">
        <ele>864.2</ele>
        <time>2025-09-09T09:45:07Z</time>
      </trkpt>
      <trkpt lat="45.98587" lon="4.40771">
        <ele>864.2</ele>
        <time>2025-09-09T09:45:08Z</time>
      </trkpt>
      <trkpt lat="45.98589" lon="4.40768">
        <ele>864.2</ele>
        <time>2025-09-09T09:45:09Z</time>
      </trkpt>
      <trkpt lat="45.98591" lon="4.40765">
        <ele>864.2</ele>
        <time>2025-09-09T09:45:10Z</time>
      </trkpt>
      <trkpt lat="45.98593" lon="4.40763">
        <ele>864.2</ele>
        <time>2025-09-09T09:45:11Z</time>
      </trkpt>
      <trkpt lat="45.98595" lon="4.40762">
        <ele>864.2</ele>
        <time>2025-09-09T09:45:12Z</time>
      </trkpt>
      <trkpt lat="45.98597" lon="4.40761">
        <ele>864.2</ele>
        <time>2025-09-09T09:45:13Z</time>
      </trkpt>
      <trkpt lat="45.98598" lon="4.40761">
        <ele>864.2</ele>
        <time>2025-09-09T09:45:14Z</time>
      </trkpt>
      <trkpt lat="45.986" lon="4.4076">
        <ele>864.2</ele>
        <time>2025-09-09T09:45:15Z</time>
      </trkpt>
      <trkpt lat="45.98603" lon="4.40757">
        <ele>864.2</ele>
        <time>2025-09-09T09:45:16Z</time>
      </trkpt>
      <trkpt lat="45.98607" lon="4.40754">
        <ele>864</ele>
        <time>2025-09-09T09:45:17Z</time>
      </trkpt>
      <trkpt lat="45.98609" lon="4.40752">
        <ele>864</ele>
        <time>2025-09-09T09:45:18Z</time>
      </trkpt>
      <trkpt lat="45.98612" lon="4.40749">
        <ele>864</ele>
        <time>2025-09-09T09:45:19Z</time>
      </trkpt>
      <trkpt lat="45.98615" lon="4.40748">
        <ele>864.4</ele>
        <time>2025-09-09T09:45:20Z</time>
      </trkpt>
      <trkpt lat="45.98616" lon="4.40746">
        <ele>864.4</ele>
        <time>2025-09-09T09:45:21Z</time>
      </trkpt>
      <trkpt lat="45.98618" lon="4.40744">
        <ele>864.4</ele>
        <time>2025-09-09T09:45:22Z</time>
      </trkpt>
      <trkpt lat="45.9862" lon="4.40742">
        <ele>864.6</ele>
        <time>2025-09-09T09:45:23Z</time>
      </trkpt>
      <trkpt lat="45.98621" lon="4.4074">
        <ele>864.8</ele>
        <time>2025-09-09T09:45:24Z</time>
      </trkpt>
      <trkpt lat="45.98622" lon="4.40739">
        <ele>865.2</ele>
        <time>2025-09-09T09:45:25Z</time>
      </trkpt>
      <trkpt lat="45.98624" lon="4.40738">
        <ele>865.4</ele>
        <time>2025-09-09T09:45:26Z</time>
      </trkpt>
      <trkpt lat="45.98626" lon="4.40737">
        <ele>865.8</ele>
        <time>2025-09-09T09:45:27Z</time>
      </trkpt>
      <trkpt lat="45.98628" lon="4.40736">
        <ele>866.2</ele>
        <time>2025-09-09T09:45:28Z</time>
      </trkpt>
      <trkpt lat="45.9863" lon="4.40736">
        <ele>866.2</ele>
        <time>2025-09-09T09:45:29Z</time>
      </trkpt>
      <trkpt lat="45.98631" lon="4.40735">
        <ele>866.2</ele>
        <time>2025-09-09T09:45:30Z</time>
      </trkpt>
      <trkpt lat="45.98633" lon="4.40734">
        <ele>866.4</ele>
        <time>2025-09-09T09:45:31Z</time>
      </trkpt>
      <trkpt lat="45.98634" lon="4.40734">
        <ele>866.4</ele>
        <time>2025-09-09T09:45:32Z</time>
      </trkpt>
      <trkpt lat="45.98636" lon="4.40736">
        <ele>866.4</ele>
        <time>2025-09-09T09:45:33Z</time>
      </trkpt>
      <trkpt lat="45.98637" lon="4.40738">
        <ele>866.4</ele>
        <time>2025-09-09T09:45:34Z</time>
      </trkpt>
      <trkpt lat="45.98638" lon="4.4074">
        <ele>866.4</ele>
        <time>2025-09-09T09:45:35Z</time>
      </trkpt>
      <trkpt lat="45.98639" lon="4.40742">
        <ele>866</ele>
        <time>2025-09-09T09:45:36Z</time>
      </trkpt>
      <trkpt lat="45.98641" lon="4.40744">
        <ele>866.2</ele>
        <time>2025-09-09T09:45:37Z</time>
      </trkpt>
      <trkpt lat="45.98642" lon="4.40745">
        <ele>867.6</ele>
        <time>2025-09-09T09:45:38Z</time>
      </trkpt>
      <trkpt lat="45.98643" lon="4.40746">
        <ele>867.6</ele>
        <time>2025-09-09T09:45:39Z</time>
      </trkpt>
      <trkpt lat="45.98646" lon="4.40746">
        <ele>867.6</ele>
        <time>2025-09-09T09:45:40Z</time>
      </trkpt>
      <trkpt lat="45.98648" lon="4.40745">
        <ele>867.6</ele>
        <time>2025-09-09T09:45:41Z</time>
      </trkpt>
      <trkpt lat="45.98649" lon="4.40744">
        <ele>867.6</ele>
        <time>2025-09-09T09:45:42Z</time>
      </trkpt>
      <trkpt lat="45.9865" lon="4.40742">
        <ele>867.4</ele>
        <time>2025-09-09T09:45:43Z</time>
      </trkpt>
      <trkpt lat="45.98651" lon="4.4074">
        <ele>867.4</ele>
        <time>2025-09-09T09:45:44Z</time>
      </trkpt>
      <trkpt lat="45.98651" lon="4.40737">
        <ele>867.4</ele>
        <time>2025-09-09T09:45:45Z</time>
      </trkpt>
      <trkpt lat="45.9865" lon="4.40735">
        <ele>867.2</ele>
        <time>2025-09-09T09:45:46Z</time>
      </trkpt>
      <trkpt lat="45.9865" lon="4.40734">
        <ele>867.2</ele>
        <time>2025-09-09T09:45:47Z</time>
      </trkpt>
      <trkpt lat="45.9865" lon="4.40733">
        <ele>867.2</ele>
        <time>2025-09-09T09:45:48Z</time>
      </trkpt>
      <trkpt lat="45.98649" lon="4.40732">
        <ele>867.2</ele>
        <time>2025-09-09T09:45:51Z</time>
      </trkpt>
      <trkpt lat="45.98649" lon="4.40732">
        <ele>867.2</ele>
        <time>2025-09-09T09:45:52Z</time>
      </trkpt>
      <trkpt lat="45.98649" lon="4.40733">
        <ele>867.2</ele>
        <time>2025-09-09T09:45:59Z</time>
      </trkpt>
      <trkpt lat="45.9865" lon="4.40733">
        <ele>867.2</ele>
        <time>2025-09-09T09:46:00Z</time>
      </trkpt>
      <trkpt lat="45.9865" lon="4.40734">
        <ele>867.2</ele>
        <time>2025-09-09T09:46:01Z</time>
      </trkpt>
      <trkpt lat="45.98651" lon="4.40735">
        <ele>867.2</ele>
        <time>2025-09-09T09:46:02Z</time>
      </trkpt>
      <trkpt lat="45.98651" lon="4.40735">
        <ele>867.2</ele>
        <time>2025-09-09T09:46:03Z</time>
      </trkpt>
      <trkpt lat="45.98648" lon="4.40744">
        <ele>867</ele>
        <time>2025-09-09T09:59:52Z</time>
      </trkpt>
      <trkpt lat="45.98648" lon="4.40743">
        <ele>867.4</ele>
        <time>2025-09-09T09:59:53Z</time>
      </trkpt>
      <trkpt lat="45.98649" lon="4.40743">
        <ele>867.4</ele>
        <time>2025-09-09T09:59:54Z</time>
      </trkpt>
      <trkpt lat="45.98649" lon="4.40742">
        <ele>867.4</ele>
        <time>2025-09-09T09:59:55Z</time>
      </trkpt>
      <trkpt lat="45.9865" lon="4.40741">
        <ele>867.4</ele>
        <time>2025-09-09T09:59:56Z</time>
      </trkpt>
      <trkpt lat="45.9865" lon="4.4074">
        <ele>867.4</ele>
        <time>2025-09-09T09:59:57Z</time>
      </trkpt>
      <trkpt lat="45.9865" lon="4.40739">
        <ele>867.8</ele>
        <time>2025-09-09T09:59:58Z</time>
      </trkpt>
      <trkpt lat="45.9865" lon="4.40739">
        <ele>867.8</ele>
        <time>2025-09-09T09:59:59Z</time>
      </trkpt>
      <trkpt lat="45.9865" lon="4.40736">
        <ele>867.8</ele>
        <time>2025-09-09T10:00:04Z</time>
      </trkpt>
      <trkpt lat="45.9865" lon="4.40733">
        <ele>867.6</ele>
        <time>2025-09-09T10:00:05Z</time>
      </trkpt>
      <trkpt lat="45.9865" lon="4.40732">
        <ele>867.6</ele>
        <time>2025-09-09T10:00:06Z</time>
      </trkpt>
      <trkpt lat="45.98651" lon="4.4073">
        <ele>867.6</ele>
        <time>2025-09-09T10:00:07Z</time>
      </trkpt>
      <trkpt lat="45.98651" lon="4.40728">
        <ele>867.6</ele>
        <time>2025-09-09T10:00:08Z</time>
      </trkpt>
      <trkpt lat="45.9865" lon="4.40726">
        <ele>867.6</ele>
        <time>2025-09-09T10:00:09Z</time>
      </trkpt>
      <trkpt lat="45.98648" lon="4.40723">
        <ele>867.6</ele>
        <time>2025-09-09T10:00:10Z</time>
      </trkpt>
      <trkpt lat="45.98645" lon="4.4072">
        <ele>867.6</ele>
        <time>2025-09-09T10:00:11Z</time>
      </trkpt>
      <trkpt lat="45.98643" lon="4.40719">
        <ele>867</ele>
        <time>2025-09-09T10:00:12Z</time>
      </trkpt>
      <trkpt lat="45.9864" lon="4.40718">
        <ele>867</ele>
        <time>2025-09-09T10:00:13Z</time>
      </trkpt>
      <trkpt lat="45.98638" lon="4.40717">
        <ele>866.6</ele>
        <time>2025-09-09T10:00:14Z</time>
      </trkpt>
      <trkpt lat="45.98636" lon="4.40716">
        <ele>866.2</ele>
        <time>2025-09-09T10:00:15Z</time>
      </trkpt>
      <trkpt lat="45.98635" lon="4.40715">
        <ele>866.2</ele>
        <time>2025-09-09T10:00:16Z</time>
      </trkpt>
      <trkpt lat="45.98633" lon="4.40713">
        <ele>866.2</ele>
        <time>2025-09-09T10:00:17Z</time>
      </trkpt>
      <trkpt lat="45.98631" lon="4.40713">
        <ele>866.2</ele>
        <time>2025-09-09T10:00:18Z</time>
      </trkpt>
      <trkpt lat="45.98628" lon="4.4071">
        <ele>865.8</ele>
        <time>2025-09-09T10:00:19Z</time>
      </trkpt>
      <trkpt lat="45.98627" lon="4.40709">
        <ele>865.8</ele>
        <time>2025-09-09T10:00:20Z</time>
      </trkpt>
      <trkpt lat="45.98626" lon="4.40709">
        <ele>865.4</ele>
        <time>2025-09-09T10:00:21Z</time>
      </trkpt>
      <trkpt lat="45.98625" lon="4.40707">
        <ele>864.8</ele>
        <time>2025-09-09T10:00:22Z</time>
      </trkpt>
      <trkpt lat="45.98623" lon="4.40705">
        <ele>864.6</ele>
        <time>2025-09-09T10:00:23Z</time>
      </trkpt>
      <trkpt lat="45.98622" lon="4.40704">
        <ele>864.4</ele>
        <time>2025-09-09T10:00:24Z</time>
      </trkpt>
      <trkpt lat="45.98621" lon="4.40701">
        <ele>864.4</ele>
        <time>2025-09-09T10:00:25Z</time>
      </trkpt>
      <trkpt lat="45.9862" lon="4.407">
        <ele>864</ele>
        <time>2025-09-09T10:00:26Z</time>
      </trkpt>
      <trkpt lat="45.98619" lon="4.40697">
        <ele>863.6</ele>
        <time>2025-09-09T10:00:27Z</time>
      </trkpt>
      <trkpt lat="45.98619" lon="4.40693">
        <ele>863.2</ele>
        <time>2025-09-09T10:00:28Z</time>
      </trkpt>
      <trkpt lat="45.98618" lon="4.40692">
        <ele>862.8</ele>
        <time>2025-09-09T10:00:29Z</time>
      </trkpt>
      <trkpt lat="45.98619" lon="4.40692">
        <ele>862.4</ele>
        <time>2025-09-09T10:00:30Z</time>
      </trkpt>
      <trkpt lat="45.98618" lon="4.40692">
        <ele>862.4</ele>
        <time>2025-09-09T10:00:31Z</time>
      </trkpt>
      <trkpt lat="45.98617" lon="4.4069">
        <ele>862.4</ele>
        <time>2025-09-09T10:00:32Z</time>
      </trkpt>
      <trkpt lat="45.98616" lon="4.40688">
        <ele>862.2</ele>
        <time>2025-09-09T10:00:33Z</time>
      </trkpt>
      <trkpt lat="45.98615" lon="4.40685">
        <ele>862.2</ele>
        <time>2025-09-09T10:00:34Z</time>
      </trkpt>
      <trkpt lat="45.98614" lon="4.40683">
        <ele>861.8</ele>
        <time>2025-09-09T10:00:35Z</time>
      </trkpt>
      <trkpt lat="45.98613" lon="4.40682">
        <ele>861.6</ele>
        <time>2025-09-09T10:00:36Z</time>
      </trkpt>
      <trkpt lat="45.98611" lon="4.4068">
        <ele>861.4</ele>
        <time>2025-09-09T10:00:37Z</time>
      </trkpt>
      <trkpt lat="45.98611" lon="4.40679">
        <ele>861.2</ele>
        <time>2025-09-09T10:00:38Z</time>
      </trkpt>
      <trkpt lat="45.9861" lon="4.40677">
        <ele>861.2</ele>
        <time>2025-09-09T10:00:39Z</time>
      </trkpt>
      <trkpt lat="45.9861" lon="4.40677">
        <ele>860.8</ele>
        <time>2025-09-09T10:00:40Z</time>
      </trkpt>
      <trkpt lat="45.98609" lon="4.40675">
        <ele>860.8</ele>
        <time>2025-09-09T10:00:41Z</time>
      </trkpt>
      <trkpt lat="45.98608" lon="4.40674">
        <ele>860.8</ele>
        <time>2025-09-09T10:00:42Z</time>
      </trkpt>
      <trkpt lat="45.98607" lon="4.40673">
        <ele>860.4</ele>
        <time>2025-09-09T10:00:43Z</time>
      </trkpt>
      <trkpt lat="45.98606" lon="4.40671">
        <ele>860.4</ele>
        <time>2025-09-09T10:00:44Z</time>
      </trkpt>
      <trkpt lat="45.98606" lon="4.40669">
        <ele>860.2</ele>
        <time>2025-09-09T10:00:45Z</time>
      </trkpt>
      <trkpt lat="45.98606" lon="4.40667">
        <ele>859.8</ele>
        <time>2025-09-09T10:00:46Z</time>
      </trkpt>
      <trkpt lat="45.98606" lon="4.40665">
        <ele>859.6</ele>
        <time>2025-09-09T10:00:47Z</time>
      </trkpt>
      <trkpt lat="45.98606" lon="4.40665">
        <ele>859.6</ele>
        <time>2025-09-09T10:00:48Z</time>
      </trkpt>
      <trkpt lat="45.98605" lon="4.40664">
        <ele>859.2</ele>
        <time>2025-09-09T10:00:49Z</time>
      </trkpt>
      <trkpt lat="45.98604" lon="4.40665">
        <ele>859.2</ele>
        <time>2025-09-09T10:00:50Z</time>
      </trkpt>
      <trkpt lat="45.98603" lon="4.40664">
        <ele>858.8</ele>
        <time>2025-09-09T10:00:51Z</time>
      </trkpt>
      <trkpt lat="45.98602" lon="4.40662">
        <ele>858.8</ele>
        <time>2025-09-09T10:00:52Z</time>
      </trkpt>
      <trkpt lat="45.98602" lon="4.4066">
        <ele>858.4</ele>
        <time>2025-09-09T10:00:53Z</time>
      </trkpt>
      <trkpt lat="45.98602" lon="4.40659">
        <ele>858.6</ele>
        <time>2025-09-09T10:00:54Z</time>
      </trkpt>
      <trkpt lat="45.98602" lon="4.40656">
        <ele>858</ele>
        <time>2025-09-09T10:00:55Z</time>
      </trkpt>
      <trkpt lat="45.98602" lon="4.40654">
        <ele>857.8</ele>
        <time>2025-09-09T10:00:56Z</time>
      </trkpt>
      <trkpt lat="45.98601" lon="4.40654">
        <ele>857.6</ele>
        <time>2025-09-09T10:00:57Z</time>
      </trkpt>
      <trkpt lat="45.98601" lon="4.40652">
        <ele>857.2</ele>
        <time>2025-09-09T10:00:58Z</time>
      </trkpt>
      <trkpt lat="45.986" lon="4.4065">
        <ele>856.6</ele>
        <time>2025-09-09T10:00:59Z</time>
      </trkpt>
      <trkpt lat="45.98599" lon="4.40648">
        <ele>856.4</ele>
        <time>2025-09-09T10:01:00Z</time>
      </trkpt>
      <trkpt lat="45.98599" lon="4.40646">
        <ele>856.2</ele>
        <time>2025-09-09T10:01:01Z</time>
      </trkpt>
      <trkpt lat="45.98598" lon="4.40645">
        <ele>856.2</ele>
        <time>2025-09-09T10:01:02Z</time>
      </trkpt>
      <trkpt lat="45.98598" lon="4.40644">
        <ele>855.6</ele>
        <time>2025-09-09T10:01:03Z</time>
      </trkpt>
      <trkpt lat="45.98598" lon="4.40644">
        <ele>855.4</ele>
        <time>2025-09-09T10:01:04Z</time>
      </trkpt>
      <trkpt lat="45.98597" lon="4.40643">
        <ele>855.4</ele>
        <time>2025-09-09T10:01:05Z</time>
      </trkpt>
      <trkpt lat="45.98597" lon="4.40643">
        <ele>855</ele>
        <time>2025-09-09T10:01:06Z</time>
      </trkpt>
      <trkpt lat="45.98596" lon="4.40642">
        <ele>855</ele>
        <time>2025-09-09T10:01:07Z</time>
      </trkpt>
      <trkpt lat="45.98596" lon="4.40641">
        <ele>854.6</ele>
        <time>2025-09-09T10:01:08Z</time>
      </trkpt>
      <trkpt lat="45.98596" lon="4.4064">
        <ele>854.6</ele>
        <time>2025-09-09T10:01:09Z</time>
      </trkpt>
      <trkpt lat="45.98595" lon="4.40639">
        <ele>854.4</ele>
        <time>2025-09-09T10:01:10Z</time>
      </trkpt>
      <trkpt lat="45.98594" lon="4.40638">
        <ele>854.2</ele>
        <time>2025-09-09T10:01:11Z</time>
      </trkpt>
      <trkpt lat="45.98595" lon="4.40637">
        <ele>854.2</ele>
        <time>2025-09-09T10:01:12Z</time>
      </trkpt>
      <trkpt lat="45.98595" lon="4.40635">
        <ele>853.8</ele>
        <time>2025-09-09T10:01:13Z</time>
      </trkpt>
      <trkpt lat="45.98594" lon="4.40635">
        <ele>853.8</ele>
        <time>2025-09-09T10:01:14Z</time>
      </trkpt>
      <trkpt lat="45.98591" lon="4.4063">
        <ele>852.4</ele>
        <time>2025-09-09T10:01:23Z</time>
      </trkpt>
      <trkpt lat="45.98591" lon="4.40627">
        <ele>852.4</ele>
        <time>2025-09-09T10:01:24Z</time>
      </trkpt>
      <trkpt lat="45.9859" lon="4.40624">
        <ele>852</ele>
        <time>2025-09-09T10:01:25Z</time>
      </trkpt>
      <trkpt lat="45.9859" lon="4.40622">
        <ele>851.8</ele>
        <time>2025-09-09T10:01:26Z</time>
      </trkpt>
      <trkpt lat="45.98589" lon="4.40621">
        <ele>851.8</ele>
        <time>2025-09-09T10:01:27Z</time>
      </trkpt>
      <trkpt lat="45.98588" lon="4.4062">
        <ele>851.8</ele>
        <time>2025-09-09T10:01:28Z</time>
      </trkpt>
      <trkpt lat="45.98588" lon="4.4062">
        <ele>851.6</ele>
        <time>2025-09-09T10:01:29Z</time>
      </trkpt>
      <trkpt lat="45.98587" lon="4.40618">
        <ele>851</ele>
        <time>2025-09-09T10:01:33Z</time>
      </trkpt>
      <trkpt lat="45.98586" lon="4.40616">
        <ele>850.8</ele>
        <time>2025-09-09T10:01:34Z</time>
      </trkpt>
      <trkpt lat="45.98586" lon="4.40615">
        <ele>850.6</ele>
        <time>2025-09-09T10:01:35Z</time>
      </trkpt>
      <trkpt lat="45.98585" lon="4.40616">
        <ele>850.4</ele>
        <time>2025-09-09T10:01:36Z</time>
      </trkpt>
      <trkpt lat="45.98585" lon="4.40617">
        <ele>850.4</ele>
        <time>2025-09-09T10:01:37Z</time>
      </trkpt>
      <trkpt lat="45.98584" lon="4.40616">
        <ele>850</ele>
        <time>2025-09-09T10:01:38Z</time>
      </trkpt>
      <trkpt lat="45.98584" lon="4.40614">
        <ele>850</ele>
        <time>2025-09-09T10:01:39Z</time>
      </trkpt>
      <trkpt lat="45.98584" lon="4.40613">
        <ele>849.8</ele>
        <time>2025-09-09T10:01:40Z</time>
      </trkpt>
      <trkpt lat="45.98584" lon="4.40611">
        <ele>849.8</ele>
        <time>2025-09-09T10:01:41Z</time>
      </trkpt>
      <trkpt lat="45.98585" lon="4.4061">
        <ele>849.4</ele>
        <time>2025-09-09T10:01:42Z</time>
      </trkpt>
      <trkpt lat="45.98585" lon="4.40609">
        <ele>849</ele>
        <time>2025-09-09T10:01:43Z</time>
      </trkpt>
      <trkpt lat="45.98585" lon="4.40607">
        <ele>849</ele>
        <time>2025-09-09T10:01:44Z</time>
      </trkpt>
      <trkpt lat="45.98585" lon="4.40605">
        <ele>848.6</ele>
        <time>2025-09-09T10:01:45Z</time>
      </trkpt>
      <trkpt lat="45.98584" lon="4.40604">
        <ele>848.4</ele>
        <time>2025-09-09T10:01:46Z</time>
      </trkpt>
      <trkpt lat="45.98583" lon="4.40604">
        <ele>848.2</ele>
        <time>2025-09-09T10:01:47Z</time>
      </trkpt>
      <trkpt lat="45.98583" lon="4.40603">
        <ele>847.8</ele>
        <time>2025-09-09T10:01:48Z</time>
      </trkpt>
      <trkpt lat="45.98582" lon="4.40602">
        <ele>847.8</ele>
        <time>2025-09-09T10:01:49Z</time>
      </trkpt>
      <trkpt lat="45.98582" lon="4.40601">
        <ele>847.6</ele>
        <time>2025-09-09T10:01:50Z</time>
      </trkpt>
      <trkpt lat="45.98581" lon="4.406">
        <ele>847.6</ele>
        <time>2025-09-09T10:01:51Z</time>
      </trkpt>
      <trkpt lat="45.98581" lon="4.40599">
        <ele>847.2</ele>
        <time>2025-09-09T10:01:52Z</time>
      </trkpt>
      <trkpt lat="45.98581" lon="4.40598">
        <ele>847</ele>
        <time>2025-09-09T10:01:53Z</time>
      </trkpt>
      <trkpt lat="45.9858" lon="4.40598">
        <ele>847</ele>
        <time>2025-09-09T10:01:54Z</time>
      </trkpt>
      <trkpt lat="45.98579" lon="4.40597">
        <ele>846.6</ele>
        <time>2025-09-09T10:01:55Z</time>
      </trkpt>
      <trkpt lat="45.98579" lon="4.40596">
        <ele>846.6</ele>
        <time>2025-09-09T10:01:56Z</time>
      </trkpt>
      <trkpt lat="45.9858" lon="4.40594">
        <ele>846.4</ele>
        <time>2025-09-09T10:01:57Z</time>
      </trkpt>
      <trkpt lat="45.9858" lon="4.40592">
        <ele>846.4</ele>
        <time>2025-09-09T10:01:58Z</time>
      </trkpt>
      <trkpt lat="45.9858" lon="4.4059">
        <ele>846</ele>
        <time>2025-09-09T10:01:59Z</time>
      </trkpt>
      <trkpt lat="45.98579" lon="4.4059">
        <ele>846</ele>
        <time>2025-09-09T10:02:00Z</time>
      </trkpt>
      <trkpt lat="45.98579" lon="4.40589">
        <ele>846</ele>
        <time>2025-09-09T10:02:01Z</time>
      </trkpt>
      <trkpt lat="45.98579" lon="4.40588">
        <ele>845.6</ele>
        <time>2025-09-09T10:02:02Z</time>
      </trkpt>
      <trkpt lat="45.98579" lon="4.40587">
        <ele>845.6</ele>
        <time>2025-09-09T10:02:03Z</time>
      </trkpt>
      <trkpt lat="45.98579" lon="4.40586">
        <ele>845.6</ele>
        <time>2025-09-09T10:02:04Z</time>
      </trkpt>
      <trkpt lat="45.98578" lon="4.40585">
        <ele>845.2</ele>
        <time>2025-09-09T10:02:05Z</time>
      </trkpt>
      <trkpt lat="45.98578" lon="4.40584">
        <ele>844.8</ele>
        <time>2025-09-09T10:02:06Z</time>
      </trkpt>
      <trkpt lat="45.98577" lon="4.40582">
        <ele>844.6</ele>
        <time>2025-09-09T10:02:07Z</time>
      </trkpt>
      <trkpt lat="45.98576" lon="4.40581">
        <ele>844.2</ele>
        <time>2025-09-09T10:02:08Z</time>
      </trkpt>
      <trkpt lat="45.98575" lon="4.40579">
        <ele>844.2</ele>
        <time>2025-09-09T10:02:09Z</time>
      </trkpt>
      <trkpt lat="45.98574" lon="4.40576">
        <ele>843.8</ele>
        <time>2025-09-09T10:02:10Z</time>
      </trkpt>
      <trkpt lat="45.98574" lon="4.40575">
        <ele>843.8</ele>
        <time>2025-09-09T10:02:11Z</time>
      </trkpt>
      <trkpt lat="45.98574" lon="4.40575">
        <ele>843.4</ele>
        <time>2025-09-09T10:02:12Z</time>
      </trkpt>
      <trkpt lat="45.98574" lon="4.40574">
        <ele>843.4</ele>
        <time>2025-09-09T10:02:13Z</time>
      </trkpt>
      <trkpt lat="45.98574" lon="4.40573">
        <ele>843.4</ele>
        <time>2025-09-09T10:02:14Z</time>
      </trkpt>
      <trkpt lat="45.98574" lon="4.4057">
        <ele>842.6</ele>
        <time>2025-09-09T10:02:32Z</time>
      </trkpt>
      <trkpt lat="45.98574" lon="4.40568">
        <ele>842.6</ele>
        <time>2025-09-09T10:02:33Z</time>
      </trkpt>
      <trkpt lat="45.98573" lon="4.40567">
        <ele>842.4</ele>
        <time>2025-09-09T10:02:34Z</time>
      </trkpt>
      <trkpt lat="45.98573" lon="4.40567">
        <ele>842.4</ele>
        <time>2025-09-09T10:02:35Z</time>
      </trkpt>
      <trkpt lat="45.98571" lon="4.40565">
        <ele>841.2</ele>
        <time>2025-09-09T10:02:42Z</time>
      </trkpt>
      <trkpt lat="45.98571" lon="4.40564">
        <ele>840.8</ele>
        <time>2025-09-09T10:02:43Z</time>
      </trkpt>
      <trkpt lat="45.98571" lon="4.40564">
        <ele>840.8</ele>
        <time>2025-09-09T10:02:44Z</time>
      </trkpt>
      <trkpt lat="45.9857" lon="4.4056">
        <ele>839.6</ele>
        <time>2025-09-09T10:02:49Z</time>
      </trkpt>
      <trkpt lat="45.98569" lon="4.40559">
        <ele>839.6</ele>
        <time>2025-09-09T10:02:50Z</time>
      </trkpt>
      <trkpt lat="45.98567" lon="4.40557">
        <ele>839.2</ele>
        <time>2025-09-09T10:02:51Z</time>
      </trkpt>
      <trkpt lat="45.98566" lon="4.40556">
        <ele>839.2</ele>
        <time>2025-09-09T10:02:52Z</time>
      </trkpt>
      <trkpt lat="45.98565" lon="4.40555">
        <ele>839.2</ele>
        <time>2025-09-09T10:02:53Z</time>
      </trkpt>
      <trkpt lat="45.98564" lon="4.40555">
        <ele>838.8</ele>
        <time>2025-09-09T10:02:54Z</time>
      </trkpt>
      <trkpt lat="45.98562" lon="4.40555">
        <ele>838.8</ele>
        <time>2025-09-09T10:02:55Z</time>
      </trkpt>
      <trkpt lat="45.98562" lon="4.40555">
        <ele>838.6</ele>
        <time>2025-09-09T10:02:56Z</time>
      </trkpt>
      <trkpt lat="45.98561" lon="4.40554">
        <ele>838.4</ele>
        <time>2025-09-09T10:02:57Z</time>
      </trkpt>
      <trkpt lat="45.9856" lon="4.40553">
        <ele>838</ele>
        <time>2025-09-09T10:02:58Z</time>
      </trkpt>
      <trkpt lat="45.98559" lon="4.40552">
        <ele>838</ele>
        <time>2025-09-09T10:02:59Z</time>
      </trkpt>
      <trkpt lat="45.98559" lon="4.40551">
        <ele>838</ele>
        <time>2025-09-09T10:03:00Z</time>
      </trkpt>
      <trkpt lat="45.98558" lon="4.4055">
        <ele>837.4</ele>
        <time>2025-09-09T10:03:01Z</time>
      </trkpt>
      <trkpt lat="45.98558" lon="4.4055">
        <ele>837.4</ele>
        <time>2025-09-09T10:03:02Z</time>
      </trkpt>
      <trkpt lat="45.98558" lon="4.40549">
        <ele>837.2</ele>
        <time>2025-09-09T10:03:03Z</time>
      </trkpt>
      <trkpt lat="45.98557" lon="4.40549">
        <ele>837.2</ele>
        <time>2025-09-09T10:03:04Z</time>
      </trkpt>
      <trkpt lat="45.98557" lon="4.40548">
        <ele>837.2</ele>
        <time>2025-09-09T10:03:05Z</time>
      </trkpt>
      <trkpt lat="45.98556" lon="4.40548">
        <ele>836.8</ele>
        <time>2025-09-09T10:03:06Z</time>
      </trkpt>
      <trkpt lat="45.98556" lon="4.40548">
        <ele>836.6</ele>
        <time>2025-09-09T10:03:07Z</time>
      </trkpt>
      <trkpt lat="45.98556" lon="4.40548">
        <ele>836.6</ele>
        <time>2025-09-09T10:03:08Z</time>
      </trkpt>
      <trkpt lat="45.98556" lon="4.40548">
        <ele>836.2</ele>
        <time>2025-09-09T10:03:09Z</time>
      </trkpt>
      <trkpt lat="45.98556" lon="4.40548">
        <ele>836</ele>
        <time>2025-09-09T10:03:10Z</time>
      </trkpt>
      <trkpt lat="45.98555" lon="4.40547">
        <ele>836</ele>
        <time>2025-09-09T10:03:11Z</time>
      </trkpt>
      <trkpt lat="45.98553" lon="4.40546">
        <ele>835.6</ele>
        <time>2025-09-09T10:03:12Z</time>
      </trkpt>
      <trkpt lat="45.98551" lon="4.40546">
        <ele>835</ele>
        <time>2025-09-09T10:03:13Z</time>
      </trkpt>
      <trkpt lat="45.9855" lon="4.40546">
        <ele>834.8</ele>
        <time>2025-09-09T10:03:14Z</time>
      </trkpt>
      <trkpt lat="45.98549" lon="4.40547">
        <ele>834.8</ele>
        <time>2025-09-09T10:03:15Z</time>
      </trkpt>
      <trkpt lat="45.98548" lon="4.40548">
        <ele>834.8</ele>
        <time>2025-09-09T10:03:16Z</time>
      </trkpt>
      <trkpt lat="45.98547" lon="4.40548">
        <ele>834.4</ele>
        <time>2025-09-09T10:03:17Z</time>
      </trkpt>
      <trkpt lat="45.98544" lon="4.40549">
        <ele>833.2</ele>
        <time>2025-09-09T10:03:25Z</time>
      </trkpt>
      <trkpt lat="45.98542" lon="4.4055">
        <ele>832.8</ele>
        <time>2025-09-09T10:03:26Z</time>
      </trkpt>
      <trkpt lat="45.98541" lon="4.40551">
        <ele>832.6</ele>
        <time>2025-09-09T10:03:27Z</time>
      </trkpt>
      <trkpt lat="45.9854" lon="4.40552">
        <ele>832.6</ele>
        <time>2025-09-09T10:03:28Z</time>
      </trkpt>
      <trkpt lat="45.98539" lon="4.40552">
        <ele>832.4</ele>
        <time>2025-09-09T10:03:29Z</time>
      </trkpt>
      <trkpt lat="45.98538" lon="4.40551">
        <ele>832.4</ele>
        <time>2025-09-09T10:03:30Z</time>
      </trkpt>
      <trkpt lat="45.98535" lon="4.40548">
        <ele>831.8</ele>
        <time>2025-09-09T10:03:34Z</time>
      </trkpt>
      <trkpt lat="45.98534" lon="4.40547">
        <ele>831.4</ele>
        <time>2025-09-09T10:03:35Z</time>
      </trkpt>
      <trkpt lat="45.98533" lon="4.40547">
        <ele>831.2</ele>
        <time>2025-09-09T10:03:36Z</time>
      </trkpt>
      <trkpt lat="45.98532" lon="4.40545">
        <ele>831.2</ele>
        <time>2025-09-09T10:03:37Z</time>
      </trkpt>
      <trkpt lat="45.98531" lon="4.40545">
        <ele>831</ele>
        <time>2025-09-09T10:03:38Z</time>
      </trkpt>
      <trkpt lat="45.9853" lon="4.40545">
        <ele>831</ele>
        <time>2025-09-09T10:03:39Z</time>
      </trkpt>
      <trkpt lat="45.98529" lon="4.40546">
        <ele>830.8</ele>
        <time>2025-09-09T10:03:40Z</time>
      </trkpt>
      <trkpt lat="45.98529" lon="4.40546">
        <ele>830.8</ele>
        <time>2025-09-09T10:03:41Z</time>
      </trkpt>
      <trkpt lat="45.98529" lon="4.40545">
        <ele>830.6</ele>
        <time>2025-09-09T10:03:42Z</time>
      </trkpt>
      <trkpt lat="45.98529" lon="4.40544">
        <ele>830.6</ele>
        <time>2025-09-09T10:03:43Z</time>
      </trkpt>
      <trkpt lat="45.98527" lon="4.40544">
        <ele>828.8</ele>
        <time>2025-09-09T10:03:53Z</time>
      </trkpt>
      <trkpt lat="45.98526" lon="4.40543">
        <ele>828.8</ele>
        <time>2025-09-09T10:03:54Z</time>
      </trkpt>
      <trkpt lat="45.98525" lon="4.40543">
        <ele>828.8</ele>
        <time>2025-09-09T10:03:55Z</time>
      </trkpt>
      <trkpt lat="45.98523" lon="4.40542">
        <ele>828.4</ele>
        <time>2025-09-09T10:03:56Z</time>
      </trkpt>
      <trkpt lat="45.98522" lon="4.40541">
        <ele>828.4</ele>
        <time>2025-09-09T10:03:57Z</time>
      </trkpt>
      <trkpt lat="45.98521" lon="4.4054">
        <ele>828.4</ele>
        <time>2025-09-09T10:03:58Z</time>
      </trkpt>
      <trkpt lat="45.9852" lon="4.40539">
        <ele>828.4</ele>
        <time>2025-09-09T10:03:59Z</time>
      </trkpt>
      <trkpt lat="45.9852" lon="4.40538">
        <ele>828</ele>
        <time>2025-09-09T10:04:00Z</time>
      </trkpt>
      <trkpt lat="45.98519" lon="4.40538">
        <ele>827.6</ele>
        <time>2025-09-09T10:04:01Z</time>
      </trkpt>
      <trkpt lat="45.98519" lon="4.40537">
        <ele>827.6</ele>
        <time>2025-09-09T10:04:02Z</time>
      </trkpt>
      <trkpt lat="45.98517" lon="4.40537">
        <ele>827.2</ele>
        <time>2025-09-09T10:04:03Z</time>
      </trkpt>
      <trkpt lat="45.98516" lon="4.40537">
        <ele>827.2</ele>
        <time>2025-09-09T10:04:04Z</time>
      </trkpt>
      <trkpt lat="45.98515" lon="4.40537">
        <ele>827.2</ele>
        <time>2025-09-09T10:04:05Z</time>
      </trkpt>
      <trkpt lat="45.98514" lon="4.40536">
        <ele>827</ele>
        <time>2025-09-09T10:04:06Z</time>
      </trkpt>
      <trkpt lat="45.98513" lon="4.40536">
        <ele>827</ele>
        <time>2025-09-09T10:04:07Z</time>
      </trkpt>
      <trkpt lat="45.98511" lon="4.40537">
        <ele>826.8</ele>
        <time>2025-09-09T10:04:08Z</time>
      </trkpt>
      <trkpt lat="45.9851" lon="4.40537">
        <ele>826.4</ele>
        <time>2025-09-09T10:04:09Z</time>
      </trkpt>
      <trkpt lat="45.98509" lon="4.40537">
        <ele>826.4</ele>
        <time>2025-09-09T10:04:10Z</time>
      </trkpt>
      <trkpt lat="45.98508" lon="4.40537">
        <ele>826.4</ele>
        <time>2025-09-09T10:04:11Z</time>
      </trkpt>
      <trkpt lat="45.98508" lon="4.40537">
        <ele>826.4</ele>
        <time>2025-09-09T10:04:12Z</time>
      </trkpt>
      <trkpt lat="45.98507" lon="4.40537">
        <ele>826.2</ele>
        <time>2025-09-09T10:04:13Z</time>
      </trkpt>
      <trkpt lat="45.98506" lon="4.40537">
        <ele>825.8</ele>
        <time>2025-09-09T10:04:14Z</time>
      </trkpt>
      <trkpt lat="45.98505" lon="4.40537">
        <ele>825.8</ele>
        <time>2025-09-09T10:04:15Z</time>
      </trkpt>
      <trkpt lat="45.98505" lon="4.40537">
        <ele>825.6</ele>
        <time>2025-09-09T10:04:16Z</time>
      </trkpt>
      <trkpt lat="45.98504" lon="4.40537">
        <ele>825.6</ele>
        <time>2025-09-09T10:04:17Z</time>
      </trkpt>
      <trkpt lat="45.98504" lon="4.40535">
        <ele>825.6</ele>
        <time>2025-09-09T10:04:18Z</time>
      </trkpt>
      <trkpt lat="45.98503" lon="4.40534">
        <ele>825.2</ele>
        <time>2025-09-09T10:04:19Z</time>
      </trkpt>
      <trkpt lat="45.98503" lon="4.40534">
        <ele>825.2</ele>
        <time>2025-09-09T10:04:20Z</time>
      </trkpt>
      <trkpt lat="45.98502" lon="4.40534">
        <ele>824.8</ele>
        <time>2025-09-09T10:04:21Z</time>
      </trkpt>
      <trkpt lat="45.98502" lon="4.40535">
        <ele>824.4</ele>
        <time>2025-09-09T10:04:22Z</time>
      </trkpt>
      <trkpt lat="45.98501" lon="4.40533">
        <ele>824.4</ele>
        <time>2025-09-09T10:04:23Z</time>
      </trkpt>
      <trkpt lat="45.985" lon="4.40531">
        <ele>824.2</ele>
        <time>2025-09-09T10:04:24Z</time>
      </trkpt>
      <trkpt lat="45.98499" lon="4.4053">
        <ele>824.2</ele>
        <time>2025-09-09T10:04:25Z</time>
      </trkpt>
      <trkpt lat="45.98497" lon="4.4053">
        <ele>824</ele>
        <time>2025-09-09T10:04:26Z</time>
      </trkpt>
      <trkpt lat="45.98496" lon="4.40531">
        <ele>823.6</ele>
        <time>2025-09-09T10:04:27Z</time>
      </trkpt>
      <trkpt lat="45.98496" lon="4.40532">
        <ele>823.6</ele>
        <time>2025-09-09T10:04:28Z</time>
      </trkpt>
      <trkpt lat="45.98494" lon="4.40533">
        <ele>821.6</ele>
        <time>2025-09-09T10:04:35Z</time>
      </trkpt>
      <trkpt lat="45.98493" lon="4.40533">
        <ele>821.6</ele>
        <time>2025-09-09T10:04:36Z</time>
      </trkpt>
      <trkpt lat="45.98492" lon="4.40533">
        <ele>821.2</ele>
        <time>2025-09-09T10:04:37Z</time>
      </trkpt>
      <trkpt lat="45.98491" lon="4.40533">
        <ele>821.2</ele>
        <time>2025-09-09T10:04:38Z</time>
      </trkpt>
      <trkpt lat="45.98489" lon="4.40533">
        <ele>821.2</ele>
        <time>2025-09-09T10:04:39Z</time>
      </trkpt>
      <trkpt lat="45.98486" lon="4.40533">
        <ele>821</ele>
        <time>2025-09-09T10:04:40Z</time>
      </trkpt>
      <trkpt lat="45.98484" lon="4.40534">
        <ele>821</ele>
        <time>2025-09-09T10:04:41Z</time>
      </trkpt>
      <trkpt lat="45.98482" lon="4.40535">
        <ele>821</ele>
        <time>2025-09-09T10:04:42Z</time>
      </trkpt>
      <trkpt lat="45.9848" lon="4.40536">
        <ele>820.6</ele>
        <time>2025-09-09T10:04:43Z</time>
      </trkpt>
      <trkpt lat="45.98479" lon="4.40536">
        <ele>820.4</ele>
        <time>2025-09-09T10:04:44Z</time>
      </trkpt>
      <trkpt lat="45.98479" lon="4.40535">
        <ele>820.4</ele>
        <time>2025-09-09T10:04:45Z</time>
      </trkpt>
      <trkpt lat="45.98478" lon="4.40534">
        <ele>820</ele>
        <time>2025-09-09T10:04:46Z</time>
      </trkpt>
      <trkpt lat="45.98478" lon="4.40533">
        <ele>819.8</ele>
        <time>2025-09-09T10:04:47Z</time>
      </trkpt>
      <trkpt lat="45.98478" lon="4.4053">
        <ele>819.8</ele>
        <time>2025-09-09T10:04:48Z</time>
      </trkpt>
      <trkpt lat="45.98477" lon="4.40527">
        <ele>819.8</ele>
        <time>2025-09-09T10:04:49Z</time>
      </trkpt>
      <trkpt lat="45.98477" lon="4.40525">
        <ele>819.8</ele>
        <time>2025-09-09T10:04:50Z</time>
      </trkpt>
      <trkpt lat="45.98477" lon="4.40525">
        <ele>819.8</ele>
        <time>2025-09-09T10:04:51Z</time>
      </trkpt>
      <trkpt lat="45.98476" lon="4.40525">
        <ele>819.8</ele>
        <time>2025-09-09T10:04:52Z</time>
      </trkpt>
      <trkpt lat="45.98471" lon="4.40522">
        <ele>818</ele>
        <time>2025-09-09T10:05:04Z</time>
      </trkpt>
      <trkpt lat="45.9847" lon="4.40522">
        <ele>817.2</ele>
        <time>2025-09-09T10:05:05Z</time>
      </trkpt>
      <trkpt lat="45.98468" lon="4.40522">
        <ele>817.4</ele>
        <time>2025-09-09T10:05:06Z</time>
      </trkpt>
      <trkpt lat="45.98467" lon="4.40521">
        <ele>817.4</ele>
        <time>2025-09-09T10:05:07Z</time>
      </trkpt>
      <trkpt lat="45.98466" lon="4.4052">
        <ele>817.4</ele>
        <time>2025-09-09T10:05:08Z</time>
      </trkpt>
      <trkpt lat="45.98464" lon="4.40519">
        <ele>817.4</ele>
        <time>2025-09-09T10:05:09Z</time>
      </trkpt>
      <trkpt lat="45.98464" lon="4.40518">
        <ele>817.4</ele>
        <time>2025-09-09T10:05:10Z</time>
      </trkpt>
      <trkpt lat="45.98463" lon="4.40518">
        <ele>817.2</ele>
        <time>2025-09-09T10:05:11Z</time>
      </trkpt>
      <trkpt lat="45.98461" lon="4.40517">
        <ele>817.2</ele>
        <time>2025-09-09T10:05:12Z</time>
      </trkpt>
      <trkpt lat="45.9846" lon="4.40516">
        <ele>816.8</ele>
        <time>2025-09-09T10:05:13Z</time>
      </trkpt>
      <trkpt lat="45.98458" lon="4.40516">
        <ele>816.8</ele>
        <time>2025-09-09T10:05:14Z</time>
      </trkpt>
      <trkpt lat="45.98457" lon="4.40516">
        <ele>816.8</ele>
        <time>2025-09-09T10:05:15Z</time>
      </trkpt>
      <trkpt lat="45.98456" lon="4.40516">
        <ele>816.8</ele>
        <time>2025-09-09T10:05:16Z</time>
      </trkpt>
      <trkpt lat="45.98455" lon="4.40516">
        <ele>816.6</ele>
        <time>2025-09-09T10:05:17Z</time>
      </trkpt>
      <trkpt lat="45.98455" lon="4.40516">
        <ele>816.6</ele>
        <time>2025-09-09T10:05:18Z</time>
      </trkpt>
      <trkpt lat="45.98454" lon="4.40517">
        <ele>816.6</ele>
        <time>2025-09-09T10:05:19Z</time>
      </trkpt>
      <trkpt lat="45.98453" lon="4.40517">
        <ele>816.2</ele>
        <time>2025-09-09T10:05:20Z</time>
      </trkpt>
      <trkpt lat="45.98452" lon="4.40517">
        <ele>816.2</ele>
        <time>2025-09-09T10:05:21Z</time>
      </trkpt>
      <trkpt lat="45.98451" lon="4.40516">
        <ele>816</ele>
        <time>2025-09-09T10:05:22Z</time>
      </trkpt>
      <trkpt lat="45.9845" lon="4.40516">
        <ele>815.6</ele>
        <time>2025-09-09T10:05:23Z</time>
      </trkpt>
      <trkpt lat="45.98449" lon="4.40515">
        <ele>815.2</ele>
        <time>2025-09-09T10:05:24Z</time>
      </trkpt>
      <trkpt lat="45.98449" lon="4.40515">
        <ele>815</ele>
        <time>2025-09-09T10:05:25Z</time>
      </trkpt>
      <trkpt lat="45.98448" lon="4.40515">
        <ele>814.8</ele>
        <time>2025-09-09T10:05:26Z</time>
      </trkpt>
      <trkpt lat="45.98447" lon="4.40515">
        <ele>814.8</ele>
        <time>2025-09-09T10:05:27Z</time>
      </trkpt>
      <trkpt lat="45.98446" lon="4.40516">
        <ele>814.6</ele>
        <time>2025-09-09T10:05:28Z</time>
      </trkpt>
      <trkpt lat="45.98445" lon="4.40516">
        <ele>814.6</ele>
        <time>2025-09-09T10:05:29Z</time>
      </trkpt>
      <trkpt lat="45.98443" lon="4.40517">
        <ele>814.2</ele>
        <time>2025-09-09T10:05:30Z</time>
      </trkpt>
      <trkpt lat="45.98442" lon="4.40517">
        <ele>814.2</ele>
        <time>2025-09-09T10:05:31Z</time>
      </trkpt>
      <trkpt lat="45.98441" lon="4.40517">
        <ele>814</ele>
        <time>2025-09-09T10:05:32Z</time>
      </trkpt>
      <trkpt lat="45.9844" lon="4.40516">
        <ele>813.6</ele>
        <time>2025-09-09T10:05:33Z</time>
      </trkpt>
      <trkpt lat="45.98439" lon="4.40516">
        <ele>813.6</ele>
        <time>2025-09-09T10:05:34Z</time>
      </trkpt>
      <trkpt lat="45.98438" lon="4.40516">
        <ele>813.6</ele>
        <time>2025-09-09T10:05:35Z</time>
      </trkpt>
      <trkpt lat="45.98438" lon="4.40514">
        <ele>813.4</ele>
        <time>2025-09-09T10:05:36Z</time>
      </trkpt>
      <trkpt lat="45.98438" lon="4.40513">
        <ele>813.4</ele>
        <time>2025-09-09T10:05:37Z</time>
      </trkpt>
      <trkpt lat="45.98437" lon="4.40512">
        <ele>813.4</ele>
        <time>2025-09-09T10:05:38Z</time>
      </trkpt>
      <trkpt lat="45.98435" lon="4.40511">
        <ele>813.4</ele>
        <time>2025-09-09T10:05:39Z</time>
      </trkpt>
      <trkpt lat="45.98433" lon="4.40511">
        <ele>813.2</ele>
        <time>2025-09-09T10:05:40Z</time>
      </trkpt>
      <trkpt lat="45.98433" lon="4.4051">
        <ele>813.2</ele>
        <time>2025-09-09T10:05:41Z</time>
      </trkpt>
      <trkpt lat="45.98432" lon="4.4051">
        <ele>813.2</ele>
        <time>2025-09-09T10:05:42Z</time>
      </trkpt>
      <trkpt lat="45.98432" lon="4.4051">
        <ele>812.8</ele>
        <time>2025-09-09T10:05:43Z</time>
      </trkpt>
      <trkpt lat="45.98432" lon="4.4051">
        <ele>812.8</ele>
        <time>2025-09-09T10:05:44Z</time>
      </trkpt>
      <trkpt lat="45.98431" lon="4.4051">
        <ele>812.8</ele>
        <time>2025-09-09T10:05:45Z</time>
      </trkpt>
      <trkpt lat="45.9843" lon="4.40511">
        <ele>812.6</ele>
        <time>2025-09-09T10:05:46Z</time>
      </trkpt>
      <trkpt lat="45.9843" lon="4.40513">
        <ele>812.6</ele>
        <time>2025-09-09T10:05:47Z</time>
      </trkpt>
      <trkpt lat="45.9843" lon="4.40514">
        <ele>812.6</ele>
        <time>2025-09-09T10:05:48Z</time>
      </trkpt>
      <trkpt lat="45.98429" lon="4.40515">
        <ele>812.6</ele>
        <time>2025-09-09T10:05:49Z</time>
      </trkpt>
      <trkpt lat="45.98428" lon="4.40515">
        <ele>812.2</ele>
        <time>2025-09-09T10:05:50Z</time>
      </trkpt>
      <trkpt lat="45.98427" lon="4.40516">
        <ele>812.2</ele>
        <time>2025-09-09T10:05:51Z</time>
      </trkpt>
      <trkpt lat="45.98425" lon="4.40518">
        <ele>812</ele>
        <time>2025-09-09T10:05:52Z</time>
      </trkpt>
      <trkpt lat="45.98424" lon="4.40519">
        <ele>811.8</ele>
        <time>2025-09-09T10:05:53Z</time>
      </trkpt>
      <trkpt lat="45.98423" lon="4.4052">
        <ele>811.8</ele>
        <time>2025-09-09T10:05:54Z</time>
      </trkpt>
      <trkpt lat="45.98422" lon="4.40521">
        <ele>811.8</ele>
        <time>2025-09-09T10:05:55Z</time>
      </trkpt>
      <trkpt lat="45.98421" lon="4.40521">
        <ele>811.8</ele>
        <time>2025-09-09T10:05:56Z</time>
      </trkpt>
      <trkpt lat="45.98421" lon="4.40521">
        <ele>811.2</ele>
        <time>2025-09-09T10:05:57Z</time>
      </trkpt>
      <trkpt lat="45.98418" lon="4.40522">
        <ele>811.2</ele>
        <time>2025-09-09T10:05:58Z</time>
      </trkpt>
      <trkpt lat="45.98416" lon="4.40522">
        <ele>810.8</ele>
        <time>2025-09-09T10:05:59Z</time>
      </trkpt>
      <trkpt lat="45.98415" lon="4.40523">
        <ele>810.8</ele>
        <time>2025-09-09T10:06:00Z</time>
      </trkpt>
      <trkpt lat="45.98414" lon="4.40523">
        <ele>810.8</ele>
        <time>2025-09-09T10:06:01Z</time>
      </trkpt>
      <trkpt lat="45.98414" lon="4.40523">
        <ele>810.6</ele>
        <time>2025-09-09T10:06:02Z</time>
      </trkpt>
      <trkpt lat="45.98414" lon="4.40524">
        <ele>810.6</ele>
        <time>2025-09-09T10:06:03Z</time>
      </trkpt>
      <trkpt lat="45.98407" lon="4.40526">
        <ele>808.2</ele>
        <time>2025-09-09T10:06:16Z</time>
      </trkpt>
      <trkpt lat="45.98405" lon="4.40527">
        <ele>807.8</ele>
        <time>2025-09-09T10:06:17Z</time>
      </trkpt>
      <trkpt lat="45.98405" lon="4.40527">
        <ele>807.8</ele>
        <time>2025-09-09T10:06:18Z</time>
      </trkpt>
      <trkpt lat="45.98404" lon="4.40527">
        <ele>807.6</ele>
        <time>2025-09-09T10:06:19Z</time>
      </trkpt>
      <trkpt lat="45.98402" lon="4.40527">
        <ele>807.6</ele>
        <time>2025-09-09T10:06:20Z</time>
      </trkpt>
      <trkpt lat="45.98401" lon="4.40527">
        <ele>807.2</ele>
        <time>2025-09-09T10:06:21Z</time>
      </trkpt>
      <trkpt lat="45.984" lon="4.40526">
        <ele>807.2</ele>
        <time>2025-09-09T10:06:22Z</time>
      </trkpt>
      <trkpt lat="45.98399" lon="4.40526">
        <ele>806.8</ele>
        <time>2025-09-09T10:06:23Z</time>
      </trkpt>
      <trkpt lat="45.98398" lon="4.40525">
        <ele>806.8</ele>
        <time>2025-09-09T10:06:24Z</time>
      </trkpt>
      <trkpt lat="45.98396" lon="4.40525">
        <ele>806.6</ele>
        <time>2025-09-09T10:06:25Z</time>
      </trkpt>
      <trkpt lat="45.98395" lon="4.40525">
        <ele>806.4</ele>
        <time>2025-09-09T10:06:26Z</time>
      </trkpt>
      <trkpt lat="45.98393" lon="4.40525">
        <ele>806.4</ele>
        <time>2025-09-09T10:06:27Z</time>
      </trkpt>
      <trkpt lat="45.98392" lon="4.40524">
        <ele>806.4</ele>
        <time>2025-09-09T10:06:28Z</time>
      </trkpt>
      <trkpt lat="45.98392" lon="4.40524">
        <ele>806.2</ele>
        <time>2025-09-09T10:06:29Z</time>
      </trkpt>
      <trkpt lat="45.9839" lon="4.40524">
        <ele>806.2</ele>
        <time>2025-09-09T10:06:30Z</time>
      </trkpt>
      <trkpt lat="45.98389" lon="4.40524">
        <ele>806.2</ele>
        <time>2025-09-09T10:06:31Z</time>
      </trkpt>
      <trkpt lat="45.98388" lon="4.40525">
        <ele>805.8</ele>
        <time>2025-09-09T10:06:32Z</time>
      </trkpt>
      <trkpt lat="45.98386" lon="4.40525">
        <ele>805.8</ele>
        <time>2025-09-09T10:06:33Z</time>
      </trkpt>
      <trkpt lat="45.98384" lon="4.40525">
        <ele>805.8</ele>
        <time>2025-09-09T10:06:34Z</time>
      </trkpt>
      <trkpt lat="45.98383" lon="4.40525">
        <ele>805.8</ele>
        <time>2025-09-09T10:06:35Z</time>
      </trkpt>
      <trkpt lat="45.98382" lon="4.40524">
        <ele>805.4</ele>
        <time>2025-09-09T10:06:36Z</time>
      </trkpt>
      <trkpt lat="45.9838" lon="4.40524">
        <ele>805.4</ele>
        <time>2025-09-09T10:06:37Z</time>
      </trkpt>
      <trkpt lat="45.9838" lon="4.40524">
        <ele>805.4</ele>
        <time>2025-09-09T10:06:38Z</time>
      </trkpt>
      <trkpt lat="45.98379" lon="4.40524">
        <ele>805.4</ele>
        <time>2025-09-09T10:06:39Z</time>
      </trkpt>
      <trkpt lat="45.98379" lon="4.40526">
        <ele>805.2</ele>
        <time>2025-09-09T10:06:40Z</time>
      </trkpt>
      <trkpt lat="45.98378" lon="4.40526">
        <ele>805.2</ele>
        <time>2025-09-09T10:06:41Z</time>
      </trkpt>
      <trkpt lat="45.98377" lon="4.40527">
        <ele>804.8</ele>
        <time>2025-09-09T10:06:42Z</time>
      </trkpt>
      <trkpt lat="45.98376" lon="4.40528">
        <ele>804.8</ele>
        <time>2025-09-09T10:06:43Z</time>
      </trkpt>
      <trkpt lat="45.98375" lon="4.40528">
        <ele>804.6</ele>
        <time>2025-09-09T10:06:44Z</time>
      </trkpt>
      <trkpt lat="45.98374" lon="4.40528">
        <ele>804.6</ele>
        <time>2025-09-09T10:06:45Z</time>
      </trkpt>
      <trkpt lat="45.98374" lon="4.40529">
        <ele>804.4</ele>
        <time>2025-09-09T10:06:46Z</time>
      </trkpt>
      <trkpt lat="45.98374" lon="4.4053">
        <ele>804.4</ele>
        <time>2025-09-09T10:06:47Z</time>
      </trkpt>
      <trkpt lat="45.98373" lon="4.4053">
        <ele>804</ele>
        <time>2025-09-09T10:06:48Z</time>
      </trkpt>
      <trkpt lat="45.98372" lon="4.4053">
        <ele>804</ele>
        <time>2025-09-09T10:06:49Z</time>
      </trkpt>
      <trkpt lat="45.98371" lon="4.4053">
        <ele>803.8</ele>
        <time>2025-09-09T10:06:50Z</time>
      </trkpt>
      <trkpt lat="45.9837" lon="4.40529">
        <ele>803.8</ele>
        <time>2025-09-09T10:06:51Z</time>
      </trkpt>
      <trkpt lat="45.9837" lon="4.40527">
        <ele>803.4</ele>
        <time>2025-09-09T10:06:52Z</time>
      </trkpt>
      <trkpt lat="45.9837" lon="4.40525">
        <ele>803.4</ele>
        <time>2025-09-09T10:06:53Z</time>
      </trkpt>
      <trkpt lat="45.9837" lon="4.40524">
        <ele>803.2</ele>
        <time>2025-09-09T10:06:54Z</time>
      </trkpt>
      <trkpt lat="45.98369" lon="4.40524">
        <ele>803.2</ele>
        <time>2025-09-09T10:06:55Z</time>
      </trkpt>
      <trkpt lat="45.98368" lon="4.40524">
        <ele>802.8</ele>
        <time>2025-09-09T10:06:56Z</time>
      </trkpt>
      <trkpt lat="45.98367" lon="4.40525">
        <ele>802.4</ele>
        <time>2025-09-09T10:06:57Z</time>
      </trkpt>
      <trkpt lat="45.98365" lon="4.40526">
        <ele>802.4</ele>
        <time>2025-09-09T10:06:58Z</time>
      </trkpt>
      <trkpt lat="45.98364" lon="4.40526">
        <ele>802.2</ele>
        <time>2025-09-09T10:06:59Z</time>
      </trkpt>
      <trkpt lat="45.98363" lon="4.40527">
        <ele>802.2</ele>
        <time>2025-09-09T10:07:00Z</time>
      </trkpt>
      <trkpt lat="45.98362" lon="4.40527">
        <ele>802.2</ele>
        <time>2025-09-09T10:07:01Z</time>
      </trkpt>
      <trkpt lat="45.98361" lon="4.40527">
        <ele>802</ele>
        <time>2025-09-09T10:07:02Z</time>
      </trkpt>
      <trkpt lat="45.9836" lon="4.40526">
        <ele>801.6</ele>
        <time>2025-09-09T10:07:03Z</time>
      </trkpt>
      <trkpt lat="45.98359" lon="4.40526">
        <ele>801.2</ele>
        <time>2025-09-09T10:07:04Z</time>
      </trkpt>
      <trkpt lat="45.98358" lon="4.40526">
        <ele>801.2</ele>
        <time>2025-09-09T10:07:05Z</time>
      </trkpt>
      <trkpt lat="45.98357" lon="4.40527">
        <ele>800.8</ele>
        <time>2025-09-09T10:07:06Z</time>
      </trkpt>
      <trkpt lat="45.98356" lon="4.40527">
        <ele>800.8</ele>
        <time>2025-09-09T10:07:07Z</time>
      </trkpt>
      <trkpt lat="45.98356" lon="4.40527">
        <ele>800.8</ele>
        <time>2025-09-09T10:07:08Z</time>
      </trkpt>
      <trkpt lat="45.98355" lon="4.40527">
        <ele>800.8</ele>
        <time>2025-09-09T10:07:09Z</time>
      </trkpt>
      <trkpt lat="45.98354" lon="4.40527">
        <ele>800.8</ele>
        <time>2025-09-09T10:07:10Z</time>
      </trkpt>
      <trkpt lat="45.98353" lon="4.40527">
        <ele>800.8</ele>
        <time>2025-09-09T10:07:11Z</time>
      </trkpt>
      <trkpt lat="45.98352" lon="4.40527">
        <ele>800.6</ele>
        <time>2025-09-09T10:07:12Z</time>
      </trkpt>
      <trkpt lat="45.98351" lon="4.40527">
        <ele>800.6</ele>
        <time>2025-09-09T10:07:13Z</time>
      </trkpt>
      <trkpt lat="45.98351" lon="4.40527">
        <ele>800.6</ele>
        <time>2025-09-09T10:07:14Z</time>
      </trkpt>
      <trkpt lat="45.98349" lon="4.40527">
        <ele>800.2</ele>
        <time>2025-09-09T10:07:17Z</time>
      </trkpt>
      <trkpt lat="45.98347" lon="4.40528">
        <ele>800.2</ele>
        <time>2025-09-09T10:07:18Z</time>
      </trkpt>
      <trkpt lat="45.98345" lon="4.40528">
        <ele>799.8</ele>
        <time>2025-09-09T10:07:19Z</time>
      </trkpt>
      <trkpt lat="45.98343" lon="4.40528">
        <ele>799.2</ele>
        <time>2025-09-09T10:07:20Z</time>
      </trkpt>
      <trkpt lat="45.98342" lon="4.40529">
        <ele>799.2</ele>
        <time>2025-09-09T10:07:21Z</time>
      </trkpt>
      <trkpt lat="45.98341" lon="4.4053">
        <ele>799.2</ele>
        <time>2025-09-09T10:07:22Z</time>
      </trkpt>
      <trkpt lat="45.98341" lon="4.40531">
        <ele>798.8</ele>
        <time>2025-09-09T10:07:23Z</time>
      </trkpt>
      <trkpt lat="45.9834" lon="4.4053">
        <ele>798.8</ele>
        <time>2025-09-09T10:07:24Z</time>
      </trkpt>
      <trkpt lat="45.9834" lon="4.40531">
        <ele>798.6</ele>
        <time>2025-09-09T10:07:25Z</time>
      </trkpt>
      <trkpt lat="45.98338" lon="4.4053">
        <ele>798.6</ele>
        <time>2025-09-09T10:07:26Z</time>
      </trkpt>
      <trkpt lat="45.98337" lon="4.40529">
        <ele>798.4</ele>
        <time>2025-09-09T10:07:27Z</time>
      </trkpt>
      <trkpt lat="45.98336" lon="4.40528">
        <ele>798.4</ele>
        <time>2025-09-09T10:07:28Z</time>
      </trkpt>
      <trkpt lat="45.98335" lon="4.40528">
        <ele>798.2</ele>
        <time>2025-09-09T10:07:29Z</time>
      </trkpt>
      <trkpt lat="45.98335" lon="4.40528">
        <ele>798.2</ele>
        <time>2025-09-09T10:07:30Z</time>
      </trkpt>
      <trkpt lat="45.98334" lon="4.40528">
        <ele>798.2</ele>
        <time>2025-09-09T10:07:31Z</time>
      </trkpt>
      <trkpt lat="45.98332" lon="4.40527">
        <ele>798.2</ele>
        <time>2025-09-09T10:07:32Z</time>
      </trkpt>
      <trkpt lat="45.98331" lon="4.40526">
        <ele>797.8</ele>
        <time>2025-09-09T10:07:33Z</time>
      </trkpt>
      <trkpt lat="45.9833" lon="4.40525">
        <ele>797.4</ele>
        <time>2025-09-09T10:07:34Z</time>
      </trkpt>
      <trkpt lat="45.98329" lon="4.40524">
        <ele>797.4</ele>
        <time>2025-09-09T10:07:35Z</time>
      </trkpt>
      <trkpt lat="45.98328" lon="4.40524">
        <ele>797.4</ele>
        <time>2025-09-09T10:07:36Z</time>
      </trkpt>
      <trkpt lat="45.98328" lon="4.40525">
        <ele>797.2</ele>
        <time>2025-09-09T10:07:37Z</time>
      </trkpt>
      <trkpt lat="45.98327" lon="4.40525">
        <ele>797.2</ele>
        <time>2025-09-09T10:07:38Z</time>
      </trkpt>
      <trkpt lat="45.98327" lon="4.40526">
        <ele>797.2</ele>
        <time>2025-09-09T10:07:39Z</time>
      </trkpt>
      <trkpt lat="45.98328" lon="4.40526">
        <ele>797.2</ele>
        <time>2025-09-09T10:07:40Z</time>
      </trkpt>
      <trkpt lat="45.98328" lon="4.40527">
        <ele>797.2</ele>
        <time>2025-09-09T10:07:41Z</time>
      </trkpt>
      <trkpt lat="45.98328" lon="4.40527">
        <ele>797.2</ele>
        <time>2025-09-09T10:07:42Z</time>
      </trkpt>
      <trkpt lat="45.98328" lon="4.40528">
        <ele>797.2</ele>
        <time>2025-09-09T10:07:43Z</time>
      </trkpt>
      <trkpt lat="45.98323" lon="4.40526">
        <ele>796.8</ele>
        <time>2025-09-09T10:08:11Z</time>
      </trkpt>
      <trkpt lat="45.98322" lon="4.40526">
        <ele>796.6</ele>
        <time>2025-09-09T10:08:12Z</time>
      </trkpt>
      <trkpt lat="45.98322" lon="4.40526">
        <ele>796.6</ele>
        <time>2025-09-09T10:08:13Z</time>
      </trkpt>
      <trkpt lat="45.98322" lon="4.40526">
        <ele>796</ele>
        <time>2025-09-09T10:08:14Z</time>
      </trkpt>
      <trkpt lat="45.98322" lon="4.40527">
        <ele>796</ele>
        <time>2025-09-09T10:08:15Z</time>
      </trkpt>
      <trkpt lat="45.9832" lon="4.40528">
        <ele>795.6</ele>
        <time>2025-09-09T10:08:16Z</time>
      </trkpt>
      <trkpt lat="45.98317" lon="4.40528">
        <ele>795.6</ele>
        <time>2025-09-09T10:08:17Z</time>
      </trkpt>
      <trkpt lat="45.98312" lon="4.40528">
        <ele>795</ele>
        <time>2025-09-09T10:08:18Z</time>
      </trkpt>
      <trkpt lat="45.98307" lon="4.40528">
        <ele>795</ele>
        <time>2025-09-09T10:08:19Z</time>
      </trkpt>
      <trkpt lat="45.98305" lon="4.40527">
        <ele>794.6</ele>
        <time>2025-09-09T10:08:20Z</time>
      </trkpt>
      <trkpt lat="45.98303" lon="4.40528">
        <ele>794.2</ele>
        <time>2025-09-09T10:08:21Z</time>
      </trkpt>
      <trkpt lat="45.98301" lon="4.40529">
        <ele>794.2</ele>
        <time>2025-09-09T10:08:22Z</time>
      </trkpt>
      <trkpt lat="45.98299" lon="4.4053">
        <ele>793.4</ele>
        <time>2025-09-09T10:08:23Z</time>
      </trkpt>
      <trkpt lat="45.98297" lon="4.4053">
        <ele>792.6</ele>
        <time>2025-09-09T10:08:24Z</time>
      </trkpt>
      <trkpt lat="45.98295" lon="4.40529">
        <ele>792.4</ele>
        <time>2025-09-09T10:08:25Z</time>
      </trkpt>
      <trkpt lat="45.98294" lon="4.40529">
        <ele>791.8</ele>
        <time>2025-09-09T10:08:26Z</time>
      </trkpt>
      <trkpt lat="45.98293" lon="4.40528">
        <ele>791.4</ele>
        <time>2025-09-09T10:08:27Z</time>
      </trkpt>
      <trkpt lat="45.98291" lon="4.40527">
        <ele>790.8</ele>
        <time>2025-09-09T10:08:28Z</time>
      </trkpt>
      <trkpt lat="45.98288" lon="4.40525">
        <ele>790.4</ele>
        <time>2025-09-09T10:08:29Z</time>
      </trkpt>
      <trkpt lat="45.98285" lon="4.40523">
        <ele>790.2</ele>
        <time>2025-09-09T10:08:30Z</time>
      </trkpt>
      <trkpt lat="45.98284" lon="4.4052">
        <ele>789.8</ele>
        <time>2025-09-09T10:08:31Z</time>
      </trkpt>
      <trkpt lat="45.98283" lon="4.40518">
        <ele>789.4</ele>
        <time>2025-09-09T10:08:32Z</time>
      </trkpt>
      <trkpt lat="45.98282" lon="4.40517">
        <ele>789.2</ele>
        <time>2025-09-09T10:08:33Z</time>
      </trkpt>
      <trkpt lat="45.98281" lon="4.40516">
        <ele>789</ele>
        <time>2025-09-09T10:08:34Z</time>
      </trkpt>
      <trkpt lat="45.98281" lon="4.40513">
        <ele>789</ele>
        <time>2025-09-09T10:08:35Z</time>
      </trkpt>
      <trkpt lat="45.98281" lon="4.40513">
        <ele>788.6</ele>
        <time>2025-09-09T10:08:36Z</time>
      </trkpt>
      <trkpt lat="45.98279" lon="4.40512">
        <ele>788.2</ele>
        <time>2025-09-09T10:08:39Z</time>
      </trkpt>
      <trkpt lat="45.98278" lon="4.40512">
        <ele>787.8</ele>
        <time>2025-09-09T10:08:40Z</time>
      </trkpt>
      <trkpt lat="45.98277" lon="4.40511">
        <ele>787.6</ele>
        <time>2025-09-09T10:08:41Z</time>
      </trkpt>
      <trkpt lat="45.98274" lon="4.40511">
        <ele>787.6</ele>
        <time>2025-09-09T10:08:42Z</time>
      </trkpt>
      <trkpt lat="45.98272" lon="4.40508">
        <ele>787.2</ele>
        <time>2025-09-09T10:08:43Z</time>
      </trkpt>
      <trkpt lat="45.98269" lon="4.40504">
        <ele>787</ele>
        <time>2025-09-09T10:08:44Z</time>
      </trkpt>
      <trkpt lat="45.98268" lon="4.40499">
        <ele>786.2</ele>
        <time>2025-09-09T10:08:45Z</time>
      </trkpt>
      <trkpt lat="45.98268" lon="4.40495">
        <ele>785.6</ele>
        <time>2025-09-09T10:08:46Z</time>
      </trkpt>
      <trkpt lat="45.98267" lon="4.40492">
        <ele>785.6</ele>
        <time>2025-09-09T10:08:47Z</time>
      </trkpt>
      <trkpt lat="45.98265" lon="4.40489">
        <ele>785.2</ele>
        <time>2025-09-09T10:08:48Z</time>
      </trkpt>
      <trkpt lat="45.98263" lon="4.40485">
        <ele>784.6</ele>
        <time>2025-09-09T10:08:49Z</time>
      </trkpt>
      <trkpt lat="45.98261" lon="4.40481">
        <ele>784</ele>
        <time>2025-09-09T10:08:50Z</time>
      </trkpt>
      <trkpt lat="45.98261" lon="4.40476">
        <ele>783.6</ele>
        <time>2025-09-09T10:08:51Z</time>
      </trkpt>
      <trkpt lat="45.9826" lon="4.40473">
        <ele>783.2</ele>
        <time>2025-09-09T10:08:52Z</time>
      </trkpt>
      <trkpt lat="45.98259" lon="4.4047">
        <ele>782.4</ele>
        <time>2025-09-09T10:08:53Z</time>
      </trkpt>
      <trkpt lat="45.98257" lon="4.40467">
        <ele>782.4</ele>
        <time>2025-09-09T10:08:54Z</time>
      </trkpt>
      <trkpt lat="45.98256" lon="4.40465">
        <ele>782</ele>
        <time>2025-09-09T10:08:55Z</time>
      </trkpt>
      <trkpt lat="45.98254" lon="4.40462">
        <ele>782</ele>
        <time>2025-09-09T10:08:56Z</time>
      </trkpt>
      <trkpt lat="45.98252" lon="4.40458">
        <ele>781.6</ele>
        <time>2025-09-09T10:08:57Z</time>
      </trkpt>
      <trkpt lat="45.98251" lon="4.40454">
        <ele>781.6</ele>
        <time>2025-09-09T10:08:58Z</time>
      </trkpt>
      <trkpt lat="45.98249" lon="4.40451">
        <ele>781.2</ele>
        <time>2025-09-09T10:08:59Z</time>
      </trkpt>
      <trkpt lat="45.98248" lon="4.40448">
        <ele>780.8</ele>
        <time>2025-09-09T10:09:00Z</time>
      </trkpt>
      <trkpt lat="45.98244" lon="4.40447">
        <ele>780.8</ele>
        <time>2025-09-09T10:09:01Z</time>
      </trkpt>
      <trkpt lat="45.98241" lon="4.40446">
        <ele>780.4</ele>
        <time>2025-09-09T10:09:02Z</time>
      </trkpt>
      <trkpt lat="45.9824" lon="4.40445">
        <ele>780</ele>
        <time>2025-09-09T10:09:03Z</time>
      </trkpt>
      <trkpt lat="45.98239" lon="4.40444">
        <ele>779.6</ele>
        <time>2025-09-09T10:09:04Z</time>
      </trkpt>
      <trkpt lat="45.98238" lon="4.4044">
        <ele>779.4</ele>
        <time>2025-09-09T10:09:05Z</time>
      </trkpt>
      <trkpt lat="45.98237" lon="4.40436">
        <ele>779.4</ele>
        <time>2025-09-09T10:09:06Z</time>
      </trkpt>
      <trkpt lat="45.98236" lon="4.40433">
        <ele>778.2</ele>
        <time>2025-09-09T10:09:07Z</time>
      </trkpt>
      <trkpt lat="45.98236" lon="4.4043">
        <ele>777.8</ele>
        <time>2025-09-09T10:09:08Z</time>
      </trkpt>
      <trkpt lat="45.98234" lon="4.40419">
        <ele>777.4</ele>
        <time>2025-09-09T10:09:09Z</time>
      </trkpt>
      <trkpt lat="45.98233" lon="4.40414">
        <ele>777</ele>
        <time>2025-09-09T10:09:10Z</time>
      </trkpt>
      <trkpt lat="45.98233" lon="4.40405">
        <ele>776.6</ele>
        <time>2025-09-09T10:09:11Z</time>
      </trkpt>
      <trkpt lat="45.98232" lon="4.40398">
        <ele>776.6</ele>
        <time>2025-09-09T10:09:12Z</time>
      </trkpt>
      <trkpt lat="45.98231" lon="4.40395">
        <ele>776.2</ele>
        <time>2025-09-09T10:09:13Z</time>
      </trkpt>
      <trkpt lat="45.98232" lon="4.40389">
        <ele>775.8</ele>
        <time>2025-09-09T10:09:14Z</time>
      </trkpt>
      <trkpt lat="45.98232" lon="4.40387">
        <ele>775.4</ele>
        <time>2025-09-09T10:09:15Z</time>
      </trkpt>
      <trkpt lat="45.98232" lon="4.40381">
        <ele>775.4</ele>
        <time>2025-09-09T10:09:16Z</time>
      </trkpt>
      <trkpt lat="45.98233" lon="4.40378">
        <ele>775</ele>
        <time>2025-09-09T10:09:17Z</time>
      </trkpt>
      <trkpt lat="45.98231" lon="4.40376">
        <ele>774.6</ele>
        <time>2025-09-09T10:09:18Z</time>
      </trkpt>
      <trkpt lat="45.98232" lon="4.40372">
        <ele>774.4</ele>
        <time>2025-09-09T10:09:19Z</time>
      </trkpt>
      <trkpt lat="45.98231" lon="4.40369">
        <ele>774</ele>
        <time>2025-09-09T10:09:20Z</time>
      </trkpt>
      <trkpt lat="45.9823" lon="4.40366">
        <ele>774</ele>
        <time>2025-09-09T10:09:21Z</time>
      </trkpt>
      <trkpt lat="45.98228" lon="4.40361">
        <ele>773.6</ele>
        <time>2025-09-09T10:09:22Z</time>
      </trkpt>
      <trkpt lat="45.98227" lon="4.40356">
        <ele>773</ele>
        <time>2025-09-09T10:09:23Z</time>
      </trkpt>
      <trkpt lat="45.98225" lon="4.40353">
        <ele>771.8</ele>
        <time>2025-09-09T10:09:24Z</time>
      </trkpt>
      <trkpt lat="45.98223" lon="4.40352">
        <ele>771.8</ele>
        <time>2025-09-09T10:09:25Z</time>
      </trkpt>
      <trkpt lat="45.9822" lon="4.40349">
        <ele>771.8</ele>
        <time>2025-09-09T10:09:26Z</time>
      </trkpt>
      <trkpt lat="45.98217" lon="4.40347">
        <ele>771.4</ele>
        <time>2025-09-09T10:09:27Z</time>
      </trkpt>
      <trkpt lat="45.98215" lon="4.40345">
        <ele>771</ele>
        <time>2025-09-09T10:09:28Z</time>
      </trkpt>
      <trkpt lat="45.98211" lon="4.40342">
        <ele>770.6</ele>
        <time>2025-09-09T10:09:29Z</time>
      </trkpt>
      <trkpt lat="45.98208" lon="4.40339">
        <ele>770</ele>
        <time>2025-09-09T10:09:30Z</time>
      </trkpt>
      <trkpt lat="45.98203" lon="4.40331">
        <ele>769.8</ele>
        <time>2025-09-09T10:09:31Z</time>
      </trkpt>
      <trkpt lat="45.98201" lon="4.40325">
        <ele>769.2</ele>
        <time>2025-09-09T10:09:32Z</time>
      </trkpt>
      <trkpt lat="45.98202" lon="4.40321">
        <ele>768.8</ele>
        <time>2025-09-09T10:09:33Z</time>
      </trkpt>
      <trkpt lat="45.982" lon="4.40317">
        <ele>768.6</ele>
        <time>2025-09-09T10:09:34Z</time>
      </trkpt>
      <trkpt lat="45.98199" lon="4.40311">
        <ele>768</ele>
        <time>2025-09-09T10:09:35Z</time>
      </trkpt>
      <trkpt lat="45.98197" lon="4.40305">
        <ele>766.8</ele>
        <time>2025-09-09T10:09:36Z</time>
      </trkpt>
      <trkpt lat="45.98198" lon="4.40302">
        <ele>766.2</ele>
        <time>2025-09-09T10:09:37Z</time>
      </trkpt>
      <trkpt lat="45.98195" lon="4.40296">
        <ele>765.6</ele>
        <time>2025-09-09T10:09:38Z</time>
      </trkpt>
      <trkpt lat="45.98194" lon="4.40293">
        <ele>764.8</ele>
        <time>2025-09-09T10:09:39Z</time>
      </trkpt>
      <trkpt lat="45.98191" lon="4.40287">
        <ele>764.6</ele>
        <time>2025-09-09T10:09:40Z</time>
      </trkpt>
      <trkpt lat="45.98186" lon="4.4028">
        <ele>764.2</ele>
        <time>2025-09-09T10:09:41Z</time>
      </trkpt>
      <trkpt lat="45.98183" lon="4.40279">
        <ele>763.4</ele>
        <time>2025-09-09T10:09:42Z</time>
      </trkpt>
      <trkpt lat="45.9818" lon="4.40276">
        <ele>762.6</ele>
        <time>2025-09-09T10:09:43Z</time>
      </trkpt>
      <trkpt lat="45.98177" lon="4.40273">
        <ele>762.2</ele>
        <time>2025-09-09T10:09:44Z</time>
      </trkpt>
      <trkpt lat="45.98174" lon="4.40268">
        <ele>761.8</ele>
        <time>2025-09-09T10:09:45Z</time>
      </trkpt>
      <trkpt lat="45.98172" lon="4.40264">
        <ele>761.2</ele>
        <time>2025-09-09T10:09:46Z</time>
      </trkpt>
      <trkpt lat="45.98171" lon="4.40261">
        <ele>760.4</ele>
        <time>2025-09-09T10:09:47Z</time>
      </trkpt>
      <trkpt lat="45.9817" lon="4.40258">
        <ele>760.2</ele>
        <time>2025-09-09T10:09:48Z</time>
      </trkpt>
      <trkpt lat="45.98169" lon="4.40256">
        <ele>759.8</ele>
        <time>2025-09-09T10:09:49Z</time>
      </trkpt>
      <trkpt lat="45.98167" lon="4.40254">
        <ele>759.8</ele>
        <time>2025-09-09T10:09:50Z</time>
      </trkpt>
      <trkpt lat="45.98165" lon="4.40251">
        <ele>759</ele>
        <time>2025-09-09T10:09:51Z</time>
      </trkpt>
      <trkpt lat="45.98163" lon="4.40248">
        <ele>758.4</ele>
        <time>2025-09-09T10:09:52Z</time>
      </trkpt>
      <trkpt lat="45.9816" lon="4.40245">
        <ele>758.4</ele>
        <time>2025-09-09T10:09:53Z</time>
      </trkpt>
      <trkpt lat="45.98158" lon="4.40241">
        <ele>756.8</ele>
        <time>2025-09-09T10:09:54Z</time>
      </trkpt>
      <trkpt lat="45.98155" lon="4.40239">
        <ele>756.8</ele>
        <time>2025-09-09T10:09:55Z</time>
      </trkpt>
      <trkpt lat="45.98153" lon="4.40238">
        <ele>756.8</ele>
        <time>2025-09-09T10:09:56Z</time>
      </trkpt>
      <trkpt lat="45.98147" lon="4.40234">
        <ele>756.2</ele>
        <time>2025-09-09T10:09:57Z</time>
      </trkpt>
      <trkpt lat="45.98145" lon="4.4023">
        <ele>755.8</ele>
        <time>2025-09-09T10:09:58Z</time>
      </trkpt>
      <trkpt lat="45.98143" lon="4.40229">
        <ele>755.4</ele>
        <time>2025-09-09T10:09:59Z</time>
      </trkpt>
      <trkpt lat="45.9814" lon="4.40228">
        <ele>755.4</ele>
        <time>2025-09-09T10:10:00Z</time>
      </trkpt>
      <trkpt lat="45.98137" lon="4.40224">
        <ele>754.6</ele>
        <time>2025-09-09T10:10:01Z</time>
      </trkpt>
      <trkpt lat="45.98137" lon="4.40224">
        <ele>754</ele>
        <time>2025-09-09T10:10:02Z</time>
      </trkpt>
      <trkpt lat="45.98137" lon="4.40224">
        <ele>753.4</ele>
        <time>2025-09-09T10:10:03Z</time>
      </trkpt>
      <trkpt lat="45.98137" lon="4.40224">
        <ele>752.8</ele>
        <time>2025-09-09T10:10:04Z</time>
      </trkpt>
      <trkpt lat="45.98132" lon="4.40214">
        <ele>751.8</ele>
        <time>2025-09-09T10:10:06Z</time>
      </trkpt>
      <trkpt lat="45.9813" lon="4.40212">
        <ele>751.4</ele>
        <time>2025-09-09T10:10:07Z</time>
      </trkpt>
      <trkpt lat="45.98129" lon="4.40209">
        <ele>751</ele>
        <time>2025-09-09T10:10:08Z</time>
      </trkpt>
      <trkpt lat="45.98128" lon="4.40207">
        <ele>751</ele>
        <time>2025-09-09T10:10:09Z</time>
      </trkpt>
      <trkpt lat="45.98126" lon="4.40206">
        <ele>750.4</ele>
        <time>2025-09-09T10:10:10Z</time>
      </trkpt>
      <trkpt lat="45.98124" lon="4.40203">
        <ele>750</ele>
        <time>2025-09-09T10:10:11Z</time>
      </trkpt>
      <trkpt lat="45.98122" lon="4.402">
        <ele>749.8</ele>
        <time>2025-09-09T10:10:12Z</time>
      </trkpt>
      <trkpt lat="45.98122" lon="4.40196">
        <ele>749.8</ele>
        <time>2025-09-09T10:10:13Z</time>
      </trkpt>
      <trkpt lat="45.98121" lon="4.40193">
        <ele>749.4</ele>
        <time>2025-09-09T10:10:14Z</time>
      </trkpt>
      <trkpt lat="45.98119" lon="4.40189">
        <ele>749.2</ele>
        <time>2025-09-09T10:10:15Z</time>
      </trkpt>
      <trkpt lat="45.98117" lon="4.40185">
        <ele>749</ele>
        <time>2025-09-09T10:10:16Z</time>
      </trkpt>
      <trkpt lat="45.98115" lon="4.40181">
        <ele>748.6</ele>
        <time>2025-09-09T10:10:17Z</time>
      </trkpt>
      <trkpt lat="45.98114" lon="4.40176">
        <ele>748.6</ele>
        <time>2025-09-09T10:10:18Z</time>
      </trkpt>
      <trkpt lat="45.98112" lon="4.40171">
        <ele>748</ele>
        <time>2025-09-09T10:10:19Z</time>
      </trkpt>
      <trkpt lat="45.98112" lon="4.40166">
        <ele>747.2</ele>
        <time>2025-09-09T10:10:20Z</time>
      </trkpt>
      <trkpt lat="45.98111" lon="4.40162">
        <ele>746.8</ele>
        <time>2025-09-09T10:10:21Z</time>
      </trkpt>
      <trkpt lat="45.9811" lon="4.40158">
        <ele>746.8</ele>
        <time>2025-09-09T10:10:22Z</time>
      </trkpt>
      <trkpt lat="45.98107" lon="4.40153">
        <ele>746.4</ele>
        <time>2025-09-09T10:10:23Z</time>
      </trkpt>
      <trkpt lat="45.98105" lon="4.40148">
        <ele>746</ele>
        <time>2025-09-09T10:10:24Z</time>
      </trkpt>
      <trkpt lat="45.98103" lon="4.40144">
        <ele>746</ele>
        <time>2025-09-09T10:10:25Z</time>
      </trkpt>
      <trkpt lat="45.98102" lon="4.40139">
        <ele>745.4</ele>
        <time>2025-09-09T10:10:26Z</time>
      </trkpt>
      <trkpt lat="45.981" lon="4.40133">
        <ele>745.2</ele>
        <time>2025-09-09T10:10:27Z</time>
      </trkpt>
      <trkpt lat="45.98098" lon="4.40129">
        <ele>745.2</ele>
        <time>2025-09-09T10:10:28Z</time>
      </trkpt>
      <trkpt lat="45.98097" lon="4.40123">
        <ele>744.2</ele>
        <time>2025-09-09T10:10:29Z</time>
      </trkpt>
      <trkpt lat="45.98096" lon="4.4012">
        <ele>743.8</ele>
        <time>2025-09-09T10:10:30Z</time>
      </trkpt>
      <trkpt lat="45.98096" lon="4.40116">
        <ele>743.2</ele>
        <time>2025-09-09T10:10:31Z</time>
      </trkpt>
      <trkpt lat="45.98096" lon="4.40113">
        <ele>742.4</ele>
        <time>2025-09-09T10:10:32Z</time>
      </trkpt>
      <trkpt lat="45.98095" lon="4.40109">
        <ele>742</ele>
        <time>2025-09-09T10:10:33Z</time>
      </trkpt>
      <trkpt lat="45.98094" lon="4.40104">
        <ele>741.2</ele>
        <time>2025-09-09T10:10:34Z</time>
      </trkpt>
      <trkpt lat="45.98094" lon="4.40099">
        <ele>740.6</ele>
        <time>2025-09-09T10:10:35Z</time>
      </trkpt>
      <trkpt lat="45.98093" lon="4.40094">
        <ele>739.8</ele>
        <time>2025-09-09T10:10:36Z</time>
      </trkpt>
      <trkpt lat="45.98093" lon="4.40088">
        <ele>739.2</ele>
        <time>2025-09-09T10:10:37Z</time>
      </trkpt>
      <trkpt lat="45.98094" lon="4.40085">
        <ele>738.6</ele>
        <time>2025-09-09T10:10:38Z</time>
      </trkpt>
      <trkpt lat="45.98094" lon="4.40083">
        <ele>738</ele>
        <time>2025-09-09T10:10:39Z</time>
      </trkpt>
      <trkpt lat="45.98096" lon="4.40078">
        <ele>737.4</ele>
        <time>2025-09-09T10:10:40Z</time>
      </trkpt>
      <trkpt lat="45.98097" lon="4.40072">
        <ele>736.6</ele>
        <time>2025-09-09T10:10:41Z</time>
      </trkpt>
      <trkpt lat="45.98097" lon="4.40066">
        <ele>735.6</ele>
        <time>2025-09-09T10:10:42Z</time>
      </trkpt>
      <trkpt lat="45.98096" lon="4.40061">
        <ele>734.8</ele>
        <time>2025-09-09T10:10:43Z</time>
      </trkpt>
      <trkpt lat="45.98095" lon="4.40056">
        <ele>734</ele>
        <time>2025-09-09T10:10:44Z</time>
      </trkpt>
      <trkpt lat="45.98091" lon="4.40048">
        <ele>733.6</ele>
        <time>2025-09-09T10:10:45Z</time>
      </trkpt>
      <trkpt lat="45.98089" lon="4.40045">
        <ele>733</ele>
        <time>2025-09-09T10:10:46Z</time>
      </trkpt>
      <trkpt lat="45.98088" lon="4.40044">
        <ele>732.2</ele>
        <time>2025-09-09T10:10:47Z</time>
      </trkpt>
      <trkpt lat="45.98086" lon="4.40045">
        <ele>731.8</ele>
        <time>2025-09-09T10:10:48Z</time>
      </trkpt>
      <trkpt lat="45.98085" lon="4.40046">
        <ele>731.4</ele>
        <time>2025-09-09T10:10:49Z</time>
      </trkpt>
      <trkpt lat="45.98083" lon="4.40048">
        <ele>731.4</ele>
        <time>2025-09-09T10:10:50Z</time>
      </trkpt>
      <trkpt lat="45.98082" lon="4.40049">
        <ele>731</ele>
        <time>2025-09-09T10:10:51Z</time>
      </trkpt>
      <trkpt lat="45.98081" lon="4.4005">
        <ele>731.2</ele>
        <time>2025-09-09T10:10:52Z</time>
      </trkpt>
      <trkpt lat="45.9808" lon="4.40052">
        <ele>731.2</ele>
        <time>2025-09-09T10:10:53Z</time>
      </trkpt>
      <trkpt lat="45.98079" lon="4.40055">
        <ele>731</ele>
        <time>2025-09-09T10:10:54Z</time>
      </trkpt>
      <trkpt lat="45.98078" lon="4.40057">
        <ele>731</ele>
        <time>2025-09-09T10:10:55Z</time>
      </trkpt>
      <trkpt lat="45.98078" lon="4.40058">
        <ele>730.8</ele>
        <time>2025-09-09T10:10:56Z</time>
      </trkpt>
      <trkpt lat="45.98078" lon="4.40059">
        <ele>730.8</ele>
        <time>2025-09-09T10:10:57Z</time>
      </trkpt>
      <trkpt lat="45.98078" lon="4.40059">
        <ele>730.8</ele>
        <time>2025-09-09T10:10:58Z</time>
      </trkpt>
      <trkpt lat="45.98076" lon="4.40061">
        <ele>730.6</ele>
        <time>2025-09-09T10:11:15Z</time>
      </trkpt>
      <trkpt lat="45.98075" lon="4.40062">
        <ele>730.6</ele>
        <time>2025-09-09T10:11:16Z</time>
      </trkpt>
      <trkpt lat="45.98075" lon="4.40063">
        <ele>730.6</ele>
        <time>2025-09-09T10:11:17Z</time>
      </trkpt>
      <trkpt lat="45.98075" lon="4.40064">
        <ele>730.6</ele>
        <time>2025-09-09T10:11:18Z</time>
      </trkpt>
      <trkpt lat="45.98075" lon="4.40066">
        <ele>730.6</ele>
        <time>2025-09-09T10:11:19Z</time>
      </trkpt>
      <trkpt lat="45.98075" lon="4.40067">
        <ele>730.6</ele>
        <time>2025-09-09T10:11:20Z</time>
      </trkpt>
      <trkpt lat="45.98075" lon="4.40068">
        <ele>730.6</ele>
        <time>2025-09-09T10:11:21Z</time>
      </trkpt>
      <trkpt lat="45.98075" lon="4.40068">
        <ele>730.6</ele>
        <time>2025-09-09T10:11:22Z</time>
      </trkpt>
      <trkpt lat="45.98075" lon="4.40069">
        <ele>730.6</ele>
        <time>2025-09-09T10:11:23Z</time>
      </trkpt>
      <trkpt lat="45.98075" lon="4.4007">
        <ele>730.6</ele>
        <time>2025-09-09T10:11:24Z</time>
      </trkpt>
      <trkpt lat="45.98074" lon="4.40072">
        <ele>730.6</ele>
        <time>2025-09-09T10:11:25Z</time>
      </trkpt>
      <trkpt lat="45.98073" lon="4.40074">
        <ele>730.4</ele>
        <time>2025-09-09T10:11:26Z</time>
      </trkpt>
      <trkpt lat="45.98072" lon="4.40075">
        <ele>730.4</ele>
        <time>2025-09-09T10:11:27Z</time>
      </trkpt>
      <trkpt lat="45.98071" lon="4.40076">
        <ele>730.8</ele>
        <time>2025-09-09T10:11:28Z</time>
      </trkpt>
      <trkpt lat="45.9807" lon="4.40077">
        <ele>731</ele>
        <time>2025-09-09T10:11:29Z</time>
      </trkpt>
      <trkpt lat="45.98069" lon="4.40077">
        <ele>731.4</ele>
        <time>2025-09-09T10:11:30Z</time>
      </trkpt>
      <trkpt lat="45.98068" lon="4.40078">
        <ele>731.4</ele>
        <time>2025-09-09T10:11:31Z</time>
      </trkpt>
      <trkpt lat="45.98067" lon="4.40079">
        <ele>731.4</ele>
        <time>2025-09-09T10:11:32Z</time>
      </trkpt>
      <trkpt lat="45.98066" lon="4.40081">
        <ele>731.6</ele>
        <time>2025-09-09T10:11:33Z</time>
      </trkpt>
      <trkpt lat="45.98065" lon="4.40082">
        <ele>731.6</ele>
        <time>2025-09-09T10:11:34Z</time>
      </trkpt>
      <trkpt lat="45.98064" lon="4.40084">
        <ele>731</ele>
        <time>2025-09-09T10:11:35Z</time>
      </trkpt>
      <trkpt lat="45.98063" lon="4.40086">
        <ele>731.2</ele>
        <time>2025-09-09T10:11:36Z</time>
      </trkpt>
      <trkpt lat="45.98062" lon="4.40088">
        <ele>731.2</ele>
        <time>2025-09-09T10:11:37Z</time>
      </trkpt>
      <trkpt lat="45.9806" lon="4.4009">
        <ele>731.2</ele>
        <time>2025-09-09T10:11:38Z</time>
      </trkpt>
      <trkpt lat="45.98058" lon="4.40092">
        <ele>731</ele>
        <time>2025-09-09T10:11:39Z</time>
      </trkpt>
      <trkpt lat="45.98057" lon="4.40093">
        <ele>730.8</ele>
        <time>2025-09-09T10:11:40Z</time>
      </trkpt>
      <trkpt lat="45.98055" lon="4.40094">
        <ele>730.6</ele>
        <time>2025-09-09T10:11:41Z</time>
      </trkpt>
      <trkpt lat="45.98053" lon="4.40096">
        <ele>730.6</ele>
        <time>2025-09-09T10:11:42Z</time>
      </trkpt>
      <trkpt lat="45.98051" lon="4.40098">
        <ele>730.4</ele>
        <time>2025-09-09T10:11:43Z</time>
      </trkpt>
      <trkpt lat="45.98049" lon="4.40101">
        <ele>729.8</ele>
        <time>2025-09-09T10:11:44Z</time>
      </trkpt>
      <trkpt lat="45.98047" lon="4.40104">
        <ele>729.2</ele>
        <time>2025-09-09T10:11:45Z</time>
      </trkpt>
      <trkpt lat="45.98044" lon="4.40107">
        <ele>729.2</ele>
        <time>2025-09-09T10:11:46Z</time>
      </trkpt>
      <trkpt lat="45.98042" lon="4.4011">
        <ele>728.8</ele>
        <time>2025-09-09T10:11:47Z</time>
      </trkpt>
      <trkpt lat="45.9804" lon="4.40112">
        <ele>728.4</ele>
        <time>2025-09-09T10:11:48Z</time>
      </trkpt>
      <trkpt lat="45.98039" lon="4.40114">
        <ele>727.8</ele>
        <time>2025-09-09T10:11:49Z</time>
      </trkpt>
      <trkpt lat="45.98037" lon="4.40116">
        <ele>727.8</ele>
        <time>2025-09-09T10:11:50Z</time>
      </trkpt>
      <trkpt lat="45.98036" lon="4.40117">
        <ele>727.8</ele>
        <time>2025-09-09T10:11:51Z</time>
      </trkpt>
      <trkpt lat="45.98034" lon="4.40119">
        <ele>727.4</ele>
        <time>2025-09-09T10:11:52Z</time>
      </trkpt>
      <trkpt lat="45.98032" lon="4.40121">
        <ele>727</ele>
        <time>2025-09-09T10:11:53Z</time>
      </trkpt>
      <trkpt lat="45.98031" lon="4.40122">
        <ele>727</ele>
        <time>2025-09-09T10:11:54Z</time>
      </trkpt>
      <trkpt lat="45.9803" lon="4.40124">
        <ele>726.8</ele>
        <time>2025-09-09T10:11:55Z</time>
      </trkpt>
      <trkpt lat="45.98028" lon="4.40127">
        <ele>726.8</ele>
        <time>2025-09-09T10:11:56Z</time>
      </trkpt>
      <trkpt lat="45.98026" lon="4.4013">
        <ele>726.4</ele>
        <time>2025-09-09T10:11:57Z</time>
      </trkpt>
      <trkpt lat="45.98025" lon="4.40132">
        <ele>726.4</ele>
        <time>2025-09-09T10:11:58Z</time>
      </trkpt>
      <trkpt lat="45.98023" lon="4.40134">
        <ele>726</ele>
        <time>2025-09-09T10:11:59Z</time>
      </trkpt>
      <trkpt lat="45.98022" lon="4.40136">
        <ele>726</ele>
        <time>2025-09-09T10:12:00Z</time>
      </trkpt>
      <trkpt lat="45.9802" lon="4.40138">
        <ele>725.2</ele>
        <time>2025-09-09T10:12:01Z</time>
      </trkpt>
      <trkpt lat="45.98019" lon="4.40141">
        <ele>725.2</ele>
        <time>2025-09-09T10:12:02Z</time>
      </trkpt>
      <trkpt lat="45.98017" lon="4.40144">
        <ele>725</ele>
        <time>2025-09-09T10:12:03Z</time>
      </trkpt>
      <trkpt lat="45.98015" lon="4.40146">
        <ele>724.6</ele>
        <time>2025-09-09T10:12:04Z</time>
      </trkpt>
      <trkpt lat="45.98013" lon="4.40148">
        <ele>724.2</ele>
        <time>2025-09-09T10:12:05Z</time>
      </trkpt>
      <trkpt lat="45.98011" lon="4.40151">
        <ele>724.2</ele>
        <time>2025-09-09T10:12:06Z</time>
      </trkpt>
      <trkpt lat="45.98008" lon="4.40154">
        <ele>723</ele>
        <time>2025-09-09T10:12:07Z</time>
      </trkpt>
      <trkpt lat="45.98006" lon="4.40157">
        <ele>722.8</ele>
        <time>2025-09-09T10:12:08Z</time>
      </trkpt>
      <trkpt lat="45.98004" lon="4.4016">
        <ele>723</ele>
        <time>2025-09-09T10:12:09Z</time>
      </trkpt>
      <trkpt lat="45.98002" lon="4.40162">
        <ele>723</ele>
        <time>2025-09-09T10:12:10Z</time>
      </trkpt>
      <trkpt lat="45.97999" lon="4.40166">
        <ele>722.6</ele>
        <time>2025-09-09T10:12:11Z</time>
      </trkpt>
      <trkpt lat="45.97997" lon="4.40169">
        <ele>722.6</ele>
        <time>2025-09-09T10:12:12Z</time>
      </trkpt>
      <trkpt lat="45.97994" lon="4.40172">
        <ele>722.4</ele>
        <time>2025-09-09T10:12:13Z</time>
      </trkpt>
      <trkpt lat="45.97992" lon="4.40175">
        <ele>721.8</ele>
        <time>2025-09-09T10:12:14Z</time>
      </trkpt>
      <trkpt lat="45.97989" lon="4.40177">
        <ele>721.6</ele>
        <time>2025-09-09T10:12:15Z</time>
      </trkpt>
      <trkpt lat="45.97987" lon="4.40179">
        <ele>721.2</ele>
        <time>2025-09-09T10:12:16Z</time>
      </trkpt>
      <trkpt lat="45.97986" lon="4.40179">
        <ele>721.2</ele>
        <time>2025-09-09T10:12:17Z</time>
      </trkpt>
      <trkpt lat="45.97985" lon="4.4018">
        <ele>721.2</ele>
        <time>2025-09-09T10:12:18Z</time>
      </trkpt>
      <trkpt lat="45.97984" lon="4.40181">
        <ele>721.2</ele>
        <time>2025-09-09T10:12:19Z</time>
      </trkpt>
      <trkpt lat="45.97984" lon="4.40181">
        <ele>721.2</ele>
        <time>2025-09-09T10:12:20Z</time>
      </trkpt>
      <trkpt lat="45.97984" lon="4.40181">
        <ele>721.2</ele>
        <time>2025-09-09T10:12:21Z</time>
      </trkpt>
      <trkpt lat="45.97983" lon="4.40182">
        <ele>721</ele>
        <time>2025-09-09T10:12:26Z</time>
      </trkpt>
      <trkpt lat="45.97982" lon="4.40181">
        <ele>721</ele>
        <time>2025-09-09T10:12:27Z</time>
      </trkpt>
      <trkpt lat="45.9798" lon="4.4018">
        <ele>721</ele>
        <time>2025-09-09T10:12:28Z</time>
      </trkpt>
      <trkpt lat="45.97978" lon="4.4018">
        <ele>721</ele>
        <time>2025-09-09T10:12:29Z</time>
      </trkpt>
      <trkpt lat="45.97977" lon="4.40177">
        <ele>721</ele>
        <time>2025-09-09T10:12:30Z</time>
      </trkpt>
      <trkpt lat="45.97974" lon="4.40175">
        <ele>720.6</ele>
        <time>2025-09-09T10:12:31Z</time>
      </trkpt>
      <trkpt lat="45.97972" lon="4.40173">
        <ele>720.2</ele>
        <time>2025-09-09T10:12:32Z</time>
      </trkpt>
      <trkpt lat="45.9797" lon="4.40171">
        <ele>720.2</ele>
        <time>2025-09-09T10:12:33Z</time>
      </trkpt>
      <trkpt lat="45.97968" lon="4.4017">
        <ele>720.2</ele>
        <time>2025-09-09T10:12:34Z</time>
      </trkpt>
      <trkpt lat="45.97965" lon="4.40168">
        <ele>720.2</ele>
        <time>2025-09-09T10:12:35Z</time>
      </trkpt>
      <trkpt lat="45.97963" lon="4.40167">
        <ele>720.2</ele>
        <time>2025-09-09T10:12:36Z</time>
      </trkpt>
      <trkpt lat="45.97961" lon="4.40165">
        <ele>720.2</ele>
        <time>2025-09-09T10:12:37Z</time>
      </trkpt>
      <trkpt lat="45.97959" lon="4.40163">
        <ele>720.6</ele>
        <time>2025-09-09T10:12:38Z</time>
      </trkpt>
      <trkpt lat="45.97958" lon="4.40161">
        <ele>720.6</ele>
        <time>2025-09-09T10:12:39Z</time>
      </trkpt>
      <trkpt lat="45.97957" lon="4.4016">
        <ele>721.2</ele>
        <time>2025-09-09T10:12:40Z</time>
      </trkpt>
      <trkpt lat="45.97956" lon="4.40159">
        <ele>721.2</ele>
        <time>2025-09-09T10:12:41Z</time>
      </trkpt>
      <trkpt lat="45.97954" lon="4.40159">
        <ele>721.2</ele>
        <time>2025-09-09T10:12:42Z</time>
      </trkpt>
      <trkpt lat="45.97954" lon="4.40162">
        <ele>721.2</ele>
        <time>2025-09-09T10:12:43Z</time>
      </trkpt>
      <trkpt lat="45.97952" lon="4.40161">
        <ele>721.4</ele>
        <time>2025-09-09T10:12:44Z</time>
      </trkpt>
      <trkpt lat="45.97951" lon="4.40159">
        <ele>721.8</ele>
        <time>2025-09-09T10:12:45Z</time>
      </trkpt>
      <trkpt lat="45.97951" lon="4.40158">
        <ele>721.8</ele>
        <time>2025-09-09T10:12:46Z</time>
      </trkpt>
      <trkpt lat="45.9795" lon="4.40158">
        <ele>721.8</ele>
        <time>2025-09-09T10:12:47Z</time>
      </trkpt>
      <trkpt lat="45.97948" lon="4.40156">
        <ele>722</ele>
        <time>2025-09-09T10:12:50Z</time>
      </trkpt>
      <trkpt lat="45.97948" lon="4.40156">
        <ele>722.6</ele>
        <time>2025-09-09T10:12:51Z</time>
      </trkpt>
      <trkpt lat="45.97946" lon="4.40153">
        <ele>722.6</ele>
        <time>2025-09-09T10:12:52Z</time>
      </trkpt>
      <trkpt lat="45.97944" lon="4.4015">
        <ele>722.6</ele>
        <time>2025-09-09T10:12:53Z</time>
      </trkpt>
      <trkpt lat="45.97943" lon="4.40147">
        <ele>722.6</ele>
        <time>2025-09-09T10:12:54Z</time>
      </trkpt>
      <trkpt lat="45.97941" lon="4.40146">
        <ele>722.6</ele>
        <time>2025-09-09T10:12:55Z</time>
      </trkpt>
      <trkpt lat="45.97941" lon="4.40144">
        <ele>722.8</ele>
        <time>2025-09-09T10:12:56Z</time>
      </trkpt>
      <trkpt lat="45.97941" lon="4.40142">
        <ele>722.8</ele>
        <time>2025-09-09T10:12:57Z</time>
      </trkpt>
      <trkpt lat="45.97941" lon="4.4014">
        <ele>723.2</ele>
        <time>2025-09-09T10:12:58Z</time>
      </trkpt>
      <trkpt lat="45.97941" lon="4.40139">
        <ele>723.4</ele>
        <time>2025-09-09T10:12:59Z</time>
      </trkpt>
      <trkpt lat="45.97941" lon="4.40137">
        <ele>723.4</ele>
        <time>2025-09-09T10:13:00Z</time>
      </trkpt>
      <trkpt lat="45.9794" lon="4.40136">
        <ele>723.4</ele>
        <time>2025-09-09T10:13:01Z</time>
      </trkpt>
      <trkpt lat="45.97939" lon="4.40134">
        <ele>723.6</ele>
        <time>2025-09-09T10:13:02Z</time>
      </trkpt>
      <trkpt lat="45.97938" lon="4.40132">
        <ele>723.6</ele>
        <time>2025-09-09T10:13:03Z</time>
      </trkpt>
      <trkpt lat="45.97937" lon="4.4013">
        <ele>724</ele>
        <time>2025-09-09T10:13:04Z</time>
      </trkpt>
      <trkpt lat="45.97935" lon="4.40128">
        <ele>724</ele>
        <time>2025-09-09T10:13:05Z</time>
      </trkpt>
      <trkpt lat="45.97934" lon="4.40126">
        <ele>724.4</ele>
        <time>2025-09-09T10:13:06Z</time>
      </trkpt>
      <trkpt lat="45.97932" lon="4.40124">
        <ele>724.4</ele>
        <time>2025-09-09T10:13:07Z</time>
      </trkpt>
      <trkpt lat="45.97932" lon="4.40122">
        <ele>724.4</ele>
        <time>2025-09-09T10:13:08Z</time>
      </trkpt>
      <trkpt lat="45.9793" lon="4.4012">
        <ele>724.4</ele>
        <time>2025-09-09T10:13:09Z</time>
      </trkpt>
      <trkpt lat="45.97929" lon="4.40119">
        <ele>725.2</ele>
        <time>2025-09-09T10:13:10Z</time>
      </trkpt>
      <trkpt lat="45.97927" lon="4.40117">
        <ele>725.2</ele>
        <time>2025-09-09T10:13:11Z</time>
      </trkpt>
      <trkpt lat="45.97926" lon="4.40116">
        <ele>725.6</ele>
        <time>2025-09-09T10:13:12Z</time>
      </trkpt>
      <trkpt lat="45.97926" lon="4.40114">
        <ele>725.8</ele>
        <time>2025-09-09T10:13:13Z</time>
      </trkpt>
      <trkpt lat="45.97925" lon="4.40113">
        <ele>726</ele>
        <time>2025-09-09T10:13:14Z</time>
      </trkpt>
      <trkpt lat="45.97925" lon="4.40111">
        <ele>726</ele>
        <time>2025-09-09T10:13:15Z</time>
      </trkpt>
      <trkpt lat="45.97924" lon="4.40109">
        <ele>726.2</ele>
        <time>2025-09-09T10:13:16Z</time>
      </trkpt>
      <trkpt lat="45.97924" lon="4.40109">
        <ele>726.2</ele>
        <time>2025-09-09T10:13:17Z</time>
      </trkpt>
      <trkpt lat="45.97924" lon="4.40108">
        <ele>726.2</ele>
        <time>2025-09-09T10:13:18Z</time>
      </trkpt>
      <trkpt lat="45.97924" lon="4.40108">
        <ele>726.6</ele>
        <time>2025-09-09T10:13:19Z</time>
      </trkpt>
      <trkpt lat="45.97925" lon="4.40103">
        <ele>726.8</ele>
        <time>2025-09-09T10:13:33Z</time>
      </trkpt>
      <trkpt lat="45.97923" lon="4.401">
        <ele>727</ele>
        <time>2025-09-09T10:13:34Z</time>
      </trkpt>
      <trkpt lat="45.97923" lon="4.40098">
        <ele>727</ele>
        <time>2025-09-09T10:13:35Z</time>
      </trkpt>
      <trkpt lat="45.97922" lon="4.40097">
        <ele>727</ele>
        <time>2025-09-09T10:13:36Z</time>
      </trkpt>
      <trkpt lat="45.97921" lon="4.40096">
        <ele>727.2</ele>
        <time>2025-09-09T10:13:37Z</time>
      </trkpt>
      <trkpt lat="45.97921" lon="4.40095">
        <ele>727.4</ele>
        <time>2025-09-09T10:13:38Z</time>
      </trkpt>
      <trkpt lat="45.97919" lon="4.40094">
        <ele>727.4</ele>
        <time>2025-09-09T10:13:39Z</time>
      </trkpt>
      <trkpt lat="45.97917" lon="4.40093">
        <ele>727.8</ele>
        <time>2025-09-09T10:13:40Z</time>
      </trkpt>
      <trkpt lat="45.97916" lon="4.40092">
        <ele>728.2</ele>
        <time>2025-09-09T10:13:41Z</time>
      </trkpt>
      <trkpt lat="45.97914" lon="4.4009">
        <ele>728.2</ele>
        <time>2025-09-09T10:13:42Z</time>
      </trkpt>
      <trkpt lat="45.97913" lon="4.40089">
        <ele>728.4</ele>
        <time>2025-09-09T10:13:43Z</time>
      </trkpt>
      <trkpt lat="45.97912" lon="4.40088">
        <ele>728.8</ele>
        <time>2025-09-09T10:13:44Z</time>
      </trkpt>
      <trkpt lat="45.97912" lon="4.40087">
        <ele>728.8</ele>
        <time>2025-09-09T10:13:45Z</time>
      </trkpt>
      <trkpt lat="45.97912" lon="4.40087">
        <ele>728.8</ele>
        <time>2025-09-09T10:13:46Z</time>
      </trkpt>
      <trkpt lat="45.9791" lon="4.40086">
        <ele>729.2</ele>
        <time>2025-09-09T10:13:50Z</time>
      </trkpt>
      <trkpt lat="45.97908" lon="4.40084">
        <ele>729.2</ele>
        <time>2025-09-09T10:13:51Z</time>
      </trkpt>
      <trkpt lat="45.97907" lon="4.40082">
        <ele>729.2</ele>
        <time>2025-09-09T10:13:52Z</time>
      </trkpt>
      <trkpt lat="45.97906" lon="4.4008">
        <ele>729.6</ele>
        <time>2025-09-09T10:13:53Z</time>
      </trkpt>
      <trkpt lat="45.97905" lon="4.40078">
        <ele>729.6</ele>
        <time>2025-09-09T10:13:54Z</time>
      </trkpt>
      <trkpt lat="45.97902" lon="4.40076">
        <ele>729.8</ele>
        <time>2025-09-09T10:13:55Z</time>
      </trkpt>
      <trkpt lat="45.979" lon="4.40074">
        <ele>729.8</ele>
        <time>2025-09-09T10:13:56Z</time>
      </trkpt>
      <trkpt lat="45.97899" lon="4.40072">
        <ele>729.6</ele>
        <time>2025-09-09T10:13:57Z</time>
      </trkpt>
      <trkpt lat="45.97898" lon="4.4007">
        <ele>729.6</ele>
        <time>2025-09-09T10:13:58Z</time>
      </trkpt>
      <trkpt lat="45.97897" lon="4.40068">
        <ele>729.8</ele>
        <time>2025-09-09T10:13:59Z</time>
      </trkpt>
      <trkpt lat="45.97896" lon="4.40066">
        <ele>729.6</ele>
        <time>2025-09-09T10:14:00Z</time>
      </trkpt>
      <trkpt lat="45.97893" lon="4.40063">
        <ele>729.6</ele>
        <time>2025-09-09T10:14:01Z</time>
      </trkpt>
      <trkpt lat="45.97891" lon="4.4006">
        <ele>729.6</ele>
        <time>2025-09-09T10:14:02Z</time>
      </trkpt>
      <trkpt lat="45.97889" lon="4.40058">
        <ele>729</ele>
        <time>2025-09-09T10:14:03Z</time>
      </trkpt>
      <trkpt lat="45.97887" lon="4.40056">
        <ele>729</ele>
        <time>2025-09-09T10:14:04Z</time>
      </trkpt>
      <trkpt lat="45.97885" lon="4.40054">
        <ele>729</ele>
        <time>2025-09-09T10:14:05Z</time>
      </trkpt>
      <trkpt lat="45.97882" lon="4.40052">
        <ele>729</ele>
        <time>2025-09-09T10:14:06Z</time>
      </trkpt>
      <trkpt lat="45.9788" lon="4.40049">
        <ele>729</ele>
        <time>2025-09-09T10:14:07Z</time>
      </trkpt>
      <trkpt lat="45.97878" lon="4.40047">
        <ele>728.2</ele>
        <time>2025-09-09T10:14:08Z</time>
      </trkpt>
      <trkpt lat="45.97875" lon="4.40044">
        <ele>728.6</ele>
        <time>2025-09-09T10:14:09Z</time>
      </trkpt>
      <trkpt lat="45.97872" lon="4.40042">
        <ele>729</ele>
        <time>2025-09-09T10:14:10Z</time>
      </trkpt>
      <trkpt lat="45.9787" lon="4.4004">
        <ele>729</ele>
        <time>2025-09-09T10:14:11Z</time>
      </trkpt>
      <trkpt lat="45.97867" lon="4.4004">
        <ele>729.2</ele>
        <time>2025-09-09T10:14:12Z</time>
      </trkpt>
      <trkpt lat="45.97865" lon="4.40039">
        <ele>729.2</ele>
        <time>2025-09-09T10:14:13Z</time>
      </trkpt>
      <trkpt lat="45.97863" lon="4.40038">
        <ele>729.4</ele>
        <time>2025-09-09T10:14:14Z</time>
      </trkpt>
      <trkpt lat="45.97861" lon="4.40037">
        <ele>729.4</ele>
        <time>2025-09-09T10:14:15Z</time>
      </trkpt>
      <trkpt lat="45.97859" lon="4.40036">
        <ele>729.4</ele>
        <time>2025-09-09T10:14:16Z</time>
      </trkpt>
      <trkpt lat="45.97858" lon="4.40035">
        <ele>729.8</ele>
        <time>2025-09-09T10:14:17Z</time>
      </trkpt>
      <trkpt lat="45.97855" lon="4.40034">
        <ele>729.8</ele>
        <time>2025-09-09T10:14:18Z</time>
      </trkpt>
      <trkpt lat="45.97853" lon="4.40033">
        <ele>730</ele>
        <time>2025-09-09T10:14:19Z</time>
      </trkpt>
      <trkpt lat="45.9785" lon="4.40032">
        <ele>730</ele>
        <time>2025-09-09T10:14:20Z</time>
      </trkpt>
      <trkpt lat="45.97848" lon="4.40032">
        <ele>730.6</ele>
        <time>2025-09-09T10:14:21Z</time>
      </trkpt>
      <trkpt lat="45.97846" lon="4.40032">
        <ele>730.8</ele>
        <time>2025-09-09T10:14:22Z</time>
      </trkpt>
      <trkpt lat="45.97845" lon="4.40032">
        <ele>730.8</ele>
        <time>2025-09-09T10:14:23Z</time>
      </trkpt>
      <trkpt lat="45.97843" lon="4.40032">
        <ele>730.8</ele>
        <time>2025-09-09T10:14:24Z</time>
      </trkpt>
      <trkpt lat="45.97841" lon="4.40032">
        <ele>730.8</ele>
        <time>2025-09-09T10:14:25Z</time>
      </trkpt>
      <trkpt lat="45.97839" lon="4.4003">
        <ele>731.2</ele>
        <time>2025-09-09T10:14:26Z</time>
      </trkpt>
      <trkpt lat="45.97838" lon="4.4003">
        <ele>731.2</ele>
        <time>2025-09-09T10:14:27Z</time>
      </trkpt>
      <trkpt lat="45.97836" lon="4.40029">
        <ele>731.4</ele>
        <time>2025-09-09T10:14:28Z</time>
      </trkpt>
      <trkpt lat="45.97834" lon="4.40028">
        <ele>731.8</ele>
        <time>2025-09-09T10:14:29Z</time>
      </trkpt>
      <trkpt lat="45.97832" lon="4.40027">
        <ele>731.8</ele>
        <time>2025-09-09T10:14:30Z</time>
      </trkpt>
      <trkpt lat="45.97831" lon="4.40026">
        <ele>732</ele>
        <time>2025-09-09T10:14:31Z</time>
      </trkpt>
      <trkpt lat="45.9783" lon="4.40025">
        <ele>732</ele>
        <time>2025-09-09T10:14:32Z</time>
      </trkpt>
      <trkpt lat="45.97829" lon="4.40024">
        <ele>732.4</ele>
        <time>2025-09-09T10:14:33Z</time>
      </trkpt>
      <trkpt lat="45.97828" lon="4.40024">
        <ele>732.4</ele>
        <time>2025-09-09T10:14:34Z</time>
      </trkpt>
      <trkpt lat="45.97826" lon="4.40023">
        <ele>732.4</ele>
        <time>2025-09-09T10:14:35Z</time>
      </trkpt>
      <trkpt lat="45.97825" lon="4.40022">
        <ele>732.4</ele>
        <time>2025-09-09T10:14:36Z</time>
      </trkpt>
      <trkpt lat="45.97824" lon="4.40022">
        <ele>732.4</ele>
        <time>2025-09-09T10:14:37Z</time>
      </trkpt>
      <trkpt lat="45.97823" lon="4.40022">
        <ele>732.4</ele>
        <time>2025-09-09T10:14:38Z</time>
      </trkpt>
      <trkpt lat="45.97822" lon="4.40021">
        <ele>732.4</ele>
        <time>2025-09-09T10:14:39Z</time>
      </trkpt>
      <trkpt lat="45.9782" lon="4.40019">
        <ele>732.4</ele>
        <time>2025-09-09T10:14:40Z</time>
      </trkpt>
      <trkpt lat="45.97818" lon="4.40018">
        <ele>732.4</ele>
        <time>2025-09-09T10:14:41Z</time>
      </trkpt>
      <trkpt lat="45.97816" lon="4.40016">
        <ele>732.4</ele>
        <time>2025-09-09T10:14:42Z</time>
      </trkpt>
      <trkpt lat="45.97814" lon="4.40015">
        <ele>732.4</ele>
        <time>2025-09-09T10:14:43Z</time>
      </trkpt>
      <trkpt lat="45.97811" lon="4.40013">
        <ele>732.4</ele>
        <time>2025-09-09T10:14:44Z</time>
      </trkpt>
      <trkpt lat="45.97808" lon="4.40013">
        <ele>732.4</ele>
        <time>2025-09-09T10:14:45Z</time>
      </trkpt>
      <trkpt lat="45.97804" lon="4.40012">
        <ele>732.4</ele>
        <time>2025-09-09T10:14:46Z</time>
      </trkpt>
      <trkpt lat="45.97801" lon="4.40011">
        <ele>730.8</ele>
        <time>2025-09-09T10:14:47Z</time>
      </trkpt>
      <trkpt lat="45.97797" lon="4.40012">
        <ele>731</ele>
        <time>2025-09-09T10:14:48Z</time>
      </trkpt>
      <trkpt lat="45.97795" lon="4.40012">
        <ele>731.8</ele>
        <time>2025-09-09T10:14:49Z</time>
      </trkpt>
      <trkpt lat="45.97792" lon="4.40012">
        <ele>732.4</ele>
        <time>2025-09-09T10:14:50Z</time>
      </trkpt>
      <trkpt lat="45.9779" lon="4.40011">
        <ele>732.6</ele>
        <time>2025-09-09T10:14:51Z</time>
      </trkpt>
      <trkpt lat="45.97789" lon="4.4001">
        <ele>733</ele>
        <time>2025-09-09T10:14:52Z</time>
      </trkpt>
      <trkpt lat="45.97787" lon="4.40008">
        <ele>733.4</ele>
        <time>2025-09-09T10:14:53Z</time>
      </trkpt>
      <trkpt lat="45.97786" lon="4.40007">
        <ele>733.4</ele>
        <time>2025-09-09T10:14:54Z</time>
      </trkpt>
      <trkpt lat="45.97785" lon="4.40005">
        <ele>733.6</ele>
        <time>2025-09-09T10:14:55Z</time>
      </trkpt>
      <trkpt lat="45.97784" lon="4.40003">
        <ele>734</ele>
        <time>2025-09-09T10:14:56Z</time>
      </trkpt>
      <trkpt lat="45.97782" lon="4.40002">
        <ele>734.2</ele>
        <time>2025-09-09T10:14:57Z</time>
      </trkpt>
      <trkpt lat="45.97781" lon="4.40001">
        <ele>734.2</ele>
        <time>2025-09-09T10:14:58Z</time>
      </trkpt>
      <trkpt lat="45.97779" lon="4.39999">
        <ele>734.4</ele>
        <time>2025-09-09T10:14:59Z</time>
      </trkpt>
      <trkpt lat="45.97778" lon="4.39998">
        <ele>735</ele>
        <time>2025-09-09T10:15:00Z</time>
      </trkpt>
      <trkpt lat="45.97776" lon="4.39997">
        <ele>735</ele>
        <time>2025-09-09T10:15:01Z</time>
      </trkpt>
      <trkpt lat="45.97774" lon="4.39997">
        <ele>735</ele>
        <time>2025-09-09T10:15:02Z</time>
      </trkpt>
      <trkpt lat="45.97773" lon="4.39997">
        <ele>735.2</ele>
        <time>2025-09-09T10:15:03Z</time>
      </trkpt>
      <trkpt lat="45.97771" lon="4.39997">
        <ele>735.2</ele>
        <time>2025-09-09T10:15:04Z</time>
      </trkpt>
      <trkpt lat="45.9777" lon="4.39996">
        <ele>735.2</ele>
        <time>2025-09-09T10:15:05Z</time>
      </trkpt>
      <trkpt lat="45.97768" lon="4.39996">
        <ele>735.2</ele>
        <time>2025-09-09T10:15:06Z</time>
      </trkpt>
      <trkpt lat="45.97766" lon="4.39997">
        <ele>735.2</ele>
        <time>2025-09-09T10:15:07Z</time>
      </trkpt>
      <trkpt lat="45.97764" lon="4.39997">
        <ele>735.4</ele>
        <time>2025-09-09T10:15:08Z</time>
      </trkpt>
      <trkpt lat="45.97762" lon="4.39997">
        <ele>735.4</ele>
        <time>2025-09-09T10:15:09Z</time>
      </trkpt>
      <trkpt lat="45.9776" lon="4.39998">
        <ele>735.4</ele>
        <time>2025-09-09T10:15:10Z</time>
      </trkpt>
      <trkpt lat="45.97759" lon="4.39998">
        <ele>735.4</ele>
        <time>2025-09-09T10:15:11Z</time>
      </trkpt>
      <trkpt lat="45.97756" lon="4.39997">
        <ele>735.6</ele>
        <time>2025-09-09T10:15:12Z</time>
      </trkpt>
      <trkpt lat="45.97754" lon="4.39996">
        <ele>735.6</ele>
        <time>2025-09-09T10:15:13Z</time>
      </trkpt>
      <trkpt lat="45.97754" lon="4.39995">
        <ele>735.6</ele>
        <time>2025-09-09T10:15:14Z</time>
      </trkpt>
      <trkpt lat="45.97752" lon="4.39995">
        <ele>736</ele>
        <time>2025-09-09T10:15:15Z</time>
      </trkpt>
      <trkpt lat="45.97751" lon="4.39994">
        <ele>736</ele>
        <time>2025-09-09T10:15:16Z</time>
      </trkpt>
      <trkpt lat="45.9775" lon="4.39992">
        <ele>736</ele>
        <time>2025-09-09T10:15:17Z</time>
      </trkpt>
      <trkpt lat="45.97749" lon="4.39991">
        <ele>736.4</ele>
        <time>2025-09-09T10:15:18Z</time>
      </trkpt>
      <trkpt lat="45.97748" lon="4.3999">
        <ele>736.4</ele>
        <time>2025-09-09T10:15:19Z</time>
      </trkpt>
      <trkpt lat="45.97746" lon="4.3999">
        <ele>736.8</ele>
        <time>2025-09-09T10:15:20Z</time>
      </trkpt>
      <trkpt lat="45.97745" lon="4.39989">
        <ele>736.8</ele>
        <time>2025-09-09T10:15:21Z</time>
      </trkpt>
      <trkpt lat="45.97744" lon="4.39988">
        <ele>737</ele>
        <time>2025-09-09T10:15:22Z</time>
      </trkpt>
      <trkpt lat="45.97743" lon="4.39987">
        <ele>737</ele>
        <time>2025-09-09T10:15:23Z</time>
      </trkpt>
      <trkpt lat="45.97741" lon="4.39986">
        <ele>736.8</ele>
        <time>2025-09-09T10:15:24Z</time>
      </trkpt>
      <trkpt lat="45.97739" lon="4.39984">
        <ele>737</ele>
        <time>2025-09-09T10:15:25Z</time>
      </trkpt>
      <trkpt lat="45.97737" lon="4.39982">
        <ele>737</ele>
        <time>2025-09-09T10:15:26Z</time>
      </trkpt>
      <trkpt lat="45.97736" lon="4.3998">
        <ele>737</ele>
        <time>2025-09-09T10:15:27Z</time>
      </trkpt>
      <trkpt lat="45.97735" lon="4.39978">
        <ele>737</ele>
        <time>2025-09-09T10:15:28Z</time>
      </trkpt>
      <trkpt lat="45.97734" lon="4.39977">
        <ele>737.4</ele>
        <time>2025-09-09T10:15:29Z</time>
      </trkpt>
      <trkpt lat="45.97732" lon="4.39976">
        <ele>737.4</ele>
        <time>2025-09-09T10:15:30Z</time>
      </trkpt>
      <trkpt lat="45.97731" lon="4.39975">
        <ele>737.8</ele>
        <time>2025-09-09T10:15:31Z</time>
      </trkpt>
      <trkpt lat="45.97729" lon="4.39974">
        <ele>738</ele>
        <time>2025-09-09T10:15:32Z</time>
      </trkpt>
      <trkpt lat="45.97727" lon="4.39973">
        <ele>738</ele>
        <time>2025-09-09T10:15:33Z</time>
      </trkpt>
      <trkpt lat="45.97726" lon="4.39971">
        <ele>738.2</ele>
        <time>2025-09-09T10:15:34Z</time>
      </trkpt>
      <trkpt lat="45.97724" lon="4.3997">
        <ele>738.2</ele>
        <time>2025-09-09T10:15:35Z</time>
      </trkpt>
      <trkpt lat="45.97723" lon="4.39968">
        <ele>738.2</ele>
        <time>2025-09-09T10:15:36Z</time>
      </trkpt>
      <trkpt lat="45.97721" lon="4.39967">
        <ele>738.6</ele>
        <time>2025-09-09T10:15:37Z</time>
      </trkpt>
      <trkpt lat="45.9772" lon="4.39966">
        <ele>738.6</ele>
        <time>2025-09-09T10:15:38Z</time>
      </trkpt>
      <trkpt lat="45.97719" lon="4.39965">
        <ele>738.8</ele>
        <time>2025-09-09T10:15:39Z</time>
      </trkpt>
      <trkpt lat="45.97717" lon="4.39965">
        <ele>738.8</ele>
        <time>2025-09-09T10:15:40Z</time>
      </trkpt>
      <trkpt lat="45.97716" lon="4.39963">
        <ele>738.8</ele>
        <time>2025-09-09T10:15:41Z</time>
      </trkpt>
      <trkpt lat="45.97714" lon="4.39962">
        <ele>738.8</ele>
        <time>2025-09-09T10:15:42Z</time>
      </trkpt>
      <trkpt lat="45.97712" lon="4.39961">
        <ele>739.2</ele>
        <time>2025-09-09T10:15:43Z</time>
      </trkpt>
      <trkpt lat="45.9771" lon="4.3996">
        <ele>739.2</ele>
        <time>2025-09-09T10:15:44Z</time>
      </trkpt>
      <trkpt lat="45.97708" lon="4.39959">
        <ele>739.2</ele>
        <time>2025-09-09T10:15:45Z</time>
      </trkpt>
      <trkpt lat="45.97707" lon="4.39957">
        <ele>739.4</ele>
        <time>2025-09-09T10:15:46Z</time>
      </trkpt>
      <trkpt lat="45.97705" lon="4.39955">
        <ele>739.4</ele>
        <time>2025-09-09T10:15:47Z</time>
      </trkpt>
      <trkpt lat="45.97703" lon="4.39954">
        <ele>739.4</ele>
        <time>2025-09-09T10:15:48Z</time>
      </trkpt>
      <trkpt lat="45.97702" lon="4.39953">
        <ele>739.4</ele>
        <time>2025-09-09T10:15:49Z</time>
      </trkpt>
      <trkpt lat="45.977" lon="4.3995">
        <ele>739.4</ele>
        <time>2025-09-09T10:15:50Z</time>
      </trkpt>
      <trkpt lat="45.97698" lon="4.39949">
        <ele>739.4</ele>
        <time>2025-09-09T10:15:51Z</time>
      </trkpt>
      <trkpt lat="45.97696" lon="4.39948">
        <ele>739.8</ele>
        <time>2025-09-09T10:15:52Z</time>
      </trkpt>
      <trkpt lat="45.97694" lon="4.39947">
        <ele>739.8</ele>
        <time>2025-09-09T10:15:53Z</time>
      </trkpt>
      <trkpt lat="45.97692" lon="4.39946">
        <ele>739.6</ele>
        <time>2025-09-09T10:15:54Z</time>
      </trkpt>
      <trkpt lat="45.97691" lon="4.39946">
        <ele>739.6</ele>
        <time>2025-09-09T10:15:55Z</time>
      </trkpt>
      <trkpt lat="45.97689" lon="4.39945">
        <ele>740</ele>
        <time>2025-09-09T10:15:56Z</time>
      </trkpt>
      <trkpt lat="45.97688" lon="4.39944">
        <ele>740</ele>
        <time>2025-09-09T10:15:57Z</time>
      </trkpt>
      <trkpt lat="45.97686" lon="4.39943">
        <ele>740</ele>
        <time>2025-09-09T10:15:58Z</time>
      </trkpt>
      <trkpt lat="45.97684" lon="4.39941">
        <ele>740</ele>
        <time>2025-09-09T10:15:59Z</time>
      </trkpt>
      <trkpt lat="45.97682" lon="4.3994">
        <ele>740</ele>
        <time>2025-09-09T10:16:00Z</time>
      </trkpt>
      <trkpt lat="45.9768" lon="4.39939">
        <ele>740</ele>
        <time>2025-09-09T10:16:01Z</time>
      </trkpt>
      <trkpt lat="45.97678" lon="4.39938">
        <ele>740</ele>
        <time>2025-09-09T10:16:02Z</time>
      </trkpt>
      <trkpt lat="45.97676" lon="4.39936">
        <ele>740</ele>
        <time>2025-09-09T10:16:03Z</time>
      </trkpt>
      <trkpt lat="45.97674" lon="4.39935">
        <ele>740</ele>
        <time>2025-09-09T10:16:04Z</time>
      </trkpt>
      <trkpt lat="45.97673" lon="4.39933">
        <ele>740</ele>
        <time>2025-09-09T10:16:05Z</time>
      </trkpt>
      <trkpt lat="45.97671" lon="4.39931">
        <ele>740.2</ele>
        <time>2025-09-09T10:16:06Z</time>
      </trkpt>
      <trkpt lat="45.97669" lon="4.39929">
        <ele>740.2</ele>
        <time>2025-09-09T10:16:07Z</time>
      </trkpt>
      <trkpt lat="45.97667" lon="4.39926">
        <ele>740.2</ele>
        <time>2025-09-09T10:16:08Z</time>
      </trkpt>
      <trkpt lat="45.97665" lon="4.39924">
        <ele>740.2</ele>
        <time>2025-09-09T10:16:09Z</time>
      </trkpt>
      <trkpt lat="45.97662" lon="4.39922">
        <ele>740</ele>
        <time>2025-09-09T10:16:10Z</time>
      </trkpt>
      <trkpt lat="45.9766" lon="4.39921">
        <ele>740</ele>
        <time>2025-09-09T10:16:11Z</time>
      </trkpt>
      <trkpt lat="45.97657" lon="4.39919">
        <ele>740</ele>
        <time>2025-09-09T10:16:12Z</time>
      </trkpt>
      <trkpt lat="45.97656" lon="4.39918">
        <ele>740</ele>
        <time>2025-09-09T10:16:13Z</time>
      </trkpt>
      <trkpt lat="45.97653" lon="4.39917">
        <ele>740.2</ele>
        <time>2025-09-09T10:16:14Z</time>
      </trkpt>
      <trkpt lat="45.97651" lon="4.39915">
        <ele>739.8</ele>
        <time>2025-09-09T10:16:15Z</time>
      </trkpt>
      <trkpt lat="45.97649" lon="4.39914">
        <ele>740</ele>
        <time>2025-09-09T10:16:16Z</time>
      </trkpt>
      <trkpt lat="45.97647" lon="4.39912">
        <ele>739.8</ele>
        <time>2025-09-09T10:16:17Z</time>
      </trkpt>
      <trkpt lat="45.97644" lon="4.3991">
        <ele>739.4</ele>
        <time>2025-09-09T10:16:18Z</time>
      </trkpt>
      <trkpt lat="45.97642" lon="4.39908">
        <ele>739.4</ele>
        <time>2025-09-09T10:16:19Z</time>
      </trkpt>
      <trkpt lat="45.97639" lon="4.39906">
        <ele>739.4</ele>
        <time>2025-09-09T10:16:20Z</time>
      </trkpt>
      <trkpt lat="45.97637" lon="4.39905">
        <ele>739.4</ele>
        <time>2025-09-09T10:16:21Z</time>
      </trkpt>
      <trkpt lat="45.97634" lon="4.39902">
        <ele>739.2</ele>
        <time>2025-09-09T10:16:22Z</time>
      </trkpt>
      <trkpt lat="45.97631" lon="4.399">
        <ele>739.8</ele>
        <time>2025-09-09T10:16:23Z</time>
      </trkpt>
      <trkpt lat="45.97628" lon="4.39898">
        <ele>739.8</ele>
        <time>2025-09-09T10:16:24Z</time>
      </trkpt>
      <trkpt lat="45.97626" lon="4.39897">
        <ele>739.4</ele>
        <time>2025-09-09T10:16:25Z</time>
      </trkpt>
      <trkpt lat="45.97623" lon="4.39895">
        <ele>739.8</ele>
        <time>2025-09-09T10:16:26Z</time>
      </trkpt>
      <trkpt lat="45.97621" lon="4.39894">
        <ele>740.4</ele>
        <time>2025-09-09T10:16:27Z</time>
      </trkpt>
      <trkpt lat="45.97619" lon="4.39893">
        <ele>740</ele>
        <time>2025-09-09T10:16:28Z</time>
      </trkpt>
      <trkpt lat="45.97616" lon="4.39891">
        <ele>739.4</ele>
        <time>2025-09-09T10:16:29Z</time>
      </trkpt>
      <trkpt lat="45.97613" lon="4.39889">
        <ele>739</ele>
        <time>2025-09-09T10:16:30Z</time>
      </trkpt>
      <trkpt lat="45.9761" lon="4.39887">
        <ele>738.8</ele>
        <time>2025-09-09T10:16:31Z</time>
      </trkpt>
      <trkpt lat="45.97604" lon="4.39884">
        <ele>738.4</ele>
        <time>2025-09-09T10:16:32Z</time>
      </trkpt>
      <trkpt lat="45.97601" lon="4.39883">
        <ele>738.4</ele>
        <time>2025-09-09T10:16:33Z</time>
      </trkpt>
      <trkpt lat="45.97598" lon="4.39881">
        <ele>738.4</ele>
        <time>2025-09-09T10:16:34Z</time>
      </trkpt>
      <trkpt lat="45.97594" lon="4.39879">
        <ele>738</ele>
        <time>2025-09-09T10:16:35Z</time>
      </trkpt>
      <trkpt lat="45.97592" lon="4.39877">
        <ele>737.6</ele>
        <time>2025-09-09T10:16:36Z</time>
      </trkpt>
      <trkpt lat="45.97589" lon="4.39875">
        <ele>737.6</ele>
        <time>2025-09-09T10:16:37Z</time>
      </trkpt>
      <trkpt lat="45.97586" lon="4.39873">
        <ele>737.2</ele>
        <time>2025-09-09T10:16:38Z</time>
      </trkpt>
      <trkpt lat="45.97584" lon="4.39871">
        <ele>737.2</ele>
        <time>2025-09-09T10:16:39Z</time>
      </trkpt>
      <trkpt lat="45.97582" lon="4.39869">
        <ele>737.2</ele>
        <time>2025-09-09T10:16:40Z</time>
      </trkpt>
      <trkpt lat="45.97579" lon="4.39867">
        <ele>737</ele>
        <time>2025-09-09T10:16:41Z</time>
      </trkpt>
      <trkpt lat="45.97577" lon="4.39864">
        <ele>737</ele>
        <time>2025-09-09T10:16:42Z</time>
      </trkpt>
      <trkpt lat="45.97575" lon="4.39862">
        <ele>736.8</ele>
        <time>2025-09-09T10:16:43Z</time>
      </trkpt>
      <trkpt lat="45.97572" lon="4.3986">
        <ele>736.8</ele>
        <time>2025-09-09T10:16:44Z</time>
      </trkpt>
      <trkpt lat="45.9757" lon="4.39858">
        <ele>736.8</ele>
        <time>2025-09-09T10:16:45Z</time>
      </trkpt>
      <trkpt lat="45.97568" lon="4.39855">
        <ele>737</ele>
        <time>2025-09-09T10:16:46Z</time>
      </trkpt>
      <trkpt lat="45.97566" lon="4.39852">
        <ele>737</ele>
        <time>2025-09-09T10:16:47Z</time>
      </trkpt>
      <trkpt lat="45.97564" lon="4.39849">
        <ele>736.4</ele>
        <time>2025-09-09T10:16:48Z</time>
      </trkpt>
      <trkpt lat="45.97562" lon="4.39845">
        <ele>736.4</ele>
        <time>2025-09-09T10:16:49Z</time>
      </trkpt>
      <trkpt lat="45.9756" lon="4.39841">
        <ele>736.4</ele>
        <time>2025-09-09T10:16:50Z</time>
      </trkpt>
      <trkpt lat="45.97559" lon="4.39838">
        <ele>736.4</ele>
        <time>2025-09-09T10:16:51Z</time>
      </trkpt>
      <trkpt lat="45.97558" lon="4.39836">
        <ele>736.4</ele>
        <time>2025-09-09T10:16:52Z</time>
      </trkpt>
      <trkpt lat="45.97556" lon="4.39833">
        <ele>736.4</ele>
        <time>2025-09-09T10:16:53Z</time>
      </trkpt>
      <trkpt lat="45.97554" lon="4.3983">
        <ele>736</ele>
        <time>2025-09-09T10:16:54Z</time>
      </trkpt>
      <trkpt lat="45.97552" lon="4.39827">
        <ele>736</ele>
        <time>2025-09-09T10:16:55Z</time>
      </trkpt>
      <trkpt lat="45.97549" lon="4.39824">
        <ele>735.8</ele>
        <time>2025-09-09T10:16:56Z</time>
      </trkpt>
      <trkpt lat="45.97546" lon="4.39822">
        <ele>735.8</ele>
        <time>2025-09-09T10:16:57Z</time>
      </trkpt>
      <trkpt lat="45.9754" lon="4.39823">
        <ele>735.8</ele>
        <time>2025-09-09T10:16:58Z</time>
      </trkpt>
      <trkpt lat="45.97536" lon="4.39821">
        <ele>735.4</ele>
        <time>2025-09-09T10:16:59Z</time>
      </trkpt>
      <trkpt lat="45.97532" lon="4.39819">
        <ele>734.6</ele>
        <time>2025-09-09T10:17:00Z</time>
      </trkpt>
      <trkpt lat="45.9753" lon="4.39819">
        <ele>734.4</ele>
        <time>2025-09-09T10:17:01Z</time>
      </trkpt>
      <trkpt lat="45.97527" lon="4.39819">
        <ele>734.2</ele>
        <time>2025-09-09T10:17:02Z</time>
      </trkpt>
      <trkpt lat="45.97524" lon="4.39819">
        <ele>734</ele>
        <time>2025-09-09T10:17:03Z</time>
      </trkpt>
      <trkpt lat="45.97522" lon="4.39817">
        <ele>734</ele>
        <time>2025-09-09T10:17:04Z</time>
      </trkpt>
      <trkpt lat="45.97521" lon="4.39817">
        <ele>733.6</ele>
        <time>2025-09-09T10:17:05Z</time>
      </trkpt>
      <trkpt lat="45.97519" lon="4.39815">
        <ele>733.6</ele>
        <time>2025-09-09T10:17:06Z</time>
      </trkpt>
      <trkpt lat="45.97516" lon="4.39815">
        <ele>733.6</ele>
        <time>2025-09-09T10:17:07Z</time>
      </trkpt>
      <trkpt lat="45.97514" lon="4.39814">
        <ele>733.4</ele>
        <time>2025-09-09T10:17:08Z</time>
      </trkpt>
      <trkpt lat="45.97512" lon="4.39813">
        <ele>733.2</ele>
        <time>2025-09-09T10:17:09Z</time>
      </trkpt>
      <trkpt lat="45.9751" lon="4.39811">
        <ele>733.4</ele>
        <time>2025-09-09T10:17:10Z</time>
      </trkpt>
      <trkpt lat="45.97507" lon="4.3981">
        <ele>733.4</ele>
        <time>2025-09-09T10:17:11Z</time>
      </trkpt>
      <trkpt lat="45.97505" lon="4.39809">
        <ele>733</ele>
        <time>2025-09-09T10:17:12Z</time>
      </trkpt>
      <trkpt lat="45.97503" lon="4.39809">
        <ele>732.6</ele>
        <time>2025-09-09T10:17:13Z</time>
      </trkpt>
      <trkpt lat="45.975" lon="4.39809">
        <ele>731.8</ele>
        <time>2025-09-09T10:17:14Z</time>
      </trkpt>
      <trkpt lat="45.97497" lon="4.39809">
        <ele>731.4</ele>
        <time>2025-09-09T10:17:15Z</time>
      </trkpt>
      <trkpt lat="45.97496" lon="4.39809">
        <ele>731.4</ele>
        <time>2025-09-09T10:17:16Z</time>
      </trkpt>
      <trkpt lat="45.97494" lon="4.39808">
        <ele>731.2</ele>
        <time>2025-09-09T10:17:17Z</time>
      </trkpt>
      <trkpt lat="45.97492" lon="4.39807">
        <ele>731</ele>
        <time>2025-09-09T10:17:18Z</time>
      </trkpt>
      <trkpt lat="45.9749" lon="4.39805">
        <ele>731</ele>
        <time>2025-09-09T10:17:19Z</time>
      </trkpt>
      <trkpt lat="45.97487" lon="4.39804">
        <ele>731</ele>
        <time>2025-09-09T10:17:20Z</time>
      </trkpt>
      <trkpt lat="45.97485" lon="4.39803">
        <ele>731</ele>
        <time>2025-09-09T10:17:21Z</time>
      </trkpt>
      <trkpt lat="45.97483" lon="4.39801">
        <ele>730.8</ele>
        <time>2025-09-09T10:17:22Z</time>
      </trkpt>
      <trkpt lat="45.97481" lon="4.39798">
        <ele>730.8</ele>
        <time>2025-09-09T10:17:23Z</time>
      </trkpt>
      <trkpt lat="45.97479" lon="4.39795">
        <ele>730.8</ele>
        <time>2025-09-09T10:17:24Z</time>
      </trkpt>
      <trkpt lat="45.97477" lon="4.39792">
        <ele>730.2</ele>
        <time>2025-09-09T10:17:25Z</time>
      </trkpt>
      <trkpt lat="45.97474" lon="4.39789">
        <ele>730.2</ele>
        <time>2025-09-09T10:17:26Z</time>
      </trkpt>
      <trkpt lat="45.97472" lon="4.39786">
        <ele>729.8</ele>
        <time>2025-09-09T10:17:27Z</time>
      </trkpt>
      <trkpt lat="45.97467" lon="4.39781">
        <ele>729.6</ele>
        <time>2025-09-09T10:17:28Z</time>
      </trkpt>
      <trkpt lat="45.97464" lon="4.39775">
        <ele>729.2</ele>
        <time>2025-09-09T10:17:29Z</time>
      </trkpt>
      <trkpt lat="45.97461" lon="4.39769">
        <ele>728.8</ele>
        <time>2025-09-09T10:17:30Z</time>
      </trkpt>
      <trkpt lat="45.97456" lon="4.39765">
        <ele>728.4</ele>
        <time>2025-09-09T10:17:31Z</time>
      </trkpt>
      <trkpt lat="45.97456" lon="4.39765">
        <ele>728</ele>
        <time>2025-09-09T10:17:32Z</time>
      </trkpt>
      <trkpt lat="45.97451" lon="4.39763">
        <ele>727.6</ele>
        <time>2025-09-09T10:17:33Z</time>
      </trkpt>
      <trkpt lat="45.97447" lon="4.39759">
        <ele>727</ele>
        <time>2025-09-09T10:17:34Z</time>
      </trkpt>
      <trkpt lat="45.97443" lon="4.39754">
        <ele>726.6</ele>
        <time>2025-09-09T10:17:35Z</time>
      </trkpt>
      <trkpt lat="45.97436" lon="4.39749">
        <ele>726.2</ele>
        <time>2025-09-09T10:17:36Z</time>
      </trkpt>
      <trkpt lat="45.9743" lon="4.39745">
        <ele>726.2</ele>
        <time>2025-09-09T10:17:37Z</time>
      </trkpt>
      <trkpt lat="45.97424" lon="4.39739">
        <ele>725.6</ele>
        <time>2025-09-09T10:17:38Z</time>
      </trkpt>
      <trkpt lat="45.97416" lon="4.39733">
        <ele>725.4</ele>
        <time>2025-09-09T10:17:39Z</time>
      </trkpt>
      <trkpt lat="45.97409" lon="4.39728">
        <ele>724.8</ele>
        <time>2025-09-09T10:17:40Z</time>
      </trkpt>
      <trkpt lat="45.97403" lon="4.3972">
        <ele>724.4</ele>
        <time>2025-09-09T10:17:41Z</time>
      </trkpt>
      <trkpt lat="45.97395" lon="4.39715">
        <ele>723.8</ele>
        <time>2025-09-09T10:17:42Z</time>
      </trkpt>
      <trkpt lat="45.97388" lon="4.39709">
        <ele>723.6</ele>
        <time>2025-09-09T10:17:43Z</time>
      </trkpt>
      <trkpt lat="45.97383" lon="4.39702">
        <ele>723.6</ele>
        <time>2025-09-09T10:17:44Z</time>
      </trkpt>
      <trkpt lat="45.97376" lon="4.39696">
        <ele>723.2</ele>
        <time>2025-09-09T10:17:45Z</time>
      </trkpt>
      <trkpt lat="45.97369" lon="4.39691">
        <ele>723.2</ele>
        <time>2025-09-09T10:17:46Z</time>
      </trkpt>
      <trkpt lat="45.97359" lon="4.39686">
        <ele>722.8</ele>
        <time>2025-09-09T10:17:47Z</time>
      </trkpt>
      <trkpt lat="45.97351" lon="4.39681">
        <ele>722.8</ele>
        <time>2025-09-09T10:17:48Z</time>
      </trkpt>
      <trkpt lat="45.97344" lon="4.39676">
        <ele>722.4</ele>
        <time>2025-09-09T10:17:49Z</time>
      </trkpt>
      <trkpt lat="45.97339" lon="4.3967">
        <ele>722.4</ele>
        <time>2025-09-09T10:17:50Z</time>
      </trkpt>
      <trkpt lat="45.97332" lon="4.39663">
        <ele>722.4</ele>
        <time>2025-09-09T10:17:51Z</time>
      </trkpt>
      <trkpt lat="45.97325" lon="4.39659">
        <ele>722.4</ele>
        <time>2025-09-09T10:17:52Z</time>
      </trkpt>
      <trkpt lat="45.97319" lon="4.39654">
        <ele>722.4</ele>
        <time>2025-09-09T10:17:53Z</time>
      </trkpt>
      <trkpt lat="45.97313" lon="4.39649">
        <ele>722.2</ele>
        <time>2025-09-09T10:17:54Z</time>
      </trkpt>
      <trkpt lat="45.97308" lon="4.39644">
        <ele>722.2</ele>
        <time>2025-09-09T10:17:55Z</time>
      </trkpt>
      <trkpt lat="45.97303" lon="4.39639">
        <ele>722.2</ele>
        <time>2025-09-09T10:17:56Z</time>
      </trkpt>
      <trkpt lat="45.97299" lon="4.39629">
        <ele>722</ele>
        <time>2025-09-09T10:17:57Z</time>
      </trkpt>
      <trkpt lat="45.97294" lon="4.39629">
        <ele>722</ele>
        <time>2025-09-09T10:17:58Z</time>
      </trkpt>
      <trkpt lat="45.9729" lon="4.39628">
        <ele>722</ele>
        <time>2025-09-09T10:17:59Z</time>
      </trkpt>
      <trkpt lat="45.97289" lon="4.39624">
        <ele>722</ele>
        <time>2025-09-09T10:18:00Z</time>
      </trkpt>
      <trkpt lat="45.97286" lon="4.39621">
        <ele>722</ele>
        <time>2025-09-09T10:18:01Z</time>
      </trkpt>
      <trkpt lat="45.97283" lon="4.39618">
        <ele>722.2</ele>
        <time>2025-09-09T10:18:02Z</time>
      </trkpt>
      <trkpt lat="45.9728" lon="4.39617">
        <ele>722.2</ele>
        <time>2025-09-09T10:18:03Z</time>
      </trkpt>
      <trkpt lat="45.97278" lon="4.39615">
        <ele>722.6</ele>
        <time>2025-09-09T10:18:04Z</time>
      </trkpt>
      <trkpt lat="45.97272" lon="4.39618">
        <ele>722.8</ele>
        <time>2025-09-09T10:18:05Z</time>
      </trkpt>
      <trkpt lat="45.97269" lon="4.39616">
        <ele>722.8</ele>
        <time>2025-09-09T10:18:06Z</time>
      </trkpt>
      <trkpt lat="45.97268" lon="4.39613">
        <ele>723.2</ele>
        <time>2025-09-09T10:18:07Z</time>
      </trkpt>
      <trkpt lat="45.97264" lon="4.39612">
        <ele>723.2</ele>
        <time>2025-09-09T10:18:08Z</time>
      </trkpt>
      <trkpt lat="45.9726" lon="4.3961">
        <ele>723.2</ele>
        <time>2025-09-09T10:18:09Z</time>
      </trkpt>
      <trkpt lat="45.97258" lon="4.39609">
        <ele>723.4</ele>
        <time>2025-09-09T10:18:10Z</time>
      </trkpt>
      <trkpt lat="45.97256" lon="4.39609">
        <ele>723.4</ele>
        <time>2025-09-09T10:18:11Z</time>
      </trkpt>
      <trkpt lat="45.97253" lon="4.39609">
        <ele>723.4</ele>
        <time>2025-09-09T10:18:12Z</time>
      </trkpt>
      <trkpt lat="45.97251" lon="4.3961">
        <ele>723.4</ele>
        <time>2025-09-09T10:18:13Z</time>
      </trkpt>
      <trkpt lat="45.97249" lon="4.3961">
        <ele>723.4</ele>
        <time>2025-09-09T10:18:14Z</time>
      </trkpt>
      <trkpt lat="45.97246" lon="4.39609">
        <ele>723</ele>
        <time>2025-09-09T10:18:15Z</time>
      </trkpt>
      <trkpt lat="45.97244" lon="4.39608">
        <ele>723.4</ele>
        <time>2025-09-09T10:18:16Z</time>
      </trkpt>
      <trkpt lat="45.97242" lon="4.39607">
        <ele>723.8</ele>
        <time>2025-09-09T10:18:17Z</time>
      </trkpt>
      <trkpt lat="45.97241" lon="4.39607">
        <ele>724.2</ele>
        <time>2025-09-09T10:18:18Z</time>
      </trkpt>
      <trkpt lat="45.97239" lon="4.39607">
        <ele>724.2</ele>
        <time>2025-09-09T10:18:19Z</time>
      </trkpt>
      <trkpt lat="45.97237" lon="4.39607">
        <ele>724.2</ele>
        <time>2025-09-09T10:18:20Z</time>
      </trkpt>
      <trkpt lat="45.97234" lon="4.39608">
        <ele>724.6</ele>
        <time>2025-09-09T10:18:21Z</time>
      </trkpt>
      <trkpt lat="45.97232" lon="4.39608">
        <ele>724.6</ele>
        <time>2025-09-09T10:18:22Z</time>
      </trkpt>
      <trkpt lat="45.9723" lon="4.39608">
        <ele>724.8</ele>
        <time>2025-09-09T10:18:23Z</time>
      </trkpt>
      <trkpt lat="45.97227" lon="4.39609">
        <ele>724.8</ele>
        <time>2025-09-09T10:18:24Z</time>
      </trkpt>
      <trkpt lat="45.97225" lon="4.39609">
        <ele>725.2</ele>
        <time>2025-09-09T10:18:25Z</time>
      </trkpt>
      <trkpt lat="45.97223" lon="4.3961">
        <ele>725.2</ele>
        <time>2025-09-09T10:18:26Z</time>
      </trkpt>
      <trkpt lat="45.97222" lon="4.39611">
        <ele>725.2</ele>
        <time>2025-09-09T10:18:27Z</time>
      </trkpt>
      <trkpt lat="45.9722" lon="4.39613">
        <ele>725.2</ele>
        <time>2025-09-09T10:18:28Z</time>
      </trkpt>
      <trkpt lat="45.97218" lon="4.39614">
        <ele>725.6</ele>
        <time>2025-09-09T10:18:29Z</time>
      </trkpt>
      <trkpt lat="45.97217" lon="4.39615">
        <ele>725.6</ele>
        <time>2025-09-09T10:18:30Z</time>
      </trkpt>
      <trkpt lat="45.97215" lon="4.39616">
        <ele>726</ele>
        <time>2025-09-09T10:18:31Z</time>
      </trkpt>
      <trkpt lat="45.97214" lon="4.39616">
        <ele>726.2</ele>
        <time>2025-09-09T10:18:32Z</time>
      </trkpt>
      <trkpt lat="45.97212" lon="4.39617">
        <ele>726.4</ele>
        <time>2025-09-09T10:18:33Z</time>
      </trkpt>
      <trkpt lat="45.9721" lon="4.39618">
        <ele>726.4</ele>
        <time>2025-09-09T10:18:34Z</time>
      </trkpt>
      <trkpt lat="45.97208" lon="4.39619">
        <ele>726.4</ele>
        <time>2025-09-09T10:18:35Z</time>
      </trkpt>
      <trkpt lat="45.97206" lon="4.39619">
        <ele>726.2</ele>
        <time>2025-09-09T10:18:36Z</time>
      </trkpt>
      <trkpt lat="45.97205" lon="4.3962">
        <ele>726.4</ele>
        <time>2025-09-09T10:18:37Z</time>
      </trkpt>
      <trkpt lat="45.97204" lon="4.39621">
        <ele>726.6</ele>
        <time>2025-09-09T10:18:38Z</time>
      </trkpt>
      <trkpt lat="45.97203" lon="4.39621">
        <ele>726.6</ele>
        <time>2025-09-09T10:18:39Z</time>
      </trkpt>
      <trkpt lat="45.97202" lon="4.39622">
        <ele>726.6</ele>
        <time>2025-09-09T10:18:40Z</time>
      </trkpt>
      <trkpt lat="45.97203" lon="4.39621">
        <ele>727</ele>
        <time>2025-09-09T10:18:41Z</time>
      </trkpt>
      <trkpt lat="45.97203" lon="4.39621">
        <ele>727</ele>
        <time>2025-09-09T10:18:42Z</time>
      </trkpt>
      <trkpt lat="45.97206" lon="4.39624">
        <ele>727</ele>
        <time>2025-09-09T10:21:43Z</time>
      </trkpt>
      <trkpt lat="45.97205" lon="4.39625">
        <ele>727.2</ele>
        <time>2025-09-09T10:21:44Z</time>
      </trkpt>
      <trkpt lat="45.97204" lon="4.39626">
        <ele>727.2</ele>
        <time>2025-09-09T10:21:45Z</time>
      </trkpt>
      <trkpt lat="45.97206" lon="4.39626">
        <ele>727.2</ele>
        <time>2025-09-09T10:21:46Z</time>
      </trkpt>
      <trkpt lat="45.97206" lon="4.39627">
        <ele>727</ele>
        <time>2025-09-09T10:21:53Z</time>
      </trkpt>
      <trkpt lat="45.97204" lon="4.39627">
        <ele>727</ele>
        <time>2025-09-09T10:21:54Z</time>
      </trkpt>
      <trkpt lat="45.97202" lon="4.39627">
        <ele>727</ele>
        <time>2025-09-09T10:21:55Z</time>
      </trkpt>
      <trkpt lat="45.97201" lon="4.39628">
        <ele>727.4</ele>
        <time>2025-09-09T10:21:56Z</time>
      </trkpt>
      <trkpt lat="45.97199" lon="4.39629">
        <ele>727.4</ele>
        <time>2025-09-09T10:21:57Z</time>
      </trkpt>
      <trkpt lat="45.97196" lon="4.39631">
        <ele>727.4</ele>
        <time>2025-09-09T10:21:58Z</time>
      </trkpt>
      <trkpt lat="45.97193" lon="4.39632">
        <ele>727.8</ele>
        <time>2025-09-09T10:21:59Z</time>
      </trkpt>
      <trkpt lat="45.9719" lon="4.39632">
        <ele>727.8</ele>
        <time>2025-09-09T10:22:00Z</time>
      </trkpt>
      <trkpt lat="45.9719" lon="4.39632">
        <ele>727.8</ele>
        <time>2025-09-09T10:22:01Z</time>
      </trkpt>
      <trkpt lat="45.97185" lon="4.39632">
        <ele>727.8</ele>
        <time>2025-09-09T10:22:02Z</time>
      </trkpt>
      <trkpt lat="45.97183" lon="4.39632">
        <ele>727.8</ele>
        <time>2025-09-09T10:22:03Z</time>
      </trkpt>
      <trkpt lat="45.9718" lon="4.39633">
        <ele>728</ele>
        <time>2025-09-09T10:22:04Z</time>
      </trkpt>
      <trkpt lat="45.97178" lon="4.39633">
        <ele>728</ele>
        <time>2025-09-09T10:22:05Z</time>
      </trkpt>
      <trkpt lat="45.97176" lon="4.39633">
        <ele>728.2</ele>
        <time>2025-09-09T10:22:06Z</time>
      </trkpt>
      <trkpt lat="45.97173" lon="4.39633">
        <ele>728.2</ele>
        <time>2025-09-09T10:22:07Z</time>
      </trkpt>
      <trkpt lat="45.9717" lon="4.39632">
        <ele>728.2</ele>
        <time>2025-09-09T10:22:08Z</time>
      </trkpt>
      <trkpt lat="45.97167" lon="4.39632">
        <ele>728.6</ele>
        <time>2025-09-09T10:22:09Z</time>
      </trkpt>
      <trkpt lat="45.97165" lon="4.39631">
        <ele>728.6</ele>
        <time>2025-09-09T10:22:10Z</time>
      </trkpt>
      <trkpt lat="45.97163" lon="4.39631">
        <ele>728.6</ele>
        <time>2025-09-09T10:22:11Z</time>
      </trkpt>
      <trkpt lat="45.97161" lon="4.3963">
        <ele>729</ele>
        <time>2025-09-09T10:22:12Z</time>
      </trkpt>
      <trkpt lat="45.97158" lon="4.3963">
        <ele>729</ele>
        <time>2025-09-09T10:22:13Z</time>
      </trkpt>
      <trkpt lat="45.97157" lon="4.3963">
        <ele>729.2</ele>
        <time>2025-09-09T10:22:14Z</time>
      </trkpt>
      <trkpt lat="45.97155" lon="4.39629">
        <ele>729.8</ele>
        <time>2025-09-09T10:22:15Z</time>
      </trkpt>
      <trkpt lat="45.97154" lon="4.39627">
        <ele>729.8</ele>
        <time>2025-09-09T10:22:16Z</time>
      </trkpt>
      <trkpt lat="45.97153" lon="4.39627">
        <ele>730.2</ele>
        <time>2025-09-09T10:22:17Z</time>
      </trkpt>
      <trkpt lat="45.97152" lon="4.39627">
        <ele>729.8</ele>
        <time>2025-09-09T10:22:18Z</time>
      </trkpt>
      <trkpt lat="45.97151" lon="4.39628">
        <ele>730.2</ele>
        <time>2025-09-09T10:22:19Z</time>
      </trkpt>
      <trkpt lat="45.97151" lon="4.3963">
        <ele>729.8</ele>
        <time>2025-09-09T10:22:20Z</time>
      </trkpt>
      <trkpt lat="45.9715" lon="4.39631">
        <ele>730.2</ele>
        <time>2025-09-09T10:22:21Z</time>
      </trkpt>
      <trkpt lat="45.97149" lon="4.39632">
        <ele>730.2</ele>
        <time>2025-09-09T10:22:22Z</time>
      </trkpt>
      <trkpt lat="45.97148" lon="4.39632">
        <ele>730.2</ele>
        <time>2025-09-09T10:22:23Z</time>
      </trkpt>
      <trkpt lat="45.97146" lon="4.39632">
        <ele>730.2</ele>
        <time>2025-09-09T10:22:24Z</time>
      </trkpt>
      <trkpt lat="45.97146" lon="4.39632">
        <ele>730.4</ele>
        <time>2025-09-09T10:22:25Z</time>
      </trkpt>
      <trkpt lat="45.97145" lon="4.39631">
        <ele>730.4</ele>
        <time>2025-09-09T10:22:26Z</time>
      </trkpt>
      <trkpt lat="45.97146" lon="4.39631">
        <ele>730.8</ele>
        <time>2025-09-09T10:22:27Z</time>
      </trkpt>
      <trkpt lat="45.97146" lon="4.39631">
        <ele>730.6</ele>
        <time>2025-09-09T10:22:28Z</time>
      </trkpt>
      <trkpt lat="45.97146" lon="4.39631">
        <ele>730.6</ele>
        <time>2025-09-09T10:22:29Z</time>
      </trkpt>
      <trkpt lat="45.97145" lon="4.3963">
        <ele>730.6</ele>
        <time>2025-09-09T10:22:30Z</time>
      </trkpt>
      <trkpt lat="45.97144" lon="4.3963">
        <ele>730.6</ele>
        <time>2025-09-09T10:22:31Z</time>
      </trkpt>
      <trkpt lat="45.97143" lon="4.3963">
        <ele>731</ele>
        <time>2025-09-09T10:22:32Z</time>
      </trkpt>
      <trkpt lat="45.97141" lon="4.3963">
        <ele>731</ele>
        <time>2025-09-09T10:22:33Z</time>
      </trkpt>
      <trkpt lat="45.9714" lon="4.39629">
        <ele>731</ele>
        <time>2025-09-09T10:22:34Z</time>
      </trkpt>
      <trkpt lat="45.97138" lon="4.39629">
        <ele>731.6</ele>
        <time>2025-09-09T10:22:35Z</time>
      </trkpt>
      <trkpt lat="45.97132" lon="4.39629">
        <ele>733</ele>
        <time>2025-09-09T10:22:50Z</time>
      </trkpt>
      <trkpt lat="45.97131" lon="4.39629">
        <ele>733</ele>
        <time>2025-09-09T10:22:51Z</time>
      </trkpt>
      <trkpt lat="45.9713" lon="4.3963">
        <ele>733.2</ele>
        <time>2025-09-09T10:22:52Z</time>
      </trkpt>
      <trkpt lat="45.9713" lon="4.3963">
        <ele>733.2</ele>
        <time>2025-09-09T10:22:53Z</time>
      </trkpt>
      <trkpt lat="45.97129" lon="4.3963">
        <ele>733.2</ele>
        <time>2025-09-09T10:22:54Z</time>
      </trkpt>
      <trkpt lat="45.97128" lon="4.3963">
        <ele>733.2</ele>
        <time>2025-09-09T10:22:55Z</time>
      </trkpt>
      <trkpt lat="45.97126" lon="4.3963">
        <ele>733.2</ele>
        <time>2025-09-09T10:22:56Z</time>
      </trkpt>
      <trkpt lat="45.97125" lon="4.3963">
        <ele>733.2</ele>
        <time>2025-09-09T10:22:57Z</time>
      </trkpt>
      <trkpt lat="45.97124" lon="4.3963">
        <ele>733.2</ele>
        <time>2025-09-09T10:22:58Z</time>
      </trkpt>
      <trkpt lat="45.97123" lon="4.3963">
        <ele>733.8</ele>
        <time>2025-09-09T10:22:59Z</time>
      </trkpt>
      <trkpt lat="45.97121" lon="4.39629">
        <ele>734</ele>
        <time>2025-09-09T10:23:00Z</time>
      </trkpt>
      <trkpt lat="45.9712" lon="4.39628">
        <ele>734</ele>
        <time>2025-09-09T10:23:01Z</time>
      </trkpt>
      <trkpt lat="45.97119" lon="4.39628">
        <ele>734.2</ele>
        <time>2025-09-09T10:23:02Z</time>
      </trkpt>
      <trkpt lat="45.97117" lon="4.39628">
        <ele>734.2</ele>
        <time>2025-09-09T10:23:03Z</time>
      </trkpt>
      <trkpt lat="45.97117" lon="4.39627">
        <ele>734.2</ele>
        <time>2025-09-09T10:23:04Z</time>
      </trkpt>
      <trkpt lat="45.97116" lon="4.39626">
        <ele>734.4</ele>
        <time>2025-09-09T10:23:09Z</time>
      </trkpt>
      <trkpt lat="45.97115" lon="4.39625">
        <ele>734.6</ele>
        <time>2025-09-09T10:23:10Z</time>
      </trkpt>
      <trkpt lat="45.97114" lon="4.39623">
        <ele>734.6</ele>
        <time>2025-09-09T10:23:11Z</time>
      </trkpt>
      <trkpt lat="45.97113" lon="4.39623">
        <ele>734.6</ele>
        <time>2025-09-09T10:23:12Z</time>
      </trkpt>
      <trkpt lat="45.97112" lon="4.39623">
        <ele>735</ele>
        <time>2025-09-09T10:23:13Z</time>
      </trkpt>
      <trkpt lat="45.97111" lon="4.39623">
        <ele>735</ele>
        <time>2025-09-09T10:23:14Z</time>
      </trkpt>
      <trkpt lat="45.9711" lon="4.39623">
        <ele>735</ele>
        <time>2025-09-09T10:23:15Z</time>
      </trkpt>
      <trkpt lat="45.97109" lon="4.39622">
        <ele>735</ele>
        <time>2025-09-09T10:23:16Z</time>
      </trkpt>
      <trkpt lat="45.97107" lon="4.39622">
        <ele>735</ele>
        <time>2025-09-09T10:23:17Z</time>
      </trkpt>
      <trkpt lat="45.97106" lon="4.39621">
        <ele>735.4</ele>
        <time>2025-09-09T10:23:18Z</time>
      </trkpt>
      <trkpt lat="45.97104" lon="4.39619">
        <ele>735.6</ele>
        <time>2025-09-09T10:23:19Z</time>
      </trkpt>
      <trkpt lat="45.97102" lon="4.39618">
        <ele>735.6</ele>
        <time>2025-09-09T10:23:20Z</time>
      </trkpt>
      <trkpt lat="45.971" lon="4.39615">
        <ele>735.8</ele>
        <time>2025-09-09T10:23:21Z</time>
      </trkpt>
      <trkpt lat="45.97098" lon="4.39614">
        <ele>736.2</ele>
        <time>2025-09-09T10:23:22Z</time>
      </trkpt>
      <trkpt lat="45.97097" lon="4.39613">
        <ele>736.4</ele>
        <time>2025-09-09T10:23:23Z</time>
      </trkpt>
      <trkpt lat="45.97097" lon="4.39613">
        <ele>736.4</ele>
        <time>2025-09-09T10:23:24Z</time>
      </trkpt>
      <trkpt lat="45.97093" lon="4.39613">
        <ele>736.6</ele>
        <time>2025-09-09T10:23:29Z</time>
      </trkpt>
      <trkpt lat="45.97091" lon="4.39613">
        <ele>736.8</ele>
        <time>2025-09-09T10:23:30Z</time>
      </trkpt>
      <trkpt lat="45.97089" lon="4.39613">
        <ele>736.8</ele>
        <time>2025-09-09T10:23:31Z</time>
      </trkpt>
      <trkpt lat="45.97087" lon="4.39613">
        <ele>736.8</ele>
        <time>2025-09-09T10:23:32Z</time>
      </trkpt>
      <trkpt lat="45.97085" lon="4.39612">
        <ele>737.2</ele>
        <time>2025-09-09T10:23:33Z</time>
      </trkpt>
      <trkpt lat="45.97083" lon="4.3961">
        <ele>737.2</ele>
        <time>2025-09-09T10:23:34Z</time>
      </trkpt>
      <trkpt lat="45.97082" lon="4.39609">
        <ele>737.6</ele>
        <time>2025-09-09T10:23:35Z</time>
      </trkpt>
      <trkpt lat="45.9708" lon="4.39608">
        <ele>737.6</ele>
        <time>2025-09-09T10:23:36Z</time>
      </trkpt>
      <trkpt lat="45.97079" lon="4.39608">
        <ele>737.6</ele>
        <time>2025-09-09T10:23:37Z</time>
      </trkpt>
      <trkpt lat="45.97077" lon="4.39607">
        <ele>737.8</ele>
        <time>2025-09-09T10:23:38Z</time>
      </trkpt>
      <trkpt lat="45.97075" lon="4.39607">
        <ele>737.8</ele>
        <time>2025-09-09T10:23:39Z</time>
      </trkpt>
      <trkpt lat="45.97073" lon="4.39606">
        <ele>738.4</ele>
        <time>2025-09-09T10:23:40Z</time>
      </trkpt>
      <trkpt lat="45.97071" lon="4.39604">
        <ele>738.4</ele>
        <time>2025-09-09T10:23:41Z</time>
      </trkpt>
      <trkpt lat="45.97068" lon="4.39602">
        <ele>738.4</ele>
        <time>2025-09-09T10:23:42Z</time>
      </trkpt>
      <trkpt lat="45.97067" lon="4.39601">
        <ele>738.6</ele>
        <time>2025-09-09T10:23:43Z</time>
      </trkpt>
      <trkpt lat="45.97066" lon="4.39601">
        <ele>738.6</ele>
        <time>2025-09-09T10:23:44Z</time>
      </trkpt>
      <trkpt lat="45.97064" lon="4.396">
        <ele>738.6</ele>
        <time>2025-09-09T10:23:45Z</time>
      </trkpt>
      <trkpt lat="45.97063" lon="4.39599">
        <ele>738.6</ele>
        <time>2025-09-09T10:23:46Z</time>
      </trkpt>
      <trkpt lat="45.97062" lon="4.39598">
        <ele>738.8</ele>
        <time>2025-09-09T10:23:47Z</time>
      </trkpt>
      <trkpt lat="45.97062" lon="4.39597">
        <ele>738.8</ele>
        <time>2025-09-09T10:23:48Z</time>
      </trkpt>
      <trkpt lat="45.9706" lon="4.39595">
        <ele>738.8</ele>
        <time>2025-09-09T10:23:49Z</time>
      </trkpt>
      <trkpt lat="45.97059" lon="4.39593">
        <ele>739.2</ele>
        <time>2025-09-09T10:23:50Z</time>
      </trkpt>
      <trkpt lat="45.97059" lon="4.39592">
        <ele>739.2</ele>
        <time>2025-09-09T10:23:51Z</time>
      </trkpt>
      <trkpt lat="45.97057" lon="4.39591">
        <ele>739.4</ele>
        <time>2025-09-09T10:23:52Z</time>
      </trkpt>
      <trkpt lat="45.97056" lon="4.3959">
        <ele>739.4</ele>
        <time>2025-09-09T10:23:53Z</time>
      </trkpt>
      <trkpt lat="45.97055" lon="4.39589">
        <ele>739.8</ele>
        <time>2025-09-09T10:23:54Z</time>
      </trkpt>
      <trkpt lat="45.97054" lon="4.39586">
        <ele>740</ele>
        <time>2025-09-09T10:23:55Z</time>
      </trkpt>
      <trkpt lat="45.97054" lon="4.39585">
        <ele>740</ele>
        <time>2025-09-09T10:23:56Z</time>
      </trkpt>
      <trkpt lat="45.97053" lon="4.39583">
        <ele>740</ele>
        <time>2025-09-09T10:23:57Z</time>
      </trkpt>
      <trkpt lat="45.97053" lon="4.39582">
        <ele>740</ele>
        <time>2025-09-09T10:23:58Z</time>
      </trkpt>
      <trkpt lat="45.97052" lon="4.39582">
        <ele>740</ele>
        <time>2025-09-09T10:23:59Z</time>
      </trkpt>
      <trkpt lat="45.97052" lon="4.39581">
        <ele>740.4</ele>
        <time>2025-09-09T10:24:00Z</time>
      </trkpt>
      <trkpt lat="45.97051" lon="4.39581">
        <ele>740.4</ele>
        <time>2025-09-09T10:24:01Z</time>
      </trkpt>
      <trkpt lat="45.97049" lon="4.3958">
        <ele>740.4</ele>
        <time>2025-09-09T10:24:02Z</time>
      </trkpt>
      <trkpt lat="45.97047" lon="4.3958">
        <ele>740.8</ele>
        <time>2025-09-09T10:24:03Z</time>
      </trkpt>
      <trkpt lat="45.97045" lon="4.3958">
        <ele>740.8</ele>
        <time>2025-09-09T10:24:04Z</time>
      </trkpt>
      <trkpt lat="45.97043" lon="4.39579">
        <ele>741.2</ele>
        <time>2025-09-09T10:24:05Z</time>
      </trkpt>
      <trkpt lat="45.97041" lon="4.39579">
        <ele>741.2</ele>
        <time>2025-09-09T10:24:06Z</time>
      </trkpt>
      <trkpt lat="45.9704" lon="4.39578">
        <ele>741.4</ele>
        <time>2025-09-09T10:24:07Z</time>
      </trkpt>
      <trkpt lat="45.97037" lon="4.39576">
        <ele>741.4</ele>
        <time>2025-09-09T10:24:08Z</time>
      </trkpt>
      <trkpt lat="45.97035" lon="4.39574">
        <ele>741.4</ele>
        <time>2025-09-09T10:24:09Z</time>
      </trkpt>
      <trkpt lat="45.97033" lon="4.39573">
        <ele>741.6</ele>
        <time>2025-09-09T10:24:10Z</time>
      </trkpt>
      <trkpt lat="45.97031" lon="4.39573">
        <ele>741.6</ele>
        <time>2025-09-09T10:24:11Z</time>
      </trkpt>
      <trkpt lat="45.97029" lon="4.39572">
        <ele>741.6</ele>
        <time>2025-09-09T10:24:12Z</time>
      </trkpt>
      <trkpt lat="45.97028" lon="4.39571">
        <ele>741.6</ele>
        <time>2025-09-09T10:24:13Z</time>
      </trkpt>
      <trkpt lat="45.97027" lon="4.3957">
        <ele>742.2</ele>
        <time>2025-09-09T10:24:14Z</time>
      </trkpt>
      <trkpt lat="45.97025" lon="4.39568">
        <ele>742.2</ele>
        <time>2025-09-09T10:24:15Z</time>
      </trkpt>
      <trkpt lat="45.97024" lon="4.39567">
        <ele>742.6</ele>
        <time>2025-09-09T10:24:16Z</time>
      </trkpt>
      <trkpt lat="45.97022" lon="4.39566">
        <ele>742.6</ele>
        <time>2025-09-09T10:24:17Z</time>
      </trkpt>
      <trkpt lat="45.9702" lon="4.39565">
        <ele>742.6</ele>
        <time>2025-09-09T10:24:18Z</time>
      </trkpt>
      <trkpt lat="45.97019" lon="4.39564">
        <ele>742.6</ele>
        <time>2025-09-09T10:24:19Z</time>
      </trkpt>
      <trkpt lat="45.97019" lon="4.39564">
        <ele>742.8</ele>
        <time>2025-09-09T10:24:20Z</time>
      </trkpt>
      <trkpt lat="45.97017" lon="4.39563">
        <ele>742.8</ele>
        <time>2025-09-09T10:24:21Z</time>
      </trkpt>
      <trkpt lat="45.97016" lon="4.39562">
        <ele>743.2</ele>
        <time>2025-09-09T10:24:22Z</time>
      </trkpt>
      <trkpt lat="45.97015" lon="4.3956">
        <ele>743.2</ele>
        <time>2025-09-09T10:24:23Z</time>
      </trkpt>
      <trkpt lat="45.97013" lon="4.39559">
        <ele>743.2</ele>
        <time>2025-09-09T10:24:24Z</time>
      </trkpt>
      <trkpt lat="45.97013" lon="4.39558">
        <ele>743.2</ele>
        <time>2025-09-09T10:24:25Z</time>
      </trkpt>
      <trkpt lat="45.97012" lon="4.39555">
        <ele>743.4</ele>
        <time>2025-09-09T10:24:26Z</time>
      </trkpt>
      <trkpt lat="45.97012" lon="4.39553">
        <ele>743.4</ele>
        <time>2025-09-09T10:24:27Z</time>
      </trkpt>
      <trkpt lat="45.97012" lon="4.39552">
        <ele>743.8</ele>
        <time>2025-09-09T10:24:28Z</time>
      </trkpt>
      <trkpt lat="45.97012" lon="4.3955">
        <ele>744</ele>
        <time>2025-09-09T10:24:29Z</time>
      </trkpt>
      <trkpt lat="45.97011" lon="4.39549">
        <ele>744</ele>
        <time>2025-09-09T10:24:30Z</time>
      </trkpt>
      <trkpt lat="45.9701" lon="4.39547">
        <ele>744.2</ele>
        <time>2025-09-09T10:24:31Z</time>
      </trkpt>
      <trkpt lat="45.97008" lon="4.39546">
        <ele>744.2</ele>
        <time>2025-09-09T10:24:32Z</time>
      </trkpt>
      <trkpt lat="45.97008" lon="4.39544">
        <ele>744.6</ele>
        <time>2025-09-09T10:24:33Z</time>
      </trkpt>
      <trkpt lat="45.97007" lon="4.39543">
        <ele>744</ele>
        <time>2025-09-09T10:24:34Z</time>
      </trkpt>
      <trkpt lat="45.97006" lon="4.39542">
        <ele>744.4</ele>
        <time>2025-09-09T10:24:35Z</time>
      </trkpt>
      <trkpt lat="45.97005" lon="4.39542">
        <ele>744.4</ele>
        <time>2025-09-09T10:24:36Z</time>
      </trkpt>
      <trkpt lat="45.97003" lon="4.39542">
        <ele>744.8</ele>
        <time>2025-09-09T10:24:37Z</time>
      </trkpt>
      <trkpt lat="45.97001" lon="4.39542">
        <ele>744.8</ele>
        <time>2025-09-09T10:24:38Z</time>
      </trkpt>
      <trkpt lat="45.97" lon="4.39542">
        <ele>745.2</ele>
        <time>2025-09-09T10:24:39Z</time>
      </trkpt>
      <trkpt lat="45.96999" lon="4.39541">
        <ele>745.4</ele>
        <time>2025-09-09T10:24:40Z</time>
      </trkpt>
      <trkpt lat="45.96997" lon="4.3954">
        <ele>745.4</ele>
        <time>2025-09-09T10:24:41Z</time>
      </trkpt>
      <trkpt lat="45.96996" lon="4.3954">
        <ele>745.8</ele>
        <time>2025-09-09T10:24:42Z</time>
      </trkpt>
      <trkpt lat="45.96995" lon="4.3954">
        <ele>746</ele>
        <time>2025-09-09T10:24:43Z</time>
      </trkpt>
      <trkpt lat="45.96994" lon="4.3954">
        <ele>746</ele>
        <time>2025-09-09T10:24:44Z</time>
      </trkpt>
      <trkpt lat="45.96992" lon="4.39538">
        <ele>746</ele>
        <time>2025-09-09T10:24:45Z</time>
      </trkpt>
      <trkpt lat="45.9699" lon="4.39537">
        <ele>746</ele>
        <time>2025-09-09T10:24:46Z</time>
      </trkpt>
      <trkpt lat="45.96988" lon="4.39536">
        <ele>746.4</ele>
        <time>2025-09-09T10:24:47Z</time>
      </trkpt>
      <trkpt lat="45.96987" lon="4.39534">
        <ele>746.4</ele>
        <time>2025-09-09T10:24:48Z</time>
      </trkpt>
      <trkpt lat="45.96987" lon="4.39533">
        <ele>746.8</ele>
        <time>2025-09-09T10:24:49Z</time>
      </trkpt>
      <trkpt lat="45.96987" lon="4.39532">
        <ele>746.8</ele>
        <time>2025-09-09T10:24:50Z</time>
      </trkpt>
      <trkpt lat="45.96986" lon="4.39531">
        <ele>746.8</ele>
        <time>2025-09-09T10:24:51Z</time>
      </trkpt>
      <trkpt lat="45.96985" lon="4.39531">
        <ele>746.8</ele>
        <time>2025-09-09T10:24:52Z</time>
      </trkpt>
      <trkpt lat="45.96984" lon="4.3953">
        <ele>747</ele>
        <time>2025-09-09T10:24:53Z</time>
      </trkpt>
      <trkpt lat="45.96982" lon="4.39528">
        <ele>747</ele>
        <time>2025-09-09T10:24:54Z</time>
      </trkpt>
      <trkpt lat="45.96981" lon="4.39528">
        <ele>747.2</ele>
        <time>2025-09-09T10:24:55Z</time>
      </trkpt>
      <trkpt lat="45.96978" lon="4.39528">
        <ele>747.2</ele>
        <time>2025-09-09T10:24:56Z</time>
      </trkpt>
      <trkpt lat="45.96975" lon="4.3953">
        <ele>747.2</ele>
        <time>2025-09-09T10:24:57Z</time>
      </trkpt>
      <trkpt lat="45.96972" lon="4.39532">
        <ele>747.6</ele>
        <time>2025-09-09T10:24:58Z</time>
      </trkpt>
      <trkpt lat="45.96968" lon="4.39534">
        <ele>747.6</ele>
        <time>2025-09-09T10:24:59Z</time>
      </trkpt>
      <trkpt lat="45.96967" lon="4.39534">
        <ele>747.8</ele>
        <time>2025-09-09T10:25:00Z</time>
      </trkpt>
      <trkpt lat="45.96966" lon="4.39533">
        <ele>747.8</ele>
        <time>2025-09-09T10:25:01Z</time>
      </trkpt>
      <trkpt lat="45.96965" lon="4.39532">
        <ele>747.8</ele>
        <time>2025-09-09T10:25:02Z</time>
      </trkpt>
      <trkpt lat="45.96964" lon="4.3953">
        <ele>748</ele>
        <time>2025-09-09T10:25:03Z</time>
      </trkpt>
      <trkpt lat="45.96962" lon="4.39529">
        <ele>748</ele>
        <time>2025-09-09T10:25:04Z</time>
      </trkpt>
      <trkpt lat="45.96961" lon="4.39527">
        <ele>748.4</ele>
        <time>2025-09-09T10:25:05Z</time>
      </trkpt>
      <trkpt lat="45.9696" lon="4.39525">
        <ele>748.4</ele>
        <time>2025-09-09T10:25:06Z</time>
      </trkpt>
      <trkpt lat="45.9696" lon="4.39523">
        <ele>748.4</ele>
        <time>2025-09-09T10:25:07Z</time>
      </trkpt>
      <trkpt lat="45.96958" lon="4.39522">
        <ele>748.6</ele>
        <time>2025-09-09T10:25:08Z</time>
      </trkpt>
      <trkpt lat="45.96957" lon="4.39521">
        <ele>748.6</ele>
        <time>2025-09-09T10:25:09Z</time>
      </trkpt>
      <trkpt lat="45.96957" lon="4.39521">
        <ele>748.6</ele>
        <time>2025-09-09T10:25:10Z</time>
      </trkpt>
      <trkpt lat="45.96955" lon="4.39519">
        <ele>748.8</ele>
        <time>2025-09-09T10:25:11Z</time>
      </trkpt>
      <trkpt lat="45.96954" lon="4.39518">
        <ele>748.8</ele>
        <time>2025-09-09T10:25:12Z</time>
      </trkpt>
      <trkpt lat="45.96952" lon="4.39518">
        <ele>749.2</ele>
        <time>2025-09-09T10:25:13Z</time>
      </trkpt>
      <trkpt lat="45.96951" lon="4.39518">
        <ele>749.2</ele>
        <time>2025-09-09T10:25:14Z</time>
      </trkpt>
      <trkpt lat="45.96949" lon="4.39518">
        <ele>749.4</ele>
        <time>2025-09-09T10:25:15Z</time>
      </trkpt>
      <trkpt lat="45.96947" lon="4.39517">
        <ele>749.6</ele>
        <time>2025-09-09T10:25:16Z</time>
      </trkpt>
      <trkpt lat="45.96946" lon="4.39516">
        <ele>749.6</ele>
        <time>2025-09-09T10:25:17Z</time>
      </trkpt>
      <trkpt lat="45.96946" lon="4.39515">
        <ele>749.6</ele>
        <time>2025-09-09T10:25:18Z</time>
      </trkpt>
      <trkpt lat="45.96945" lon="4.39514">
        <ele>749.6</ele>
        <time>2025-09-09T10:25:19Z</time>
      </trkpt>
      <trkpt lat="45.96943" lon="4.39512">
        <ele>750</ele>
        <time>2025-09-09T10:25:20Z</time>
      </trkpt>
      <trkpt lat="45.96941" lon="4.3951">
        <ele>750</ele>
        <time>2025-09-09T10:25:21Z</time>
      </trkpt>
      <trkpt lat="45.9694" lon="4.39509">
        <ele>750.2</ele>
        <time>2025-09-09T10:25:22Z</time>
      </trkpt>
      <trkpt lat="45.96939" lon="4.39508">
        <ele>750.4</ele>
        <time>2025-09-09T10:25:23Z</time>
      </trkpt>
      <trkpt lat="45.96939" lon="4.39508">
        <ele>750.4</ele>
        <time>2025-09-09T10:25:24Z</time>
      </trkpt>
      <trkpt lat="45.96939" lon="4.39506">
        <ele>750.6</ele>
        <time>2025-09-09T10:25:25Z</time>
      </trkpt>
      <trkpt lat="45.96938" lon="4.39505">
        <ele>750.6</ele>
        <time>2025-09-09T10:25:26Z</time>
      </trkpt>
      <trkpt lat="45.96938" lon="4.39502">
        <ele>750.6</ele>
        <time>2025-09-09T10:25:27Z</time>
      </trkpt>
      <trkpt lat="45.96937" lon="4.395">
        <ele>751</ele>
        <time>2025-09-09T10:25:28Z</time>
      </trkpt>
      <trkpt lat="45.96935" lon="4.39498">
        <ele>751.4</ele>
        <time>2025-09-09T10:25:29Z</time>
      </trkpt>
      <trkpt lat="45.96934" lon="4.39497">
        <ele>751.6</ele>
        <time>2025-09-09T10:25:30Z</time>
      </trkpt>
      <trkpt lat="45.96933" lon="4.39497">
        <ele>751.6</ele>
        <time>2025-09-09T10:25:31Z</time>
      </trkpt>
      <trkpt lat="45.96931" lon="4.39496">
        <ele>751.6</ele>
        <time>2025-09-09T10:25:32Z</time>
      </trkpt>
      <trkpt lat="45.9693" lon="4.39496">
        <ele>751.8</ele>
        <time>2025-09-09T10:25:33Z</time>
      </trkpt>
      <trkpt lat="45.96928" lon="4.39496">
        <ele>751.8</ele>
        <time>2025-09-09T10:25:34Z</time>
      </trkpt>
      <trkpt lat="45.96926" lon="4.39496">
        <ele>751.8</ele>
        <time>2025-09-09T10:25:35Z</time>
      </trkpt>
      <trkpt lat="45.96924" lon="4.39496">
        <ele>752</ele>
        <time>2025-09-09T10:25:36Z</time>
      </trkpt>
      <trkpt lat="45.96922" lon="4.39495">
        <ele>752</ele>
        <time>2025-09-09T10:25:37Z</time>
      </trkpt>
      <trkpt lat="45.96921" lon="4.39495">
        <ele>752</ele>
        <time>2025-09-09T10:25:38Z</time>
      </trkpt>
      <trkpt lat="45.96919" lon="4.39495">
        <ele>752</ele>
        <time>2025-09-09T10:25:39Z</time>
      </trkpt>
      <trkpt lat="45.96918" lon="4.39494">
        <ele>752</ele>
        <time>2025-09-09T10:25:40Z</time>
      </trkpt>
      <trkpt lat="45.96916" lon="4.39494">
        <ele>752.4</ele>
        <time>2025-09-09T10:25:41Z</time>
      </trkpt>
      <trkpt lat="45.96915" lon="4.39494">
        <ele>752.4</ele>
        <time>2025-09-09T10:25:42Z</time>
      </trkpt>
      <trkpt lat="45.96914" lon="4.39493">
        <ele>752.8</ele>
        <time>2025-09-09T10:25:43Z</time>
      </trkpt>
      <trkpt lat="45.96912" lon="4.39493">
        <ele>752.8</ele>
        <time>2025-09-09T10:25:44Z</time>
      </trkpt>
      <trkpt lat="45.96911" lon="4.39493">
        <ele>752.8</ele>
        <time>2025-09-09T10:25:45Z</time>
      </trkpt>
      <trkpt lat="45.9691" lon="4.39492">
        <ele>752.8</ele>
        <time>2025-09-09T10:25:46Z</time>
      </trkpt>
      <trkpt lat="45.96909" lon="4.39491">
        <ele>752.8</ele>
        <time>2025-09-09T10:25:47Z</time>
      </trkpt>
      <trkpt lat="45.96907" lon="4.39491">
        <ele>753.2</ele>
        <time>2025-09-09T10:25:48Z</time>
      </trkpt>
      <trkpt lat="45.96906" lon="4.39492">
        <ele>753.2</ele>
        <time>2025-09-09T10:25:49Z</time>
      </trkpt>
      <trkpt lat="45.96906" lon="4.39493">
        <ele>753.2</ele>
        <time>2025-09-09T10:25:50Z</time>
      </trkpt>
      <trkpt lat="45.96905" lon="4.39493">
        <ele>753.4</ele>
        <time>2025-09-09T10:25:51Z</time>
      </trkpt>
      <trkpt lat="45.96903" lon="4.39493">
        <ele>753.4</ele>
        <time>2025-09-09T10:25:52Z</time>
      </trkpt>
      <trkpt lat="45.96902" lon="4.39492">
        <ele>753.4</ele>
        <time>2025-09-09T10:25:53Z</time>
      </trkpt>
      <trkpt lat="45.96899" lon="4.39492">
        <ele>753.4</ele>
        <time>2025-09-09T10:25:54Z</time>
      </trkpt>
      <trkpt lat="45.96898" lon="4.39492">
        <ele>753.8</ele>
        <time>2025-09-09T10:25:55Z</time>
      </trkpt>
      <trkpt lat="45.96896" lon="4.39492">
        <ele>753.8</ele>
        <time>2025-09-09T10:25:56Z</time>
      </trkpt>
      <trkpt lat="45.96895" lon="4.3949">
        <ele>753.8</ele>
        <time>2025-09-09T10:25:57Z</time>
      </trkpt>
      <trkpt lat="45.96893" lon="4.39488">
        <ele>753.8</ele>
        <time>2025-09-09T10:25:58Z</time>
      </trkpt>
      <trkpt lat="45.96891" lon="4.39487">
        <ele>754.2</ele>
        <time>2025-09-09T10:25:59Z</time>
      </trkpt>
      <trkpt lat="45.96889" lon="4.39487">
        <ele>754.2</ele>
        <time>2025-09-09T10:26:00Z</time>
      </trkpt>
      <trkpt lat="45.96887" lon="4.39488">
        <ele>754.4</ele>
        <time>2025-09-09T10:26:01Z</time>
      </trkpt>
      <trkpt lat="45.96885" lon="4.39488">
        <ele>754.4</ele>
        <time>2025-09-09T10:26:02Z</time>
      </trkpt>
      <trkpt lat="45.96884" lon="4.39489">
        <ele>754.4</ele>
        <time>2025-09-09T10:26:03Z</time>
      </trkpt>
      <trkpt lat="45.96882" lon="4.39489">
        <ele>754.4</ele>
        <time>2025-09-09T10:26:04Z</time>
      </trkpt>
      <trkpt lat="45.96878" lon="4.39489">
        <ele>754.6</ele>
        <time>2025-09-09T10:26:05Z</time>
      </trkpt>
      <trkpt lat="45.96875" lon="4.39491">
        <ele>754.6</ele>
        <time>2025-09-09T10:26:06Z</time>
      </trkpt>
      <trkpt lat="45.96872" lon="4.39492">
        <ele>755</ele>
        <time>2025-09-09T10:26:07Z</time>
      </trkpt>
      <trkpt lat="45.96871" lon="4.39491">
        <ele>754.6</ele>
        <time>2025-09-09T10:26:08Z</time>
      </trkpt>
      <trkpt lat="45.96869" lon="4.3949">
        <ele>754.6</ele>
        <time>2025-09-09T10:26:09Z</time>
      </trkpt>
      <trkpt lat="45.96868" lon="4.39489">
        <ele>755</ele>
        <time>2025-09-09T10:26:10Z</time>
      </trkpt>
      <trkpt lat="45.96866" lon="4.39487">
        <ele>753.4</ele>
        <time>2025-09-09T10:26:11Z</time>
      </trkpt>
      <trkpt lat="45.96864" lon="4.39486">
        <ele>754.2</ele>
        <time>2025-09-09T10:26:12Z</time>
      </trkpt>
      <trkpt lat="45.96863" lon="4.39484">
        <ele>754.4</ele>
        <time>2025-09-09T10:26:13Z</time>
      </trkpt>
      <trkpt lat="45.96862" lon="4.39482">
        <ele>754.4</ele>
        <time>2025-09-09T10:26:14Z</time>
      </trkpt>
      <trkpt lat="45.9686" lon="4.3948">
        <ele>754.6</ele>
        <time>2025-09-09T10:26:15Z</time>
      </trkpt>
      <trkpt lat="45.96858" lon="4.39479">
        <ele>755</ele>
        <time>2025-09-09T10:26:16Z</time>
      </trkpt>
      <trkpt lat="45.96856" lon="4.39478">
        <ele>755.6</ele>
        <time>2025-09-09T10:26:17Z</time>
      </trkpt>
      <trkpt lat="45.96854" lon="4.39477">
        <ele>755.6</ele>
        <time>2025-09-09T10:26:18Z</time>
      </trkpt>
      <trkpt lat="45.96852" lon="4.39476">
        <ele>755.6</ele>
        <time>2025-09-09T10:26:19Z</time>
      </trkpt>
      <trkpt lat="45.96851" lon="4.39475">
        <ele>755.6</ele>
        <time>2025-09-09T10:26:20Z</time>
      </trkpt>
      <trkpt lat="45.96849" lon="4.39475">
        <ele>755.6</ele>
        <time>2025-09-09T10:26:21Z</time>
      </trkpt>
      <trkpt lat="45.96847" lon="4.39472">
        <ele>755.6</ele>
        <time>2025-09-09T10:26:22Z</time>
      </trkpt>
      <trkpt lat="45.96846" lon="4.3947">
        <ele>755.6</ele>
        <time>2025-09-09T10:26:23Z</time>
      </trkpt>
      <trkpt lat="45.96845" lon="4.39468">
        <ele>756</ele>
        <time>2025-09-09T10:26:24Z</time>
      </trkpt>
      <trkpt lat="45.96843" lon="4.39466">
        <ele>756.4</ele>
        <time>2025-09-09T10:26:25Z</time>
      </trkpt>
      <trkpt lat="45.96842" lon="4.39463">
        <ele>756.4</ele>
        <time>2025-09-09T10:26:26Z</time>
      </trkpt>
      <trkpt lat="45.96841" lon="4.39462">
        <ele>756.4</ele>
        <time>2025-09-09T10:26:27Z</time>
      </trkpt>
      <trkpt lat="45.96839" lon="4.3946">
        <ele>756.4</ele>
        <time>2025-09-09T10:26:28Z</time>
      </trkpt>
      <trkpt lat="45.96838" lon="4.39458">
        <ele>756.6</ele>
        <time>2025-09-09T10:26:29Z</time>
      </trkpt>
      <trkpt lat="45.96836" lon="4.39457">
        <ele>756</ele>
        <time>2025-09-09T10:26:30Z</time>
      </trkpt>
      <trkpt lat="45.96834" lon="4.39456">
        <ele>756.4</ele>
        <time>2025-09-09T10:26:31Z</time>
      </trkpt>
      <trkpt lat="45.96832" lon="4.39454">
        <ele>755.2</ele>
        <time>2025-09-09T10:26:32Z</time>
      </trkpt>
      <trkpt lat="45.96831" lon="4.39452">
        <ele>755.6</ele>
        <time>2025-09-09T10:26:33Z</time>
      </trkpt>
      <trkpt lat="45.96831" lon="4.3945">
        <ele>755.8</ele>
        <time>2025-09-09T10:26:34Z</time>
      </trkpt>
      <trkpt lat="45.9683" lon="4.39448">
        <ele>756.2</ele>
        <time>2025-09-09T10:26:35Z</time>
      </trkpt>
      <trkpt lat="45.96829" lon="4.39447">
        <ele>756.2</ele>
        <time>2025-09-09T10:26:36Z</time>
      </trkpt>
      <trkpt lat="45.96828" lon="4.39445">
        <ele>754.4</ele>
        <time>2025-09-09T10:26:37Z</time>
      </trkpt>
      <trkpt lat="45.96827" lon="4.39443">
        <ele>755.2</ele>
        <time>2025-09-09T10:26:38Z</time>
      </trkpt>
      <trkpt lat="45.96825" lon="4.39441">
        <ele>755.8</ele>
        <time>2025-09-09T10:26:39Z</time>
      </trkpt>
      <trkpt lat="45.96824" lon="4.39439">
        <ele>756.2</ele>
        <time>2025-09-09T10:26:40Z</time>
      </trkpt>
      <trkpt lat="45.96823" lon="4.39437">
        <ele>756.2</ele>
        <time>2025-09-09T10:26:41Z</time>
      </trkpt>
      <trkpt lat="45.96822" lon="4.39435">
        <ele>756.2</ele>
        <time>2025-09-09T10:26:42Z</time>
      </trkpt>
      <trkpt lat="45.96821" lon="4.39433">
        <ele>756.6</ele>
        <time>2025-09-09T10:26:43Z</time>
      </trkpt>
      <trkpt lat="45.9682" lon="4.39431">
        <ele>756.6</ele>
        <time>2025-09-09T10:26:44Z</time>
      </trkpt>
      <trkpt lat="45.96819" lon="4.3943">
        <ele>756.6</ele>
        <time>2025-09-09T10:26:45Z</time>
      </trkpt>
      <trkpt lat="45.96817" lon="4.39428">
        <ele>757</ele>
        <time>2025-09-09T10:26:46Z</time>
      </trkpt>
      <trkpt lat="45.96816" lon="4.39427">
        <ele>757</ele>
        <time>2025-09-09T10:26:47Z</time>
      </trkpt>
      <trkpt lat="45.96814" lon="4.39425">
        <ele>757.2</ele>
        <time>2025-09-09T10:26:48Z</time>
      </trkpt>
      <trkpt lat="45.96813" lon="4.39424">
        <ele>757.6</ele>
        <time>2025-09-09T10:26:49Z</time>
      </trkpt>
      <trkpt lat="45.96811" lon="4.39423">
        <ele>757.6</ele>
        <time>2025-09-09T10:26:50Z</time>
      </trkpt>
      <trkpt lat="45.96809" lon="4.39422">
        <ele>757.6</ele>
        <time>2025-09-09T10:26:51Z</time>
      </trkpt>
      <trkpt lat="45.96808" lon="4.3942">
        <ele>757.6</ele>
        <time>2025-09-09T10:26:52Z</time>
      </trkpt>
      <trkpt lat="45.96807" lon="4.39419">
        <ele>757.6</ele>
        <time>2025-09-09T10:26:53Z</time>
      </trkpt>
      <trkpt lat="45.96805" lon="4.39417">
        <ele>757.8</ele>
        <time>2025-09-09T10:26:54Z</time>
      </trkpt>
      <trkpt lat="45.96804" lon="4.39416">
        <ele>757.8</ele>
        <time>2025-09-09T10:26:55Z</time>
      </trkpt>
      <trkpt lat="45.96803" lon="4.39414">
        <ele>757.8</ele>
        <time>2025-09-09T10:26:56Z</time>
      </trkpt>
      <trkpt lat="45.96801" lon="4.39412">
        <ele>757.8</ele>
        <time>2025-09-09T10:26:57Z</time>
      </trkpt>
      <trkpt lat="45.968" lon="4.3941">
        <ele>757.8</ele>
        <time>2025-09-09T10:26:58Z</time>
      </trkpt>
      <trkpt lat="45.96799" lon="4.39408">
        <ele>757.8</ele>
        <time>2025-09-09T10:26:59Z</time>
      </trkpt>
      <trkpt lat="45.96798" lon="4.39406">
        <ele>757.8</ele>
        <time>2025-09-09T10:27:00Z</time>
      </trkpt>
      <trkpt lat="45.96798" lon="4.39404">
        <ele>757.8</ele>
        <time>2025-09-09T10:27:01Z</time>
      </trkpt>
      <trkpt lat="45.96796" lon="4.39402">
        <ele>758</ele>
        <time>2025-09-09T10:27:02Z</time>
      </trkpt>
      <trkpt lat="45.96795" lon="4.39401">
        <ele>758</ele>
        <time>2025-09-09T10:27:03Z</time>
      </trkpt>
      <trkpt lat="45.96793" lon="4.39399">
        <ele>758</ele>
        <time>2025-09-09T10:27:04Z</time>
      </trkpt>
      <trkpt lat="45.96792" lon="4.39398">
        <ele>758</ele>
        <time>2025-09-09T10:27:05Z</time>
      </trkpt>
      <trkpt lat="45.96791" lon="4.39397">
        <ele>758.4</ele>
        <time>2025-09-09T10:27:06Z</time>
      </trkpt>
      <trkpt lat="45.9679" lon="4.39396">
        <ele>758.8</ele>
        <time>2025-09-09T10:27:07Z</time>
      </trkpt>
      <trkpt lat="45.96788" lon="4.39395">
        <ele>758.8</ele>
        <time>2025-09-09T10:27:08Z</time>
      </trkpt>
      <trkpt lat="45.96786" lon="4.39393">
        <ele>759</ele>
        <time>2025-09-09T10:27:09Z</time>
      </trkpt>
      <trkpt lat="45.96784" lon="4.39392">
        <ele>759.4</ele>
        <time>2025-09-09T10:27:10Z</time>
      </trkpt>
      <trkpt lat="45.96782" lon="4.39392">
        <ele>759.6</ele>
        <time>2025-09-09T10:27:11Z</time>
      </trkpt>
      <trkpt lat="45.9678" lon="4.39391">
        <ele>759.6</ele>
        <time>2025-09-09T10:27:12Z</time>
      </trkpt>
      <trkpt lat="45.96778" lon="4.3939">
        <ele>760</ele>
        <time>2025-09-09T10:27:13Z</time>
      </trkpt>
      <trkpt lat="45.96778" lon="4.39389">
        <ele>760</ele>
        <time>2025-09-09T10:27:14Z</time>
      </trkpt>
      <trkpt lat="45.96777" lon="4.39387">
        <ele>760.4</ele>
        <time>2025-09-09T10:27:15Z</time>
      </trkpt>
      <trkpt lat="45.96776" lon="4.39384">
        <ele>760.4</ele>
        <time>2025-09-09T10:27:16Z</time>
      </trkpt>
      <trkpt lat="45.96775" lon="4.39382">
        <ele>760.4</ele>
        <time>2025-09-09T10:27:17Z</time>
      </trkpt>
      <trkpt lat="45.96775" lon="4.39381">
        <ele>760.8</ele>
        <time>2025-09-09T10:27:18Z</time>
      </trkpt>
      <trkpt lat="45.96774" lon="4.39379">
        <ele>761</ele>
        <time>2025-09-09T10:27:19Z</time>
      </trkpt>
      <trkpt lat="45.96774" lon="4.39377">
        <ele>761</ele>
        <time>2025-09-09T10:27:20Z</time>
      </trkpt>
      <trkpt lat="45.96773" lon="4.39375">
        <ele>761.4</ele>
        <time>2025-09-09T10:27:21Z</time>
      </trkpt>
      <trkpt lat="45.9677" lon="4.39372">
        <ele>761.4</ele>
        <time>2025-09-09T10:27:22Z</time>
      </trkpt>
      <trkpt lat="45.96768" lon="4.3937">
        <ele>761.4</ele>
        <time>2025-09-09T10:27:23Z</time>
      </trkpt>
      <trkpt lat="45.96766" lon="4.39368">
        <ele>761.4</ele>
        <time>2025-09-09T10:27:24Z</time>
      </trkpt>
      <trkpt lat="45.96764" lon="4.39365">
        <ele>761.4</ele>
        <time>2025-09-09T10:27:25Z</time>
      </trkpt>
      <trkpt lat="45.96763" lon="4.39363">
        <ele>761.4</ele>
        <time>2025-09-09T10:27:26Z</time>
      </trkpt>
      <trkpt lat="45.96761" lon="4.3936">
        <ele>761.4</ele>
        <time>2025-09-09T10:27:27Z</time>
      </trkpt>
      <trkpt lat="45.96759" lon="4.39358">
        <ele>761.4</ele>
        <time>2025-09-09T10:27:28Z</time>
      </trkpt>
      <trkpt lat="45.96758" lon="4.39356">
        <ele>761.4</ele>
        <time>2025-09-09T10:27:29Z</time>
      </trkpt>
      <trkpt lat="45.96757" lon="4.39353">
        <ele>761.4</ele>
        <time>2025-09-09T10:27:30Z</time>
      </trkpt>
      <trkpt lat="45.96755" lon="4.39349">
        <ele>761.2</ele>
        <time>2025-09-09T10:27:31Z</time>
      </trkpt>
      <trkpt lat="45.96754" lon="4.39346">
        <ele>761.2</ele>
        <time>2025-09-09T10:27:32Z</time>
      </trkpt>
      <trkpt lat="45.96752" lon="4.39343">
        <ele>761.2</ele>
        <time>2025-09-09T10:27:33Z</time>
      </trkpt>
      <trkpt lat="45.9675" lon="4.3934">
        <ele>761.2</ele>
        <time>2025-09-09T10:27:34Z</time>
      </trkpt>
      <trkpt lat="45.96748" lon="4.39338">
        <ele>761.2</ele>
        <time>2025-09-09T10:27:35Z</time>
      </trkpt>
      <trkpt lat="45.96747" lon="4.39335">
        <ele>761.2</ele>
        <time>2025-09-09T10:27:36Z</time>
      </trkpt>
      <trkpt lat="45.96746" lon="4.39332">
        <ele>761.2</ele>
        <time>2025-09-09T10:27:37Z</time>
      </trkpt>
      <trkpt lat="45.96744" lon="4.39329">
        <ele>761.2</ele>
        <time>2025-09-09T10:27:38Z</time>
      </trkpt>
      <trkpt lat="45.96743" lon="4.39327">
        <ele>761.2</ele>
        <time>2025-09-09T10:27:39Z</time>
      </trkpt>
      <trkpt lat="45.96742" lon="4.39324">
        <ele>761.4</ele>
        <time>2025-09-09T10:27:40Z</time>
      </trkpt>
      <trkpt lat="45.9674" lon="4.39321">
        <ele>761.4</ele>
        <time>2025-09-09T10:27:41Z</time>
      </trkpt>
      <trkpt lat="45.96738" lon="4.39318">
        <ele>761.4</ele>
        <time>2025-09-09T10:27:42Z</time>
      </trkpt>
      <trkpt lat="45.96736" lon="4.39315">
        <ele>761.6</ele>
        <time>2025-09-09T10:27:43Z</time>
      </trkpt>
      <trkpt lat="45.96735" lon="4.39312">
        <ele>761.6</ele>
        <time>2025-09-09T10:27:44Z</time>
      </trkpt>
      <trkpt lat="45.96733" lon="4.39308">
        <ele>761.6</ele>
        <time>2025-09-09T10:27:45Z</time>
      </trkpt>
      <trkpt lat="45.96731" lon="4.39303">
        <ele>761.4</ele>
        <time>2025-09-09T10:27:46Z</time>
      </trkpt>
      <trkpt lat="45.96728" lon="4.39299">
        <ele>761.4</ele>
        <time>2025-09-09T10:27:47Z</time>
      </trkpt>
      <trkpt lat="45.96726" lon="4.39295">
        <ele>761.4</ele>
        <time>2025-09-09T10:27:48Z</time>
      </trkpt>
      <trkpt lat="45.96723" lon="4.39291">
        <ele>761.2</ele>
        <time>2025-09-09T10:27:49Z</time>
      </trkpt>
      <trkpt lat="45.96721" lon="4.39287">
        <ele>761.2</ele>
        <time>2025-09-09T10:27:50Z</time>
      </trkpt>
      <trkpt lat="45.96719" lon="4.39282">
        <ele>761.2</ele>
        <time>2025-09-09T10:27:51Z</time>
      </trkpt>
      <trkpt lat="45.96717" lon="4.39277">
        <ele>761.2</ele>
        <time>2025-09-09T10:27:52Z</time>
      </trkpt>
      <trkpt lat="45.96715" lon="4.39273">
        <ele>761.2</ele>
        <time>2025-09-09T10:27:53Z</time>
      </trkpt>
      <trkpt lat="45.96714" lon="4.39269">
        <ele>761.2</ele>
        <time>2025-09-09T10:27:54Z</time>
      </trkpt>
      <trkpt lat="45.96712" lon="4.39265">
        <ele>761.2</ele>
        <time>2025-09-09T10:27:55Z</time>
      </trkpt>
      <trkpt lat="45.96711" lon="4.39261">
        <ele>762.2</ele>
        <time>2025-09-09T10:27:56Z</time>
      </trkpt>
      <trkpt lat="45.96709" lon="4.39257">
        <ele>762</ele>
        <time>2025-09-09T10:27:57Z</time>
      </trkpt>
      <trkpt lat="45.96708" lon="4.39254">
        <ele>762</ele>
        <time>2025-09-09T10:27:58Z</time>
      </trkpt>
      <trkpt lat="45.96706" lon="4.39249">
        <ele>762</ele>
        <time>2025-09-09T10:27:59Z</time>
      </trkpt>
      <trkpt lat="45.96704" lon="4.39245">
        <ele>762</ele>
        <time>2025-09-09T10:28:00Z</time>
      </trkpt>
      <trkpt lat="45.96703" lon="4.3924">
        <ele>762</ele>
        <time>2025-09-09T10:28:01Z</time>
      </trkpt>
      <trkpt lat="45.96701" lon="4.39235">
        <ele>761.4</ele>
        <time>2025-09-09T10:28:02Z</time>
      </trkpt>
      <trkpt lat="45.967" lon="4.3923">
        <ele>761.4</ele>
        <time>2025-09-09T10:28:03Z</time>
      </trkpt>
      <trkpt lat="45.96698" lon="4.39227">
        <ele>761.4</ele>
        <time>2025-09-09T10:28:04Z</time>
      </trkpt>
      <trkpt lat="45.96697" lon="4.39223">
        <ele>761.4</ele>
        <time>2025-09-09T10:28:05Z</time>
      </trkpt>
      <trkpt lat="45.96695" lon="4.39219">
        <ele>761.4</ele>
        <time>2025-09-09T10:28:06Z</time>
      </trkpt>
      <trkpt lat="45.96694" lon="4.39215">
        <ele>761.4</ele>
        <time>2025-09-09T10:28:07Z</time>
      </trkpt>
      <trkpt lat="45.96692" lon="4.39211">
        <ele>761.4</ele>
        <time>2025-09-09T10:28:08Z</time>
      </trkpt>
      <trkpt lat="45.96691" lon="4.39206">
        <ele>761.4</ele>
        <time>2025-09-09T10:28:09Z</time>
      </trkpt>
      <trkpt lat="45.9669" lon="4.39202">
        <ele>761.4</ele>
        <time>2025-09-09T10:28:10Z</time>
      </trkpt>
      <trkpt lat="45.96689" lon="4.39197">
        <ele>761.4</ele>
        <time>2025-09-09T10:28:11Z</time>
      </trkpt>
      <trkpt lat="45.96688" lon="4.39193">
        <ele>761.8</ele>
        <time>2025-09-09T10:28:12Z</time>
      </trkpt>
      <trkpt lat="45.96688" lon="4.39188">
        <ele>761.8</ele>
        <time>2025-09-09T10:28:13Z</time>
      </trkpt>
      <trkpt lat="45.96687" lon="4.39184">
        <ele>761.6</ele>
        <time>2025-09-09T10:28:14Z</time>
      </trkpt>
      <trkpt lat="45.96687" lon="4.3918">
        <ele>761.6</ele>
        <time>2025-09-09T10:28:15Z</time>
      </trkpt>
      <trkpt lat="45.96686" lon="4.39177">
        <ele>761.6</ele>
        <time>2025-09-09T10:28:16Z</time>
      </trkpt>
      <trkpt lat="45.96685" lon="4.39174">
        <ele>761.6</ele>
        <time>2025-09-09T10:28:17Z</time>
      </trkpt>
      <trkpt lat="45.96684" lon="4.39171">
        <ele>761.6</ele>
        <time>2025-09-09T10:28:18Z</time>
      </trkpt>
      <trkpt lat="45.96683" lon="4.39168">
        <ele>761.6</ele>
        <time>2025-09-09T10:28:19Z</time>
      </trkpt>
      <trkpt lat="45.96682" lon="4.39165">
        <ele>761.2</ele>
        <time>2025-09-09T10:28:20Z</time>
      </trkpt>
      <trkpt lat="45.96681" lon="4.39161">
        <ele>761.2</ele>
        <time>2025-09-09T10:28:21Z</time>
      </trkpt>
      <trkpt lat="45.9668" lon="4.39155">
        <ele>761.2</ele>
        <time>2025-09-09T10:28:22Z</time>
      </trkpt>
      <trkpt lat="45.96678" lon="4.3915">
        <ele>761.2</ele>
        <time>2025-09-09T10:28:23Z</time>
      </trkpt>
      <trkpt lat="45.96677" lon="4.39144">
        <ele>761.2</ele>
        <time>2025-09-09T10:28:24Z</time>
      </trkpt>
      <trkpt lat="45.96675" lon="4.39137">
        <ele>761.2</ele>
        <time>2025-09-09T10:28:25Z</time>
      </trkpt>
      <trkpt lat="45.96673" lon="4.39131">
        <ele>760.6</ele>
        <time>2025-09-09T10:28:26Z</time>
      </trkpt>
      <trkpt lat="45.96672" lon="4.39125">
        <ele>760.6</ele>
        <time>2025-09-09T10:28:27Z</time>
      </trkpt>
      <trkpt lat="45.96671" lon="4.39119">
        <ele>760.2</ele>
        <time>2025-09-09T10:28:28Z</time>
      </trkpt>
      <trkpt lat="45.96669" lon="4.39114">
        <ele>760.2</ele>
        <time>2025-09-09T10:28:29Z</time>
      </trkpt>
      <trkpt lat="45.96668" lon="4.39108">
        <ele>760</ele>
        <time>2025-09-09T10:28:30Z</time>
      </trkpt>
      <trkpt lat="45.96667" lon="4.39101">
        <ele>759.6</ele>
        <time>2025-09-09T10:28:31Z</time>
      </trkpt>
      <trkpt lat="45.96665" lon="4.39094">
        <ele>759.6</ele>
        <time>2025-09-09T10:28:32Z</time>
      </trkpt>
      <trkpt lat="45.96663" lon="4.39087">
        <ele>759.4</ele>
        <time>2025-09-09T10:28:33Z</time>
      </trkpt>
      <trkpt lat="45.96661" lon="4.3908">
        <ele>759.4</ele>
        <time>2025-09-09T10:28:34Z</time>
      </trkpt>
      <trkpt lat="45.96657" lon="4.39073">
        <ele>759.2</ele>
        <time>2025-09-09T10:28:35Z</time>
      </trkpt>
      <trkpt lat="45.96654" lon="4.39065">
        <ele>758.6</ele>
        <time>2025-09-09T10:28:36Z</time>
      </trkpt>
      <trkpt lat="45.9665" lon="4.39059">
        <ele>758.2</ele>
        <time>2025-09-09T10:28:37Z</time>
      </trkpt>
      <trkpt lat="45.96646" lon="4.39051">
        <ele>757.8</ele>
        <time>2025-09-09T10:28:38Z</time>
      </trkpt>
      <trkpt lat="45.96642" lon="4.39043">
        <ele>757.2</ele>
        <time>2025-09-09T10:28:39Z</time>
      </trkpt>
      <trkpt lat="45.96638" lon="4.39034">
        <ele>756.8</ele>
        <time>2025-09-09T10:28:40Z</time>
      </trkpt>
      <trkpt lat="45.96637" lon="4.39025">
        <ele>756.6</ele>
        <time>2025-09-09T10:28:41Z</time>
      </trkpt>
      <trkpt lat="45.96634" lon="4.39015">
        <ele>756.2</ele>
        <time>2025-09-09T10:28:42Z</time>
      </trkpt>
      <trkpt lat="45.96632" lon="4.39003">
        <ele>756</ele>
        <time>2025-09-09T10:28:43Z</time>
      </trkpt>
      <trkpt lat="45.96629" lon="4.38994">
        <ele>755.6</ele>
        <time>2025-09-09T10:28:44Z</time>
      </trkpt>
      <trkpt lat="45.96626" lon="4.38986">
        <ele>754.8</ele>
        <time>2025-09-09T10:28:45Z</time>
      </trkpt>
      <trkpt lat="45.96625" lon="4.3898">
        <ele>754.8</ele>
        <time>2025-09-09T10:28:46Z</time>
      </trkpt>
      <trkpt lat="45.96624" lon="4.38976">
        <ele>754.4</ele>
        <time>2025-09-09T10:28:47Z</time>
      </trkpt>
      <trkpt lat="45.96623" lon="4.38972">
        <ele>754</ele>
        <time>2025-09-09T10:28:48Z</time>
      </trkpt>
      <trkpt lat="45.96622" lon="4.38968">
        <ele>754</ele>
        <time>2025-09-09T10:28:49Z</time>
      </trkpt>
      <trkpt lat="45.9662" lon="4.38965">
        <ele>753.8</ele>
        <time>2025-09-09T10:28:50Z</time>
      </trkpt>
      <trkpt lat="45.96618" lon="4.38962">
        <ele>753.8</ele>
        <time>2025-09-09T10:28:51Z</time>
      </trkpt>
      <trkpt lat="45.96615" lon="4.38959">
        <ele>753.8</ele>
        <time>2025-09-09T10:28:52Z</time>
      </trkpt>
      <trkpt lat="45.96614" lon="4.38957">
        <ele>753.8</ele>
        <time>2025-09-09T10:28:53Z</time>
      </trkpt>
      <trkpt lat="45.96613" lon="4.38954">
        <ele>753.8</ele>
        <time>2025-09-09T10:28:54Z</time>
      </trkpt>
      <trkpt lat="45.96612" lon="4.38953">
        <ele>753.8</ele>
        <time>2025-09-09T10:28:55Z</time>
      </trkpt>
      <trkpt lat="45.96612" lon="4.38951">
        <ele>753.8</ele>
        <time>2025-09-09T10:28:56Z</time>
      </trkpt>
      <trkpt lat="45.96611" lon="4.3895">
        <ele>754.2</ele>
        <time>2025-09-09T10:28:57Z</time>
      </trkpt>
      <trkpt lat="45.96611" lon="4.38949">
        <ele>754.2</ele>
        <time>2025-09-09T10:28:58Z</time>
      </trkpt>
      <trkpt lat="45.96611" lon="4.38949">
        <ele>754.4</ele>
        <time>2025-09-09T10:28:59Z</time>
      </trkpt>
      <trkpt lat="45.96612" lon="4.38949">
        <ele>754.6</ele>
        <time>2025-09-09T10:29:16Z</time>
      </trkpt>
      <trkpt lat="45.96613" lon="4.38948">
        <ele>754.6</ele>
        <time>2025-09-09T10:29:17Z</time>
      </trkpt>
      <trkpt lat="45.96614" lon="4.38947">
        <ele>754.6</ele>
        <time>2025-09-09T10:29:18Z</time>
      </trkpt>
      <trkpt lat="45.96615" lon="4.38948">
        <ele>754.6</ele>
        <time>2025-09-09T10:29:19Z</time>
      </trkpt>
      <trkpt lat="45.96616" lon="4.3895">
        <ele>754.6</ele>
        <time>2025-09-09T10:29:20Z</time>
      </trkpt>
      <trkpt lat="45.96617" lon="4.38953">
        <ele>754.6</ele>
        <time>2025-09-09T10:29:21Z</time>
      </trkpt>
      <trkpt lat="45.96617" lon="4.38956">
        <ele>754.2</ele>
        <time>2025-09-09T10:29:22Z</time>
      </trkpt>
      <trkpt lat="45.96618" lon="4.38958">
        <ele>754.2</ele>
        <time>2025-09-09T10:29:23Z</time>
      </trkpt>
      <trkpt lat="45.96618" lon="4.38958">
        <ele>753.8</ele>
        <time>2025-09-09T10:29:24Z</time>
      </trkpt>
      <trkpt lat="45.96618" lon="4.38958">
        <ele>753.8</ele>
        <time>2025-09-09T10:29:25Z</time>
      </trkpt>
      <trkpt lat="45.96618" lon="4.38958">
        <ele>753.8</ele>
        <time>2025-09-09T10:29:26Z</time>
      </trkpt>
      <trkpt lat="45.96618" lon="4.38956">
        <ele>753.8</ele>
        <time>2025-09-09T10:30:02Z</time>
      </trkpt>
      <trkpt lat="45.96618" lon="4.38958">
        <ele>753.8</ele>
        <time>2025-09-09T10:30:03Z</time>
      </trkpt>
      <trkpt lat="45.96617" lon="4.38962">
        <ele>753.8</ele>
        <time>2025-09-09T10:30:04Z</time>
      </trkpt>
      <trkpt lat="45.96616" lon="4.38965">
        <ele>753.6</ele>
        <time>2025-09-09T10:30:05Z</time>
      </trkpt>
      <trkpt lat="45.96615" lon="4.38968">
        <ele>753.6</ele>
        <time>2025-09-09T10:30:06Z</time>
      </trkpt>
      <trkpt lat="45.96613" lon="4.3897">
        <ele>753.6</ele>
        <time>2025-09-09T10:30:07Z</time>
      </trkpt>
      <trkpt lat="45.96611" lon="4.38971">
        <ele>753.6</ele>
        <time>2025-09-09T10:30:08Z</time>
      </trkpt>
      <trkpt lat="45.96609" lon="4.38971">
        <ele>753.6</ele>
        <time>2025-09-09T10:30:09Z</time>
      </trkpt>
      <trkpt lat="45.96606" lon="4.3897">
        <ele>753.6</ele>
        <time>2025-09-09T10:30:10Z</time>
      </trkpt>
      <trkpt lat="45.96603" lon="4.3897">
        <ele>753.6</ele>
        <time>2025-09-09T10:30:11Z</time>
      </trkpt>
      <trkpt lat="45.966" lon="4.38969">
        <ele>753.6</ele>
        <time>2025-09-09T10:30:12Z</time>
      </trkpt>
      <trkpt lat="45.96596" lon="4.38968">
        <ele>753.6</ele>
        <time>2025-09-09T10:30:13Z</time>
      </trkpt>
      <trkpt lat="45.96593" lon="4.38966">
        <ele>753.6</ele>
        <time>2025-09-09T10:30:14Z</time>
      </trkpt>
      <trkpt lat="45.96589" lon="4.38964">
        <ele>753.6</ele>
        <time>2025-09-09T10:30:15Z</time>
      </trkpt>
      <trkpt lat="45.96586" lon="4.38961">
        <ele>753.6</ele>
        <time>2025-09-09T10:30:16Z</time>
      </trkpt>
      <trkpt lat="45.96582" lon="4.38958">
        <ele>753.6</ele>
        <time>2025-09-09T10:30:17Z</time>
      </trkpt>
      <trkpt lat="45.96578" lon="4.38955">
        <ele>753.6</ele>
        <time>2025-09-09T10:30:18Z</time>
      </trkpt>
      <trkpt lat="45.96574" lon="4.38952">
        <ele>753.6</ele>
        <time>2025-09-09T10:30:19Z</time>
      </trkpt>
      <trkpt lat="45.9657" lon="4.3895">
        <ele>753.6</ele>
        <time>2025-09-09T10:30:20Z</time>
      </trkpt>
      <trkpt lat="45.96566" lon="4.38947">
        <ele>753.6</ele>
        <time>2025-09-09T10:30:21Z</time>
      </trkpt>
      <trkpt lat="45.96562" lon="4.38945">
        <ele>753.6</ele>
        <time>2025-09-09T10:30:22Z</time>
      </trkpt>
      <trkpt lat="45.96558" lon="4.38942">
        <ele>753.6</ele>
        <time>2025-09-09T10:30:23Z</time>
      </trkpt>
      <trkpt lat="45.96554" lon="4.38939">
        <ele>753.6</ele>
        <time>2025-09-09T10:30:24Z</time>
      </trkpt>
      <trkpt lat="45.9655" lon="4.38936">
        <ele>753.4</ele>
        <time>2025-09-09T10:30:25Z</time>
      </trkpt>
      <trkpt lat="45.96546" lon="4.38933">
        <ele>753.4</ele>
        <time>2025-09-09T10:30:26Z</time>
      </trkpt>
      <trkpt lat="45.96543" lon="4.38931">
        <ele>753.4</ele>
        <time>2025-09-09T10:30:27Z</time>
      </trkpt>
      <trkpt lat="45.96538" lon="4.38928">
        <ele>753.4</ele>
        <time>2025-09-09T10:30:28Z</time>
      </trkpt>
      <trkpt lat="45.96534" lon="4.38925">
        <ele>753.4</ele>
        <time>2025-09-09T10:30:29Z</time>
      </trkpt>
      <trkpt lat="45.96531" lon="4.38922">
        <ele>753.4</ele>
        <time>2025-09-09T10:30:30Z</time>
      </trkpt>
      <trkpt lat="45.96526" lon="4.38919">
        <ele>753.4</ele>
        <time>2025-09-09T10:30:31Z</time>
      </trkpt>
      <trkpt lat="45.96523" lon="4.38917">
        <ele>753.4</ele>
        <time>2025-09-09T10:30:32Z</time>
      </trkpt>
      <trkpt lat="45.96519" lon="4.38916">
        <ele>753.4</ele>
        <time>2025-09-09T10:30:33Z</time>
      </trkpt>
      <trkpt lat="45.96515" lon="4.38915">
        <ele>753.4</ele>
        <time>2025-09-09T10:30:34Z</time>
      </trkpt>
      <trkpt lat="45.96511" lon="4.38915">
        <ele>753.2</ele>
        <time>2025-09-09T10:30:35Z</time>
      </trkpt>
      <trkpt lat="45.96506" lon="4.38914">
        <ele>753.2</ele>
        <time>2025-09-09T10:30:36Z</time>
      </trkpt>
      <trkpt lat="45.96502" lon="4.38913">
        <ele>753.2</ele>
        <time>2025-09-09T10:30:37Z</time>
      </trkpt>
      <trkpt lat="45.96498" lon="4.38911">
        <ele>752.8</ele>
        <time>2025-09-09T10:30:38Z</time>
      </trkpt>
      <trkpt lat="45.96493" lon="4.38911">
        <ele>752.8</ele>
        <time>2025-09-09T10:30:39Z</time>
      </trkpt>
      <trkpt lat="45.96489" lon="4.38911">
        <ele>752.6</ele>
        <time>2025-09-09T10:30:40Z</time>
      </trkpt>
      <trkpt lat="45.96485" lon="4.3891">
        <ele>752.6</ele>
        <time>2025-09-09T10:30:41Z</time>
      </trkpt>
      <trkpt lat="45.96481" lon="4.38908">
        <ele>752.6</ele>
        <time>2025-09-09T10:30:42Z</time>
      </trkpt>
      <trkpt lat="45.96476" lon="4.38907">
        <ele>752.2</ele>
        <time>2025-09-09T10:30:43Z</time>
      </trkpt>
      <trkpt lat="45.96472" lon="4.38905">
        <ele>752.2</ele>
        <time>2025-09-09T10:30:44Z</time>
      </trkpt>
      <trkpt lat="45.96468" lon="4.38904">
        <ele>752.2</ele>
        <time>2025-09-09T10:30:45Z</time>
      </trkpt>
      <trkpt lat="45.96463" lon="4.38902">
        <ele>752.2</ele>
        <time>2025-09-09T10:30:46Z</time>
      </trkpt>
      <trkpt lat="45.9646" lon="4.38899">
        <ele>752.2</ele>
        <time>2025-09-09T10:30:47Z</time>
      </trkpt>
      <trkpt lat="45.96455" lon="4.38897">
        <ele>752.2</ele>
        <time>2025-09-09T10:30:48Z</time>
      </trkpt>
      <trkpt lat="45.96451" lon="4.38895">
        <ele>752.2</ele>
        <time>2025-09-09T10:30:49Z</time>
      </trkpt>
      <trkpt lat="45.96447" lon="4.38892">
        <ele>752.2</ele>
        <time>2025-09-09T10:30:50Z</time>
      </trkpt>
      <trkpt lat="45.96443" lon="4.3889">
        <ele>752.2</ele>
        <time>2025-09-09T10:30:51Z</time>
      </trkpt>
      <trkpt lat="45.96439" lon="4.38888">
        <ele>752.2</ele>
        <time>2025-09-09T10:30:52Z</time>
      </trkpt>
      <trkpt lat="45.96434" lon="4.38885">
        <ele>752</ele>
        <time>2025-09-09T10:30:53Z</time>
      </trkpt>
      <trkpt lat="45.9643" lon="4.38883">
        <ele>752</ele>
        <time>2025-09-09T10:30:54Z</time>
      </trkpt>
      <trkpt lat="45.96426" lon="4.38881">
        <ele>751.8</ele>
        <time>2025-09-09T10:30:55Z</time>
      </trkpt>
      <trkpt lat="45.96422" lon="4.38879">
        <ele>751.8</ele>
        <time>2025-09-09T10:30:56Z</time>
      </trkpt>
      <trkpt lat="45.96418" lon="4.38878">
        <ele>751.8</ele>
        <time>2025-09-09T10:30:57Z</time>
      </trkpt>
      <trkpt lat="45.96413" lon="4.38876">
        <ele>751.8</ele>
        <time>2025-09-09T10:30:58Z</time>
      </trkpt>
      <trkpt lat="45.96408" lon="4.38877">
        <ele>751.8</ele>
        <time>2025-09-09T10:30:59Z</time>
      </trkpt>
      <trkpt lat="45.96404" lon="4.38877">
        <ele>751.8</ele>
        <time>2025-09-09T10:31:00Z</time>
      </trkpt>
      <trkpt lat="45.96399" lon="4.38878">
        <ele>751.8</ele>
        <time>2025-09-09T10:31:01Z</time>
      </trkpt>
      <trkpt lat="45.96394" lon="4.38879">
        <ele>751.8</ele>
        <time>2025-09-09T10:31:02Z</time>
      </trkpt>
      <trkpt lat="45.96389" lon="4.3888">
        <ele>751.8</ele>
        <time>2025-09-09T10:31:03Z</time>
      </trkpt>
      <trkpt lat="45.96384" lon="4.38882">
        <ele>751.4</ele>
        <time>2025-09-09T10:31:04Z</time>
      </trkpt>
      <trkpt lat="45.96379" lon="4.38885">
        <ele>751.4</ele>
        <time>2025-09-09T10:31:05Z</time>
      </trkpt>
      <trkpt lat="45.96372" lon="4.38887">
        <ele>751.4</ele>
        <time>2025-09-09T10:31:06Z</time>
      </trkpt>
      <trkpt lat="45.96367" lon="4.38886">
        <ele>751.2</ele>
        <time>2025-09-09T10:31:07Z</time>
      </trkpt>
      <trkpt lat="45.9636" lon="4.38886">
        <ele>751.2</ele>
        <time>2025-09-09T10:31:08Z</time>
      </trkpt>
      <trkpt lat="45.96355" lon="4.38886">
        <ele>751.2</ele>
        <time>2025-09-09T10:31:09Z</time>
      </trkpt>
      <trkpt lat="45.96349" lon="4.38888">
        <ele>751.2</ele>
        <time>2025-09-09T10:31:10Z</time>
      </trkpt>
      <trkpt lat="45.96344" lon="4.38892">
        <ele>750.8</ele>
        <time>2025-09-09T10:31:11Z</time>
      </trkpt>
      <trkpt lat="45.96338" lon="4.38897">
        <ele>750.8</ele>
        <time>2025-09-09T10:31:12Z</time>
      </trkpt>
      <trkpt lat="45.96332" lon="4.38899">
        <ele>750.8</ele>
        <time>2025-09-09T10:31:13Z</time>
      </trkpt>
      <trkpt lat="45.96325" lon="4.38902">
        <ele>750.8</ele>
        <time>2025-09-09T10:31:14Z</time>
      </trkpt>
      <trkpt lat="45.9632" lon="4.38904">
        <ele>750.8</ele>
        <time>2025-09-09T10:31:15Z</time>
      </trkpt>
      <trkpt lat="45.96314" lon="4.38908">
        <ele>750.6</ele>
        <time>2025-09-09T10:31:16Z</time>
      </trkpt>
      <trkpt lat="45.96308" lon="4.38911">
        <ele>750.6</ele>
        <time>2025-09-09T10:31:17Z</time>
      </trkpt>
      <trkpt lat="45.96303" lon="4.38913">
        <ele>750.6</ele>
        <time>2025-09-09T10:31:18Z</time>
      </trkpt>
      <trkpt lat="45.96298" lon="4.38916">
        <ele>750.2</ele>
        <time>2025-09-09T10:31:19Z</time>
      </trkpt>
      <trkpt lat="45.96292" lon="4.38918">
        <ele>750.2</ele>
        <time>2025-09-09T10:31:20Z</time>
      </trkpt>
      <trkpt lat="45.96287" lon="4.38919">
        <ele>750.2</ele>
        <time>2025-09-09T10:31:21Z</time>
      </trkpt>
      <trkpt lat="45.96285" lon="4.38922">
        <ele>750.2</ele>
        <time>2025-09-09T10:31:22Z</time>
      </trkpt>
      <trkpt lat="45.96285" lon="4.38925">
        <ele>750</ele>
        <time>2025-09-09T10:31:23Z</time>
      </trkpt>
      <trkpt lat="45.96285" lon="4.38927">
        <ele>750</ele>
        <time>2025-09-09T10:31:24Z</time>
      </trkpt>
      <trkpt lat="45.96286" lon="4.38927">
        <ele>750</ele>
        <time>2025-09-09T10:31:25Z</time>
      </trkpt>
      <trkpt lat="45.96287" lon="4.38929">
        <ele>749.8</ele>
        <time>2025-09-09T10:31:26Z</time>
      </trkpt>
      <trkpt lat="45.9629" lon="4.3893">
        <ele>749.8</ele>
        <time>2025-09-09T10:31:27Z</time>
      </trkpt>
      <trkpt lat="45.9629" lon="4.38928">
        <ele>749.8</ele>
        <time>2025-09-09T10:31:28Z</time>
      </trkpt>
      <trkpt lat="45.96289" lon="4.38927">
        <ele>749.8</ele>
        <time>2025-09-09T10:31:29Z</time>
      </trkpt>
      <trkpt lat="45.96289" lon="4.38927">
        <ele>749.8</ele>
        <time>2025-09-09T10:31:30Z</time>
      </trkpt>
      <trkpt lat="45.96289" lon="4.38927">
        <ele>749.8</ele>
        <time>2025-09-09T10:31:31Z</time>
      </trkpt>
      <trkpt lat="45.96289" lon="4.38927">
        <ele>749.8</ele>
        <time>2025-09-09T10:31:32Z</time>
      </trkpt>
      <trkpt lat="45.96284" lon="4.38928">
        <ele>749.4</ele>
        <time>2025-09-09T10:31:33Z</time>
      </trkpt>
      <trkpt lat="45.96282" lon="4.38928">
        <ele>749.4</ele>
        <time>2025-09-09T10:31:34Z</time>
      </trkpt>
      <trkpt lat="45.96283" lon="4.38928">
        <ele>749.4</ele>
        <time>2025-09-09T10:31:35Z</time>
      </trkpt>
      <trkpt lat="45.96283" lon="4.38928">
        <ele>749.6</ele>
        <time>2025-09-09T10:31:36Z</time>
      </trkpt>
      <trkpt lat="45.96283" lon="4.38924">
        <ele>750.4</ele>
        <time>2025-09-09T10:32:54Z</time>
      </trkpt>
      <trkpt lat="45.96283" lon="4.38922">
        <ele>750.4</ele>
        <time>2025-09-09T10:32:55Z</time>
      </trkpt>
      <trkpt lat="45.96281" lon="4.38919">
        <ele>750.4</ele>
        <time>2025-09-09T10:32:56Z</time>
      </trkpt>
      <trkpt lat="45.96279" lon="4.38917">
        <ele>750</ele>
        <time>2025-09-09T10:32:57Z</time>
      </trkpt>
      <trkpt lat="45.96276" lon="4.38914">
        <ele>749.8</ele>
        <time>2025-09-09T10:32:58Z</time>
      </trkpt>
      <trkpt lat="45.96273" lon="4.38913">
        <ele>749.8</ele>
        <time>2025-09-09T10:32:59Z</time>
      </trkpt>
      <trkpt lat="45.9627" lon="4.38912">
        <ele>749.8</ele>
        <time>2025-09-09T10:33:00Z</time>
      </trkpt>
      <trkpt lat="45.96267" lon="4.38911">
        <ele>749.6</ele>
        <time>2025-09-09T10:33:01Z</time>
      </trkpt>
      <trkpt lat="45.96263" lon="4.38909">
        <ele>749.6</ele>
        <time>2025-09-09T10:33:02Z</time>
      </trkpt>
      <trkpt lat="45.96259" lon="4.38908">
        <ele>749.6</ele>
        <time>2025-09-09T10:33:03Z</time>
      </trkpt>
      <trkpt lat="45.96255" lon="4.38905">
        <ele>749.4</ele>
        <time>2025-09-09T10:33:04Z</time>
      </trkpt>
      <trkpt lat="45.9625" lon="4.38901">
        <ele>749.4</ele>
        <time>2025-09-09T10:33:05Z</time>
      </trkpt>
      <trkpt lat="45.96246" lon="4.38898">
        <ele>749.4</ele>
        <time>2025-09-09T10:33:06Z</time>
      </trkpt>
      <trkpt lat="45.96241" lon="4.38893">
        <ele>749.4</ele>
        <time>2025-09-09T10:33:07Z</time>
      </trkpt>
      <trkpt lat="45.96237" lon="4.3889">
        <ele>749.4</ele>
        <time>2025-09-09T10:33:08Z</time>
      </trkpt>
      <trkpt lat="45.96232" lon="4.38886">
        <ele>749.4</ele>
        <time>2025-09-09T10:33:09Z</time>
      </trkpt>
      <trkpt lat="45.96227" lon="4.3888">
        <ele>749</ele>
        <time>2025-09-09T10:33:10Z</time>
      </trkpt>
      <trkpt lat="45.96223" lon="4.38875">
        <ele>749</ele>
        <time>2025-09-09T10:33:11Z</time>
      </trkpt>
      <trkpt lat="45.96218" lon="4.3887">
        <ele>749</ele>
        <time>2025-09-09T10:33:12Z</time>
      </trkpt>
      <trkpt lat="45.96213" lon="4.38865">
        <ele>748.8</ele>
        <time>2025-09-09T10:33:13Z</time>
      </trkpt>
      <trkpt lat="45.96208" lon="4.3886">
        <ele>748.8</ele>
        <time>2025-09-09T10:33:14Z</time>
      </trkpt>
      <trkpt lat="45.96203" lon="4.38856">
        <ele>748.8</ele>
        <time>2025-09-09T10:33:15Z</time>
      </trkpt>
      <trkpt lat="45.96198" lon="4.38852">
        <ele>748.8</ele>
        <time>2025-09-09T10:33:16Z</time>
      </trkpt>
      <trkpt lat="45.96193" lon="4.38848">
        <ele>748.8</ele>
        <time>2025-09-09T10:33:17Z</time>
      </trkpt>
      <trkpt lat="45.96188" lon="4.38844">
        <ele>748.8</ele>
        <time>2025-09-09T10:33:18Z</time>
      </trkpt>
      <trkpt lat="45.96182" lon="4.3884">
        <ele>748.8</ele>
        <time>2025-09-09T10:33:19Z</time>
      </trkpt>
      <trkpt lat="45.96176" lon="4.38836">
        <ele>748.8</ele>
        <time>2025-09-09T10:33:20Z</time>
      </trkpt>
      <trkpt lat="45.96172" lon="4.38832">
        <ele>748.8</ele>
        <time>2025-09-09T10:33:21Z</time>
      </trkpt>
      <trkpt lat="45.96166" lon="4.38829">
        <ele>748.8</ele>
        <time>2025-09-09T10:33:22Z</time>
      </trkpt>
      <trkpt lat="45.96162" lon="4.38825">
        <ele>748.8</ele>
        <time>2025-09-09T10:33:23Z</time>
      </trkpt>
      <trkpt lat="45.96157" lon="4.38822">
        <ele>748.8</ele>
        <time>2025-09-09T10:33:24Z</time>
      </trkpt>
      <trkpt lat="45.96151" lon="4.38818">
        <ele>748.8</ele>
        <time>2025-09-09T10:33:25Z</time>
      </trkpt>
      <trkpt lat="45.96146" lon="4.38815">
        <ele>748.8</ele>
        <time>2025-09-09T10:33:26Z</time>
      </trkpt>
      <trkpt lat="45.96141" lon="4.3881">
        <ele>748.8</ele>
        <time>2025-09-09T10:33:27Z</time>
      </trkpt>
      <trkpt lat="45.96136" lon="4.38807">
        <ele>748.8</ele>
        <time>2025-09-09T10:33:28Z</time>
      </trkpt>
      <trkpt lat="45.96131" lon="4.38804">
        <ele>748.8</ele>
        <time>2025-09-09T10:33:29Z</time>
      </trkpt>
      <trkpt lat="45.96126" lon="4.388">
        <ele>748.8</ele>
        <time>2025-09-09T10:33:30Z</time>
      </trkpt>
      <trkpt lat="45.96121" lon="4.38797">
        <ele>748.8</ele>
        <time>2025-09-09T10:33:31Z</time>
      </trkpt>
      <trkpt lat="45.96116" lon="4.38793">
        <ele>748.8</ele>
        <time>2025-09-09T10:33:32Z</time>
      </trkpt>
      <trkpt lat="45.9611" lon="4.3879">
        <ele>748.8</ele>
        <time>2025-09-09T10:33:33Z</time>
      </trkpt>
      <trkpt lat="45.96105" lon="4.38786">
        <ele>748.8</ele>
        <time>2025-09-09T10:33:34Z</time>
      </trkpt>
      <trkpt lat="45.961" lon="4.38782">
        <ele>748.8</ele>
        <time>2025-09-09T10:33:35Z</time>
      </trkpt>
      <trkpt lat="45.96095" lon="4.3878">
        <ele>748.4</ele>
        <time>2025-09-09T10:33:36Z</time>
      </trkpt>
      <trkpt lat="45.9609" lon="4.38777">
        <ele>748.4</ele>
        <time>2025-09-09T10:33:37Z</time>
      </trkpt>
      <trkpt lat="45.96085" lon="4.38774">
        <ele>748.2</ele>
        <time>2025-09-09T10:33:38Z</time>
      </trkpt>
      <trkpt lat="45.9608" lon="4.38772">
        <ele>748.6</ele>
        <time>2025-09-09T10:33:39Z</time>
      </trkpt>
      <trkpt lat="45.96075" lon="4.38769">
        <ele>748.6</ele>
        <time>2025-09-09T10:33:40Z</time>
      </trkpt>
      <trkpt lat="45.96069" lon="4.38768">
        <ele>748.6</ele>
        <time>2025-09-09T10:33:41Z</time>
      </trkpt>
      <trkpt lat="45.96064" lon="4.38767">
        <ele>748.6</ele>
        <time>2025-09-09T10:33:42Z</time>
      </trkpt>
      <trkpt lat="45.96058" lon="4.38767">
        <ele>748.2</ele>
        <time>2025-09-09T10:33:43Z</time>
      </trkpt>
      <trkpt lat="45.96053" lon="4.38766">
        <ele>748.2</ele>
        <time>2025-09-09T10:33:44Z</time>
      </trkpt>
      <trkpt lat="45.96047" lon="4.38766">
        <ele>748.2</ele>
        <time>2025-09-09T10:33:45Z</time>
      </trkpt>
      <trkpt lat="45.96041" lon="4.38766">
        <ele>748</ele>
        <time>2025-09-09T10:33:46Z</time>
      </trkpt>
      <trkpt lat="45.96037" lon="4.38766">
        <ele>748</ele>
        <time>2025-09-09T10:33:47Z</time>
      </trkpt>
      <trkpt lat="45.96037" lon="4.38766">
        <ele>748</ele>
        <time>2025-09-09T10:33:48Z</time>
      </trkpt>
      <trkpt lat="45.96031" lon="4.38765">
        <ele>748</ele>
        <time>2025-09-09T10:33:49Z</time>
      </trkpt>
      <trkpt lat="45.96026" lon="4.38765">
        <ele>748</ele>
        <time>2025-09-09T10:33:50Z</time>
      </trkpt>
      <trkpt lat="45.96021" lon="4.38765">
        <ele>748</ele>
        <time>2025-09-09T10:33:51Z</time>
      </trkpt>
      <trkpt lat="45.96016" lon="4.38766">
        <ele>748</ele>
        <time>2025-09-09T10:33:52Z</time>
      </trkpt>
      <trkpt lat="45.96011" lon="4.38766">
        <ele>748</ele>
        <time>2025-09-09T10:33:53Z</time>
      </trkpt>
      <trkpt lat="45.96006" lon="4.38766">
        <ele>748</ele>
        <time>2025-09-09T10:33:54Z</time>
      </trkpt>
      <trkpt lat="45.96001" lon="4.38766">
        <ele>748</ele>
        <time>2025-09-09T10:33:55Z</time>
      </trkpt>
      <trkpt lat="45.95995" lon="4.38765">
        <ele>748</ele>
        <time>2025-09-09T10:33:56Z</time>
      </trkpt>
      <trkpt lat="45.9599" lon="4.38765">
        <ele>748</ele>
        <time>2025-09-09T10:33:57Z</time>
      </trkpt>
      <trkpt lat="45.95985" lon="4.38765">
        <ele>747.8</ele>
        <time>2025-09-09T10:33:58Z</time>
      </trkpt>
      <trkpt lat="45.9598" lon="4.38765">
        <ele>747.8</ele>
        <time>2025-09-09T10:33:59Z</time>
      </trkpt>
      <trkpt lat="45.95974" lon="4.38765">
        <ele>747.8</ele>
        <time>2025-09-09T10:34:00Z</time>
      </trkpt>
      <trkpt lat="45.95969" lon="4.38764">
        <ele>747.8</ele>
        <time>2025-09-09T10:34:01Z</time>
      </trkpt>
      <trkpt lat="45.95965" lon="4.38765">
        <ele>747.8</ele>
        <time>2025-09-09T10:34:02Z</time>
      </trkpt>
      <trkpt lat="45.9596" lon="4.38766">
        <ele>747.8</ele>
        <time>2025-09-09T10:34:03Z</time>
      </trkpt>
      <trkpt lat="45.95955" lon="4.38765">
        <ele>747.4</ele>
        <time>2025-09-09T10:34:04Z</time>
      </trkpt>
      <trkpt lat="45.95951" lon="4.38765">
        <ele>747.4</ele>
        <time>2025-09-09T10:34:05Z</time>
      </trkpt>
      <trkpt lat="45.95946" lon="4.38765">
        <ele>747.4</ele>
        <time>2025-09-09T10:34:06Z</time>
      </trkpt>
      <trkpt lat="45.95942" lon="4.38765">
        <ele>747.4</ele>
        <time>2025-09-09T10:34:07Z</time>
      </trkpt>
      <trkpt lat="45.95937" lon="4.38765">
        <ele>747.2</ele>
        <time>2025-09-09T10:34:08Z</time>
      </trkpt>
      <trkpt lat="45.95932" lon="4.38765">
        <ele>747.2</ele>
        <time>2025-09-09T10:34:09Z</time>
      </trkpt>
      <trkpt lat="45.95929" lon="4.38765">
        <ele>747.2</ele>
        <time>2025-09-09T10:34:10Z</time>
      </trkpt>
      <trkpt lat="45.95924" lon="4.38766">
        <ele>747.2</ele>
        <time>2025-09-09T10:34:11Z</time>
      </trkpt>
      <trkpt lat="45.95919" lon="4.38767">
        <ele>747.2</ele>
        <time>2025-09-09T10:34:12Z</time>
      </trkpt>
      <trkpt lat="45.95914" lon="4.38769">
        <ele>746.8</ele>
        <time>2025-09-09T10:34:13Z</time>
      </trkpt>
      <trkpt lat="45.9591" lon="4.38771">
        <ele>746.8</ele>
        <time>2025-09-09T10:34:14Z</time>
      </trkpt>
      <trkpt lat="45.95906" lon="4.38774">
        <ele>746.8</ele>
        <time>2025-09-09T10:34:15Z</time>
      </trkpt>
      <trkpt lat="45.95901" lon="4.38777">
        <ele>746.8</ele>
        <time>2025-09-09T10:34:16Z</time>
      </trkpt>
      <trkpt lat="45.95897" lon="4.3878">
        <ele>746.8</ele>
        <time>2025-09-09T10:34:17Z</time>
      </trkpt>
      <trkpt lat="45.95893" lon="4.38784">
        <ele>746.8</ele>
        <time>2025-09-09T10:34:18Z</time>
      </trkpt>
      <trkpt lat="45.9589" lon="4.38788">
        <ele>746.8</ele>
        <time>2025-09-09T10:34:19Z</time>
      </trkpt>
      <trkpt lat="45.95886" lon="4.38791">
        <ele>746.8</ele>
        <time>2025-09-09T10:34:20Z</time>
      </trkpt>
      <trkpt lat="45.95883" lon="4.38795">
        <ele>746.8</ele>
        <time>2025-09-09T10:34:21Z</time>
      </trkpt>
      <trkpt lat="45.95878" lon="4.388">
        <ele>746.8</ele>
        <time>2025-09-09T10:34:22Z</time>
      </trkpt>
      <trkpt lat="45.95873" lon="4.38804">
        <ele>746.8</ele>
        <time>2025-09-09T10:34:23Z</time>
      </trkpt>
      <trkpt lat="45.95869" lon="4.38807">
        <ele>746.8</ele>
        <time>2025-09-09T10:34:24Z</time>
      </trkpt>
      <trkpt lat="45.95864" lon="4.38809">
        <ele>746.8</ele>
        <time>2025-09-09T10:34:25Z</time>
      </trkpt>
      <trkpt lat="45.9586" lon="4.38811">
        <ele>746.8</ele>
        <time>2025-09-09T10:34:26Z</time>
      </trkpt>
      <trkpt lat="45.95857" lon="4.38812">
        <ele>746.8</ele>
        <time>2025-09-09T10:34:27Z</time>
      </trkpt>
      <trkpt lat="45.95854" lon="4.38815">
        <ele>747.2</ele>
        <time>2025-09-09T10:34:28Z</time>
      </trkpt>
      <trkpt lat="45.95851" lon="4.38815">
        <ele>747.4</ele>
        <time>2025-09-09T10:34:29Z</time>
      </trkpt>
      <trkpt lat="45.95849" lon="4.38816">
        <ele>748</ele>
        <time>2025-09-09T10:34:30Z</time>
      </trkpt>
      <trkpt lat="45.95847" lon="4.38816">
        <ele>748.2</ele>
        <time>2025-09-09T10:34:31Z</time>
      </trkpt>
      <trkpt lat="45.95845" lon="4.38816">
        <ele>748.6</ele>
        <time>2025-09-09T10:34:32Z</time>
      </trkpt>
      <trkpt lat="45.95844" lon="4.38816">
        <ele>749</ele>
        <time>2025-09-09T10:34:33Z</time>
      </trkpt>
      <trkpt lat="45.95842" lon="4.38816">
        <ele>749.4</ele>
        <time>2025-09-09T10:34:34Z</time>
      </trkpt>
      <trkpt lat="45.9584" lon="4.38815">
        <ele>749.6</ele>
        <time>2025-09-09T10:34:35Z</time>
      </trkpt>
      <trkpt lat="45.95838" lon="4.38815">
        <ele>749.6</ele>
        <time>2025-09-09T10:34:36Z</time>
      </trkpt>
      <trkpt lat="45.95837" lon="4.38815">
        <ele>750</ele>
        <time>2025-09-09T10:34:37Z</time>
      </trkpt>
      <trkpt lat="45.95836" lon="4.38814">
        <ele>750.2</ele>
        <time>2025-09-09T10:34:38Z</time>
      </trkpt>
      <trkpt lat="45.95835" lon="4.38813">
        <ele>750.4</ele>
        <time>2025-09-09T10:34:39Z</time>
      </trkpt>
      <trkpt lat="45.95834" lon="4.38812">
        <ele>750.6</ele>
        <time>2025-09-09T10:34:40Z</time>
      </trkpt>
      <trkpt lat="45.95833" lon="4.38811">
        <ele>751</ele>
        <time>2025-09-09T10:34:41Z</time>
      </trkpt>
      <trkpt lat="45.95832" lon="4.38811">
        <ele>751</ele>
        <time>2025-09-09T10:34:42Z</time>
      </trkpt>
      <trkpt lat="45.9583" lon="4.38811">
        <ele>751.6</ele>
        <time>2025-09-09T10:34:43Z</time>
      </trkpt>
      <trkpt lat="45.95829" lon="4.38811">
        <ele>751.8</ele>
        <time>2025-09-09T10:34:44Z</time>
      </trkpt>
      <trkpt lat="45.95828" lon="4.3881">
        <ele>751.8</ele>
        <time>2025-09-09T10:34:45Z</time>
      </trkpt>
      <trkpt lat="45.95826" lon="4.3881">
        <ele>752.2</ele>
        <time>2025-09-09T10:34:46Z</time>
      </trkpt>
      <trkpt lat="45.95826" lon="4.3881">
        <ele>752.2</ele>
        <time>2025-09-09T10:34:47Z</time>
      </trkpt>
      <trkpt lat="45.95825" lon="4.38809">
        <ele>752.4</ele>
        <time>2025-09-09T10:34:48Z</time>
      </trkpt>
      <trkpt lat="45.95823" lon="4.38808">
        <ele>752.4</ele>
        <time>2025-09-09T10:34:49Z</time>
      </trkpt>
      <trkpt lat="45.95823" lon="4.38807">
        <ele>752.8</ele>
        <time>2025-09-09T10:34:50Z</time>
      </trkpt>
      <trkpt lat="45.95822" lon="4.38806">
        <ele>753.2</ele>
        <time>2025-09-09T10:34:51Z</time>
      </trkpt>
      <trkpt lat="45.95821" lon="4.38804">
        <ele>753.2</ele>
        <time>2025-09-09T10:34:52Z</time>
      </trkpt>
      <trkpt lat="45.9582" lon="4.38803">
        <ele>753.4</ele>
        <time>2025-09-09T10:34:53Z</time>
      </trkpt>
      <trkpt lat="45.9582" lon="4.38802">
        <ele>753.4</ele>
        <time>2025-09-09T10:34:54Z</time>
      </trkpt>
      <trkpt lat="45.95818" lon="4.388">
        <ele>753.4</ele>
        <time>2025-09-09T10:34:55Z</time>
      </trkpt>
      <trkpt lat="45.95818" lon="4.38799">
        <ele>753.8</ele>
        <time>2025-09-09T10:34:56Z</time>
      </trkpt>
      <trkpt lat="45.95816" lon="4.38797">
        <ele>754</ele>
        <time>2025-09-09T10:34:57Z</time>
      </trkpt>
      <trkpt lat="45.95815" lon="4.38796">
        <ele>754.2</ele>
        <time>2025-09-09T10:34:58Z</time>
      </trkpt>
      <trkpt lat="45.95815" lon="4.38795">
        <ele>754.6</ele>
        <time>2025-09-09T10:34:59Z</time>
      </trkpt>
      <trkpt lat="45.95814" lon="4.38794">
        <ele>754.6</ele>
        <time>2025-09-09T10:35:00Z</time>
      </trkpt>
      <trkpt lat="45.95812" lon="4.38794">
        <ele>754.8</ele>
        <time>2025-09-09T10:35:01Z</time>
      </trkpt>
      <trkpt lat="45.95811" lon="4.38794">
        <ele>755.2</ele>
        <time>2025-09-09T10:35:02Z</time>
      </trkpt>
      <trkpt lat="45.9581" lon="4.38794">
        <ele>755.2</ele>
        <time>2025-09-09T10:35:03Z</time>
      </trkpt>
      <trkpt lat="45.9581" lon="4.38792">
        <ele>755.4</ele>
        <time>2025-09-09T10:35:04Z</time>
      </trkpt>
      <trkpt lat="45.95809" lon="4.38791">
        <ele>755.4</ele>
        <time>2025-09-09T10:35:05Z</time>
      </trkpt>
      <trkpt lat="45.95809" lon="4.3879">
        <ele>755.4</ele>
        <time>2025-09-09T10:35:06Z</time>
      </trkpt>
      <trkpt lat="45.95808" lon="4.3879">
        <ele>755.8</ele>
        <time>2025-09-09T10:35:07Z</time>
      </trkpt>
      <trkpt lat="45.95806" lon="4.3879">
        <ele>755.8</ele>
        <time>2025-09-09T10:35:08Z</time>
      </trkpt>
      <trkpt lat="45.95805" lon="4.3879">
        <ele>756.2</ele>
        <time>2025-09-09T10:35:09Z</time>
      </trkpt>
      <trkpt lat="45.95804" lon="4.38789">
        <ele>756.2</ele>
        <time>2025-09-09T10:35:10Z</time>
      </trkpt>
      <trkpt lat="45.95803" lon="4.38788">
        <ele>756.4</ele>
        <time>2025-09-09T10:35:11Z</time>
      </trkpt>
      <trkpt lat="45.95803" lon="4.38788">
        <ele>756.8</ele>
        <time>2025-09-09T10:35:12Z</time>
      </trkpt>
      <trkpt lat="45.95802" lon="4.38787">
        <ele>756.8</ele>
        <time>2025-09-09T10:35:13Z</time>
      </trkpt>
      <trkpt lat="45.95801" lon="4.38788">
        <ele>757</ele>
        <time>2025-09-09T10:35:14Z</time>
      </trkpt>
      <trkpt lat="45.958" lon="4.38789">
        <ele>757</ele>
        <time>2025-09-09T10:35:15Z</time>
      </trkpt>
      <trkpt lat="45.958" lon="4.38789">
        <ele>757.4</ele>
        <time>2025-09-09T10:35:16Z</time>
      </trkpt>
      <trkpt lat="45.958" lon="4.38789">
        <ele>757.6</ele>
        <time>2025-09-09T10:35:17Z</time>
      </trkpt>
      <trkpt lat="45.95799" lon="4.38789">
        <ele>757.8</ele>
        <time>2025-09-09T10:35:18Z</time>
      </trkpt>
      <trkpt lat="45.95797" lon="4.38788">
        <ele>758.2</ele>
        <time>2025-09-09T10:35:19Z</time>
      </trkpt>
      <trkpt lat="45.95797" lon="4.38788">
        <ele>758.4</ele>
        <time>2025-09-09T10:35:20Z</time>
      </trkpt>
      <trkpt lat="45.95796" lon="4.38787">
        <ele>758.6</ele>
        <time>2025-09-09T10:35:21Z</time>
      </trkpt>
      <trkpt lat="45.95795" lon="4.38786">
        <ele>758.6</ele>
        <time>2025-09-09T10:35:22Z</time>
      </trkpt>
      <trkpt lat="45.95794" lon="4.38787">
        <ele>758.6</ele>
        <time>2025-09-09T10:35:23Z</time>
      </trkpt>
      <trkpt lat="45.95792" lon="4.38787">
        <ele>758.6</ele>
        <time>2025-09-09T10:35:24Z</time>
      </trkpt>
      <trkpt lat="45.95791" lon="4.38787">
        <ele>759</ele>
        <time>2025-09-09T10:35:25Z</time>
      </trkpt>
      <trkpt lat="45.9579" lon="4.38786">
        <ele>759</ele>
        <time>2025-09-09T10:35:26Z</time>
      </trkpt>
      <trkpt lat="45.95789" lon="4.38784">
        <ele>759.2</ele>
        <time>2025-09-09T10:35:27Z</time>
      </trkpt>
      <trkpt lat="45.95789" lon="4.38783">
        <ele>759.2</ele>
        <time>2025-09-09T10:35:28Z</time>
      </trkpt>
      <trkpt lat="45.95788" lon="4.38782">
        <ele>759.6</ele>
        <time>2025-09-09T10:35:29Z</time>
      </trkpt>
      <trkpt lat="45.95786" lon="4.38783">
        <ele>759.6</ele>
        <time>2025-09-09T10:35:30Z</time>
      </trkpt>
      <trkpt lat="45.95785" lon="4.38785">
        <ele>759.8</ele>
        <time>2025-09-09T10:35:31Z</time>
      </trkpt>
      <trkpt lat="45.95783" lon="4.38786">
        <ele>760.2</ele>
        <time>2025-09-09T10:35:32Z</time>
      </trkpt>
      <trkpt lat="45.95782" lon="4.38786">
        <ele>760.2</ele>
        <time>2025-09-09T10:35:33Z</time>
      </trkpt>
      <trkpt lat="45.95781" lon="4.38786">
        <ele>760.4</ele>
        <time>2025-09-09T10:35:34Z</time>
      </trkpt>
      <trkpt lat="45.9578" lon="4.38785">
        <ele>760.4</ele>
        <time>2025-09-09T10:35:35Z</time>
      </trkpt>
      <trkpt lat="45.95779" lon="4.38783">
        <ele>760.8</ele>
        <time>2025-09-09T10:35:36Z</time>
      </trkpt>
      <trkpt lat="45.95778" lon="4.38782">
        <ele>761</ele>
        <time>2025-09-09T10:35:37Z</time>
      </trkpt>
      <trkpt lat="45.95777" lon="4.38782">
        <ele>761</ele>
        <time>2025-09-09T10:35:38Z</time>
      </trkpt>
      <trkpt lat="45.95776" lon="4.38781">
        <ele>761.2</ele>
        <time>2025-09-09T10:35:39Z</time>
      </trkpt>
      <trkpt lat="45.95774" lon="4.3878">
        <ele>761.2</ele>
        <time>2025-09-09T10:35:40Z</time>
      </trkpt>
      <trkpt lat="45.95772" lon="4.38779">
        <ele>761.2</ele>
        <time>2025-09-09T10:35:41Z</time>
      </trkpt>
      <trkpt lat="45.9577" lon="4.3878">
        <ele>761.2</ele>
        <time>2025-09-09T10:35:42Z</time>
      </trkpt>
      <trkpt lat="45.95769" lon="4.38779">
        <ele>761.6</ele>
        <time>2025-09-09T10:35:43Z</time>
      </trkpt>
      <trkpt lat="45.95768" lon="4.38779">
        <ele>761.6</ele>
        <time>2025-09-09T10:35:44Z</time>
      </trkpt>
      <trkpt lat="45.95767" lon="4.38778">
        <ele>761.6</ele>
        <time>2025-09-09T10:35:45Z</time>
      </trkpt>
      <trkpt lat="45.95767" lon="4.38776">
        <ele>761.6</ele>
        <time>2025-09-09T10:35:46Z</time>
      </trkpt>
      <trkpt lat="45.95766" lon="4.38775">
        <ele>761.8</ele>
        <time>2025-09-09T10:35:47Z</time>
      </trkpt>
      <trkpt lat="45.95765" lon="4.38774">
        <ele>761.8</ele>
        <time>2025-09-09T10:35:48Z</time>
      </trkpt>
      <trkpt lat="45.95765" lon="4.38774">
        <ele>761.8</ele>
        <time>2025-09-09T10:35:49Z</time>
      </trkpt>
      <trkpt lat="45.95764" lon="4.38774">
        <ele>761.8</ele>
        <time>2025-09-09T10:35:50Z</time>
      </trkpt>
      <trkpt lat="45.95762" lon="4.38776">
        <ele>761.8</ele>
        <time>2025-09-09T10:35:51Z</time>
      </trkpt>
      <trkpt lat="45.9576" lon="4.38778">
        <ele>761.8</ele>
        <time>2025-09-09T10:35:52Z</time>
      </trkpt>
      <trkpt lat="45.95759" lon="4.3878">
        <ele>762</ele>
        <time>2025-09-09T10:35:53Z</time>
      </trkpt>
      <trkpt lat="45.95758" lon="4.38782">
        <ele>762</ele>
        <time>2025-09-09T10:35:54Z</time>
      </trkpt>
      <trkpt lat="45.95757" lon="4.38783">
        <ele>762</ele>
        <time>2025-09-09T10:35:55Z</time>
      </trkpt>
      <trkpt lat="45.95757" lon="4.38784">
        <ele>762.2</ele>
        <time>2025-09-09T10:35:56Z</time>
      </trkpt>
      <trkpt lat="45.95756" lon="4.38786">
        <ele>762.2</ele>
        <time>2025-09-09T10:35:57Z</time>
      </trkpt>
      <trkpt lat="45.95754" lon="4.38788">
        <ele>762.2</ele>
        <time>2025-09-09T10:35:58Z</time>
      </trkpt>
      <trkpt lat="45.95753" lon="4.38789">
        <ele>762.2</ele>
        <time>2025-09-09T10:35:59Z</time>
      </trkpt>
      <trkpt lat="45.95752" lon="4.38789">
        <ele>762.2</ele>
        <time>2025-09-09T10:36:00Z</time>
      </trkpt>
      <trkpt lat="45.95751" lon="4.38789">
        <ele>762.2</ele>
        <time>2025-09-09T10:36:01Z</time>
      </trkpt>
      <trkpt lat="45.9575" lon="4.38789">
        <ele>762.6</ele>
        <time>2025-09-09T10:36:02Z</time>
      </trkpt>
      <trkpt lat="45.9575" lon="4.38789">
        <ele>762.6</ele>
        <time>2025-09-09T10:36:03Z</time>
      </trkpt>
      <trkpt lat="45.95748" lon="4.3879">
        <ele>762.6</ele>
        <time>2025-09-09T10:36:04Z</time>
      </trkpt>
      <trkpt lat="45.95746" lon="4.38791">
        <ele>762.6</ele>
        <time>2025-09-09T10:36:05Z</time>
      </trkpt>
      <trkpt lat="45.95745" lon="4.38792">
        <ele>762.8</ele>
        <time>2025-09-09T10:36:06Z</time>
      </trkpt>
      <trkpt lat="45.95744" lon="4.38794">
        <ele>762.8</ele>
        <time>2025-09-09T10:36:07Z</time>
      </trkpt>
      <trkpt lat="45.95741" lon="4.38796">
        <ele>763</ele>
        <time>2025-09-09T10:36:08Z</time>
      </trkpt>
      <trkpt lat="45.9574" lon="4.38796">
        <ele>763</ele>
        <time>2025-09-09T10:36:09Z</time>
      </trkpt>
      <trkpt lat="45.95739" lon="4.38797">
        <ele>763</ele>
        <time>2025-09-09T10:36:10Z</time>
      </trkpt>
      <trkpt lat="45.95738" lon="4.38797">
        <ele>763.2</ele>
        <time>2025-09-09T10:36:11Z</time>
      </trkpt>
      <trkpt lat="45.95736" lon="4.38798">
        <ele>763.2</ele>
        <time>2025-09-09T10:36:12Z</time>
      </trkpt>
      <trkpt lat="45.95735" lon="4.38799">
        <ele>763</ele>
        <time>2025-09-09T10:36:13Z</time>
      </trkpt>
      <trkpt lat="45.95735" lon="4.388">
        <ele>763</ele>
        <time>2025-09-09T10:36:14Z</time>
      </trkpt>
      <trkpt lat="45.95734" lon="4.388">
        <ele>763.2</ele>
        <time>2025-09-09T10:36:15Z</time>
      </trkpt>
      <trkpt lat="45.95733" lon="4.38801">
        <ele>763.6</ele>
        <time>2025-09-09T10:36:16Z</time>
      </trkpt>
      <trkpt lat="45.95732" lon="4.38802">
        <ele>763.8</ele>
        <time>2025-09-09T10:36:17Z</time>
      </trkpt>
      <trkpt lat="45.95731" lon="4.38802">
        <ele>763.8</ele>
        <time>2025-09-09T10:36:18Z</time>
      </trkpt>
      <trkpt lat="45.9573" lon="4.38803">
        <ele>763.8</ele>
        <time>2025-09-09T10:36:19Z</time>
      </trkpt>
      <trkpt lat="45.95728" lon="4.38804">
        <ele>764</ele>
        <time>2025-09-09T10:36:20Z</time>
      </trkpt>
      <trkpt lat="45.95728" lon="4.38805">
        <ele>764.2</ele>
        <time>2025-09-09T10:36:21Z</time>
      </trkpt>
      <trkpt lat="45.95727" lon="4.38806">
        <ele>764.2</ele>
        <time>2025-09-09T10:36:22Z</time>
      </trkpt>
      <trkpt lat="45.95726" lon="4.38807">
        <ele>764.4</ele>
        <time>2025-09-09T10:36:23Z</time>
      </trkpt>
      <trkpt lat="45.95724" lon="4.38808">
        <ele>764.6</ele>
        <time>2025-09-09T10:36:24Z</time>
      </trkpt>
      <trkpt lat="45.95722" lon="4.38808">
        <ele>764.6</ele>
        <time>2025-09-09T10:36:25Z</time>
      </trkpt>
      <trkpt lat="45.9572" lon="4.38809">
        <ele>764.6</ele>
        <time>2025-09-09T10:36:26Z</time>
      </trkpt>
      <trkpt lat="45.95719" lon="4.3881">
        <ele>764.6</ele>
        <time>2025-09-09T10:36:27Z</time>
      </trkpt>
      <trkpt lat="45.95718" lon="4.38811">
        <ele>765</ele>
        <time>2025-09-09T10:36:28Z</time>
      </trkpt>
      <trkpt lat="45.95717" lon="4.38812">
        <ele>765</ele>
        <time>2025-09-09T10:36:29Z</time>
      </trkpt>
      <trkpt lat="45.95716" lon="4.38813">
        <ele>765.4</ele>
        <time>2025-09-09T10:36:30Z</time>
      </trkpt>
      <trkpt lat="45.95715" lon="4.38815">
        <ele>765.4</ele>
        <time>2025-09-09T10:36:31Z</time>
      </trkpt>
      <trkpt lat="45.95714" lon="4.38816">
        <ele>765.8</ele>
        <time>2025-09-09T10:36:32Z</time>
      </trkpt>
      <trkpt lat="45.95712" lon="4.38818">
        <ele>766</ele>
        <time>2025-09-09T10:36:33Z</time>
      </trkpt>
      <trkpt lat="45.95712" lon="4.38819">
        <ele>766.4</ele>
        <time>2025-09-09T10:36:34Z</time>
      </trkpt>
      <trkpt lat="45.9571" lon="4.3882">
        <ele>766.4</ele>
        <time>2025-09-09T10:36:35Z</time>
      </trkpt>
      <trkpt lat="45.95709" lon="4.38821">
        <ele>766.4</ele>
        <time>2025-09-09T10:36:36Z</time>
      </trkpt>
      <trkpt lat="45.95707" lon="4.38823">
        <ele>766.8</ele>
        <time>2025-09-09T10:36:37Z</time>
      </trkpt>
      <trkpt lat="45.95706" lon="4.38824">
        <ele>767</ele>
        <time>2025-09-09T10:36:38Z</time>
      </trkpt>
      <trkpt lat="45.95704" lon="4.38825">
        <ele>767</ele>
        <time>2025-09-09T10:36:39Z</time>
      </trkpt>
      <trkpt lat="45.95703" lon="4.38825">
        <ele>767</ele>
        <time>2025-09-09T10:36:40Z</time>
      </trkpt>
      <trkpt lat="45.95703" lon="4.38825">
        <ele>767.2</ele>
        <time>2025-09-09T10:36:41Z</time>
      </trkpt>
      <trkpt lat="45.95701" lon="4.38826">
        <ele>767.2</ele>
        <time>2025-09-09T10:36:42Z</time>
      </trkpt>
      <trkpt lat="45.957" lon="4.38826">
        <ele>767.4</ele>
        <time>2025-09-09T10:36:43Z</time>
      </trkpt>
      <trkpt lat="45.95699" lon="4.38826">
        <ele>767.8</ele>
        <time>2025-09-09T10:36:44Z</time>
      </trkpt>
      <trkpt lat="45.95698" lon="4.38826">
        <ele>767.8</ele>
        <time>2025-09-09T10:36:45Z</time>
      </trkpt>
      <trkpt lat="45.95697" lon="4.38826">
        <ele>768</ele>
        <time>2025-09-09T10:36:46Z</time>
      </trkpt>
      <trkpt lat="45.95696" lon="4.38827">
        <ele>768</ele>
        <time>2025-09-09T10:36:47Z</time>
      </trkpt>
      <trkpt lat="45.95695" lon="4.38827">
        <ele>768.4</ele>
        <time>2025-09-09T10:36:48Z</time>
      </trkpt>
      <trkpt lat="45.95693" lon="4.38827">
        <ele>768.4</ele>
        <time>2025-09-09T10:36:49Z</time>
      </trkpt>
      <trkpt lat="45.95692" lon="4.38828">
        <ele>768.6</ele>
        <time>2025-09-09T10:36:50Z</time>
      </trkpt>
      <trkpt lat="45.9569" lon="4.38828">
        <ele>768.6</ele>
        <time>2025-09-09T10:36:51Z</time>
      </trkpt>
      <trkpt lat="45.95689" lon="4.38829">
        <ele>768.6</ele>
        <time>2025-09-09T10:36:52Z</time>
      </trkpt>
      <trkpt lat="45.95688" lon="4.38829">
        <ele>769.2</ele>
        <time>2025-09-09T10:36:53Z</time>
      </trkpt>
      <trkpt lat="45.95686" lon="4.3883">
        <ele>769.4</ele>
        <time>2025-09-09T10:36:54Z</time>
      </trkpt>
      <trkpt lat="45.95685" lon="4.3883">
        <ele>769.4</ele>
        <time>2025-09-09T10:36:55Z</time>
      </trkpt>
      <trkpt lat="45.95684" lon="4.3883">
        <ele>769.4</ele>
        <time>2025-09-09T10:36:56Z</time>
      </trkpt>
      <trkpt lat="45.95684" lon="4.38831">
        <ele>769.4</ele>
        <time>2025-09-09T10:36:57Z</time>
      </trkpt>
      <trkpt lat="45.95682" lon="4.3883">
        <ele>769.8</ele>
        <time>2025-09-09T10:36:58Z</time>
      </trkpt>
      <trkpt lat="45.9568" lon="4.38831">
        <ele>769.6</ele>
        <time>2025-09-09T10:36:59Z</time>
      </trkpt>
      <trkpt lat="45.95678" lon="4.38831">
        <ele>769.6</ele>
        <time>2025-09-09T10:37:00Z</time>
      </trkpt>
      <trkpt lat="45.95677" lon="4.38832">
        <ele>769.6</ele>
        <time>2025-09-09T10:37:01Z</time>
      </trkpt>
      <trkpt lat="45.95676" lon="4.38834">
        <ele>769.6</ele>
        <time>2025-09-09T10:37:02Z</time>
      </trkpt>
      <trkpt lat="45.95675" lon="4.38837">
        <ele>769.8</ele>
        <time>2025-09-09T10:37:03Z</time>
      </trkpt>
      <trkpt lat="45.95673" lon="4.38839">
        <ele>770.2</ele>
        <time>2025-09-09T10:37:04Z</time>
      </trkpt>
      <trkpt lat="45.95671" lon="4.38841">
        <ele>770.2</ele>
        <time>2025-09-09T10:37:05Z</time>
      </trkpt>
      <trkpt lat="45.95671" lon="4.38842">
        <ele>770.2</ele>
        <time>2025-09-09T10:37:06Z</time>
      </trkpt>
      <trkpt lat="45.9567" lon="4.38842">
        <ele>770.2</ele>
        <time>2025-09-09T10:37:07Z</time>
      </trkpt>
      <trkpt lat="45.95668" lon="4.38844">
        <ele>770.2</ele>
        <time>2025-09-09T10:37:08Z</time>
      </trkpt>
      <trkpt lat="45.95665" lon="4.38847">
        <ele>770.4</ele>
        <time>2025-09-09T10:37:09Z</time>
      </trkpt>
      <trkpt lat="45.95664" lon="4.38849">
        <ele>770.4</ele>
        <time>2025-09-09T10:37:10Z</time>
      </trkpt>
      <trkpt lat="45.95662" lon="4.3885">
        <ele>770.6</ele>
        <time>2025-09-09T10:37:11Z</time>
      </trkpt>
      <trkpt lat="45.9566" lon="4.38852">
        <ele>771</ele>
        <time>2025-09-09T10:37:12Z</time>
      </trkpt>
      <trkpt lat="45.95657" lon="4.38854">
        <ele>771</ele>
        <time>2025-09-09T10:37:13Z</time>
      </trkpt>
      <trkpt lat="45.95655" lon="4.38855">
        <ele>771</ele>
        <time>2025-09-09T10:37:14Z</time>
      </trkpt>
      <trkpt lat="45.95654" lon="4.38857">
        <ele>771</ele>
        <time>2025-09-09T10:37:15Z</time>
      </trkpt>
      <trkpt lat="45.95651" lon="4.38858">
        <ele>771.2</ele>
        <time>2025-09-09T10:37:16Z</time>
      </trkpt>
      <trkpt lat="45.95649" lon="4.38861">
        <ele>771.2</ele>
        <time>2025-09-09T10:37:17Z</time>
      </trkpt>
      <trkpt lat="45.95646" lon="4.38864">
        <ele>771.2</ele>
        <time>2025-09-09T10:37:18Z</time>
      </trkpt>
      <trkpt lat="45.95644" lon="4.38867">
        <ele>771.2</ele>
        <time>2025-09-09T10:37:19Z</time>
      </trkpt>
      <trkpt lat="45.95642" lon="4.3887">
        <ele>771.2</ele>
        <time>2025-09-09T10:37:20Z</time>
      </trkpt>
      <trkpt lat="45.9564" lon="4.38872">
        <ele>771.2</ele>
        <time>2025-09-09T10:37:21Z</time>
      </trkpt>
      <trkpt lat="45.95639" lon="4.38873">
        <ele>771.2</ele>
        <time>2025-09-09T10:37:22Z</time>
      </trkpt>
      <trkpt lat="45.95637" lon="4.38874">
        <ele>771.4</ele>
        <time>2025-09-09T10:37:23Z</time>
      </trkpt>
      <trkpt lat="45.95635" lon="4.38876">
        <ele>771.4</ele>
        <time>2025-09-09T10:37:24Z</time>
      </trkpt>
      <trkpt lat="45.95632" lon="4.38877">
        <ele>771.4</ele>
        <time>2025-09-09T10:37:25Z</time>
      </trkpt>
      <trkpt lat="45.9563" lon="4.38878">
        <ele>771.4</ele>
        <time>2025-09-09T10:37:26Z</time>
      </trkpt>
      <trkpt lat="45.95627" lon="4.3888">
        <ele>771.4</ele>
        <time>2025-09-09T10:37:27Z</time>
      </trkpt>
      <trkpt lat="45.95624" lon="4.38881">
        <ele>771.4</ele>
        <time>2025-09-09T10:37:28Z</time>
      </trkpt>
      <trkpt lat="45.95622" lon="4.38883">
        <ele>771.4</ele>
        <time>2025-09-09T10:37:29Z</time>
      </trkpt>
      <trkpt lat="45.9562" lon="4.38884">
        <ele>771.4</ele>
        <time>2025-09-09T10:37:30Z</time>
      </trkpt>
      <trkpt lat="45.95619" lon="4.38886">
        <ele>771.4</ele>
        <time>2025-09-09T10:37:31Z</time>
      </trkpt>
      <trkpt lat="45.95617" lon="4.38888">
        <ele>771.4</ele>
        <time>2025-09-09T10:37:32Z</time>
      </trkpt>
      <trkpt lat="45.95614" lon="4.38889">
        <ele>771.4</ele>
        <time>2025-09-09T10:37:33Z</time>
      </trkpt>
      <trkpt lat="45.95611" lon="4.3889">
        <ele>771.4</ele>
        <time>2025-09-09T10:37:34Z</time>
      </trkpt>
      <trkpt lat="45.9561" lon="4.38891">
        <ele>771.8</ele>
        <time>2025-09-09T10:37:35Z</time>
      </trkpt>
      <trkpt lat="45.95608" lon="4.38892">
        <ele>771.8</ele>
        <time>2025-09-09T10:37:36Z</time>
      </trkpt>
      <trkpt lat="45.95606" lon="4.38893">
        <ele>771.8</ele>
        <time>2025-09-09T10:37:37Z</time>
      </trkpt>
      <trkpt lat="45.95604" lon="4.38894">
        <ele>771.8</ele>
        <time>2025-09-09T10:37:38Z</time>
      </trkpt>
      <trkpt lat="45.95602" lon="4.38895">
        <ele>771.8</ele>
        <time>2025-09-09T10:37:39Z</time>
      </trkpt>
      <trkpt lat="45.956" lon="4.38896">
        <ele>772</ele>
        <time>2025-09-09T10:37:40Z</time>
      </trkpt>
      <trkpt lat="45.95599" lon="4.38898">
        <ele>772.2</ele>
        <time>2025-09-09T10:37:41Z</time>
      </trkpt>
      <trkpt lat="45.95598" lon="4.38899">
        <ele>772.2</ele>
        <time>2025-09-09T10:37:42Z</time>
      </trkpt>
      <trkpt lat="45.95596" lon="4.38901">
        <ele>772.2</ele>
        <time>2025-09-09T10:37:43Z</time>
      </trkpt>
      <trkpt lat="45.95595" lon="4.38903">
        <ele>772.2</ele>
        <time>2025-09-09T10:37:44Z</time>
      </trkpt>
      <trkpt lat="45.95594" lon="4.38904">
        <ele>772.2</ele>
        <time>2025-09-09T10:37:45Z</time>
      </trkpt>
      <trkpt lat="45.95592" lon="4.38906">
        <ele>772.4</ele>
        <time>2025-09-09T10:37:46Z</time>
      </trkpt>
      <trkpt lat="45.9559" lon="4.38907">
        <ele>772.4</ele>
        <time>2025-09-09T10:37:47Z</time>
      </trkpt>
      <trkpt lat="45.95588" lon="4.38907">
        <ele>772.8</ele>
        <time>2025-09-09T10:37:48Z</time>
      </trkpt>
      <trkpt lat="45.95587" lon="4.38908">
        <ele>772.8</ele>
        <time>2025-09-09T10:37:49Z</time>
      </trkpt>
      <trkpt lat="45.95585" lon="4.38909">
        <ele>772.8</ele>
        <time>2025-09-09T10:37:50Z</time>
      </trkpt>
      <trkpt lat="45.95584" lon="4.38911">
        <ele>772.8</ele>
        <time>2025-09-09T10:37:51Z</time>
      </trkpt>
      <trkpt lat="45.95582" lon="4.38912">
        <ele>772.8</ele>
        <time>2025-09-09T10:37:52Z</time>
      </trkpt>
      <trkpt lat="45.95581" lon="4.38913">
        <ele>773.2</ele>
        <time>2025-09-09T10:37:53Z</time>
      </trkpt>
      <trkpt lat="45.9558" lon="4.38914">
        <ele>773.2</ele>
        <time>2025-09-09T10:37:54Z</time>
      </trkpt>
      <trkpt lat="45.95579" lon="4.38916">
        <ele>773.2</ele>
        <time>2025-09-09T10:37:55Z</time>
      </trkpt>
      <trkpt lat="45.95577" lon="4.38917">
        <ele>773.2</ele>
        <time>2025-09-09T10:37:56Z</time>
      </trkpt>
      <trkpt lat="45.95575" lon="4.38919">
        <ele>773.4</ele>
        <time>2025-09-09T10:37:57Z</time>
      </trkpt>
      <trkpt lat="45.95574" lon="4.3892">
        <ele>773.6</ele>
        <time>2025-09-09T10:37:58Z</time>
      </trkpt>
      <trkpt lat="45.95572" lon="4.38921">
        <ele>773.6</ele>
        <time>2025-09-09T10:37:59Z</time>
      </trkpt>
      <trkpt lat="45.95571" lon="4.38922">
        <ele>773.6</ele>
        <time>2025-09-09T10:38:00Z</time>
      </trkpt>
      <trkpt lat="45.95569" lon="4.38923">
        <ele>774</ele>
        <time>2025-09-09T10:38:01Z</time>
      </trkpt>
      <trkpt lat="45.95568" lon="4.38924">
        <ele>774.2</ele>
        <time>2025-09-09T10:38:02Z</time>
      </trkpt>
      <trkpt lat="45.95567" lon="4.38925">
        <ele>774.4</ele>
        <time>2025-09-09T10:38:03Z</time>
      </trkpt>
      <trkpt lat="45.95566" lon="4.38927">
        <ele>774.4</ele>
        <time>2025-09-09T10:38:04Z</time>
      </trkpt>
      <trkpt lat="45.95564" lon="4.38927">
        <ele>774.8</ele>
        <time>2025-09-09T10:38:05Z</time>
      </trkpt>
      <trkpt lat="45.95563" lon="4.38927">
        <ele>774.8</ele>
        <time>2025-09-09T10:38:06Z</time>
      </trkpt>
      <trkpt lat="45.95562" lon="4.38927">
        <ele>775</ele>
        <time>2025-09-09T10:38:07Z</time>
      </trkpt>
      <trkpt lat="45.95561" lon="4.38928">
        <ele>775.4</ele>
        <time>2025-09-09T10:38:08Z</time>
      </trkpt>
      <trkpt lat="45.9556" lon="4.38928">
        <ele>775.4</ele>
        <time>2025-09-09T10:38:09Z</time>
      </trkpt>
      <trkpt lat="45.95559" lon="4.3893">
        <ele>775.8</ele>
        <time>2025-09-09T10:38:10Z</time>
      </trkpt>
      <trkpt lat="45.95557" lon="4.38931">
        <ele>776</ele>
        <time>2025-09-09T10:38:11Z</time>
      </trkpt>
      <trkpt lat="45.95556" lon="4.38932">
        <ele>776</ele>
        <time>2025-09-09T10:38:12Z</time>
      </trkpt>
      <trkpt lat="45.95555" lon="4.38932">
        <ele>776.2</ele>
        <time>2025-09-09T10:38:13Z</time>
      </trkpt>
      <trkpt lat="45.95554" lon="4.38933">
        <ele>776.2</ele>
        <time>2025-09-09T10:38:14Z</time>
      </trkpt>
      <trkpt lat="45.95552" lon="4.38934">
        <ele>776.6</ele>
        <time>2025-09-09T10:38:15Z</time>
      </trkpt>
      <trkpt lat="45.95551" lon="4.38934">
        <ele>776.6</ele>
        <time>2025-09-09T10:38:16Z</time>
      </trkpt>
      <trkpt lat="45.9555" lon="4.38935">
        <ele>776.6</ele>
        <time>2025-09-09T10:38:17Z</time>
      </trkpt>
      <trkpt lat="45.95549" lon="4.38935">
        <ele>776.8</ele>
        <time>2025-09-09T10:38:18Z</time>
      </trkpt>
      <trkpt lat="45.95547" lon="4.38935">
        <ele>776.8</ele>
        <time>2025-09-09T10:38:19Z</time>
      </trkpt>
      <trkpt lat="45.95546" lon="4.38935">
        <ele>776.8</ele>
        <time>2025-09-09T10:38:20Z</time>
      </trkpt>
      <trkpt lat="45.95544" lon="4.38935">
        <ele>776.8</ele>
        <time>2025-09-09T10:38:21Z</time>
      </trkpt>
      <trkpt lat="45.95543" lon="4.38936">
        <ele>776.8</ele>
        <time>2025-09-09T10:38:22Z</time>
      </trkpt>
      <trkpt lat="45.95542" lon="4.38936">
        <ele>777.2</ele>
        <time>2025-09-09T10:38:23Z</time>
      </trkpt>
      <trkpt lat="45.95541" lon="4.38936">
        <ele>777.2</ele>
        <time>2025-09-09T10:38:24Z</time>
      </trkpt>
      <trkpt lat="45.95539" lon="4.38937">
        <ele>777.2</ele>
        <time>2025-09-09T10:38:25Z</time>
      </trkpt>
      <trkpt lat="45.95538" lon="4.38937">
        <ele>777.4</ele>
        <time>2025-09-09T10:38:26Z</time>
      </trkpt>
      <trkpt lat="45.95536" lon="4.38939">
        <ele>777.4</ele>
        <time>2025-09-09T10:38:27Z</time>
      </trkpt>
      <trkpt lat="45.95534" lon="4.3894">
        <ele>778</ele>
        <time>2025-09-09T10:38:28Z</time>
      </trkpt>
      <trkpt lat="45.95533" lon="4.38942">
        <ele>778</ele>
        <time>2025-09-09T10:38:29Z</time>
      </trkpt>
      <trkpt lat="45.95531" lon="4.38942">
        <ele>778.2</ele>
        <time>2025-09-09T10:38:30Z</time>
      </trkpt>
      <trkpt lat="45.9553" lon="4.38942">
        <ele>778.2</ele>
        <time>2025-09-09T10:38:31Z</time>
      </trkpt>
      <trkpt lat="45.95529" lon="4.38942">
        <ele>778.6</ele>
        <time>2025-09-09T10:38:32Z</time>
      </trkpt>
      <trkpt lat="45.95528" lon="4.38943">
        <ele>778.8</ele>
        <time>2025-09-09T10:38:33Z</time>
      </trkpt>
      <trkpt lat="45.95526" lon="4.38943">
        <ele>778.8</ele>
        <time>2025-09-09T10:38:34Z</time>
      </trkpt>
      <trkpt lat="45.95524" lon="4.38944">
        <ele>778.8</ele>
        <time>2025-09-09T10:38:35Z</time>
      </trkpt>
      <trkpt lat="45.95522" lon="4.38944">
        <ele>779.2</ele>
        <time>2025-09-09T10:38:36Z</time>
      </trkpt>
      <trkpt lat="45.95519" lon="4.38944">
        <ele>779.4</ele>
        <time>2025-09-09T10:38:37Z</time>
      </trkpt>
      <trkpt lat="45.95517" lon="4.38945">
        <ele>779.4</ele>
        <time>2025-09-09T10:38:38Z</time>
      </trkpt>
      <trkpt lat="45.95516" lon="4.38945">
        <ele>779.4</ele>
        <time>2025-09-09T10:38:39Z</time>
      </trkpt>
      <trkpt lat="45.95515" lon="4.38945">
        <ele>779.4</ele>
        <time>2025-09-09T10:38:40Z</time>
      </trkpt>
      <trkpt lat="45.95513" lon="4.38945">
        <ele>779.6</ele>
        <time>2025-09-09T10:38:41Z</time>
      </trkpt>
      <trkpt lat="45.95512" lon="4.38945">
        <ele>779.6</ele>
        <time>2025-09-09T10:38:42Z</time>
      </trkpt>
      <trkpt lat="45.95511" lon="4.38945">
        <ele>780</ele>
        <time>2025-09-09T10:38:43Z</time>
      </trkpt>
      <trkpt lat="45.9551" lon="4.38945">
        <ele>780</ele>
        <time>2025-09-09T10:38:44Z</time>
      </trkpt>
      <trkpt lat="45.95509" lon="4.38944">
        <ele>780</ele>
        <time>2025-09-09T10:38:45Z</time>
      </trkpt>
      <trkpt lat="45.95507" lon="4.38944">
        <ele>780.2</ele>
        <time>2025-09-09T10:38:46Z</time>
      </trkpt>
      <trkpt lat="45.95506" lon="4.38944">
        <ele>780.4</ele>
        <time>2025-09-09T10:38:47Z</time>
      </trkpt>
      <trkpt lat="45.95504" lon="4.38944">
        <ele>780.4</ele>
        <time>2025-09-09T10:38:48Z</time>
      </trkpt>
      <trkpt lat="45.95503" lon="4.38943">
        <ele>780.8</ele>
        <time>2025-09-09T10:38:49Z</time>
      </trkpt>
      <trkpt lat="45.95502" lon="4.38943">
        <ele>780.8</ele>
        <time>2025-09-09T10:38:50Z</time>
      </trkpt>
      <trkpt lat="45.955" lon="4.38943">
        <ele>780.8</ele>
        <time>2025-09-09T10:38:51Z</time>
      </trkpt>
      <trkpt lat="45.95498" lon="4.38943">
        <ele>780.8</ele>
        <time>2025-09-09T10:38:52Z</time>
      </trkpt>
      <trkpt lat="45.95497" lon="4.38944">
        <ele>781</ele>
        <time>2025-09-09T10:38:53Z</time>
      </trkpt>
      <trkpt lat="45.95496" lon="4.38944">
        <ele>781</ele>
        <time>2025-09-09T10:38:54Z</time>
      </trkpt>
      <trkpt lat="45.95495" lon="4.38944">
        <ele>781.4</ele>
        <time>2025-09-09T10:38:55Z</time>
      </trkpt>
      <trkpt lat="45.95493" lon="4.38944">
        <ele>781.4</ele>
        <time>2025-09-09T10:38:56Z</time>
      </trkpt>
      <trkpt lat="45.95492" lon="4.38943">
        <ele>781.6</ele>
        <time>2025-09-09T10:38:57Z</time>
      </trkpt>
      <trkpt lat="45.9549" lon="4.38943">
        <ele>781.6</ele>
        <time>2025-09-09T10:38:58Z</time>
      </trkpt>
      <trkpt lat="45.95489" lon="4.38943">
        <ele>782</ele>
        <time>2025-09-09T10:38:59Z</time>
      </trkpt>
      <trkpt lat="45.95488" lon="4.38942">
        <ele>782</ele>
        <time>2025-09-09T10:39:00Z</time>
      </trkpt>
      <trkpt lat="45.95486" lon="4.38942">
        <ele>782.2</ele>
        <time>2025-09-09T10:39:01Z</time>
      </trkpt>
      <trkpt lat="45.95485" lon="4.38942">
        <ele>782.2</ele>
        <time>2025-09-09T10:39:02Z</time>
      </trkpt>
      <trkpt lat="45.95484" lon="4.38942">
        <ele>782.4</ele>
        <time>2025-09-09T10:39:03Z</time>
      </trkpt>
      <trkpt lat="45.95482" lon="4.38942">
        <ele>782.4</ele>
        <time>2025-09-09T10:39:04Z</time>
      </trkpt>
      <trkpt lat="45.95481" lon="4.38942">
        <ele>782.2</ele>
        <time>2025-09-09T10:39:05Z</time>
      </trkpt>
      <trkpt lat="45.9548" lon="4.38942">
        <ele>782.2</ele>
        <time>2025-09-09T10:39:06Z</time>
      </trkpt>
      <trkpt lat="45.95478" lon="4.38941">
        <ele>782.8</ele>
        <time>2025-09-09T10:39:07Z</time>
      </trkpt>
      <trkpt lat="45.95477" lon="4.3894">
        <ele>783</ele>
        <time>2025-09-09T10:39:08Z</time>
      </trkpt>
      <trkpt lat="45.95476" lon="4.38939">
        <ele>783.2</ele>
        <time>2025-09-09T10:39:09Z</time>
      </trkpt>
      <trkpt lat="45.95473" lon="4.38939">
        <ele>783.2</ele>
        <time>2025-09-09T10:39:10Z</time>
      </trkpt>
      <trkpt lat="45.95473" lon="4.38939">
        <ele>783.6</ele>
        <time>2025-09-09T10:39:11Z</time>
      </trkpt>
      <trkpt lat="45.95472" lon="4.38939">
        <ele>783.6</ele>
        <time>2025-09-09T10:39:12Z</time>
      </trkpt>
      <trkpt lat="45.95471" lon="4.38938">
        <ele>783.8</ele>
        <time>2025-09-09T10:39:13Z</time>
      </trkpt>
      <trkpt lat="45.9547" lon="4.38938">
        <ele>783.8</ele>
        <time>2025-09-09T10:39:14Z</time>
      </trkpt>
      <trkpt lat="45.9547" lon="4.38937">
        <ele>784</ele>
        <time>2025-09-09T10:39:15Z</time>
      </trkpt>
      <trkpt lat="45.95469" lon="4.38937">
        <ele>784</ele>
        <time>2025-09-09T10:39:16Z</time>
      </trkpt>
      <trkpt lat="45.95467" lon="4.38937">
        <ele>784.2</ele>
        <time>2025-09-09T10:39:17Z</time>
      </trkpt>
      <trkpt lat="45.95466" lon="4.38938">
        <ele>784.2</ele>
        <time>2025-09-09T10:39:18Z</time>
      </trkpt>
      <trkpt lat="45.95464" lon="4.38938">
        <ele>784.2</ele>
        <time>2025-09-09T10:39:19Z</time>
      </trkpt>
      <trkpt lat="45.95463" lon="4.38937">
        <ele>784.6</ele>
        <time>2025-09-09T10:39:20Z</time>
      </trkpt>
      <trkpt lat="45.95463" lon="4.38937">
        <ele>784.6</ele>
        <time>2025-09-09T10:39:21Z</time>
      </trkpt>
      <trkpt lat="45.95462" lon="4.38936">
        <ele>785</ele>
        <time>2025-09-09T10:39:22Z</time>
      </trkpt>
      <trkpt lat="45.9546" lon="4.38936">
        <ele>785</ele>
        <time>2025-09-09T10:39:23Z</time>
      </trkpt>
      <trkpt lat="45.95459" lon="4.38935">
        <ele>785.4</ele>
        <time>2025-09-09T10:39:24Z</time>
      </trkpt>
      <trkpt lat="45.95458" lon="4.38935">
        <ele>785.4</ele>
        <time>2025-09-09T10:39:25Z</time>
      </trkpt>
      <trkpt lat="45.95457" lon="4.38934">
        <ele>785.4</ele>
        <time>2025-09-09T10:39:26Z</time>
      </trkpt>
      <trkpt lat="45.95457" lon="4.38934">
        <ele>785.4</ele>
        <time>2025-09-09T10:39:27Z</time>
      </trkpt>
      <trkpt lat="45.95455" lon="4.38934">
        <ele>785.4</ele>
        <time>2025-09-09T10:39:28Z</time>
      </trkpt>
      <trkpt lat="45.95453" lon="4.38934">
        <ele>785.4</ele>
        <time>2025-09-09T10:39:29Z</time>
      </trkpt>
      <trkpt lat="45.95453" lon="4.38934">
        <ele>785.4</ele>
        <time>2025-09-09T10:39:30Z</time>
      </trkpt>
      <trkpt lat="45.95452" lon="4.38934">
        <ele>785.4</ele>
        <time>2025-09-09T10:39:31Z</time>
      </trkpt>
      <trkpt lat="45.9545" lon="4.38934">
        <ele>785.8</ele>
        <time>2025-09-09T10:39:32Z</time>
      </trkpt>
      <trkpt lat="45.95449" lon="4.38934">
        <ele>786.2</ele>
        <time>2025-09-09T10:39:33Z</time>
      </trkpt>
      <trkpt lat="45.95447" lon="4.38935">
        <ele>786.2</ele>
        <time>2025-09-09T10:39:34Z</time>
      </trkpt>
      <trkpt lat="45.95446" lon="4.38935">
        <ele>786.2</ele>
        <time>2025-09-09T10:39:35Z</time>
      </trkpt>
      <trkpt lat="45.95445" lon="4.38935">
        <ele>786.4</ele>
        <time>2025-09-09T10:39:36Z</time>
      </trkpt>
      <trkpt lat="45.95444" lon="4.38935">
        <ele>786.4</ele>
        <time>2025-09-09T10:39:37Z</time>
      </trkpt>
      <trkpt lat="45.95443" lon="4.38935">
        <ele>787</ele>
        <time>2025-09-09T10:39:38Z</time>
      </trkpt>
      <trkpt lat="45.95442" lon="4.38935">
        <ele>787</ele>
        <time>2025-09-09T10:39:39Z</time>
      </trkpt>
      <trkpt lat="45.95441" lon="4.38934">
        <ele>787</ele>
        <time>2025-09-09T10:39:40Z</time>
      </trkpt>
      <trkpt lat="45.9544" lon="4.38934">
        <ele>787</ele>
        <time>2025-09-09T10:39:41Z</time>
      </trkpt>
      <trkpt lat="45.95439" lon="4.38934">
        <ele>787.2</ele>
        <time>2025-09-09T10:39:42Z</time>
      </trkpt>
      <trkpt lat="45.95437" lon="4.38934">
        <ele>787.2</ele>
        <time>2025-09-09T10:39:43Z</time>
      </trkpt>
      <trkpt lat="45.95436" lon="4.38935">
        <ele>787.2</ele>
        <time>2025-09-09T10:39:44Z</time>
      </trkpt>
      <trkpt lat="45.95435" lon="4.38935">
        <ele>787.4</ele>
        <time>2025-09-09T10:39:45Z</time>
      </trkpt>
      <trkpt lat="45.95434" lon="4.38934">
        <ele>787.4</ele>
        <time>2025-09-09T10:39:46Z</time>
      </trkpt>
      <trkpt lat="45.95433" lon="4.38934">
        <ele>787.4</ele>
        <time>2025-09-09T10:39:47Z</time>
      </trkpt>
      <trkpt lat="45.95431" lon="4.38935">
        <ele>787.4</ele>
        <time>2025-09-09T10:39:48Z</time>
      </trkpt>
      <trkpt lat="45.9543" lon="4.38935">
        <ele>787.8</ele>
        <time>2025-09-09T10:39:49Z</time>
      </trkpt>
      <trkpt lat="45.95429" lon="4.38935">
        <ele>787.8</ele>
        <time>2025-09-09T10:39:50Z</time>
      </trkpt>
      <trkpt lat="45.95428" lon="4.38935">
        <ele>788.2</ele>
        <time>2025-09-09T10:39:51Z</time>
      </trkpt>
      <trkpt lat="45.95426" lon="4.38936">
        <ele>788.2</ele>
        <time>2025-09-09T10:39:52Z</time>
      </trkpt>
      <trkpt lat="45.95424" lon="4.38936">
        <ele>788.2</ele>
        <time>2025-09-09T10:39:53Z</time>
      </trkpt>
      <trkpt lat="45.95423" lon="4.38937">
        <ele>788.4</ele>
        <time>2025-09-09T10:39:54Z</time>
      </trkpt>
      <trkpt lat="45.95422" lon="4.38937">
        <ele>788.4</ele>
        <time>2025-09-09T10:39:55Z</time>
      </trkpt>
      <trkpt lat="45.9542" lon="4.38937">
        <ele>788.4</ele>
        <time>2025-09-09T10:39:56Z</time>
      </trkpt>
      <trkpt lat="45.95419" lon="4.38937">
        <ele>788.6</ele>
        <time>2025-09-09T10:39:57Z</time>
      </trkpt>
      <trkpt lat="45.95417" lon="4.38938">
        <ele>788.6</ele>
        <time>2025-09-09T10:39:58Z</time>
      </trkpt>
      <trkpt lat="45.95416" lon="4.38938">
        <ele>789</ele>
        <time>2025-09-09T10:39:59Z</time>
      </trkpt>
      <trkpt lat="45.95414" lon="4.38938">
        <ele>789</ele>
        <time>2025-09-09T10:40:00Z</time>
      </trkpt>
      <trkpt lat="45.95413" lon="4.38939">
        <ele>789</ele>
        <time>2025-09-09T10:40:01Z</time>
      </trkpt>
      <trkpt lat="45.95411" lon="4.3894">
        <ele>789.2</ele>
        <time>2025-09-09T10:40:02Z</time>
      </trkpt>
      <trkpt lat="45.95409" lon="4.38941">
        <ele>789.2</ele>
        <time>2025-09-09T10:40:03Z</time>
      </trkpt>
      <trkpt lat="45.95407" lon="4.38943">
        <ele>789.6</ele>
        <time>2025-09-09T10:40:04Z</time>
      </trkpt>
      <trkpt lat="45.95405" lon="4.38945">
        <ele>789.6</ele>
        <time>2025-09-09T10:40:05Z</time>
      </trkpt>
      <trkpt lat="45.95404" lon="4.38946">
        <ele>789.8</ele>
        <time>2025-09-09T10:40:06Z</time>
      </trkpt>
      <trkpt lat="45.95402" lon="4.38947">
        <ele>789.8</ele>
        <time>2025-09-09T10:40:07Z</time>
      </trkpt>
      <trkpt lat="45.95401" lon="4.38948">
        <ele>789.8</ele>
        <time>2025-09-09T10:40:08Z</time>
      </trkpt>
      <trkpt lat="45.95399" lon="4.38949">
        <ele>789.8</ele>
        <time>2025-09-09T10:40:09Z</time>
      </trkpt>
      <trkpt lat="45.95398" lon="4.3895">
        <ele>790</ele>
        <time>2025-09-09T10:40:10Z</time>
      </trkpt>
      <trkpt lat="45.95396" lon="4.38951">
        <ele>790</ele>
        <time>2025-09-09T10:40:11Z</time>
      </trkpt>
      <trkpt lat="45.95395" lon="4.38952">
        <ele>790</ele>
        <time>2025-09-09T10:40:12Z</time>
      </trkpt>
      <trkpt lat="45.95393" lon="4.38953">
        <ele>790.4</ele>
        <time>2025-09-09T10:40:13Z</time>
      </trkpt>
      <trkpt lat="45.95392" lon="4.38953">
        <ele>790.4</ele>
        <time>2025-09-09T10:40:14Z</time>
      </trkpt>
      <trkpt lat="45.95391" lon="4.38953">
        <ele>790.4</ele>
        <time>2025-09-09T10:40:15Z</time>
      </trkpt>
      <trkpt lat="45.9539" lon="4.38954">
        <ele>790.4</ele>
        <time>2025-09-09T10:40:16Z</time>
      </trkpt>
      <trkpt lat="45.95388" lon="4.38955">
        <ele>790.4</ele>
        <time>2025-09-09T10:40:17Z</time>
      </trkpt>
      <trkpt lat="45.95386" lon="4.38956">
        <ele>790.8</ele>
        <time>2025-09-09T10:40:18Z</time>
      </trkpt>
      <trkpt lat="45.95385" lon="4.38957">
        <ele>790.8</ele>
        <time>2025-09-09T10:40:19Z</time>
      </trkpt>
      <trkpt lat="45.95383" lon="4.38958">
        <ele>790.8</ele>
        <time>2025-09-09T10:40:20Z</time>
      </trkpt>
      <trkpt lat="45.95381" lon="4.38959">
        <ele>791.2</ele>
        <time>2025-09-09T10:40:21Z</time>
      </trkpt>
      <trkpt lat="45.9538" lon="4.3896">
        <ele>791.2</ele>
        <time>2025-09-09T10:40:22Z</time>
      </trkpt>
      <trkpt lat="45.95378" lon="4.38961">
        <ele>791.2</ele>
        <time>2025-09-09T10:40:23Z</time>
      </trkpt>
      <trkpt lat="45.95376" lon="4.38962">
        <ele>791.2</ele>
        <time>2025-09-09T10:40:24Z</time>
      </trkpt>
      <trkpt lat="45.95375" lon="4.38963">
        <ele>791.2</ele>
        <time>2025-09-09T10:40:25Z</time>
      </trkpt>
      <trkpt lat="45.95374" lon="4.38964">
        <ele>791.2</ele>
        <time>2025-09-09T10:40:26Z</time>
      </trkpt>
      <trkpt lat="45.95373" lon="4.38966">
        <ele>791.2</ele>
        <time>2025-09-09T10:40:27Z</time>
      </trkpt>
      <trkpt lat="45.95372" lon="4.38966">
        <ele>791.4</ele>
        <time>2025-09-09T10:40:28Z</time>
      </trkpt>
      <trkpt lat="45.95371" lon="4.38967">
        <ele>791.4</ele>
        <time>2025-09-09T10:40:29Z</time>
      </trkpt>
      <trkpt lat="45.95371" lon="4.38966">
        <ele>791.4</ele>
        <time>2025-09-09T10:40:30Z</time>
      </trkpt>
      <trkpt lat="45.95369" lon="4.38965">
        <ele>791.4</ele>
        <time>2025-09-09T10:40:31Z</time>
      </trkpt>
      <trkpt lat="45.95368" lon="4.38965">
        <ele>791.4</ele>
        <time>2025-09-09T10:40:32Z</time>
      </trkpt>
      <trkpt lat="45.95368" lon="4.38965">
        <ele>791.4</ele>
        <time>2025-09-09T10:40:33Z</time>
      </trkpt>
      <trkpt lat="45.95368" lon="4.38965">
        <ele>791.4</ele>
        <time>2025-09-09T10:40:34Z</time>
      </trkpt>
      <trkpt lat="45.95365" lon="4.38963">
        <ele>791.4</ele>
        <time>2025-09-09T10:42:08Z</time>
      </trkpt>
      <trkpt lat="45.95363" lon="4.38963">
        <ele>791.4</ele>
        <time>2025-09-09T10:42:09Z</time>
      </trkpt>
      <trkpt lat="45.95363" lon="4.38963">
        <ele>791.4</ele>
        <time>2025-09-09T10:42:10Z</time>
      </trkpt>
      <trkpt lat="45.95363" lon="4.38963">
        <ele>791.4</ele>
        <time>2025-09-09T10:42:11Z</time>
      </trkpt>
      <trkpt lat="45.95355" lon="4.38964">
        <ele>791.4</ele>
        <time>2025-09-09T10:42:13Z</time>
      </trkpt>
      <trkpt lat="45.95353" lon="4.38966">
        <ele>791.4</ele>
        <time>2025-09-09T10:42:14Z</time>
      </trkpt>
      <trkpt lat="45.9535" lon="4.38968">
        <ele>791.2</ele>
        <time>2025-09-09T10:42:15Z</time>
      </trkpt>
      <trkpt lat="45.95349" lon="4.3897">
        <ele>791.2</ele>
        <time>2025-09-09T10:42:16Z</time>
      </trkpt>
      <trkpt lat="45.95347" lon="4.38972">
        <ele>791.2</ele>
        <time>2025-09-09T10:42:17Z</time>
      </trkpt>
      <trkpt lat="45.95345" lon="4.38974">
        <ele>791.4</ele>
        <time>2025-09-09T10:42:18Z</time>
      </trkpt>
      <trkpt lat="45.95343" lon="4.38975">
        <ele>791.4</ele>
        <time>2025-09-09T10:42:19Z</time>
      </trkpt>
      <trkpt lat="45.95342" lon="4.38976">
        <ele>791.6</ele>
        <time>2025-09-09T10:42:20Z</time>
      </trkpt>
      <trkpt lat="45.9534" lon="4.38977">
        <ele>791.6</ele>
        <time>2025-09-09T10:42:21Z</time>
      </trkpt>
      <trkpt lat="45.95339" lon="4.38978">
        <ele>791.6</ele>
        <time>2025-09-09T10:42:22Z</time>
      </trkpt>
      <trkpt lat="45.95337" lon="4.38979">
        <ele>791.6</ele>
        <time>2025-09-09T10:42:23Z</time>
      </trkpt>
      <trkpt lat="45.95335" lon="4.38979">
        <ele>791.6</ele>
        <time>2025-09-09T10:42:24Z</time>
      </trkpt>
      <trkpt lat="45.95333" lon="4.3898">
        <ele>791.6</ele>
        <time>2025-09-09T10:42:25Z</time>
      </trkpt>
      <trkpt lat="45.95331" lon="4.3898">
        <ele>791.6</ele>
        <time>2025-09-09T10:42:26Z</time>
      </trkpt>
      <trkpt lat="45.95329" lon="4.38981">
        <ele>791.6</ele>
        <time>2025-09-09T10:42:27Z</time>
      </trkpt>
      <trkpt lat="45.95326" lon="4.38981">
        <ele>791.6</ele>
        <time>2025-09-09T10:42:28Z</time>
      </trkpt>
      <trkpt lat="45.95324" lon="4.38981">
        <ele>791.6</ele>
        <time>2025-09-09T10:42:29Z</time>
      </trkpt>
      <trkpt lat="45.95321" lon="4.38982">
        <ele>791.6</ele>
        <time>2025-09-09T10:42:30Z</time>
      </trkpt>
      <trkpt lat="45.95318" lon="4.38983">
        <ele>791.4</ele>
        <time>2025-09-09T10:42:31Z</time>
      </trkpt>
      <trkpt lat="45.95316" lon="4.38983">
        <ele>791.4</ele>
        <time>2025-09-09T10:42:32Z</time>
      </trkpt>
      <trkpt lat="45.95314" lon="4.38984">
        <ele>791.4</ele>
        <time>2025-09-09T10:42:33Z</time>
      </trkpt>
      <trkpt lat="45.95311" lon="4.38985">
        <ele>791</ele>
        <time>2025-09-09T10:42:34Z</time>
      </trkpt>
      <trkpt lat="45.95308" lon="4.38986">
        <ele>790.6</ele>
        <time>2025-09-09T10:42:35Z</time>
      </trkpt>
      <trkpt lat="45.95305" lon="4.38986">
        <ele>790.6</ele>
        <time>2025-09-09T10:42:36Z</time>
      </trkpt>
      <trkpt lat="45.95302" lon="4.38987">
        <ele>790.4</ele>
        <time>2025-09-09T10:42:37Z</time>
      </trkpt>
      <trkpt lat="45.95298" lon="4.38987">
        <ele>790.4</ele>
        <time>2025-09-09T10:42:38Z</time>
      </trkpt>
      <trkpt lat="45.95295" lon="4.38987">
        <ele>790.4</ele>
        <time>2025-09-09T10:42:39Z</time>
      </trkpt>
      <trkpt lat="45.95292" lon="4.38987">
        <ele>790</ele>
        <time>2025-09-09T10:42:40Z</time>
      </trkpt>
      <trkpt lat="45.95288" lon="4.38988">
        <ele>789.6</ele>
        <time>2025-09-09T10:42:41Z</time>
      </trkpt>
      <trkpt lat="45.95282" lon="4.38991">
        <ele>788.8</ele>
        <time>2025-09-09T10:42:42Z</time>
      </trkpt>
      <trkpt lat="45.95276" lon="4.38993">
        <ele>788.6</ele>
        <time>2025-09-09T10:42:43Z</time>
      </trkpt>
      <trkpt lat="45.95271" lon="4.38995">
        <ele>788.2</ele>
        <time>2025-09-09T10:42:44Z</time>
      </trkpt>
      <trkpt lat="45.95266" lon="4.38995">
        <ele>787.6</ele>
        <time>2025-09-09T10:42:45Z</time>
      </trkpt>
      <trkpt lat="45.95262" lon="4.38998">
        <ele>787.4</ele>
        <time>2025-09-09T10:42:46Z</time>
      </trkpt>
      <trkpt lat="45.95258" lon="4.38999">
        <ele>787</ele>
        <time>2025-09-09T10:42:47Z</time>
      </trkpt>
      <trkpt lat="45.95256" lon="4.39">
        <ele>787</ele>
        <time>2025-09-09T10:42:48Z</time>
      </trkpt>
      <trkpt lat="45.95253" lon="4.39001">
        <ele>787</ele>
        <time>2025-09-09T10:42:49Z</time>
      </trkpt>
      <trkpt lat="45.95232" lon="4.38999">
        <ele>786.8</ele>
        <time>2025-09-09T11:30:32Z</time>
      </trkpt>
      <trkpt lat="45.95231" lon="4.39001">
        <ele>786.8</ele>
        <time>2025-09-09T11:30:33Z</time>
      </trkpt>
      <trkpt lat="45.95231" lon="4.39003">
        <ele>786.8</ele>
        <time>2025-09-09T11:30:34Z</time>
      </trkpt>
      <trkpt lat="45.95233" lon="4.39004">
        <ele>786.6</ele>
        <time>2025-09-09T11:30:35Z</time>
      </trkpt>
      <trkpt lat="45.95236" lon="4.39004">
        <ele>786.8</ele>
        <time>2025-09-09T11:30:36Z</time>
      </trkpt>
      <trkpt lat="45.95238" lon="4.39003">
        <ele>786.8</ele>
        <time>2025-09-09T11:30:37Z</time>
      </trkpt>
      <trkpt lat="45.9524" lon="4.39001">
        <ele>786.8</ele>
        <time>2025-09-09T11:30:38Z</time>
      </trkpt>
      <trkpt lat="45.95242" lon="4.39001">
        <ele>786.8</ele>
        <time>2025-09-09T11:30:39Z</time>
      </trkpt>
      <trkpt lat="45.95244" lon="4.39">
        <ele>786.8</ele>
        <time>2025-09-09T11:30:40Z</time>
      </trkpt>
      <trkpt lat="45.95246" lon="4.39">
        <ele>786.8</ele>
        <time>2025-09-09T11:30:41Z</time>
      </trkpt>
      <trkpt lat="45.95248" lon="4.38998">
        <ele>786.8</ele>
        <time>2025-09-09T11:30:42Z</time>
      </trkpt>
      <trkpt lat="45.9525" lon="4.38997">
        <ele>786.8</ele>
        <time>2025-09-09T11:30:43Z</time>
      </trkpt>
      <trkpt lat="45.95252" lon="4.38996">
        <ele>786.8</ele>
        <time>2025-09-09T11:30:44Z</time>
      </trkpt>
      <trkpt lat="45.95253" lon="4.38997">
        <ele>786.8</ele>
        <time>2025-09-09T11:30:45Z</time>
      </trkpt>
      <trkpt lat="45.95255" lon="4.38998">
        <ele>786.8</ele>
        <time>2025-09-09T11:30:46Z</time>
      </trkpt>
      <trkpt lat="45.95256" lon="4.39">
        <ele>786.6</ele>
        <time>2025-09-09T11:30:47Z</time>
      </trkpt>
      <trkpt lat="45.95258" lon="4.39003">
        <ele>786.6</ele>
        <time>2025-09-09T11:30:48Z</time>
      </trkpt>
      <trkpt lat="45.95259" lon="4.39005">
        <ele>786.6</ele>
        <time>2025-09-09T11:30:49Z</time>
      </trkpt>
      <trkpt lat="45.95261" lon="4.39005">
        <ele>786.8</ele>
        <time>2025-09-09T11:30:50Z</time>
      </trkpt>
      <trkpt lat="45.95263" lon="4.39004">
        <ele>786.8</ele>
        <time>2025-09-09T11:30:51Z</time>
      </trkpt>
      <trkpt lat="45.95264" lon="4.39002">
        <ele>786.8</ele>
        <time>2025-09-09T11:30:52Z</time>
      </trkpt>
      <trkpt lat="45.95263" lon="4.38999">
        <ele>786.8</ele>
        <time>2025-09-09T11:30:53Z</time>
      </trkpt>
      <trkpt lat="45.95262" lon="4.38997">
        <ele>786.8</ele>
        <time>2025-09-09T11:30:54Z</time>
      </trkpt>
      <trkpt lat="45.9526" lon="4.38996">
        <ele>786.8</ele>
        <time>2025-09-09T11:30:55Z</time>
      </trkpt>
      <trkpt lat="45.95258" lon="4.38994">
        <ele>786.8</ele>
        <time>2025-09-09T11:30:56Z</time>
      </trkpt>
      <trkpt lat="45.95255" lon="4.38992">
        <ele>786.8</ele>
        <time>2025-09-09T11:30:57Z</time>
      </trkpt>
      <trkpt lat="45.95253" lon="4.38991">
        <ele>787</ele>
        <time>2025-09-09T11:30:58Z</time>
      </trkpt>
      <trkpt lat="45.95251" lon="4.3899">
        <ele>787</ele>
        <time>2025-09-09T11:30:59Z</time>
      </trkpt>
      <trkpt lat="45.95248" lon="4.3899">
        <ele>786.8</ele>
        <time>2025-09-09T11:31:00Z</time>
      </trkpt>
      <trkpt lat="45.95246" lon="4.38991">
        <ele>786.8</ele>
        <time>2025-09-09T11:31:01Z</time>
      </trkpt>
      <trkpt lat="45.95243" lon="4.38993">
        <ele>786.4</ele>
        <time>2025-09-09T11:31:02Z</time>
      </trkpt>
      <trkpt lat="45.95239" lon="4.38994">
        <ele>786.4</ele>
        <time>2025-09-09T11:31:03Z</time>
      </trkpt>
      <trkpt lat="45.95235" lon="4.38994">
        <ele>786.4</ele>
        <time>2025-09-09T11:31:04Z</time>
      </trkpt>
      <trkpt lat="45.95232" lon="4.38995">
        <ele>786</ele>
        <time>2025-09-09T11:31:05Z</time>
      </trkpt>
      <trkpt lat="45.95228" lon="4.38997">
        <ele>786</ele>
        <time>2025-09-09T11:31:06Z</time>
      </trkpt>
      <trkpt lat="45.95224" lon="4.38998">
        <ele>786.4</ele>
        <time>2025-09-09T11:31:07Z</time>
      </trkpt>
      <trkpt lat="45.95221" lon="4.38998">
        <ele>786.4</ele>
        <time>2025-09-09T11:31:08Z</time>
      </trkpt>
      <trkpt lat="45.95217" lon="4.38999">
        <ele>786.4</ele>
        <time>2025-09-09T11:31:09Z</time>
      </trkpt>
      <trkpt lat="45.95213" lon="4.38999">
        <ele>786.6</ele>
        <time>2025-09-09T11:31:10Z</time>
      </trkpt>
      <trkpt lat="45.9521" lon="4.38999">
        <ele>786.2</ele>
        <time>2025-09-09T11:31:11Z</time>
      </trkpt>
      <trkpt lat="45.95206" lon="4.38999">
        <ele>786.2</ele>
        <time>2025-09-09T11:31:12Z</time>
      </trkpt>
      <trkpt lat="45.95203" lon="4.38999">
        <ele>786.2</ele>
        <time>2025-09-09T11:31:13Z</time>
      </trkpt>
      <trkpt lat="45.95199" lon="4.38999">
        <ele>786.2</ele>
        <time>2025-09-09T11:31:14Z</time>
      </trkpt>
      <trkpt lat="45.95195" lon="4.38999">
        <ele>786.2</ele>
        <time>2025-09-09T11:31:15Z</time>
      </trkpt>
      <trkpt lat="45.95191" lon="4.39">
        <ele>786</ele>
        <time>2025-09-09T11:31:16Z</time>
      </trkpt>
      <trkpt lat="45.95187" lon="4.39">
        <ele>786</ele>
        <time>2025-09-09T11:31:17Z</time>
      </trkpt>
      <trkpt lat="45.95183" lon="4.39001">
        <ele>785.8</ele>
        <time>2025-09-09T11:31:18Z</time>
      </trkpt>
      <trkpt lat="45.9518" lon="4.39002">
        <ele>785.8</ele>
        <time>2025-09-09T11:31:19Z</time>
      </trkpt>
      <trkpt lat="45.95177" lon="4.39003">
        <ele>785.4</ele>
        <time>2025-09-09T11:31:20Z</time>
      </trkpt>
      <trkpt lat="45.95173" lon="4.39002">
        <ele>785.4</ele>
        <time>2025-09-09T11:31:21Z</time>
      </trkpt>
      <trkpt lat="45.95169" lon="4.39001">
        <ele>785.4</ele>
        <time>2025-09-09T11:31:22Z</time>
      </trkpt>
      <trkpt lat="45.95165" lon="4.39">
        <ele>785.2</ele>
        <time>2025-09-09T11:31:23Z</time>
      </trkpt>
      <trkpt lat="45.95161" lon="4.38999">
        <ele>785.2</ele>
        <time>2025-09-09T11:31:24Z</time>
      </trkpt>
      <trkpt lat="45.95157" lon="4.38999">
        <ele>785.2</ele>
        <time>2025-09-09T11:31:25Z</time>
      </trkpt>
      <trkpt lat="45.95154" lon="4.38998">
        <ele>785.2</ele>
        <time>2025-09-09T11:31:26Z</time>
      </trkpt>
      <trkpt lat="45.95151" lon="4.38998">
        <ele>785</ele>
        <time>2025-09-09T11:31:27Z</time>
      </trkpt>
      <trkpt lat="45.95148" lon="4.38997">
        <ele>785</ele>
        <time>2025-09-09T11:31:28Z</time>
      </trkpt>
      <trkpt lat="45.95145" lon="4.38997">
        <ele>785</ele>
        <time>2025-09-09T11:31:29Z</time>
      </trkpt>
      <trkpt lat="45.95142" lon="4.38998">
        <ele>785</ele>
        <time>2025-09-09T11:31:30Z</time>
      </trkpt>
      <trkpt lat="45.9514" lon="4.38998">
        <ele>785</ele>
        <time>2025-09-09T11:31:31Z</time>
      </trkpt>
      <trkpt lat="45.95137" lon="4.38998">
        <ele>785</ele>
        <time>2025-09-09T11:31:32Z</time>
      </trkpt>
      <trkpt lat="45.95134" lon="4.38998">
        <ele>785.2</ele>
        <time>2025-09-09T11:31:33Z</time>
      </trkpt>
      <trkpt lat="45.95131" lon="4.38999">
        <ele>785</ele>
        <time>2025-09-09T11:31:34Z</time>
      </trkpt>
      <trkpt lat="45.95128" lon="4.39">
        <ele>785.2</ele>
        <time>2025-09-09T11:31:35Z</time>
      </trkpt>
      <trkpt lat="45.95125" lon="4.39001">
        <ele>785.2</ele>
        <time>2025-09-09T11:31:36Z</time>
      </trkpt>
      <trkpt lat="45.95121" lon="4.39002">
        <ele>785.2</ele>
        <time>2025-09-09T11:31:37Z</time>
      </trkpt>
      <trkpt lat="45.95118" lon="4.39003">
        <ele>785.2</ele>
        <time>2025-09-09T11:31:38Z</time>
      </trkpt>
      <trkpt lat="45.95115" lon="4.39002">
        <ele>785.2</ele>
        <time>2025-09-09T11:31:39Z</time>
      </trkpt>
      <trkpt lat="45.95112" lon="4.39002">
        <ele>785.2</ele>
        <time>2025-09-09T11:31:40Z</time>
      </trkpt>
      <trkpt lat="45.95109" lon="4.39001">
        <ele>785.4</ele>
        <time>2025-09-09T11:31:41Z</time>
      </trkpt>
      <trkpt lat="45.95106" lon="4.39001">
        <ele>785.4</ele>
        <time>2025-09-09T11:31:42Z</time>
      </trkpt>
      <trkpt lat="45.95104" lon="4.39">
        <ele>785.2</ele>
        <time>2025-09-09T11:31:43Z</time>
      </trkpt>
      <trkpt lat="45.95101" lon="4.39">
        <ele>785.6</ele>
        <time>2025-09-09T11:31:44Z</time>
      </trkpt>
      <trkpt lat="45.95099" lon="4.39">
        <ele>785.6</ele>
        <time>2025-09-09T11:31:45Z</time>
      </trkpt>
      <trkpt lat="45.95096" lon="4.39001">
        <ele>785.6</ele>
        <time>2025-09-09T11:31:46Z</time>
      </trkpt>
      <trkpt lat="45.95094" lon="4.39002">
        <ele>785.8</ele>
        <time>2025-09-09T11:31:47Z</time>
      </trkpt>
      <trkpt lat="45.95091" lon="4.39003">
        <ele>785.6</ele>
        <time>2025-09-09T11:31:48Z</time>
      </trkpt>
      <trkpt lat="45.95088" lon="4.39003">
        <ele>785.6</ele>
        <time>2025-09-09T11:31:49Z</time>
      </trkpt>
      <trkpt lat="45.95085" lon="4.39004">
        <ele>785.6</ele>
        <time>2025-09-09T11:31:50Z</time>
      </trkpt>
      <trkpt lat="45.95082" lon="4.39004">
        <ele>786</ele>
        <time>2025-09-09T11:31:51Z</time>
      </trkpt>
      <trkpt lat="45.9508" lon="4.39005">
        <ele>786</ele>
        <time>2025-09-09T11:31:52Z</time>
      </trkpt>
      <trkpt lat="45.95079" lon="4.39005">
        <ele>786.2</ele>
        <time>2025-09-09T11:31:53Z</time>
      </trkpt>
      <trkpt lat="45.95077" lon="4.39006">
        <ele>786.2</ele>
        <time>2025-09-09T11:31:54Z</time>
      </trkpt>
      <trkpt lat="45.95075" lon="4.39007">
        <ele>786.2</ele>
        <time>2025-09-09T11:31:55Z</time>
      </trkpt>
      <trkpt lat="45.95072" lon="4.39008">
        <ele>786.4</ele>
        <time>2025-09-09T11:31:56Z</time>
      </trkpt>
      <trkpt lat="45.95069" lon="4.39008">
        <ele>786.6</ele>
        <time>2025-09-09T11:31:57Z</time>
      </trkpt>
      <trkpt lat="45.95066" lon="4.39009">
        <ele>786.6</ele>
        <time>2025-09-09T11:31:58Z</time>
      </trkpt>
      <trkpt lat="45.95063" lon="4.39008">
        <ele>786.6</ele>
        <time>2025-09-09T11:31:59Z</time>
      </trkpt>
      <trkpt lat="45.9506" lon="4.39008">
        <ele>787</ele>
        <time>2025-09-09T11:32:00Z</time>
      </trkpt>
      <trkpt lat="45.95057" lon="4.39008">
        <ele>787</ele>
        <time>2025-09-09T11:32:01Z</time>
      </trkpt>
      <trkpt lat="45.95055" lon="4.39008">
        <ele>786.6</ele>
        <time>2025-09-09T11:32:02Z</time>
      </trkpt>
      <trkpt lat="45.95052" lon="4.39009">
        <ele>787</ele>
        <time>2025-09-09T11:32:03Z</time>
      </trkpt>
      <trkpt lat="45.9505" lon="4.39009">
        <ele>787.2</ele>
        <time>2025-09-09T11:32:04Z</time>
      </trkpt>
      <trkpt lat="45.95048" lon="4.3901">
        <ele>787.2</ele>
        <time>2025-09-09T11:32:05Z</time>
      </trkpt>
      <trkpt lat="45.95046" lon="4.39011">
        <ele>787.2</ele>
        <time>2025-09-09T11:32:06Z</time>
      </trkpt>
      <trkpt lat="45.95044" lon="4.39012">
        <ele>787.2</ele>
        <time>2025-09-09T11:32:07Z</time>
      </trkpt>
      <trkpt lat="45.95042" lon="4.39012">
        <ele>787.6</ele>
        <time>2025-09-09T11:32:08Z</time>
      </trkpt>
      <trkpt lat="45.9504" lon="4.39013">
        <ele>787.8</ele>
        <time>2025-09-09T11:32:09Z</time>
      </trkpt>
      <trkpt lat="45.95039" lon="4.39013">
        <ele>787.8</ele>
        <time>2025-09-09T11:32:10Z</time>
      </trkpt>
      <trkpt lat="45.95038" lon="4.39013">
        <ele>788.2</ele>
        <time>2025-09-09T11:32:11Z</time>
      </trkpt>
      <trkpt lat="45.95036" lon="4.39014">
        <ele>788.2</ele>
        <time>2025-09-09T11:32:12Z</time>
      </trkpt>
      <trkpt lat="45.95035" lon="4.39013">
        <ele>788.4</ele>
        <time>2025-09-09T11:32:13Z</time>
      </trkpt>
      <trkpt lat="45.95034" lon="4.39013">
        <ele>788.4</ele>
        <time>2025-09-09T11:32:14Z</time>
      </trkpt>
      <trkpt lat="45.95033" lon="4.39013">
        <ele>788.8</ele>
        <time>2025-09-09T11:32:15Z</time>
      </trkpt>
      <trkpt lat="45.95031" lon="4.39013">
        <ele>788.8</ele>
        <time>2025-09-09T11:32:16Z</time>
      </trkpt>
      <trkpt lat="45.9503" lon="4.39013">
        <ele>788.8</ele>
        <time>2025-09-09T11:32:17Z</time>
      </trkpt>
      <trkpt lat="45.95028" lon="4.39014">
        <ele>788.8</ele>
        <time>2025-09-09T11:32:18Z</time>
      </trkpt>
      <trkpt lat="45.95027" lon="4.39014">
        <ele>789</ele>
        <time>2025-09-09T11:32:19Z</time>
      </trkpt>
      <trkpt lat="45.95025" lon="4.39014">
        <ele>789</ele>
        <time>2025-09-09T11:32:20Z</time>
      </trkpt>
      <trkpt lat="45.95024" lon="4.39014">
        <ele>789.4</ele>
        <time>2025-09-09T11:32:21Z</time>
      </trkpt>
      <trkpt lat="45.95023" lon="4.39014">
        <ele>789.6</ele>
        <time>2025-09-09T11:32:22Z</time>
      </trkpt>
      <trkpt lat="45.95021" lon="4.39014">
        <ele>789.6</ele>
        <time>2025-09-09T11:32:23Z</time>
      </trkpt>
      <trkpt lat="45.9502" lon="4.39014">
        <ele>789.8</ele>
        <time>2025-09-09T11:32:24Z</time>
      </trkpt>
      <trkpt lat="45.95018" lon="4.39013">
        <ele>789.8</ele>
        <time>2025-09-09T11:32:25Z</time>
      </trkpt>
      <trkpt lat="45.95017" lon="4.39013">
        <ele>789.8</ele>
        <time>2025-09-09T11:32:26Z</time>
      </trkpt>
      <trkpt lat="45.95016" lon="4.39013">
        <ele>789.8</ele>
        <time>2025-09-09T11:32:27Z</time>
      </trkpt>
      <trkpt lat="45.95014" lon="4.39013">
        <ele>790.2</ele>
        <time>2025-09-09T11:32:28Z</time>
      </trkpt>
      <trkpt lat="45.95013" lon="4.39013">
        <ele>790.2</ele>
        <time>2025-09-09T11:32:29Z</time>
      </trkpt>
      <trkpt lat="45.95011" lon="4.39013">
        <ele>790.4</ele>
        <time>2025-09-09T11:32:30Z</time>
      </trkpt>
      <trkpt lat="45.9501" lon="4.39013">
        <ele>790.4</ele>
        <time>2025-09-09T11:32:31Z</time>
      </trkpt>
      <trkpt lat="45.95009" lon="4.39014">
        <ele>790.8</ele>
        <time>2025-09-09T11:32:32Z</time>
      </trkpt>
      <trkpt lat="45.95008" lon="4.39014">
        <ele>790.8</ele>
        <time>2025-09-09T11:32:33Z</time>
      </trkpt>
      <trkpt lat="45.95006" lon="4.39014">
        <ele>790.8</ele>
        <time>2025-09-09T11:32:34Z</time>
      </trkpt>
      <trkpt lat="45.95005" lon="4.39015">
        <ele>791</ele>
        <time>2025-09-09T11:32:35Z</time>
      </trkpt>
      <trkpt lat="45.95005" lon="4.39015">
        <ele>791</ele>
        <time>2025-09-09T11:32:36Z</time>
      </trkpt>
      <trkpt lat="45.95003" lon="4.39015">
        <ele>791</ele>
        <time>2025-09-09T11:32:37Z</time>
      </trkpt>
      <trkpt lat="45.95002" lon="4.39014">
        <ele>791</ele>
        <time>2025-09-09T11:32:38Z</time>
      </trkpt>
      <trkpt lat="45.95001" lon="4.39014">
        <ele>791.2</ele>
        <time>2025-09-09T11:32:39Z</time>
      </trkpt>
      <trkpt lat="45.95" lon="4.39013">
        <ele>791.2</ele>
        <time>2025-09-09T11:32:40Z</time>
      </trkpt>
      <trkpt lat="45.94999" lon="4.39013">
        <ele>791.6</ele>
        <time>2025-09-09T11:32:41Z</time>
      </trkpt>
      <trkpt lat="45.94998" lon="4.39013">
        <ele>791.6</ele>
        <time>2025-09-09T11:32:42Z</time>
      </trkpt>
      <trkpt lat="45.94996" lon="4.39014">
        <ele>791.6</ele>
        <time>2025-09-09T11:32:43Z</time>
      </trkpt>
      <trkpt lat="45.94995" lon="4.39014">
        <ele>791.6</ele>
        <time>2025-09-09T11:32:44Z</time>
      </trkpt>
      <trkpt lat="45.94993" lon="4.39014">
        <ele>792</ele>
        <time>2025-09-09T11:32:45Z</time>
      </trkpt>
      <trkpt lat="45.94992" lon="4.39014">
        <ele>792.4</ele>
        <time>2025-09-09T11:32:46Z</time>
      </trkpt>
      <trkpt lat="45.94992" lon="4.39014">
        <ele>792.6</ele>
        <time>2025-09-09T11:32:47Z</time>
      </trkpt>
      <trkpt lat="45.9499" lon="4.39014">
        <ele>792.8</ele>
        <time>2025-09-09T11:32:48Z</time>
      </trkpt>
      <trkpt lat="45.94989" lon="4.39014">
        <ele>792.8</ele>
        <time>2025-09-09T11:32:49Z</time>
      </trkpt>
      <trkpt lat="45.94988" lon="4.39015">
        <ele>793</ele>
        <time>2025-09-09T11:32:50Z</time>
      </trkpt>
      <trkpt lat="45.94987" lon="4.39016">
        <ele>793</ele>
        <time>2025-09-09T11:32:51Z</time>
      </trkpt>
      <trkpt lat="45.94986" lon="4.39016">
        <ele>793.4</ele>
        <time>2025-09-09T11:32:52Z</time>
      </trkpt>
      <trkpt lat="45.94986" lon="4.39016">
        <ele>793.4</ele>
        <time>2025-09-09T11:32:53Z</time>
      </trkpt>
      <trkpt lat="45.94986" lon="4.39016">
        <ele>793.4</ele>
        <time>2025-09-09T11:32:54Z</time>
      </trkpt>
      <trkpt lat="45.94982" lon="4.39016">
        <ele>793.4</ele>
        <time>2025-09-09T11:33:22Z</time>
      </trkpt>
      <trkpt lat="45.9498" lon="4.39016">
        <ele>793.4</ele>
        <time>2025-09-09T11:33:23Z</time>
      </trkpt>
      <trkpt lat="45.94979" lon="4.39016">
        <ele>793.4</ele>
        <time>2025-09-09T11:33:24Z</time>
      </trkpt>
      <trkpt lat="45.94977" lon="4.39016">
        <ele>793.4</ele>
        <time>2025-09-09T11:33:25Z</time>
      </trkpt>
      <trkpt lat="45.94976" lon="4.39016">
        <ele>793.4</ele>
        <time>2025-09-09T11:33:26Z</time>
      </trkpt>
      <trkpt lat="45.94974" lon="4.39016">
        <ele>794</ele>
        <time>2025-09-09T11:33:27Z</time>
      </trkpt>
      <trkpt lat="45.94973" lon="4.39015">
        <ele>794.2</ele>
        <time>2025-09-09T11:33:28Z</time>
      </trkpt>
      <trkpt lat="45.94971" lon="4.39015">
        <ele>794.6</ele>
        <time>2025-09-09T11:33:29Z</time>
      </trkpt>
      <trkpt lat="45.9497" lon="4.39014">
        <ele>794.6</ele>
        <time>2025-09-09T11:33:30Z</time>
      </trkpt>
      <trkpt lat="45.94969" lon="4.39015">
        <ele>794.8</ele>
        <time>2025-09-09T11:33:31Z</time>
      </trkpt>
      <trkpt lat="45.94967" lon="4.39015">
        <ele>794.8</ele>
        <time>2025-09-09T11:33:32Z</time>
      </trkpt>
      <trkpt lat="45.94965" lon="4.39015">
        <ele>795.2</ele>
        <time>2025-09-09T11:33:33Z</time>
      </trkpt>
      <trkpt lat="45.94963" lon="4.39015">
        <ele>795.2</ele>
        <time>2025-09-09T11:33:34Z</time>
      </trkpt>
      <trkpt lat="45.94962" lon="4.39015">
        <ele>795.2</ele>
        <time>2025-09-09T11:33:35Z</time>
      </trkpt>
      <trkpt lat="45.9496" lon="4.39015">
        <ele>795.2</ele>
        <time>2025-09-09T11:33:36Z</time>
      </trkpt>
      <trkpt lat="45.94959" lon="4.39014">
        <ele>795.2</ele>
        <time>2025-09-09T11:33:37Z</time>
      </trkpt>
      <trkpt lat="45.94958" lon="4.39014">
        <ele>795.8</ele>
        <time>2025-09-09T11:33:38Z</time>
      </trkpt>
      <trkpt lat="45.94956" lon="4.39014">
        <ele>796</ele>
        <time>2025-09-09T11:33:39Z</time>
      </trkpt>
      <trkpt lat="45.94955" lon="4.39013">
        <ele>796</ele>
        <time>2025-09-09T11:33:40Z</time>
      </trkpt>
      <trkpt lat="45.94954" lon="4.39013">
        <ele>796.4</ele>
        <time>2025-09-09T11:33:41Z</time>
      </trkpt>
      <trkpt lat="45.94953" lon="4.39012">
        <ele>796.8</ele>
        <time>2025-09-09T11:33:42Z</time>
      </trkpt>
      <trkpt lat="45.94951" lon="4.39012">
        <ele>797</ele>
        <time>2025-09-09T11:33:43Z</time>
      </trkpt>
      <trkpt lat="45.94949" lon="4.39013">
        <ele>797</ele>
        <time>2025-09-09T11:33:44Z</time>
      </trkpt>
      <trkpt lat="45.94947" lon="4.39012">
        <ele>797</ele>
        <time>2025-09-09T11:33:45Z</time>
      </trkpt>
      <trkpt lat="45.94946" lon="4.39012">
        <ele>797.4</ele>
        <time>2025-09-09T11:33:46Z</time>
      </trkpt>
      <trkpt lat="45.94946" lon="4.39012">
        <ele>797.4</ele>
        <time>2025-09-09T11:33:47Z</time>
      </trkpt>
      <trkpt lat="45.94944" lon="4.39011">
        <ele>797.6</ele>
        <time>2025-09-09T11:33:48Z</time>
      </trkpt>
      <trkpt lat="45.94943" lon="4.39011">
        <ele>797.6</ele>
        <time>2025-09-09T11:33:49Z</time>
      </trkpt>
      <trkpt lat="45.94941" lon="4.39012">
        <ele>797.6</ele>
        <time>2025-09-09T11:33:50Z</time>
      </trkpt>
      <trkpt lat="45.9494" lon="4.39012">
        <ele>798</ele>
        <time>2025-09-09T11:33:51Z</time>
      </trkpt>
      <trkpt lat="45.94939" lon="4.39013">
        <ele>798</ele>
        <time>2025-09-09T11:33:52Z</time>
      </trkpt>
      <trkpt lat="45.94938" lon="4.39013">
        <ele>798.2</ele>
        <time>2025-09-09T11:33:53Z</time>
      </trkpt>
      <trkpt lat="45.94936" lon="4.39013">
        <ele>798.2</ele>
        <time>2025-09-09T11:33:54Z</time>
      </trkpt>
      <trkpt lat="45.94935" lon="4.39012">
        <ele>798.4</ele>
        <time>2025-09-09T11:33:55Z</time>
      </trkpt>
      <trkpt lat="45.94934" lon="4.39012">
        <ele>798.4</ele>
        <time>2025-09-09T11:33:56Z</time>
      </trkpt>
      <trkpt lat="45.94933" lon="4.39012">
        <ele>798.6</ele>
        <time>2025-09-09T11:33:57Z</time>
      </trkpt>
      <trkpt lat="45.94932" lon="4.39012">
        <ele>798.6</ele>
        <time>2025-09-09T11:33:58Z</time>
      </trkpt>
      <trkpt lat="45.9493" lon="4.39012">
        <ele>799</ele>
        <time>2025-09-09T11:33:59Z</time>
      </trkpt>
      <trkpt lat="45.94929" lon="4.39012">
        <ele>799.2</ele>
        <time>2025-09-09T11:34:00Z</time>
      </trkpt>
      <trkpt lat="45.94928" lon="4.39011">
        <ele>799.4</ele>
        <time>2025-09-09T11:34:01Z</time>
      </trkpt>
      <trkpt lat="45.94927" lon="4.3901">
        <ele>799.4</ele>
        <time>2025-09-09T11:34:02Z</time>
      </trkpt>
      <trkpt lat="45.94926" lon="4.39009">
        <ele>799.8</ele>
        <time>2025-09-09T11:34:03Z</time>
      </trkpt>
      <trkpt lat="45.94925" lon="4.39008">
        <ele>799.8</ele>
        <time>2025-09-09T11:34:04Z</time>
      </trkpt>
      <trkpt lat="45.94924" lon="4.39008">
        <ele>800</ele>
        <time>2025-09-09T11:34:05Z</time>
      </trkpt>
      <trkpt lat="45.94922" lon="4.39008">
        <ele>800</ele>
        <time>2025-09-09T11:34:06Z</time>
      </trkpt>
      <trkpt lat="45.94921" lon="4.39008">
        <ele>800.4</ele>
        <time>2025-09-09T11:34:07Z</time>
      </trkpt>
      <trkpt lat="45.9492" lon="4.39007">
        <ele>800.4</ele>
        <time>2025-09-09T11:34:08Z</time>
      </trkpt>
      <trkpt lat="45.94918" lon="4.39007">
        <ele>800.8</ele>
        <time>2025-09-09T11:34:09Z</time>
      </trkpt>
      <trkpt lat="45.94917" lon="4.39007">
        <ele>800.8</ele>
        <time>2025-09-09T11:34:10Z</time>
      </trkpt>
      <trkpt lat="45.94915" lon="4.39007">
        <ele>801</ele>
        <time>2025-09-09T11:34:11Z</time>
      </trkpt>
      <trkpt lat="45.94914" lon="4.39007">
        <ele>801</ele>
        <time>2025-09-09T11:34:12Z</time>
      </trkpt>
      <trkpt lat="45.94913" lon="4.39006">
        <ele>801.2</ele>
        <time>2025-09-09T11:34:13Z</time>
      </trkpt>
      <trkpt lat="45.94912" lon="4.39005">
        <ele>801.2</ele>
        <time>2025-09-09T11:34:14Z</time>
      </trkpt>
      <trkpt lat="45.9491" lon="4.39005">
        <ele>801.2</ele>
        <time>2025-09-09T11:34:15Z</time>
      </trkpt>
      <trkpt lat="45.94909" lon="4.39004">
        <ele>801.2</ele>
        <time>2025-09-09T11:34:16Z</time>
      </trkpt>
      <trkpt lat="45.94908" lon="4.39003">
        <ele>801.2</ele>
        <time>2025-09-09T11:34:17Z</time>
      </trkpt>
      <trkpt lat="45.94907" lon="4.39003">
        <ele>801.6</ele>
        <time>2025-09-09T11:34:18Z</time>
      </trkpt>
      <trkpt lat="45.94906" lon="4.39003">
        <ele>802</ele>
        <time>2025-09-09T11:34:19Z</time>
      </trkpt>
      <trkpt lat="45.94904" lon="4.39003">
        <ele>802.2</ele>
        <time>2025-09-09T11:34:20Z</time>
      </trkpt>
      <trkpt lat="45.94903" lon="4.39002">
        <ele>802.2</ele>
        <time>2025-09-09T11:34:21Z</time>
      </trkpt>
      <trkpt lat="45.94902" lon="4.39002">
        <ele>802.4</ele>
        <time>2025-09-09T11:34:22Z</time>
      </trkpt>
      <trkpt lat="45.94901" lon="4.39002">
        <ele>802.4</ele>
        <time>2025-09-09T11:34:23Z</time>
      </trkpt>
      <trkpt lat="45.949" lon="4.39003">
        <ele>802.6</ele>
        <time>2025-09-09T11:34:24Z</time>
      </trkpt>
      <trkpt lat="45.94899" lon="4.39003">
        <ele>802.6</ele>
        <time>2025-09-09T11:34:25Z</time>
      </trkpt>
      <trkpt lat="45.94898" lon="4.39004">
        <ele>802.6</ele>
        <time>2025-09-09T11:34:26Z</time>
      </trkpt>
      <trkpt lat="45.94896" lon="4.39004">
        <ele>803</ele>
        <time>2025-09-09T11:34:27Z</time>
      </trkpt>
      <trkpt lat="45.94895" lon="4.39004">
        <ele>803</ele>
        <time>2025-09-09T11:34:28Z</time>
      </trkpt>
      <trkpt lat="45.94894" lon="4.39004">
        <ele>803.4</ele>
        <time>2025-09-09T11:34:29Z</time>
      </trkpt>
      <trkpt lat="45.94893" lon="4.39004">
        <ele>803.4</ele>
        <time>2025-09-09T11:34:30Z</time>
      </trkpt>
      <trkpt lat="45.94892" lon="4.39004">
        <ele>803.4</ele>
        <time>2025-09-09T11:34:31Z</time>
      </trkpt>
      <trkpt lat="45.9489" lon="4.39003">
        <ele>803.6</ele>
        <time>2025-09-09T11:34:32Z</time>
      </trkpt>
      <trkpt lat="45.94889" lon="4.39003">
        <ele>803.6</ele>
        <time>2025-09-09T11:34:33Z</time>
      </trkpt>
      <trkpt lat="45.94889" lon="4.39003">
        <ele>803.8</ele>
        <time>2025-09-09T11:34:34Z</time>
      </trkpt>
      <trkpt lat="45.94888" lon="4.39004">
        <ele>803.8</ele>
        <time>2025-09-09T11:34:35Z</time>
      </trkpt>
      <trkpt lat="45.94887" lon="4.39004">
        <ele>804.2</ele>
        <time>2025-09-09T11:34:36Z</time>
      </trkpt>
      <trkpt lat="45.94886" lon="4.39004">
        <ele>804.2</ele>
        <time>2025-09-09T11:34:37Z</time>
      </trkpt>
      <trkpt lat="45.94885" lon="4.39004">
        <ele>804.4</ele>
        <time>2025-09-09T11:34:38Z</time>
      </trkpt>
      <trkpt lat="45.94884" lon="4.39004">
        <ele>804.4</ele>
        <time>2025-09-09T11:34:39Z</time>
      </trkpt>
      <trkpt lat="45.94883" lon="4.39004">
        <ele>804.6</ele>
        <time>2025-09-09T11:34:40Z</time>
      </trkpt>
      <trkpt lat="45.94882" lon="4.39004">
        <ele>804.6</ele>
        <time>2025-09-09T11:34:41Z</time>
      </trkpt>
      <trkpt lat="45.94881" lon="4.39003">
        <ele>805</ele>
        <time>2025-09-09T11:34:42Z</time>
      </trkpt>
      <trkpt lat="45.94879" lon="4.39003">
        <ele>805</ele>
        <time>2025-09-09T11:34:43Z</time>
      </trkpt>
      <trkpt lat="45.94879" lon="4.39003">
        <ele>805.2</ele>
        <time>2025-09-09T11:34:44Z</time>
      </trkpt>
      <trkpt lat="45.94879" lon="4.39004">
        <ele>805.2</ele>
        <time>2025-09-09T11:34:45Z</time>
      </trkpt>
      <trkpt lat="45.94878" lon="4.39003">
        <ele>805.6</ele>
        <time>2025-09-09T11:34:46Z</time>
      </trkpt>
      <trkpt lat="45.94877" lon="4.39003">
        <ele>805.6</ele>
        <time>2025-09-09T11:34:47Z</time>
      </trkpt>
      <trkpt lat="45.94875" lon="4.39003">
        <ele>805.8</ele>
        <time>2025-09-09T11:34:48Z</time>
      </trkpt>
      <trkpt lat="45.94874" lon="4.39003">
        <ele>805.8</ele>
        <time>2025-09-09T11:34:49Z</time>
      </trkpt>
      <trkpt lat="45.94872" lon="4.39003">
        <ele>806.2</ele>
        <time>2025-09-09T11:34:50Z</time>
      </trkpt>
      <trkpt lat="45.94871" lon="4.39003">
        <ele>806.2</ele>
        <time>2025-09-09T11:34:51Z</time>
      </trkpt>
      <trkpt lat="45.94869" lon="4.39003">
        <ele>806.6</ele>
        <time>2025-09-09T11:34:52Z</time>
      </trkpt>
      <trkpt lat="45.94868" lon="4.39004">
        <ele>806.6</ele>
        <time>2025-09-09T11:34:53Z</time>
      </trkpt>
      <trkpt lat="45.94867" lon="4.39004">
        <ele>806.8</ele>
        <time>2025-09-09T11:34:54Z</time>
      </trkpt>
      <trkpt lat="45.94866" lon="4.39004">
        <ele>806.8</ele>
        <time>2025-09-09T11:34:55Z</time>
      </trkpt>
      <trkpt lat="45.94864" lon="4.39004">
        <ele>806.8</ele>
        <time>2025-09-09T11:34:56Z</time>
      </trkpt>
      <trkpt lat="45.94863" lon="4.39003">
        <ele>806.8</ele>
        <time>2025-09-09T11:34:57Z</time>
      </trkpt>
      <trkpt lat="45.94862" lon="4.39003">
        <ele>807</ele>
        <time>2025-09-09T11:34:58Z</time>
      </trkpt>
      <trkpt lat="45.94861" lon="4.39002">
        <ele>807.2</ele>
        <time>2025-09-09T11:34:59Z</time>
      </trkpt>
      <trkpt lat="45.9486" lon="4.39002">
        <ele>807.4</ele>
        <time>2025-09-09T11:35:00Z</time>
      </trkpt>
      <trkpt lat="45.94859" lon="4.39002">
        <ele>807.4</ele>
        <time>2025-09-09T11:35:01Z</time>
      </trkpt>
      <trkpt lat="45.94857" lon="4.39001">
        <ele>807.8</ele>
        <time>2025-09-09T11:35:02Z</time>
      </trkpt>
      <trkpt lat="45.94856" lon="4.39001">
        <ele>808</ele>
        <time>2025-09-09T11:35:03Z</time>
      </trkpt>
      <trkpt lat="45.94855" lon="4.39001">
        <ele>808</ele>
        <time>2025-09-09T11:35:04Z</time>
      </trkpt>
      <trkpt lat="45.94853" lon="4.39001">
        <ele>807.8</ele>
        <time>2025-09-09T11:35:05Z</time>
      </trkpt>
      <trkpt lat="45.94851" lon="4.39001">
        <ele>807.8</ele>
        <time>2025-09-09T11:35:06Z</time>
      </trkpt>
      <trkpt lat="45.9485" lon="4.39002">
        <ele>807.8</ele>
        <time>2025-09-09T11:35:07Z</time>
      </trkpt>
      <trkpt lat="45.94849" lon="4.39002">
        <ele>807.8</ele>
        <time>2025-09-09T11:35:08Z</time>
      </trkpt>
      <trkpt lat="45.94847" lon="4.39003">
        <ele>808</ele>
        <time>2025-09-09T11:35:09Z</time>
      </trkpt>
      <trkpt lat="45.94846" lon="4.39003">
        <ele>808</ele>
        <time>2025-09-09T11:35:10Z</time>
      </trkpt>
      <trkpt lat="45.94845" lon="4.39003">
        <ele>808</ele>
        <time>2025-09-09T11:35:11Z</time>
      </trkpt>
      <trkpt lat="45.94843" lon="4.39003">
        <ele>808.2</ele>
        <time>2025-09-09T11:35:12Z</time>
      </trkpt>
      <trkpt lat="45.94842" lon="4.39004">
        <ele>808.2</ele>
        <time>2025-09-09T11:35:13Z</time>
      </trkpt>
      <trkpt lat="45.94841" lon="4.39003">
        <ele>808.4</ele>
        <time>2025-09-09T11:35:14Z</time>
      </trkpt>
      <trkpt lat="45.94839" lon="4.39003">
        <ele>808.4</ele>
        <time>2025-09-09T11:35:15Z</time>
      </trkpt>
      <trkpt lat="45.94837" lon="4.39004">
        <ele>808.6</ele>
        <time>2025-09-09T11:35:16Z</time>
      </trkpt>
      <trkpt lat="45.94836" lon="4.39003">
        <ele>808.6</ele>
        <time>2025-09-09T11:35:17Z</time>
      </trkpt>
      <trkpt lat="45.94834" lon="4.39003">
        <ele>808.6</ele>
        <time>2025-09-09T11:35:18Z</time>
      </trkpt>
      <trkpt lat="45.94833" lon="4.39002">
        <ele>809.2</ele>
        <time>2025-09-09T11:35:19Z</time>
      </trkpt>
      <trkpt lat="45.94832" lon="4.39002">
        <ele>809.2</ele>
        <time>2025-09-09T11:35:20Z</time>
      </trkpt>
      <trkpt lat="45.9483" lon="4.39003">
        <ele>809.6</ele>
        <time>2025-09-09T11:35:21Z</time>
      </trkpt>
      <trkpt lat="45.94829" lon="4.39002">
        <ele>809.6</ele>
        <time>2025-09-09T11:35:22Z</time>
      </trkpt>
      <trkpt lat="45.94827" lon="4.39001">
        <ele>809.8</ele>
        <time>2025-09-09T11:35:23Z</time>
      </trkpt>
      <trkpt lat="45.94826" lon="4.39">
        <ele>809.8</ele>
        <time>2025-09-09T11:35:24Z</time>
      </trkpt>
      <trkpt lat="45.94824" lon="4.39">
        <ele>810.2</ele>
        <time>2025-09-09T11:35:25Z</time>
      </trkpt>
      <trkpt lat="45.94822" lon="4.39">
        <ele>810.2</ele>
        <time>2025-09-09T11:35:26Z</time>
      </trkpt>
      <trkpt lat="45.94821" lon="4.38999">
        <ele>810.2</ele>
        <time>2025-09-09T11:35:27Z</time>
      </trkpt>
      <trkpt lat="45.94819" lon="4.38999">
        <ele>810.2</ele>
        <time>2025-09-09T11:35:28Z</time>
      </trkpt>
      <trkpt lat="45.94818" lon="4.38999">
        <ele>810.4</ele>
        <time>2025-09-09T11:35:29Z</time>
      </trkpt>
      <trkpt lat="45.94817" lon="4.38999">
        <ele>810.8</ele>
        <time>2025-09-09T11:35:30Z</time>
      </trkpt>
      <trkpt lat="45.94816" lon="4.38998">
        <ele>810.8</ele>
        <time>2025-09-09T11:35:31Z</time>
      </trkpt>
      <trkpt lat="45.94815" lon="4.38997">
        <ele>811</ele>
        <time>2025-09-09T11:35:32Z</time>
      </trkpt>
      <trkpt lat="45.94814" lon="4.38997">
        <ele>811</ele>
        <time>2025-09-09T11:35:33Z</time>
      </trkpt>
      <trkpt lat="45.94813" lon="4.38996">
        <ele>811.4</ele>
        <time>2025-09-09T11:35:34Z</time>
      </trkpt>
      <trkpt lat="45.94812" lon="4.38997">
        <ele>811.4</ele>
        <time>2025-09-09T11:35:35Z</time>
      </trkpt>
      <trkpt lat="45.94811" lon="4.38997">
        <ele>811.8</ele>
        <time>2025-09-09T11:35:36Z</time>
      </trkpt>
      <trkpt lat="45.9481" lon="4.38998">
        <ele>811.8</ele>
        <time>2025-09-09T11:35:37Z</time>
      </trkpt>
      <trkpt lat="45.94808" lon="4.38998">
        <ele>812</ele>
        <time>2025-09-09T11:35:38Z</time>
      </trkpt>
      <trkpt lat="45.94807" lon="4.38998">
        <ele>812</ele>
        <time>2025-09-09T11:35:39Z</time>
      </trkpt>
      <trkpt lat="45.94807" lon="4.38999">
        <ele>812</ele>
        <time>2025-09-09T11:35:40Z</time>
      </trkpt>
      <trkpt lat="45.94806" lon="4.39">
        <ele>812.2</ele>
        <time>2025-09-09T11:35:41Z</time>
      </trkpt>
      <trkpt lat="45.94805" lon="4.39">
        <ele>812.6</ele>
        <time>2025-09-09T11:35:42Z</time>
      </trkpt>
      <trkpt lat="45.94804" lon="4.38999">
        <ele>812.6</ele>
        <time>2025-09-09T11:35:43Z</time>
      </trkpt>
      <trkpt lat="45.94802" lon="4.38999">
        <ele>812.6</ele>
        <time>2025-09-09T11:35:44Z</time>
      </trkpt>
      <trkpt lat="45.94801" lon="4.38999">
        <ele>812.8</ele>
        <time>2025-09-09T11:35:45Z</time>
      </trkpt>
      <trkpt lat="45.948" lon="4.38999">
        <ele>813</ele>
        <time>2025-09-09T11:35:46Z</time>
      </trkpt>
      <trkpt lat="45.94799" lon="4.38999">
        <ele>813</ele>
        <time>2025-09-09T11:35:47Z</time>
      </trkpt>
      <trkpt lat="45.94797" lon="4.38999">
        <ele>813</ele>
        <time>2025-09-09T11:35:48Z</time>
      </trkpt>
      <trkpt lat="45.94796" lon="4.38999">
        <ele>813.4</ele>
        <time>2025-09-09T11:35:49Z</time>
      </trkpt>
      <trkpt lat="45.94794" lon="4.38998">
        <ele>813.4</ele>
        <time>2025-09-09T11:35:50Z</time>
      </trkpt>
      <trkpt lat="45.94793" lon="4.38998">
        <ele>813.4</ele>
        <time>2025-09-09T11:35:51Z</time>
      </trkpt>
      <trkpt lat="45.94792" lon="4.38998">
        <ele>813.4</ele>
        <time>2025-09-09T11:35:52Z</time>
      </trkpt>
      <trkpt lat="45.94791" lon="4.38998">
        <ele>813.4</ele>
        <time>2025-09-09T11:35:53Z</time>
      </trkpt>
      <trkpt lat="45.9479" lon="4.38997">
        <ele>813.6</ele>
        <time>2025-09-09T11:35:54Z</time>
      </trkpt>
      <trkpt lat="45.94788" lon="4.38997">
        <ele>813.6</ele>
        <time>2025-09-09T11:35:55Z</time>
      </trkpt>
      <trkpt lat="45.94788" lon="4.38998">
        <ele>814</ele>
        <time>2025-09-09T11:35:56Z</time>
      </trkpt>
      <trkpt lat="45.94787" lon="4.38997">
        <ele>814.2</ele>
        <time>2025-09-09T11:35:57Z</time>
      </trkpt>
      <trkpt lat="45.94785" lon="4.38998">
        <ele>814.2</ele>
        <time>2025-09-09T11:35:58Z</time>
      </trkpt>
      <trkpt lat="45.94784" lon="4.38998">
        <ele>814.2</ele>
        <time>2025-09-09T11:35:59Z</time>
      </trkpt>
      <trkpt lat="45.94782" lon="4.38998">
        <ele>814.6</ele>
        <time>2025-09-09T11:36:00Z</time>
      </trkpt>
      <trkpt lat="45.94782" lon="4.38998">
        <ele>814.6</ele>
        <time>2025-09-09T11:36:01Z</time>
      </trkpt>
      <trkpt lat="45.94782" lon="4.38998">
        <ele>814.8</ele>
        <time>2025-09-09T11:36:02Z</time>
      </trkpt>
      <trkpt lat="45.94777" lon="4.38996">
        <ele>814.8</ele>
        <time>2025-09-09T11:36:04Z</time>
      </trkpt>
      <trkpt lat="45.94776" lon="4.38995">
        <ele>815.2</ele>
        <time>2025-09-09T11:36:05Z</time>
      </trkpt>
      <trkpt lat="45.94774" lon="4.38995">
        <ele>815.2</ele>
        <time>2025-09-09T11:36:06Z</time>
      </trkpt>
      <trkpt lat="45.94773" lon="4.38994">
        <ele>815.6</ele>
        <time>2025-09-09T11:36:07Z</time>
      </trkpt>
      <trkpt lat="45.94772" lon="4.38994">
        <ele>815.8</ele>
        <time>2025-09-09T11:36:08Z</time>
      </trkpt>
      <trkpt lat="45.94771" lon="4.38993">
        <ele>816</ele>
        <time>2025-09-09T11:36:09Z</time>
      </trkpt>
      <trkpt lat="45.9477" lon="4.38993">
        <ele>816</ele>
        <time>2025-09-09T11:36:10Z</time>
      </trkpt>
      <trkpt lat="45.94769" lon="4.38992">
        <ele>816.2</ele>
        <time>2025-09-09T11:36:11Z</time>
      </trkpt>
      <trkpt lat="45.94767" lon="4.38991">
        <ele>816.6</ele>
        <time>2025-09-09T11:36:12Z</time>
      </trkpt>
      <trkpt lat="45.94766" lon="4.38991">
        <ele>816.6</ele>
        <time>2025-09-09T11:36:13Z</time>
      </trkpt>
      <trkpt lat="45.94765" lon="4.38991">
        <ele>816.8</ele>
        <time>2025-09-09T11:36:14Z</time>
      </trkpt>
      <trkpt lat="45.94763" lon="4.38992">
        <ele>816.8</ele>
        <time>2025-09-09T11:36:15Z</time>
      </trkpt>
      <trkpt lat="45.94762" lon="4.38993">
        <ele>816.8</ele>
        <time>2025-09-09T11:36:16Z</time>
      </trkpt>
      <trkpt lat="45.94761" lon="4.38994">
        <ele>816.8</ele>
        <time>2025-09-09T11:36:17Z</time>
      </trkpt>
      <trkpt lat="45.9476" lon="4.38993">
        <ele>817.2</ele>
        <time>2025-09-09T11:36:18Z</time>
      </trkpt>
      <trkpt lat="45.94758" lon="4.38992">
        <ele>817.6</ele>
        <time>2025-09-09T11:36:19Z</time>
      </trkpt>
      <trkpt lat="45.94757" lon="4.38992">
        <ele>817</ele>
        <time>2025-09-09T11:36:20Z</time>
      </trkpt>
      <trkpt lat="45.94757" lon="4.38992">
        <ele>817.2</ele>
        <time>2025-09-09T11:36:21Z</time>
      </trkpt>
      <trkpt lat="45.94756" lon="4.38992">
        <ele>817.2</ele>
        <time>2025-09-09T11:36:22Z</time>
      </trkpt>
      <trkpt lat="45.94755" lon="4.38992">
        <ele>817.6</ele>
        <time>2025-09-09T11:36:23Z</time>
      </trkpt>
      <trkpt lat="45.94752" lon="4.38991">
        <ele>817.6</ele>
        <time>2025-09-09T11:36:24Z</time>
      </trkpt>
      <trkpt lat="45.94752" lon="4.3899">
        <ele>817.2</ele>
        <time>2025-09-09T11:36:25Z</time>
      </trkpt>
      <trkpt lat="45.94751" lon="4.38989">
        <ele>817.8</ele>
        <time>2025-09-09T11:36:26Z</time>
      </trkpt>
      <trkpt lat="45.94751" lon="4.38988">
        <ele>818.2</ele>
        <time>2025-09-09T11:36:27Z</time>
      </trkpt>
      <trkpt lat="45.9475" lon="4.38987">
        <ele>818.2</ele>
        <time>2025-09-09T11:36:28Z</time>
      </trkpt>
      <trkpt lat="45.94749" lon="4.38985">
        <ele>818.2</ele>
        <time>2025-09-09T11:36:29Z</time>
      </trkpt>
      <trkpt lat="45.94748" lon="4.38984">
        <ele>818.4</ele>
        <time>2025-09-09T11:36:30Z</time>
      </trkpt>
      <trkpt lat="45.94748" lon="4.38982">
        <ele>818.4</ele>
        <time>2025-09-09T11:36:31Z</time>
      </trkpt>
      <trkpt lat="45.94748" lon="4.38981">
        <ele>818.6</ele>
        <time>2025-09-09T11:36:32Z</time>
      </trkpt>
      <trkpt lat="45.94747" lon="4.3898">
        <ele>818.8</ele>
        <time>2025-09-09T11:36:33Z</time>
      </trkpt>
      <trkpt lat="45.94746" lon="4.38978">
        <ele>818.8</ele>
        <time>2025-09-09T11:36:34Z</time>
      </trkpt>
      <trkpt lat="45.94745" lon="4.38976">
        <ele>818.8</ele>
        <time>2025-09-09T11:36:35Z</time>
      </trkpt>
      <trkpt lat="45.94744" lon="4.38974">
        <ele>818.8</ele>
        <time>2025-09-09T11:36:36Z</time>
      </trkpt>
      <trkpt lat="45.94743" lon="4.38972">
        <ele>818.8</ele>
        <time>2025-09-09T11:36:37Z</time>
      </trkpt>
      <trkpt lat="45.94742" lon="4.38971">
        <ele>818.8</ele>
        <time>2025-09-09T11:36:38Z</time>
      </trkpt>
      <trkpt lat="45.94741" lon="4.3897">
        <ele>818.8</ele>
        <time>2025-09-09T11:36:39Z</time>
      </trkpt>
      <trkpt lat="45.9474" lon="4.38969">
        <ele>818.8</ele>
        <time>2025-09-09T11:36:40Z</time>
      </trkpt>
      <trkpt lat="45.94739" lon="4.38967">
        <ele>818.8</ele>
        <time>2025-09-09T11:36:41Z</time>
      </trkpt>
      <trkpt lat="45.94739" lon="4.38966">
        <ele>819.2</ele>
        <time>2025-09-09T11:36:42Z</time>
      </trkpt>
      <trkpt lat="45.94739" lon="4.38964">
        <ele>819.2</ele>
        <time>2025-09-09T11:36:43Z</time>
      </trkpt>
      <trkpt lat="45.94738" lon="4.38962">
        <ele>819.6</ele>
        <time>2025-09-09T11:36:44Z</time>
      </trkpt>
      <trkpt lat="45.94737" lon="4.38962">
        <ele>819.6</ele>
        <time>2025-09-09T11:36:45Z</time>
      </trkpt>
      <trkpt lat="45.94737" lon="4.38961">
        <ele>819.6</ele>
        <time>2025-09-09T11:36:46Z</time>
      </trkpt>
      <trkpt lat="45.94736" lon="4.38962">
        <ele>819.8</ele>
        <time>2025-09-09T11:36:47Z</time>
      </trkpt>
      <trkpt lat="45.94736" lon="4.38962">
        <ele>819.8</ele>
        <time>2025-09-09T11:36:48Z</time>
      </trkpt>
      <trkpt lat="45.94734" lon="4.3896">
        <ele>820.4</ele>
        <time>2025-09-09T11:36:56Z</time>
      </trkpt>
      <trkpt lat="45.94733" lon="4.3896">
        <ele>820.4</ele>
        <time>2025-09-09T11:36:57Z</time>
      </trkpt>
      <trkpt lat="45.94733" lon="4.38959">
        <ele>820.4</ele>
        <time>2025-09-09T11:36:58Z</time>
      </trkpt>
      <trkpt lat="45.94733" lon="4.38959">
        <ele>820.4</ele>
        <time>2025-09-09T11:36:59Z</time>
      </trkpt>
      <trkpt lat="45.94733" lon="4.38959">
        <ele>820.6</ele>
        <time>2025-09-09T11:37:00Z</time>
      </trkpt>
      <trkpt lat="45.94734" lon="4.38958">
        <ele>820.6</ele>
        <time>2025-09-09T11:37:01Z</time>
      </trkpt>
      <trkpt lat="45.94734" lon="4.38958">
        <ele>820.6</ele>
        <time>2025-09-09T11:37:02Z</time>
      </trkpt>
      <trkpt lat="45.94733" lon="4.38956">
        <ele>821.6</ele>
        <time>2025-09-09T11:37:21Z</time>
      </trkpt>
      <trkpt lat="45.94732" lon="4.38955">
        <ele>821.6</ele>
        <time>2025-09-09T11:37:22Z</time>
      </trkpt>
      <trkpt lat="45.94731" lon="4.38955">
        <ele>821.6</ele>
        <time>2025-09-09T11:37:23Z</time>
      </trkpt>
      <trkpt lat="45.94731" lon="4.38955">
        <ele>821.6</ele>
        <time>2025-09-09T11:37:24Z</time>
      </trkpt>
      <trkpt lat="45.94731" lon="4.38955">
        <ele>821.6</ele>
        <time>2025-09-09T11:37:25Z</time>
      </trkpt>
      <trkpt lat="45.9473" lon="4.38955">
        <ele>821.6</ele>
        <time>2025-09-09T11:37:26Z</time>
      </trkpt>
      <trkpt lat="45.94731" lon="4.38955">
        <ele>821.6</ele>
        <time>2025-09-09T11:37:27Z</time>
      </trkpt>
      <trkpt lat="45.94731" lon="4.38956">
        <ele>821.8</ele>
        <time>2025-09-09T11:37:30Z</time>
      </trkpt>
      <trkpt lat="45.94732" lon="4.38956">
        <ele>821.8</ele>
        <time>2025-09-09T11:37:31Z</time>
      </trkpt>
      <trkpt lat="45.94732" lon="4.38954">
        <ele>821.6</ele>
        <time>2025-09-09T11:37:38Z</time>
      </trkpt>
      <trkpt lat="45.94731" lon="4.38953">
        <ele>821.6</ele>
        <time>2025-09-09T11:37:39Z</time>
      </trkpt>
      <trkpt lat="45.9473" lon="4.38951">
        <ele>821.8</ele>
        <time>2025-09-09T11:37:40Z</time>
      </trkpt>
      <trkpt lat="45.94729" lon="4.3895">
        <ele>821.8</ele>
        <time>2025-09-09T11:37:41Z</time>
      </trkpt>
      <trkpt lat="45.94728" lon="4.38948">
        <ele>822.2</ele>
        <time>2025-09-09T11:37:42Z</time>
      </trkpt>
      <trkpt lat="45.94727" lon="4.38946">
        <ele>822.2</ele>
        <time>2025-09-09T11:37:43Z</time>
      </trkpt>
      <trkpt lat="45.94726" lon="4.38944">
        <ele>822.6</ele>
        <time>2025-09-09T11:37:44Z</time>
      </trkpt>
      <trkpt lat="45.94725" lon="4.38942">
        <ele>822.6</ele>
        <time>2025-09-09T11:37:45Z</time>
      </trkpt>
      <trkpt lat="45.94723" lon="4.3894">
        <ele>822.6</ele>
        <time>2025-09-09T11:37:46Z</time>
      </trkpt>
      <trkpt lat="45.94722" lon="4.38938">
        <ele>822.6</ele>
        <time>2025-09-09T11:37:47Z</time>
      </trkpt>
      <trkpt lat="45.94721" lon="4.38936">
        <ele>823</ele>
        <time>2025-09-09T11:37:48Z</time>
      </trkpt>
      <trkpt lat="45.9472" lon="4.38934">
        <ele>823.2</ele>
        <time>2025-09-09T11:37:49Z</time>
      </trkpt>
      <trkpt lat="45.94719" lon="4.38932">
        <ele>823.2</ele>
        <time>2025-09-09T11:37:50Z</time>
      </trkpt>
      <trkpt lat="45.94717" lon="4.3893">
        <ele>823.2</ele>
        <time>2025-09-09T11:37:51Z</time>
      </trkpt>
      <trkpt lat="45.94716" lon="4.38928">
        <ele>823.4</ele>
        <time>2025-09-09T11:37:52Z</time>
      </trkpt>
      <trkpt lat="45.94715" lon="4.38927">
        <ele>823.8</ele>
        <time>2025-09-09T11:37:53Z</time>
      </trkpt>
      <trkpt lat="45.94714" lon="4.38925">
        <ele>824.2</ele>
        <time>2025-09-09T11:37:54Z</time>
      </trkpt>
      <trkpt lat="45.94713" lon="4.38923">
        <ele>824.4</ele>
        <time>2025-09-09T11:37:55Z</time>
      </trkpt>
      <trkpt lat="45.94712" lon="4.38921">
        <ele>824.6</ele>
        <time>2025-09-09T11:37:56Z</time>
      </trkpt>
      <trkpt lat="45.94711" lon="4.3892">
        <ele>825</ele>
        <time>2025-09-09T11:37:57Z</time>
      </trkpt>
      <trkpt lat="45.94711" lon="4.38919">
        <ele>825</ele>
        <time>2025-09-09T11:37:58Z</time>
      </trkpt>
      <trkpt lat="45.9471" lon="4.38917">
        <ele>825.4</ele>
        <time>2025-09-09T11:37:59Z</time>
      </trkpt>
      <trkpt lat="45.94709" lon="4.38915">
        <ele>825.4</ele>
        <time>2025-09-09T11:38:00Z</time>
      </trkpt>
      <trkpt lat="45.94709" lon="4.38914">
        <ele>826</ele>
        <time>2025-09-09T11:38:01Z</time>
      </trkpt>
      <trkpt lat="45.94708" lon="4.38912">
        <ele>826.2</ele>
        <time>2025-09-09T11:38:02Z</time>
      </trkpt>
      <trkpt lat="45.94707" lon="4.38911">
        <ele>826.2</ele>
        <time>2025-09-09T11:38:03Z</time>
      </trkpt>
      <trkpt lat="45.94707" lon="4.3891">
        <ele>826.6</ele>
        <time>2025-09-09T11:38:04Z</time>
      </trkpt>
      <trkpt lat="45.94706" lon="4.38909">
        <ele>826.6</ele>
        <time>2025-09-09T11:38:05Z</time>
      </trkpt>
      <trkpt lat="45.94705" lon="4.38907">
        <ele>827</ele>
        <time>2025-09-09T11:38:06Z</time>
      </trkpt>
      <trkpt lat="45.94705" lon="4.38905">
        <ele>827.6</ele>
        <time>2025-09-09T11:38:07Z</time>
      </trkpt>
      <trkpt lat="45.94705" lon="4.38903">
        <ele>827.6</ele>
        <time>2025-09-09T11:38:08Z</time>
      </trkpt>
      <trkpt lat="45.94704" lon="4.38902">
        <ele>828</ele>
        <time>2025-09-09T11:38:09Z</time>
      </trkpt>
      <trkpt lat="45.94704" lon="4.389">
        <ele>828.2</ele>
        <time>2025-09-09T11:38:10Z</time>
      </trkpt>
      <trkpt lat="45.94704" lon="4.38899">
        <ele>828.2</ele>
        <time>2025-09-09T11:38:11Z</time>
      </trkpt>
      <trkpt lat="45.94704" lon="4.38897">
        <ele>828.6</ele>
        <time>2025-09-09T11:38:12Z</time>
      </trkpt>
      <trkpt lat="45.94704" lon="4.38895">
        <ele>828.6</ele>
        <time>2025-09-09T11:38:13Z</time>
      </trkpt>
      <trkpt lat="45.94703" lon="4.38894">
        <ele>829</ele>
        <time>2025-09-09T11:38:14Z</time>
      </trkpt>
      <trkpt lat="45.94702" lon="4.38892">
        <ele>829</ele>
        <time>2025-09-09T11:38:15Z</time>
      </trkpt>
      <trkpt lat="45.94702" lon="4.38891">
        <ele>829.6</ele>
        <time>2025-09-09T11:38:16Z</time>
      </trkpt>
      <trkpt lat="45.94701" lon="4.3889">
        <ele>829.6</ele>
        <time>2025-09-09T11:38:17Z</time>
      </trkpt>
      <trkpt lat="45.94701" lon="4.38888">
        <ele>829.8</ele>
        <time>2025-09-09T11:38:18Z</time>
      </trkpt>
      <trkpt lat="45.947" lon="4.38887">
        <ele>829.8</ele>
        <time>2025-09-09T11:38:19Z</time>
      </trkpt>
      <trkpt lat="45.947" lon="4.38885">
        <ele>830</ele>
        <time>2025-09-09T11:38:20Z</time>
      </trkpt>
      <trkpt lat="45.94699" lon="4.38884">
        <ele>830.4</ele>
        <time>2025-09-09T11:38:21Z</time>
      </trkpt>
      <trkpt lat="45.94698" lon="4.38883">
        <ele>830.4</ele>
        <time>2025-09-09T11:38:22Z</time>
      </trkpt>
      <trkpt lat="45.94698" lon="4.38883">
        <ele>830.4</ele>
        <time>2025-09-09T11:38:23Z</time>
      </trkpt>
      <trkpt lat="45.94698" lon="4.38883">
        <ele>830.6</ele>
        <time>2025-09-09T11:38:24Z</time>
      </trkpt>
      <trkpt lat="45.94698" lon="4.38882">
        <ele>830.6</ele>
        <time>2025-09-09T11:38:39Z</time>
      </trkpt>
      <trkpt lat="45.94697" lon="4.38881">
        <ele>830.6</ele>
        <time>2025-09-09T11:38:40Z</time>
      </trkpt>
      <trkpt lat="45.94697" lon="4.3888">
        <ele>830.6</ele>
        <time>2025-09-09T11:38:41Z</time>
      </trkpt>
      <trkpt lat="45.94697" lon="4.38878">
        <ele>830.8</ele>
        <time>2025-09-09T11:38:42Z</time>
      </trkpt>
      <trkpt lat="45.94697" lon="4.38877">
        <ele>830.8</ele>
        <time>2025-09-09T11:38:43Z</time>
      </trkpt>
      <trkpt lat="45.94696" lon="4.38876">
        <ele>831</ele>
        <time>2025-09-09T11:38:44Z</time>
      </trkpt>
      <trkpt lat="45.94696" lon="4.38875">
        <ele>831</ele>
        <time>2025-09-09T11:38:45Z</time>
      </trkpt>
      <trkpt lat="45.94695" lon="4.38874">
        <ele>831.4</ele>
        <time>2025-09-09T11:38:46Z</time>
      </trkpt>
      <trkpt lat="45.94695" lon="4.38873">
        <ele>831.4</ele>
        <time>2025-09-09T11:38:47Z</time>
      </trkpt>
      <trkpt lat="45.94695" lon="4.38873">
        <ele>831.4</ele>
        <time>2025-09-09T11:38:48Z</time>
      </trkpt>
      <trkpt lat="45.94694" lon="4.38872">
        <ele>831.8</ele>
        <time>2025-09-09T11:38:49Z</time>
      </trkpt>
      <trkpt lat="45.94694" lon="4.38871">
        <ele>831.8</ele>
        <time>2025-09-09T11:38:50Z</time>
      </trkpt>
      <trkpt lat="45.94694" lon="4.3887">
        <ele>831.8</ele>
        <time>2025-09-09T11:38:51Z</time>
      </trkpt>
      <trkpt lat="45.94693" lon="4.38869">
        <ele>831.8</ele>
        <time>2025-09-09T11:38:52Z</time>
      </trkpt>
      <trkpt lat="45.94693" lon="4.38868">
        <ele>832</ele>
        <time>2025-09-09T11:38:53Z</time>
      </trkpt>
      <trkpt lat="45.94693" lon="4.38867">
        <ele>832</ele>
        <time>2025-09-09T11:38:54Z</time>
      </trkpt>
      <trkpt lat="45.94692" lon="4.38866">
        <ele>832</ele>
        <time>2025-09-09T11:38:55Z</time>
      </trkpt>
      <trkpt lat="45.94692" lon="4.38864">
        <ele>832</ele>
        <time>2025-09-09T11:38:56Z</time>
      </trkpt>
      <trkpt lat="45.94692" lon="4.38863">
        <ele>832.4</ele>
        <time>2025-09-09T11:38:57Z</time>
      </trkpt>
      <trkpt lat="45.94691" lon="4.38862">
        <ele>832.4</ele>
        <time>2025-09-09T11:38:58Z</time>
      </trkpt>
      <trkpt lat="45.94691" lon="4.38861">
        <ele>832.6</ele>
        <time>2025-09-09T11:38:59Z</time>
      </trkpt>
      <trkpt lat="45.94691" lon="4.3886">
        <ele>832.6</ele>
        <time>2025-09-09T11:39:00Z</time>
      </trkpt>
      <trkpt lat="45.94691" lon="4.38859">
        <ele>832.8</ele>
        <time>2025-09-09T11:39:01Z</time>
      </trkpt>
      <trkpt lat="45.94691" lon="4.38858">
        <ele>832.8</ele>
        <time>2025-09-09T11:39:02Z</time>
      </trkpt>
      <trkpt lat="45.9469" lon="4.38857">
        <ele>833</ele>
        <time>2025-09-09T11:39:03Z</time>
      </trkpt>
      <trkpt lat="45.9469" lon="4.38856">
        <ele>833</ele>
        <time>2025-09-09T11:39:04Z</time>
      </trkpt>
      <trkpt lat="45.94689" lon="4.38855">
        <ele>833</ele>
        <time>2025-09-09T11:39:05Z</time>
      </trkpt>
      <trkpt lat="45.94689" lon="4.38853">
        <ele>833.4</ele>
        <time>2025-09-09T11:39:06Z</time>
      </trkpt>
      <trkpt lat="45.94689" lon="4.38852">
        <ele>833.4</ele>
        <time>2025-09-09T11:39:07Z</time>
      </trkpt>
      <trkpt lat="45.94688" lon="4.38851">
        <ele>833.4</ele>
        <time>2025-09-09T11:39:08Z</time>
      </trkpt>
      <trkpt lat="45.94688" lon="4.3885">
        <ele>833.4</ele>
        <time>2025-09-09T11:39:09Z</time>
      </trkpt>
      <trkpt lat="45.94687" lon="4.38849">
        <ele>833.4</ele>
        <time>2025-09-09T11:39:10Z</time>
      </trkpt>
      <trkpt lat="45.94687" lon="4.38848">
        <ele>833.6</ele>
        <time>2025-09-09T11:39:11Z</time>
      </trkpt>
      <trkpt lat="45.94686" lon="4.38847">
        <ele>834</ele>
        <time>2025-09-09T11:39:12Z</time>
      </trkpt>
      <trkpt lat="45.94686" lon="4.38846">
        <ele>834.2</ele>
        <time>2025-09-09T11:39:13Z</time>
      </trkpt>
      <trkpt lat="45.94685" lon="4.38845">
        <ele>834.6</ele>
        <time>2025-09-09T11:39:14Z</time>
      </trkpt>
      <trkpt lat="45.94685" lon="4.38845">
        <ele>834.6</ele>
        <time>2025-09-09T11:39:15Z</time>
      </trkpt>
      <trkpt lat="45.94684" lon="4.38843">
        <ele>834.6</ele>
        <time>2025-09-09T11:39:16Z</time>
      </trkpt>
      <trkpt lat="45.94684" lon="4.38842">
        <ele>834.8</ele>
        <time>2025-09-09T11:39:17Z</time>
      </trkpt>
      <trkpt lat="45.94684" lon="4.38842">
        <ele>835</ele>
        <time>2025-09-09T11:39:18Z</time>
      </trkpt>
      <trkpt lat="45.94683" lon="4.38841">
        <ele>835.4</ele>
        <time>2025-09-09T11:39:19Z</time>
      </trkpt>
      <trkpt lat="45.94683" lon="4.3884">
        <ele>835.4</ele>
        <time>2025-09-09T11:39:20Z</time>
      </trkpt>
      <trkpt lat="45.94682" lon="4.3884">
        <ele>835.8</ele>
        <time>2025-09-09T11:39:21Z</time>
      </trkpt>
      <trkpt lat="45.94682" lon="4.38839">
        <ele>835.8</ele>
        <time>2025-09-09T11:39:22Z</time>
      </trkpt>
      <trkpt lat="45.94681" lon="4.38838">
        <ele>836.2</ele>
        <time>2025-09-09T11:39:23Z</time>
      </trkpt>
      <trkpt lat="45.94681" lon="4.38837">
        <ele>836.2</ele>
        <time>2025-09-09T11:39:24Z</time>
      </trkpt>
      <trkpt lat="45.9468" lon="4.38836">
        <ele>836.4</ele>
        <time>2025-09-09T11:39:25Z</time>
      </trkpt>
      <trkpt lat="45.9468" lon="4.38835">
        <ele>836.4</ele>
        <time>2025-09-09T11:39:26Z</time>
      </trkpt>
      <trkpt lat="45.9468" lon="4.38834">
        <ele>836.4</ele>
        <time>2025-09-09T11:39:27Z</time>
      </trkpt>
      <trkpt lat="45.94679" lon="4.38833">
        <ele>836.6</ele>
        <time>2025-09-09T11:39:28Z</time>
      </trkpt>
      <trkpt lat="45.94679" lon="4.38832">
        <ele>836.6</ele>
        <time>2025-09-09T11:39:29Z</time>
      </trkpt>
      <trkpt lat="45.94678" lon="4.38832">
        <ele>837</ele>
        <time>2025-09-09T11:39:30Z</time>
      </trkpt>
      <trkpt lat="45.94678" lon="4.38831">
        <ele>837.2</ele>
        <time>2025-09-09T11:39:31Z</time>
      </trkpt>
      <trkpt lat="45.94677" lon="4.3883">
        <ele>837.2</ele>
        <time>2025-09-09T11:39:32Z</time>
      </trkpt>
      <trkpt lat="45.94677" lon="4.38829">
        <ele>837.2</ele>
        <time>2025-09-09T11:39:33Z</time>
      </trkpt>
      <trkpt lat="45.94676" lon="4.38829">
        <ele>837.2</ele>
        <time>2025-09-09T11:39:34Z</time>
      </trkpt>
      <trkpt lat="45.94676" lon="4.38828">
        <ele>837.2</ele>
        <time>2025-09-09T11:39:35Z</time>
      </trkpt>
      <trkpt lat="45.94675" lon="4.38827">
        <ele>837.6</ele>
        <time>2025-09-09T11:39:36Z</time>
      </trkpt>
      <trkpt lat="45.94675" lon="4.38827">
        <ele>837.6</ele>
        <time>2025-09-09T11:39:37Z</time>
      </trkpt>
      <trkpt lat="45.94675" lon="4.38826">
        <ele>838</ele>
        <time>2025-09-09T11:39:38Z</time>
      </trkpt>
      <trkpt lat="45.94674" lon="4.38825">
        <ele>838</ele>
        <time>2025-09-09T11:39:39Z</time>
      </trkpt>
      <trkpt lat="45.94674" lon="4.38824">
        <ele>838.2</ele>
        <time>2025-09-09T11:39:40Z</time>
      </trkpt>
      <trkpt lat="45.94673" lon="4.38823">
        <ele>838.4</ele>
        <time>2025-09-09T11:39:41Z</time>
      </trkpt>
      <trkpt lat="45.94672" lon="4.38822">
        <ele>838.4</ele>
        <time>2025-09-09T11:39:42Z</time>
      </trkpt>
      <trkpt lat="45.94672" lon="4.38821">
        <ele>838.8</ele>
        <time>2025-09-09T11:39:43Z</time>
      </trkpt>
      <trkpt lat="45.94671" lon="4.3882">
        <ele>838.8</ele>
        <time>2025-09-09T11:39:44Z</time>
      </trkpt>
      <trkpt lat="45.94671" lon="4.38819">
        <ele>838.8</ele>
        <time>2025-09-09T11:39:45Z</time>
      </trkpt>
      <trkpt lat="45.94671" lon="4.38819">
        <ele>839</ele>
        <time>2025-09-09T11:39:46Z</time>
      </trkpt>
      <trkpt lat="45.9467" lon="4.38818">
        <ele>839</ele>
        <time>2025-09-09T11:39:47Z</time>
      </trkpt>
      <trkpt lat="45.9467" lon="4.38817">
        <ele>839.2</ele>
        <time>2025-09-09T11:39:48Z</time>
      </trkpt>
      <trkpt lat="45.94669" lon="4.38816">
        <ele>839.2</ele>
        <time>2025-09-09T11:39:49Z</time>
      </trkpt>
      <trkpt lat="45.94669" lon="4.38816">
        <ele>839.4</ele>
        <time>2025-09-09T11:39:50Z</time>
      </trkpt>
      <trkpt lat="45.94668" lon="4.38815">
        <ele>839.4</ele>
        <time>2025-09-09T11:39:51Z</time>
      </trkpt>
      <trkpt lat="45.94667" lon="4.38815">
        <ele>839.8</ele>
        <time>2025-09-09T11:39:52Z</time>
      </trkpt>
      <trkpt lat="45.94667" lon="4.38814">
        <ele>839.8</ele>
        <time>2025-09-09T11:39:53Z</time>
      </trkpt>
      <trkpt lat="45.94666" lon="4.38813">
        <ele>840.2</ele>
        <time>2025-09-09T11:39:54Z</time>
      </trkpt>
      <trkpt lat="45.94666" lon="4.38813">
        <ele>840.2</ele>
        <time>2025-09-09T11:39:55Z</time>
      </trkpt>
      <trkpt lat="45.94665" lon="4.38812">
        <ele>840.2</ele>
        <time>2025-09-09T11:39:56Z</time>
      </trkpt>
      <trkpt lat="45.94664" lon="4.38811">
        <ele>840.4</ele>
        <time>2025-09-09T11:39:57Z</time>
      </trkpt>
      <trkpt lat="45.94664" lon="4.3881">
        <ele>840.4</ele>
        <time>2025-09-09T11:39:58Z</time>
      </trkpt>
      <trkpt lat="45.94663" lon="4.3881">
        <ele>840.4</ele>
        <time>2025-09-09T11:39:59Z</time>
      </trkpt>
      <trkpt lat="45.94662" lon="4.38809">
        <ele>840.6</ele>
        <time>2025-09-09T11:40:00Z</time>
      </trkpt>
      <trkpt lat="45.94662" lon="4.38809">
        <ele>840.6</ele>
        <time>2025-09-09T11:40:01Z</time>
      </trkpt>
      <trkpt lat="45.94661" lon="4.38808">
        <ele>840.6</ele>
        <time>2025-09-09T11:40:02Z</time>
      </trkpt>
      <trkpt lat="45.9466" lon="4.38807">
        <ele>840.6</ele>
        <time>2025-09-09T11:40:03Z</time>
      </trkpt>
      <trkpt lat="45.94659" lon="4.38806">
        <ele>841</ele>
        <time>2025-09-09T11:40:04Z</time>
      </trkpt>
      <trkpt lat="45.94658" lon="4.38806">
        <ele>841</ele>
        <time>2025-09-09T11:40:05Z</time>
      </trkpt>
      <trkpt lat="45.94657" lon="4.38805">
        <ele>841.4</ele>
        <time>2025-09-09T11:40:06Z</time>
      </trkpt>
      <trkpt lat="45.94656" lon="4.38804">
        <ele>841.4</ele>
        <time>2025-09-09T11:40:07Z</time>
      </trkpt>
      <trkpt lat="45.94655" lon="4.38804">
        <ele>841.8</ele>
        <time>2025-09-09T11:40:08Z</time>
      </trkpt>
      <trkpt lat="45.94654" lon="4.38804">
        <ele>841.8</ele>
        <time>2025-09-09T11:40:09Z</time>
      </trkpt>
      <trkpt lat="45.94653" lon="4.38803">
        <ele>842</ele>
        <time>2025-09-09T11:40:10Z</time>
      </trkpt>
      <trkpt lat="45.94652" lon="4.38802">
        <ele>842.4</ele>
        <time>2025-09-09T11:40:11Z</time>
      </trkpt>
      <trkpt lat="45.94652" lon="4.38802">
        <ele>842.6</ele>
        <time>2025-09-09T11:40:12Z</time>
      </trkpt>
      <trkpt lat="45.94651" lon="4.38802">
        <ele>842.6</ele>
        <time>2025-09-09T11:40:13Z</time>
      </trkpt>
      <trkpt lat="45.9465" lon="4.38802">
        <ele>842.6</ele>
        <time>2025-09-09T11:40:14Z</time>
      </trkpt>
      <trkpt lat="45.9465" lon="4.38802">
        <ele>842.8</ele>
        <time>2025-09-09T11:40:15Z</time>
      </trkpt>
      <trkpt lat="45.94649" lon="4.38802">
        <ele>842.8</ele>
        <time>2025-09-09T11:40:16Z</time>
      </trkpt>
      <trkpt lat="45.94649" lon="4.38802">
        <ele>843.2</ele>
        <time>2025-09-09T11:40:17Z</time>
      </trkpt>
      <trkpt lat="45.94648" lon="4.38802">
        <ele>842.8</ele>
        <time>2025-09-09T11:40:28Z</time>
      </trkpt>
      <trkpt lat="45.94646" lon="4.38801">
        <ele>843</ele>
        <time>2025-09-09T11:40:29Z</time>
      </trkpt>
      <trkpt lat="45.94645" lon="4.388">
        <ele>843</ele>
        <time>2025-09-09T11:40:30Z</time>
      </trkpt>
      <trkpt lat="45.94643" lon="4.38799">
        <ele>843.4</ele>
        <time>2025-09-09T11:40:31Z</time>
      </trkpt>
      <trkpt lat="45.94641" lon="4.38799">
        <ele>843.4</ele>
        <time>2025-09-09T11:40:32Z</time>
      </trkpt>
      <trkpt lat="45.9464" lon="4.38799">
        <ele>843.8</ele>
        <time>2025-09-09T11:40:33Z</time>
      </trkpt>
      <trkpt lat="45.94638" lon="4.38799">
        <ele>843.8</ele>
        <time>2025-09-09T11:40:34Z</time>
      </trkpt>
      <trkpt lat="45.94636" lon="4.38799">
        <ele>844</ele>
        <time>2025-09-09T11:40:35Z</time>
      </trkpt>
      <trkpt lat="45.94635" lon="4.38799">
        <ele>844</ele>
        <time>2025-09-09T11:40:36Z</time>
      </trkpt>
      <trkpt lat="45.94633" lon="4.38798">
        <ele>844</ele>
        <time>2025-09-09T11:40:37Z</time>
      </trkpt>
      <trkpt lat="45.94632" lon="4.38798">
        <ele>844.6</ele>
        <time>2025-09-09T11:40:38Z</time>
      </trkpt>
      <trkpt lat="45.94631" lon="4.38799">
        <ele>844.6</ele>
        <time>2025-09-09T11:40:39Z</time>
      </trkpt>
      <trkpt lat="45.9463" lon="4.38799">
        <ele>844.6</ele>
        <time>2025-09-09T11:40:40Z</time>
      </trkpt>
      <trkpt lat="45.94629" lon="4.38799">
        <ele>845</ele>
        <time>2025-09-09T11:40:41Z</time>
      </trkpt>
      <trkpt lat="45.94628" lon="4.38799">
        <ele>845</ele>
        <time>2025-09-09T11:40:42Z</time>
      </trkpt>
      <trkpt lat="45.94626" lon="4.38799">
        <ele>845.4</ele>
        <time>2025-09-09T11:40:43Z</time>
      </trkpt>
      <trkpt lat="45.94625" lon="4.38798">
        <ele>845.6</ele>
        <time>2025-09-09T11:40:44Z</time>
      </trkpt>
      <trkpt lat="45.94624" lon="4.38798">
        <ele>845.8</ele>
        <time>2025-09-09T11:40:45Z</time>
      </trkpt>
      <trkpt lat="45.94622" lon="4.38798">
        <ele>845.8</ele>
        <time>2025-09-09T11:40:46Z</time>
      </trkpt>
      <trkpt lat="45.94621" lon="4.38798">
        <ele>846</ele>
        <time>2025-09-09T11:40:47Z</time>
      </trkpt>
      <trkpt lat="45.94619" lon="4.38798">
        <ele>846.2</ele>
        <time>2025-09-09T11:40:48Z</time>
      </trkpt>
      <trkpt lat="45.94618" lon="4.38799">
        <ele>846.2</ele>
        <time>2025-09-09T11:40:49Z</time>
      </trkpt>
      <trkpt lat="45.94618" lon="4.388">
        <ele>846.6</ele>
        <time>2025-09-09T11:40:50Z</time>
      </trkpt>
      <trkpt lat="45.94617" lon="4.388">
        <ele>846.6</ele>
        <time>2025-09-09T11:40:51Z</time>
      </trkpt>
      <trkpt lat="45.94616" lon="4.388">
        <ele>846.8</ele>
        <time>2025-09-09T11:40:52Z</time>
      </trkpt>
      <trkpt lat="45.94616" lon="4.388">
        <ele>846.8</ele>
        <time>2025-09-09T11:40:53Z</time>
      </trkpt>
      <trkpt lat="45.94616" lon="4.388">
        <ele>846.8</ele>
        <time>2025-09-09T11:40:54Z</time>
      </trkpt>
      <trkpt lat="45.94616" lon="4.38799">
        <ele>846.8</ele>
        <time>2025-09-09T11:40:55Z</time>
      </trkpt>
      <trkpt lat="45.94617" lon="4.38799">
        <ele>846.8</ele>
        <time>2025-09-09T11:40:56Z</time>
      </trkpt>
      <trkpt lat="45.94618" lon="4.38799">
        <ele>846.8</ele>
        <time>2025-09-09T11:40:57Z</time>
      </trkpt>
      <trkpt lat="45.94618" lon="4.38798">
        <ele>846.8</ele>
        <time>2025-09-09T11:40:58Z</time>
      </trkpt>
      <trkpt lat="45.94613" lon="4.38803">
        <ele>847.6</ele>
        <time>2025-09-09T11:41:50Z</time>
      </trkpt>
      <trkpt lat="45.94612" lon="4.38802">
        <ele>847.6</ele>
        <time>2025-09-09T11:41:51Z</time>
      </trkpt>
      <trkpt lat="45.9461" lon="4.38802">
        <ele>847.6</ele>
        <time>2025-09-09T11:41:52Z</time>
      </trkpt>
      <trkpt lat="45.94609" lon="4.38801">
        <ele>847.6</ele>
        <time>2025-09-09T11:41:53Z</time>
      </trkpt>
      <trkpt lat="45.94607" lon="4.38802">
        <ele>847.6</ele>
        <time>2025-09-09T11:41:54Z</time>
      </trkpt>
      <trkpt lat="45.94605" lon="4.38804">
        <ele>847.6</ele>
        <time>2025-09-09T11:41:55Z</time>
      </trkpt>
      <trkpt lat="45.94605" lon="4.38805">
        <ele>847.6</ele>
        <time>2025-09-09T11:41:56Z</time>
      </trkpt>
      <trkpt lat="45.94604" lon="4.38807">
        <ele>847.6</ele>
        <time>2025-09-09T11:41:57Z</time>
      </trkpt>
      <trkpt lat="45.94604" lon="4.38808">
        <ele>847.8</ele>
        <time>2025-09-09T11:41:58Z</time>
      </trkpt>
      <trkpt lat="45.94602" lon="4.3881">
        <ele>848.2</ele>
        <time>2025-09-09T11:41:59Z</time>
      </trkpt>
      <trkpt lat="45.94601" lon="4.38811">
        <ele>848.2</ele>
        <time>2025-09-09T11:42:00Z</time>
      </trkpt>
      <trkpt lat="45.94601" lon="4.38811">
        <ele>848.4</ele>
        <time>2025-09-09T11:42:01Z</time>
      </trkpt>
      <trkpt lat="45.946" lon="4.38813">
        <ele>848.8</ele>
        <time>2025-09-09T11:42:02Z</time>
      </trkpt>
      <trkpt lat="45.94598" lon="4.38814">
        <ele>848.8</ele>
        <time>2025-09-09T11:42:03Z</time>
      </trkpt>
      <trkpt lat="45.94597" lon="4.38816">
        <ele>848.8</ele>
        <time>2025-09-09T11:42:04Z</time>
      </trkpt>
      <trkpt lat="45.94596" lon="4.38818">
        <ele>848.8</ele>
        <time>2025-09-09T11:42:05Z</time>
      </trkpt>
      <trkpt lat="45.94594" lon="4.3882">
        <ele>849.2</ele>
        <time>2025-09-09T11:42:06Z</time>
      </trkpt>
      <trkpt lat="45.94593" lon="4.38822">
        <ele>849.2</ele>
        <time>2025-09-09T11:42:07Z</time>
      </trkpt>
      <trkpt lat="45.94592" lon="4.38823">
        <ele>849.4</ele>
        <time>2025-09-09T11:42:08Z</time>
      </trkpt>
      <trkpt lat="45.94591" lon="4.38824">
        <ele>849.8</ele>
        <time>2025-09-09T11:42:09Z</time>
      </trkpt>
      <trkpt lat="45.94589" lon="4.38826">
        <ele>850</ele>
        <time>2025-09-09T11:42:10Z</time>
      </trkpt>
      <trkpt lat="45.94589" lon="4.38827">
        <ele>850.4</ele>
        <time>2025-09-09T11:42:11Z</time>
      </trkpt>
      <trkpt lat="45.94588" lon="4.38828">
        <ele>850.4</ele>
        <time>2025-09-09T11:42:12Z</time>
      </trkpt>
      <trkpt lat="45.94587" lon="4.38829">
        <ele>850.4</ele>
        <time>2025-09-09T11:42:13Z</time>
      </trkpt>
      <trkpt lat="45.94585" lon="4.3883">
        <ele>850.4</ele>
        <time>2025-09-09T11:42:14Z</time>
      </trkpt>
      <trkpt lat="45.94584" lon="4.38831">
        <ele>850.4</ele>
        <time>2025-09-09T11:42:15Z</time>
      </trkpt>
      <trkpt lat="45.94583" lon="4.38832">
        <ele>850.4</ele>
        <time>2025-09-09T11:42:16Z</time>
      </trkpt>
      <trkpt lat="45.94583" lon="4.38833">
        <ele>850.6</ele>
        <time>2025-09-09T11:42:17Z</time>
      </trkpt>
      <trkpt lat="45.94583" lon="4.38835">
        <ele>850.8</ele>
        <time>2025-09-09T11:42:18Z</time>
      </trkpt>
      <trkpt lat="45.94583" lon="4.38835">
        <ele>851</ele>
        <time>2025-09-09T11:42:19Z</time>
      </trkpt>
      <trkpt lat="45.94582" lon="4.38836">
        <ele>851</ele>
        <time>2025-09-09T11:42:20Z</time>
      </trkpt>
      <trkpt lat="45.94581" lon="4.38838">
        <ele>851</ele>
        <time>2025-09-09T11:42:21Z</time>
      </trkpt>
      <trkpt lat="45.94579" lon="4.38839">
        <ele>851</ele>
        <time>2025-09-09T11:42:22Z</time>
      </trkpt>
      <trkpt lat="45.94579" lon="4.38841">
        <ele>851</ele>
        <time>2025-09-09T11:42:23Z</time>
      </trkpt>
      <trkpt lat="45.94577" lon="4.38843">
        <ele>851</ele>
        <time>2025-09-09T11:42:24Z</time>
      </trkpt>
      <trkpt lat="45.94577" lon="4.38845">
        <ele>851.2</ele>
        <time>2025-09-09T11:42:25Z</time>
      </trkpt>
      <trkpt lat="45.94576" lon="4.38847">
        <ele>851.2</ele>
        <time>2025-09-09T11:42:26Z</time>
      </trkpt>
      <trkpt lat="45.94574" lon="4.38849">
        <ele>851.2</ele>
        <time>2025-09-09T11:42:27Z</time>
      </trkpt>
      <trkpt lat="45.94573" lon="4.38851">
        <ele>851.6</ele>
        <time>2025-09-09T11:42:28Z</time>
      </trkpt>
      <trkpt lat="45.94572" lon="4.38852">
        <ele>851.6</ele>
        <time>2025-09-09T11:42:29Z</time>
      </trkpt>
      <trkpt lat="45.94571" lon="4.38854">
        <ele>851.6</ele>
        <time>2025-09-09T11:42:30Z</time>
      </trkpt>
      <trkpt lat="45.9457" lon="4.38855">
        <ele>851.6</ele>
        <time>2025-09-09T11:42:31Z</time>
      </trkpt>
      <trkpt lat="45.94569" lon="4.38857">
        <ele>852</ele>
        <time>2025-09-09T11:42:32Z</time>
      </trkpt>
      <trkpt lat="45.94568" lon="4.38859">
        <ele>852.2</ele>
        <time>2025-09-09T11:42:33Z</time>
      </trkpt>
      <trkpt lat="45.94567" lon="4.38861">
        <ele>852.4</ele>
        <time>2025-09-09T11:42:34Z</time>
      </trkpt>
      <trkpt lat="45.94565" lon="4.38862">
        <ele>852.4</ele>
        <time>2025-09-09T11:42:35Z</time>
      </trkpt>
      <trkpt lat="45.94564" lon="4.38864">
        <ele>852.4</ele>
        <time>2025-09-09T11:42:36Z</time>
      </trkpt>
      <trkpt lat="45.94563" lon="4.38866">
        <ele>852.8</ele>
        <time>2025-09-09T11:42:37Z</time>
      </trkpt>
      <trkpt lat="45.94561" lon="4.38868">
        <ele>852.8</ele>
        <time>2025-09-09T11:42:38Z</time>
      </trkpt>
      <trkpt lat="45.94559" lon="4.38871">
        <ele>852.8</ele>
        <time>2025-09-09T11:42:39Z</time>
      </trkpt>
      <trkpt lat="45.94556" lon="4.38874">
        <ele>852.8</ele>
        <time>2025-09-09T11:42:40Z</time>
      </trkpt>
      <trkpt lat="45.94554" lon="4.38876">
        <ele>853.2</ele>
        <time>2025-09-09T11:42:41Z</time>
      </trkpt>
      <trkpt lat="45.94551" lon="4.38879">
        <ele>853.4</ele>
        <time>2025-09-09T11:42:42Z</time>
      </trkpt>
      <trkpt lat="45.94548" lon="4.38882">
        <ele>853.4</ele>
        <time>2025-09-09T11:42:43Z</time>
      </trkpt>
      <trkpt lat="45.94546" lon="4.38885">
        <ele>853.4</ele>
        <time>2025-09-09T11:42:44Z</time>
      </trkpt>
      <trkpt lat="45.94544" lon="4.38887">
        <ele>853.4</ele>
        <time>2025-09-09T11:42:45Z</time>
      </trkpt>
      <trkpt lat="45.94542" lon="4.3889">
        <ele>853.4</ele>
        <time>2025-09-09T11:42:46Z</time>
      </trkpt>
      <trkpt lat="45.9454" lon="4.38891">
        <ele>853.4</ele>
        <time>2025-09-09T11:42:47Z</time>
      </trkpt>
      <trkpt lat="45.94539" lon="4.38893">
        <ele>853.4</ele>
        <time>2025-09-09T11:42:48Z</time>
      </trkpt>
      <trkpt lat="45.94537" lon="4.38895">
        <ele>853.4</ele>
        <time>2025-09-09T11:42:49Z</time>
      </trkpt>
      <trkpt lat="45.94534" lon="4.38899">
        <ele>853.8</ele>
        <time>2025-09-09T11:42:50Z</time>
      </trkpt>
      <trkpt lat="45.94532" lon="4.38902">
        <ele>853.8</ele>
        <time>2025-09-09T11:42:51Z</time>
      </trkpt>
      <trkpt lat="45.9453" lon="4.38905">
        <ele>853.8</ele>
        <time>2025-09-09T11:42:52Z</time>
      </trkpt>
      <trkpt lat="45.94528" lon="4.38908">
        <ele>854.2</ele>
        <time>2025-09-09T11:42:53Z</time>
      </trkpt>
      <trkpt lat="45.94526" lon="4.38911">
        <ele>854.2</ele>
        <time>2025-09-09T11:42:54Z</time>
      </trkpt>
      <trkpt lat="45.94524" lon="4.38915">
        <ele>854</ele>
        <time>2025-09-09T11:42:55Z</time>
      </trkpt>
      <trkpt lat="45.94522" lon="4.38918">
        <ele>854</ele>
        <time>2025-09-09T11:42:56Z</time>
      </trkpt>
      <trkpt lat="45.9452" lon="4.38921">
        <ele>854.4</ele>
        <time>2025-09-09T11:42:57Z</time>
      </trkpt>
      <trkpt lat="45.94518" lon="4.38924">
        <ele>854.4</ele>
        <time>2025-09-09T11:42:58Z</time>
      </trkpt>
      <trkpt lat="45.94516" lon="4.38926">
        <ele>854.8</ele>
        <time>2025-09-09T11:42:59Z</time>
      </trkpt>
      <trkpt lat="45.94514" lon="4.38928">
        <ele>854.8</ele>
        <time>2025-09-09T11:43:00Z</time>
      </trkpt>
      <trkpt lat="45.94512" lon="4.38931">
        <ele>854.8</ele>
        <time>2025-09-09T11:43:01Z</time>
      </trkpt>
      <trkpt lat="45.9451" lon="4.38933">
        <ele>855.2</ele>
        <time>2025-09-09T11:43:02Z</time>
      </trkpt>
      <trkpt lat="45.94508" lon="4.38935">
        <ele>855.2</ele>
        <time>2025-09-09T11:43:03Z</time>
      </trkpt>
      <trkpt lat="45.94505" lon="4.38937">
        <ele>855.2</ele>
        <time>2025-09-09T11:43:04Z</time>
      </trkpt>
      <trkpt lat="45.94504" lon="4.38938">
        <ele>855.2</ele>
        <time>2025-09-09T11:43:05Z</time>
      </trkpt>
      <trkpt lat="45.94502" lon="4.3894">
        <ele>855.4</ele>
        <time>2025-09-09T11:43:06Z</time>
      </trkpt>
      <trkpt lat="45.94501" lon="4.38941">
        <ele>855.8</ele>
        <time>2025-09-09T11:43:07Z</time>
      </trkpt>
      <trkpt lat="45.945" lon="4.38942">
        <ele>855.8</ele>
        <time>2025-09-09T11:43:08Z</time>
      </trkpt>
      <trkpt lat="45.94498" lon="4.38943">
        <ele>855.8</ele>
        <time>2025-09-09T11:43:09Z</time>
      </trkpt>
      <trkpt lat="45.94496" lon="4.38945">
        <ele>855.8</ele>
        <time>2025-09-09T11:43:10Z</time>
      </trkpt>
      <trkpt lat="45.94495" lon="4.38946">
        <ele>856</ele>
        <time>2025-09-09T11:43:11Z</time>
      </trkpt>
      <trkpt lat="45.94494" lon="4.38947">
        <ele>856.2</ele>
        <time>2025-09-09T11:43:12Z</time>
      </trkpt>
      <trkpt lat="45.94494" lon="4.38948">
        <ele>856.4</ele>
        <time>2025-09-09T11:43:13Z</time>
      </trkpt>
      <trkpt lat="45.94492" lon="4.3895">
        <ele>856.8</ele>
        <time>2025-09-09T11:43:14Z</time>
      </trkpt>
      <trkpt lat="45.9449" lon="4.38951">
        <ele>856.8</ele>
        <time>2025-09-09T11:43:15Z</time>
      </trkpt>
      <trkpt lat="45.94489" lon="4.38953">
        <ele>857</ele>
        <time>2025-09-09T11:43:16Z</time>
      </trkpt>
      <trkpt lat="45.94489" lon="4.38954">
        <ele>857.2</ele>
        <time>2025-09-09T11:43:17Z</time>
      </trkpt>
      <trkpt lat="45.94488" lon="4.38955">
        <ele>857.6</ele>
        <time>2025-09-09T11:43:18Z</time>
      </trkpt>
      <trkpt lat="45.94487" lon="4.38955">
        <ele>857.6</ele>
        <time>2025-09-09T11:43:19Z</time>
      </trkpt>
      <trkpt lat="45.94486" lon="4.38955">
        <ele>858</ele>
        <time>2025-09-09T11:43:20Z</time>
      </trkpt>
      <trkpt lat="45.94485" lon="4.38956">
        <ele>858</ele>
        <time>2025-09-09T11:43:21Z</time>
      </trkpt>
      <trkpt lat="45.94484" lon="4.38958">
        <ele>858.4</ele>
        <time>2025-09-09T11:43:22Z</time>
      </trkpt>
      <trkpt lat="45.94483" lon="4.38959">
        <ele>858.6</ele>
        <time>2025-09-09T11:43:23Z</time>
      </trkpt>
      <trkpt lat="45.94482" lon="4.3896">
        <ele>858.6</ele>
        <time>2025-09-09T11:43:24Z</time>
      </trkpt>
      <trkpt lat="45.94482" lon="4.3896">
        <ele>858.8</ele>
        <time>2025-09-09T11:43:25Z</time>
      </trkpt>
      <trkpt lat="45.94481" lon="4.38962">
        <ele>858.8</ele>
        <time>2025-09-09T11:43:26Z</time>
      </trkpt>
      <trkpt lat="45.94479" lon="4.38963">
        <ele>859.2</ele>
        <time>2025-09-09T11:43:27Z</time>
      </trkpt>
      <trkpt lat="45.94479" lon="4.38964">
        <ele>859.4</ele>
        <time>2025-09-09T11:43:28Z</time>
      </trkpt>
      <trkpt lat="45.94478" lon="4.38966">
        <ele>859.4</ele>
        <time>2025-09-09T11:43:29Z</time>
      </trkpt>
      <trkpt lat="45.94477" lon="4.38967">
        <ele>859.8</ele>
        <time>2025-09-09T11:43:30Z</time>
      </trkpt>
      <trkpt lat="45.94476" lon="4.38968">
        <ele>859.8</ele>
        <time>2025-09-09T11:43:31Z</time>
      </trkpt>
      <trkpt lat="45.94475" lon="4.3897">
        <ele>860</ele>
        <time>2025-09-09T11:43:32Z</time>
      </trkpt>
      <trkpt lat="45.94474" lon="4.38971">
        <ele>860</ele>
        <time>2025-09-09T11:43:33Z</time>
      </trkpt>
      <trkpt lat="45.94473" lon="4.38972">
        <ele>860.2</ele>
        <time>2025-09-09T11:43:34Z</time>
      </trkpt>
      <trkpt lat="45.94472" lon="4.38973">
        <ele>860.2</ele>
        <time>2025-09-09T11:43:35Z</time>
      </trkpt>
      <trkpt lat="45.94471" lon="4.38974">
        <ele>860.4</ele>
        <time>2025-09-09T11:43:36Z</time>
      </trkpt>
      <trkpt lat="45.9447" lon="4.38975">
        <ele>860.4</ele>
        <time>2025-09-09T11:43:37Z</time>
      </trkpt>
      <trkpt lat="45.94468" lon="4.38977">
        <ele>860.4</ele>
        <time>2025-09-09T11:43:38Z</time>
      </trkpt>
      <trkpt lat="45.94467" lon="4.38978">
        <ele>860.6</ele>
        <time>2025-09-09T11:43:39Z</time>
      </trkpt>
      <trkpt lat="45.94465" lon="4.38979">
        <ele>860.6</ele>
        <time>2025-09-09T11:43:40Z</time>
      </trkpt>
      <trkpt lat="45.94464" lon="4.38981">
        <ele>860.6</ele>
        <time>2025-09-09T11:43:41Z</time>
      </trkpt>
      <trkpt lat="45.94463" lon="4.38983">
        <ele>861</ele>
        <time>2025-09-09T11:43:42Z</time>
      </trkpt>
      <trkpt lat="45.94461" lon="4.38985">
        <ele>861</ele>
        <time>2025-09-09T11:43:43Z</time>
      </trkpt>
      <trkpt lat="45.94459" lon="4.38987">
        <ele>861.2</ele>
        <time>2025-09-09T11:43:44Z</time>
      </trkpt>
      <trkpt lat="45.94458" lon="4.38988">
        <ele>861.2</ele>
        <time>2025-09-09T11:43:45Z</time>
      </trkpt>
      <trkpt lat="45.94457" lon="4.38989">
        <ele>861.2</ele>
        <time>2025-09-09T11:43:46Z</time>
      </trkpt>
      <trkpt lat="45.94455" lon="4.3899">
        <ele>861.4</ele>
        <time>2025-09-09T11:43:47Z</time>
      </trkpt>
      <trkpt lat="45.94454" lon="4.3899">
        <ele>861.6</ele>
        <time>2025-09-09T11:43:48Z</time>
      </trkpt>
      <trkpt lat="45.94452" lon="4.38991">
        <ele>861.6</ele>
        <time>2025-09-09T11:43:49Z</time>
      </trkpt>
      <trkpt lat="45.9445" lon="4.38992">
        <ele>861.6</ele>
        <time>2025-09-09T11:43:50Z</time>
      </trkpt>
      <trkpt lat="45.94449" lon="4.38995">
        <ele>861.8</ele>
        <time>2025-09-09T11:43:51Z</time>
      </trkpt>
      <trkpt lat="45.94448" lon="4.38997">
        <ele>861.8</ele>
        <time>2025-09-09T11:43:52Z</time>
      </trkpt>
      <trkpt lat="45.94446" lon="4.38998">
        <ele>861.8</ele>
        <time>2025-09-09T11:43:53Z</time>
      </trkpt>
      <trkpt lat="45.94444" lon="4.39">
        <ele>862.2</ele>
        <time>2025-09-09T11:43:54Z</time>
      </trkpt>
      <trkpt lat="45.94443" lon="4.39">
        <ele>862.2</ele>
        <time>2025-09-09T11:43:55Z</time>
      </trkpt>
      <trkpt lat="45.94441" lon="4.39001">
        <ele>862.2</ele>
        <time>2025-09-09T11:43:56Z</time>
      </trkpt>
      <trkpt lat="45.94439" lon="4.39002">
        <ele>862.2</ele>
        <time>2025-09-09T11:43:57Z</time>
      </trkpt>
      <trkpt lat="45.94437" lon="4.39004">
        <ele>862.2</ele>
        <time>2025-09-09T11:43:58Z</time>
      </trkpt>
      <trkpt lat="45.94437" lon="4.39005">
        <ele>862.6</ele>
        <time>2025-09-09T11:43:59Z</time>
      </trkpt>
      <trkpt lat="45.94436" lon="4.39006">
        <ele>862.6</ele>
        <time>2025-09-09T11:44:00Z</time>
      </trkpt>
      <trkpt lat="45.94434" lon="4.39009">
        <ele>862.6</ele>
        <time>2025-09-09T11:44:01Z</time>
      </trkpt>
      <trkpt lat="45.94432" lon="4.39011">
        <ele>862.6</ele>
        <time>2025-09-09T11:44:02Z</time>
      </trkpt>
      <trkpt lat="45.9443" lon="4.39012">
        <ele>862.6</ele>
        <time>2025-09-09T11:44:03Z</time>
      </trkpt>
      <trkpt lat="45.94428" lon="4.39012">
        <ele>862.8</ele>
        <time>2025-09-09T11:44:04Z</time>
      </trkpt>
      <trkpt lat="45.94426" lon="4.39012">
        <ele>862.8</ele>
        <time>2025-09-09T11:44:05Z</time>
      </trkpt>
      <trkpt lat="45.94423" lon="4.39012">
        <ele>863</ele>
        <time>2025-09-09T11:44:06Z</time>
      </trkpt>
      <trkpt lat="45.94422" lon="4.39013">
        <ele>863</ele>
        <time>2025-09-09T11:44:07Z</time>
      </trkpt>
      <trkpt lat="45.94421" lon="4.39013">
        <ele>863</ele>
        <time>2025-09-09T11:44:08Z</time>
      </trkpt>
      <trkpt lat="45.94419" lon="4.39015">
        <ele>863</ele>
        <time>2025-09-09T11:44:09Z</time>
      </trkpt>
      <trkpt lat="45.94417" lon="4.39016">
        <ele>863</ele>
        <time>2025-09-09T11:44:10Z</time>
      </trkpt>
      <trkpt lat="45.94415" lon="4.39017">
        <ele>863</ele>
        <time>2025-09-09T11:44:11Z</time>
      </trkpt>
      <trkpt lat="45.94414" lon="4.39018">
        <ele>863</ele>
        <time>2025-09-09T11:44:12Z</time>
      </trkpt>
      <trkpt lat="45.94412" lon="4.39018">
        <ele>863</ele>
        <time>2025-09-09T11:44:13Z</time>
      </trkpt>
      <trkpt lat="45.9441" lon="4.39019">
        <ele>863</ele>
        <time>2025-09-09T11:44:14Z</time>
      </trkpt>
      <trkpt lat="45.94408" lon="4.39019">
        <ele>863</ele>
        <time>2025-09-09T11:44:15Z</time>
      </trkpt>
      <trkpt lat="45.94406" lon="4.39021">
        <ele>863</ele>
        <time>2025-09-09T11:44:16Z</time>
      </trkpt>
      <trkpt lat="45.94403" lon="4.39022">
        <ele>863</ele>
        <time>2025-09-09T11:44:17Z</time>
      </trkpt>
      <trkpt lat="45.94401" lon="4.39024">
        <ele>863</ele>
        <time>2025-09-09T11:44:18Z</time>
      </trkpt>
      <trkpt lat="45.94399" lon="4.39026">
        <ele>863</ele>
        <time>2025-09-09T11:44:19Z</time>
      </trkpt>
      <trkpt lat="45.94397" lon="4.39027">
        <ele>863</ele>
        <time>2025-09-09T11:44:20Z</time>
      </trkpt>
      <trkpt lat="45.94394" lon="4.39028">
        <ele>862.8</ele>
        <time>2025-09-09T11:44:21Z</time>
      </trkpt>
      <trkpt lat="45.94391" lon="4.39028">
        <ele>862.8</ele>
        <time>2025-09-09T11:44:22Z</time>
      </trkpt>
      <trkpt lat="45.94389" lon="4.39029">
        <ele>862.8</ele>
        <time>2025-09-09T11:44:23Z</time>
      </trkpt>
      <trkpt lat="45.94388" lon="4.39029">
        <ele>863.4</ele>
        <time>2025-09-09T11:44:24Z</time>
      </trkpt>
      <trkpt lat="45.94386" lon="4.3903">
        <ele>863.4</ele>
        <time>2025-09-09T11:44:25Z</time>
      </trkpt>
      <trkpt lat="45.94384" lon="4.39032">
        <ele>863.4</ele>
        <time>2025-09-09T11:44:26Z</time>
      </trkpt>
      <trkpt lat="45.94382" lon="4.39033">
        <ele>863.4</ele>
        <time>2025-09-09T11:44:27Z</time>
      </trkpt>
      <trkpt lat="45.9438" lon="4.39034">
        <ele>863.4</ele>
        <time>2025-09-09T11:44:28Z</time>
      </trkpt>
      <trkpt lat="45.94378" lon="4.39035">
        <ele>863.4</ele>
        <time>2025-09-09T11:44:29Z</time>
      </trkpt>
      <trkpt lat="45.94376" lon="4.39036">
        <ele>863.4</ele>
        <time>2025-09-09T11:44:30Z</time>
      </trkpt>
      <trkpt lat="45.94373" lon="4.39036">
        <ele>863</ele>
        <time>2025-09-09T11:44:31Z</time>
      </trkpt>
      <trkpt lat="45.9437" lon="4.39036">
        <ele>863</ele>
        <time>2025-09-09T11:44:32Z</time>
      </trkpt>
      <trkpt lat="45.94368" lon="4.39036">
        <ele>863</ele>
        <time>2025-09-09T11:44:33Z</time>
      </trkpt>
      <trkpt lat="45.94366" lon="4.39036">
        <ele>863</ele>
        <time>2025-09-09T11:44:34Z</time>
      </trkpt>
      <trkpt lat="45.94364" lon="4.39037">
        <ele>863</ele>
        <time>2025-09-09T11:44:35Z</time>
      </trkpt>
      <trkpt lat="45.94361" lon="4.39038">
        <ele>862.8</ele>
        <time>2025-09-09T11:44:36Z</time>
      </trkpt>
      <trkpt lat="45.94356" lon="4.39038">
        <ele>862.8</ele>
        <time>2025-09-09T11:44:37Z</time>
      </trkpt>
      <trkpt lat="45.94353" lon="4.39038">
        <ele>862.6</ele>
        <time>2025-09-09T11:44:38Z</time>
      </trkpt>
      <trkpt lat="45.9435" lon="4.39038">
        <ele>862.6</ele>
        <time>2025-09-09T11:44:39Z</time>
      </trkpt>
      <trkpt lat="45.94346" lon="4.39038">
        <ele>862.6</ele>
        <time>2025-09-09T11:44:40Z</time>
      </trkpt>
      <trkpt lat="45.94344" lon="4.39038">
        <ele>862.6</ele>
        <time>2025-09-09T11:44:41Z</time>
      </trkpt>
      <trkpt lat="45.94343" lon="4.39037">
        <ele>862.6</ele>
        <time>2025-09-09T11:44:42Z</time>
      </trkpt>
      <trkpt lat="45.9434" lon="4.39037">
        <ele>862.6</ele>
        <time>2025-09-09T11:44:43Z</time>
      </trkpt>
      <trkpt lat="45.94336" lon="4.39037">
        <ele>862.4</ele>
        <time>2025-09-09T11:44:44Z</time>
      </trkpt>
      <trkpt lat="45.94333" lon="4.39037">
        <ele>862.4</ele>
        <time>2025-09-09T11:44:45Z</time>
      </trkpt>
      <trkpt lat="45.9433" lon="4.39037">
        <ele>862.4</ele>
        <time>2025-09-09T11:44:46Z</time>
      </trkpt>
      <trkpt lat="45.94328" lon="4.39036">
        <ele>861.8</ele>
        <time>2025-09-09T11:44:47Z</time>
      </trkpt>
      <trkpt lat="45.94325" lon="4.39035">
        <ele>861.8</ele>
        <time>2025-09-09T11:44:48Z</time>
      </trkpt>
      <trkpt lat="45.94323" lon="4.39034">
        <ele>861.8</ele>
        <time>2025-09-09T11:44:49Z</time>
      </trkpt>
      <trkpt lat="45.94321" lon="4.39033">
        <ele>861.6</ele>
        <time>2025-09-09T11:44:50Z</time>
      </trkpt>
      <trkpt lat="45.9432" lon="4.39032">
        <ele>861.2</ele>
        <time>2025-09-09T11:44:51Z</time>
      </trkpt>
      <trkpt lat="45.94319" lon="4.39031">
        <ele>861.2</ele>
        <time>2025-09-09T11:44:52Z</time>
      </trkpt>
      <trkpt lat="45.94318" lon="4.39031">
        <ele>861.2</ele>
        <time>2025-09-09T11:44:53Z</time>
      </trkpt>
      <trkpt lat="45.94318" lon="4.39035">
        <ele>861.6</ele>
        <time>2025-09-09T11:46:57Z</time>
      </trkpt>
      <trkpt lat="45.94317" lon="4.39035">
        <ele>861.6</ele>
        <time>2025-09-09T11:46:58Z</time>
      </trkpt>
      <trkpt lat="45.94317" lon="4.39035">
        <ele>861.4</ele>
        <time>2025-09-09T11:46:59Z</time>
      </trkpt>
      <trkpt lat="45.94317" lon="4.39035">
        <ele>861</ele>
        <time>2025-09-09T11:47:00Z</time>
      </trkpt>
      <trkpt lat="45.94314" lon="4.39036">
        <ele>860.8</ele>
        <time>2025-09-09T11:47:02Z</time>
      </trkpt>
      <trkpt lat="45.94314" lon="4.39036">
        <ele>860.6</ele>
        <time>2025-09-09T11:47:03Z</time>
      </trkpt>
      <trkpt lat="45.94314" lon="4.39035">
        <ele>860.6</ele>
        <time>2025-09-09T11:47:41Z</time>
      </trkpt>
      <trkpt lat="45.94314" lon="4.39034">
        <ele>860.8</ele>
        <time>2025-09-09T11:47:42Z</time>
      </trkpt>
      <trkpt lat="45.94314" lon="4.39033">
        <ele>860.8</ele>
        <time>2025-09-09T11:47:43Z</time>
      </trkpt>
      <trkpt lat="45.94314" lon="4.39034">
        <ele>860.8</ele>
        <time>2025-09-09T11:47:44Z</time>
      </trkpt>
      <trkpt lat="45.94314" lon="4.39034">
        <ele>860.8</ele>
        <time>2025-09-09T11:47:45Z</time>
      </trkpt>
      <trkpt lat="45.94312" lon="4.3903">
        <ele>860.8</ele>
        <time>2025-09-09T11:47:54Z</time>
      </trkpt>
      <trkpt lat="45.94312" lon="4.39028">
        <ele>860.8</ele>
        <time>2025-09-09T11:47:55Z</time>
      </trkpt>
      <trkpt lat="45.9431" lon="4.39026">
        <ele>860.8</ele>
        <time>2025-09-09T11:47:56Z</time>
      </trkpt>
      <trkpt lat="45.9431" lon="4.39024">
        <ele>860.8</ele>
        <time>2025-09-09T11:47:57Z</time>
      </trkpt>
      <trkpt lat="45.9431" lon="4.39024">
        <ele>860.8</ele>
        <time>2025-09-09T11:47:58Z</time>
      </trkpt>
      <trkpt lat="45.94309" lon="4.39021">
        <ele>860.8</ele>
        <time>2025-09-09T11:47:59Z</time>
      </trkpt>
      <trkpt lat="45.94308" lon="4.39018">
        <ele>860.6</ele>
        <time>2025-09-09T11:48:00Z</time>
      </trkpt>
      <trkpt lat="45.94305" lon="4.39016">
        <ele>860.6</ele>
        <time>2025-09-09T11:48:01Z</time>
      </trkpt>
      <trkpt lat="45.94305" lon="4.39016">
        <ele>860.6</ele>
        <time>2025-09-09T11:48:02Z</time>
      </trkpt>
      <trkpt lat="45.94302" lon="4.39014">
        <ele>860.6</ele>
        <time>2025-09-09T11:48:03Z</time>
      </trkpt>
      <trkpt lat="45.94299" lon="4.39013">
        <ele>860.2</ele>
        <time>2025-09-09T11:48:04Z</time>
      </trkpt>
      <trkpt lat="45.94296" lon="4.3901">
        <ele>860</ele>
        <time>2025-09-09T11:48:05Z</time>
      </trkpt>
      <trkpt lat="45.94292" lon="4.39009">
        <ele>860</ele>
        <time>2025-09-09T11:48:06Z</time>
      </trkpt>
      <trkpt lat="45.94288" lon="4.39008">
        <ele>859.8</ele>
        <time>2025-09-09T11:48:07Z</time>
      </trkpt>
      <trkpt lat="45.94283" lon="4.39008">
        <ele>859.2</ele>
        <time>2025-09-09T11:48:08Z</time>
      </trkpt>
      <trkpt lat="45.94279" lon="4.39006">
        <ele>858.8</ele>
        <time>2025-09-09T11:48:09Z</time>
      </trkpt>
      <trkpt lat="45.94275" lon="4.39006">
        <ele>858.6</ele>
        <time>2025-09-09T11:48:10Z</time>
      </trkpt>
      <trkpt lat="45.94271" lon="4.39004">
        <ele>858.4</ele>
        <time>2025-09-09T11:48:11Z</time>
      </trkpt>
      <trkpt lat="45.94267" lon="4.39002">
        <ele>858.4</ele>
        <time>2025-09-09T11:48:12Z</time>
      </trkpt>
      <trkpt lat="45.94264" lon="4.39001">
        <ele>858.4</ele>
        <time>2025-09-09T11:48:13Z</time>
      </trkpt>
      <trkpt lat="45.94262" lon="4.38998">
        <ele>858</ele>
        <time>2025-09-09T11:48:14Z</time>
      </trkpt>
      <trkpt lat="45.94259" lon="4.38997">
        <ele>858</ele>
        <time>2025-09-09T11:48:15Z</time>
      </trkpt>
      <trkpt lat="45.94255" lon="4.38995">
        <ele>857.8</ele>
        <time>2025-09-09T11:48:16Z</time>
      </trkpt>
      <trkpt lat="45.94252" lon="4.38993">
        <ele>857.8</ele>
        <time>2025-09-09T11:48:17Z</time>
      </trkpt>
      <trkpt lat="45.94247" lon="4.38992">
        <ele>857.8</ele>
        <time>2025-09-09T11:48:18Z</time>
      </trkpt>
      <trkpt lat="45.94245" lon="4.3899">
        <ele>857.8</ele>
        <time>2025-09-09T11:48:19Z</time>
      </trkpt>
      <trkpt lat="45.94242" lon="4.38988">
        <ele>857.8</ele>
        <time>2025-09-09T11:48:20Z</time>
      </trkpt>
      <trkpt lat="45.94239" lon="4.38987">
        <ele>857.8</ele>
        <time>2025-09-09T11:48:21Z</time>
      </trkpt>
      <trkpt lat="45.94236" lon="4.38984">
        <ele>857.8</ele>
        <time>2025-09-09T11:48:22Z</time>
      </trkpt>
      <trkpt lat="45.94233" lon="4.38983">
        <ele>857.8</ele>
        <time>2025-09-09T11:48:23Z</time>
      </trkpt>
      <trkpt lat="45.94228" lon="4.38982">
        <ele>857.8</ele>
        <time>2025-09-09T11:48:24Z</time>
      </trkpt>
      <trkpt lat="45.94225" lon="4.3898">
        <ele>857.2</ele>
        <time>2025-09-09T11:48:25Z</time>
      </trkpt>
      <trkpt lat="45.94221" lon="4.38979">
        <ele>857.4</ele>
        <time>2025-09-09T11:48:26Z</time>
      </trkpt>
      <trkpt lat="45.94217" lon="4.38977">
        <ele>857.2</ele>
        <time>2025-09-09T11:48:27Z</time>
      </trkpt>
      <trkpt lat="45.94214" lon="4.38976">
        <ele>857.2</ele>
        <time>2025-09-09T11:48:28Z</time>
      </trkpt>
      <trkpt lat="45.94211" lon="4.38975">
        <ele>856.2</ele>
        <time>2025-09-09T11:48:29Z</time>
      </trkpt>
      <trkpt lat="45.94208" lon="4.38975">
        <ele>856.2</ele>
        <time>2025-09-09T11:48:30Z</time>
      </trkpt>
      <trkpt lat="45.94204" lon="4.38974">
        <ele>855.8</ele>
        <time>2025-09-09T11:48:31Z</time>
      </trkpt>
      <trkpt lat="45.942" lon="4.38971">
        <ele>855.2</ele>
        <time>2025-09-09T11:48:32Z</time>
      </trkpt>
      <trkpt lat="45.94196" lon="4.38968">
        <ele>855.2</ele>
        <time>2025-09-09T11:48:33Z</time>
      </trkpt>
      <trkpt lat="45.94191" lon="4.38967">
        <ele>855.2</ele>
        <time>2025-09-09T11:48:34Z</time>
      </trkpt>
      <trkpt lat="45.94187" lon="4.38964">
        <ele>854.6</ele>
        <time>2025-09-09T11:48:35Z</time>
      </trkpt>
      <trkpt lat="45.94182" lon="4.38964">
        <ele>854.6</ele>
        <time>2025-09-09T11:48:36Z</time>
      </trkpt>
      <trkpt lat="45.94178" lon="4.38962">
        <ele>854.6</ele>
        <time>2025-09-09T11:48:37Z</time>
      </trkpt>
      <trkpt lat="45.94173" lon="4.38959">
        <ele>854.6</ele>
        <time>2025-09-09T11:48:38Z</time>
      </trkpt>
      <trkpt lat="45.94171" lon="4.38954">
        <ele>854.6</ele>
        <time>2025-09-09T11:48:39Z</time>
      </trkpt>
      <trkpt lat="45.94166" lon="4.38955">
        <ele>854.2</ele>
        <time>2025-09-09T11:48:40Z</time>
      </trkpt>
      <trkpt lat="45.94162" lon="4.38953">
        <ele>854</ele>
        <time>2025-09-09T11:48:41Z</time>
      </trkpt>
      <trkpt lat="45.94158" lon="4.38953">
        <ele>854</ele>
        <time>2025-09-09T11:48:42Z</time>
      </trkpt>
      <trkpt lat="45.94155" lon="4.38951">
        <ele>854</ele>
        <time>2025-09-09T11:48:43Z</time>
      </trkpt>
      <trkpt lat="45.94152" lon="4.38952">
        <ele>854</ele>
        <time>2025-09-09T11:48:44Z</time>
      </trkpt>
      <trkpt lat="45.94148" lon="4.38953">
        <ele>854</ele>
        <time>2025-09-09T11:48:45Z</time>
      </trkpt>
      <trkpt lat="45.94144" lon="4.38953">
        <ele>853.6</ele>
        <time>2025-09-09T11:48:46Z</time>
      </trkpt>
      <trkpt lat="45.9414" lon="4.38954">
        <ele>853.4</ele>
        <time>2025-09-09T11:48:47Z</time>
      </trkpt>
      <trkpt lat="45.94136" lon="4.38955">
        <ele>852.8</ele>
        <time>2025-09-09T11:48:48Z</time>
      </trkpt>
      <trkpt lat="45.94132" lon="4.38954">
        <ele>852.4</ele>
        <time>2025-09-09T11:48:49Z</time>
      </trkpt>
      <trkpt lat="45.94129" lon="4.38954">
        <ele>852.4</ele>
        <time>2025-09-09T11:48:50Z</time>
      </trkpt>
      <trkpt lat="45.94125" lon="4.38954">
        <ele>852.2</ele>
        <time>2025-09-09T11:48:51Z</time>
      </trkpt>
      <trkpt lat="45.94122" lon="4.38954">
        <ele>851.6</ele>
        <time>2025-09-09T11:48:52Z</time>
      </trkpt>
      <trkpt lat="45.94118" lon="4.38953">
        <ele>851.2</ele>
        <time>2025-09-09T11:48:53Z</time>
      </trkpt>
      <trkpt lat="45.94114" lon="4.38953">
        <ele>851.2</ele>
        <time>2025-09-09T11:48:54Z</time>
      </trkpt>
      <trkpt lat="45.94111" lon="4.38952">
        <ele>851.2</ele>
        <time>2025-09-09T11:48:55Z</time>
      </trkpt>
      <trkpt lat="45.94108" lon="4.38951">
        <ele>850.8</ele>
        <time>2025-09-09T11:48:56Z</time>
      </trkpt>
      <trkpt lat="45.94105" lon="4.38949">
        <ele>850</ele>
        <time>2025-09-09T11:48:57Z</time>
      </trkpt>
      <trkpt lat="45.94102" lon="4.38949">
        <ele>849.2</ele>
        <time>2025-09-09T11:48:58Z</time>
      </trkpt>
      <trkpt lat="45.94099" lon="4.38949">
        <ele>849</ele>
        <time>2025-09-09T11:48:59Z</time>
      </trkpt>
      <trkpt lat="45.94096" lon="4.38949">
        <ele>848.6</ele>
        <time>2025-09-09T11:49:00Z</time>
      </trkpt>
      <trkpt lat="45.94094" lon="4.38949">
        <ele>848.4</ele>
        <time>2025-09-09T11:49:01Z</time>
      </trkpt>
      <trkpt lat="45.94092" lon="4.38949">
        <ele>848.2</ele>
        <time>2025-09-09T11:49:02Z</time>
      </trkpt>
      <trkpt lat="45.9409" lon="4.38949">
        <ele>848.2</ele>
        <time>2025-09-09T11:49:03Z</time>
      </trkpt>
      <trkpt lat="45.94088" lon="4.38949">
        <ele>848.2</ele>
        <time>2025-09-09T11:49:04Z</time>
      </trkpt>
      <trkpt lat="45.94086" lon="4.3895">
        <ele>847.8</ele>
        <time>2025-09-09T11:49:05Z</time>
      </trkpt>
      <trkpt lat="45.94085" lon="4.3895">
        <ele>847.8</ele>
        <time>2025-09-09T11:49:06Z</time>
      </trkpt>
      <trkpt lat="45.94083" lon="4.38951">
        <ele>847.8</ele>
        <time>2025-09-09T11:49:07Z</time>
      </trkpt>
      <trkpt lat="45.94081" lon="4.38951">
        <ele>847.8</ele>
        <time>2025-09-09T11:49:08Z</time>
      </trkpt>
      <trkpt lat="45.94079" lon="4.38951">
        <ele>847.8</ele>
        <time>2025-09-09T11:49:09Z</time>
      </trkpt>
      <trkpt lat="45.94077" lon="4.38951">
        <ele>847.6</ele>
        <time>2025-09-09T11:49:10Z</time>
      </trkpt>
      <trkpt lat="45.94075" lon="4.38951">
        <ele>847.6</ele>
        <time>2025-09-09T11:49:11Z</time>
      </trkpt>
      <trkpt lat="45.94073" lon="4.3895">
        <ele>847.6</ele>
        <time>2025-09-09T11:49:12Z</time>
      </trkpt>
      <trkpt lat="45.94071" lon="4.38949">
        <ele>847.6</ele>
        <time>2025-09-09T11:49:13Z</time>
      </trkpt>
      <trkpt lat="45.94068" lon="4.38949">
        <ele>847.6</ele>
        <time>2025-09-09T11:49:14Z</time>
      </trkpt>
      <trkpt lat="45.94065" lon="4.3895">
        <ele>847.6</ele>
        <time>2025-09-09T11:49:15Z</time>
      </trkpt>
      <trkpt lat="45.94062" lon="4.38949">
        <ele>847.6</ele>
        <time>2025-09-09T11:49:16Z</time>
      </trkpt>
      <trkpt lat="45.9406" lon="4.38949">
        <ele>847.6</ele>
        <time>2025-09-09T11:49:17Z</time>
      </trkpt>
      <trkpt lat="45.94057" lon="4.38948">
        <ele>847.6</ele>
        <time>2025-09-09T11:49:18Z</time>
      </trkpt>
      <trkpt lat="45.94055" lon="4.38948">
        <ele>847.6</ele>
        <time>2025-09-09T11:49:19Z</time>
      </trkpt>
      <trkpt lat="45.94053" lon="4.38948">
        <ele>847.6</ele>
        <time>2025-09-09T11:49:20Z</time>
      </trkpt>
      <trkpt lat="45.94052" lon="4.38948">
        <ele>847.6</ele>
        <time>2025-09-09T11:49:21Z</time>
      </trkpt>
      <trkpt lat="45.94052" lon="4.38949">
        <ele>847.6</ele>
        <time>2025-09-09T11:49:22Z</time>
      </trkpt>
      <trkpt lat="45.94051" lon="4.38949">
        <ele>847.2</ele>
        <time>2025-09-09T11:49:29Z</time>
      </trkpt>
      <trkpt lat="45.94049" lon="4.38948">
        <ele>847.2</ele>
        <time>2025-09-09T11:49:30Z</time>
      </trkpt>
      <trkpt lat="45.94046" lon="4.38947">
        <ele>846.8</ele>
        <time>2025-09-09T11:49:31Z</time>
      </trkpt>
      <trkpt lat="45.94044" lon="4.38946">
        <ele>846.8</ele>
        <time>2025-09-09T11:49:32Z</time>
      </trkpt>
      <trkpt lat="45.94041" lon="4.38945">
        <ele>846.6</ele>
        <time>2025-09-09T11:49:33Z</time>
      </trkpt>
      <trkpt lat="45.94038" lon="4.38944">
        <ele>846.6</ele>
        <time>2025-09-09T11:49:34Z</time>
      </trkpt>
      <trkpt lat="45.94034" lon="4.38943">
        <ele>846.6</ele>
        <time>2025-09-09T11:49:35Z</time>
      </trkpt>
      <trkpt lat="45.9403" lon="4.38941">
        <ele>847</ele>
        <time>2025-09-09T11:49:36Z</time>
      </trkpt>
      <trkpt lat="45.94025" lon="4.38939">
        <ele>847</ele>
        <time>2025-09-09T11:49:37Z</time>
      </trkpt>
      <trkpt lat="45.94021" lon="4.38938">
        <ele>847</ele>
        <time>2025-09-09T11:49:38Z</time>
      </trkpt>
      <trkpt lat="45.94018" lon="4.38936">
        <ele>846.6</ele>
        <time>2025-09-09T11:49:39Z</time>
      </trkpt>
      <trkpt lat="45.94014" lon="4.38933">
        <ele>846.6</ele>
        <time>2025-09-09T11:49:40Z</time>
      </trkpt>
      <trkpt lat="45.94009" lon="4.38931">
        <ele>846.6</ele>
        <time>2025-09-09T11:49:41Z</time>
      </trkpt>
      <trkpt lat="45.94004" lon="4.38927">
        <ele>846.6</ele>
        <time>2025-09-09T11:49:42Z</time>
      </trkpt>
      <trkpt lat="45.94" lon="4.38922">
        <ele>846.2</ele>
        <time>2025-09-09T11:49:43Z</time>
      </trkpt>
      <trkpt lat="45.93995" lon="4.38918">
        <ele>846.2</ele>
        <time>2025-09-09T11:49:44Z</time>
      </trkpt>
      <trkpt lat="45.93991" lon="4.38914">
        <ele>846.2</ele>
        <time>2025-09-09T11:49:45Z</time>
      </trkpt>
      <trkpt lat="45.93989" lon="4.3891">
        <ele>846</ele>
        <time>2025-09-09T11:49:46Z</time>
      </trkpt>
      <trkpt lat="45.93985" lon="4.38906">
        <ele>846</ele>
        <time>2025-09-09T11:49:47Z</time>
      </trkpt>
      <trkpt lat="45.93983" lon="4.38904">
        <ele>845</ele>
        <time>2025-09-09T11:49:48Z</time>
      </trkpt>
      <trkpt lat="45.93979" lon="4.38901">
        <ele>845</ele>
        <time>2025-09-09T11:49:49Z</time>
      </trkpt>
      <trkpt lat="45.93977" lon="4.38898">
        <ele>845.6</ele>
        <time>2025-09-09T11:49:50Z</time>
      </trkpt>
      <trkpt lat="45.93974" lon="4.38896">
        <ele>845.8</ele>
        <time>2025-09-09T11:49:51Z</time>
      </trkpt>
      <trkpt lat="45.93972" lon="4.38894">
        <ele>845.4</ele>
        <time>2025-09-09T11:49:52Z</time>
      </trkpt>
      <trkpt lat="45.9397" lon="4.38893">
        <ele>844.2</ele>
        <time>2025-09-09T11:49:53Z</time>
      </trkpt>
      <trkpt lat="45.93967" lon="4.3889">
        <ele>843.8</ele>
        <time>2025-09-09T11:49:54Z</time>
      </trkpt>
      <trkpt lat="45.93965" lon="4.38888">
        <ele>843.8</ele>
        <time>2025-09-09T11:49:55Z</time>
      </trkpt>
      <trkpt lat="45.93963" lon="4.38887">
        <ele>844.4</ele>
        <time>2025-09-09T11:49:56Z</time>
      </trkpt>
      <trkpt lat="45.93961" lon="4.38885">
        <ele>844.4</ele>
        <time>2025-09-09T11:49:57Z</time>
      </trkpt>
      <trkpt lat="45.93959" lon="4.38884">
        <ele>843.6</ele>
        <time>2025-09-09T11:49:58Z</time>
      </trkpt>
      <trkpt lat="45.93956" lon="4.38882">
        <ele>842.8</ele>
        <time>2025-09-09T11:49:59Z</time>
      </trkpt>
      <trkpt lat="45.93953" lon="4.3888">
        <ele>842.6</ele>
        <time>2025-09-09T11:50:00Z</time>
      </trkpt>
      <trkpt lat="45.9395" lon="4.38878">
        <ele>842.8</ele>
        <time>2025-09-09T11:50:01Z</time>
      </trkpt>
      <trkpt lat="45.93947" lon="4.38876">
        <ele>842.8</ele>
        <time>2025-09-09T11:50:02Z</time>
      </trkpt>
      <trkpt lat="45.93944" lon="4.38873">
        <ele>842.6</ele>
        <time>2025-09-09T11:50:03Z</time>
      </trkpt>
      <trkpt lat="45.9394" lon="4.38871">
        <ele>842.2</ele>
        <time>2025-09-09T11:50:04Z</time>
      </trkpt>
      <trkpt lat="45.93938" lon="4.3887">
        <ele>842.2</ele>
        <time>2025-09-09T11:50:05Z</time>
      </trkpt>
      <trkpt lat="45.93935" lon="4.38868">
        <ele>842.2</ele>
        <time>2025-09-09T11:50:06Z</time>
      </trkpt>
      <trkpt lat="45.93931" lon="4.38866">
        <ele>842.2</ele>
        <time>2025-09-09T11:50:07Z</time>
      </trkpt>
      <trkpt lat="45.93928" lon="4.38864">
        <ele>842.2</ele>
        <time>2025-09-09T11:50:08Z</time>
      </trkpt>
      <trkpt lat="45.93925" lon="4.38862">
        <ele>842.4</ele>
        <time>2025-09-09T11:50:09Z</time>
      </trkpt>
      <trkpt lat="45.93921" lon="4.3886">
        <ele>842.4</ele>
        <time>2025-09-09T11:50:10Z</time>
      </trkpt>
      <trkpt lat="45.93916" lon="4.38857">
        <ele>842.4</ele>
        <time>2025-09-09T11:50:11Z</time>
      </trkpt>
      <trkpt lat="45.93912" lon="4.38857">
        <ele>842.4</ele>
        <time>2025-09-09T11:50:12Z</time>
      </trkpt>
      <trkpt lat="45.93908" lon="4.38854">
        <ele>842.4</ele>
        <time>2025-09-09T11:50:13Z</time>
      </trkpt>
      <trkpt lat="45.93905" lon="4.38852">
        <ele>842.4</ele>
        <time>2025-09-09T11:50:14Z</time>
      </trkpt>
      <trkpt lat="45.93901" lon="4.3885">
        <ele>842</ele>
        <time>2025-09-09T11:50:15Z</time>
      </trkpt>
      <trkpt lat="45.93898" lon="4.38847">
        <ele>842</ele>
        <time>2025-09-09T11:50:16Z</time>
      </trkpt>
      <trkpt lat="45.93893" lon="4.38847">
        <ele>842</ele>
        <time>2025-09-09T11:50:17Z</time>
      </trkpt>
      <trkpt lat="45.93889" lon="4.38845">
        <ele>842.4</ele>
        <time>2025-09-09T11:50:18Z</time>
      </trkpt>
      <trkpt lat="45.93885" lon="4.38844">
        <ele>842.4</ele>
        <time>2025-09-09T11:50:19Z</time>
      </trkpt>
      <trkpt lat="45.93881" lon="4.38842">
        <ele>842.4</ele>
        <time>2025-09-09T11:50:20Z</time>
      </trkpt>
      <trkpt lat="45.93878" lon="4.38841">
        <ele>842.4</ele>
        <time>2025-09-09T11:50:21Z</time>
      </trkpt>
      <trkpt lat="45.93876" lon="4.3884">
        <ele>842.6</ele>
        <time>2025-09-09T11:50:22Z</time>
      </trkpt>
      <trkpt lat="45.93873" lon="4.3884">
        <ele>842.6</ele>
        <time>2025-09-09T11:50:23Z</time>
      </trkpt>
      <trkpt lat="45.93871" lon="4.38839">
        <ele>842.6</ele>
        <time>2025-09-09T11:50:24Z</time>
      </trkpt>
      <trkpt lat="45.9387" lon="4.38837">
        <ele>842.6</ele>
        <time>2025-09-09T11:50:25Z</time>
      </trkpt>
      <trkpt lat="45.93868" lon="4.38836">
        <ele>842.6</ele>
        <time>2025-09-09T11:50:26Z</time>
      </trkpt>
      <trkpt lat="45.93866" lon="4.38836">
        <ele>843</ele>
        <time>2025-09-09T11:50:27Z</time>
      </trkpt>
      <trkpt lat="45.93865" lon="4.38835">
        <ele>843</ele>
        <time>2025-09-09T11:50:28Z</time>
      </trkpt>
      <trkpt lat="45.93863" lon="4.38835">
        <ele>843.2</ele>
        <time>2025-09-09T11:50:29Z</time>
      </trkpt>
      <trkpt lat="45.93861" lon="4.38834">
        <ele>843.6</ele>
        <time>2025-09-09T11:50:30Z</time>
      </trkpt>
      <trkpt lat="45.9386" lon="4.38833">
        <ele>844.2</ele>
        <time>2025-09-09T11:50:31Z</time>
      </trkpt>
      <trkpt lat="45.93858" lon="4.38831">
        <ele>844.2</ele>
        <time>2025-09-09T11:50:32Z</time>
      </trkpt>
      <trkpt lat="45.93856" lon="4.3883">
        <ele>844.2</ele>
        <time>2025-09-09T11:50:33Z</time>
      </trkpt>
      <trkpt lat="45.93854" lon="4.38829">
        <ele>844.6</ele>
        <time>2025-09-09T11:50:34Z</time>
      </trkpt>
      <trkpt lat="45.93851" lon="4.38829">
        <ele>844.6</ele>
        <time>2025-09-09T11:50:35Z</time>
      </trkpt>
      <trkpt lat="45.93849" lon="4.38828">
        <ele>844.6</ele>
        <time>2025-09-09T11:50:36Z</time>
      </trkpt>
      <trkpt lat="45.93848" lon="4.38827">
        <ele>844.6</ele>
        <time>2025-09-09T11:50:37Z</time>
      </trkpt>
      <trkpt lat="45.93846" lon="4.38826">
        <ele>844.6</ele>
        <time>2025-09-09T11:50:38Z</time>
      </trkpt>
      <trkpt lat="45.93845" lon="4.38825">
        <ele>844.8</ele>
        <time>2025-09-09T11:50:39Z</time>
      </trkpt>
      <trkpt lat="45.93843" lon="4.38824">
        <ele>844.8</ele>
        <time>2025-09-09T11:50:40Z</time>
      </trkpt>
      <trkpt lat="45.9384" lon="4.38823">
        <ele>844.8</ele>
        <time>2025-09-09T11:50:41Z</time>
      </trkpt>
      <trkpt lat="45.93838" lon="4.38823">
        <ele>844.8</ele>
        <time>2025-09-09T11:50:42Z</time>
      </trkpt>
      <trkpt lat="45.93836" lon="4.38822">
        <ele>844.8</ele>
        <time>2025-09-09T11:50:43Z</time>
      </trkpt>
      <trkpt lat="45.93834" lon="4.38821">
        <ele>845.2</ele>
        <time>2025-09-09T11:50:44Z</time>
      </trkpt>
      <trkpt lat="45.93831" lon="4.3882">
        <ele>845.2</ele>
        <time>2025-09-09T11:50:45Z</time>
      </trkpt>
      <trkpt lat="45.93829" lon="4.38819">
        <ele>845.2</ele>
        <time>2025-09-09T11:50:46Z</time>
      </trkpt>
      <trkpt lat="45.93827" lon="4.38818">
        <ele>845.6</ele>
        <time>2025-09-09T11:50:47Z</time>
      </trkpt>
      <trkpt lat="45.93825" lon="4.38817">
        <ele>845.6</ele>
        <time>2025-09-09T11:50:48Z</time>
      </trkpt>
      <trkpt lat="45.93823" lon="4.38816">
        <ele>845.6</ele>
        <time>2025-09-09T11:50:49Z</time>
      </trkpt>
      <trkpt lat="45.93822" lon="4.38815">
        <ele>845.6</ele>
        <time>2025-09-09T11:50:50Z</time>
      </trkpt>
      <trkpt lat="45.93819" lon="4.38813">
        <ele>845.6</ele>
        <time>2025-09-09T11:50:51Z</time>
      </trkpt>
      <trkpt lat="45.93817" lon="4.38812">
        <ele>845.6</ele>
        <time>2025-09-09T11:50:52Z</time>
      </trkpt>
      <trkpt lat="45.93815" lon="4.38811">
        <ele>845.4</ele>
        <time>2025-09-09T11:50:53Z</time>
      </trkpt>
      <trkpt lat="45.93813" lon="4.38809">
        <ele>845.4</ele>
        <time>2025-09-09T11:50:54Z</time>
      </trkpt>
      <trkpt lat="45.93811" lon="4.38808">
        <ele>845.4</ele>
        <time>2025-09-09T11:50:55Z</time>
      </trkpt>
      <trkpt lat="45.9381" lon="4.38807">
        <ele>845.6</ele>
        <time>2025-09-09T11:50:56Z</time>
      </trkpt>
      <trkpt lat="45.93809" lon="4.38805">
        <ele>845.6</ele>
        <time>2025-09-09T11:50:57Z</time>
      </trkpt>
      <trkpt lat="45.93807" lon="4.38803">
        <ele>846.2</ele>
        <time>2025-09-09T11:50:58Z</time>
      </trkpt>
      <trkpt lat="45.93805" lon="4.38801">
        <ele>846.2</ele>
        <time>2025-09-09T11:50:59Z</time>
      </trkpt>
      <trkpt lat="45.93804" lon="4.388">
        <ele>846.2</ele>
        <time>2025-09-09T11:51:00Z</time>
      </trkpt>
      <trkpt lat="45.93803" lon="4.38799">
        <ele>846.2</ele>
        <time>2025-09-09T11:51:01Z</time>
      </trkpt>
      <trkpt lat="45.93803" lon="4.38798">
        <ele>846.2</ele>
        <time>2025-09-09T11:51:02Z</time>
      </trkpt>
      <trkpt lat="45.93803" lon="4.38798">
        <ele>846.2</ele>
        <time>2025-09-09T11:51:03Z</time>
      </trkpt>
      <trkpt lat="45.93802" lon="4.38796">
        <ele>845.6</ele>
        <time>2025-09-09T11:51:10Z</time>
      </trkpt>
      <trkpt lat="45.938" lon="4.38794">
        <ele>845.6</ele>
        <time>2025-09-09T11:51:11Z</time>
      </trkpt>
      <trkpt lat="45.93797" lon="4.38791">
        <ele>845.6</ele>
        <time>2025-09-09T11:51:12Z</time>
      </trkpt>
      <trkpt lat="45.93795" lon="4.38789">
        <ele>845.6</ele>
        <time>2025-09-09T11:51:13Z</time>
      </trkpt>
      <trkpt lat="45.93793" lon="4.38787">
        <ele>845.6</ele>
        <time>2025-09-09T11:51:14Z</time>
      </trkpt>
      <trkpt lat="45.93791" lon="4.38784">
        <ele>845.6</ele>
        <time>2025-09-09T11:51:15Z</time>
      </trkpt>
      <trkpt lat="45.93788" lon="4.38782">
        <ele>846</ele>
        <time>2025-09-09T11:51:16Z</time>
      </trkpt>
      <trkpt lat="45.93786" lon="4.3878">
        <ele>846</ele>
        <time>2025-09-09T11:51:17Z</time>
      </trkpt>
      <trkpt lat="45.93784" lon="4.38777">
        <ele>846</ele>
        <time>2025-09-09T11:51:18Z</time>
      </trkpt>
      <trkpt lat="45.93782" lon="4.38775">
        <ele>846</ele>
        <time>2025-09-09T11:51:19Z</time>
      </trkpt>
      <trkpt lat="45.9378" lon="4.38773">
        <ele>846.2</ele>
        <time>2025-09-09T11:51:20Z</time>
      </trkpt>
      <trkpt lat="45.93778" lon="4.3877">
        <ele>846.2</ele>
        <time>2025-09-09T11:51:21Z</time>
      </trkpt>
      <trkpt lat="45.93776" lon="4.38768">
        <ele>846.4</ele>
        <time>2025-09-09T11:51:22Z</time>
      </trkpt>
      <trkpt lat="45.93773" lon="4.38766">
        <ele>846.4</ele>
        <time>2025-09-09T11:51:23Z</time>
      </trkpt>
      <trkpt lat="45.9377" lon="4.38764">
        <ele>846.4</ele>
        <time>2025-09-09T11:51:24Z</time>
      </trkpt>
      <trkpt lat="45.93768" lon="4.38762">
        <ele>846.4</ele>
        <time>2025-09-09T11:51:25Z</time>
      </trkpt>
      <trkpt lat="45.93765" lon="4.3876">
        <ele>846.6</ele>
        <time>2025-09-09T11:51:26Z</time>
      </trkpt>
      <trkpt lat="45.93762" lon="4.38758">
        <ele>846.6</ele>
        <time>2025-09-09T11:51:27Z</time>
      </trkpt>
      <trkpt lat="45.93759" lon="4.38756">
        <ele>846.6</ele>
        <time>2025-09-09T11:51:28Z</time>
      </trkpt>
      <trkpt lat="45.93757" lon="4.38754">
        <ele>846.6</ele>
        <time>2025-09-09T11:51:29Z</time>
      </trkpt>
      <trkpt lat="45.93754" lon="4.38752">
        <ele>846.6</ele>
        <time>2025-09-09T11:51:30Z</time>
      </trkpt>
      <trkpt lat="45.93751" lon="4.38749">
        <ele>846.6</ele>
        <time>2025-09-09T11:51:31Z</time>
      </trkpt>
      <trkpt lat="45.93747" lon="4.38746">
        <ele>846.6</ele>
        <time>2025-09-09T11:51:32Z</time>
      </trkpt>
      <trkpt lat="45.93744" lon="4.38744">
        <ele>846.6</ele>
        <time>2025-09-09T11:51:33Z</time>
      </trkpt>
      <trkpt lat="45.93741" lon="4.38741">
        <ele>846.6</ele>
        <time>2025-09-09T11:51:34Z</time>
      </trkpt>
      <trkpt lat="45.93738" lon="4.38738">
        <ele>846.6</ele>
        <time>2025-09-09T11:51:35Z</time>
      </trkpt>
      <trkpt lat="45.93735" lon="4.38736">
        <ele>847</ele>
        <time>2025-09-09T11:51:36Z</time>
      </trkpt>
      <trkpt lat="45.93732" lon="4.38733">
        <ele>847</ele>
        <time>2025-09-09T11:51:37Z</time>
      </trkpt>
      <trkpt lat="45.93729" lon="4.38731">
        <ele>847</ele>
        <time>2025-09-09T11:51:38Z</time>
      </trkpt>
      <trkpt lat="45.93726" lon="4.38728">
        <ele>847</ele>
        <time>2025-09-09T11:51:39Z</time>
      </trkpt>
      <trkpt lat="45.93723" lon="4.38725">
        <ele>847</ele>
        <time>2025-09-09T11:51:40Z</time>
      </trkpt>
      <trkpt lat="45.93719" lon="4.38723">
        <ele>847</ele>
        <time>2025-09-09T11:51:41Z</time>
      </trkpt>
      <trkpt lat="45.93716" lon="4.3872">
        <ele>846.8</ele>
        <time>2025-09-09T11:51:42Z</time>
      </trkpt>
      <trkpt lat="45.93714" lon="4.38717">
        <ele>846.8</ele>
        <time>2025-09-09T11:51:43Z</time>
      </trkpt>
      <trkpt lat="45.93711" lon="4.38715">
        <ele>846.8</ele>
        <time>2025-09-09T11:51:44Z</time>
      </trkpt>
      <trkpt lat="45.93709" lon="4.38712">
        <ele>847</ele>
        <time>2025-09-09T11:51:45Z</time>
      </trkpt>
      <trkpt lat="45.93707" lon="4.3871">
        <ele>847</ele>
        <time>2025-09-09T11:51:46Z</time>
      </trkpt>
      <trkpt lat="45.93705" lon="4.38708">
        <ele>846.8</ele>
        <time>2025-09-09T11:51:47Z</time>
      </trkpt>
      <trkpt lat="45.93703" lon="4.38707">
        <ele>847.2</ele>
        <time>2025-09-09T11:51:48Z</time>
      </trkpt>
      <trkpt lat="45.937" lon="4.38705">
        <ele>846.8</ele>
        <time>2025-09-09T11:51:49Z</time>
      </trkpt>
      <trkpt lat="45.93698" lon="4.38703">
        <ele>847</ele>
        <time>2025-09-09T11:51:50Z</time>
      </trkpt>
      <trkpt lat="45.93695" lon="4.38701">
        <ele>847</ele>
        <time>2025-09-09T11:51:51Z</time>
      </trkpt>
      <trkpt lat="45.93692" lon="4.38699">
        <ele>847.8</ele>
        <time>2025-09-09T11:51:52Z</time>
      </trkpt>
      <trkpt lat="45.93689" lon="4.38696">
        <ele>847.8</ele>
        <time>2025-09-09T11:51:53Z</time>
      </trkpt>
      <trkpt lat="45.93686" lon="4.38693">
        <ele>848.2</ele>
        <time>2025-09-09T11:51:54Z</time>
      </trkpt>
      <trkpt lat="45.93684" lon="4.38691">
        <ele>848.2</ele>
        <time>2025-09-09T11:51:55Z</time>
      </trkpt>
      <trkpt lat="45.93681" lon="4.38689">
        <ele>848.2</ele>
        <time>2025-09-09T11:51:56Z</time>
      </trkpt>
      <trkpt lat="45.93678" lon="4.38686">
        <ele>848.2</ele>
        <time>2025-09-09T11:51:57Z</time>
      </trkpt>
      <trkpt lat="45.93675" lon="4.38683">
        <ele>848.2</ele>
        <time>2025-09-09T11:51:58Z</time>
      </trkpt>
      <trkpt lat="45.93672" lon="4.3868">
        <ele>848.4</ele>
        <time>2025-09-09T11:51:59Z</time>
      </trkpt>
      <trkpt lat="45.93669" lon="4.38677">
        <ele>848.4</ele>
        <time>2025-09-09T11:52:00Z</time>
      </trkpt>
      <trkpt lat="45.93665" lon="4.38674">
        <ele>848.4</ele>
        <time>2025-09-09T11:52:01Z</time>
      </trkpt>
      <trkpt lat="45.93662" lon="4.38671">
        <ele>848.4</ele>
        <time>2025-09-09T11:52:02Z</time>
      </trkpt>
      <trkpt lat="45.93659" lon="4.38668">
        <ele>848.6</ele>
        <time>2025-09-09T11:52:03Z</time>
      </trkpt>
      <trkpt lat="45.93656" lon="4.38665">
        <ele>848.6</ele>
        <time>2025-09-09T11:52:04Z</time>
      </trkpt>
      <trkpt lat="45.93654" lon="4.38662">
        <ele>848.6</ele>
        <time>2025-09-09T11:52:05Z</time>
      </trkpt>
      <trkpt lat="45.93651" lon="4.3866">
        <ele>848.8</ele>
        <time>2025-09-09T11:52:06Z</time>
      </trkpt>
      <trkpt lat="45.93648" lon="4.38657">
        <ele>848.8</ele>
        <time>2025-09-09T11:52:07Z</time>
      </trkpt>
      <trkpt lat="45.93646" lon="4.38655">
        <ele>848.8</ele>
        <time>2025-09-09T11:52:08Z</time>
      </trkpt>
      <trkpt lat="45.93644" lon="4.38652">
        <ele>849.4</ele>
        <time>2025-09-09T11:52:09Z</time>
      </trkpt>
      <trkpt lat="45.93642" lon="4.3865">
        <ele>849.4</ele>
        <time>2025-09-09T11:52:10Z</time>
      </trkpt>
      <trkpt lat="45.9364" lon="4.38648">
        <ele>849.4</ele>
        <time>2025-09-09T11:52:11Z</time>
      </trkpt>
      <trkpt lat="45.93637" lon="4.38646">
        <ele>849.4</ele>
        <time>2025-09-09T11:52:12Z</time>
      </trkpt>
      <trkpt lat="45.93635" lon="4.38643">
        <ele>849.6</ele>
        <time>2025-09-09T11:52:13Z</time>
      </trkpt>
      <trkpt lat="45.93633" lon="4.3864">
        <ele>849.6</ele>
        <time>2025-09-09T11:52:14Z</time>
      </trkpt>
      <trkpt lat="45.93631" lon="4.38637">
        <ele>849.4</ele>
        <time>2025-09-09T11:52:15Z</time>
      </trkpt>
      <trkpt lat="45.93628" lon="4.38635">
        <ele>849.2</ele>
        <time>2025-09-09T11:52:16Z</time>
      </trkpt>
      <trkpt lat="45.93626" lon="4.38632">
        <ele>849.2</ele>
        <time>2025-09-09T11:52:17Z</time>
      </trkpt>
      <trkpt lat="45.93624" lon="4.38629">
        <ele>849</ele>
        <time>2025-09-09T11:52:18Z</time>
      </trkpt>
      <trkpt lat="45.93622" lon="4.38624">
        <ele>848.8</ele>
        <time>2025-09-09T11:52:19Z</time>
      </trkpt>
      <trkpt lat="45.93619" lon="4.38621">
        <ele>848.4</ele>
        <time>2025-09-09T11:52:20Z</time>
      </trkpt>
      <trkpt lat="45.93615" lon="4.38618">
        <ele>848.4</ele>
        <time>2025-09-09T11:52:21Z</time>
      </trkpt>
      <trkpt lat="45.93611" lon="4.38615">
        <ele>848.4</ele>
        <time>2025-09-09T11:52:22Z</time>
      </trkpt>
      <trkpt lat="45.93607" lon="4.38609">
        <ele>848.4</ele>
        <time>2025-09-09T11:52:23Z</time>
      </trkpt>
      <trkpt lat="45.93604" lon="4.38604">
        <ele>848.4</ele>
        <time>2025-09-09T11:52:24Z</time>
      </trkpt>
      <trkpt lat="45.93601" lon="4.386">
        <ele>848.4</ele>
        <time>2025-09-09T11:52:25Z</time>
      </trkpt>
      <trkpt lat="45.93599" lon="4.38596">
        <ele>848</ele>
        <time>2025-09-09T11:52:26Z</time>
      </trkpt>
      <trkpt lat="45.93596" lon="4.38592">
        <ele>848</ele>
        <time>2025-09-09T11:52:27Z</time>
      </trkpt>
      <trkpt lat="45.93594" lon="4.38589">
        <ele>848</ele>
        <time>2025-09-09T11:52:28Z</time>
      </trkpt>
      <trkpt lat="45.93591" lon="4.38585">
        <ele>848</ele>
        <time>2025-09-09T11:52:29Z</time>
      </trkpt>
      <trkpt lat="45.9359" lon="4.38581">
        <ele>848</ele>
        <time>2025-09-09T11:52:30Z</time>
      </trkpt>
      <trkpt lat="45.93587" lon="4.38577">
        <ele>847.6</ele>
        <time>2025-09-09T11:52:31Z</time>
      </trkpt>
      <trkpt lat="45.93585" lon="4.38573">
        <ele>847.6</ele>
        <time>2025-09-09T11:52:32Z</time>
      </trkpt>
      <trkpt lat="45.93584" lon="4.38568">
        <ele>847.6</ele>
        <time>2025-09-09T11:52:33Z</time>
      </trkpt>
      <trkpt lat="45.93584" lon="4.38564">
        <ele>847.4</ele>
        <time>2025-09-09T11:52:34Z</time>
      </trkpt>
      <trkpt lat="45.93583" lon="4.38561">
        <ele>847</ele>
        <time>2025-09-09T11:52:35Z</time>
      </trkpt>
      <trkpt lat="45.93582" lon="4.38557">
        <ele>847</ele>
        <time>2025-09-09T11:52:36Z</time>
      </trkpt>
      <trkpt lat="45.93581" lon="4.38553">
        <ele>847</ele>
        <time>2025-09-09T11:52:37Z</time>
      </trkpt>
      <trkpt lat="45.93579" lon="4.38549">
        <ele>846.6</ele>
        <time>2025-09-09T11:52:38Z</time>
      </trkpt>
      <trkpt lat="45.93577" lon="4.38546">
        <ele>846.4</ele>
        <time>2025-09-09T11:52:39Z</time>
      </trkpt>
      <trkpt lat="45.93575" lon="4.38542">
        <ele>845.8</ele>
        <time>2025-09-09T11:52:40Z</time>
      </trkpt>
      <trkpt lat="45.93572" lon="4.38537">
        <ele>845.4</ele>
        <time>2025-09-09T11:52:41Z</time>
      </trkpt>
      <trkpt lat="45.9357" lon="4.38534">
        <ele>845</ele>
        <time>2025-09-09T11:52:42Z</time>
      </trkpt>
      <trkpt lat="45.93569" lon="4.3853">
        <ele>844.8</ele>
        <time>2025-09-09T11:52:43Z</time>
      </trkpt>
      <trkpt lat="45.93567" lon="4.38527">
        <ele>844.8</ele>
        <time>2025-09-09T11:52:44Z</time>
      </trkpt>
      <trkpt lat="45.93565" lon="4.38523">
        <ele>844.4</ele>
        <time>2025-09-09T11:52:45Z</time>
      </trkpt>
      <trkpt lat="45.93564" lon="4.38519">
        <ele>843.8</ele>
        <time>2025-09-09T11:52:46Z</time>
      </trkpt>
      <trkpt lat="45.93562" lon="4.38516">
        <ele>843.4</ele>
        <time>2025-09-09T11:52:47Z</time>
      </trkpt>
      <trkpt lat="45.93561" lon="4.38512">
        <ele>843</ele>
        <time>2025-09-09T11:52:48Z</time>
      </trkpt>
      <trkpt lat="45.93559" lon="4.38508">
        <ele>842.6</ele>
        <time>2025-09-09T11:52:49Z</time>
      </trkpt>
      <trkpt lat="45.93557" lon="4.38503">
        <ele>842</ele>
        <time>2025-09-09T11:52:50Z</time>
      </trkpt>
      <trkpt lat="45.93555" lon="4.38499">
        <ele>841.8</ele>
        <time>2025-09-09T11:52:51Z</time>
      </trkpt>
      <trkpt lat="45.93553" lon="4.38494">
        <ele>841.4</ele>
        <time>2025-09-09T11:52:52Z</time>
      </trkpt>
      <trkpt lat="45.93551" lon="4.38488">
        <ele>841</ele>
        <time>2025-09-09T11:52:53Z</time>
      </trkpt>
      <trkpt lat="45.93548" lon="4.38482">
        <ele>841</ele>
        <time>2025-09-09T11:52:54Z</time>
      </trkpt>
      <trkpt lat="45.93546" lon="4.38476">
        <ele>839.8</ele>
        <time>2025-09-09T11:52:55Z</time>
      </trkpt>
      <trkpt lat="45.93543" lon="4.38472">
        <ele>839.2</ele>
        <time>2025-09-09T11:52:56Z</time>
      </trkpt>
      <trkpt lat="45.93541" lon="4.38466">
        <ele>838.4</ele>
        <time>2025-09-09T11:52:57Z</time>
      </trkpt>
      <trkpt lat="45.93538" lon="4.38461">
        <ele>838.4</ele>
        <time>2025-09-09T11:52:58Z</time>
      </trkpt>
      <trkpt lat="45.93537" lon="4.38456">
        <ele>837.8</ele>
        <time>2025-09-09T11:52:59Z</time>
      </trkpt>
      <trkpt lat="45.93534" lon="4.38452">
        <ele>837.4</ele>
        <time>2025-09-09T11:53:00Z</time>
      </trkpt>
      <trkpt lat="45.93532" lon="4.38448">
        <ele>837.4</ele>
        <time>2025-09-09T11:53:01Z</time>
      </trkpt>
      <trkpt lat="45.9353" lon="4.38444">
        <ele>836.6</ele>
        <time>2025-09-09T11:53:02Z</time>
      </trkpt>
      <trkpt lat="45.93529" lon="4.3844">
        <ele>836.2</ele>
        <time>2025-09-09T11:53:03Z</time>
      </trkpt>
      <trkpt lat="45.93527" lon="4.38438">
        <ele>836</ele>
        <time>2025-09-09T11:53:04Z</time>
      </trkpt>
      <trkpt lat="45.93526" lon="4.38435">
        <ele>835.8</ele>
        <time>2025-09-09T11:53:05Z</time>
      </trkpt>
      <trkpt lat="45.93524" lon="4.38432">
        <ele>835.4</ele>
        <time>2025-09-09T11:53:06Z</time>
      </trkpt>
      <trkpt lat="45.93523" lon="4.38428">
        <ele>835</ele>
        <time>2025-09-09T11:53:07Z</time>
      </trkpt>
      <trkpt lat="45.93522" lon="4.38425">
        <ele>834.6</ele>
        <time>2025-09-09T11:53:08Z</time>
      </trkpt>
      <trkpt lat="45.9352" lon="4.38423">
        <ele>834.6</ele>
        <time>2025-09-09T11:53:09Z</time>
      </trkpt>
      <trkpt lat="45.93519" lon="4.38421">
        <ele>834.2</ele>
        <time>2025-09-09T11:53:10Z</time>
      </trkpt>
      <trkpt lat="45.93517" lon="4.3842">
        <ele>834</ele>
        <time>2025-09-09T11:53:11Z</time>
      </trkpt>
      <trkpt lat="45.93517" lon="4.3842">
        <ele>833.8</ele>
        <time>2025-09-09T11:53:12Z</time>
      </trkpt>
      <trkpt lat="45.93516" lon="4.3842">
        <ele>833.8</ele>
        <time>2025-09-09T11:53:13Z</time>
      </trkpt>
      <trkpt lat="45.93516" lon="4.3842">
        <ele>833.4</ele>
        <time>2025-09-09T11:53:14Z</time>
      </trkpt>
      <trkpt lat="45.93516" lon="4.3842">
        <ele>833.4</ele>
        <time>2025-09-09T11:53:15Z</time>
      </trkpt>
      <trkpt lat="45.93513" lon="4.38419">
        <ele>832.6</ele>
        <time>2025-09-09T11:54:58Z</time>
      </trkpt>
      <trkpt lat="45.93512" lon="4.38416">
        <ele>832.2</ele>
        <time>2025-09-09T11:54:59Z</time>
      </trkpt>
      <trkpt lat="45.9351" lon="4.38413">
        <ele>831.6</ele>
        <time>2025-09-09T11:55:00Z</time>
      </trkpt>
      <trkpt lat="45.93509" lon="4.3841">
        <ele>831</ele>
        <time>2025-09-09T11:55:01Z</time>
      </trkpt>
      <trkpt lat="45.93507" lon="4.38407">
        <ele>831</ele>
        <time>2025-09-09T11:55:02Z</time>
      </trkpt>
      <trkpt lat="45.93506" lon="4.38404">
        <ele>830.8</ele>
        <time>2025-09-09T11:55:03Z</time>
      </trkpt>
      <trkpt lat="45.93506" lon="4.38402">
        <ele>830.2</ele>
        <time>2025-09-09T11:55:04Z</time>
      </trkpt>
      <trkpt lat="45.93505" lon="4.38399">
        <ele>830.2</ele>
        <time>2025-09-09T11:55:05Z</time>
      </trkpt>
      <trkpt lat="45.93504" lon="4.38395">
        <ele>829.6</ele>
        <time>2025-09-09T11:55:06Z</time>
      </trkpt>
      <trkpt lat="45.93503" lon="4.3839">
        <ele>829.6</ele>
        <time>2025-09-09T11:55:07Z</time>
      </trkpt>
      <trkpt lat="45.93502" lon="4.38385">
        <ele>829.4</ele>
        <time>2025-09-09T11:55:08Z</time>
      </trkpt>
      <trkpt lat="45.93501" lon="4.38382">
        <ele>829.2</ele>
        <time>2025-09-09T11:55:09Z</time>
      </trkpt>
      <trkpt lat="45.935" lon="4.38379">
        <ele>828.4</ele>
        <time>2025-09-09T11:55:10Z</time>
      </trkpt>
      <trkpt lat="45.93499" lon="4.38375">
        <ele>828.2</ele>
        <time>2025-09-09T11:55:11Z</time>
      </trkpt>
      <trkpt lat="45.93498" lon="4.38372">
        <ele>828.2</ele>
        <time>2025-09-09T11:55:12Z</time>
      </trkpt>
      <trkpt lat="45.93497" lon="4.38369">
        <ele>827.6</ele>
        <time>2025-09-09T11:55:13Z</time>
      </trkpt>
      <trkpt lat="45.93496" lon="4.38366">
        <ele>827</ele>
        <time>2025-09-09T11:55:14Z</time>
      </trkpt>
      <trkpt lat="45.93495" lon="4.38363">
        <ele>826.8</ele>
        <time>2025-09-09T11:55:15Z</time>
      </trkpt>
      <trkpt lat="45.93493" lon="4.3836">
        <ele>826.4</ele>
        <time>2025-09-09T11:55:16Z</time>
      </trkpt>
      <trkpt lat="45.93492" lon="4.38357">
        <ele>826</ele>
        <time>2025-09-09T11:55:17Z</time>
      </trkpt>
      <trkpt lat="45.93491" lon="4.38354">
        <ele>825.4</ele>
        <time>2025-09-09T11:55:18Z</time>
      </trkpt>
      <trkpt lat="45.9349" lon="4.38351">
        <ele>825.4</ele>
        <time>2025-09-09T11:55:19Z</time>
      </trkpt>
      <trkpt lat="45.93488" lon="4.38348">
        <ele>825.2</ele>
        <time>2025-09-09T11:55:20Z</time>
      </trkpt>
      <trkpt lat="45.93487" lon="4.38345">
        <ele>824.4</ele>
        <time>2025-09-09T11:55:21Z</time>
      </trkpt>
      <trkpt lat="45.93486" lon="4.38342">
        <ele>823.8</ele>
        <time>2025-09-09T11:55:22Z</time>
      </trkpt>
      <trkpt lat="45.93485" lon="4.38339">
        <ele>823.4</ele>
        <time>2025-09-09T11:55:23Z</time>
      </trkpt>
      <trkpt lat="45.93484" lon="4.38337">
        <ele>823.4</ele>
        <time>2025-09-09T11:55:24Z</time>
      </trkpt>
      <trkpt lat="45.93483" lon="4.38334">
        <ele>822.8</ele>
        <time>2025-09-09T11:55:25Z</time>
      </trkpt>
      <trkpt lat="45.93482" lon="4.38332">
        <ele>822.2</ele>
        <time>2025-09-09T11:55:26Z</time>
      </trkpt>
      <trkpt lat="45.93481" lon="4.38329">
        <ele>822</ele>
        <time>2025-09-09T11:55:27Z</time>
      </trkpt>
      <trkpt lat="45.9348" lon="4.38327">
        <ele>822</ele>
        <time>2025-09-09T11:55:28Z</time>
      </trkpt>
      <trkpt lat="45.93478" lon="4.38324">
        <ele>821.8</ele>
        <time>2025-09-09T11:55:29Z</time>
      </trkpt>
      <trkpt lat="45.93477" lon="4.38321">
        <ele>821</ele>
        <time>2025-09-09T11:55:30Z</time>
      </trkpt>
      <trkpt lat="45.93476" lon="4.38319">
        <ele>820.8</ele>
        <time>2025-09-09T11:55:31Z</time>
      </trkpt>
      <trkpt lat="45.93475" lon="4.38318">
        <ele>820.4</ele>
        <time>2025-09-09T11:55:32Z</time>
      </trkpt>
      <trkpt lat="45.93473" lon="4.38316">
        <ele>820.4</ele>
        <time>2025-09-09T11:55:33Z</time>
      </trkpt>
      <trkpt lat="45.93472" lon="4.38314">
        <ele>820</ele>
        <time>2025-09-09T11:55:34Z</time>
      </trkpt>
      <trkpt lat="45.9347" lon="4.38312">
        <ele>818.8</ele>
        <time>2025-09-09T11:55:35Z</time>
      </trkpt>
      <trkpt lat="45.93468" lon="4.3831">
        <ele>818.8</ele>
        <time>2025-09-09T11:55:36Z</time>
      </trkpt>
      <trkpt lat="45.93466" lon="4.38307">
        <ele>818.8</ele>
        <time>2025-09-09T11:55:37Z</time>
      </trkpt>
      <trkpt lat="45.93464" lon="4.38304">
        <ele>818.8</ele>
        <time>2025-09-09T11:55:38Z</time>
      </trkpt>
      <trkpt lat="45.93462" lon="4.38301">
        <ele>818.4</ele>
        <time>2025-09-09T11:55:39Z</time>
      </trkpt>
      <trkpt lat="45.93461" lon="4.38298">
        <ele>818</ele>
        <time>2025-09-09T11:55:40Z</time>
      </trkpt>
      <trkpt lat="45.93459" lon="4.38295">
        <ele>817.6</ele>
        <time>2025-09-09T11:55:41Z</time>
      </trkpt>
      <trkpt lat="45.93456" lon="4.38291">
        <ele>817.2</ele>
        <time>2025-09-09T11:55:42Z</time>
      </trkpt>
      <trkpt lat="45.93453" lon="4.38287">
        <ele>816.8</ele>
        <time>2025-09-09T11:55:43Z</time>
      </trkpt>
      <trkpt lat="45.9345" lon="4.38283">
        <ele>817</ele>
        <time>2025-09-09T11:55:44Z</time>
      </trkpt>
      <trkpt lat="45.93446" lon="4.38278">
        <ele>817</ele>
        <time>2025-09-09T11:55:45Z</time>
      </trkpt>
      <trkpt lat="45.93442" lon="4.38273">
        <ele>816.6</ele>
        <time>2025-09-09T11:55:46Z</time>
      </trkpt>
      <trkpt lat="45.93437" lon="4.38268">
        <ele>816</ele>
        <time>2025-09-09T11:55:47Z</time>
      </trkpt>
      <trkpt lat="45.93427" lon="4.38259">
        <ele>815.6</ele>
        <time>2025-09-09T11:55:48Z</time>
      </trkpt>
      <trkpt lat="45.93422" lon="4.38255">
        <ele>815.4</ele>
        <time>2025-09-09T11:55:49Z</time>
      </trkpt>
      <trkpt lat="45.93416" lon="4.3825">
        <ele>815.4</ele>
        <time>2025-09-09T11:55:50Z</time>
      </trkpt>
      <trkpt lat="45.93411" lon="4.38246">
        <ele>815.2</ele>
        <time>2025-09-09T11:55:51Z</time>
      </trkpt>
      <trkpt lat="45.93406" lon="4.38242">
        <ele>814.6</ele>
        <time>2025-09-09T11:55:52Z</time>
      </trkpt>
      <trkpt lat="45.93401" lon="4.38238">
        <ele>814.6</ele>
        <time>2025-09-09T11:55:53Z</time>
      </trkpt>
      <trkpt lat="45.93399" lon="4.38234">
        <ele>814.6</ele>
        <time>2025-09-09T11:55:54Z</time>
      </trkpt>
      <trkpt lat="45.93396" lon="4.38231">
        <ele>814</ele>
        <time>2025-09-09T11:55:55Z</time>
      </trkpt>
      <trkpt lat="45.93393" lon="4.38227">
        <ele>814</ele>
        <time>2025-09-09T11:55:56Z</time>
      </trkpt>
      <trkpt lat="45.93391" lon="4.38226">
        <ele>814</ele>
        <time>2025-09-09T11:55:57Z</time>
      </trkpt>
      <trkpt lat="45.93389" lon="4.38225">
        <ele>813.8</ele>
        <time>2025-09-09T11:55:58Z</time>
      </trkpt>
      <trkpt lat="45.93386" lon="4.38223">
        <ele>813.8</ele>
        <time>2025-09-09T11:55:59Z</time>
      </trkpt>
      <trkpt lat="45.93383" lon="4.38221">
        <ele>813.8</ele>
        <time>2025-09-09T11:56:00Z</time>
      </trkpt>
      <trkpt lat="45.9338" lon="4.38219">
        <ele>813.6</ele>
        <time>2025-09-09T11:56:01Z</time>
      </trkpt>
      <trkpt lat="45.93378" lon="4.38216">
        <ele>813.6</ele>
        <time>2025-09-09T11:56:02Z</time>
      </trkpt>
      <trkpt lat="45.93374" lon="4.38214">
        <ele>813.2</ele>
        <time>2025-09-09T11:56:03Z</time>
      </trkpt>
      <trkpt lat="45.93372" lon="4.38211">
        <ele>813.2</ele>
        <time>2025-09-09T11:56:04Z</time>
      </trkpt>
      <trkpt lat="45.9337" lon="4.38209">
        <ele>813.2</ele>
        <time>2025-09-09T11:56:05Z</time>
      </trkpt>
      <trkpt lat="45.93368" lon="4.38206">
        <ele>813.2</ele>
        <time>2025-09-09T11:56:06Z</time>
      </trkpt>
      <trkpt lat="45.93366" lon="4.38204">
        <ele>814</ele>
        <time>2025-09-09T11:56:07Z</time>
      </trkpt>
      <trkpt lat="45.93364" lon="4.38202">
        <ele>813.6</ele>
        <time>2025-09-09T11:56:08Z</time>
      </trkpt>
      <trkpt lat="45.93361" lon="4.382">
        <ele>813.6</ele>
        <time>2025-09-09T11:56:09Z</time>
      </trkpt>
      <trkpt lat="45.93358" lon="4.38199">
        <ele>813.4</ele>
        <time>2025-09-09T11:56:10Z</time>
      </trkpt>
      <trkpt lat="45.93354" lon="4.38197">
        <ele>813.4</ele>
        <time>2025-09-09T11:56:11Z</time>
      </trkpt>
      <trkpt lat="45.93351" lon="4.38194">
        <ele>813.4</ele>
        <time>2025-09-09T11:56:12Z</time>
      </trkpt>
      <trkpt lat="45.93348" lon="4.38192">
        <ele>812.8</ele>
        <time>2025-09-09T11:56:13Z</time>
      </trkpt>
      <trkpt lat="45.93345" lon="4.3819">
        <ele>812.8</ele>
        <time>2025-09-09T11:56:14Z</time>
      </trkpt>
      <trkpt lat="45.93343" lon="4.38188">
        <ele>812</ele>
        <time>2025-09-09T11:56:15Z</time>
      </trkpt>
      <trkpt lat="45.93341" lon="4.38185">
        <ele>811.4</ele>
        <time>2025-09-09T11:56:16Z</time>
      </trkpt>
      <trkpt lat="45.93339" lon="4.38184">
        <ele>811</ele>
        <time>2025-09-09T11:56:17Z</time>
      </trkpt>
      <trkpt lat="45.93337" lon="4.38182">
        <ele>810.8</ele>
        <time>2025-09-09T11:56:18Z</time>
      </trkpt>
      <trkpt lat="45.93334" lon="4.3818">
        <ele>810.4</ele>
        <time>2025-09-09T11:56:19Z</time>
      </trkpt>
      <trkpt lat="45.93332" lon="4.38178">
        <ele>810.4</ele>
        <time>2025-09-09T11:56:20Z</time>
      </trkpt>
      <trkpt lat="45.9333" lon="4.38176">
        <ele>810.4</ele>
        <time>2025-09-09T11:56:21Z</time>
      </trkpt>
      <trkpt lat="45.93329" lon="4.38174">
        <ele>810.2</ele>
        <time>2025-09-09T11:56:22Z</time>
      </trkpt>
      <trkpt lat="45.93327" lon="4.38172">
        <ele>810.2</ele>
        <time>2025-09-09T11:56:23Z</time>
      </trkpt>
      <trkpt lat="45.93325" lon="4.38171">
        <ele>810.4</ele>
        <time>2025-09-09T11:56:24Z</time>
      </trkpt>
      <trkpt lat="45.93323" lon="4.3817">
        <ele>810.4</ele>
        <time>2025-09-09T11:56:25Z</time>
      </trkpt>
      <trkpt lat="45.93322" lon="4.3817">
        <ele>809.8</ele>
        <time>2025-09-09T11:56:26Z</time>
      </trkpt>
      <trkpt lat="45.93322" lon="4.3817">
        <ele>809.8</ele>
        <time>2025-09-09T11:56:27Z</time>
      </trkpt>
      <trkpt lat="45.93322" lon="4.3817">
        <ele>809.6</ele>
        <time>2025-09-09T11:56:28Z</time>
      </trkpt>
      <trkpt lat="45.93322" lon="4.3817">
        <ele>809.6</ele>
        <time>2025-09-09T11:56:29Z</time>
      </trkpt>
      <trkpt lat="45.93322" lon="4.38167">
        <ele>808.8</ele>
        <time>2025-09-09T11:56:41Z</time>
      </trkpt>
      <trkpt lat="45.93321" lon="4.38166">
        <ele>808.6</ele>
        <time>2025-09-09T11:56:42Z</time>
      </trkpt>
      <trkpt lat="45.93319" lon="4.38164">
        <ele>808.6</ele>
        <time>2025-09-09T11:56:43Z</time>
      </trkpt>
      <trkpt lat="45.93317" lon="4.38162">
        <ele>808.6</ele>
        <time>2025-09-09T11:56:44Z</time>
      </trkpt>
      <trkpt lat="45.93314" lon="4.38161">
        <ele>808.6</ele>
        <time>2025-09-09T11:56:45Z</time>
      </trkpt>
      <trkpt lat="45.93311" lon="4.38159">
        <ele>808.2</ele>
        <time>2025-09-09T11:56:46Z</time>
      </trkpt>
      <trkpt lat="45.93308" lon="4.38156">
        <ele>807.8</ele>
        <time>2025-09-09T11:56:47Z</time>
      </trkpt>
      <trkpt lat="45.93305" lon="4.38154">
        <ele>807.6</ele>
        <time>2025-09-09T11:56:48Z</time>
      </trkpt>
      <trkpt lat="45.93302" lon="4.38151">
        <ele>807.6</ele>
        <time>2025-09-09T11:56:49Z</time>
      </trkpt>
      <trkpt lat="45.93299" lon="4.38149">
        <ele>807</ele>
        <time>2025-09-09T11:56:50Z</time>
      </trkpt>
      <trkpt lat="45.93295" lon="4.38147">
        <ele>807</ele>
        <time>2025-09-09T11:56:51Z</time>
      </trkpt>
      <trkpt lat="45.93292" lon="4.38145">
        <ele>807</ele>
        <time>2025-09-09T11:56:52Z</time>
      </trkpt>
      <trkpt lat="45.93289" lon="4.38143">
        <ele>806.6</ele>
        <time>2025-09-09T11:56:53Z</time>
      </trkpt>
      <trkpt lat="45.93286" lon="4.3814">
        <ele>806.6</ele>
        <time>2025-09-09T11:56:54Z</time>
      </trkpt>
      <trkpt lat="45.93282" lon="4.38138">
        <ele>806.6</ele>
        <time>2025-09-09T11:56:55Z</time>
      </trkpt>
      <trkpt lat="45.93279" lon="4.38136">
        <ele>806.2</ele>
        <time>2025-09-09T11:56:56Z</time>
      </trkpt>
      <trkpt lat="45.93275" lon="4.38135">
        <ele>806.2</ele>
        <time>2025-09-09T11:56:57Z</time>
      </trkpt>
      <trkpt lat="45.93271" lon="4.38136">
        <ele>806.2</ele>
        <time>2025-09-09T11:56:58Z</time>
      </trkpt>
      <trkpt lat="45.93266" lon="4.38135">
        <ele>806.2</ele>
        <time>2025-09-09T11:56:59Z</time>
      </trkpt>
      <trkpt lat="45.93262" lon="4.38134">
        <ele>806.2</ele>
        <time>2025-09-09T11:57:00Z</time>
      </trkpt>
      <trkpt lat="45.93258" lon="4.38132">
        <ele>805.8</ele>
        <time>2025-09-09T11:57:01Z</time>
      </trkpt>
      <trkpt lat="45.93255" lon="4.38132">
        <ele>805.8</ele>
        <time>2025-09-09T11:57:02Z</time>
      </trkpt>
      <trkpt lat="45.93251" lon="4.38132">
        <ele>805.8</ele>
        <time>2025-09-09T11:57:03Z</time>
      </trkpt>
      <trkpt lat="45.93248" lon="4.38132">
        <ele>806</ele>
        <time>2025-09-09T11:57:04Z</time>
      </trkpt>
      <trkpt lat="45.93245" lon="4.38131">
        <ele>806.6</ele>
        <time>2025-09-09T11:57:05Z</time>
      </trkpt>
      <trkpt lat="45.93241" lon="4.38131">
        <ele>806.6</ele>
        <time>2025-09-09T11:57:06Z</time>
      </trkpt>
      <trkpt lat="45.93238" lon="4.38132">
        <ele>806.2</ele>
        <time>2025-09-09T11:57:07Z</time>
      </trkpt>
      <trkpt lat="45.93235" lon="4.38131">
        <ele>806.2</ele>
        <time>2025-09-09T11:57:08Z</time>
      </trkpt>
      <trkpt lat="45.93232" lon="4.38131">
        <ele>807</ele>
        <time>2025-09-09T11:57:09Z</time>
      </trkpt>
      <trkpt lat="45.93229" lon="4.38131">
        <ele>806.8</ele>
        <time>2025-09-09T11:57:10Z</time>
      </trkpt>
      <trkpt lat="45.93226" lon="4.3813">
        <ele>806.8</ele>
        <time>2025-09-09T11:57:11Z</time>
      </trkpt>
      <trkpt lat="45.93222" lon="4.38129">
        <ele>806.8</ele>
        <time>2025-09-09T11:57:12Z</time>
      </trkpt>
      <trkpt lat="45.93219" lon="4.38128">
        <ele>806.8</ele>
        <time>2025-09-09T11:57:13Z</time>
      </trkpt>
      <trkpt lat="45.93215" lon="4.38127">
        <ele>806.4</ele>
        <time>2025-09-09T11:57:14Z</time>
      </trkpt>
      <trkpt lat="45.93212" lon="4.38127">
        <ele>806.6</ele>
        <time>2025-09-09T11:57:15Z</time>
      </trkpt>
      <trkpt lat="45.93209" lon="4.38127">
        <ele>806.4</ele>
        <time>2025-09-09T11:57:16Z</time>
      </trkpt>
      <trkpt lat="45.93207" lon="4.38127">
        <ele>805.4</ele>
        <time>2025-09-09T11:57:17Z</time>
      </trkpt>
      <trkpt lat="45.93207" lon="4.38127">
        <ele>805.4</ele>
        <time>2025-09-09T11:57:18Z</time>
      </trkpt>
      <trkpt lat="45.93207" lon="4.38127">
        <ele>805.4</ele>
        <time>2025-09-09T11:57:19Z</time>
      </trkpt>
      <trkpt lat="45.93193" lon="4.38126">
        <ele>805.4</ele>
        <time>2025-09-09T11:57:21Z</time>
      </trkpt>
      <trkpt lat="45.9319" lon="4.38126">
        <ele>805.2</ele>
        <time>2025-09-09T11:57:22Z</time>
      </trkpt>
      <trkpt lat="45.93187" lon="4.38126">
        <ele>805.2</ele>
        <time>2025-09-09T11:57:23Z</time>
      </trkpt>
      <trkpt lat="45.93184" lon="4.38124">
        <ele>804.2</ele>
        <time>2025-09-09T11:57:24Z</time>
      </trkpt>
      <trkpt lat="45.93181" lon="4.38122">
        <ele>804.2</ele>
        <time>2025-09-09T11:57:25Z</time>
      </trkpt>
      <trkpt lat="45.93179" lon="4.38119">
        <ele>804.2</ele>
        <time>2025-09-09T11:57:26Z</time>
      </trkpt>
      <trkpt lat="45.93176" lon="4.38116">
        <ele>803.6</ele>
        <time>2025-09-09T11:57:27Z</time>
      </trkpt>
      <trkpt lat="45.93173" lon="4.38112">
        <ele>803</ele>
        <time>2025-09-09T11:57:28Z</time>
      </trkpt>
      <trkpt lat="45.9317" lon="4.38109">
        <ele>802.8</ele>
        <time>2025-09-09T11:57:29Z</time>
      </trkpt>
      <trkpt lat="45.93167" lon="4.38107">
        <ele>802.4</ele>
        <time>2025-09-09T11:57:30Z</time>
      </trkpt>
      <trkpt lat="45.93165" lon="4.38106">
        <ele>802.2</ele>
        <time>2025-09-09T11:57:31Z</time>
      </trkpt>
      <trkpt lat="45.93163" lon="4.38104">
        <ele>802.2</ele>
        <time>2025-09-09T11:57:32Z</time>
      </trkpt>
      <trkpt lat="45.93161" lon="4.38103">
        <ele>801.8</ele>
        <time>2025-09-09T11:57:33Z</time>
      </trkpt>
      <trkpt lat="45.93159" lon="4.38101">
        <ele>801.4</ele>
        <time>2025-09-09T11:57:34Z</time>
      </trkpt>
      <trkpt lat="45.93156" lon="4.381">
        <ele>801.4</ele>
        <time>2025-09-09T11:57:35Z</time>
      </trkpt>
      <trkpt lat="45.93154" lon="4.38099">
        <ele>801</ele>
        <time>2025-09-09T11:57:36Z</time>
      </trkpt>
      <trkpt lat="45.93151" lon="4.38097">
        <ele>801</ele>
        <time>2025-09-09T11:57:37Z</time>
      </trkpt>
      <trkpt lat="45.93148" lon="4.38096">
        <ele>800.2</ele>
        <time>2025-09-09T11:57:38Z</time>
      </trkpt>
      <trkpt lat="45.93146" lon="4.38094">
        <ele>799.8</ele>
        <time>2025-09-09T11:57:39Z</time>
      </trkpt>
      <trkpt lat="45.93145" lon="4.38092">
        <ele>799.2</ele>
        <time>2025-09-09T11:57:40Z</time>
      </trkpt>
      <trkpt lat="45.93142" lon="4.3809">
        <ele>798.2</ele>
        <time>2025-09-09T11:57:41Z</time>
      </trkpt>
      <trkpt lat="45.93142" lon="4.3809">
        <ele>797.6</ele>
        <time>2025-09-09T11:57:42Z</time>
      </trkpt>
      <trkpt lat="45.93139" lon="4.38087">
        <ele>797.4</ele>
        <time>2025-09-09T11:57:43Z</time>
      </trkpt>
      <trkpt lat="45.93139" lon="4.38088">
        <ele>797</ele>
        <time>2025-09-09T11:57:44Z</time>
      </trkpt>
      <trkpt lat="45.93139" lon="4.38088">
        <ele>796</ele>
        <time>2025-09-09T11:57:51Z</time>
      </trkpt>
      <trkpt lat="45.93138" lon="4.38087">
        <ele>796</ele>
        <time>2025-09-09T11:57:52Z</time>
      </trkpt>
      <trkpt lat="45.93135" lon="4.38085">
        <ele>796</ele>
        <time>2025-09-09T11:57:53Z</time>
      </trkpt>
      <trkpt lat="45.93132" lon="4.38083">
        <ele>795.4</ele>
        <time>2025-09-09T11:57:54Z</time>
      </trkpt>
      <trkpt lat="45.93129" lon="4.38081">
        <ele>795.4</ele>
        <time>2025-09-09T11:57:55Z</time>
      </trkpt>
      <trkpt lat="45.93126" lon="4.38079">
        <ele>795</ele>
        <time>2025-09-09T11:57:56Z</time>
      </trkpt>
      <trkpt lat="45.93123" lon="4.38077">
        <ele>794.2</ele>
        <time>2025-09-09T11:57:57Z</time>
      </trkpt>
      <trkpt lat="45.93121" lon="4.38076">
        <ele>793.6</ele>
        <time>2025-09-09T11:57:58Z</time>
      </trkpt>
      <trkpt lat="45.93118" lon="4.38075">
        <ele>792.6</ele>
        <time>2025-09-09T11:57:59Z</time>
      </trkpt>
      <trkpt lat="45.93115" lon="4.38073">
        <ele>792.4</ele>
        <time>2025-09-09T11:58:00Z</time>
      </trkpt>
      <trkpt lat="45.93112" lon="4.38072">
        <ele>792</ele>
        <time>2025-09-09T11:58:01Z</time>
      </trkpt>
      <trkpt lat="45.9311" lon="4.38072">
        <ele>791.8</ele>
        <time>2025-09-09T11:58:02Z</time>
      </trkpt>
      <trkpt lat="45.93108" lon="4.3807">
        <ele>791.8</ele>
        <time>2025-09-09T11:58:03Z</time>
      </trkpt>
      <trkpt lat="45.93106" lon="4.38068">
        <ele>791.2</ele>
        <time>2025-09-09T11:58:04Z</time>
      </trkpt>
      <trkpt lat="45.93104" lon="4.38067">
        <ele>790.8</ele>
        <time>2025-09-09T11:58:05Z</time>
      </trkpt>
      <trkpt lat="45.931" lon="4.38066">
        <ele>790.2</ele>
        <time>2025-09-09T11:58:06Z</time>
      </trkpt>
      <trkpt lat="45.93098" lon="4.38065">
        <ele>790</ele>
        <time>2025-09-09T11:58:07Z</time>
      </trkpt>
      <trkpt lat="45.93095" lon="4.38065">
        <ele>790</ele>
        <time>2025-09-09T11:58:08Z</time>
      </trkpt>
      <trkpt lat="45.93092" lon="4.38064">
        <ele>789.8</ele>
        <time>2025-09-09T11:58:09Z</time>
      </trkpt>
      <trkpt lat="45.93089" lon="4.38063">
        <ele>789.4</ele>
        <time>2025-09-09T11:58:10Z</time>
      </trkpt>
      <trkpt lat="45.93087" lon="4.38062">
        <ele>789</ele>
        <time>2025-09-09T11:58:11Z</time>
      </trkpt>
      <trkpt lat="45.93085" lon="4.38062">
        <ele>788.6</ele>
        <time>2025-09-09T11:58:12Z</time>
      </trkpt>
      <trkpt lat="45.93082" lon="4.38061">
        <ele>788.4</ele>
        <time>2025-09-09T11:58:13Z</time>
      </trkpt>
      <trkpt lat="45.9308" lon="4.3806">
        <ele>787.8</ele>
        <time>2025-09-09T11:58:14Z</time>
      </trkpt>
      <trkpt lat="45.93077" lon="4.38059">
        <ele>787.2</ele>
        <time>2025-09-09T11:58:15Z</time>
      </trkpt>
      <trkpt lat="45.93075" lon="4.38058">
        <ele>786.8</ele>
        <time>2025-09-09T11:58:16Z</time>
      </trkpt>
      <trkpt lat="45.93074" lon="4.38057">
        <ele>786.2</ele>
        <time>2025-09-09T11:58:17Z</time>
      </trkpt>
      <trkpt lat="45.93071" lon="4.38056">
        <ele>785.8</ele>
        <time>2025-09-09T11:58:18Z</time>
      </trkpt>
      <trkpt lat="45.93068" lon="4.38055">
        <ele>785.4</ele>
        <time>2025-09-09T11:58:19Z</time>
      </trkpt>
      <trkpt lat="45.93065" lon="4.38055">
        <ele>785</ele>
        <time>2025-09-09T11:58:20Z</time>
      </trkpt>
      <trkpt lat="45.93063" lon="4.38055">
        <ele>784.6</ele>
        <time>2025-09-09T11:58:21Z</time>
      </trkpt>
      <trkpt lat="45.93061" lon="4.38055">
        <ele>783.8</ele>
        <time>2025-09-09T11:58:22Z</time>
      </trkpt>
      <trkpt lat="45.93059" lon="4.38055">
        <ele>783</ele>
        <time>2025-09-09T11:58:23Z</time>
      </trkpt>
      <trkpt lat="45.93057" lon="4.38054">
        <ele>782.6</ele>
        <time>2025-09-09T11:58:24Z</time>
      </trkpt>
      <trkpt lat="45.93054" lon="4.38054">
        <ele>781.6</ele>
        <time>2025-09-09T11:58:25Z</time>
      </trkpt>
      <trkpt lat="45.93052" lon="4.38053">
        <ele>781</ele>
        <time>2025-09-09T11:58:26Z</time>
      </trkpt>
      <trkpt lat="45.93049" lon="4.38052">
        <ele>780.8</ele>
        <time>2025-09-09T11:58:27Z</time>
      </trkpt>
      <trkpt lat="45.93047" lon="4.38051">
        <ele>780.8</ele>
        <time>2025-09-09T11:58:28Z</time>
      </trkpt>
      <trkpt lat="45.93045" lon="4.3805">
        <ele>780.8</ele>
        <time>2025-09-09T11:58:29Z</time>
      </trkpt>
      <trkpt lat="45.93043" lon="4.38048">
        <ele>780.2</ele>
        <time>2025-09-09T11:58:30Z</time>
      </trkpt>
      <trkpt lat="45.93041" lon="4.38047">
        <ele>780.6</ele>
        <time>2025-09-09T11:58:31Z</time>
      </trkpt>
      <trkpt lat="45.93039" lon="4.38046">
        <ele>780.2</ele>
        <time>2025-09-09T11:58:32Z</time>
      </trkpt>
      <trkpt lat="45.93036" lon="4.38045">
        <ele>780</ele>
        <time>2025-09-09T11:58:33Z</time>
      </trkpt>
      <trkpt lat="45.93034" lon="4.38045">
        <ele>780</ele>
        <time>2025-09-09T11:58:34Z</time>
      </trkpt>
      <trkpt lat="45.93032" lon="4.38044">
        <ele>779</ele>
        <time>2025-09-09T11:58:35Z</time>
      </trkpt>
      <trkpt lat="45.93029" lon="4.38042">
        <ele>778.4</ele>
        <time>2025-09-09T11:58:36Z</time>
      </trkpt>
      <trkpt lat="45.93027" lon="4.3804">
        <ele>778.4</ele>
        <time>2025-09-09T11:58:37Z</time>
      </trkpt>
      <trkpt lat="45.93024" lon="4.38039">
        <ele>777.8</ele>
        <time>2025-09-09T11:58:38Z</time>
      </trkpt>
      <trkpt lat="45.93021" lon="4.38036">
        <ele>777.4</ele>
        <time>2025-09-09T11:58:39Z</time>
      </trkpt>
      <trkpt lat="45.93018" lon="4.38034">
        <ele>777</ele>
        <time>2025-09-09T11:58:40Z</time>
      </trkpt>
      <trkpt lat="45.93014" lon="4.38032">
        <ele>777</ele>
        <time>2025-09-09T11:58:41Z</time>
      </trkpt>
      <trkpt lat="45.93011" lon="4.3803">
        <ele>776.6</ele>
        <time>2025-09-09T11:58:42Z</time>
      </trkpt>
      <trkpt lat="45.93009" lon="4.38027">
        <ele>776.2</ele>
        <time>2025-09-09T11:58:43Z</time>
      </trkpt>
      <trkpt lat="45.93007" lon="4.38025">
        <ele>775.2</ele>
        <time>2025-09-09T11:58:44Z</time>
      </trkpt>
      <trkpt lat="45.93005" lon="4.38023">
        <ele>774.8</ele>
        <time>2025-09-09T11:58:45Z</time>
      </trkpt>
      <trkpt lat="45.93004" lon="4.38021">
        <ele>774.8</ele>
        <time>2025-09-09T11:58:46Z</time>
      </trkpt>
      <trkpt lat="45.93002" lon="4.3802">
        <ele>774.4</ele>
        <time>2025-09-09T11:58:47Z</time>
      </trkpt>
      <trkpt lat="45.93" lon="4.38018">
        <ele>773.8</ele>
        <time>2025-09-09T11:58:48Z</time>
      </trkpt>
      <trkpt lat="45.92997" lon="4.38016">
        <ele>773.8</ele>
        <time>2025-09-09T11:58:49Z</time>
      </trkpt>
      <trkpt lat="45.92995" lon="4.38014">
        <ele>773.2</ele>
        <time>2025-09-09T11:58:50Z</time>
      </trkpt>
      <trkpt lat="45.92993" lon="4.38013">
        <ele>772.8</ele>
        <time>2025-09-09T11:58:51Z</time>
      </trkpt>
      <trkpt lat="45.92991" lon="4.38011">
        <ele>772.4</ele>
        <time>2025-09-09T11:58:52Z</time>
      </trkpt>
      <trkpt lat="45.92989" lon="4.38009">
        <ele>772</ele>
        <time>2025-09-09T11:58:53Z</time>
      </trkpt>
      <trkpt lat="45.92987" lon="4.38008">
        <ele>771.8</ele>
        <time>2025-09-09T11:58:54Z</time>
      </trkpt>
      <trkpt lat="45.92986" lon="4.38006">
        <ele>771.8</ele>
        <time>2025-09-09T11:58:55Z</time>
      </trkpt>
      <trkpt lat="45.92984" lon="4.38005">
        <ele>771.4</ele>
        <time>2025-09-09T11:58:56Z</time>
      </trkpt>
      <trkpt lat="45.92981" lon="4.38002">
        <ele>770.8</ele>
        <time>2025-09-09T11:58:57Z</time>
      </trkpt>
      <trkpt lat="45.92979" lon="4.38">
        <ele>770.6</ele>
        <time>2025-09-09T11:58:58Z</time>
      </trkpt>
      <trkpt lat="45.92976" lon="4.37998">
        <ele>770</ele>
        <time>2025-09-09T11:58:59Z</time>
      </trkpt>
      <trkpt lat="45.92973" lon="4.37996">
        <ele>769.2</ele>
        <time>2025-09-09T11:59:00Z</time>
      </trkpt>
      <trkpt lat="45.9297" lon="4.37994">
        <ele>768.6</ele>
        <time>2025-09-09T11:59:01Z</time>
      </trkpt>
      <trkpt lat="45.92967" lon="4.37993">
        <ele>768.6</ele>
        <time>2025-09-09T11:59:02Z</time>
      </trkpt>
      <trkpt lat="45.92966" lon="4.37992">
        <ele>767.8</ele>
        <time>2025-09-09T11:59:03Z</time>
      </trkpt>
      <trkpt lat="45.92964" lon="4.37992">
        <ele>767.6</ele>
        <time>2025-09-09T11:59:04Z</time>
      </trkpt>
      <trkpt lat="45.92962" lon="4.37991">
        <ele>767.2</ele>
        <time>2025-09-09T11:59:05Z</time>
      </trkpt>
      <trkpt lat="45.9296" lon="4.3799">
        <ele>766.6</ele>
        <time>2025-09-09T11:59:06Z</time>
      </trkpt>
      <trkpt lat="45.92958" lon="4.37989">
        <ele>766</ele>
        <time>2025-09-09T11:59:07Z</time>
      </trkpt>
      <trkpt lat="45.92957" lon="4.37988">
        <ele>765.6</ele>
        <time>2025-09-09T11:59:08Z</time>
      </trkpt>
      <trkpt lat="45.92955" lon="4.37987">
        <ele>765.6</ele>
        <time>2025-09-09T11:59:09Z</time>
      </trkpt>
      <trkpt lat="45.92952" lon="4.37986">
        <ele>765.2</ele>
        <time>2025-09-09T11:59:10Z</time>
      </trkpt>
      <trkpt lat="45.9295" lon="4.37985">
        <ele>765</ele>
        <time>2025-09-09T11:59:11Z</time>
      </trkpt>
      <trkpt lat="45.92949" lon="4.37984">
        <ele>764.6</ele>
        <time>2025-09-09T11:59:12Z</time>
      </trkpt>
      <trkpt lat="45.92949" lon="4.37983">
        <ele>764.6</ele>
        <time>2025-09-09T11:59:13Z</time>
      </trkpt>
      <trkpt lat="45.92948" lon="4.37983">
        <ele>764.4</ele>
        <time>2025-09-09T11:59:14Z</time>
      </trkpt>
      <trkpt lat="45.92947" lon="4.37983">
        <ele>763.4</ele>
        <time>2025-09-09T11:59:22Z</time>
      </trkpt>
      <trkpt lat="45.92945" lon="4.37981">
        <ele>763.4</ele>
        <time>2025-09-09T11:59:23Z</time>
      </trkpt>
      <trkpt lat="45.92943" lon="4.37979">
        <ele>763</ele>
        <time>2025-09-09T11:59:24Z</time>
      </trkpt>
      <trkpt lat="45.92941" lon="4.37977">
        <ele>762.6</ele>
        <time>2025-09-09T11:59:25Z</time>
      </trkpt>
      <trkpt lat="45.92939" lon="4.37975">
        <ele>762.6</ele>
        <time>2025-09-09T11:59:26Z</time>
      </trkpt>
      <trkpt lat="45.92937" lon="4.37973">
        <ele>762.2</ele>
        <time>2025-09-09T11:59:27Z</time>
      </trkpt>
      <trkpt lat="45.92934" lon="4.37971">
        <ele>761.8</ele>
        <time>2025-09-09T11:59:28Z</time>
      </trkpt>
      <trkpt lat="45.92932" lon="4.37969">
        <ele>761.2</ele>
        <time>2025-09-09T11:59:29Z</time>
      </trkpt>
      <trkpt lat="45.9293" lon="4.37967">
        <ele>761</ele>
        <time>2025-09-09T11:59:30Z</time>
      </trkpt>
      <trkpt lat="45.92928" lon="4.37964">
        <ele>760.4</ele>
        <time>2025-09-09T11:59:31Z</time>
      </trkpt>
      <trkpt lat="45.92926" lon="4.37963">
        <ele>759.8</ele>
        <time>2025-09-09T11:59:32Z</time>
      </trkpt>
      <trkpt lat="45.92924" lon="4.37961">
        <ele>759.4</ele>
        <time>2025-09-09T11:59:33Z</time>
      </trkpt>
      <trkpt lat="45.92922" lon="4.37959">
        <ele>758.8</ele>
        <time>2025-09-09T11:59:34Z</time>
      </trkpt>
      <trkpt lat="45.92921" lon="4.37957">
        <ele>758.2</ele>
        <time>2025-09-09T11:59:35Z</time>
      </trkpt>
      <trkpt lat="45.9292" lon="4.37955">
        <ele>757.6</ele>
        <time>2025-09-09T11:59:36Z</time>
      </trkpt>
      <trkpt lat="45.92918" lon="4.37952">
        <ele>756.8</ele>
        <time>2025-09-09T11:59:37Z</time>
      </trkpt>
      <trkpt lat="45.92916" lon="4.3795">
        <ele>756.4</ele>
        <time>2025-09-09T11:59:38Z</time>
      </trkpt>
      <trkpt lat="45.92915" lon="4.37948">
        <ele>756</ele>
        <time>2025-09-09T11:59:39Z</time>
      </trkpt>
      <trkpt lat="45.92913" lon="4.37946">
        <ele>755.6</ele>
        <time>2025-09-09T11:59:40Z</time>
      </trkpt>
      <trkpt lat="45.92912" lon="4.37944">
        <ele>755</ele>
        <time>2025-09-09T11:59:41Z</time>
      </trkpt>
      <trkpt lat="45.92911" lon="4.37942">
        <ele>754.6</ele>
        <time>2025-09-09T11:59:42Z</time>
      </trkpt>
      <trkpt lat="45.92909" lon="4.37941">
        <ele>754.2</ele>
        <time>2025-09-09T11:59:43Z</time>
      </trkpt>
      <trkpt lat="45.92908" lon="4.37939">
        <ele>753.6</ele>
        <time>2025-09-09T11:59:44Z</time>
      </trkpt>
      <trkpt lat="45.92906" lon="4.37937">
        <ele>753.2</ele>
        <time>2025-09-09T11:59:45Z</time>
      </trkpt>
      <trkpt lat="45.92905" lon="4.37936">
        <ele>752.8</ele>
        <time>2025-09-09T11:59:46Z</time>
      </trkpt>
      <trkpt lat="45.92903" lon="4.37934">
        <ele>752.2</ele>
        <time>2025-09-09T11:59:47Z</time>
      </trkpt>
      <trkpt lat="45.92901" lon="4.37932">
        <ele>751.4</ele>
        <time>2025-09-09T11:59:48Z</time>
      </trkpt>
      <trkpt lat="45.929" lon="4.3793">
        <ele>751</ele>
        <time>2025-09-09T11:59:49Z</time>
      </trkpt>
      <trkpt lat="45.92898" lon="4.37929">
        <ele>751</ele>
        <time>2025-09-09T11:59:50Z</time>
      </trkpt>
      <trkpt lat="45.92897" lon="4.37927">
        <ele>750.6</ele>
        <time>2025-09-09T11:59:51Z</time>
      </trkpt>
      <trkpt lat="45.92895" lon="4.37925">
        <ele>750.4</ele>
        <time>2025-09-09T11:59:52Z</time>
      </trkpt>
      <trkpt lat="45.92892" lon="4.37923">
        <ele>750.4</ele>
        <time>2025-09-09T11:59:53Z</time>
      </trkpt>
      <trkpt lat="45.9289" lon="4.37921">
        <ele>750</ele>
        <time>2025-09-09T11:59:54Z</time>
      </trkpt>
      <trkpt lat="45.92888" lon="4.37919">
        <ele>749.6</ele>
        <time>2025-09-09T11:59:55Z</time>
      </trkpt>
      <trkpt lat="45.92888" lon="4.37918">
        <ele>749.2</ele>
        <time>2025-09-09T11:59:56Z</time>
      </trkpt>
      <trkpt lat="45.92887" lon="4.37917">
        <ele>748.8</ele>
        <time>2025-09-09T11:59:57Z</time>
      </trkpt>
      <trkpt lat="45.92886" lon="4.37915">
        <ele>748.2</ele>
        <time>2025-09-09T11:59:58Z</time>
      </trkpt>
      <trkpt lat="45.92885" lon="4.37914">
        <ele>747.6</ele>
        <time>2025-09-09T11:59:59Z</time>
      </trkpt>
      <trkpt lat="45.92884" lon="4.37912">
        <ele>747.6</ele>
        <time>2025-09-09T12:00:00Z</time>
      </trkpt>
      <trkpt lat="45.92883" lon="4.3791">
        <ele>747.4</ele>
        <time>2025-09-09T12:00:01Z</time>
      </trkpt>
      <trkpt lat="45.92882" lon="4.37909">
        <ele>747</ele>
        <time>2025-09-09T12:00:02Z</time>
      </trkpt>
      <trkpt lat="45.92881" lon="4.37908">
        <ele>747</ele>
        <time>2025-09-09T12:00:03Z</time>
      </trkpt>
      <trkpt lat="45.9288" lon="4.37907">
        <ele>746.6</ele>
        <time>2025-09-09T12:00:04Z</time>
      </trkpt>
      <trkpt lat="45.92879" lon="4.37906">
        <ele>746.4</ele>
        <time>2025-09-09T12:00:05Z</time>
      </trkpt>
      <trkpt lat="45.92878" lon="4.37905">
        <ele>746.4</ele>
        <time>2025-09-09T12:00:06Z</time>
      </trkpt>
      <trkpt lat="45.92877" lon="4.37904">
        <ele>745.8</ele>
        <time>2025-09-09T12:00:07Z</time>
      </trkpt>
      <trkpt lat="45.92875" lon="4.37902">
        <ele>745.6</ele>
        <time>2025-09-09T12:00:08Z</time>
      </trkpt>
      <trkpt lat="45.92874" lon="4.37901">
        <ele>744.8</ele>
        <time>2025-09-09T12:00:09Z</time>
      </trkpt>
      <trkpt lat="45.92872" lon="4.379">
        <ele>744.4</ele>
        <time>2025-09-09T12:00:10Z</time>
      </trkpt>
      <trkpt lat="45.92871" lon="4.37898">
        <ele>743.8</ele>
        <time>2025-09-09T12:00:11Z</time>
      </trkpt>
      <trkpt lat="45.9287" lon="4.37897">
        <ele>743.8</ele>
        <time>2025-09-09T12:00:12Z</time>
      </trkpt>
      <trkpt lat="45.9287" lon="4.37896">
        <ele>743.6</ele>
        <time>2025-09-09T12:00:13Z</time>
      </trkpt>
      <trkpt lat="45.9287" lon="4.37896">
        <ele>743.6</ele>
        <time>2025-09-09T12:00:14Z</time>
      </trkpt>
      <trkpt lat="45.9287" lon="4.37896">
        <ele>743.2</ele>
        <time>2025-09-09T12:00:15Z</time>
      </trkpt>
      <trkpt lat="45.92869" lon="4.37897">
        <ele>742.8</ele>
        <time>2025-09-09T12:00:21Z</time>
      </trkpt>
      <trkpt lat="45.92867" lon="4.37896">
        <ele>742.2</ele>
        <time>2025-09-09T12:00:22Z</time>
      </trkpt>
      <trkpt lat="45.92866" lon="4.37896">
        <ele>742.2</ele>
        <time>2025-09-09T12:00:23Z</time>
      </trkpt>
      <trkpt lat="45.92865" lon="4.37895">
        <ele>741.8</ele>
        <time>2025-09-09T12:00:24Z</time>
      </trkpt>
      <trkpt lat="45.92864" lon="4.37895">
        <ele>741.8</ele>
        <time>2025-09-09T12:00:25Z</time>
      </trkpt>
      <trkpt lat="45.92862" lon="4.37893">
        <ele>741.6</ele>
        <time>2025-09-09T12:00:26Z</time>
      </trkpt>
      <trkpt lat="45.92861" lon="4.37892">
        <ele>741.6</ele>
        <time>2025-09-09T12:00:27Z</time>
      </trkpt>
      <trkpt lat="45.9286" lon="4.3789">
        <ele>741.2</ele>
        <time>2025-09-09T12:00:28Z</time>
      </trkpt>
      <trkpt lat="45.92859" lon="4.37889">
        <ele>740.8</ele>
        <time>2025-09-09T12:00:29Z</time>
      </trkpt>
      <trkpt lat="45.92858" lon="4.37887">
        <ele>740.6</ele>
        <time>2025-09-09T12:00:30Z</time>
      </trkpt>
      <trkpt lat="45.92857" lon="4.37886">
        <ele>739.8</ele>
        <time>2025-09-09T12:00:31Z</time>
      </trkpt>
      <trkpt lat="45.92856" lon="4.37885">
        <ele>739.8</ele>
        <time>2025-09-09T12:00:32Z</time>
      </trkpt>
      <trkpt lat="45.92855" lon="4.37884">
        <ele>739.8</ele>
        <time>2025-09-09T12:00:33Z</time>
      </trkpt>
      <trkpt lat="45.92854" lon="4.37883">
        <ele>739.8</ele>
        <time>2025-09-09T12:00:34Z</time>
      </trkpt>
      <trkpt lat="45.92853" lon="4.37881">
        <ele>739.2</ele>
        <time>2025-09-09T12:00:35Z</time>
      </trkpt>
      <trkpt lat="45.92852" lon="4.3788">
        <ele>739</ele>
        <time>2025-09-09T12:00:36Z</time>
      </trkpt>
      <trkpt lat="45.9285" lon="4.37878">
        <ele>739</ele>
        <time>2025-09-09T12:00:37Z</time>
      </trkpt>
      <trkpt lat="45.92849" lon="4.37877">
        <ele>738.8</ele>
        <time>2025-09-09T12:00:38Z</time>
      </trkpt>
      <trkpt lat="45.92848" lon="4.37875">
        <ele>738.8</ele>
        <time>2025-09-09T12:00:39Z</time>
      </trkpt>
      <trkpt lat="45.92847" lon="4.37874">
        <ele>738.8</ele>
        <time>2025-09-09T12:00:40Z</time>
      </trkpt>
      <trkpt lat="45.92846" lon="4.37873">
        <ele>738.2</ele>
        <time>2025-09-09T12:00:41Z</time>
      </trkpt>
      <trkpt lat="45.92845" lon="4.37872">
        <ele>737.8</ele>
        <time>2025-09-09T12:00:42Z</time>
      </trkpt>
      <trkpt lat="45.92844" lon="4.37872">
        <ele>737.8</ele>
        <time>2025-09-09T12:00:43Z</time>
      </trkpt>
      <trkpt lat="45.92842" lon="4.37871">
        <ele>737.2</ele>
        <time>2025-09-09T12:00:44Z</time>
      </trkpt>
      <trkpt lat="45.92841" lon="4.3787">
        <ele>737.2</ele>
        <time>2025-09-09T12:00:45Z</time>
      </trkpt>
      <trkpt lat="45.9284" lon="4.37869">
        <ele>736.8</ele>
        <time>2025-09-09T12:00:46Z</time>
      </trkpt>
      <trkpt lat="45.92839" lon="4.37868">
        <ele>736.4</ele>
        <time>2025-09-09T12:00:47Z</time>
      </trkpt>
      <trkpt lat="45.92838" lon="4.37867">
        <ele>736</ele>
        <time>2025-09-09T12:00:48Z</time>
      </trkpt>
      <trkpt lat="45.92837" lon="4.37865">
        <ele>735.8</ele>
        <time>2025-09-09T12:00:49Z</time>
      </trkpt>
      <trkpt lat="45.92836" lon="4.37865">
        <ele>735.8</ele>
        <time>2025-09-09T12:00:50Z</time>
      </trkpt>
      <trkpt lat="45.92835" lon="4.37864">
        <ele>735.2</ele>
        <time>2025-09-09T12:00:51Z</time>
      </trkpt>
      <trkpt lat="45.92833" lon="4.37864">
        <ele>734.8</ele>
        <time>2025-09-09T12:00:52Z</time>
      </trkpt>
      <trkpt lat="45.92832" lon="4.37863">
        <ele>734.8</ele>
        <time>2025-09-09T12:00:53Z</time>
      </trkpt>
      <trkpt lat="45.92831" lon="4.37863">
        <ele>734.4</ele>
        <time>2025-09-09T12:00:54Z</time>
      </trkpt>
      <trkpt lat="45.92829" lon="4.37862">
        <ele>734</ele>
        <time>2025-09-09T12:00:55Z</time>
      </trkpt>
      <trkpt lat="45.92829" lon="4.37862">
        <ele>734</ele>
        <time>2025-09-09T12:00:56Z</time>
      </trkpt>
      <trkpt lat="45.9283" lon="4.37861">
        <ele>733.8</ele>
        <time>2025-09-09T12:00:57Z</time>
      </trkpt>
      <trkpt lat="45.92833" lon="4.37864">
        <ele>733.6</ele>
        <time>2025-09-09T12:01:44Z</time>
      </trkpt>
      <trkpt lat="45.92833" lon="4.37864">
        <ele>733.6</ele>
        <time>2025-09-09T12:01:45Z</time>
      </trkpt>
      <trkpt lat="45.92832" lon="4.37863">
        <ele>733.4</ele>
        <time>2025-09-09T12:01:50Z</time>
      </trkpt>
      <trkpt lat="45.92831" lon="4.37863">
        <ele>733.2</ele>
        <time>2025-09-09T12:01:51Z</time>
      </trkpt>
      <trkpt lat="45.92829" lon="4.37863">
        <ele>732.6</ele>
        <time>2025-09-09T12:01:52Z</time>
      </trkpt>
      <trkpt lat="45.92826" lon="4.37863">
        <ele>732</ele>
        <time>2025-09-09T12:01:53Z</time>
      </trkpt>
      <trkpt lat="45.92823" lon="4.37863">
        <ele>733.4</ele>
        <time>2025-09-09T12:01:54Z</time>
      </trkpt>
      <trkpt lat="45.9282" lon="4.37862">
        <ele>732.6</ele>
        <time>2025-09-09T12:01:55Z</time>
      </trkpt>
      <trkpt lat="45.92814" lon="4.37859">
        <ele>732</ele>
        <time>2025-09-09T12:01:56Z</time>
      </trkpt>
      <trkpt lat="45.92809" lon="4.37857">
        <ele>731.4</ele>
        <time>2025-09-09T12:01:57Z</time>
      </trkpt>
      <trkpt lat="45.92805" lon="4.37854">
        <ele>730.8</ele>
        <time>2025-09-09T12:01:58Z</time>
      </trkpt>
      <trkpt lat="45.92802" lon="4.37854">
        <ele>730.4</ele>
        <time>2025-09-09T12:01:59Z</time>
      </trkpt>
      <trkpt lat="45.92798" lon="4.37851">
        <ele>730</ele>
        <time>2025-09-09T12:02:00Z</time>
      </trkpt>
      <trkpt lat="45.92795" lon="4.37853">
        <ele>729.4</ele>
        <time>2025-09-09T12:02:01Z</time>
      </trkpt>
      <trkpt lat="45.92792" lon="4.37853">
        <ele>729.2</ele>
        <time>2025-09-09T12:02:02Z</time>
      </trkpt>
      <trkpt lat="45.92788" lon="4.37851">
        <ele>728.4</ele>
        <time>2025-09-09T12:02:03Z</time>
      </trkpt>
      <trkpt lat="45.92786" lon="4.3785">
        <ele>727.8</ele>
        <time>2025-09-09T12:02:04Z</time>
      </trkpt>
      <trkpt lat="45.92782" lon="4.37852">
        <ele>727.4</ele>
        <time>2025-09-09T12:02:05Z</time>
      </trkpt>
      <trkpt lat="45.92778" lon="4.37851">
        <ele>727.4</ele>
        <time>2025-09-09T12:02:06Z</time>
      </trkpt>
      <trkpt lat="45.92773" lon="4.37849">
        <ele>726.8</ele>
        <time>2025-09-09T12:02:07Z</time>
      </trkpt>
      <trkpt lat="45.92768" lon="4.37849">
        <ele>726.2</ele>
        <time>2025-09-09T12:02:08Z</time>
      </trkpt>
      <trkpt lat="45.92764" lon="4.37849">
        <ele>725.8</ele>
        <time>2025-09-09T12:02:09Z</time>
      </trkpt>
      <trkpt lat="45.9276" lon="4.3785">
        <ele>725.8</ele>
        <time>2025-09-09T12:02:10Z</time>
      </trkpt>
      <trkpt lat="45.92756" lon="4.37849">
        <ele>725.4</ele>
        <time>2025-09-09T12:02:11Z</time>
      </trkpt>
      <trkpt lat="45.92752" lon="4.37849">
        <ele>725.4</ele>
        <time>2025-09-09T12:02:12Z</time>
      </trkpt>
      <trkpt lat="45.92749" lon="4.37849">
        <ele>725.2</ele>
        <time>2025-09-09T12:02:13Z</time>
      </trkpt>
      <trkpt lat="45.92746" lon="4.37851">
        <ele>725.2</ele>
        <time>2025-09-09T12:02:14Z</time>
      </trkpt>
      <trkpt lat="45.92741" lon="4.37852">
        <ele>725</ele>
        <time>2025-09-09T12:02:15Z</time>
      </trkpt>
      <trkpt lat="45.92737" lon="4.37853">
        <ele>725</ele>
        <time>2025-09-09T12:02:16Z</time>
      </trkpt>
      <trkpt lat="45.92733" lon="4.37854">
        <ele>724.6</ele>
        <time>2025-09-09T12:02:17Z</time>
      </trkpt>
      <trkpt lat="45.92728" lon="4.37854">
        <ele>724.6</ele>
        <time>2025-09-09T12:02:18Z</time>
      </trkpt>
      <trkpt lat="45.92723" lon="4.37853">
        <ele>724.6</ele>
        <time>2025-09-09T12:02:19Z</time>
      </trkpt>
      <trkpt lat="45.92719" lon="4.37852">
        <ele>724.6</ele>
        <time>2025-09-09T12:02:20Z</time>
      </trkpt>
      <trkpt lat="45.92715" lon="4.37851">
        <ele>724.2</ele>
        <time>2025-09-09T12:02:21Z</time>
      </trkpt>
      <trkpt lat="45.92711" lon="4.37849">
        <ele>724</ele>
        <time>2025-09-09T12:02:22Z</time>
      </trkpt>
      <trkpt lat="45.92708" lon="4.37848">
        <ele>724</ele>
        <time>2025-09-09T12:02:23Z</time>
      </trkpt>
      <trkpt lat="45.92706" lon="4.37846">
        <ele>724</ele>
        <time>2025-09-09T12:02:24Z</time>
      </trkpt>
      <trkpt lat="45.92704" lon="4.37842">
        <ele>724</ele>
        <time>2025-09-09T12:02:25Z</time>
      </trkpt>
      <trkpt lat="45.92702" lon="4.37841">
        <ele>723.8</ele>
        <time>2025-09-09T12:02:26Z</time>
      </trkpt>
      <trkpt lat="45.92701" lon="4.3784">
        <ele>723.8</ele>
        <time>2025-09-09T12:02:27Z</time>
      </trkpt>
      <trkpt lat="45.92699" lon="4.37839">
        <ele>723.8</ele>
        <time>2025-09-09T12:02:28Z</time>
      </trkpt>
      <trkpt lat="45.92697" lon="4.37839">
        <ele>723.8</ele>
        <time>2025-09-09T12:02:29Z</time>
      </trkpt>
      <trkpt lat="45.92696" lon="4.37838">
        <ele>723.8</ele>
        <time>2025-09-09T12:02:30Z</time>
      </trkpt>
      <trkpt lat="45.92694" lon="4.37836">
        <ele>723.8</ele>
        <time>2025-09-09T12:02:31Z</time>
      </trkpt>
      <trkpt lat="45.92693" lon="4.37835">
        <ele>723.8</ele>
        <time>2025-09-09T12:02:32Z</time>
      </trkpt>
      <trkpt lat="45.92692" lon="4.37833">
        <ele>723.8</ele>
        <time>2025-09-09T12:02:33Z</time>
      </trkpt>
      <trkpt lat="45.92691" lon="4.37832">
        <ele>723.8</ele>
        <time>2025-09-09T12:02:34Z</time>
      </trkpt>
      <trkpt lat="45.92689" lon="4.3783">
        <ele>723.8</ele>
        <time>2025-09-09T12:02:35Z</time>
      </trkpt>
      <trkpt lat="45.92688" lon="4.37829">
        <ele>723.8</ele>
        <time>2025-09-09T12:02:36Z</time>
      </trkpt>
      <trkpt lat="45.92687" lon="4.37827">
        <ele>723.8</ele>
        <time>2025-09-09T12:02:37Z</time>
      </trkpt>
      <trkpt lat="45.92687" lon="4.37826">
        <ele>723.8</ele>
        <time>2025-09-09T12:02:38Z</time>
      </trkpt>
      <trkpt lat="45.92687" lon="4.37826">
        <ele>723.8</ele>
        <time>2025-09-09T12:02:39Z</time>
      </trkpt>
      <trkpt lat="45.92687" lon="4.37827">
        <ele>723.8</ele>
        <time>2025-09-09T12:02:40Z</time>
      </trkpt>
      <trkpt lat="45.92686" lon="4.37825">
        <ele>723.6</ele>
        <time>2025-09-09T12:02:45Z</time>
      </trkpt>
      <trkpt lat="45.92685" lon="4.37824">
        <ele>723.6</ele>
        <time>2025-09-09T12:02:46Z</time>
      </trkpt>
      <trkpt lat="45.92684" lon="4.37822">
        <ele>723.6</ele>
        <time>2025-09-09T12:02:47Z</time>
      </trkpt>
      <trkpt lat="45.92684" lon="4.37822">
        <ele>723.6</ele>
        <time>2025-09-09T12:02:48Z</time>
      </trkpt>
      <trkpt lat="45.92683" lon="4.37821">
        <ele>723.6</ele>
        <time>2025-09-09T12:02:49Z</time>
      </trkpt>
      <trkpt lat="45.92681" lon="4.3782">
        <ele>723.6</ele>
        <time>2025-09-09T12:02:50Z</time>
      </trkpt>
      <trkpt lat="45.9268" lon="4.37819">
        <ele>723.6</ele>
        <time>2025-09-09T12:02:51Z</time>
      </trkpt>
      <trkpt lat="45.92678" lon="4.37817">
        <ele>723.8</ele>
        <time>2025-09-09T12:02:52Z</time>
      </trkpt>
      <trkpt lat="45.92677" lon="4.37815">
        <ele>723.8</ele>
        <time>2025-09-09T12:02:53Z</time>
      </trkpt>
      <trkpt lat="45.92676" lon="4.37813">
        <ele>723.8</ele>
        <time>2025-09-09T12:02:54Z</time>
      </trkpt>
      <trkpt lat="45.92675" lon="4.37812">
        <ele>724.2</ele>
        <time>2025-09-09T12:02:55Z</time>
      </trkpt>
      <trkpt lat="45.92675" lon="4.37812">
        <ele>724.2</ele>
        <time>2025-09-09T12:02:56Z</time>
      </trkpt>
      <trkpt lat="45.92675" lon="4.3781">
        <ele>724.6</ele>
        <time>2025-09-09T12:04:54Z</time>
      </trkpt>
      <trkpt lat="45.92675" lon="4.37808">
        <ele>724.6</ele>
        <time>2025-09-09T12:04:55Z</time>
      </trkpt>
      <trkpt lat="45.92674" lon="4.37805">
        <ele>724.6</ele>
        <time>2025-09-09T12:04:56Z</time>
      </trkpt>
      <trkpt lat="45.92674" lon="4.37802">
        <ele>724.6</ele>
        <time>2025-09-09T12:04:57Z</time>
      </trkpt>
      <trkpt lat="45.92673" lon="4.37799">
        <ele>724.4</ele>
        <time>2025-09-09T12:04:58Z</time>
      </trkpt>
      <trkpt lat="45.92672" lon="4.37794">
        <ele>724.4</ele>
        <time>2025-09-09T12:04:59Z</time>
      </trkpt>
      <trkpt lat="45.92671" lon="4.3779">
        <ele>724.4</ele>
        <time>2025-09-09T12:05:00Z</time>
      </trkpt>
      <trkpt lat="45.9267" lon="4.37786">
        <ele>724.4</ele>
        <time>2025-09-09T12:05:01Z</time>
      </trkpt>
      <trkpt lat="45.92668" lon="4.37782">
        <ele>724.6</ele>
        <time>2025-09-09T12:05:02Z</time>
      </trkpt>
      <trkpt lat="45.92666" lon="4.37778">
        <ele>724.6</ele>
        <time>2025-09-09T12:05:03Z</time>
      </trkpt>
      <trkpt lat="45.92664" lon="4.37775">
        <ele>724.6</ele>
        <time>2025-09-09T12:05:04Z</time>
      </trkpt>
      <trkpt lat="45.92662" lon="4.37771">
        <ele>725</ele>
        <time>2025-09-09T12:05:05Z</time>
      </trkpt>
      <trkpt lat="45.9266" lon="4.37768">
        <ele>725</ele>
        <time>2025-09-09T12:05:06Z</time>
      </trkpt>
      <trkpt lat="45.92658" lon="4.37764">
        <ele>725.2</ele>
        <time>2025-09-09T12:05:07Z</time>
      </trkpt>
      <trkpt lat="45.92657" lon="4.3776">
        <ele>725.2</ele>
        <time>2025-09-09T12:05:08Z</time>
      </trkpt>
      <trkpt lat="45.92656" lon="4.37756">
        <ele>725.4</ele>
        <time>2025-09-09T12:05:09Z</time>
      </trkpt>
      <trkpt lat="45.92656" lon="4.37752">
        <ele>725.4</ele>
        <time>2025-09-09T12:05:10Z</time>
      </trkpt>
      <trkpt lat="45.92658" lon="4.37748">
        <ele>725.6</ele>
        <time>2025-09-09T12:05:11Z</time>
      </trkpt>
      <trkpt lat="45.9266" lon="4.37744">
        <ele>725.6</ele>
        <time>2025-09-09T12:05:12Z</time>
      </trkpt>
      <trkpt lat="45.92662" lon="4.3774">
        <ele>725.4</ele>
        <time>2025-09-09T12:05:13Z</time>
      </trkpt>
      <trkpt lat="45.92667" lon="4.37735">
        <ele>725.4</ele>
        <time>2025-09-09T12:05:14Z</time>
      </trkpt>
      <trkpt lat="45.92669" lon="4.37728">
        <ele>724.8</ele>
        <time>2025-09-09T12:05:15Z</time>
      </trkpt>
      <trkpt lat="45.9267" lon="4.3772">
        <ele>724.2</ele>
        <time>2025-09-09T12:05:16Z</time>
      </trkpt>
      <trkpt lat="45.9267" lon="4.37712">
        <ele>723.6</ele>
        <time>2025-09-09T12:05:17Z</time>
      </trkpt>
      <trkpt lat="45.92671" lon="4.37704">
        <ele>723.2</ele>
        <time>2025-09-09T12:05:18Z</time>
      </trkpt>
      <trkpt lat="45.92667" lon="4.37691">
        <ele>722.8</ele>
        <time>2025-09-09T12:05:19Z</time>
      </trkpt>
      <trkpt lat="45.92666" lon="4.37678">
        <ele>722.6</ele>
        <time>2025-09-09T12:05:20Z</time>
      </trkpt>
      <trkpt lat="45.92662" lon="4.37672">
        <ele>722.4</ele>
        <time>2025-09-09T12:05:21Z</time>
      </trkpt>
      <trkpt lat="45.92659" lon="4.37663">
        <ele>722.4</ele>
        <time>2025-09-09T12:05:22Z</time>
      </trkpt>
      <trkpt lat="45.92657" lon="4.37654">
        <ele>722.4</ele>
        <time>2025-09-09T12:05:23Z</time>
      </trkpt>
      <trkpt lat="45.92655" lon="4.37646">
        <ele>722</ele>
        <time>2025-09-09T12:05:24Z</time>
      </trkpt>
      <trkpt lat="45.92652" lon="4.37638">
        <ele>721.6</ele>
        <time>2025-09-09T12:05:25Z</time>
      </trkpt>
      <trkpt lat="45.92649" lon="4.37629">
        <ele>721.6</ele>
        <time>2025-09-09T12:05:26Z</time>
      </trkpt>
      <trkpt lat="45.92646" lon="4.37621">
        <ele>721.2</ele>
        <time>2025-09-09T12:05:27Z</time>
      </trkpt>
      <trkpt lat="45.92644" lon="4.37611">
        <ele>721.2</ele>
        <time>2025-09-09T12:05:28Z</time>
      </trkpt>
      <trkpt lat="45.92642" lon="4.37603">
        <ele>721.2</ele>
        <time>2025-09-09T12:05:29Z</time>
      </trkpt>
      <trkpt lat="45.92639" lon="4.37593">
        <ele>720.8</ele>
        <time>2025-09-09T12:05:30Z</time>
      </trkpt>
      <trkpt lat="45.92636" lon="4.37584">
        <ele>720.4</ele>
        <time>2025-09-09T12:05:31Z</time>
      </trkpt>
      <trkpt lat="45.92634" lon="4.37576">
        <ele>720.4</ele>
        <time>2025-09-09T12:05:32Z</time>
      </trkpt>
      <trkpt lat="45.92632" lon="4.37568">
        <ele>720.4</ele>
        <time>2025-09-09T12:05:33Z</time>
      </trkpt>
      <trkpt lat="45.92629" lon="4.37562">
        <ele>720.4</ele>
        <time>2025-09-09T12:05:34Z</time>
      </trkpt>
      <trkpt lat="45.92627" lon="4.37555">
        <ele>720.4</ele>
        <time>2025-09-09T12:05:35Z</time>
      </trkpt>
      <trkpt lat="45.92624" lon="4.37548">
        <ele>720.2</ele>
        <time>2025-09-09T12:05:36Z</time>
      </trkpt>
      <trkpt lat="45.92621" lon="4.37542">
        <ele>720.2</ele>
        <time>2025-09-09T12:05:37Z</time>
      </trkpt>
      <trkpt lat="45.92619" lon="4.37536">
        <ele>720.4</ele>
        <time>2025-09-09T12:05:38Z</time>
      </trkpt>
      <trkpt lat="45.92617" lon="4.37533">
        <ele>720.4</ele>
        <time>2025-09-09T12:05:39Z</time>
      </trkpt>
      <trkpt lat="45.92615" lon="4.37529">
        <ele>720.4</ele>
        <time>2025-09-09T12:05:40Z</time>
      </trkpt>
      <trkpt lat="45.92612" lon="4.37524">
        <ele>720.4</ele>
        <time>2025-09-09T12:05:41Z</time>
      </trkpt>
      <trkpt lat="45.92609" lon="4.3752">
        <ele>720.8</ele>
        <time>2025-09-09T12:05:42Z</time>
      </trkpt>
      <trkpt lat="45.92605" lon="4.37516">
        <ele>721</ele>
        <time>2025-09-09T12:05:43Z</time>
      </trkpt>
      <trkpt lat="45.92603" lon="4.37512">
        <ele>721.2</ele>
        <time>2025-09-09T12:05:44Z</time>
      </trkpt>
      <trkpt lat="45.926" lon="4.37509">
        <ele>721.6</ele>
        <time>2025-09-09T12:05:45Z</time>
      </trkpt>
      <trkpt lat="45.92597" lon="4.37509">
        <ele>721.8</ele>
        <time>2025-09-09T12:05:46Z</time>
      </trkpt>
      <trkpt lat="45.92594" lon="4.37509">
        <ele>722.2</ele>
        <time>2025-09-09T12:05:47Z</time>
      </trkpt>
      <trkpt lat="45.92592" lon="4.37511">
        <ele>722.4</ele>
        <time>2025-09-09T12:05:48Z</time>
      </trkpt>
      <trkpt lat="45.92591" lon="4.37515">
        <ele>722.6</ele>
        <time>2025-09-09T12:05:49Z</time>
      </trkpt>
      <trkpt lat="45.9259" lon="4.37517">
        <ele>723</ele>
        <time>2025-09-09T12:05:50Z</time>
      </trkpt>
      <trkpt lat="45.92589" lon="4.37519">
        <ele>723.4</ele>
        <time>2025-09-09T12:05:51Z</time>
      </trkpt>
      <trkpt lat="45.92588" lon="4.37521">
        <ele>723.6</ele>
        <time>2025-09-09T12:05:52Z</time>
      </trkpt>
      <trkpt lat="45.92587" lon="4.37523">
        <ele>724</ele>
        <time>2025-09-09T12:05:53Z</time>
      </trkpt>
      <trkpt lat="45.92586" lon="4.37526">
        <ele>724.4</ele>
        <time>2025-09-09T12:05:54Z</time>
      </trkpt>
      <trkpt lat="45.92585" lon="4.37527">
        <ele>724.8</ele>
        <time>2025-09-09T12:05:55Z</time>
      </trkpt>
      <trkpt lat="45.92584" lon="4.37529">
        <ele>725</ele>
        <time>2025-09-09T12:05:56Z</time>
      </trkpt>
      <trkpt lat="45.92583" lon="4.3753">
        <ele>725.2</ele>
        <time>2025-09-09T12:05:57Z</time>
      </trkpt>
      <trkpt lat="45.92583" lon="4.37531">
        <ele>725.2</ele>
        <time>2025-09-09T12:05:58Z</time>
      </trkpt>
      <trkpt lat="45.92582" lon="4.37533">
        <ele>725.6</ele>
        <time>2025-09-09T12:05:59Z</time>
      </trkpt>
      <trkpt lat="45.92581" lon="4.37534">
        <ele>726</ele>
        <time>2025-09-09T12:06:00Z</time>
      </trkpt>
      <trkpt lat="45.9258" lon="4.37534">
        <ele>726</ele>
        <time>2025-09-09T12:06:01Z</time>
      </trkpt>
      <trkpt lat="45.92578" lon="4.37535">
        <ele>726.4</ele>
        <time>2025-09-09T12:06:02Z</time>
      </trkpt>
      <trkpt lat="45.92577" lon="4.37536">
        <ele>726.4</ele>
        <time>2025-09-09T12:06:03Z</time>
      </trkpt>
      <trkpt lat="45.92576" lon="4.37537">
        <ele>726.8</ele>
        <time>2025-09-09T12:06:04Z</time>
      </trkpt>
      <trkpt lat="45.92575" lon="4.37538">
        <ele>726.8</ele>
        <time>2025-09-09T12:06:05Z</time>
      </trkpt>
      <trkpt lat="45.92574" lon="4.37539">
        <ele>727.2</ele>
        <time>2025-09-09T12:06:06Z</time>
      </trkpt>
      <trkpt lat="45.92573" lon="4.37541">
        <ele>727.2</ele>
        <time>2025-09-09T12:06:07Z</time>
      </trkpt>
      <trkpt lat="45.92571" lon="4.37543">
        <ele>727.4</ele>
        <time>2025-09-09T12:06:08Z</time>
      </trkpt>
      <trkpt lat="45.92571" lon="4.37544">
        <ele>727.6</ele>
        <time>2025-09-09T12:06:09Z</time>
      </trkpt>
      <trkpt lat="45.9257" lon="4.37545">
        <ele>727.6</ele>
        <time>2025-09-09T12:06:10Z</time>
      </trkpt>
      <trkpt lat="45.92569" lon="4.37547">
        <ele>728</ele>
        <time>2025-09-09T12:06:11Z</time>
      </trkpt>
      <trkpt lat="45.92568" lon="4.37548">
        <ele>728</ele>
        <time>2025-09-09T12:06:12Z</time>
      </trkpt>
      <trkpt lat="45.92567" lon="4.37549">
        <ele>728.2</ele>
        <time>2025-09-09T12:06:13Z</time>
      </trkpt>
      <trkpt lat="45.92567" lon="4.3755">
        <ele>728.2</ele>
        <time>2025-09-09T12:06:14Z</time>
      </trkpt>
      <trkpt lat="45.92566" lon="4.37551">
        <ele>728.4</ele>
        <time>2025-09-09T12:06:15Z</time>
      </trkpt>
      <trkpt lat="45.92565" lon="4.37552">
        <ele>728.4</ele>
        <time>2025-09-09T12:06:16Z</time>
      </trkpt>
      <trkpt lat="45.92564" lon="4.37553">
        <ele>728.8</ele>
        <time>2025-09-09T12:06:17Z</time>
      </trkpt>
      <trkpt lat="45.92563" lon="4.37554">
        <ele>728.8</ele>
        <time>2025-09-09T12:06:18Z</time>
      </trkpt>
      <trkpt lat="45.92562" lon="4.37555">
        <ele>729</ele>
        <time>2025-09-09T12:06:19Z</time>
      </trkpt>
      <trkpt lat="45.92561" lon="4.37555">
        <ele>729</ele>
        <time>2025-09-09T12:06:20Z</time>
      </trkpt>
      <trkpt lat="45.9256" lon="4.37556">
        <ele>729.4</ele>
        <time>2025-09-09T12:06:21Z</time>
      </trkpt>
      <trkpt lat="45.92559" lon="4.37557">
        <ele>729.6</ele>
        <time>2025-09-09T12:06:22Z</time>
      </trkpt>
      <trkpt lat="45.92558" lon="4.37558">
        <ele>729.6</ele>
        <time>2025-09-09T12:06:23Z</time>
      </trkpt>
      <trkpt lat="45.92557" lon="4.3756">
        <ele>729.8</ele>
        <time>2025-09-09T12:06:24Z</time>
      </trkpt>
      <trkpt lat="45.92556" lon="4.37561">
        <ele>729.8</ele>
        <time>2025-09-09T12:06:25Z</time>
      </trkpt>
      <trkpt lat="45.92555" lon="4.37562">
        <ele>730.2</ele>
        <time>2025-09-09T12:06:26Z</time>
      </trkpt>
      <trkpt lat="45.92554" lon="4.37563">
        <ele>730.2</ele>
        <time>2025-09-09T12:06:27Z</time>
      </trkpt>
      <trkpt lat="45.92553" lon="4.37563">
        <ele>730.2</ele>
        <time>2025-09-09T12:06:28Z</time>
      </trkpt>
      <trkpt lat="45.92552" lon="4.37563">
        <ele>730.4</ele>
        <time>2025-09-09T12:06:29Z</time>
      </trkpt>
      <trkpt lat="45.92551" lon="4.37564">
        <ele>730.4</ele>
        <time>2025-09-09T12:06:30Z</time>
      </trkpt>
      <trkpt lat="45.9255" lon="4.37564">
        <ele>731</ele>
        <time>2025-09-09T12:06:31Z</time>
      </trkpt>
      <trkpt lat="45.92549" lon="4.37563">
        <ele>731</ele>
        <time>2025-09-09T12:06:32Z</time>
      </trkpt>
      <trkpt lat="45.92549" lon="4.37563">
        <ele>731.2</ele>
        <time>2025-09-09T12:06:33Z</time>
      </trkpt>
      <trkpt lat="45.92549" lon="4.37563">
        <ele>731.2</ele>
        <time>2025-09-09T12:06:34Z</time>
      </trkpt>
      <trkpt lat="45.92548" lon="4.37561">
        <ele>731.6</ele>
        <time>2025-09-09T12:06:38Z</time>
      </trkpt>
      <trkpt lat="45.92548" lon="4.37561">
        <ele>731.6</ele>
        <time>2025-09-09T12:06:39Z</time>
      </trkpt>
      <trkpt lat="45.92548" lon="4.3756">
        <ele>731.2</ele>
        <time>2025-09-09T12:06:40Z</time>
      </trkpt>
      <trkpt lat="45.92547" lon="4.37557">
        <ele>731.4</ele>
        <time>2025-09-09T12:06:43Z</time>
      </trkpt>
      <trkpt lat="45.92546" lon="4.37556">
        <ele>731.4</ele>
        <time>2025-09-09T12:06:44Z</time>
      </trkpt>
      <trkpt lat="45.92546" lon="4.37556">
        <ele>731.4</ele>
        <time>2025-09-09T12:06:45Z</time>
      </trkpt>
      <trkpt lat="45.92546" lon="4.37556">
        <ele>731.6</ele>
        <time>2025-09-09T12:06:46Z</time>
      </trkpt>
      <trkpt lat="45.92546" lon="4.37555">
        <ele>731.6</ele>
        <time>2025-09-09T12:06:47Z</time>
      </trkpt>
      <trkpt lat="45.92546" lon="4.37555">
        <ele>731.6</ele>
        <time>2025-09-09T12:06:48Z</time>
      </trkpt>
      <trkpt lat="45.92546" lon="4.37555">
        <ele>731.6</ele>
        <time>2025-09-09T12:06:49Z</time>
      </trkpt>
      <trkpt lat="45.92546" lon="4.37556">
        <ele>731.6</ele>
        <time>2025-09-09T12:06:50Z</time>
      </trkpt>
      <trkpt lat="45.92546" lon="4.37556">
        <ele>732</ele>
        <time>2025-09-09T12:06:51Z</time>
      </trkpt>
      <trkpt lat="45.92546" lon="4.37555">
        <ele>732</ele>
        <time>2025-09-09T12:06:52Z</time>
      </trkpt>
      <trkpt lat="45.92548" lon="4.37561">
        <ele>732.2</ele>
        <time>2025-09-09T12:10:03Z</time>
      </trkpt>
      <trkpt lat="45.92547" lon="4.37562">
        <ele>732.2</ele>
        <time>2025-09-09T12:10:04Z</time>
      </trkpt>
      <trkpt lat="45.92546" lon="4.37564">
        <ele>732.2</ele>
        <time>2025-09-09T12:10:05Z</time>
      </trkpt>
      <trkpt lat="45.92545" lon="4.37565">
        <ele>732.2</ele>
        <time>2025-09-09T12:10:06Z</time>
      </trkpt>
      <trkpt lat="45.92545" lon="4.37566">
        <ele>731.8</ele>
        <time>2025-09-09T12:10:07Z</time>
      </trkpt>
      <trkpt lat="45.92544" lon="4.37566">
        <ele>731.8</ele>
        <time>2025-09-09T12:10:08Z</time>
      </trkpt>
      <trkpt lat="45.92544" lon="4.37566">
        <ele>731.8</ele>
        <time>2025-09-09T12:10:09Z</time>
      </trkpt>
      <trkpt lat="45.92542" lon="4.37567">
        <ele>731.6</ele>
        <time>2025-09-09T12:10:12Z</time>
      </trkpt>
      <trkpt lat="45.9254" lon="4.37568">
        <ele>731.6</ele>
        <time>2025-09-09T12:10:13Z</time>
      </trkpt>
      <trkpt lat="45.92539" lon="4.3757">
        <ele>731.8</ele>
        <time>2025-09-09T12:10:14Z</time>
      </trkpt>
      <trkpt lat="45.92538" lon="4.37571">
        <ele>731.8</ele>
        <time>2025-09-09T12:10:15Z</time>
      </trkpt>
      <trkpt lat="45.92537" lon="4.37572">
        <ele>731.8</ele>
        <time>2025-09-09T12:10:16Z</time>
      </trkpt>
      <trkpt lat="45.92535" lon="4.37573">
        <ele>731.8</ele>
        <time>2025-09-09T12:10:17Z</time>
      </trkpt>
      <trkpt lat="45.92533" lon="4.37573">
        <ele>732.4</ele>
        <time>2025-09-09T12:10:18Z</time>
      </trkpt>
      <trkpt lat="45.92531" lon="4.37574">
        <ele>732.4</ele>
        <time>2025-09-09T12:10:19Z</time>
      </trkpt>
      <trkpt lat="45.92529" lon="4.37574">
        <ele>732.4</ele>
        <time>2025-09-09T12:10:20Z</time>
      </trkpt>
      <trkpt lat="45.92527" lon="4.37574">
        <ele>732.6</ele>
        <time>2025-09-09T12:10:21Z</time>
      </trkpt>
      <trkpt lat="45.92525" lon="4.37575">
        <ele>732.6</ele>
        <time>2025-09-09T12:10:22Z</time>
      </trkpt>
      <trkpt lat="45.92523" lon="4.37575">
        <ele>732.6</ele>
        <time>2025-09-09T12:10:23Z</time>
      </trkpt>
      <trkpt lat="45.9252" lon="4.37575">
        <ele>733</ele>
        <time>2025-09-09T12:10:24Z</time>
      </trkpt>
      <trkpt lat="45.92518" lon="4.37575">
        <ele>732.4</ele>
        <time>2025-09-09T12:10:25Z</time>
      </trkpt>
      <trkpt lat="45.92516" lon="4.37576">
        <ele>733.4</ele>
        <time>2025-09-09T12:10:26Z</time>
      </trkpt>
      <trkpt lat="45.92514" lon="4.37576">
        <ele>733.8</ele>
        <time>2025-09-09T12:10:27Z</time>
      </trkpt>
      <trkpt lat="45.92511" lon="4.37576">
        <ele>733.8</ele>
        <time>2025-09-09T12:10:28Z</time>
      </trkpt>
      <trkpt lat="45.92508" lon="4.37577">
        <ele>733.6</ele>
        <time>2025-09-09T12:10:29Z</time>
      </trkpt>
      <trkpt lat="45.92506" lon="4.37577">
        <ele>733.6</ele>
        <time>2025-09-09T12:10:30Z</time>
      </trkpt>
      <trkpt lat="45.92504" lon="4.37578">
        <ele>733.4</ele>
        <time>2025-09-09T12:10:31Z</time>
      </trkpt>
      <trkpt lat="45.92502" lon="4.3758">
        <ele>733.4</ele>
        <time>2025-09-09T12:10:32Z</time>
      </trkpt>
      <trkpt lat="45.92501" lon="4.37583">
        <ele>733.4</ele>
        <time>2025-09-09T12:10:33Z</time>
      </trkpt>
      <trkpt lat="45.92501" lon="4.37586">
        <ele>733.4</ele>
        <time>2025-09-09T12:10:34Z</time>
      </trkpt>
      <trkpt lat="45.92501" lon="4.37589">
        <ele>733.4</ele>
        <time>2025-09-09T12:10:35Z</time>
      </trkpt>
      <trkpt lat="45.92502" lon="4.37592">
        <ele>733.8</ele>
        <time>2025-09-09T12:10:36Z</time>
      </trkpt>
      <trkpt lat="45.92502" lon="4.37595">
        <ele>734.2</ele>
        <time>2025-09-09T12:10:37Z</time>
      </trkpt>
      <trkpt lat="45.92503" lon="4.37599">
        <ele>734.2</ele>
        <time>2025-09-09T12:10:38Z</time>
      </trkpt>
      <trkpt lat="45.92503" lon="4.37602">
        <ele>734.4</ele>
        <time>2025-09-09T12:10:39Z</time>
      </trkpt>
      <trkpt lat="45.92503" lon="4.37605">
        <ele>734.4</ele>
        <time>2025-09-09T12:10:40Z</time>
      </trkpt>
      <trkpt lat="45.92503" lon="4.37609">
        <ele>734.4</ele>
        <time>2025-09-09T12:10:41Z</time>
      </trkpt>
      <trkpt lat="45.92503" lon="4.37612">
        <ele>734.4</ele>
        <time>2025-09-09T12:10:42Z</time>
      </trkpt>
      <trkpt lat="45.92504" lon="4.37616">
        <ele>734.4</ele>
        <time>2025-09-09T12:10:43Z</time>
      </trkpt>
      <trkpt lat="45.92504" lon="4.3762">
        <ele>734.4</ele>
        <time>2025-09-09T12:10:44Z</time>
      </trkpt>
      <trkpt lat="45.92505" lon="4.37623">
        <ele>734.8</ele>
        <time>2025-09-09T12:10:45Z</time>
      </trkpt>
      <trkpt lat="45.92505" lon="4.37627">
        <ele>734.8</ele>
        <time>2025-09-09T12:10:46Z</time>
      </trkpt>
      <trkpt lat="45.92506" lon="4.3763">
        <ele>734.8</ele>
        <time>2025-09-09T12:10:47Z</time>
      </trkpt>
      <trkpt lat="45.92506" lon="4.37634">
        <ele>735</ele>
        <time>2025-09-09T12:10:48Z</time>
      </trkpt>
      <trkpt lat="45.92507" lon="4.37638">
        <ele>735</ele>
        <time>2025-09-09T12:10:49Z</time>
      </trkpt>
      <trkpt lat="45.92508" lon="4.37641">
        <ele>735</ele>
        <time>2025-09-09T12:10:50Z</time>
      </trkpt>
      <trkpt lat="45.92509" lon="4.37646">
        <ele>735</ele>
        <time>2025-09-09T12:10:51Z</time>
      </trkpt>
      <trkpt lat="45.92511" lon="4.3765">
        <ele>735</ele>
        <time>2025-09-09T12:10:52Z</time>
      </trkpt>
      <trkpt lat="45.92513" lon="4.37656">
        <ele>734.6</ele>
        <time>2025-09-09T12:10:53Z</time>
      </trkpt>
      <trkpt lat="45.92511" lon="4.37662">
        <ele>734.4</ele>
        <time>2025-09-09T12:10:54Z</time>
      </trkpt>
      <trkpt lat="45.92508" lon="4.37668">
        <ele>734.2</ele>
        <time>2025-09-09T12:10:55Z</time>
      </trkpt>
      <trkpt lat="45.92506" lon="4.37673">
        <ele>733.8</ele>
        <time>2025-09-09T12:10:56Z</time>
      </trkpt>
      <trkpt lat="45.92504" lon="4.3768">
        <ele>733.8</ele>
        <time>2025-09-09T12:10:57Z</time>
      </trkpt>
      <trkpt lat="45.92497" lon="4.37679">
        <ele>733.8</ele>
        <time>2025-09-09T12:10:58Z</time>
      </trkpt>
      <trkpt lat="45.92493" lon="4.37682">
        <ele>733.4</ele>
        <time>2025-09-09T12:10:59Z</time>
      </trkpt>
      <trkpt lat="45.92487" lon="4.37684">
        <ele>733.2</ele>
        <time>2025-09-09T12:11:00Z</time>
      </trkpt>
      <trkpt lat="45.92482" lon="4.37685">
        <ele>733.2</ele>
        <time>2025-09-09T12:11:01Z</time>
      </trkpt>
      <trkpt lat="45.92478" lon="4.37687">
        <ele>732.6</ele>
        <time>2025-09-09T12:11:02Z</time>
      </trkpt>
      <trkpt lat="45.92473" lon="4.37688">
        <ele>732.6</ele>
        <time>2025-09-09T12:11:03Z</time>
      </trkpt>
      <trkpt lat="45.92468" lon="4.37689">
        <ele>732.4</ele>
        <time>2025-09-09T12:11:04Z</time>
      </trkpt>
      <trkpt lat="45.92462" lon="4.3769">
        <ele>732.4</ele>
        <time>2025-09-09T12:11:05Z</time>
      </trkpt>
      <trkpt lat="45.92458" lon="4.3769">
        <ele>732</ele>
        <time>2025-09-09T12:11:06Z</time>
      </trkpt>
      <trkpt lat="45.92453" lon="4.37689">
        <ele>731.6</ele>
        <time>2025-09-09T12:11:07Z</time>
      </trkpt>
      <trkpt lat="45.92448" lon="4.3769">
        <ele>731.6</ele>
        <time>2025-09-09T12:11:08Z</time>
      </trkpt>
      <trkpt lat="45.92444" lon="4.37692">
        <ele>731.2</ele>
        <time>2025-09-09T12:11:09Z</time>
      </trkpt>
      <trkpt lat="45.9244" lon="4.37694">
        <ele>731.2</ele>
        <time>2025-09-09T12:11:10Z</time>
      </trkpt>
      <trkpt lat="45.92435" lon="4.37696">
        <ele>731</ele>
        <time>2025-09-09T12:11:11Z</time>
      </trkpt>
      <trkpt lat="45.92432" lon="4.37699">
        <ele>730.6</ele>
        <time>2025-09-09T12:11:12Z</time>
      </trkpt>
      <trkpt lat="45.92428" lon="4.37703">
        <ele>730.4</ele>
        <time>2025-09-09T12:11:13Z</time>
      </trkpt>
      <trkpt lat="45.92426" lon="4.37707">
        <ele>730</ele>
        <time>2025-09-09T12:11:14Z</time>
      </trkpt>
      <trkpt lat="45.92425" lon="4.37711">
        <ele>730</ele>
        <time>2025-09-09T12:11:15Z</time>
      </trkpt>
      <trkpt lat="45.92424" lon="4.37716">
        <ele>729.6</ele>
        <time>2025-09-09T12:11:16Z</time>
      </trkpt>
      <trkpt lat="45.92421" lon="4.37719">
        <ele>729.2</ele>
        <time>2025-09-09T12:11:17Z</time>
      </trkpt>
      <trkpt lat="45.9242" lon="4.37722">
        <ele>729</ele>
        <time>2025-09-09T12:11:18Z</time>
      </trkpt>
      <trkpt lat="45.92418" lon="4.37724">
        <ele>728.4</ele>
        <time>2025-09-09T12:11:19Z</time>
      </trkpt>
      <trkpt lat="45.92416" lon="4.37726">
        <ele>728.2</ele>
        <time>2025-09-09T12:11:20Z</time>
      </trkpt>
      <trkpt lat="45.92412" lon="4.37728">
        <ele>727.6</ele>
        <time>2025-09-09T12:11:21Z</time>
      </trkpt>
      <trkpt lat="45.92409" lon="4.37729">
        <ele>727.4</ele>
        <time>2025-09-09T12:11:22Z</time>
      </trkpt>
      <trkpt lat="45.92405" lon="4.37729">
        <ele>727.4</ele>
        <time>2025-09-09T12:11:23Z</time>
      </trkpt>
      <trkpt lat="45.92402" lon="4.37728">
        <ele>727.4</ele>
        <time>2025-09-09T12:11:24Z</time>
      </trkpt>
      <trkpt lat="45.92399" lon="4.37728">
        <ele>727</ele>
        <time>2025-09-09T12:11:25Z</time>
      </trkpt>
      <trkpt lat="45.92398" lon="4.37728">
        <ele>727</ele>
        <time>2025-09-09T12:11:26Z</time>
      </trkpt>
      <trkpt lat="45.92396" lon="4.37728">
        <ele>727</ele>
        <time>2025-09-09T12:11:27Z</time>
      </trkpt>
      <trkpt lat="45.92394" lon="4.37728">
        <ele>727</ele>
        <time>2025-09-09T12:11:28Z</time>
      </trkpt>
      <trkpt lat="45.92392" lon="4.37729">
        <ele>727</ele>
        <time>2025-09-09T12:11:29Z</time>
      </trkpt>
      <trkpt lat="45.9239" lon="4.3773">
        <ele>727</ele>
        <time>2025-09-09T12:11:30Z</time>
      </trkpt>
      <trkpt lat="45.92388" lon="4.37731">
        <ele>727</ele>
        <time>2025-09-09T12:11:31Z</time>
      </trkpt>
      <trkpt lat="45.92387" lon="4.37735">
        <ele>727</ele>
        <time>2025-09-09T12:11:32Z</time>
      </trkpt>
      <trkpt lat="45.92388" lon="4.37739">
        <ele>726.8</ele>
        <time>2025-09-09T12:11:33Z</time>
      </trkpt>
      <trkpt lat="45.9239" lon="4.37742">
        <ele>726.8</ele>
        <time>2025-09-09T12:11:34Z</time>
      </trkpt>
      <trkpt lat="45.92393" lon="4.37745">
        <ele>726.8</ele>
        <time>2025-09-09T12:11:35Z</time>
      </trkpt>
      <trkpt lat="45.92395" lon="4.37748">
        <ele>726.8</ele>
        <time>2025-09-09T12:11:36Z</time>
      </trkpt>
      <trkpt lat="45.92397" lon="4.37751">
        <ele>726.8</ele>
        <time>2025-09-09T12:11:37Z</time>
      </trkpt>
      <trkpt lat="45.92399" lon="4.37752">
        <ele>726.8</ele>
        <time>2025-09-09T12:11:38Z</time>
      </trkpt>
      <trkpt lat="45.92401" lon="4.37754">
        <ele>726.8</ele>
        <time>2025-09-09T12:11:39Z</time>
      </trkpt>
      <trkpt lat="45.92404" lon="4.37756">
        <ele>726.8</ele>
        <time>2025-09-09T12:11:40Z</time>
      </trkpt>
      <trkpt lat="45.92405" lon="4.37756">
        <ele>726.6</ele>
        <time>2025-09-09T12:11:41Z</time>
      </trkpt>
      <trkpt lat="45.92407" lon="4.37755">
        <ele>726.6</ele>
        <time>2025-09-09T12:11:42Z</time>
      </trkpt>
      <trkpt lat="45.92407" lon="4.37753">
        <ele>726.6</ele>
        <time>2025-09-09T12:11:43Z</time>
      </trkpt>
      <trkpt lat="45.92407" lon="4.37752">
        <ele>726.6</ele>
        <time>2025-09-09T12:11:44Z</time>
      </trkpt>
      <trkpt lat="45.92399" lon="4.37748">
        <ele>726.8</ele>
        <time>2025-09-09T12:32:49Z</time>
      </trkpt>
      <trkpt lat="45.92398" lon="4.37747">
        <ele>726.8</ele>
        <time>2025-09-09T12:32:50Z</time>
      </trkpt>
      <trkpt lat="45.92396" lon="4.37744">
        <ele>726.8</ele>
        <time>2025-09-09T12:32:51Z</time>
      </trkpt>
      <trkpt lat="45.92395" lon="4.37741">
        <ele>726.8</ele>
        <time>2025-09-09T12:32:52Z</time>
      </trkpt>
      <trkpt lat="45.92394" lon="4.37738">
        <ele>726.8</ele>
        <time>2025-09-09T12:32:53Z</time>
      </trkpt>
      <trkpt lat="45.92393" lon="4.37736">
        <ele>726.8</ele>
        <time>2025-09-09T12:32:54Z</time>
      </trkpt>
      <trkpt lat="45.92392" lon="4.37734">
        <ele>726.8</ele>
        <time>2025-09-09T12:32:55Z</time>
      </trkpt>
      <trkpt lat="45.92391" lon="4.37735">
        <ele>726.8</ele>
        <time>2025-09-09T12:32:56Z</time>
      </trkpt>
      <trkpt lat="45.92389" lon="4.37738">
        <ele>726.8</ele>
        <time>2025-09-09T12:32:57Z</time>
      </trkpt>
      <trkpt lat="45.9239" lon="4.37742">
        <ele>726.8</ele>
        <time>2025-09-09T12:32:58Z</time>
      </trkpt>
      <trkpt lat="45.92391" lon="4.37746">
        <ele>726.8</ele>
        <time>2025-09-09T12:32:59Z</time>
      </trkpt>
      <trkpt lat="45.92394" lon="4.37748">
        <ele>726.8</ele>
        <time>2025-09-09T12:33:00Z</time>
      </trkpt>
      <trkpt lat="45.92397" lon="4.37747">
        <ele>726.8</ele>
        <time>2025-09-09T12:33:01Z</time>
      </trkpt>
      <trkpt lat="45.92399" lon="4.37745">
        <ele>726.8</ele>
        <time>2025-09-09T12:33:02Z</time>
      </trkpt>
      <trkpt lat="45.924" lon="4.37741">
        <ele>727</ele>
        <time>2025-09-09T12:33:03Z</time>
      </trkpt>
      <trkpt lat="45.92398" lon="4.37737">
        <ele>727</ele>
        <time>2025-09-09T12:33:04Z</time>
      </trkpt>
      <trkpt lat="45.92396" lon="4.37735">
        <ele>727</ele>
        <time>2025-09-09T12:33:05Z</time>
      </trkpt>
      <trkpt lat="45.92393" lon="4.37734">
        <ele>727.2</ele>
        <time>2025-09-09T12:33:06Z</time>
      </trkpt>
      <trkpt lat="45.9239" lon="4.37732">
        <ele>727.6</ele>
        <time>2025-09-09T12:33:07Z</time>
      </trkpt>
      <trkpt lat="45.92388" lon="4.37729">
        <ele>727.6</ele>
        <time>2025-09-09T12:33:08Z</time>
      </trkpt>
      <trkpt lat="45.92385" lon="4.37727">
        <ele>727.6</ele>
        <time>2025-09-09T12:33:09Z</time>
      </trkpt>
      <trkpt lat="45.92382" lon="4.37726">
        <ele>727.6</ele>
        <time>2025-09-09T12:33:10Z</time>
      </trkpt>
      <trkpt lat="45.92379" lon="4.37726">
        <ele>727.6</ele>
        <time>2025-09-09T12:33:11Z</time>
      </trkpt>
      <trkpt lat="45.92376" lon="4.37726">
        <ele>727.6</ele>
        <time>2025-09-09T12:33:12Z</time>
      </trkpt>
      <trkpt lat="45.92373" lon="4.37726">
        <ele>727.6</ele>
        <time>2025-09-09T12:33:13Z</time>
      </trkpt>
      <trkpt lat="45.92369" lon="4.37727">
        <ele>727.6</ele>
        <time>2025-09-09T12:33:14Z</time>
      </trkpt>
      <trkpt lat="45.92366" lon="4.37727">
        <ele>727.4</ele>
        <time>2025-09-09T12:33:15Z</time>
      </trkpt>
      <trkpt lat="45.92363" lon="4.37727">
        <ele>727.4</ele>
        <time>2025-09-09T12:33:16Z</time>
      </trkpt>
      <trkpt lat="45.92359" lon="4.37727">
        <ele>727.4</ele>
        <time>2025-09-09T12:33:17Z</time>
      </trkpt>
      <trkpt lat="45.92356" lon="4.37728">
        <ele>727.4</ele>
        <time>2025-09-09T12:33:18Z</time>
      </trkpt>
      <trkpt lat="45.92352" lon="4.37728">
        <ele>727.4</ele>
        <time>2025-09-09T12:33:19Z</time>
      </trkpt>
      <trkpt lat="45.92348" lon="4.37729">
        <ele>727</ele>
        <time>2025-09-09T12:33:20Z</time>
      </trkpt>
      <trkpt lat="45.92344" lon="4.37729">
        <ele>727</ele>
        <time>2025-09-09T12:33:21Z</time>
      </trkpt>
      <trkpt lat="45.9234" lon="4.3773">
        <ele>726.8</ele>
        <time>2025-09-09T12:33:22Z</time>
      </trkpt>
      <trkpt lat="45.92336" lon="4.3773">
        <ele>726.8</ele>
        <time>2025-09-09T12:33:23Z</time>
      </trkpt>
      <trkpt lat="45.92332" lon="4.3773">
        <ele>726.4</ele>
        <time>2025-09-09T12:33:24Z</time>
      </trkpt>
      <trkpt lat="45.92327" lon="4.37729">
        <ele>726.4</ele>
        <time>2025-09-09T12:33:25Z</time>
      </trkpt>
      <trkpt lat="45.92323" lon="4.37728">
        <ele>726.4</ele>
        <time>2025-09-09T12:33:26Z</time>
      </trkpt>
      <trkpt lat="45.92318" lon="4.37728">
        <ele>726.4</ele>
        <time>2025-09-09T12:33:27Z</time>
      </trkpt>
      <trkpt lat="45.92313" lon="4.37727">
        <ele>726.4</ele>
        <time>2025-09-09T12:33:28Z</time>
      </trkpt>
      <trkpt lat="45.92309" lon="4.37728">
        <ele>726.4</ele>
        <time>2025-09-09T12:33:29Z</time>
      </trkpt>
      <trkpt lat="45.92304" lon="4.37727">
        <ele>726.4</ele>
        <time>2025-09-09T12:33:30Z</time>
      </trkpt>
      <trkpt lat="45.92301" lon="4.37727">
        <ele>726.4</ele>
        <time>2025-09-09T12:33:31Z</time>
      </trkpt>
      <trkpt lat="45.92296" lon="4.37728">
        <ele>726.8</ele>
        <time>2025-09-09T12:33:32Z</time>
      </trkpt>
      <trkpt lat="45.92291" lon="4.37729">
        <ele>727</ele>
        <time>2025-09-09T12:33:33Z</time>
      </trkpt>
      <trkpt lat="45.92287" lon="4.37729">
        <ele>727</ele>
        <time>2025-09-09T12:33:34Z</time>
      </trkpt>
      <trkpt lat="45.92279" lon="4.37729">
        <ele>727</ele>
        <time>2025-09-09T12:33:35Z</time>
      </trkpt>
      <trkpt lat="45.92275" lon="4.3773">
        <ele>727.2</ele>
        <time>2025-09-09T12:33:36Z</time>
      </trkpt>
      <trkpt lat="45.92272" lon="4.37731">
        <ele>727.2</ele>
        <time>2025-09-09T12:33:37Z</time>
      </trkpt>
      <trkpt lat="45.92267" lon="4.37733">
        <ele>727.2</ele>
        <time>2025-09-09T12:33:38Z</time>
      </trkpt>
      <trkpt lat="45.92263" lon="4.37734">
        <ele>727.4</ele>
        <time>2025-09-09T12:33:39Z</time>
      </trkpt>
      <trkpt lat="45.92259" lon="4.37736">
        <ele>727.4</ele>
        <time>2025-09-09T12:33:40Z</time>
      </trkpt>
      <trkpt lat="45.92255" lon="4.37737">
        <ele>727.4</ele>
        <time>2025-09-09T12:33:41Z</time>
      </trkpt>
      <trkpt lat="45.92251" lon="4.37738">
        <ele>727.4</ele>
        <time>2025-09-09T12:33:42Z</time>
      </trkpt>
      <trkpt lat="45.92248" lon="4.37739">
        <ele>727.4</ele>
        <time>2025-09-09T12:33:43Z</time>
      </trkpt>
      <trkpt lat="45.92244" lon="4.37739">
        <ele>727.4</ele>
        <time>2025-09-09T12:33:44Z</time>
      </trkpt>
      <trkpt lat="45.9224" lon="4.3774">
        <ele>727.4</ele>
        <time>2025-09-09T12:33:45Z</time>
      </trkpt>
      <trkpt lat="45.92236" lon="4.3774">
        <ele>727.6</ele>
        <time>2025-09-09T12:33:46Z</time>
      </trkpt>
      <trkpt lat="45.92233" lon="4.37741">
        <ele>727.6</ele>
        <time>2025-09-09T12:33:47Z</time>
      </trkpt>
      <trkpt lat="45.92229" lon="4.37741">
        <ele>727.6</ele>
        <time>2025-09-09T12:33:48Z</time>
      </trkpt>
      <trkpt lat="45.92225" lon="4.37742">
        <ele>727.6</ele>
        <time>2025-09-09T12:33:49Z</time>
      </trkpt>
      <trkpt lat="45.92221" lon="4.37743">
        <ele>728</ele>
        <time>2025-09-09T12:33:50Z</time>
      </trkpt>
      <trkpt lat="45.92218" lon="4.37744">
        <ele>728</ele>
        <time>2025-09-09T12:33:51Z</time>
      </trkpt>
      <trkpt lat="45.92214" lon="4.37745">
        <ele>728</ele>
        <time>2025-09-09T12:33:52Z</time>
      </trkpt>
      <trkpt lat="45.9221" lon="4.37746">
        <ele>728.2</ele>
        <time>2025-09-09T12:33:53Z</time>
      </trkpt>
      <trkpt lat="45.92206" lon="4.37746">
        <ele>728.4</ele>
        <time>2025-09-09T12:33:54Z</time>
      </trkpt>
      <trkpt lat="45.92202" lon="4.37746">
        <ele>728.4</ele>
        <time>2025-09-09T12:33:55Z</time>
      </trkpt>
      <trkpt lat="45.92199" lon="4.37746">
        <ele>728.4</ele>
        <time>2025-09-09T12:33:56Z</time>
      </trkpt>
      <trkpt lat="45.92195" lon="4.37746">
        <ele>728.4</ele>
        <time>2025-09-09T12:33:57Z</time>
      </trkpt>
      <trkpt lat="45.92192" lon="4.37746">
        <ele>728.2</ele>
        <time>2025-09-09T12:33:58Z</time>
      </trkpt>
      <trkpt lat="45.92189" lon="4.37746">
        <ele>728.2</ele>
        <time>2025-09-09T12:33:59Z</time>
      </trkpt>
      <trkpt lat="45.92185" lon="4.37745">
        <ele>728.2</ele>
        <time>2025-09-09T12:34:00Z</time>
      </trkpt>
      <trkpt lat="45.92182" lon="4.37745">
        <ele>728.6</ele>
        <time>2025-09-09T12:34:01Z</time>
      </trkpt>
      <trkpt lat="45.92179" lon="4.37745">
        <ele>728.6</ele>
        <time>2025-09-09T12:34:02Z</time>
      </trkpt>
      <trkpt lat="45.92176" lon="4.37745">
        <ele>728.6</ele>
        <time>2025-09-09T12:34:03Z</time>
      </trkpt>
      <trkpt lat="45.92173" lon="4.37745">
        <ele>728.6</ele>
        <time>2025-09-09T12:34:04Z</time>
      </trkpt>
      <trkpt lat="45.92169" lon="4.37745">
        <ele>728.8</ele>
        <time>2025-09-09T12:34:05Z</time>
      </trkpt>
      <trkpt lat="45.92166" lon="4.37745">
        <ele>728.8</ele>
        <time>2025-09-09T12:34:06Z</time>
      </trkpt>
      <trkpt lat="45.92162" lon="4.37746">
        <ele>729</ele>
        <time>2025-09-09T12:34:07Z</time>
      </trkpt>
      <trkpt lat="45.92158" lon="4.37746">
        <ele>729.2</ele>
        <time>2025-09-09T12:34:08Z</time>
      </trkpt>
      <trkpt lat="45.92155" lon="4.37747">
        <ele>729.2</ele>
        <time>2025-09-09T12:34:09Z</time>
      </trkpt>
      <trkpt lat="45.92152" lon="4.37747">
        <ele>729.2</ele>
        <time>2025-09-09T12:34:10Z</time>
      </trkpt>
      <trkpt lat="45.92148" lon="4.37748">
        <ele>729.4</ele>
        <time>2025-09-09T12:34:11Z</time>
      </trkpt>
      <trkpt lat="45.92145" lon="4.3775">
        <ele>729.4</ele>
        <time>2025-09-09T12:34:12Z</time>
      </trkpt>
      <trkpt lat="45.92141" lon="4.37752">
        <ele>729.4</ele>
        <time>2025-09-09T12:34:13Z</time>
      </trkpt>
      <trkpt lat="45.92137" lon="4.37754">
        <ele>729.4</ele>
        <time>2025-09-09T12:34:14Z</time>
      </trkpt>
      <trkpt lat="45.92134" lon="4.37756">
        <ele>729.4</ele>
        <time>2025-09-09T12:34:15Z</time>
      </trkpt>
      <trkpt lat="45.9213" lon="4.37759">
        <ele>729.4</ele>
        <time>2025-09-09T12:34:16Z</time>
      </trkpt>
      <trkpt lat="45.92126" lon="4.37762">
        <ele>729.4</ele>
        <time>2025-09-09T12:34:17Z</time>
      </trkpt>
      <trkpt lat="45.92122" lon="4.37765">
        <ele>729.4</ele>
        <time>2025-09-09T12:34:18Z</time>
      </trkpt>
      <trkpt lat="45.92118" lon="4.37768">
        <ele>729.2</ele>
        <time>2025-09-09T12:34:19Z</time>
      </trkpt>
      <trkpt lat="45.92118" lon="4.37768">
        <ele>729.2</ele>
        <time>2025-09-09T12:34:20Z</time>
      </trkpt>
      <trkpt lat="45.92114" lon="4.37771">
        <ele>729.2</ele>
        <time>2025-09-09T12:34:21Z</time>
      </trkpt>
      <trkpt lat="45.9211" lon="4.37775">
        <ele>729.2</ele>
        <time>2025-09-09T12:34:22Z</time>
      </trkpt>
      <trkpt lat="45.92106" lon="4.37779">
        <ele>729.2</ele>
        <time>2025-09-09T12:34:23Z</time>
      </trkpt>
      <trkpt lat="45.92102" lon="4.37782">
        <ele>729.2</ele>
        <time>2025-09-09T12:34:24Z</time>
      </trkpt>
      <trkpt lat="45.92098" lon="4.37785">
        <ele>729.2</ele>
        <time>2025-09-09T12:34:25Z</time>
      </trkpt>
      <trkpt lat="45.92094" lon="4.3779">
        <ele>729</ele>
        <time>2025-09-09T12:34:26Z</time>
      </trkpt>
      <trkpt lat="45.9209" lon="4.37793">
        <ele>729</ele>
        <time>2025-09-09T12:34:27Z</time>
      </trkpt>
      <trkpt lat="45.92086" lon="4.37797">
        <ele>729</ele>
        <time>2025-09-09T12:34:28Z</time>
      </trkpt>
      <trkpt lat="45.92081" lon="4.378">
        <ele>729</ele>
        <time>2025-09-09T12:34:29Z</time>
      </trkpt>
      <trkpt lat="45.92077" lon="4.37802">
        <ele>729</ele>
        <time>2025-09-09T12:34:30Z</time>
      </trkpt>
      <trkpt lat="45.92073" lon="4.37804">
        <ele>729</ele>
        <time>2025-09-09T12:34:31Z</time>
      </trkpt>
      <trkpt lat="45.92068" lon="4.37805">
        <ele>729</ele>
        <time>2025-09-09T12:34:32Z</time>
      </trkpt>
      <trkpt lat="45.92063" lon="4.37806">
        <ele>729.2</ele>
        <time>2025-09-09T12:34:33Z</time>
      </trkpt>
      <trkpt lat="45.92059" lon="4.37807">
        <ele>729.2</ele>
        <time>2025-09-09T12:34:34Z</time>
      </trkpt>
      <trkpt lat="45.92054" lon="4.37808">
        <ele>729.2</ele>
        <time>2025-09-09T12:34:35Z</time>
      </trkpt>
      <trkpt lat="45.9205" lon="4.37808">
        <ele>729.2</ele>
        <time>2025-09-09T12:34:36Z</time>
      </trkpt>
      <trkpt lat="45.92046" lon="4.37809">
        <ele>729.2</ele>
        <time>2025-09-09T12:34:37Z</time>
      </trkpt>
      <trkpt lat="45.92043" lon="4.37811">
        <ele>729.2</ele>
        <time>2025-09-09T12:34:38Z</time>
      </trkpt>
      <trkpt lat="45.9204" lon="4.37812">
        <ele>729</ele>
        <time>2025-09-09T12:34:39Z</time>
      </trkpt>
      <trkpt lat="45.92039" lon="4.37813">
        <ele>729</ele>
        <time>2025-09-09T12:34:40Z</time>
      </trkpt>
      <trkpt lat="45.92038" lon="4.37814">
        <ele>729</ele>
        <time>2025-09-09T12:34:41Z</time>
      </trkpt>
      <trkpt lat="45.92037" lon="4.37815">
        <ele>729.8</ele>
        <time>2025-09-09T12:34:42Z</time>
      </trkpt>
      <trkpt lat="45.92035" lon="4.37815">
        <ele>730</ele>
        <time>2025-09-09T12:34:43Z</time>
      </trkpt>
      <trkpt lat="45.92035" lon="4.37815">
        <ele>730</ele>
        <time>2025-09-09T12:34:44Z</time>
      </trkpt>
      <trkpt lat="45.92035" lon="4.37816">
        <ele>729</ele>
        <time>2025-09-09T12:34:45Z</time>
      </trkpt>
      <trkpt lat="45.92033" lon="4.37819">
        <ele>729.6</ele>
        <time>2025-09-09T12:34:58Z</time>
      </trkpt>
      <trkpt lat="45.92032" lon="4.3782">
        <ele>729.6</ele>
        <time>2025-09-09T12:34:59Z</time>
      </trkpt>
      <trkpt lat="45.9203" lon="4.37819">
        <ele>729.6</ele>
        <time>2025-09-09T12:35:00Z</time>
      </trkpt>
      <trkpt lat="45.92028" lon="4.37819">
        <ele>729.6</ele>
        <time>2025-09-09T12:35:01Z</time>
      </trkpt>
      <trkpt lat="45.92026" lon="4.37819">
        <ele>729.8</ele>
        <time>2025-09-09T12:35:02Z</time>
      </trkpt>
      <trkpt lat="45.92024" lon="4.37819">
        <ele>730.2</ele>
        <time>2025-09-09T12:35:03Z</time>
      </trkpt>
      <trkpt lat="45.92021" lon="4.37819">
        <ele>730.2</ele>
        <time>2025-09-09T12:35:04Z</time>
      </trkpt>
      <trkpt lat="45.92019" lon="4.3782">
        <ele>730.6</ele>
        <time>2025-09-09T12:35:05Z</time>
      </trkpt>
      <trkpt lat="45.92016" lon="4.3782">
        <ele>731</ele>
        <time>2025-09-09T12:35:06Z</time>
      </trkpt>
      <trkpt lat="45.92013" lon="4.37821">
        <ele>731</ele>
        <time>2025-09-09T12:35:07Z</time>
      </trkpt>
      <trkpt lat="45.9201" lon="4.37821">
        <ele>731.2</ele>
        <time>2025-09-09T12:35:08Z</time>
      </trkpt>
      <trkpt lat="45.92008" lon="4.37822">
        <ele>731.2</ele>
        <time>2025-09-09T12:35:09Z</time>
      </trkpt>
      <trkpt lat="45.92005" lon="4.37823">
        <ele>731.2</ele>
        <time>2025-09-09T12:35:10Z</time>
      </trkpt>
      <trkpt lat="45.92003" lon="4.37824">
        <ele>731.2</ele>
        <time>2025-09-09T12:35:11Z</time>
      </trkpt>
      <trkpt lat="45.92" lon="4.37825">
        <ele>731.4</ele>
        <time>2025-09-09T12:35:12Z</time>
      </trkpt>
      <trkpt lat="45.91997" lon="4.37826">
        <ele>731.4</ele>
        <time>2025-09-09T12:35:13Z</time>
      </trkpt>
      <trkpt lat="45.91995" lon="4.37826">
        <ele>732</ele>
        <time>2025-09-09T12:35:14Z</time>
      </trkpt>
      <trkpt lat="45.91993" lon="4.37826">
        <ele>732.2</ele>
        <time>2025-09-09T12:35:15Z</time>
      </trkpt>
      <trkpt lat="45.9199" lon="4.37827">
        <ele>732.2</ele>
        <time>2025-09-09T12:35:16Z</time>
      </trkpt>
      <trkpt lat="45.91988" lon="4.37827">
        <ele>732.4</ele>
        <time>2025-09-09T12:35:17Z</time>
      </trkpt>
      <trkpt lat="45.91986" lon="4.37827">
        <ele>732.4</ele>
        <time>2025-09-09T12:35:18Z</time>
      </trkpt>
      <trkpt lat="45.91983" lon="4.37826">
        <ele>732.4</ele>
        <time>2025-09-09T12:35:19Z</time>
      </trkpt>
      <trkpt lat="45.91981" lon="4.37826">
        <ele>732.8</ele>
        <time>2025-09-09T12:35:20Z</time>
      </trkpt>
      <trkpt lat="45.91979" lon="4.37826">
        <ele>732.8</ele>
        <time>2025-09-09T12:35:21Z</time>
      </trkpt>
      <trkpt lat="45.91977" lon="4.37825">
        <ele>733.2</ele>
        <time>2025-09-09T12:35:22Z</time>
      </trkpt>
      <trkpt lat="45.91975" lon="4.37825">
        <ele>733.4</ele>
        <time>2025-09-09T12:35:23Z</time>
      </trkpt>
      <trkpt lat="45.91972" lon="4.37824">
        <ele>733.4</ele>
        <time>2025-09-09T12:35:24Z</time>
      </trkpt>
      <trkpt lat="45.91971" lon="4.37824">
        <ele>733.6</ele>
        <time>2025-09-09T12:35:25Z</time>
      </trkpt>
      <trkpt lat="45.91969" lon="4.37823">
        <ele>733.6</ele>
        <time>2025-09-09T12:35:26Z</time>
      </trkpt>
      <trkpt lat="45.91966" lon="4.37823">
        <ele>733.6</ele>
        <time>2025-09-09T12:35:27Z</time>
      </trkpt>
      <trkpt lat="45.91964" lon="4.37821">
        <ele>733.6</ele>
        <time>2025-09-09T12:35:28Z</time>
      </trkpt>
      <trkpt lat="45.91962" lon="4.3782">
        <ele>734</ele>
        <time>2025-09-09T12:35:29Z</time>
      </trkpt>
      <trkpt lat="45.9196" lon="4.37818">
        <ele>734</ele>
        <time>2025-09-09T12:35:30Z</time>
      </trkpt>
      <trkpt lat="45.91958" lon="4.37817">
        <ele>734</ele>
        <time>2025-09-09T12:35:31Z</time>
      </trkpt>
      <trkpt lat="45.91957" lon="4.37816">
        <ele>734.2</ele>
        <time>2025-09-09T12:35:32Z</time>
      </trkpt>
      <trkpt lat="45.91955" lon="4.37815">
        <ele>734.2</ele>
        <time>2025-09-09T12:35:33Z</time>
      </trkpt>
      <trkpt lat="45.91954" lon="4.37814">
        <ele>734.2</ele>
        <time>2025-09-09T12:35:34Z</time>
      </trkpt>
      <trkpt lat="45.91952" lon="4.37813">
        <ele>734.4</ele>
        <time>2025-09-09T12:35:35Z</time>
      </trkpt>
      <trkpt lat="45.91951" lon="4.37812">
        <ele>734.4</ele>
        <time>2025-09-09T12:35:36Z</time>
      </trkpt>
      <trkpt lat="45.9195" lon="4.37811">
        <ele>734.8</ele>
        <time>2025-09-09T12:35:37Z</time>
      </trkpt>
      <trkpt lat="45.91948" lon="4.3781">
        <ele>735</ele>
        <time>2025-09-09T12:35:38Z</time>
      </trkpt>
      <trkpt lat="45.91947" lon="4.37809">
        <ele>735</ele>
        <time>2025-09-09T12:35:39Z</time>
      </trkpt>
      <trkpt lat="45.91946" lon="4.37808">
        <ele>735.2</ele>
        <time>2025-09-09T12:35:40Z</time>
      </trkpt>
      <trkpt lat="45.91944" lon="4.37807">
        <ele>735.2</ele>
        <time>2025-09-09T12:35:41Z</time>
      </trkpt>
      <trkpt lat="45.91943" lon="4.37807">
        <ele>735.8</ele>
        <time>2025-09-09T12:35:42Z</time>
      </trkpt>
      <trkpt lat="45.91942" lon="4.37806">
        <ele>735.8</ele>
        <time>2025-09-09T12:35:43Z</time>
      </trkpt>
      <trkpt lat="45.9194" lon="4.37805">
        <ele>736</ele>
        <time>2025-09-09T12:35:44Z</time>
      </trkpt>
      <trkpt lat="45.91939" lon="4.37804">
        <ele>736.2</ele>
        <time>2025-09-09T12:35:45Z</time>
      </trkpt>
      <trkpt lat="45.91938" lon="4.37803">
        <ele>736.6</ele>
        <time>2025-09-09T12:35:46Z</time>
      </trkpt>
      <trkpt lat="45.91937" lon="4.37802">
        <ele>736.6</ele>
        <time>2025-09-09T12:35:47Z</time>
      </trkpt>
      <trkpt lat="45.91936" lon="4.37801">
        <ele>736.8</ele>
        <time>2025-09-09T12:35:48Z</time>
      </trkpt>
      <trkpt lat="45.91935" lon="4.378">
        <ele>736.8</ele>
        <time>2025-09-09T12:35:49Z</time>
      </trkpt>
      <trkpt lat="45.91934" lon="4.37799">
        <ele>736.8</ele>
        <time>2025-09-09T12:35:50Z</time>
      </trkpt>
      <trkpt lat="45.91933" lon="4.37798">
        <ele>737.2</ele>
        <time>2025-09-09T12:35:51Z</time>
      </trkpt>
      <trkpt lat="45.91931" lon="4.37797">
        <ele>737.2</ele>
        <time>2025-09-09T12:35:52Z</time>
      </trkpt>
      <trkpt lat="45.9193" lon="4.37796">
        <ele>737.6</ele>
        <time>2025-09-09T12:35:53Z</time>
      </trkpt>
      <trkpt lat="45.91929" lon="4.37795">
        <ele>737.6</ele>
        <time>2025-09-09T12:35:54Z</time>
      </trkpt>
      <trkpt lat="45.91927" lon="4.37795">
        <ele>737.8</ele>
        <time>2025-09-09T12:35:55Z</time>
      </trkpt>
      <trkpt lat="45.91926" lon="4.37794">
        <ele>737.8</ele>
        <time>2025-09-09T12:35:56Z</time>
      </trkpt>
      <trkpt lat="45.91925" lon="4.37794">
        <ele>738</ele>
        <time>2025-09-09T12:35:57Z</time>
      </trkpt>
      <trkpt lat="45.91923" lon="4.37794">
        <ele>738</ele>
        <time>2025-09-09T12:35:58Z</time>
      </trkpt>
      <trkpt lat="45.91922" lon="4.37793">
        <ele>738.4</ele>
        <time>2025-09-09T12:35:59Z</time>
      </trkpt>
      <trkpt lat="45.9192" lon="4.37793">
        <ele>738.6</ele>
        <time>2025-09-09T12:36:00Z</time>
      </trkpt>
      <trkpt lat="45.91919" lon="4.37793">
        <ele>738.6</ele>
        <time>2025-09-09T12:36:01Z</time>
      </trkpt>
      <trkpt lat="45.91918" lon="4.37792">
        <ele>739</ele>
        <time>2025-09-09T12:36:02Z</time>
      </trkpt>
      <trkpt lat="45.91917" lon="4.37791">
        <ele>739</ele>
        <time>2025-09-09T12:36:03Z</time>
      </trkpt>
      <trkpt lat="45.91916" lon="4.37789">
        <ele>739.2</ele>
        <time>2025-09-09T12:36:04Z</time>
      </trkpt>
      <trkpt lat="45.91915" lon="4.37788">
        <ele>739.2</ele>
        <time>2025-09-09T12:36:05Z</time>
      </trkpt>
      <trkpt lat="45.91914" lon="4.37787">
        <ele>739.2</ele>
        <time>2025-09-09T12:36:06Z</time>
      </trkpt>
      <trkpt lat="45.91912" lon="4.37786">
        <ele>739.6</ele>
        <time>2025-09-09T12:36:07Z</time>
      </trkpt>
      <trkpt lat="45.91911" lon="4.37785">
        <ele>739.6</ele>
        <time>2025-09-09T12:36:08Z</time>
      </trkpt>
      <trkpt lat="45.9191" lon="4.37784">
        <ele>740</ele>
        <time>2025-09-09T12:36:09Z</time>
      </trkpt>
      <trkpt lat="45.91909" lon="4.37783">
        <ele>740</ele>
        <time>2025-09-09T12:36:10Z</time>
      </trkpt>
      <trkpt lat="45.91907" lon="4.37782">
        <ele>740</ele>
        <time>2025-09-09T12:36:11Z</time>
      </trkpt>
      <trkpt lat="45.91907" lon="4.3778">
        <ele>740.4</ele>
        <time>2025-09-09T12:36:12Z</time>
      </trkpt>
      <trkpt lat="45.91906" lon="4.37778">
        <ele>740.4</ele>
        <time>2025-09-09T12:36:13Z</time>
      </trkpt>
      <trkpt lat="45.91905" lon="4.37777">
        <ele>740.4</ele>
        <time>2025-09-09T12:36:14Z</time>
      </trkpt>
      <trkpt lat="45.91904" lon="4.37775">
        <ele>740.6</ele>
        <time>2025-09-09T12:36:15Z</time>
      </trkpt>
      <trkpt lat="45.91903" lon="4.37773">
        <ele>740.8</ele>
        <time>2025-09-09T12:36:16Z</time>
      </trkpt>
      <trkpt lat="45.91902" lon="4.37772">
        <ele>741</ele>
        <time>2025-09-09T12:36:17Z</time>
      </trkpt>
      <trkpt lat="45.91901" lon="4.37771">
        <ele>741</ele>
        <time>2025-09-09T12:36:18Z</time>
      </trkpt>
      <trkpt lat="45.919" lon="4.3777">
        <ele>741</ele>
        <time>2025-09-09T12:36:19Z</time>
      </trkpt>
      <trkpt lat="45.91899" lon="4.37768">
        <ele>741.4</ele>
        <time>2025-09-09T12:36:20Z</time>
      </trkpt>
      <trkpt lat="45.91898" lon="4.37767">
        <ele>741.4</ele>
        <time>2025-09-09T12:36:21Z</time>
      </trkpt>
      <trkpt lat="45.91897" lon="4.37765">
        <ele>741.4</ele>
        <time>2025-09-09T12:36:22Z</time>
      </trkpt>
      <trkpt lat="45.91896" lon="4.37764">
        <ele>741.6</ele>
        <time>2025-09-09T12:36:23Z</time>
      </trkpt>
      <trkpt lat="45.91895" lon="4.37762">
        <ele>741.6</ele>
        <time>2025-09-09T12:36:24Z</time>
      </trkpt>
      <trkpt lat="45.91894" lon="4.37761">
        <ele>742</ele>
        <time>2025-09-09T12:36:25Z</time>
      </trkpt>
      <trkpt lat="45.91893" lon="4.37759">
        <ele>742</ele>
        <time>2025-09-09T12:36:26Z</time>
      </trkpt>
      <trkpt lat="45.91893" lon="4.37757">
        <ele>742.2</ele>
        <time>2025-09-09T12:36:27Z</time>
      </trkpt>
      <trkpt lat="45.91892" lon="4.37756">
        <ele>742.2</ele>
        <time>2025-09-09T12:36:28Z</time>
      </trkpt>
      <trkpt lat="45.91891" lon="4.37754">
        <ele>742.2</ele>
        <time>2025-09-09T12:36:29Z</time>
      </trkpt>
      <trkpt lat="45.9189" lon="4.37752">
        <ele>742.2</ele>
        <time>2025-09-09T12:36:30Z</time>
      </trkpt>
      <trkpt lat="45.91889" lon="4.3775">
        <ele>742.6</ele>
        <time>2025-09-09T12:36:31Z</time>
      </trkpt>
      <trkpt lat="45.91888" lon="4.37749">
        <ele>742.6</ele>
        <time>2025-09-09T12:36:32Z</time>
      </trkpt>
      <trkpt lat="45.91887" lon="4.37748">
        <ele>742.6</ele>
        <time>2025-09-09T12:36:33Z</time>
      </trkpt>
      <trkpt lat="45.91886" lon="4.37747">
        <ele>742.6</ele>
        <time>2025-09-09T12:36:34Z</time>
      </trkpt>
      <trkpt lat="45.91885" lon="4.37745">
        <ele>742.6</ele>
        <time>2025-09-09T12:36:35Z</time>
      </trkpt>
      <trkpt lat="45.91884" lon="4.37744">
        <ele>742.6</ele>
        <time>2025-09-09T12:36:36Z</time>
      </trkpt>
      <trkpt lat="45.91884" lon="4.37743">
        <ele>742.6</ele>
        <time>2025-09-09T12:36:37Z</time>
      </trkpt>
      <trkpt lat="45.91883" lon="4.37741">
        <ele>742.6</ele>
        <time>2025-09-09T12:36:38Z</time>
      </trkpt>
      <trkpt lat="45.91882" lon="4.3774">
        <ele>742.8</ele>
        <time>2025-09-09T12:36:39Z</time>
      </trkpt>
      <trkpt lat="45.91881" lon="4.37738">
        <ele>742.8</ele>
        <time>2025-09-09T12:36:40Z</time>
      </trkpt>
      <trkpt lat="45.9188" lon="4.37737">
        <ele>743</ele>
        <time>2025-09-09T12:36:41Z</time>
      </trkpt>
      <trkpt lat="45.91879" lon="4.37735">
        <ele>743</ele>
        <time>2025-09-09T12:36:42Z</time>
      </trkpt>
      <trkpt lat="45.91878" lon="4.37734">
        <ele>743.2</ele>
        <time>2025-09-09T12:36:43Z</time>
      </trkpt>
      <trkpt lat="45.91877" lon="4.37733">
        <ele>743.2</ele>
        <time>2025-09-09T12:36:44Z</time>
      </trkpt>
      <trkpt lat="45.91876" lon="4.37732">
        <ele>743.4</ele>
        <time>2025-09-09T12:36:45Z</time>
      </trkpt>
      <trkpt lat="45.91874" lon="4.37731">
        <ele>743.8</ele>
        <time>2025-09-09T12:36:46Z</time>
      </trkpt>
      <trkpt lat="45.91873" lon="4.37731">
        <ele>743.8</ele>
        <time>2025-09-09T12:36:47Z</time>
      </trkpt>
      <trkpt lat="45.91872" lon="4.3773">
        <ele>744.2</ele>
        <time>2025-09-09T12:36:48Z</time>
      </trkpt>
      <trkpt lat="45.9187" lon="4.37729">
        <ele>744.2</ele>
        <time>2025-09-09T12:36:49Z</time>
      </trkpt>
      <trkpt lat="45.91868" lon="4.37728">
        <ele>744.2</ele>
        <time>2025-09-09T12:36:50Z</time>
      </trkpt>
      <trkpt lat="45.91867" lon="4.37728">
        <ele>744.4</ele>
        <time>2025-09-09T12:36:51Z</time>
      </trkpt>
      <trkpt lat="45.91866" lon="4.37727">
        <ele>744.8</ele>
        <time>2025-09-09T12:36:52Z</time>
      </trkpt>
      <trkpt lat="45.91864" lon="4.37727">
        <ele>745</ele>
        <time>2025-09-09T12:36:53Z</time>
      </trkpt>
      <trkpt lat="45.91863" lon="4.37726">
        <ele>745</ele>
        <time>2025-09-09T12:36:54Z</time>
      </trkpt>
      <trkpt lat="45.91862" lon="4.37726">
        <ele>745.2</ele>
        <time>2025-09-09T12:36:55Z</time>
      </trkpt>
      <trkpt lat="45.91861" lon="4.37725">
        <ele>745.4</ele>
        <time>2025-09-09T12:36:56Z</time>
      </trkpt>
      <trkpt lat="45.9186" lon="4.37725">
        <ele>745.4</ele>
        <time>2025-09-09T12:36:57Z</time>
      </trkpt>
      <trkpt lat="45.91858" lon="4.37724">
        <ele>745.6</ele>
        <time>2025-09-09T12:36:58Z</time>
      </trkpt>
      <trkpt lat="45.91857" lon="4.37723">
        <ele>746</ele>
        <time>2025-09-09T12:36:59Z</time>
      </trkpt>
      <trkpt lat="45.91856" lon="4.37722">
        <ele>746</ele>
        <time>2025-09-09T12:37:00Z</time>
      </trkpt>
      <trkpt lat="45.91855" lon="4.37721">
        <ele>746</ele>
        <time>2025-09-09T12:37:01Z</time>
      </trkpt>
      <trkpt lat="45.91854" lon="4.3772">
        <ele>746</ele>
        <time>2025-09-09T12:37:02Z</time>
      </trkpt>
      <trkpt lat="45.91852" lon="4.37719">
        <ele>746.2</ele>
        <time>2025-09-09T12:37:03Z</time>
      </trkpt>
      <trkpt lat="45.91851" lon="4.37718">
        <ele>746.4</ele>
        <time>2025-09-09T12:37:04Z</time>
      </trkpt>
      <trkpt lat="45.9185" lon="4.37717">
        <ele>746.8</ele>
        <time>2025-09-09T12:37:05Z</time>
      </trkpt>
      <trkpt lat="45.91849" lon="4.37717">
        <ele>746.8</ele>
        <time>2025-09-09T12:37:06Z</time>
      </trkpt>
      <trkpt lat="45.91848" lon="4.37717">
        <ele>747.2</ele>
        <time>2025-09-09T12:37:07Z</time>
      </trkpt>
      <trkpt lat="45.91846" lon="4.37716">
        <ele>747.2</ele>
        <time>2025-09-09T12:37:08Z</time>
      </trkpt>
      <trkpt lat="45.91845" lon="4.37716">
        <ele>747.2</ele>
        <time>2025-09-09T12:37:09Z</time>
      </trkpt>
      <trkpt lat="45.91844" lon="4.37714">
        <ele>747.2</ele>
        <time>2025-09-09T12:37:10Z</time>
      </trkpt>
      <trkpt lat="45.91844" lon="4.37713">
        <ele>747.2</ele>
        <time>2025-09-09T12:37:11Z</time>
      </trkpt>
      <trkpt lat="45.91843" lon="4.37711">
        <ele>747.2</ele>
        <time>2025-09-09T12:37:12Z</time>
      </trkpt>
      <trkpt lat="45.91842" lon="4.37709">
        <ele>747.2</ele>
        <time>2025-09-09T12:37:13Z</time>
      </trkpt>
      <trkpt lat="45.91842" lon="4.37708">
        <ele>747.4</ele>
        <time>2025-09-09T12:37:14Z</time>
      </trkpt>
      <trkpt lat="45.9184" lon="4.37706">
        <ele>747.8</ele>
        <time>2025-09-09T12:37:15Z</time>
      </trkpt>
      <trkpt lat="45.91839" lon="4.37705">
        <ele>748.2</ele>
        <time>2025-09-09T12:37:16Z</time>
      </trkpt>
      <trkpt lat="45.91838" lon="4.37703">
        <ele>748.4</ele>
        <time>2025-09-09T12:37:17Z</time>
      </trkpt>
      <trkpt lat="45.91837" lon="4.37703">
        <ele>748.4</ele>
        <time>2025-09-09T12:37:18Z</time>
      </trkpt>
      <trkpt lat="45.91836" lon="4.37702">
        <ele>748.4</ele>
        <time>2025-09-09T12:37:19Z</time>
      </trkpt>
      <trkpt lat="45.91835" lon="4.37701">
        <ele>748.4</ele>
        <time>2025-09-09T12:37:20Z</time>
      </trkpt>
      <trkpt lat="45.91834" lon="4.377">
        <ele>748.8</ele>
        <time>2025-09-09T12:37:21Z</time>
      </trkpt>
      <trkpt lat="45.91833" lon="4.37699">
        <ele>748.8</ele>
        <time>2025-09-09T12:37:22Z</time>
      </trkpt>
      <trkpt lat="45.91832" lon="4.37698">
        <ele>749.2</ele>
        <time>2025-09-09T12:37:23Z</time>
      </trkpt>
      <trkpt lat="45.91831" lon="4.37697">
        <ele>749.2</ele>
        <time>2025-09-09T12:37:24Z</time>
      </trkpt>
      <trkpt lat="45.91829" lon="4.37696">
        <ele>749.6</ele>
        <time>2025-09-09T12:37:25Z</time>
      </trkpt>
      <trkpt lat="45.91829" lon="4.37695">
        <ele>749.6</ele>
        <time>2025-09-09T12:37:26Z</time>
      </trkpt>
      <trkpt lat="45.91828" lon="4.37694">
        <ele>749.6</ele>
        <time>2025-09-09T12:37:27Z</time>
      </trkpt>
      <trkpt lat="45.91827" lon="4.37693">
        <ele>750</ele>
        <time>2025-09-09T12:37:28Z</time>
      </trkpt>
      <trkpt lat="45.91826" lon="4.37692">
        <ele>750.2</ele>
        <time>2025-09-09T12:37:29Z</time>
      </trkpt>
      <trkpt lat="45.91825" lon="4.37691">
        <ele>750.2</ele>
        <time>2025-09-09T12:37:30Z</time>
      </trkpt>
      <trkpt lat="45.91824" lon="4.3769">
        <ele>750.2</ele>
        <time>2025-09-09T12:37:31Z</time>
      </trkpt>
      <trkpt lat="45.91822" lon="4.3769">
        <ele>750.2</ele>
        <time>2025-09-09T12:37:32Z</time>
      </trkpt>
      <trkpt lat="45.91821" lon="4.37689">
        <ele>750.6</ele>
        <time>2025-09-09T12:37:33Z</time>
      </trkpt>
      <trkpt lat="45.9182" lon="4.37688">
        <ele>750.6</ele>
        <time>2025-09-09T12:37:34Z</time>
      </trkpt>
      <trkpt lat="45.91819" lon="4.37687">
        <ele>751</ele>
        <time>2025-09-09T12:37:35Z</time>
      </trkpt>
      <trkpt lat="45.91818" lon="4.37686">
        <ele>751</ele>
        <time>2025-09-09T12:37:36Z</time>
      </trkpt>
      <trkpt lat="45.91817" lon="4.37685">
        <ele>751.2</ele>
        <time>2025-09-09T12:37:37Z</time>
      </trkpt>
      <trkpt lat="45.91815" lon="4.37684">
        <ele>751.2</ele>
        <time>2025-09-09T12:37:38Z</time>
      </trkpt>
      <trkpt lat="45.91814" lon="4.37682">
        <ele>751.6</ele>
        <time>2025-09-09T12:37:39Z</time>
      </trkpt>
      <trkpt lat="45.91814" lon="4.37681">
        <ele>751.8</ele>
        <time>2025-09-09T12:37:40Z</time>
      </trkpt>
      <trkpt lat="45.91813" lon="4.3768">
        <ele>752</ele>
        <time>2025-09-09T12:37:41Z</time>
      </trkpt>
      <trkpt lat="45.91812" lon="4.37679">
        <ele>752</ele>
        <time>2025-09-09T12:37:42Z</time>
      </trkpt>
      <trkpt lat="45.91811" lon="4.37678">
        <ele>752.2</ele>
        <time>2025-09-09T12:37:43Z</time>
      </trkpt>
      <trkpt lat="45.9181" lon="4.37678">
        <ele>752.2</ele>
        <time>2025-09-09T12:37:44Z</time>
      </trkpt>
      <trkpt lat="45.91809" lon="4.37677">
        <ele>752.2</ele>
        <time>2025-09-09T12:37:45Z</time>
      </trkpt>
      <trkpt lat="45.91808" lon="4.37676">
        <ele>752.6</ele>
        <time>2025-09-09T12:37:46Z</time>
      </trkpt>
      <trkpt lat="45.91807" lon="4.37675">
        <ele>752.8</ele>
        <time>2025-09-09T12:37:47Z</time>
      </trkpt>
      <trkpt lat="45.91806" lon="4.37674">
        <ele>753</ele>
        <time>2025-09-09T12:37:48Z</time>
      </trkpt>
      <trkpt lat="45.91805" lon="4.37673">
        <ele>753</ele>
        <time>2025-09-09T12:37:49Z</time>
      </trkpt>
      <trkpt lat="45.91805" lon="4.37672">
        <ele>753.4</ele>
        <time>2025-09-09T12:37:50Z</time>
      </trkpt>
      <trkpt lat="45.91804" lon="4.37672">
        <ele>753.4</ele>
        <time>2025-09-09T12:37:51Z</time>
      </trkpt>
      <trkpt lat="45.91803" lon="4.37671">
        <ele>753.6</ele>
        <time>2025-09-09T12:37:52Z</time>
      </trkpt>
      <trkpt lat="45.91802" lon="4.37671">
        <ele>753.6</ele>
        <time>2025-09-09T12:37:53Z</time>
      </trkpt>
      <trkpt lat="45.91801" lon="4.3767">
        <ele>753.6</ele>
        <time>2025-09-09T12:37:54Z</time>
      </trkpt>
      <trkpt lat="45.918" lon="4.37669">
        <ele>753.6</ele>
        <time>2025-09-09T12:37:55Z</time>
      </trkpt>
      <trkpt lat="45.91799" lon="4.37669">
        <ele>753.6</ele>
        <time>2025-09-09T12:37:56Z</time>
      </trkpt>
      <trkpt lat="45.91799" lon="4.37668">
        <ele>754</ele>
        <time>2025-09-09T12:37:57Z</time>
      </trkpt>
      <trkpt lat="45.91798" lon="4.37667">
        <ele>754.2</ele>
        <time>2025-09-09T12:37:58Z</time>
      </trkpt>
      <trkpt lat="45.91797" lon="4.37667">
        <ele>754.2</ele>
        <time>2025-09-09T12:37:59Z</time>
      </trkpt>
      <trkpt lat="45.91795" lon="4.37666">
        <ele>754.4</ele>
        <time>2025-09-09T12:38:00Z</time>
      </trkpt>
      <trkpt lat="45.91794" lon="4.37665">
        <ele>754.6</ele>
        <time>2025-09-09T12:38:01Z</time>
      </trkpt>
      <trkpt lat="45.91793" lon="4.37664">
        <ele>754.6</ele>
        <time>2025-09-09T12:38:02Z</time>
      </trkpt>
      <trkpt lat="45.91792" lon="4.37664">
        <ele>754.6</ele>
        <time>2025-09-09T12:38:03Z</time>
      </trkpt>
      <trkpt lat="45.9179" lon="4.37664">
        <ele>754.8</ele>
        <time>2025-09-09T12:38:04Z</time>
      </trkpt>
      <trkpt lat="45.91789" lon="4.37663">
        <ele>754.8</ele>
        <time>2025-09-09T12:38:05Z</time>
      </trkpt>
      <trkpt lat="45.91787" lon="4.37663">
        <ele>755.2</ele>
        <time>2025-09-09T12:38:06Z</time>
      </trkpt>
      <trkpt lat="45.91786" lon="4.37662">
        <ele>755.2</ele>
        <time>2025-09-09T12:38:07Z</time>
      </trkpt>
      <trkpt lat="45.91785" lon="4.37661">
        <ele>755.4</ele>
        <time>2025-09-09T12:38:08Z</time>
      </trkpt>
      <trkpt lat="45.91783" lon="4.3766">
        <ele>755.4</ele>
        <time>2025-09-09T12:38:09Z</time>
      </trkpt>
      <trkpt lat="45.91782" lon="4.37659">
        <ele>755.4</ele>
        <time>2025-09-09T12:38:10Z</time>
      </trkpt>
      <trkpt lat="45.91781" lon="4.37658">
        <ele>755.6</ele>
        <time>2025-09-09T12:38:11Z</time>
      </trkpt>
      <trkpt lat="45.9178" lon="4.37657">
        <ele>755.6</ele>
        <time>2025-09-09T12:38:12Z</time>
      </trkpt>
      <trkpt lat="45.91779" lon="4.37656">
        <ele>756</ele>
        <time>2025-09-09T12:38:13Z</time>
      </trkpt>
      <trkpt lat="45.91779" lon="4.37656">
        <ele>756</ele>
        <time>2025-09-09T12:38:14Z</time>
      </trkpt>
      <trkpt lat="45.91778" lon="4.37655">
        <ele>756</ele>
        <time>2025-09-09T12:38:15Z</time>
      </trkpt>
      <trkpt lat="45.91777" lon="4.37654">
        <ele>756</ele>
        <time>2025-09-09T12:38:16Z</time>
      </trkpt>
      <trkpt lat="45.91776" lon="4.37653">
        <ele>756.8</ele>
        <time>2025-09-09T12:38:17Z</time>
      </trkpt>
      <trkpt lat="45.91775" lon="4.37652">
        <ele>756.8</ele>
        <time>2025-09-09T12:38:18Z</time>
      </trkpt>
      <trkpt lat="45.91774" lon="4.37651">
        <ele>757</ele>
        <time>2025-09-09T12:38:19Z</time>
      </trkpt>
      <trkpt lat="45.91773" lon="4.37649">
        <ele>757.4</ele>
        <time>2025-09-09T12:38:20Z</time>
      </trkpt>
      <trkpt lat="45.91772" lon="4.37648">
        <ele>757.6</ele>
        <time>2025-09-09T12:38:21Z</time>
      </trkpt>
      <trkpt lat="45.91771" lon="4.37647">
        <ele>757.6</ele>
        <time>2025-09-09T12:38:22Z</time>
      </trkpt>
      <trkpt lat="45.9177" lon="4.37646">
        <ele>757.8</ele>
        <time>2025-09-09T12:38:23Z</time>
      </trkpt>
      <trkpt lat="45.91769" lon="4.37645">
        <ele>758</ele>
        <time>2025-09-09T12:38:24Z</time>
      </trkpt>
      <trkpt lat="45.91768" lon="4.37644">
        <ele>758</ele>
        <time>2025-09-09T12:38:25Z</time>
      </trkpt>
      <trkpt lat="45.91766" lon="4.37644">
        <ele>758</ele>
        <time>2025-09-09T12:38:26Z</time>
      </trkpt>
      <trkpt lat="45.91765" lon="4.37643">
        <ele>758</ele>
        <time>2025-09-09T12:38:27Z</time>
      </trkpt>
      <trkpt lat="45.91764" lon="4.37642">
        <ele>758.4</ele>
        <time>2025-09-09T12:38:28Z</time>
      </trkpt>
      <trkpt lat="45.91763" lon="4.37641">
        <ele>758.6</ele>
        <time>2025-09-09T12:38:29Z</time>
      </trkpt>
      <trkpt lat="45.91763" lon="4.3764">
        <ele>758.6</ele>
        <time>2025-09-09T12:38:30Z</time>
      </trkpt>
      <trkpt lat="45.91762" lon="4.37639">
        <ele>758.6</ele>
        <time>2025-09-09T12:38:31Z</time>
      </trkpt>
      <trkpt lat="45.91761" lon="4.37638">
        <ele>758.8</ele>
        <time>2025-09-09T12:38:32Z</time>
      </trkpt>
      <trkpt lat="45.9176" lon="4.37637">
        <ele>758.8</ele>
        <time>2025-09-09T12:38:33Z</time>
      </trkpt>
      <trkpt lat="45.91759" lon="4.37637">
        <ele>759.2</ele>
        <time>2025-09-09T12:38:34Z</time>
      </trkpt>
      <trkpt lat="45.91758" lon="4.37636">
        <ele>759.4</ele>
        <time>2025-09-09T12:38:35Z</time>
      </trkpt>
      <trkpt lat="45.91757" lon="4.37635">
        <ele>759.4</ele>
        <time>2025-09-09T12:38:36Z</time>
      </trkpt>
      <trkpt lat="45.91756" lon="4.37634">
        <ele>759.4</ele>
        <time>2025-09-09T12:38:37Z</time>
      </trkpt>
      <trkpt lat="45.91755" lon="4.37633">
        <ele>759.6</ele>
        <time>2025-09-09T12:38:38Z</time>
      </trkpt>
      <trkpt lat="45.91755" lon="4.37633">
        <ele>759.6</ele>
        <time>2025-09-09T12:38:39Z</time>
      </trkpt>
      <trkpt lat="45.91754" lon="4.37632">
        <ele>759.6</ele>
        <time>2025-09-09T12:38:40Z</time>
      </trkpt>
      <trkpt lat="45.91754" lon="4.37632">
        <ele>760</ele>
        <time>2025-09-09T12:38:41Z</time>
      </trkpt>
      <trkpt lat="45.91753" lon="4.37631">
        <ele>760</ele>
        <time>2025-09-09T12:38:42Z</time>
      </trkpt>
      <trkpt lat="45.91752" lon="4.3763">
        <ele>760.2</ele>
        <time>2025-09-09T12:38:43Z</time>
      </trkpt>
      <trkpt lat="45.91751" lon="4.37629">
        <ele>760.2</ele>
        <time>2025-09-09T12:38:44Z</time>
      </trkpt>
      <trkpt lat="45.9175" lon="4.37628">
        <ele>760.6</ele>
        <time>2025-09-09T12:38:45Z</time>
      </trkpt>
      <trkpt lat="45.91749" lon="4.37626">
        <ele>760.6</ele>
        <time>2025-09-09T12:38:46Z</time>
      </trkpt>
      <trkpt lat="45.91748" lon="4.37625">
        <ele>760.6</ele>
        <time>2025-09-09T12:38:47Z</time>
      </trkpt>
      <trkpt lat="45.91747" lon="4.37623">
        <ele>761</ele>
        <time>2025-09-09T12:38:48Z</time>
      </trkpt>
      <trkpt lat="45.91746" lon="4.37622">
        <ele>761</ele>
        <time>2025-09-09T12:38:49Z</time>
      </trkpt>
      <trkpt lat="45.91745" lon="4.37621">
        <ele>761.2</ele>
        <time>2025-09-09T12:38:50Z</time>
      </trkpt>
      <trkpt lat="45.91744" lon="4.3762">
        <ele>761.2</ele>
        <time>2025-09-09T12:38:51Z</time>
      </trkpt>
      <trkpt lat="45.91743" lon="4.37618">
        <ele>761.4</ele>
        <time>2025-09-09T12:38:52Z</time>
      </trkpt>
      <trkpt lat="45.91742" lon="4.37618">
        <ele>761.4</ele>
        <time>2025-09-09T12:38:53Z</time>
      </trkpt>
      <trkpt lat="45.91741" lon="4.37617">
        <ele>761.4</ele>
        <time>2025-09-09T12:38:54Z</time>
      </trkpt>
      <trkpt lat="45.9174" lon="4.37616">
        <ele>761.8</ele>
        <time>2025-09-09T12:38:55Z</time>
      </trkpt>
      <trkpt lat="45.91739" lon="4.37614">
        <ele>761.8</ele>
        <time>2025-09-09T12:38:56Z</time>
      </trkpt>
      <trkpt lat="45.91737" lon="4.37613">
        <ele>762</ele>
        <time>2025-09-09T12:38:57Z</time>
      </trkpt>
      <trkpt lat="45.91736" lon="4.37611">
        <ele>762</ele>
        <time>2025-09-09T12:38:58Z</time>
      </trkpt>
      <trkpt lat="45.91735" lon="4.37609">
        <ele>762.4</ele>
        <time>2025-09-09T12:38:59Z</time>
      </trkpt>
      <trkpt lat="45.91734" lon="4.37607">
        <ele>762.4</ele>
        <time>2025-09-09T12:39:00Z</time>
      </trkpt>
      <trkpt lat="45.91732" lon="4.37605">
        <ele>762.4</ele>
        <time>2025-09-09T12:39:01Z</time>
      </trkpt>
      <trkpt lat="45.91731" lon="4.37604">
        <ele>762.4</ele>
        <time>2025-09-09T12:39:02Z</time>
      </trkpt>
      <trkpt lat="45.9173" lon="4.37603">
        <ele>762.6</ele>
        <time>2025-09-09T12:39:03Z</time>
      </trkpt>
      <trkpt lat="45.91728" lon="4.37602">
        <ele>762.6</ele>
        <time>2025-09-09T12:39:04Z</time>
      </trkpt>
      <trkpt lat="45.91727" lon="4.376">
        <ele>762.8</ele>
        <time>2025-09-09T12:39:05Z</time>
      </trkpt>
      <trkpt lat="45.91726" lon="4.37599">
        <ele>762.8</ele>
        <time>2025-09-09T12:39:06Z</time>
      </trkpt>
      <trkpt lat="45.91725" lon="4.37598">
        <ele>762.8</ele>
        <time>2025-09-09T12:39:07Z</time>
      </trkpt>
      <trkpt lat="45.91724" lon="4.37596">
        <ele>762.8</ele>
        <time>2025-09-09T12:39:08Z</time>
      </trkpt>
      <trkpt lat="45.91723" lon="4.37595">
        <ele>763.2</ele>
        <time>2025-09-09T12:39:09Z</time>
      </trkpt>
      <trkpt lat="45.91721" lon="4.37593">
        <ele>763.2</ele>
        <time>2025-09-09T12:39:10Z</time>
      </trkpt>
      <trkpt lat="45.9172" lon="4.37592">
        <ele>763.4</ele>
        <time>2025-09-09T12:39:11Z</time>
      </trkpt>
      <trkpt lat="45.91718" lon="4.37591">
        <ele>763.4</ele>
        <time>2025-09-09T12:39:12Z</time>
      </trkpt>
      <trkpt lat="45.91717" lon="4.3759">
        <ele>763.4</ele>
        <time>2025-09-09T12:39:13Z</time>
      </trkpt>
      <trkpt lat="45.91716" lon="4.37589">
        <ele>763.6</ele>
        <time>2025-09-09T12:39:14Z</time>
      </trkpt>
      <trkpt lat="45.91715" lon="4.37587">
        <ele>763.6</ele>
        <time>2025-09-09T12:39:15Z</time>
      </trkpt>
      <trkpt lat="45.91714" lon="4.37586">
        <ele>763.6</ele>
        <time>2025-09-09T12:39:16Z</time>
      </trkpt>
      <trkpt lat="45.91712" lon="4.37585">
        <ele>763.8</ele>
        <time>2025-09-09T12:39:17Z</time>
      </trkpt>
      <trkpt lat="45.91711" lon="4.37584">
        <ele>763.8</ele>
        <time>2025-09-09T12:39:18Z</time>
      </trkpt>
      <trkpt lat="45.91709" lon="4.37583">
        <ele>764</ele>
        <time>2025-09-09T12:39:19Z</time>
      </trkpt>
      <trkpt lat="45.91708" lon="4.37581">
        <ele>764</ele>
        <time>2025-09-09T12:39:20Z</time>
      </trkpt>
      <trkpt lat="45.91708" lon="4.3758">
        <ele>764</ele>
        <time>2025-09-09T12:39:21Z</time>
      </trkpt>
      <trkpt lat="45.91707" lon="4.37578">
        <ele>764.2</ele>
        <time>2025-09-09T12:39:22Z</time>
      </trkpt>
      <trkpt lat="45.91705" lon="4.37577">
        <ele>764.2</ele>
        <time>2025-09-09T12:39:23Z</time>
      </trkpt>
      <trkpt lat="45.91704" lon="4.37575">
        <ele>764.2</ele>
        <time>2025-09-09T12:39:24Z</time>
      </trkpt>
      <trkpt lat="45.91703" lon="4.37573">
        <ele>764.2</ele>
        <time>2025-09-09T12:39:25Z</time>
      </trkpt>
      <trkpt lat="45.91701" lon="4.3757">
        <ele>764.2</ele>
        <time>2025-09-09T12:39:26Z</time>
      </trkpt>
      <trkpt lat="45.917" lon="4.37569">
        <ele>764.2</ele>
        <time>2025-09-09T12:39:27Z</time>
      </trkpt>
      <trkpt lat="45.91699" lon="4.37567">
        <ele>764.6</ele>
        <time>2025-09-09T12:39:28Z</time>
      </trkpt>
      <trkpt lat="45.91698" lon="4.37566">
        <ele>764.6</ele>
        <time>2025-09-09T12:39:29Z</time>
      </trkpt>
      <trkpt lat="45.91697" lon="4.37564">
        <ele>764.6</ele>
        <time>2025-09-09T12:39:30Z</time>
      </trkpt>
      <trkpt lat="45.91696" lon="4.37563">
        <ele>764.8</ele>
        <time>2025-09-09T12:39:31Z</time>
      </trkpt>
      <trkpt lat="45.91694" lon="4.37561">
        <ele>764.8</ele>
        <time>2025-09-09T12:39:32Z</time>
      </trkpt>
      <trkpt lat="45.91694" lon="4.3756">
        <ele>764.8</ele>
        <time>2025-09-09T12:39:33Z</time>
      </trkpt>
      <trkpt lat="45.91693" lon="4.37558">
        <ele>765.2</ele>
        <time>2025-09-09T12:39:34Z</time>
      </trkpt>
      <trkpt lat="45.91692" lon="4.37556">
        <ele>765.2</ele>
        <time>2025-09-09T12:39:35Z</time>
      </trkpt>
      <trkpt lat="45.91691" lon="4.37555">
        <ele>765.4</ele>
        <time>2025-09-09T12:39:36Z</time>
      </trkpt>
      <trkpt lat="45.91691" lon="4.37554">
        <ele>765.4</ele>
        <time>2025-09-09T12:39:37Z</time>
      </trkpt>
      <trkpt lat="45.9169" lon="4.37552">
        <ele>765.4</ele>
        <time>2025-09-09T12:39:38Z</time>
      </trkpt>
      <trkpt lat="45.91689" lon="4.37551">
        <ele>765.8</ele>
        <time>2025-09-09T12:39:39Z</time>
      </trkpt>
      <trkpt lat="45.91688" lon="4.37549">
        <ele>765.8</ele>
        <time>2025-09-09T12:39:40Z</time>
      </trkpt>
      <trkpt lat="45.91687" lon="4.37548">
        <ele>766</ele>
        <time>2025-09-09T12:39:41Z</time>
      </trkpt>
      <trkpt lat="45.91686" lon="4.37546">
        <ele>766</ele>
        <time>2025-09-09T12:39:42Z</time>
      </trkpt>
      <trkpt lat="45.91685" lon="4.37545">
        <ele>766</ele>
        <time>2025-09-09T12:39:43Z</time>
      </trkpt>
      <trkpt lat="45.91684" lon="4.37543">
        <ele>766</ele>
        <time>2025-09-09T12:39:44Z</time>
      </trkpt>
      <trkpt lat="45.91684" lon="4.37541">
        <ele>766.4</ele>
        <time>2025-09-09T12:39:45Z</time>
      </trkpt>
      <trkpt lat="45.91683" lon="4.3754">
        <ele>766.4</ele>
        <time>2025-09-09T12:39:46Z</time>
      </trkpt>
      <trkpt lat="45.91683" lon="4.37539">
        <ele>766.8</ele>
        <time>2025-09-09T12:39:47Z</time>
      </trkpt>
      <trkpt lat="45.91682" lon="4.37537">
        <ele>767</ele>
        <time>2025-09-09T12:39:48Z</time>
      </trkpt>
      <trkpt lat="45.91682" lon="4.37535">
        <ele>767.2</ele>
        <time>2025-09-09T12:39:49Z</time>
      </trkpt>
      <trkpt lat="45.91681" lon="4.37534">
        <ele>767.6</ele>
        <time>2025-09-09T12:39:50Z</time>
      </trkpt>
      <trkpt lat="45.91679" lon="4.37533">
        <ele>767.8</ele>
        <time>2025-09-09T12:39:51Z</time>
      </trkpt>
      <trkpt lat="45.91678" lon="4.37532">
        <ele>768</ele>
        <time>2025-09-09T12:39:52Z</time>
      </trkpt>
      <trkpt lat="45.91676" lon="4.37531">
        <ele>768.4</ele>
        <time>2025-09-09T12:39:53Z</time>
      </trkpt>
      <trkpt lat="45.91675" lon="4.37531">
        <ele>768.6</ele>
        <time>2025-09-09T12:39:54Z</time>
      </trkpt>
      <trkpt lat="45.91674" lon="4.3753">
        <ele>768.6</ele>
        <time>2025-09-09T12:39:55Z</time>
      </trkpt>
      <trkpt lat="45.91673" lon="4.37529">
        <ele>768.6</ele>
        <time>2025-09-09T12:39:56Z</time>
      </trkpt>
      <trkpt lat="45.91672" lon="4.37527">
        <ele>768.8</ele>
        <time>2025-09-09T12:39:57Z</time>
      </trkpt>
      <trkpt lat="45.91671" lon="4.37525">
        <ele>768.8</ele>
        <time>2025-09-09T12:39:58Z</time>
      </trkpt>
      <trkpt lat="45.91671" lon="4.37523">
        <ele>769.2</ele>
        <time>2025-09-09T12:39:59Z</time>
      </trkpt>
      <trkpt lat="45.9167" lon="4.37521">
        <ele>769.6</ele>
        <time>2025-09-09T12:40:00Z</time>
      </trkpt>
      <trkpt lat="45.91669" lon="4.3752">
        <ele>769.8</ele>
        <time>2025-09-09T12:40:01Z</time>
      </trkpt>
      <trkpt lat="45.91668" lon="4.37519">
        <ele>769.8</ele>
        <time>2025-09-09T12:40:02Z</time>
      </trkpt>
      <trkpt lat="45.91666" lon="4.37518">
        <ele>770.2</ele>
        <time>2025-09-09T12:40:03Z</time>
      </trkpt>
      <trkpt lat="45.91665" lon="4.37518">
        <ele>770.2</ele>
        <time>2025-09-09T12:40:04Z</time>
      </trkpt>
      <trkpt lat="45.91663" lon="4.37517">
        <ele>770.2</ele>
        <time>2025-09-09T12:40:05Z</time>
      </trkpt>
      <trkpt lat="45.91662" lon="4.37517">
        <ele>770.6</ele>
        <time>2025-09-09T12:40:06Z</time>
      </trkpt>
      <trkpt lat="45.9166" lon="4.37517">
        <ele>770.6</ele>
        <time>2025-09-09T12:40:07Z</time>
      </trkpt>
      <trkpt lat="45.91659" lon="4.37516">
        <ele>770.8</ele>
        <time>2025-09-09T12:40:08Z</time>
      </trkpt>
      <trkpt lat="45.91658" lon="4.37516">
        <ele>770.8</ele>
        <time>2025-09-09T12:40:09Z</time>
      </trkpt>
      <trkpt lat="45.91657" lon="4.37515">
        <ele>771.2</ele>
        <time>2025-09-09T12:40:10Z</time>
      </trkpt>
      <trkpt lat="45.91656" lon="4.37515">
        <ele>771.4</ele>
        <time>2025-09-09T12:40:11Z</time>
      </trkpt>
      <trkpt lat="45.91655" lon="4.37514">
        <ele>771.4</ele>
        <time>2025-09-09T12:40:12Z</time>
      </trkpt>
      <trkpt lat="45.91653" lon="4.37514">
        <ele>771.4</ele>
        <time>2025-09-09T12:40:13Z</time>
      </trkpt>
      <trkpt lat="45.91652" lon="4.37513">
        <ele>771.4</ele>
        <time>2025-09-09T12:40:14Z</time>
      </trkpt>
      <trkpt lat="45.9165" lon="4.37512">
        <ele>771.4</ele>
        <time>2025-09-09T12:40:15Z</time>
      </trkpt>
      <trkpt lat="45.91649" lon="4.37511">
        <ele>771.8</ele>
        <time>2025-09-09T12:40:16Z</time>
      </trkpt>
      <trkpt lat="45.91648" lon="4.3751">
        <ele>771.8</ele>
        <time>2025-09-09T12:40:17Z</time>
      </trkpt>
      <trkpt lat="45.91647" lon="4.37509">
        <ele>772</ele>
        <time>2025-09-09T12:40:18Z</time>
      </trkpt>
      <trkpt lat="45.91645" lon="4.37508">
        <ele>772</ele>
        <time>2025-09-09T12:40:19Z</time>
      </trkpt>
      <trkpt lat="45.91644" lon="4.37507">
        <ele>772.4</ele>
        <time>2025-09-09T12:40:20Z</time>
      </trkpt>
      <trkpt lat="45.91643" lon="4.37506">
        <ele>772.4</ele>
        <time>2025-09-09T12:40:21Z</time>
      </trkpt>
      <trkpt lat="45.91642" lon="4.37505">
        <ele>772.4</ele>
        <time>2025-09-09T12:40:22Z</time>
      </trkpt>
      <trkpt lat="45.9164" lon="4.37504">
        <ele>772.4</ele>
        <time>2025-09-09T12:40:23Z</time>
      </trkpt>
      <trkpt lat="45.91639" lon="4.37503">
        <ele>772.4</ele>
        <time>2025-09-09T12:40:24Z</time>
      </trkpt>
      <trkpt lat="45.91638" lon="4.37503">
        <ele>772.6</ele>
        <time>2025-09-09T12:40:25Z</time>
      </trkpt>
      <trkpt lat="45.91636" lon="4.37502">
        <ele>772.6</ele>
        <time>2025-09-09T12:40:26Z</time>
      </trkpt>
      <trkpt lat="45.91635" lon="4.37501">
        <ele>772.8</ele>
        <time>2025-09-09T12:40:27Z</time>
      </trkpt>
      <trkpt lat="45.91633" lon="4.37499">
        <ele>773</ele>
        <time>2025-09-09T12:40:28Z</time>
      </trkpt>
      <trkpt lat="45.91632" lon="4.37498">
        <ele>773</ele>
        <time>2025-09-09T12:40:29Z</time>
      </trkpt>
      <trkpt lat="45.91631" lon="4.37496">
        <ele>773</ele>
        <time>2025-09-09T12:40:30Z</time>
      </trkpt>
      <trkpt lat="45.9163" lon="4.37494">
        <ele>773.4</ele>
        <time>2025-09-09T12:40:31Z</time>
      </trkpt>
      <trkpt lat="45.91629" lon="4.37492">
        <ele>773.4</ele>
        <time>2025-09-09T12:40:32Z</time>
      </trkpt>
      <trkpt lat="45.91628" lon="4.37491">
        <ele>773.4</ele>
        <time>2025-09-09T12:40:33Z</time>
      </trkpt>
      <trkpt lat="45.91626" lon="4.3749">
        <ele>773.6</ele>
        <time>2025-09-09T12:40:34Z</time>
      </trkpt>
      <trkpt lat="45.91625" lon="4.37488">
        <ele>773.6</ele>
        <time>2025-09-09T12:40:35Z</time>
      </trkpt>
      <trkpt lat="45.91624" lon="4.37487">
        <ele>773.6</ele>
        <time>2025-09-09T12:40:36Z</time>
      </trkpt>
      <trkpt lat="45.91622" lon="4.37486">
        <ele>773.2</ele>
        <time>2025-09-09T12:40:37Z</time>
      </trkpt>
      <trkpt lat="45.9162" lon="4.37485">
        <ele>773.2</ele>
        <time>2025-09-09T12:40:38Z</time>
      </trkpt>
      <trkpt lat="45.91618" lon="4.37484">
        <ele>773</ele>
        <time>2025-09-09T12:40:39Z</time>
      </trkpt>
      <trkpt lat="45.91614" lon="4.37483">
        <ele>772.8</ele>
        <time>2025-09-09T12:40:40Z</time>
      </trkpt>
      <trkpt lat="45.91613" lon="4.37482">
        <ele>772.8</ele>
        <time>2025-09-09T12:40:41Z</time>
      </trkpt>
      <trkpt lat="45.91612" lon="4.37481">
        <ele>772.4</ele>
        <time>2025-09-09T12:40:42Z</time>
      </trkpt>
      <trkpt lat="45.91612" lon="4.37481">
        <ele>772.4</ele>
        <time>2025-09-09T12:40:43Z</time>
      </trkpt>
      <trkpt lat="45.91612" lon="4.37482">
        <ele>772.4</ele>
        <time>2025-09-09T12:40:44Z</time>
      </trkpt>
      <trkpt lat="45.91612" lon="4.37482">
        <ele>772.4</ele>
        <time>2025-09-09T12:40:45Z</time>
      </trkpt>
      <trkpt lat="45.91612" lon="4.37482">
        <ele>773.4</ele>
        <time>2025-09-09T12:41:30Z</time>
      </trkpt>
      <trkpt lat="45.9161" lon="4.37481">
        <ele>773.4</ele>
        <time>2025-09-09T12:41:31Z</time>
      </trkpt>
      <trkpt lat="45.91609" lon="4.37479">
        <ele>773.4</ele>
        <time>2025-09-09T12:41:32Z</time>
      </trkpt>
      <trkpt lat="45.91607" lon="4.37478">
        <ele>773.4</ele>
        <time>2025-09-09T12:41:33Z</time>
      </trkpt>
      <trkpt lat="45.91605" lon="4.37476">
        <ele>773</ele>
        <time>2025-09-09T12:41:34Z</time>
      </trkpt>
      <trkpt lat="45.91602" lon="4.37474">
        <ele>773</ele>
        <time>2025-09-09T12:41:35Z</time>
      </trkpt>
      <trkpt lat="45.916" lon="4.37473">
        <ele>773</ele>
        <time>2025-09-09T12:41:36Z</time>
      </trkpt>
      <trkpt lat="45.91598" lon="4.37471">
        <ele>773</ele>
        <time>2025-09-09T12:41:37Z</time>
      </trkpt>
      <trkpt lat="45.91596" lon="4.37469">
        <ele>772.8</ele>
        <time>2025-09-09T12:41:38Z</time>
      </trkpt>
      <trkpt lat="45.91595" lon="4.37467">
        <ele>772.8</ele>
        <time>2025-09-09T12:41:39Z</time>
      </trkpt>
      <trkpt lat="45.91593" lon="4.37465">
        <ele>772.4</ele>
        <time>2025-09-09T12:41:40Z</time>
      </trkpt>
      <trkpt lat="45.91592" lon="4.37464">
        <ele>772.4</ele>
        <time>2025-09-09T12:41:41Z</time>
      </trkpt>
      <trkpt lat="45.91592" lon="4.37463">
        <ele>772.4</ele>
        <time>2025-09-09T12:41:42Z</time>
      </trkpt>
      <trkpt lat="45.91591" lon="4.37463">
        <ele>772.4</ele>
        <time>2025-09-09T12:41:43Z</time>
      </trkpt>
      <trkpt lat="45.91591" lon="4.37463">
        <ele>772.4</ele>
        <time>2025-09-09T12:41:44Z</time>
      </trkpt>
      <trkpt lat="45.91588" lon="4.3746">
        <ele>772.2</ele>
        <time>2025-09-09T12:44:44Z</time>
      </trkpt>
      <trkpt lat="45.91588" lon="4.3746">
        <ele>772.2</ele>
        <time>2025-09-09T12:44:45Z</time>
      </trkpt>
      <trkpt lat="45.91588" lon="4.3746">
        <ele>772.2</ele>
        <time>2025-09-09T12:44:46Z</time>
      </trkpt>
      <trkpt lat="45.91588" lon="4.3746">
        <ele>772.2</ele>
        <time>2025-09-09T12:44:47Z</time>
      </trkpt>
      <trkpt lat="45.9158" lon="4.37451">
        <ele>772</ele>
        <time>2025-09-09T12:44:49Z</time>
      </trkpt>
      <trkpt lat="45.91577" lon="4.37449">
        <ele>772</ele>
        <time>2025-09-09T12:44:50Z</time>
      </trkpt>
      <trkpt lat="45.91574" lon="4.37447">
        <ele>771.8</ele>
        <time>2025-09-09T12:44:51Z</time>
      </trkpt>
      <trkpt lat="45.91571" lon="4.37445">
        <ele>771.8</ele>
        <time>2025-09-09T12:44:52Z</time>
      </trkpt>
      <trkpt lat="45.91569" lon="4.37443">
        <ele>771.4</ele>
        <time>2025-09-09T12:44:53Z</time>
      </trkpt>
      <trkpt lat="45.91566" lon="4.3744">
        <ele>771.4</ele>
        <time>2025-09-09T12:44:54Z</time>
      </trkpt>
      <trkpt lat="45.91564" lon="4.37438">
        <ele>771.4</ele>
        <time>2025-09-09T12:44:55Z</time>
      </trkpt>
      <trkpt lat="45.91562" lon="4.37436">
        <ele>771.4</ele>
        <time>2025-09-09T12:44:56Z</time>
      </trkpt>
      <trkpt lat="45.91559" lon="4.37433">
        <ele>771.2</ele>
        <time>2025-09-09T12:44:57Z</time>
      </trkpt>
      <trkpt lat="45.91556" lon="4.37431">
        <ele>771.2</ele>
        <time>2025-09-09T12:44:58Z</time>
      </trkpt>
      <trkpt lat="45.91553" lon="4.37429">
        <ele>771.2</ele>
        <time>2025-09-09T12:44:59Z</time>
      </trkpt>
      <trkpt lat="45.91551" lon="4.37427">
        <ele>771.2</ele>
        <time>2025-09-09T12:45:00Z</time>
      </trkpt>
      <trkpt lat="45.91549" lon="4.37424">
        <ele>771.2</ele>
        <time>2025-09-09T12:45:01Z</time>
      </trkpt>
      <trkpt lat="45.91546" lon="4.37422">
        <ele>771.2</ele>
        <time>2025-09-09T12:45:02Z</time>
      </trkpt>
      <trkpt lat="45.91543" lon="4.3742">
        <ele>771.2</ele>
        <time>2025-09-09T12:45:03Z</time>
      </trkpt>
      <trkpt lat="45.9154" lon="4.37418">
        <ele>771.6</ele>
        <time>2025-09-09T12:45:04Z</time>
      </trkpt>
      <trkpt lat="45.91537" lon="4.37416">
        <ele>771.6</ele>
        <time>2025-09-09T12:45:05Z</time>
      </trkpt>
      <trkpt lat="45.91534" lon="4.37414">
        <ele>771.6</ele>
        <time>2025-09-09T12:45:06Z</time>
      </trkpt>
      <trkpt lat="45.91531" lon="4.37413">
        <ele>771.6</ele>
        <time>2025-09-09T12:45:07Z</time>
      </trkpt>
      <trkpt lat="45.91528" lon="4.37411">
        <ele>771.6</ele>
        <time>2025-09-09T12:45:08Z</time>
      </trkpt>
      <trkpt lat="45.91526" lon="4.37409">
        <ele>771.6</ele>
        <time>2025-09-09T12:45:09Z</time>
      </trkpt>
      <trkpt lat="45.9152" lon="4.37406">
        <ele>771.6</ele>
        <time>2025-09-09T12:45:10Z</time>
      </trkpt>
      <trkpt lat="45.91516" lon="4.37404">
        <ele>771.6</ele>
        <time>2025-09-09T12:45:11Z</time>
      </trkpt>
      <trkpt lat="45.91512" lon="4.37403">
        <ele>771.6</ele>
        <time>2025-09-09T12:45:12Z</time>
      </trkpt>
      <trkpt lat="45.91509" lon="4.37401">
        <ele>771.6</ele>
        <time>2025-09-09T12:45:13Z</time>
      </trkpt>
      <trkpt lat="45.91504" lon="4.37398">
        <ele>771.4</ele>
        <time>2025-09-09T12:45:14Z</time>
      </trkpt>
      <trkpt lat="45.91499" lon="4.37395">
        <ele>770.8</ele>
        <time>2025-09-09T12:45:15Z</time>
      </trkpt>
      <trkpt lat="45.91494" lon="4.37392">
        <ele>770.8</ele>
        <time>2025-09-09T12:45:16Z</time>
      </trkpt>
      <trkpt lat="45.9149" lon="4.37389">
        <ele>770.8</ele>
        <time>2025-09-09T12:45:17Z</time>
      </trkpt>
      <trkpt lat="45.9149" lon="4.37389">
        <ele>770.4</ele>
        <time>2025-09-09T12:45:18Z</time>
      </trkpt>
      <trkpt lat="45.91486" lon="4.37387">
        <ele>770.4</ele>
        <time>2025-09-09T12:45:19Z</time>
      </trkpt>
      <trkpt lat="45.91482" lon="4.37384">
        <ele>770.4</ele>
        <time>2025-09-09T12:45:20Z</time>
      </trkpt>
      <trkpt lat="45.91479" lon="4.37383">
        <ele>769.8</ele>
        <time>2025-09-09T12:45:21Z</time>
      </trkpt>
      <trkpt lat="45.91476" lon="4.3738">
        <ele>769.4</ele>
        <time>2025-09-09T12:45:22Z</time>
      </trkpt>
      <trkpt lat="45.91473" lon="4.37378">
        <ele>769.2</ele>
        <time>2025-09-09T12:45:23Z</time>
      </trkpt>
      <trkpt lat="45.9147" lon="4.37375">
        <ele>768.8</ele>
        <time>2025-09-09T12:45:24Z</time>
      </trkpt>
      <trkpt lat="45.91467" lon="4.37372">
        <ele>768.2</ele>
        <time>2025-09-09T12:45:25Z</time>
      </trkpt>
      <trkpt lat="45.91463" lon="4.37369">
        <ele>768.2</ele>
        <time>2025-09-09T12:45:26Z</time>
      </trkpt>
      <trkpt lat="45.91459" lon="4.37367">
        <ele>768.4</ele>
        <time>2025-09-09T12:45:27Z</time>
      </trkpt>
      <trkpt lat="45.91455" lon="4.37364">
        <ele>768.4</ele>
        <time>2025-09-09T12:45:28Z</time>
      </trkpt>
      <trkpt lat="45.91451" lon="4.37361">
        <ele>767.8</ele>
        <time>2025-09-09T12:45:29Z</time>
      </trkpt>
      <trkpt lat="45.91445" lon="4.37359">
        <ele>767.8</ele>
        <time>2025-09-09T12:45:30Z</time>
      </trkpt>
      <trkpt lat="45.9144" lon="4.37355">
        <ele>767.4</ele>
        <time>2025-09-09T12:45:31Z</time>
      </trkpt>
      <trkpt lat="45.91436" lon="4.37352">
        <ele>766.8</ele>
        <time>2025-09-09T12:45:32Z</time>
      </trkpt>
      <trkpt lat="45.91431" lon="4.37348">
        <ele>766.8</ele>
        <time>2025-09-09T12:45:33Z</time>
      </trkpt>
      <trkpt lat="45.91426" lon="4.37344">
        <ele>766.4</ele>
        <time>2025-09-09T12:45:34Z</time>
      </trkpt>
      <trkpt lat="45.91421" lon="4.3734">
        <ele>766.2</ele>
        <time>2025-09-09T12:45:35Z</time>
      </trkpt>
      <trkpt lat="45.91416" lon="4.37335">
        <ele>766.2</ele>
        <time>2025-09-09T12:45:36Z</time>
      </trkpt>
      <trkpt lat="45.91411" lon="4.37331">
        <ele>766</ele>
        <time>2025-09-09T12:45:37Z</time>
      </trkpt>
      <trkpt lat="45.91406" lon="4.37328">
        <ele>766</ele>
        <time>2025-09-09T12:45:38Z</time>
      </trkpt>
      <trkpt lat="45.91401" lon="4.37324">
        <ele>766</ele>
        <time>2025-09-09T12:45:39Z</time>
      </trkpt>
      <trkpt lat="45.91397" lon="4.37322">
        <ele>765.6</ele>
        <time>2025-09-09T12:45:40Z</time>
      </trkpt>
      <trkpt lat="45.91392" lon="4.37319">
        <ele>765.6</ele>
        <time>2025-09-09T12:45:41Z</time>
      </trkpt>
      <trkpt lat="45.91387" lon="4.37317">
        <ele>765.6</ele>
        <time>2025-09-09T12:45:42Z</time>
      </trkpt>
      <trkpt lat="45.91383" lon="4.37315">
        <ele>765.6</ele>
        <time>2025-09-09T12:45:43Z</time>
      </trkpt>
      <trkpt lat="45.91379" lon="4.37313">
        <ele>765.6</ele>
        <time>2025-09-09T12:45:44Z</time>
      </trkpt>
      <trkpt lat="45.91374" lon="4.37311">
        <ele>766.6</ele>
        <time>2025-09-09T12:45:45Z</time>
      </trkpt>
      <trkpt lat="45.91371" lon="4.37309">
        <ele>766.6</ele>
        <time>2025-09-09T12:45:46Z</time>
      </trkpt>
      <trkpt lat="45.91367" lon="4.37307">
        <ele>766.6</ele>
        <time>2025-09-09T12:45:47Z</time>
      </trkpt>
      <trkpt lat="45.91363" lon="4.37305">
        <ele>766.8</ele>
        <time>2025-09-09T12:45:48Z</time>
      </trkpt>
      <trkpt lat="45.9136" lon="4.37303">
        <ele>767.2</ele>
        <time>2025-09-09T12:45:49Z</time>
      </trkpt>
      <trkpt lat="45.91358" lon="4.37301">
        <ele>767.2</ele>
        <time>2025-09-09T12:45:50Z</time>
      </trkpt>
      <trkpt lat="45.91355" lon="4.373">
        <ele>767.2</ele>
        <time>2025-09-09T12:45:51Z</time>
      </trkpt>
      <trkpt lat="45.91353" lon="4.37298">
        <ele>767.4</ele>
        <time>2025-09-09T12:45:52Z</time>
      </trkpt>
      <trkpt lat="45.91352" lon="4.37296">
        <ele>767.6</ele>
        <time>2025-09-09T12:45:53Z</time>
      </trkpt>
      <trkpt lat="45.9135" lon="4.37294">
        <ele>768.2</ele>
        <time>2025-09-09T12:45:54Z</time>
      </trkpt>
      <trkpt lat="45.91348" lon="4.37292">
        <ele>768.6</ele>
        <time>2025-09-09T12:45:55Z</time>
      </trkpt>
      <trkpt lat="45.91346" lon="4.3729">
        <ele>769.2</ele>
        <time>2025-09-09T12:45:56Z</time>
      </trkpt>
      <trkpt lat="45.91345" lon="4.37288">
        <ele>769.4</ele>
        <time>2025-09-09T12:45:57Z</time>
      </trkpt>
      <trkpt lat="45.91343" lon="4.37286">
        <ele>769.4</ele>
        <time>2025-09-09T12:45:58Z</time>
      </trkpt>
      <trkpt lat="45.91342" lon="4.37284">
        <ele>769.6</ele>
        <time>2025-09-09T12:45:59Z</time>
      </trkpt>
      <trkpt lat="45.9134" lon="4.37282">
        <ele>770</ele>
        <time>2025-09-09T12:46:00Z</time>
      </trkpt>
      <trkpt lat="45.91339" lon="4.3728">
        <ele>770</ele>
        <time>2025-09-09T12:46:01Z</time>
      </trkpt>
      <trkpt lat="45.91338" lon="4.37278">
        <ele>770</ele>
        <time>2025-09-09T12:46:02Z</time>
      </trkpt>
      <trkpt lat="45.91337" lon="4.37276">
        <ele>770</ele>
        <time>2025-09-09T12:46:03Z</time>
      </trkpt>
      <trkpt lat="45.91336" lon="4.37274">
        <ele>769.4</ele>
        <time>2025-09-09T12:46:04Z</time>
      </trkpt>
      <trkpt lat="45.91334" lon="4.37272">
        <ele>769.4</ele>
        <time>2025-09-09T12:46:05Z</time>
      </trkpt>
      <trkpt lat="45.91333" lon="4.3727">
        <ele>769.8</ele>
        <time>2025-09-09T12:46:06Z</time>
      </trkpt>
      <trkpt lat="45.91333" lon="4.37269">
        <ele>770.2</ele>
        <time>2025-09-09T12:46:07Z</time>
      </trkpt>
      <trkpt lat="45.91332" lon="4.37266">
        <ele>770.2</ele>
        <time>2025-09-09T12:46:08Z</time>
      </trkpt>
      <trkpt lat="45.91331" lon="4.37264">
        <ele>770.6</ele>
        <time>2025-09-09T12:46:09Z</time>
      </trkpt>
      <trkpt lat="45.9133" lon="4.37263">
        <ele>770.8</ele>
        <time>2025-09-09T12:46:10Z</time>
      </trkpt>
      <trkpt lat="45.91329" lon="4.37261">
        <ele>771</ele>
        <time>2025-09-09T12:46:11Z</time>
      </trkpt>
      <trkpt lat="45.91328" lon="4.37259">
        <ele>771</ele>
        <time>2025-09-09T12:46:12Z</time>
      </trkpt>
      <trkpt lat="45.91327" lon="4.37257">
        <ele>771</ele>
        <time>2025-09-09T12:46:13Z</time>
      </trkpt>
      <trkpt lat="45.91326" lon="4.37255">
        <ele>771</ele>
        <time>2025-09-09T12:46:14Z</time>
      </trkpt>
      <trkpt lat="45.91325" lon="4.37253">
        <ele>771.4</ele>
        <time>2025-09-09T12:46:15Z</time>
      </trkpt>
      <trkpt lat="45.91324" lon="4.3725">
        <ele>771.4</ele>
        <time>2025-09-09T12:46:16Z</time>
      </trkpt>
      <trkpt lat="45.91323" lon="4.37248">
        <ele>771.4</ele>
        <time>2025-09-09T12:46:17Z</time>
      </trkpt>
      <trkpt lat="45.91322" lon="4.37246">
        <ele>771.6</ele>
        <time>2025-09-09T12:46:18Z</time>
      </trkpt>
      <trkpt lat="45.91321" lon="4.37243">
        <ele>771.6</ele>
        <time>2025-09-09T12:46:19Z</time>
      </trkpt>
      <trkpt lat="45.91319" lon="4.37241">
        <ele>771.8</ele>
        <time>2025-09-09T12:46:20Z</time>
      </trkpt>
      <trkpt lat="45.91318" lon="4.37239">
        <ele>771.8</ele>
        <time>2025-09-09T12:46:21Z</time>
      </trkpt>
      <trkpt lat="45.91317" lon="4.37237">
        <ele>772.2</ele>
        <time>2025-09-09T12:46:22Z</time>
      </trkpt>
      <trkpt lat="45.91316" lon="4.37234">
        <ele>772.2</ele>
        <time>2025-09-09T12:46:23Z</time>
      </trkpt>
      <trkpt lat="45.91315" lon="4.37232">
        <ele>772.4</ele>
        <time>2025-09-09T12:46:24Z</time>
      </trkpt>
      <trkpt lat="45.91314" lon="4.3723">
        <ele>772.4</ele>
        <time>2025-09-09T12:46:25Z</time>
      </trkpt>
      <trkpt lat="45.91313" lon="4.37227">
        <ele>772.4</ele>
        <time>2025-09-09T12:46:26Z</time>
      </trkpt>
      <trkpt lat="45.91312" lon="4.37224">
        <ele>772.6</ele>
        <time>2025-09-09T12:46:27Z</time>
      </trkpt>
      <trkpt lat="45.91311" lon="4.37222">
        <ele>772.6</ele>
        <time>2025-09-09T12:46:28Z</time>
      </trkpt>
      <trkpt lat="45.9131" lon="4.3722">
        <ele>772.6</ele>
        <time>2025-09-09T12:46:29Z</time>
      </trkpt>
      <trkpt lat="45.91307" lon="4.37215">
        <ele>772.6</ele>
        <time>2025-09-09T12:46:30Z</time>
      </trkpt>
      <trkpt lat="45.91306" lon="4.37213">
        <ele>772.6</ele>
        <time>2025-09-09T12:46:31Z</time>
      </trkpt>
      <trkpt lat="45.91305" lon="4.37211">
        <ele>772.8</ele>
        <time>2025-09-09T12:46:32Z</time>
      </trkpt>
      <trkpt lat="45.91304" lon="4.37208">
        <ele>772.8</ele>
        <time>2025-09-09T12:46:33Z</time>
      </trkpt>
      <trkpt lat="45.91303" lon="4.37206">
        <ele>773</ele>
        <time>2025-09-09T12:46:34Z</time>
      </trkpt>
      <trkpt lat="45.91302" lon="4.37204">
        <ele>773</ele>
        <time>2025-09-09T12:46:35Z</time>
      </trkpt>
      <trkpt lat="45.91301" lon="4.37202">
        <ele>773</ele>
        <time>2025-09-09T12:46:36Z</time>
      </trkpt>
      <trkpt lat="45.913" lon="4.372">
        <ele>773</ele>
        <time>2025-09-09T12:46:37Z</time>
      </trkpt>
      <trkpt lat="45.91298" lon="4.37198">
        <ele>773.4</ele>
        <time>2025-09-09T12:46:38Z</time>
      </trkpt>
      <trkpt lat="45.91297" lon="4.37195">
        <ele>773.4</ele>
        <time>2025-09-09T12:46:39Z</time>
      </trkpt>
      <trkpt lat="45.91296" lon="4.37192">
        <ele>773.4</ele>
        <time>2025-09-09T12:46:40Z</time>
      </trkpt>
      <trkpt lat="45.91294" lon="4.37189">
        <ele>773.4</ele>
        <time>2025-09-09T12:46:41Z</time>
      </trkpt>
      <trkpt lat="45.91293" lon="4.37186">
        <ele>773.4</ele>
        <time>2025-09-09T12:46:42Z</time>
      </trkpt>
      <trkpt lat="45.91291" lon="4.37183">
        <ele>773.4</ele>
        <time>2025-09-09T12:46:43Z</time>
      </trkpt>
      <trkpt lat="45.9129" lon="4.3718">
        <ele>773.4</ele>
        <time>2025-09-09T12:46:44Z</time>
      </trkpt>
      <trkpt lat="45.91288" lon="4.37177">
        <ele>773.4</ele>
        <time>2025-09-09T12:46:45Z</time>
      </trkpt>
      <trkpt lat="45.91286" lon="4.37174">
        <ele>773.4</ele>
        <time>2025-09-09T12:46:46Z</time>
      </trkpt>
      <trkpt lat="45.91285" lon="4.37171">
        <ele>773.4</ele>
        <time>2025-09-09T12:46:47Z</time>
      </trkpt>
      <trkpt lat="45.91283" lon="4.37168">
        <ele>773.4</ele>
        <time>2025-09-09T12:46:48Z</time>
      </trkpt>
      <trkpt lat="45.91282" lon="4.37165">
        <ele>773.4</ele>
        <time>2025-09-09T12:46:49Z</time>
      </trkpt>
      <trkpt lat="45.91281" lon="4.37162">
        <ele>773.6</ele>
        <time>2025-09-09T12:46:50Z</time>
      </trkpt>
      <trkpt lat="45.91279" lon="4.37158">
        <ele>773.6</ele>
        <time>2025-09-09T12:46:51Z</time>
      </trkpt>
      <trkpt lat="45.91278" lon="4.37154">
        <ele>773.6</ele>
        <time>2025-09-09T12:46:52Z</time>
      </trkpt>
      <trkpt lat="45.91276" lon="4.37151">
        <ele>773.6</ele>
        <time>2025-09-09T12:46:53Z</time>
      </trkpt>
      <trkpt lat="45.91274" lon="4.37147">
        <ele>773.6</ele>
        <time>2025-09-09T12:46:54Z</time>
      </trkpt>
      <trkpt lat="45.91272" lon="4.37144">
        <ele>773.4</ele>
        <time>2025-09-09T12:46:55Z</time>
      </trkpt>
      <trkpt lat="45.9127" lon="4.37141">
        <ele>773.4</ele>
        <time>2025-09-09T12:46:56Z</time>
      </trkpt>
      <trkpt lat="45.91268" lon="4.37137">
        <ele>773.4</ele>
        <time>2025-09-09T12:46:57Z</time>
      </trkpt>
      <trkpt lat="45.91265" lon="4.37134">
        <ele>773.4</ele>
        <time>2025-09-09T12:46:58Z</time>
      </trkpt>
      <trkpt lat="45.91263" lon="4.37132">
        <ele>773.4</ele>
        <time>2025-09-09T12:46:59Z</time>
      </trkpt>
      <trkpt lat="45.91261" lon="4.37129">
        <ele>773.4</ele>
        <time>2025-09-09T12:47:00Z</time>
      </trkpt>
      <trkpt lat="45.91258" lon="4.37125">
        <ele>773.4</ele>
        <time>2025-09-09T12:47:01Z</time>
      </trkpt>
      <trkpt lat="45.91255" lon="4.37121">
        <ele>773.8</ele>
        <time>2025-09-09T12:47:02Z</time>
      </trkpt>
      <trkpt lat="45.91252" lon="4.37118">
        <ele>773.8</ele>
        <time>2025-09-09T12:47:03Z</time>
      </trkpt>
      <trkpt lat="45.91249" lon="4.37115">
        <ele>773.8</ele>
        <time>2025-09-09T12:47:04Z</time>
      </trkpt>
      <trkpt lat="45.91246" lon="4.37113">
        <ele>773.8</ele>
        <time>2025-09-09T12:47:05Z</time>
      </trkpt>
      <trkpt lat="45.91243" lon="4.3711">
        <ele>773.8</ele>
        <time>2025-09-09T12:47:06Z</time>
      </trkpt>
      <trkpt lat="45.9124" lon="4.37107">
        <ele>773.8</ele>
        <time>2025-09-09T12:47:07Z</time>
      </trkpt>
      <trkpt lat="45.91237" lon="4.37104">
        <ele>773.8</ele>
        <time>2025-09-09T12:47:08Z</time>
      </trkpt>
      <trkpt lat="45.91235" lon="4.371">
        <ele>773.4</ele>
        <time>2025-09-09T12:47:09Z</time>
      </trkpt>
      <trkpt lat="45.91232" lon="4.37097">
        <ele>773.4</ele>
        <time>2025-09-09T12:47:10Z</time>
      </trkpt>
      <trkpt lat="45.9123" lon="4.37094">
        <ele>773.4</ele>
        <time>2025-09-09T12:47:11Z</time>
      </trkpt>
      <trkpt lat="45.91227" lon="4.37091">
        <ele>773.4</ele>
        <time>2025-09-09T12:47:12Z</time>
      </trkpt>
      <trkpt lat="45.91225" lon="4.37088">
        <ele>773.2</ele>
        <time>2025-09-09T12:47:13Z</time>
      </trkpt>
      <trkpt lat="45.91223" lon="4.37085">
        <ele>773.6</ele>
        <time>2025-09-09T12:47:14Z</time>
      </trkpt>
      <trkpt lat="45.91223" lon="4.37085">
        <ele>773.6</ele>
        <time>2025-09-09T12:47:15Z</time>
      </trkpt>
      <trkpt lat="45.9122" lon="4.37082">
        <ele>773.6</ele>
        <time>2025-09-09T12:47:16Z</time>
      </trkpt>
      <trkpt lat="45.91218" lon="4.37078">
        <ele>773.8</ele>
        <time>2025-09-09T12:47:17Z</time>
      </trkpt>
      <trkpt lat="45.91217" lon="4.37075">
        <ele>773.8</ele>
        <time>2025-09-09T12:47:18Z</time>
      </trkpt>
      <trkpt lat="45.91216" lon="4.37071">
        <ele>773.8</ele>
        <time>2025-09-09T12:47:19Z</time>
      </trkpt>
      <trkpt lat="45.91215" lon="4.37068">
        <ele>773.8</ele>
        <time>2025-09-09T12:47:20Z</time>
      </trkpt>
      <trkpt lat="45.91214" lon="4.37066">
        <ele>774</ele>
        <time>2025-09-09T12:47:21Z</time>
      </trkpt>
      <trkpt lat="45.91211" lon="4.37065">
        <ele>774</ele>
        <time>2025-09-09T12:47:22Z</time>
      </trkpt>
      <trkpt lat="45.91208" lon="4.37065">
        <ele>774</ele>
        <time>2025-09-09T12:47:23Z</time>
      </trkpt>
      <trkpt lat="45.91204" lon="4.37067">
        <ele>774</ele>
        <time>2025-09-09T12:47:24Z</time>
      </trkpt>
      <trkpt lat="45.91201" lon="4.37069">
        <ele>774.4</ele>
        <time>2025-09-09T12:47:25Z</time>
      </trkpt>
      <trkpt lat="45.91198" lon="4.37071">
        <ele>774.4</ele>
        <time>2025-09-09T12:47:26Z</time>
      </trkpt>
      <trkpt lat="45.91195" lon="4.37073">
        <ele>774.4</ele>
        <time>2025-09-09T12:47:27Z</time>
      </trkpt>
      <trkpt lat="45.91192" lon="4.37074">
        <ele>774.4</ele>
        <time>2025-09-09T12:47:28Z</time>
      </trkpt>
      <trkpt lat="45.91188" lon="4.37076">
        <ele>774.6</ele>
        <time>2025-09-09T12:47:29Z</time>
      </trkpt>
      <trkpt lat="45.91185" lon="4.37078">
        <ele>774.6</ele>
        <time>2025-09-09T12:47:30Z</time>
      </trkpt>
      <trkpt lat="45.91181" lon="4.37081">
        <ele>774.6</ele>
        <time>2025-09-09T12:47:31Z</time>
      </trkpt>
      <trkpt lat="45.91178" lon="4.37083">
        <ele>774.6</ele>
        <time>2025-09-09T12:47:32Z</time>
      </trkpt>
      <trkpt lat="45.91175" lon="4.37086">
        <ele>774.6</ele>
        <time>2025-09-09T12:47:33Z</time>
      </trkpt>
      <trkpt lat="45.91171" lon="4.37089">
        <ele>774.4</ele>
        <time>2025-09-09T12:47:34Z</time>
      </trkpt>
      <trkpt lat="45.91168" lon="4.37094">
        <ele>774.4</ele>
        <time>2025-09-09T12:47:35Z</time>
      </trkpt>
      <trkpt lat="45.91165" lon="4.37098">
        <ele>774.4</ele>
        <time>2025-09-09T12:47:36Z</time>
      </trkpt>
      <trkpt lat="45.91162" lon="4.37102">
        <ele>774</ele>
        <time>2025-09-09T12:47:37Z</time>
      </trkpt>
      <trkpt lat="45.91158" lon="4.37107">
        <ele>772</ele>
        <time>2025-09-09T12:47:38Z</time>
      </trkpt>
      <trkpt lat="45.91154" lon="4.37112">
        <ele>772</ele>
        <time>2025-09-09T12:47:39Z</time>
      </trkpt>
      <trkpt lat="45.91149" lon="4.37117">
        <ele>771.8</ele>
        <time>2025-09-09T12:47:40Z</time>
      </trkpt>
      <trkpt lat="45.91144" lon="4.37121">
        <ele>771.4</ele>
        <time>2025-09-09T12:47:41Z</time>
      </trkpt>
      <trkpt lat="45.91143" lon="4.37124">
        <ele>771</ele>
        <time>2025-09-09T12:47:42Z</time>
      </trkpt>
      <trkpt lat="45.91139" lon="4.37127">
        <ele>771</ele>
        <time>2025-09-09T12:47:43Z</time>
      </trkpt>
      <trkpt lat="45.91135" lon="4.37131">
        <ele>770.6</ele>
        <time>2025-09-09T12:47:44Z</time>
      </trkpt>
      <trkpt lat="45.91135" lon="4.37134">
        <ele>770.6</ele>
        <time>2025-09-09T12:47:45Z</time>
      </trkpt>
      <trkpt lat="45.91132" lon="4.37136">
        <ele>769.8</ele>
        <time>2025-09-09T12:47:46Z</time>
      </trkpt>
      <trkpt lat="45.9113" lon="4.37138">
        <ele>769.4</ele>
        <time>2025-09-09T12:47:47Z</time>
      </trkpt>
      <trkpt lat="45.91129" lon="4.3714">
        <ele>769.4</ele>
        <time>2025-09-09T12:47:48Z</time>
      </trkpt>
      <trkpt lat="45.91128" lon="4.37142">
        <ele>769.8</ele>
        <time>2025-09-09T12:47:49Z</time>
      </trkpt>
      <trkpt lat="45.91127" lon="4.37143">
        <ele>769.8</ele>
        <time>2025-09-09T12:47:50Z</time>
      </trkpt>
      <trkpt lat="45.91126" lon="4.37144">
        <ele>769.4</ele>
        <time>2025-09-09T12:47:51Z</time>
      </trkpt>
      <trkpt lat="45.91126" lon="4.37145">
        <ele>769</ele>
        <time>2025-09-09T12:47:52Z</time>
      </trkpt>
      <trkpt lat="45.91124" lon="4.37145">
        <ele>768.6</ele>
        <time>2025-09-09T12:47:53Z</time>
      </trkpt>
      <trkpt lat="45.91124" lon="4.37145">
        <ele>768.6</ele>
        <time>2025-09-09T12:47:54Z</time>
      </trkpt>
      <trkpt lat="45.91124" lon="4.37145">
        <ele>768.4</ele>
        <time>2025-09-09T12:47:55Z</time>
      </trkpt>
      <trkpt lat="45.91126" lon="4.37144">
        <ele>768.6</ele>
        <time>2025-09-09T12:48:07Z</time>
      </trkpt>
      <trkpt lat="45.91125" lon="4.37146">
        <ele>768.6</ele>
        <time>2025-09-09T12:48:08Z</time>
      </trkpt>
      <trkpt lat="45.91123" lon="4.3715">
        <ele>768.2</ele>
        <time>2025-09-09T12:48:09Z</time>
      </trkpt>
      <trkpt lat="45.91121" lon="4.37154">
        <ele>767.8</ele>
        <time>2025-09-09T12:48:10Z</time>
      </trkpt>
      <trkpt lat="45.91117" lon="4.37157">
        <ele>767.8</ele>
        <time>2025-09-09T12:48:11Z</time>
      </trkpt>
      <trkpt lat="45.91114" lon="4.37163">
        <ele>767.2</ele>
        <time>2025-09-09T12:48:12Z</time>
      </trkpt>
      <trkpt lat="45.91109" lon="4.37167">
        <ele>766.8</ele>
        <time>2025-09-09T12:48:13Z</time>
      </trkpt>
      <trkpt lat="45.91104" lon="4.37171">
        <ele>766.2</ele>
        <time>2025-09-09T12:48:14Z</time>
      </trkpt>
      <trkpt lat="45.91098" lon="4.37174">
        <ele>765.6</ele>
        <time>2025-09-09T12:48:15Z</time>
      </trkpt>
      <trkpt lat="45.91092" lon="4.3717">
        <ele>765.2</ele>
        <time>2025-09-09T12:48:16Z</time>
      </trkpt>
      <trkpt lat="45.91087" lon="4.37167">
        <ele>764.6</ele>
        <time>2025-09-09T12:48:17Z</time>
      </trkpt>
      <trkpt lat="45.91082" lon="4.37163">
        <ele>764.2</ele>
        <time>2025-09-09T12:48:18Z</time>
      </trkpt>
      <trkpt lat="45.91077" lon="4.37159">
        <ele>764</ele>
        <time>2025-09-09T12:48:19Z</time>
      </trkpt>
      <trkpt lat="45.91073" lon="4.37156">
        <ele>763.6</ele>
        <time>2025-09-09T12:48:20Z</time>
      </trkpt>
      <trkpt lat="45.91069" lon="4.37154">
        <ele>763</ele>
        <time>2025-09-09T12:48:21Z</time>
      </trkpt>
      <trkpt lat="45.91064" lon="4.37157">
        <ele>762.8</ele>
        <time>2025-09-09T12:48:22Z</time>
      </trkpt>
      <trkpt lat="45.9106" lon="4.37158">
        <ele>762.4</ele>
        <time>2025-09-09T12:48:23Z</time>
      </trkpt>
      <trkpt lat="45.91054" lon="4.37159">
        <ele>762</ele>
        <time>2025-09-09T12:48:24Z</time>
      </trkpt>
      <trkpt lat="45.91051" lon="4.37157">
        <ele>761.6</ele>
        <time>2025-09-09T12:48:25Z</time>
      </trkpt>
      <trkpt lat="45.91047" lon="4.37156">
        <ele>761.4</ele>
        <time>2025-09-09T12:48:26Z</time>
      </trkpt>
      <trkpt lat="45.91044" lon="4.37155">
        <ele>761.4</ele>
        <time>2025-09-09T12:48:27Z</time>
      </trkpt>
      <trkpt lat="45.91041" lon="4.37153">
        <ele>761</ele>
        <time>2025-09-09T12:48:28Z</time>
      </trkpt>
      <trkpt lat="45.91038" lon="4.37153">
        <ele>761</ele>
        <time>2025-09-09T12:48:29Z</time>
      </trkpt>
      <trkpt lat="45.91036" lon="4.37155">
        <ele>760.4</ele>
        <time>2025-09-09T12:48:30Z</time>
      </trkpt>
      <trkpt lat="45.91032" lon="4.37156">
        <ele>760.2</ele>
        <time>2025-09-09T12:48:31Z</time>
      </trkpt>
      <trkpt lat="45.91027" lon="4.37159">
        <ele>760</ele>
        <time>2025-09-09T12:48:32Z</time>
      </trkpt>
      <trkpt lat="45.91023" lon="4.37162">
        <ele>759.4</ele>
        <time>2025-09-09T12:48:33Z</time>
      </trkpt>
      <trkpt lat="45.9102" lon="4.37165">
        <ele>759.4</ele>
        <time>2025-09-09T12:48:34Z</time>
      </trkpt>
      <trkpt lat="45.91017" lon="4.37168">
        <ele>759</ele>
        <time>2025-09-09T12:48:35Z</time>
      </trkpt>
      <trkpt lat="45.91014" lon="4.3717">
        <ele>758.6</ele>
        <time>2025-09-09T12:48:36Z</time>
      </trkpt>
      <trkpt lat="45.91012" lon="4.37173">
        <ele>758.4</ele>
        <time>2025-09-09T12:48:37Z</time>
      </trkpt>
      <trkpt lat="45.91007" lon="4.37178">
        <ele>758.4</ele>
        <time>2025-09-09T12:48:38Z</time>
      </trkpt>
      <trkpt lat="45.91004" lon="4.3718">
        <ele>758.2</ele>
        <time>2025-09-09T12:48:39Z</time>
      </trkpt>
      <trkpt lat="45.91" lon="4.37183">
        <ele>757.8</ele>
        <time>2025-09-09T12:48:40Z</time>
      </trkpt>
      <trkpt lat="45.90996" lon="4.37187">
        <ele>757.6</ele>
        <time>2025-09-09T12:48:41Z</time>
      </trkpt>
      <trkpt lat="45.90995" lon="4.37189">
        <ele>757.2</ele>
        <time>2025-09-09T12:48:42Z</time>
      </trkpt>
      <trkpt lat="45.90991" lon="4.37191">
        <ele>756.4</ele>
        <time>2025-09-09T12:48:43Z</time>
      </trkpt>
      <trkpt lat="45.90985" lon="4.37197">
        <ele>756.2</ele>
        <time>2025-09-09T12:48:44Z</time>
      </trkpt>
      <trkpt lat="45.90982" lon="4.372">
        <ele>755.8</ele>
        <time>2025-09-09T12:48:45Z</time>
      </trkpt>
      <trkpt lat="45.90979" lon="4.37204">
        <ele>755.4</ele>
        <time>2025-09-09T12:48:46Z</time>
      </trkpt>
      <trkpt lat="45.90976" lon="4.37209">
        <ele>754.8</ele>
        <time>2025-09-09T12:48:47Z</time>
      </trkpt>
      <trkpt lat="45.90973" lon="4.37214">
        <ele>754.2</ele>
        <time>2025-09-09T12:48:48Z</time>
      </trkpt>
      <trkpt lat="45.90971" lon="4.37219">
        <ele>754.2</ele>
        <time>2025-09-09T12:48:49Z</time>
      </trkpt>
      <trkpt lat="45.90966" lon="4.37228">
        <ele>753.2</ele>
        <time>2025-09-09T12:48:50Z</time>
      </trkpt>
      <trkpt lat="45.90963" lon="4.37235">
        <ele>753</ele>
        <time>2025-09-09T12:48:51Z</time>
      </trkpt>
      <trkpt lat="45.9096" lon="4.37241">
        <ele>752.6</ele>
        <time>2025-09-09T12:48:52Z</time>
      </trkpt>
      <trkpt lat="45.90956" lon="4.3725">
        <ele>751.8</ele>
        <time>2025-09-09T12:48:53Z</time>
      </trkpt>
      <trkpt lat="45.90953" lon="4.37257">
        <ele>751</ele>
        <time>2025-09-09T12:48:54Z</time>
      </trkpt>
      <trkpt lat="45.90948" lon="4.37268">
        <ele>750.4</ele>
        <time>2025-09-09T12:48:55Z</time>
      </trkpt>
      <trkpt lat="45.90942" lon="4.37276">
        <ele>749.4</ele>
        <time>2025-09-09T12:48:56Z</time>
      </trkpt>
      <trkpt lat="45.90941" lon="4.37285">
        <ele>748.8</ele>
        <time>2025-09-09T12:48:57Z</time>
      </trkpt>
      <trkpt lat="45.90937" lon="4.37294">
        <ele>748</ele>
        <time>2025-09-09T12:48:58Z</time>
      </trkpt>
      <trkpt lat="45.90935" lon="4.37303">
        <ele>747.2</ele>
        <time>2025-09-09T12:48:59Z</time>
      </trkpt>
      <trkpt lat="45.90931" lon="4.37312">
        <ele>746.4</ele>
        <time>2025-09-09T12:49:00Z</time>
      </trkpt>
      <trkpt lat="45.90928" lon="4.37322">
        <ele>745.6</ele>
        <time>2025-09-09T12:49:01Z</time>
      </trkpt>
      <trkpt lat="45.90923" lon="4.37332">
        <ele>744.8</ele>
        <time>2025-09-09T12:49:02Z</time>
      </trkpt>
      <trkpt lat="45.90919" lon="4.37343">
        <ele>743.8</ele>
        <time>2025-09-09T12:49:03Z</time>
      </trkpt>
      <trkpt lat="45.90915" lon="4.37352">
        <ele>742.6</ele>
        <time>2025-09-09T12:49:04Z</time>
      </trkpt>
      <trkpt lat="45.90911" lon="4.37359">
        <ele>741.4</ele>
        <time>2025-09-09T12:49:05Z</time>
      </trkpt>
      <trkpt lat="45.90907" lon="4.37369">
        <ele>740.6</ele>
        <time>2025-09-09T12:49:06Z</time>
      </trkpt>
      <trkpt lat="45.90903" lon="4.37378">
        <ele>739.6</ele>
        <time>2025-09-09T12:49:07Z</time>
      </trkpt>
      <trkpt lat="45.909" lon="4.37388">
        <ele>738.6</ele>
        <time>2025-09-09T12:49:08Z</time>
      </trkpt>
      <trkpt lat="45.90896" lon="4.37396">
        <ele>738</ele>
        <time>2025-09-09T12:49:09Z</time>
      </trkpt>
      <trkpt lat="45.90892" lon="4.37404">
        <ele>737</ele>
        <time>2025-09-09T12:49:10Z</time>
      </trkpt>
      <trkpt lat="45.90887" lon="4.37411">
        <ele>736.2</ele>
        <time>2025-09-09T12:49:11Z</time>
      </trkpt>
      <trkpt lat="45.90883" lon="4.3742">
        <ele>735.8</ele>
        <time>2025-09-09T12:49:12Z</time>
      </trkpt>
      <trkpt lat="45.90879" lon="4.3743">
        <ele>734.8</ele>
        <time>2025-09-09T12:49:13Z</time>
      </trkpt>
      <trkpt lat="45.90876" lon="4.37438">
        <ele>734</ele>
        <time>2025-09-09T12:49:14Z</time>
      </trkpt>
      <trkpt lat="45.90873" lon="4.37445">
        <ele>733.4</ele>
        <time>2025-09-09T12:49:15Z</time>
      </trkpt>
      <trkpt lat="45.90869" lon="4.37453">
        <ele>732.8</ele>
        <time>2025-09-09T12:49:16Z</time>
      </trkpt>
      <trkpt lat="45.90866" lon="4.37459">
        <ele>732</ele>
        <time>2025-09-09T12:49:17Z</time>
      </trkpt>
      <trkpt lat="45.90862" lon="4.37466">
        <ele>731.4</ele>
        <time>2025-09-09T12:49:18Z</time>
      </trkpt>
      <trkpt lat="45.9086" lon="4.37474">
        <ele>731.2</ele>
        <time>2025-09-09T12:49:19Z</time>
      </trkpt>
      <trkpt lat="45.90855" lon="4.37478">
        <ele>730.4</ele>
        <time>2025-09-09T12:49:20Z</time>
      </trkpt>
      <trkpt lat="45.90852" lon="4.37485">
        <ele>729.8</ele>
        <time>2025-09-09T12:49:21Z</time>
      </trkpt>
      <trkpt lat="45.90848" lon="4.37489">
        <ele>729.2</ele>
        <time>2025-09-09T12:49:22Z</time>
      </trkpt>
      <trkpt lat="45.90847" lon="4.37493">
        <ele>728.4</ele>
        <time>2025-09-09T12:49:23Z</time>
      </trkpt>
      <trkpt lat="45.90845" lon="4.37497">
        <ele>728.2</ele>
        <time>2025-09-09T12:49:24Z</time>
      </trkpt>
      <trkpt lat="45.90844" lon="4.37499">
        <ele>727.4</ele>
        <time>2025-09-09T12:49:25Z</time>
      </trkpt>
      <trkpt lat="45.90844" lon="4.37503">
        <ele>727.4</ele>
        <time>2025-09-09T12:49:26Z</time>
      </trkpt>
      <trkpt lat="45.90843" lon="4.37506">
        <ele>727</ele>
        <time>2025-09-09T12:49:27Z</time>
      </trkpt>
      <trkpt lat="45.90842" lon="4.37509">
        <ele>726.8</ele>
        <time>2025-09-09T12:49:28Z</time>
      </trkpt>
      <trkpt lat="45.9084" lon="4.37513">
        <ele>725.6</ele>
        <time>2025-09-09T12:49:29Z</time>
      </trkpt>
      <trkpt lat="45.90838" lon="4.37518">
        <ele>725.2</ele>
        <time>2025-09-09T12:49:30Z</time>
      </trkpt>
      <trkpt lat="45.90835" lon="4.37522">
        <ele>724.8</ele>
        <time>2025-09-09T12:49:31Z</time>
      </trkpt>
      <trkpt lat="45.90833" lon="4.37525">
        <ele>724.8</ele>
        <time>2025-09-09T12:49:32Z</time>
      </trkpt>
      <trkpt lat="45.90831" lon="4.37528">
        <ele>724.4</ele>
        <time>2025-09-09T12:49:33Z</time>
      </trkpt>
      <trkpt lat="45.90829" lon="4.37532">
        <ele>724.2</ele>
        <time>2025-09-09T12:49:34Z</time>
      </trkpt>
      <trkpt lat="45.90827" lon="4.37535">
        <ele>724.2</ele>
        <time>2025-09-09T12:49:35Z</time>
      </trkpt>
      <trkpt lat="45.90825" lon="4.37539">
        <ele>724.6</ele>
        <time>2025-09-09T12:49:36Z</time>
      </trkpt>
      <trkpt lat="45.90822" lon="4.37543">
        <ele>724.4</ele>
        <time>2025-09-09T12:49:37Z</time>
      </trkpt>
      <trkpt lat="45.9082" lon="4.37547">
        <ele>724.4</ele>
        <time>2025-09-09T12:49:38Z</time>
      </trkpt>
      <trkpt lat="45.90818" lon="4.37551">
        <ele>724</ele>
        <time>2025-09-09T12:49:39Z</time>
      </trkpt>
      <trkpt lat="45.90816" lon="4.37556">
        <ele>723.4</ele>
        <time>2025-09-09T12:49:40Z</time>
      </trkpt>
      <trkpt lat="45.90814" lon="4.37561">
        <ele>722.8</ele>
        <time>2025-09-09T12:49:41Z</time>
      </trkpt>
      <trkpt lat="45.90812" lon="4.37565">
        <ele>722.2</ele>
        <time>2025-09-09T12:49:42Z</time>
      </trkpt>
      <trkpt lat="45.9081" lon="4.3757">
        <ele>721.8</ele>
        <time>2025-09-09T12:49:43Z</time>
      </trkpt>
      <trkpt lat="45.90808" lon="4.37574">
        <ele>721.8</ele>
        <time>2025-09-09T12:49:44Z</time>
      </trkpt>
      <trkpt lat="45.90806" lon="4.37577">
        <ele>721.2</ele>
        <time>2025-09-09T12:49:45Z</time>
      </trkpt>
      <trkpt lat="45.90805" lon="4.3758">
        <ele>721.2</ele>
        <time>2025-09-09T12:49:46Z</time>
      </trkpt>
      <trkpt lat="45.90804" lon="4.37583">
        <ele>720.6</ele>
        <time>2025-09-09T12:49:47Z</time>
      </trkpt>
      <trkpt lat="45.90803" lon="4.37587">
        <ele>720.6</ele>
        <time>2025-09-09T12:49:48Z</time>
      </trkpt>
      <trkpt lat="45.90802" lon="4.3759">
        <ele>720.4</ele>
        <time>2025-09-09T12:49:49Z</time>
      </trkpt>
      <trkpt lat="45.90801" lon="4.37593">
        <ele>720</ele>
        <time>2025-09-09T12:49:50Z</time>
      </trkpt>
      <trkpt lat="45.90799" lon="4.37595">
        <ele>720</ele>
        <time>2025-09-09T12:49:51Z</time>
      </trkpt>
      <trkpt lat="45.90797" lon="4.37598">
        <ele>720</ele>
        <time>2025-09-09T12:49:52Z</time>
      </trkpt>
      <trkpt lat="45.90796" lon="4.37601">
        <ele>719.8</ele>
        <time>2025-09-09T12:49:53Z</time>
      </trkpt>
      <trkpt lat="45.90796" lon="4.37603">
        <ele>719.8</ele>
        <time>2025-09-09T12:49:54Z</time>
      </trkpt>
      <trkpt lat="45.90795" lon="4.37605">
        <ele>719.4</ele>
        <time>2025-09-09T12:49:55Z</time>
      </trkpt>
      <trkpt lat="45.90794" lon="4.37606">
        <ele>719.2</ele>
        <time>2025-09-09T12:49:56Z</time>
      </trkpt>
      <trkpt lat="45.90793" lon="4.37607">
        <ele>719.2</ele>
        <time>2025-09-09T12:49:57Z</time>
      </trkpt>
      <trkpt lat="45.90793" lon="4.37606">
        <ele>719.2</ele>
        <time>2025-09-09T12:49:58Z</time>
      </trkpt>
      <trkpt lat="45.90793" lon="4.37607">
        <ele>718.6</ele>
        <time>2025-09-09T12:50:04Z</time>
      </trkpt>
      <trkpt lat="45.90793" lon="4.3761">
        <ele>718.6</ele>
        <time>2025-09-09T12:50:05Z</time>
      </trkpt>
      <trkpt lat="45.90792" lon="4.37613">
        <ele>718.6</ele>
        <time>2025-09-09T12:50:06Z</time>
      </trkpt>
      <trkpt lat="45.90791" lon="4.37616">
        <ele>718.2</ele>
        <time>2025-09-09T12:50:07Z</time>
      </trkpt>
      <trkpt lat="45.90789" lon="4.37619">
        <ele>718.2</ele>
        <time>2025-09-09T12:50:08Z</time>
      </trkpt>
      <trkpt lat="45.90788" lon="4.37623">
        <ele>718</ele>
        <time>2025-09-09T12:50:09Z</time>
      </trkpt>
      <trkpt lat="45.90786" lon="4.37626">
        <ele>717.4</ele>
        <time>2025-09-09T12:50:10Z</time>
      </trkpt>
      <trkpt lat="45.90785" lon="4.3763">
        <ele>717.4</ele>
        <time>2025-09-09T12:50:11Z</time>
      </trkpt>
      <trkpt lat="45.90783" lon="4.37634">
        <ele>717</ele>
        <time>2025-09-09T12:50:12Z</time>
      </trkpt>
      <trkpt lat="45.90782" lon="4.37638">
        <ele>716.8</ele>
        <time>2025-09-09T12:50:13Z</time>
      </trkpt>
      <trkpt lat="45.9078" lon="4.37642">
        <ele>716.8</ele>
        <time>2025-09-09T12:50:14Z</time>
      </trkpt>
      <trkpt lat="45.90779" lon="4.37645">
        <ele>717</ele>
        <time>2025-09-09T12:50:15Z</time>
      </trkpt>
      <trkpt lat="45.90778" lon="4.37648">
        <ele>717</ele>
        <time>2025-09-09T12:50:16Z</time>
      </trkpt>
      <trkpt lat="45.90777" lon="4.37651">
        <ele>716.8</ele>
        <time>2025-09-09T12:50:17Z</time>
      </trkpt>
      <trkpt lat="45.90776" lon="4.37653">
        <ele>716.4</ele>
        <time>2025-09-09T12:50:18Z</time>
      </trkpt>
      <trkpt lat="45.90774" lon="4.37657">
        <ele>716.4</ele>
        <time>2025-09-09T12:50:19Z</time>
      </trkpt>
      <trkpt lat="45.90773" lon="4.3766">
        <ele>715.6</ele>
        <time>2025-09-09T12:50:20Z</time>
      </trkpt>
      <trkpt lat="45.90771" lon="4.37664">
        <ele>715.6</ele>
        <time>2025-09-09T12:50:21Z</time>
      </trkpt>
      <trkpt lat="45.9077" lon="4.37667">
        <ele>715.2</ele>
        <time>2025-09-09T12:50:22Z</time>
      </trkpt>
      <trkpt lat="45.90768" lon="4.37671">
        <ele>715.2</ele>
        <time>2025-09-09T12:50:23Z</time>
      </trkpt>
      <trkpt lat="45.90767" lon="4.37674">
        <ele>715</ele>
        <time>2025-09-09T12:50:24Z</time>
      </trkpt>
      <trkpt lat="45.90766" lon="4.37677">
        <ele>714.6</ele>
        <time>2025-09-09T12:50:25Z</time>
      </trkpt>
      <trkpt lat="45.90764" lon="4.3768">
        <ele>714.6</ele>
        <time>2025-09-09T12:50:26Z</time>
      </trkpt>
      <trkpt lat="45.90763" lon="4.37684">
        <ele>714.4</ele>
        <time>2025-09-09T12:50:27Z</time>
      </trkpt>
      <trkpt lat="45.90761" lon="4.37687">
        <ele>714.4</ele>
        <time>2025-09-09T12:50:28Z</time>
      </trkpt>
      <trkpt lat="45.90759" lon="4.37691">
        <ele>714.4</ele>
        <time>2025-09-09T12:50:29Z</time>
      </trkpt>
      <trkpt lat="45.90757" lon="4.37695">
        <ele>714</ele>
        <time>2025-09-09T12:50:30Z</time>
      </trkpt>
      <trkpt lat="45.90755" lon="4.37699">
        <ele>714.2</ele>
        <time>2025-09-09T12:50:31Z</time>
      </trkpt>
      <trkpt lat="45.90753" lon="4.37704">
        <ele>714.2</ele>
        <time>2025-09-09T12:50:32Z</time>
      </trkpt>
      <trkpt lat="45.9075" lon="4.37708">
        <ele>714.2</ele>
        <time>2025-09-09T12:50:33Z</time>
      </trkpt>
      <trkpt lat="45.90749" lon="4.37712">
        <ele>713.4</ele>
        <time>2025-09-09T12:50:34Z</time>
      </trkpt>
      <trkpt lat="45.90746" lon="4.37717">
        <ele>712.8</ele>
        <time>2025-09-09T12:50:35Z</time>
      </trkpt>
      <trkpt lat="45.90744" lon="4.37722">
        <ele>712.6</ele>
        <time>2025-09-09T12:50:36Z</time>
      </trkpt>
      <trkpt lat="45.90743" lon="4.37726">
        <ele>712.6</ele>
        <time>2025-09-09T12:50:37Z</time>
      </trkpt>
      <trkpt lat="45.90741" lon="4.37729">
        <ele>712</ele>
        <time>2025-09-09T12:50:38Z</time>
      </trkpt>
      <trkpt lat="45.9074" lon="4.37732">
        <ele>711.4</ele>
        <time>2025-09-09T12:50:39Z</time>
      </trkpt>
      <trkpt lat="45.90739" lon="4.37734">
        <ele>711.4</ele>
        <time>2025-09-09T12:50:40Z</time>
      </trkpt>
      <trkpt lat="45.90737" lon="4.37736">
        <ele>711.2</ele>
        <time>2025-09-09T12:50:41Z</time>
      </trkpt>
      <trkpt lat="45.90736" lon="4.37738">
        <ele>711.2</ele>
        <time>2025-09-09T12:50:42Z</time>
      </trkpt>
      <trkpt lat="45.90734" lon="4.37741">
        <ele>711.2</ele>
        <time>2025-09-09T12:50:43Z</time>
      </trkpt>
      <trkpt lat="45.90732" lon="4.37746">
        <ele>710.8</ele>
        <time>2025-09-09T12:50:44Z</time>
      </trkpt>
      <trkpt lat="45.90731" lon="4.3775">
        <ele>710.6</ele>
        <time>2025-09-09T12:50:45Z</time>
      </trkpt>
      <trkpt lat="45.90729" lon="4.37753">
        <ele>710.2</ele>
        <time>2025-09-09T12:50:46Z</time>
      </trkpt>
      <trkpt lat="45.90728" lon="4.37756">
        <ele>710.2</ele>
        <time>2025-09-09T12:50:47Z</time>
      </trkpt>
      <trkpt lat="45.90726" lon="4.3776">
        <ele>710</ele>
        <time>2025-09-09T12:50:48Z</time>
      </trkpt>
      <trkpt lat="45.90724" lon="4.37763">
        <ele>709.8</ele>
        <time>2025-09-09T12:50:49Z</time>
      </trkpt>
      <trkpt lat="45.90723" lon="4.37766">
        <ele>709.4</ele>
        <time>2025-09-09T12:50:50Z</time>
      </trkpt>
      <trkpt lat="45.90722" lon="4.37769">
        <ele>709.4</ele>
        <time>2025-09-09T12:50:51Z</time>
      </trkpt>
      <trkpt lat="45.9072" lon="4.37773">
        <ele>709.2</ele>
        <time>2025-09-09T12:50:52Z</time>
      </trkpt>
      <trkpt lat="45.90718" lon="4.37776">
        <ele>709.2</ele>
        <time>2025-09-09T12:50:53Z</time>
      </trkpt>
      <trkpt lat="45.90717" lon="4.3778">
        <ele>709.2</ele>
        <time>2025-09-09T12:50:54Z</time>
      </trkpt>
      <trkpt lat="45.90715" lon="4.37784">
        <ele>709.2</ele>
        <time>2025-09-09T12:50:55Z</time>
      </trkpt>
      <trkpt lat="45.90713" lon="4.37788">
        <ele>709</ele>
        <time>2025-09-09T12:50:56Z</time>
      </trkpt>
      <trkpt lat="45.90712" lon="4.37791">
        <ele>708.2</ele>
        <time>2025-09-09T12:50:57Z</time>
      </trkpt>
      <trkpt lat="45.9071" lon="4.37795">
        <ele>708</ele>
        <time>2025-09-09T12:50:58Z</time>
      </trkpt>
      <trkpt lat="45.90709" lon="4.37799">
        <ele>707.6</ele>
        <time>2025-09-09T12:50:59Z</time>
      </trkpt>
      <trkpt lat="45.90707" lon="4.37803">
        <ele>707.2</ele>
        <time>2025-09-09T12:51:00Z</time>
      </trkpt>
      <trkpt lat="45.90705" lon="4.37807">
        <ele>707.2</ele>
        <time>2025-09-09T12:51:01Z</time>
      </trkpt>
      <trkpt lat="45.90703" lon="4.37811">
        <ele>706.8</ele>
        <time>2025-09-09T12:51:02Z</time>
      </trkpt>
      <trkpt lat="45.90702" lon="4.37814">
        <ele>706.8</ele>
        <time>2025-09-09T12:51:03Z</time>
      </trkpt>
      <trkpt lat="45.90698" lon="4.37823">
        <ele>706.4</ele>
        <time>2025-09-09T12:51:04Z</time>
      </trkpt>
      <trkpt lat="45.90696" lon="4.37827">
        <ele>706.4</ele>
        <time>2025-09-09T12:51:05Z</time>
      </trkpt>
      <trkpt lat="45.90695" lon="4.37831">
        <ele>705.6</ele>
        <time>2025-09-09T12:51:06Z</time>
      </trkpt>
      <trkpt lat="45.90693" lon="4.37834">
        <ele>705.6</ele>
        <time>2025-09-09T12:51:07Z</time>
      </trkpt>
      <trkpt lat="45.90692" lon="4.37836">
        <ele>705.6</ele>
        <time>2025-09-09T12:51:08Z</time>
      </trkpt>
      <trkpt lat="45.90691" lon="4.3784">
        <ele>705</ele>
        <time>2025-09-09T12:51:09Z</time>
      </trkpt>
      <trkpt lat="45.9069" lon="4.37844">
        <ele>704.6</ele>
        <time>2025-09-09T12:51:10Z</time>
      </trkpt>
      <trkpt lat="45.90689" lon="4.37847">
        <ele>704.2</ele>
        <time>2025-09-09T12:51:11Z</time>
      </trkpt>
      <trkpt lat="45.90689" lon="4.37849">
        <ele>704.2</ele>
        <time>2025-09-09T12:51:12Z</time>
      </trkpt>
      <trkpt lat="45.90689" lon="4.37851">
        <ele>704.2</ele>
        <time>2025-09-09T12:51:13Z</time>
      </trkpt>
      <trkpt lat="45.90689" lon="4.37851">
        <ele>704</ele>
        <time>2025-09-09T12:51:14Z</time>
      </trkpt>
      <trkpt lat="45.90689" lon="4.3785">
        <ele>704</ele>
        <time>2025-09-09T12:51:15Z</time>
      </trkpt>
      <trkpt lat="45.90689" lon="4.3785">
        <ele>704</ele>
        <time>2025-09-09T12:51:16Z</time>
      </trkpt>
      <trkpt lat="45.9069" lon="4.3785">
        <ele>703.6</ele>
        <time>2025-09-09T12:51:29Z</time>
      </trkpt>
      <trkpt lat="45.9069" lon="4.3785">
        <ele>703.4</ele>
        <time>2025-09-09T12:51:30Z</time>
      </trkpt>
      <trkpt lat="45.90689" lon="4.3785">
        <ele>703.4</ele>
        <time>2025-09-09T12:51:31Z</time>
      </trkpt>
      <trkpt lat="45.9069" lon="4.37851">
        <ele>703.6</ele>
        <time>2025-09-09T12:52:10Z</time>
      </trkpt>
      <trkpt lat="45.9069" lon="4.37853">
        <ele>703.6</ele>
        <time>2025-09-09T12:52:11Z</time>
      </trkpt>
      <trkpt lat="45.90691" lon="4.37854">
        <ele>703.6</ele>
        <time>2025-09-09T12:52:12Z</time>
      </trkpt>
      <trkpt lat="45.90692" lon="4.37855">
        <ele>703.6</ele>
        <time>2025-09-09T12:52:13Z</time>
      </trkpt>
      <trkpt lat="45.90692" lon="4.37856">
        <ele>703.2</ele>
        <time>2025-09-09T12:52:14Z</time>
      </trkpt>
      <trkpt lat="45.90692" lon="4.37856">
        <ele>703.2</ele>
        <time>2025-09-09T12:52:15Z</time>
      </trkpt>
      <trkpt lat="45.90692" lon="4.37857">
        <ele>703.2</ele>
        <time>2025-09-09T12:52:22Z</time>
      </trkpt>
      <trkpt lat="45.90691" lon="4.37859">
        <ele>703.2</ele>
        <time>2025-09-09T12:52:23Z</time>
      </trkpt>
      <trkpt lat="45.90691" lon="4.37861">
        <ele>703</ele>
        <time>2025-09-09T12:52:24Z</time>
      </trkpt>
      <trkpt lat="45.9069" lon="4.37864">
        <ele>702.8</ele>
        <time>2025-09-09T12:52:25Z</time>
      </trkpt>
      <trkpt lat="45.90689" lon="4.37867">
        <ele>702.8</ele>
        <time>2025-09-09T12:52:26Z</time>
      </trkpt>
      <trkpt lat="45.90687" lon="4.37871">
        <ele>702.8</ele>
        <time>2025-09-09T12:52:27Z</time>
      </trkpt>
      <trkpt lat="45.90686" lon="4.37874">
        <ele>702.4</ele>
        <time>2025-09-09T12:52:28Z</time>
      </trkpt>
      <trkpt lat="45.90684" lon="4.37878">
        <ele>702.4</ele>
        <time>2025-09-09T12:52:29Z</time>
      </trkpt>
      <trkpt lat="45.90681" lon="4.37882">
        <ele>702.4</ele>
        <time>2025-09-09T12:52:30Z</time>
      </trkpt>
      <trkpt lat="45.90679" lon="4.37885">
        <ele>701.8</ele>
        <time>2025-09-09T12:52:31Z</time>
      </trkpt>
      <trkpt lat="45.90677" lon="4.37889">
        <ele>701.6</ele>
        <time>2025-09-09T12:52:32Z</time>
      </trkpt>
      <trkpt lat="45.90675" lon="4.37891">
        <ele>701.2</ele>
        <time>2025-09-09T12:52:33Z</time>
      </trkpt>
      <trkpt lat="45.90674" lon="4.37894">
        <ele>701.2</ele>
        <time>2025-09-09T12:52:34Z</time>
      </trkpt>
      <trkpt lat="45.90672" lon="4.37897">
        <ele>701</ele>
        <time>2025-09-09T12:52:35Z</time>
      </trkpt>
      <trkpt lat="45.9067" lon="4.37901">
        <ele>701</ele>
        <time>2025-09-09T12:52:36Z</time>
      </trkpt>
      <trkpt lat="45.90668" lon="4.37904">
        <ele>700.8</ele>
        <time>2025-09-09T12:52:37Z</time>
      </trkpt>
      <trkpt lat="45.90666" lon="4.37908">
        <ele>700.8</ele>
        <time>2025-09-09T12:52:38Z</time>
      </trkpt>
      <trkpt lat="45.90665" lon="4.37911">
        <ele>700.4</ele>
        <time>2025-09-09T12:52:39Z</time>
      </trkpt>
      <trkpt lat="45.90664" lon="4.37915">
        <ele>700.4</ele>
        <time>2025-09-09T12:52:40Z</time>
      </trkpt>
      <trkpt lat="45.90662" lon="4.37919">
        <ele>700</ele>
        <time>2025-09-09T12:52:41Z</time>
      </trkpt>
      <trkpt lat="45.90661" lon="4.37923">
        <ele>700</ele>
        <time>2025-09-09T12:52:42Z</time>
      </trkpt>
      <trkpt lat="45.9066" lon="4.37926">
        <ele>700</ele>
        <time>2025-09-09T12:52:43Z</time>
      </trkpt>
      <trkpt lat="45.90658" lon="4.37929">
        <ele>699.6</ele>
        <time>2025-09-09T12:52:44Z</time>
      </trkpt>
      <trkpt lat="45.90655" lon="4.37931">
        <ele>699.4</ele>
        <time>2025-09-09T12:52:45Z</time>
      </trkpt>
      <trkpt lat="45.90653" lon="4.37933">
        <ele>699.4</ele>
        <time>2025-09-09T12:52:46Z</time>
      </trkpt>
      <trkpt lat="45.90651" lon="4.37935">
        <ele>699.4</ele>
        <time>2025-09-09T12:52:47Z</time>
      </trkpt>
      <trkpt lat="45.90649" lon="4.37938">
        <ele>699</ele>
        <time>2025-09-09T12:52:48Z</time>
      </trkpt>
      <trkpt lat="45.90647" lon="4.37941">
        <ele>699</ele>
        <time>2025-09-09T12:52:49Z</time>
      </trkpt>
      <trkpt lat="45.90646" lon="4.37944">
        <ele>699</ele>
        <time>2025-09-09T12:52:50Z</time>
      </trkpt>
      <trkpt lat="45.90644" lon="4.37946">
        <ele>698.6</ele>
        <time>2025-09-09T12:52:51Z</time>
      </trkpt>
      <trkpt lat="45.90643" lon="4.37949">
        <ele>698.6</ele>
        <time>2025-09-09T12:52:52Z</time>
      </trkpt>
      <trkpt lat="45.90642" lon="4.37952">
        <ele>698.2</ele>
        <time>2025-09-09T12:52:53Z</time>
      </trkpt>
      <trkpt lat="45.90641" lon="4.37955">
        <ele>698.2</ele>
        <time>2025-09-09T12:52:54Z</time>
      </trkpt>
      <trkpt lat="45.90639" lon="4.37959">
        <ele>698.2</ele>
        <time>2025-09-09T12:52:55Z</time>
      </trkpt>
      <trkpt lat="45.90637" lon="4.37964">
        <ele>697.8</ele>
        <time>2025-09-09T12:52:56Z</time>
      </trkpt>
      <trkpt lat="45.90635" lon="4.37968">
        <ele>697.4</ele>
        <time>2025-09-09T12:52:57Z</time>
      </trkpt>
      <trkpt lat="45.90632" lon="4.37973">
        <ele>696.8</ele>
        <time>2025-09-09T12:52:58Z</time>
      </trkpt>
      <trkpt lat="45.90631" lon="4.37977">
        <ele>696.2</ele>
        <time>2025-09-09T12:52:59Z</time>
      </trkpt>
      <trkpt lat="45.90629" lon="4.3798">
        <ele>696.2</ele>
        <time>2025-09-09T12:53:00Z</time>
      </trkpt>
      <trkpt lat="45.90627" lon="4.37984">
        <ele>696.2</ele>
        <time>2025-09-09T12:53:01Z</time>
      </trkpt>
      <trkpt lat="45.90626" lon="4.37988">
        <ele>696</ele>
        <time>2025-09-09T12:53:02Z</time>
      </trkpt>
      <trkpt lat="45.90624" lon="4.37992">
        <ele>695.4</ele>
        <time>2025-09-09T12:53:03Z</time>
      </trkpt>
      <trkpt lat="45.90623" lon="4.37995">
        <ele>695.4</ele>
        <time>2025-09-09T12:53:04Z</time>
      </trkpt>
      <trkpt lat="45.90622" lon="4.37998">
        <ele>695.4</ele>
        <time>2025-09-09T12:53:05Z</time>
      </trkpt>
      <trkpt lat="45.90621" lon="4.38002">
        <ele>695.4</ele>
        <time>2025-09-09T12:53:06Z</time>
      </trkpt>
      <trkpt lat="45.9062" lon="4.38005">
        <ele>695.4</ele>
        <time>2025-09-09T12:53:07Z</time>
      </trkpt>
      <trkpt lat="45.90619" lon="4.38008">
        <ele>694.6</ele>
        <time>2025-09-09T12:53:08Z</time>
      </trkpt>
      <trkpt lat="45.90617" lon="4.38011">
        <ele>694.2</ele>
        <time>2025-09-09T12:53:09Z</time>
      </trkpt>
      <trkpt lat="45.90616" lon="4.38014">
        <ele>694.2</ele>
        <time>2025-09-09T12:53:10Z</time>
      </trkpt>
      <trkpt lat="45.90615" lon="4.38018">
        <ele>694.2</ele>
        <time>2025-09-09T12:53:11Z</time>
      </trkpt>
      <trkpt lat="45.90613" lon="4.38022">
        <ele>693.8</ele>
        <time>2025-09-09T12:53:12Z</time>
      </trkpt>
      <trkpt lat="45.90612" lon="4.38026">
        <ele>693.6</ele>
        <time>2025-09-09T12:53:13Z</time>
      </trkpt>
      <trkpt lat="45.90611" lon="4.38029">
        <ele>693.6</ele>
        <time>2025-09-09T12:53:14Z</time>
      </trkpt>
      <trkpt lat="45.9061" lon="4.38032">
        <ele>693.2</ele>
        <time>2025-09-09T12:53:15Z</time>
      </trkpt>
      <trkpt lat="45.90609" lon="4.38034">
        <ele>693.2</ele>
        <time>2025-09-09T12:53:16Z</time>
      </trkpt>
      <trkpt lat="45.90608" lon="4.38034">
        <ele>692.8</ele>
        <time>2025-09-09T12:53:17Z</time>
      </trkpt>
      <trkpt lat="45.90607" lon="4.38034">
        <ele>692.8</ele>
        <time>2025-09-09T12:53:18Z</time>
      </trkpt>
      <trkpt lat="45.90606" lon="4.38033">
        <ele>692.6</ele>
        <time>2025-09-09T12:53:19Z</time>
      </trkpt>
      <trkpt lat="45.90605" lon="4.38032">
        <ele>692.6</ele>
        <time>2025-09-09T12:53:20Z</time>
      </trkpt>
      <trkpt lat="45.90605" lon="4.38032">
        <ele>692.6</ele>
        <time>2025-09-09T12:53:21Z</time>
      </trkpt>
      <trkpt lat="45.90609" lon="4.38033">
        <ele>692.8</ele>
        <time>2025-09-09T12:55:07Z</time>
      </trkpt>
      <trkpt lat="45.90609" lon="4.38033">
        <ele>692.8</ele>
        <time>2025-09-09T12:55:08Z</time>
      </trkpt>
      <trkpt lat="45.90609" lon="4.38033">
        <ele>692.4</ele>
        <time>2025-09-09T12:55:09Z</time>
      </trkpt>
      <trkpt lat="45.90609" lon="4.38033">
        <ele>692.4</ele>
        <time>2025-09-09T12:55:10Z</time>
      </trkpt>
      <trkpt lat="45.90609" lon="4.38044">
        <ele>692.2</ele>
        <time>2025-09-09T12:55:12Z</time>
      </trkpt>
      <trkpt lat="45.90608" lon="4.38047">
        <ele>692.2</ele>
        <time>2025-09-09T12:55:13Z</time>
      </trkpt>
      <trkpt lat="45.90608" lon="4.3805">
        <ele>692</ele>
        <time>2025-09-09T12:55:14Z</time>
      </trkpt>
      <trkpt lat="45.90607" lon="4.38054">
        <ele>691.2</ele>
        <time>2025-09-09T12:55:15Z</time>
      </trkpt>
      <trkpt lat="45.90607" lon="4.38058">
        <ele>691.2</ele>
        <time>2025-09-09T12:55:16Z</time>
      </trkpt>
      <trkpt lat="45.90606" lon="4.38061">
        <ele>691</ele>
        <time>2025-09-09T12:55:17Z</time>
      </trkpt>
      <trkpt lat="45.90605" lon="4.38064">
        <ele>691</ele>
        <time>2025-09-09T12:55:18Z</time>
      </trkpt>
      <trkpt lat="45.90603" lon="4.38067">
        <ele>690.6</ele>
        <time>2025-09-09T12:55:19Z</time>
      </trkpt>
      <trkpt lat="45.90601" lon="4.38071">
        <ele>690.4</ele>
        <time>2025-09-09T12:55:20Z</time>
      </trkpt>
      <trkpt lat="45.90599" lon="4.38075">
        <ele>690.4</ele>
        <time>2025-09-09T12:55:21Z</time>
      </trkpt>
      <trkpt lat="45.90597" lon="4.38079">
        <ele>690</ele>
        <time>2025-09-09T12:55:22Z</time>
      </trkpt>
      <trkpt lat="45.90595" lon="4.38082">
        <ele>690</ele>
        <time>2025-09-09T12:55:23Z</time>
      </trkpt>
      <trkpt lat="45.90594" lon="4.38086">
        <ele>689.6</ele>
        <time>2025-09-09T12:55:24Z</time>
      </trkpt>
      <trkpt lat="45.90592" lon="4.38089">
        <ele>689.6</ele>
        <time>2025-09-09T12:55:25Z</time>
      </trkpt>
      <trkpt lat="45.9059" lon="4.38093">
        <ele>689.2</ele>
        <time>2025-09-09T12:55:26Z</time>
      </trkpt>
      <trkpt lat="45.90588" lon="4.38096">
        <ele>689.2</ele>
        <time>2025-09-09T12:55:27Z</time>
      </trkpt>
      <trkpt lat="45.90587" lon="4.381">
        <ele>688.4</ele>
        <time>2025-09-09T12:55:28Z</time>
      </trkpt>
      <trkpt lat="45.90586" lon="4.38103">
        <ele>688</ele>
        <time>2025-09-09T12:55:29Z</time>
      </trkpt>
      <trkpt lat="45.90584" lon="4.38107">
        <ele>687.6</ele>
        <time>2025-09-09T12:55:30Z</time>
      </trkpt>
      <trkpt lat="45.90583" lon="4.3811">
        <ele>687.6</ele>
        <time>2025-09-09T12:55:31Z</time>
      </trkpt>
      <trkpt lat="45.90581" lon="4.38112">
        <ele>687.4</ele>
        <time>2025-09-09T12:55:32Z</time>
      </trkpt>
      <trkpt lat="45.90579" lon="4.38114">
        <ele>687.4</ele>
        <time>2025-09-09T12:55:33Z</time>
      </trkpt>
      <trkpt lat="45.90577" lon="4.38116">
        <ele>687.4</ele>
        <time>2025-09-09T12:55:34Z</time>
      </trkpt>
      <trkpt lat="45.90575" lon="4.38121">
        <ele>687</ele>
        <time>2025-09-09T12:55:35Z</time>
      </trkpt>
      <trkpt lat="45.90574" lon="4.38125">
        <ele>686.6</ele>
        <time>2025-09-09T12:55:36Z</time>
      </trkpt>
      <trkpt lat="45.90574" lon="4.38125">
        <ele>686.6</ele>
        <time>2025-09-09T12:55:37Z</time>
      </trkpt>
      <trkpt lat="45.90572" lon="4.38133">
        <ele>685.8</ele>
        <time>2025-09-09T12:55:38Z</time>
      </trkpt>
      <trkpt lat="45.90571" lon="4.38137">
        <ele>685.4</ele>
        <time>2025-09-09T12:55:39Z</time>
      </trkpt>
      <trkpt lat="45.90569" lon="4.38141">
        <ele>685</ele>
        <time>2025-09-09T12:55:40Z</time>
      </trkpt>
      <trkpt lat="45.90568" lon="4.38144">
        <ele>684.6</ele>
        <time>2025-09-09T12:55:41Z</time>
      </trkpt>
      <trkpt lat="45.90567" lon="4.38148">
        <ele>684.6</ele>
        <time>2025-09-09T12:55:42Z</time>
      </trkpt>
      <trkpt lat="45.90566" lon="4.38152">
        <ele>684.6</ele>
        <time>2025-09-09T12:55:43Z</time>
      </trkpt>
      <trkpt lat="45.90565" lon="4.38156">
        <ele>684.6</ele>
        <time>2025-09-09T12:55:44Z</time>
      </trkpt>
      <trkpt lat="45.90563" lon="4.38161">
        <ele>684.4</ele>
        <time>2025-09-09T12:55:45Z</time>
      </trkpt>
      <trkpt lat="45.90561" lon="4.38165">
        <ele>683.8</ele>
        <time>2025-09-09T12:55:46Z</time>
      </trkpt>
      <trkpt lat="45.90559" lon="4.38168">
        <ele>683.2</ele>
        <time>2025-09-09T12:55:47Z</time>
      </trkpt>
      <trkpt lat="45.90557" lon="4.38171">
        <ele>683</ele>
        <time>2025-09-09T12:55:48Z</time>
      </trkpt>
      <trkpt lat="45.90555" lon="4.38174">
        <ele>683</ele>
        <time>2025-09-09T12:55:49Z</time>
      </trkpt>
      <trkpt lat="45.90554" lon="4.38176">
        <ele>683</ele>
        <time>2025-09-09T12:55:50Z</time>
      </trkpt>
      <trkpt lat="45.90552" lon="4.38179">
        <ele>682.8</ele>
        <time>2025-09-09T12:55:51Z</time>
      </trkpt>
      <trkpt lat="45.90551" lon="4.38182">
        <ele>682.4</ele>
        <time>2025-09-09T12:55:52Z</time>
      </trkpt>
      <trkpt lat="45.90549" lon="4.38185">
        <ele>682</ele>
        <time>2025-09-09T12:55:53Z</time>
      </trkpt>
      <trkpt lat="45.90547" lon="4.38188">
        <ele>682</ele>
        <time>2025-09-09T12:55:54Z</time>
      </trkpt>
      <trkpt lat="45.90546" lon="4.38191">
        <ele>682</ele>
        <time>2025-09-09T12:55:55Z</time>
      </trkpt>
      <trkpt lat="45.90545" lon="4.38194">
        <ele>681.4</ele>
        <time>2025-09-09T12:55:56Z</time>
      </trkpt>
      <trkpt lat="45.90543" lon="4.38196">
        <ele>681</ele>
        <time>2025-09-09T12:55:57Z</time>
      </trkpt>
      <trkpt lat="45.90542" lon="4.38199">
        <ele>680.6</ele>
        <time>2025-09-09T12:55:58Z</time>
      </trkpt>
      <trkpt lat="45.9054" lon="4.38202">
        <ele>680.6</ele>
        <time>2025-09-09T12:55:59Z</time>
      </trkpt>
      <trkpt lat="45.90538" lon="4.38206">
        <ele>680.2</ele>
        <time>2025-09-09T12:56:00Z</time>
      </trkpt>
      <trkpt lat="45.90537" lon="4.38209">
        <ele>680.2</ele>
        <time>2025-09-09T12:56:01Z</time>
      </trkpt>
      <trkpt lat="45.90535" lon="4.38211">
        <ele>679.8</ele>
        <time>2025-09-09T12:56:02Z</time>
      </trkpt>
      <trkpt lat="45.90534" lon="4.38214">
        <ele>679.2</ele>
        <time>2025-09-09T12:56:03Z</time>
      </trkpt>
      <trkpt lat="45.90532" lon="4.38218">
        <ele>679.2</ele>
        <time>2025-09-09T12:56:04Z</time>
      </trkpt>
      <trkpt lat="45.90531" lon="4.38221">
        <ele>679.2</ele>
        <time>2025-09-09T12:56:05Z</time>
      </trkpt>
      <trkpt lat="45.90529" lon="4.38224">
        <ele>679.2</ele>
        <time>2025-09-09T12:56:06Z</time>
      </trkpt>
      <trkpt lat="45.90527" lon="4.38228">
        <ele>678.8</ele>
        <time>2025-09-09T12:56:07Z</time>
      </trkpt>
      <trkpt lat="45.90526" lon="4.38232">
        <ele>678.8</ele>
        <time>2025-09-09T12:56:08Z</time>
      </trkpt>
      <trkpt lat="45.90524" lon="4.38235">
        <ele>678.8</ele>
        <time>2025-09-09T12:56:09Z</time>
      </trkpt>
      <trkpt lat="45.90522" lon="4.38239">
        <ele>678.4</ele>
        <time>2025-09-09T12:56:10Z</time>
      </trkpt>
      <trkpt lat="45.90521" lon="4.38242">
        <ele>678</ele>
        <time>2025-09-09T12:56:11Z</time>
      </trkpt>
      <trkpt lat="45.90519" lon="4.38245">
        <ele>677.8</ele>
        <time>2025-09-09T12:56:12Z</time>
      </trkpt>
      <trkpt lat="45.90517" lon="4.38248">
        <ele>677.4</ele>
        <time>2025-09-09T12:56:13Z</time>
      </trkpt>
      <trkpt lat="45.90516" lon="4.38252">
        <ele>677</ele>
        <time>2025-09-09T12:56:14Z</time>
      </trkpt>
      <trkpt lat="45.90514" lon="4.38256">
        <ele>677</ele>
        <time>2025-09-09T12:56:15Z</time>
      </trkpt>
      <trkpt lat="45.90512" lon="4.3826">
        <ele>677</ele>
        <time>2025-09-09T12:56:16Z</time>
      </trkpt>
      <trkpt lat="45.9051" lon="4.38263">
        <ele>676.6</ele>
        <time>2025-09-09T12:56:17Z</time>
      </trkpt>
      <trkpt lat="45.90508" lon="4.38266">
        <ele>676.4</ele>
        <time>2025-09-09T12:56:18Z</time>
      </trkpt>
      <trkpt lat="45.90506" lon="4.38268">
        <ele>675.6</ele>
        <time>2025-09-09T12:56:19Z</time>
      </trkpt>
      <trkpt lat="45.90504" lon="4.38271">
        <ele>675.4</ele>
        <time>2025-09-09T12:56:20Z</time>
      </trkpt>
      <trkpt lat="45.90502" lon="4.38274">
        <ele>675</ele>
        <time>2025-09-09T12:56:21Z</time>
      </trkpt>
      <trkpt lat="45.905" lon="4.38276">
        <ele>674.6</ele>
        <time>2025-09-09T12:56:22Z</time>
      </trkpt>
      <trkpt lat="45.90497" lon="4.38279">
        <ele>674</ele>
        <time>2025-09-09T12:56:23Z</time>
      </trkpt>
      <trkpt lat="45.90495" lon="4.38281">
        <ele>674.6</ele>
        <time>2025-09-09T12:56:24Z</time>
      </trkpt>
      <trkpt lat="45.90493" lon="4.38283">
        <ele>674.8</ele>
        <time>2025-09-09T12:56:25Z</time>
      </trkpt>
      <trkpt lat="45.90491" lon="4.38285">
        <ele>674.2</ele>
        <time>2025-09-09T12:56:26Z</time>
      </trkpt>
      <trkpt lat="45.90489" lon="4.38288">
        <ele>673.8</ele>
        <time>2025-09-09T12:56:27Z</time>
      </trkpt>
      <trkpt lat="45.90487" lon="4.3829">
        <ele>673.8</ele>
        <time>2025-09-09T12:56:28Z</time>
      </trkpt>
      <trkpt lat="45.90485" lon="4.38292">
        <ele>673.4</ele>
        <time>2025-09-09T12:56:29Z</time>
      </trkpt>
      <trkpt lat="45.90483" lon="4.38293">
        <ele>673</ele>
        <time>2025-09-09T12:56:30Z</time>
      </trkpt>
      <trkpt lat="45.90481" lon="4.38295">
        <ele>672.6</ele>
        <time>2025-09-09T12:56:31Z</time>
      </trkpt>
      <trkpt lat="45.90479" lon="4.38296">
        <ele>672.6</ele>
        <time>2025-09-09T12:56:32Z</time>
      </trkpt>
      <trkpt lat="45.90477" lon="4.38296">
        <ele>672</ele>
        <time>2025-09-09T12:56:33Z</time>
      </trkpt>
      <trkpt lat="45.90475" lon="4.38297">
        <ele>672</ele>
        <time>2025-09-09T12:56:34Z</time>
      </trkpt>
      <trkpt lat="45.90473" lon="4.38297">
        <ele>671.8</ele>
        <time>2025-09-09T12:56:35Z</time>
      </trkpt>
      <trkpt lat="45.90471" lon="4.38297">
        <ele>671.6</ele>
        <time>2025-09-09T12:56:36Z</time>
      </trkpt>
      <trkpt lat="45.90469" lon="4.38298">
        <ele>671.4</ele>
        <time>2025-09-09T12:56:37Z</time>
      </trkpt>
      <trkpt lat="45.90467" lon="4.38299">
        <ele>671.4</ele>
        <time>2025-09-09T12:56:38Z</time>
      </trkpt>
      <trkpt lat="45.90464" lon="4.38301">
        <ele>671.4</ele>
        <time>2025-09-09T12:56:39Z</time>
      </trkpt>
      <trkpt lat="45.90461" lon="4.38301">
        <ele>671</ele>
        <time>2025-09-09T12:56:40Z</time>
      </trkpt>
      <trkpt lat="45.90458" lon="4.38302">
        <ele>670.6</ele>
        <time>2025-09-09T12:56:41Z</time>
      </trkpt>
      <trkpt lat="45.90455" lon="4.38303">
        <ele>670</ele>
        <time>2025-09-09T12:56:42Z</time>
      </trkpt>
      <trkpt lat="45.90452" lon="4.38303">
        <ele>670</ele>
        <time>2025-09-09T12:56:43Z</time>
      </trkpt>
      <trkpt lat="45.90449" lon="4.38304">
        <ele>669.8</ele>
        <time>2025-09-09T12:56:44Z</time>
      </trkpt>
      <trkpt lat="45.90446" lon="4.38305">
        <ele>669.8</ele>
        <time>2025-09-09T12:56:45Z</time>
      </trkpt>
      <trkpt lat="45.90443" lon="4.38305">
        <ele>669.4</ele>
        <time>2025-09-09T12:56:46Z</time>
      </trkpt>
      <trkpt lat="45.9044" lon="4.38305">
        <ele>668.8</ele>
        <time>2025-09-09T12:56:47Z</time>
      </trkpt>
      <trkpt lat="45.90438" lon="4.38305">
        <ele>668.4</ele>
        <time>2025-09-09T12:56:48Z</time>
      </trkpt>
      <trkpt lat="45.90435" lon="4.38306">
        <ele>668.2</ele>
        <time>2025-09-09T12:56:49Z</time>
      </trkpt>
      <trkpt lat="45.90433" lon="4.38307">
        <ele>668</ele>
        <time>2025-09-09T12:56:50Z</time>
      </trkpt>
      <trkpt lat="45.90429" lon="4.38308">
        <ele>667.6</ele>
        <time>2025-09-09T12:56:51Z</time>
      </trkpt>
      <trkpt lat="45.90426" lon="4.38308">
        <ele>667</ele>
        <time>2025-09-09T12:56:52Z</time>
      </trkpt>
      <trkpt lat="45.90423" lon="4.38309">
        <ele>667</ele>
        <time>2025-09-09T12:56:53Z</time>
      </trkpt>
      <trkpt lat="45.90421" lon="4.38309">
        <ele>667</ele>
        <time>2025-09-09T12:56:54Z</time>
      </trkpt>
      <trkpt lat="45.90418" lon="4.38309">
        <ele>666.8</ele>
        <time>2025-09-09T12:56:55Z</time>
      </trkpt>
      <trkpt lat="45.90415" lon="4.3831">
        <ele>666.4</ele>
        <time>2025-09-09T12:56:56Z</time>
      </trkpt>
      <trkpt lat="45.90412" lon="4.38311">
        <ele>665.6</ele>
        <time>2025-09-09T12:56:57Z</time>
      </trkpt>
      <trkpt lat="45.90407" lon="4.38311">
        <ele>665.2</ele>
        <time>2025-09-09T12:56:58Z</time>
      </trkpt>
      <trkpt lat="45.90404" lon="4.38312">
        <ele>665.2</ele>
        <time>2025-09-09T12:56:59Z</time>
      </trkpt>
      <trkpt lat="45.90401" lon="4.38313">
        <ele>665.2</ele>
        <time>2025-09-09T12:57:00Z</time>
      </trkpt>
      <trkpt lat="45.90398" lon="4.38313">
        <ele>664.8</ele>
        <time>2025-09-09T12:57:01Z</time>
      </trkpt>
      <trkpt lat="45.90396" lon="4.38313">
        <ele>665.2</ele>
        <time>2025-09-09T12:57:02Z</time>
      </trkpt>
      <trkpt lat="45.90394" lon="4.38313">
        <ele>664.6</ele>
        <time>2025-09-09T12:57:03Z</time>
      </trkpt>
      <trkpt lat="45.90392" lon="4.38313">
        <ele>664.6</ele>
        <time>2025-09-09T12:57:04Z</time>
      </trkpt>
      <trkpt lat="45.9039" lon="4.38313">
        <ele>664</ele>
        <time>2025-09-09T12:57:05Z</time>
      </trkpt>
      <trkpt lat="45.90387" lon="4.38313">
        <ele>664</ele>
        <time>2025-09-09T12:57:06Z</time>
      </trkpt>
      <trkpt lat="45.90385" lon="4.38313">
        <ele>663.6</ele>
        <time>2025-09-09T12:57:07Z</time>
      </trkpt>
      <trkpt lat="45.90383" lon="4.38313">
        <ele>663.2</ele>
        <time>2025-09-09T12:57:08Z</time>
      </trkpt>
      <trkpt lat="45.90381" lon="4.38313">
        <ele>662.8</ele>
        <time>2025-09-09T12:57:09Z</time>
      </trkpt>
      <trkpt lat="45.90379" lon="4.38314">
        <ele>662.6</ele>
        <time>2025-09-09T12:57:10Z</time>
      </trkpt>
      <trkpt lat="45.90377" lon="4.38314">
        <ele>662.2</ele>
        <time>2025-09-09T12:57:11Z</time>
      </trkpt>
      <trkpt lat="45.90374" lon="4.38315">
        <ele>662</ele>
        <time>2025-09-09T12:57:12Z</time>
      </trkpt>
      <trkpt lat="45.90373" lon="4.38316">
        <ele>661.6</ele>
        <time>2025-09-09T12:57:13Z</time>
      </trkpt>
      <trkpt lat="45.90371" lon="4.38316">
        <ele>661.4</ele>
        <time>2025-09-09T12:57:14Z</time>
      </trkpt>
      <trkpt lat="45.9037" lon="4.38316">
        <ele>661.6</ele>
        <time>2025-09-09T12:57:15Z</time>
      </trkpt>
      <trkpt lat="45.90368" lon="4.38315">
        <ele>661.2</ele>
        <time>2025-09-09T12:57:16Z</time>
      </trkpt>
      <trkpt lat="45.90367" lon="4.38314">
        <ele>661</ele>
        <time>2025-09-09T12:57:17Z</time>
      </trkpt>
      <trkpt lat="45.90366" lon="4.38313">
        <ele>660.8</ele>
        <time>2025-09-09T12:57:18Z</time>
      </trkpt>
      <trkpt lat="45.90366" lon="4.38313">
        <ele>660.8</ele>
        <time>2025-09-09T12:57:19Z</time>
      </trkpt>
      <trkpt lat="45.90366" lon="4.38314">
        <ele>660.4</ele>
        <time>2025-09-09T12:57:20Z</time>
      </trkpt>
      <trkpt lat="45.90363" lon="4.38317">
        <ele>660</ele>
        <time>2025-09-09T12:57:45Z</time>
      </trkpt>
      <trkpt lat="45.90361" lon="4.38316">
        <ele>660</ele>
        <time>2025-09-09T12:57:46Z</time>
      </trkpt>
      <trkpt lat="45.9036" lon="4.38316">
        <ele>659.6</ele>
        <time>2025-09-09T12:57:47Z</time>
      </trkpt>
      <trkpt lat="45.90357" lon="4.38316">
        <ele>659.6</ele>
        <time>2025-09-09T12:57:48Z</time>
      </trkpt>
      <trkpt lat="45.90353" lon="4.38317">
        <ele>659.6</ele>
        <time>2025-09-09T12:57:49Z</time>
      </trkpt>
      <trkpt lat="45.90349" lon="4.38318">
        <ele>659.2</ele>
        <time>2025-09-09T12:57:50Z</time>
      </trkpt>
      <trkpt lat="45.90346" lon="4.3832">
        <ele>658.4</ele>
        <time>2025-09-09T12:57:51Z</time>
      </trkpt>
      <trkpt lat="45.90343" lon="4.38321">
        <ele>658.4</ele>
        <time>2025-09-09T12:57:52Z</time>
      </trkpt>
      <trkpt lat="45.9034" lon="4.38322">
        <ele>658.4</ele>
        <time>2025-09-09T12:57:53Z</time>
      </trkpt>
      <trkpt lat="45.90337" lon="4.38322">
        <ele>658</ele>
        <time>2025-09-09T12:57:54Z</time>
      </trkpt>
      <trkpt lat="45.90334" lon="4.38322">
        <ele>657.4</ele>
        <time>2025-09-09T12:57:55Z</time>
      </trkpt>
      <trkpt lat="45.90331" lon="4.38322">
        <ele>657.4</ele>
        <time>2025-09-09T12:57:56Z</time>
      </trkpt>
      <trkpt lat="45.90328" lon="4.38322">
        <ele>657.4</ele>
        <time>2025-09-09T12:57:57Z</time>
      </trkpt>
      <trkpt lat="45.90325" lon="4.38322">
        <ele>657</ele>
        <time>2025-09-09T12:57:58Z</time>
      </trkpt>
      <trkpt lat="45.90322" lon="4.38322">
        <ele>656.4</ele>
        <time>2025-09-09T12:57:59Z</time>
      </trkpt>
      <trkpt lat="45.90319" lon="4.38323">
        <ele>656.4</ele>
        <time>2025-09-09T12:58:00Z</time>
      </trkpt>
      <trkpt lat="45.90316" lon="4.38323">
        <ele>656</ele>
        <time>2025-09-09T12:58:01Z</time>
      </trkpt>
      <trkpt lat="45.90313" lon="4.38325">
        <ele>655.4</ele>
        <time>2025-09-09T12:58:02Z</time>
      </trkpt>
      <trkpt lat="45.9031" lon="4.38326">
        <ele>655.8</ele>
        <time>2025-09-09T12:58:03Z</time>
      </trkpt>
      <trkpt lat="45.90307" lon="4.38328">
        <ele>655.2</ele>
        <time>2025-09-09T12:58:04Z</time>
      </trkpt>
      <trkpt lat="45.90304" lon="4.38328">
        <ele>654.8</ele>
        <time>2025-09-09T12:58:05Z</time>
      </trkpt>
      <trkpt lat="45.90303" lon="4.38329">
        <ele>654.4</ele>
        <time>2025-09-09T12:58:06Z</time>
      </trkpt>
      <trkpt lat="45.903" lon="4.38329">
        <ele>654</ele>
        <time>2025-09-09T12:58:07Z</time>
      </trkpt>
      <trkpt lat="45.90298" lon="4.38329">
        <ele>653.8</ele>
        <time>2025-09-09T12:58:08Z</time>
      </trkpt>
      <trkpt lat="45.90295" lon="4.38328">
        <ele>653.4</ele>
        <time>2025-09-09T12:58:09Z</time>
      </trkpt>
      <trkpt lat="45.90293" lon="4.38329">
        <ele>653.4</ele>
        <time>2025-09-09T12:58:10Z</time>
      </trkpt>
      <trkpt lat="45.90291" lon="4.38329">
        <ele>653.4</ele>
        <time>2025-09-09T12:58:11Z</time>
      </trkpt>
      <trkpt lat="45.90288" lon="4.38331">
        <ele>653</ele>
        <time>2025-09-09T12:58:12Z</time>
      </trkpt>
      <trkpt lat="45.90287" lon="4.38333">
        <ele>652.6</ele>
        <time>2025-09-09T12:58:13Z</time>
      </trkpt>
      <trkpt lat="45.90284" lon="4.38335">
        <ele>652.6</ele>
        <time>2025-09-09T12:58:14Z</time>
      </trkpt>
      <trkpt lat="45.90281" lon="4.38336">
        <ele>652</ele>
        <time>2025-09-09T12:58:15Z</time>
      </trkpt>
      <trkpt lat="45.90279" lon="4.38336">
        <ele>651.6</ele>
        <time>2025-09-09T12:58:16Z</time>
      </trkpt>
      <trkpt lat="45.90276" lon="4.38336">
        <ele>651.4</ele>
        <time>2025-09-09T12:58:17Z</time>
      </trkpt>
      <trkpt lat="45.90274" lon="4.38337">
        <ele>651.4</ele>
        <time>2025-09-09T12:58:18Z</time>
      </trkpt>
      <trkpt lat="45.90271" lon="4.38336">
        <ele>650.8</ele>
        <time>2025-09-09T12:58:19Z</time>
      </trkpt>
      <trkpt lat="45.90269" lon="4.38336">
        <ele>650.8</ele>
        <time>2025-09-09T12:58:20Z</time>
      </trkpt>
      <trkpt lat="45.90266" lon="4.38336">
        <ele>650.4</ele>
        <time>2025-09-09T12:58:21Z</time>
      </trkpt>
      <trkpt lat="45.90263" lon="4.38337">
        <ele>650</ele>
        <time>2025-09-09T12:58:22Z</time>
      </trkpt>
      <trkpt lat="45.90261" lon="4.38337">
        <ele>650</ele>
        <time>2025-09-09T12:58:23Z</time>
      </trkpt>
      <trkpt lat="45.90259" lon="4.38338">
        <ele>649.6</ele>
        <time>2025-09-09T12:58:24Z</time>
      </trkpt>
      <trkpt lat="45.90257" lon="4.38338">
        <ele>649.6</ele>
        <time>2025-09-09T12:58:25Z</time>
      </trkpt>
      <trkpt lat="45.90254" lon="4.38339">
        <ele>649.6</ele>
        <time>2025-09-09T12:58:26Z</time>
      </trkpt>
      <trkpt lat="45.90251" lon="4.3834">
        <ele>649.6</ele>
        <time>2025-09-09T12:58:27Z</time>
      </trkpt>
      <trkpt lat="45.90248" lon="4.3834">
        <ele>649.2</ele>
        <time>2025-09-09T12:58:28Z</time>
      </trkpt>
      <trkpt lat="45.90245" lon="4.38341">
        <ele>648.2</ele>
        <time>2025-09-09T12:58:29Z</time>
      </trkpt>
      <trkpt lat="45.90242" lon="4.38342">
        <ele>647.6</ele>
        <time>2025-09-09T12:58:30Z</time>
      </trkpt>
      <trkpt lat="45.9024" lon="4.38342">
        <ele>647.6</ele>
        <time>2025-09-09T12:58:31Z</time>
      </trkpt>
      <trkpt lat="45.90238" lon="4.38342">
        <ele>647.2</ele>
        <time>2025-09-09T12:58:32Z</time>
      </trkpt>
      <trkpt lat="45.90236" lon="4.38342">
        <ele>647</ele>
        <time>2025-09-09T12:58:33Z</time>
      </trkpt>
      <trkpt lat="45.90236" lon="4.38342">
        <ele>646.6</ele>
        <time>2025-09-09T12:58:34Z</time>
      </trkpt>
      <trkpt lat="45.90233" lon="4.38342">
        <ele>646.2</ele>
        <time>2025-09-09T12:58:35Z</time>
      </trkpt>
      <trkpt lat="45.90231" lon="4.38343">
        <ele>645.8</ele>
        <time>2025-09-09T12:58:36Z</time>
      </trkpt>
      <trkpt lat="45.90228" lon="4.38343">
        <ele>645</ele>
        <time>2025-09-09T12:58:37Z</time>
      </trkpt>
      <trkpt lat="45.90225" lon="4.38343">
        <ele>644.8</ele>
        <time>2025-09-09T12:58:38Z</time>
      </trkpt>
      <trkpt lat="45.90222" lon="4.38344">
        <ele>644.8</ele>
        <time>2025-09-09T12:58:39Z</time>
      </trkpt>
      <trkpt lat="45.90219" lon="4.38344">
        <ele>644.8</ele>
        <time>2025-09-09T12:58:40Z</time>
      </trkpt>
      <trkpt lat="45.90216" lon="4.38345">
        <ele>644</ele>
        <time>2025-09-09T12:58:41Z</time>
      </trkpt>
      <trkpt lat="45.90214" lon="4.38346">
        <ele>643.8</ele>
        <time>2025-09-09T12:58:42Z</time>
      </trkpt>
      <trkpt lat="45.90211" lon="4.38346">
        <ele>643</ele>
        <time>2025-09-09T12:58:43Z</time>
      </trkpt>
      <trkpt lat="45.90208" lon="4.38347">
        <ele>643</ele>
        <time>2025-09-09T12:58:44Z</time>
      </trkpt>
      <trkpt lat="45.90204" lon="4.38349">
        <ele>642.6</ele>
        <time>2025-09-09T12:58:45Z</time>
      </trkpt>
      <trkpt lat="45.90201" lon="4.3835">
        <ele>642.6</ele>
        <time>2025-09-09T12:58:46Z</time>
      </trkpt>
      <trkpt lat="45.90198" lon="4.38353">
        <ele>642</ele>
        <time>2025-09-09T12:58:47Z</time>
      </trkpt>
      <trkpt lat="45.90195" lon="4.38355">
        <ele>641.8</ele>
        <time>2025-09-09T12:58:48Z</time>
      </trkpt>
      <trkpt lat="45.90193" lon="4.38357">
        <ele>641.8</ele>
        <time>2025-09-09T12:58:49Z</time>
      </trkpt>
      <trkpt lat="45.9019" lon="4.38359">
        <ele>641.4</ele>
        <time>2025-09-09T12:58:50Z</time>
      </trkpt>
      <trkpt lat="45.90188" lon="4.38361">
        <ele>641</ele>
        <time>2025-09-09T12:58:51Z</time>
      </trkpt>
      <trkpt lat="45.90186" lon="4.38363">
        <ele>641</ele>
        <time>2025-09-09T12:58:52Z</time>
      </trkpt>
      <trkpt lat="45.90183" lon="4.38365">
        <ele>640.8</ele>
        <time>2025-09-09T12:58:53Z</time>
      </trkpt>
      <trkpt lat="45.90181" lon="4.38367">
        <ele>640.2</ele>
        <time>2025-09-09T12:58:54Z</time>
      </trkpt>
      <trkpt lat="45.90179" lon="4.3837">
        <ele>640</ele>
        <time>2025-09-09T12:58:55Z</time>
      </trkpt>
      <trkpt lat="45.90177" lon="4.38371">
        <ele>639.8</ele>
        <time>2025-09-09T12:58:56Z</time>
      </trkpt>
      <trkpt lat="45.90176" lon="4.38373">
        <ele>639.4</ele>
        <time>2025-09-09T12:58:57Z</time>
      </trkpt>
      <trkpt lat="45.90174" lon="4.38373">
        <ele>639.2</ele>
        <time>2025-09-09T12:58:58Z</time>
      </trkpt>
      <trkpt lat="45.90171" lon="4.38373">
        <ele>639.2</ele>
        <time>2025-09-09T12:58:59Z</time>
      </trkpt>
      <trkpt lat="45.90169" lon="4.38373">
        <ele>638.8</ele>
        <time>2025-09-09T12:59:00Z</time>
      </trkpt>
      <trkpt lat="45.90166" lon="4.38375">
        <ele>638.6</ele>
        <time>2025-09-09T12:59:01Z</time>
      </trkpt>
      <trkpt lat="45.90164" lon="4.38377">
        <ele>638.6</ele>
        <time>2025-09-09T12:59:02Z</time>
      </trkpt>
      <trkpt lat="45.90161" lon="4.38379">
        <ele>638.2</ele>
        <time>2025-09-09T12:59:03Z</time>
      </trkpt>
      <trkpt lat="45.90159" lon="4.38382">
        <ele>637.8</ele>
        <time>2025-09-09T12:59:04Z</time>
      </trkpt>
      <trkpt lat="45.90156" lon="4.38385">
        <ele>637.8</ele>
        <time>2025-09-09T12:59:05Z</time>
      </trkpt>
      <trkpt lat="45.90154" lon="4.38388">
        <ele>637.8</ele>
        <time>2025-09-09T12:59:06Z</time>
      </trkpt>
      <trkpt lat="45.90152" lon="4.38391">
        <ele>637.4</ele>
        <time>2025-09-09T12:59:07Z</time>
      </trkpt>
      <trkpt lat="45.9015" lon="4.38394">
        <ele>637</ele>
        <time>2025-09-09T12:59:08Z</time>
      </trkpt>
      <trkpt lat="45.90148" lon="4.38396">
        <ele>636.6</ele>
        <time>2025-09-09T12:59:09Z</time>
      </trkpt>
      <trkpt lat="45.90147" lon="4.38398">
        <ele>636.4</ele>
        <time>2025-09-09T12:59:10Z</time>
      </trkpt>
      <trkpt lat="45.90145" lon="4.384">
        <ele>636</ele>
        <time>2025-09-09T12:59:11Z</time>
      </trkpt>
      <trkpt lat="45.90143" lon="4.38402">
        <ele>635.8</ele>
        <time>2025-09-09T12:59:12Z</time>
      </trkpt>
      <trkpt lat="45.90141" lon="4.38405">
        <ele>635.2</ele>
        <time>2025-09-09T12:59:13Z</time>
      </trkpt>
      <trkpt lat="45.90139" lon="4.38408">
        <ele>635.2</ele>
        <time>2025-09-09T12:59:14Z</time>
      </trkpt>
      <trkpt lat="45.90137" lon="4.38411">
        <ele>635</ele>
        <time>2025-09-09T12:59:15Z</time>
      </trkpt>
      <trkpt lat="45.90136" lon="4.38413">
        <ele>634.6</ele>
        <time>2025-09-09T12:59:16Z</time>
      </trkpt>
      <trkpt lat="45.90135" lon="4.38415">
        <ele>634</ele>
        <time>2025-09-09T12:59:17Z</time>
      </trkpt>
      <trkpt lat="45.90134" lon="4.38417">
        <ele>634</ele>
        <time>2025-09-09T12:59:18Z</time>
      </trkpt>
      <trkpt lat="45.90133" lon="4.38419">
        <ele>633.6</ele>
        <time>2025-09-09T12:59:19Z</time>
      </trkpt>
      <trkpt lat="45.90132" lon="4.38421">
        <ele>633.6</ele>
        <time>2025-09-09T12:59:20Z</time>
      </trkpt>
      <trkpt lat="45.90131" lon="4.38423">
        <ele>633</ele>
        <time>2025-09-09T12:59:21Z</time>
      </trkpt>
      <trkpt lat="45.90129" lon="4.38426">
        <ele>632.6</ele>
        <time>2025-09-09T12:59:22Z</time>
      </trkpt>
      <trkpt lat="45.90128" lon="4.38429">
        <ele>632.2</ele>
        <time>2025-09-09T12:59:23Z</time>
      </trkpt>
      <trkpt lat="45.90126" lon="4.38433">
        <ele>631.8</ele>
        <time>2025-09-09T12:59:24Z</time>
      </trkpt>
      <trkpt lat="45.90124" lon="4.38437">
        <ele>631.8</ele>
        <time>2025-09-09T12:59:25Z</time>
      </trkpt>
      <trkpt lat="45.90122" lon="4.38441">
        <ele>631.6</ele>
        <time>2025-09-09T12:59:26Z</time>
      </trkpt>
      <trkpt lat="45.90122" lon="4.38446">
        <ele>631</ele>
        <time>2025-09-09T12:59:27Z</time>
      </trkpt>
      <trkpt lat="45.90121" lon="4.3845">
        <ele>630.6</ele>
        <time>2025-09-09T12:59:28Z</time>
      </trkpt>
      <trkpt lat="45.90121" lon="4.38454">
        <ele>630.8</ele>
        <time>2025-09-09T12:59:29Z</time>
      </trkpt>
      <trkpt lat="45.90121" lon="4.38458">
        <ele>630.4</ele>
        <time>2025-09-09T12:59:30Z</time>
      </trkpt>
      <trkpt lat="45.90121" lon="4.38462">
        <ele>630.4</ele>
        <time>2025-09-09T12:59:31Z</time>
      </trkpt>
      <trkpt lat="45.90121" lon="4.38464">
        <ele>629.6</ele>
        <time>2025-09-09T12:59:32Z</time>
      </trkpt>
      <trkpt lat="45.90122" lon="4.38467">
        <ele>629.6</ele>
        <time>2025-09-09T12:59:33Z</time>
      </trkpt>
      <trkpt lat="45.90122" lon="4.38469">
        <ele>629</ele>
        <time>2025-09-09T12:59:34Z</time>
      </trkpt>
      <trkpt lat="45.90122" lon="4.38471">
        <ele>629</ele>
        <time>2025-09-09T12:59:35Z</time>
      </trkpt>
      <trkpt lat="45.90121" lon="4.38474">
        <ele>628.6</ele>
        <time>2025-09-09T12:59:36Z</time>
      </trkpt>
      <trkpt lat="45.9012" lon="4.38477">
        <ele>628.6</ele>
        <time>2025-09-09T12:59:37Z</time>
      </trkpt>
      <trkpt lat="45.90119" lon="4.3848">
        <ele>628.4</ele>
        <time>2025-09-09T12:59:38Z</time>
      </trkpt>
      <trkpt lat="45.90118" lon="4.38483">
        <ele>628.4</ele>
        <time>2025-09-09T12:59:39Z</time>
      </trkpt>
      <trkpt lat="45.90117" lon="4.38487">
        <ele>628.4</ele>
        <time>2025-09-09T12:59:40Z</time>
      </trkpt>
      <trkpt lat="45.90116" lon="4.3849">
        <ele>628</ele>
        <time>2025-09-09T12:59:41Z</time>
      </trkpt>
      <trkpt lat="45.90116" lon="4.38493">
        <ele>627.8</ele>
        <time>2025-09-09T12:59:42Z</time>
      </trkpt>
      <trkpt lat="45.90116" lon="4.38496">
        <ele>627.8</ele>
        <time>2025-09-09T12:59:43Z</time>
      </trkpt>
      <trkpt lat="45.90117" lon="4.38499">
        <ele>627.4</ele>
        <time>2025-09-09T12:59:44Z</time>
      </trkpt>
      <trkpt lat="45.90117" lon="4.38502">
        <ele>627</ele>
        <time>2025-09-09T12:59:45Z</time>
      </trkpt>
      <trkpt lat="45.90118" lon="4.38505">
        <ele>626.6</ele>
        <time>2025-09-09T12:59:46Z</time>
      </trkpt>
      <trkpt lat="45.90118" lon="4.38509">
        <ele>626.6</ele>
        <time>2025-09-09T12:59:47Z</time>
      </trkpt>
      <trkpt lat="45.90119" lon="4.38513">
        <ele>626.4</ele>
        <time>2025-09-09T12:59:48Z</time>
      </trkpt>
      <trkpt lat="45.9012" lon="4.38517">
        <ele>626</ele>
        <time>2025-09-09T12:59:49Z</time>
      </trkpt>
      <trkpt lat="45.9012" lon="4.38521">
        <ele>625.8</ele>
        <time>2025-09-09T12:59:50Z</time>
      </trkpt>
      <trkpt lat="45.90119" lon="4.38524">
        <ele>625.6</ele>
        <time>2025-09-09T12:59:51Z</time>
      </trkpt>
      <trkpt lat="45.90117" lon="4.38528">
        <ele>625.6</ele>
        <time>2025-09-09T12:59:52Z</time>
      </trkpt>
      <trkpt lat="45.90116" lon="4.38531">
        <ele>625.6</ele>
        <time>2025-09-09T12:59:53Z</time>
      </trkpt>
      <trkpt lat="45.90116" lon="4.38535">
        <ele>625.2</ele>
        <time>2025-09-09T12:59:54Z</time>
      </trkpt>
      <trkpt lat="45.90116" lon="4.38539">
        <ele>624.6</ele>
        <time>2025-09-09T12:59:55Z</time>
      </trkpt>
      <trkpt lat="45.90116" lon="4.38543">
        <ele>624</ele>
        <time>2025-09-09T12:59:56Z</time>
      </trkpt>
      <trkpt lat="45.90116" lon="4.38547">
        <ele>623.6</ele>
        <time>2025-09-09T12:59:57Z</time>
      </trkpt>
      <trkpt lat="45.90117" lon="4.38551">
        <ele>623.6</ele>
        <time>2025-09-09T12:59:58Z</time>
      </trkpt>
      <trkpt lat="45.90117" lon="4.38554">
        <ele>623.2</ele>
        <time>2025-09-09T12:59:59Z</time>
      </trkpt>
      <trkpt lat="45.90118" lon="4.38557">
        <ele>623.2</ele>
        <time>2025-09-09T13:00:00Z</time>
      </trkpt>
      <trkpt lat="45.90118" lon="4.38561">
        <ele>623</ele>
        <time>2025-09-09T13:00:01Z</time>
      </trkpt>
      <trkpt lat="45.90117" lon="4.38566">
        <ele>622.6</ele>
        <time>2025-09-09T13:00:02Z</time>
      </trkpt>
      <trkpt lat="45.90116" lon="4.3857">
        <ele>622.4</ele>
        <time>2025-09-09T13:00:03Z</time>
      </trkpt>
      <trkpt lat="45.90115" lon="4.38573">
        <ele>621.8</ele>
        <time>2025-09-09T13:00:04Z</time>
      </trkpt>
      <trkpt lat="45.90114" lon="4.38577">
        <ele>621</ele>
        <time>2025-09-09T13:00:05Z</time>
      </trkpt>
      <trkpt lat="45.90113" lon="4.38581">
        <ele>620.4</ele>
        <time>2025-09-09T13:00:06Z</time>
      </trkpt>
      <trkpt lat="45.90111" lon="4.38584">
        <ele>620</ele>
        <time>2025-09-09T13:00:07Z</time>
      </trkpt>
      <trkpt lat="45.9011" lon="4.38587">
        <ele>620</ele>
        <time>2025-09-09T13:00:08Z</time>
      </trkpt>
      <trkpt lat="45.90109" lon="4.38591">
        <ele>619.6</ele>
        <time>2025-09-09T13:00:09Z</time>
      </trkpt>
      <trkpt lat="45.90107" lon="4.38596">
        <ele>619.6</ele>
        <time>2025-09-09T13:00:10Z</time>
      </trkpt>
      <trkpt lat="45.90106" lon="4.386">
        <ele>619.2</ele>
        <time>2025-09-09T13:00:11Z</time>
      </trkpt>
      <trkpt lat="45.90104" lon="4.38604">
        <ele>619.2</ele>
        <time>2025-09-09T13:00:12Z</time>
      </trkpt>
      <trkpt lat="45.90103" lon="4.38607">
        <ele>618.6</ele>
        <time>2025-09-09T13:00:13Z</time>
      </trkpt>
      <trkpt lat="45.90101" lon="4.3861">
        <ele>618.6</ele>
        <time>2025-09-09T13:00:14Z</time>
      </trkpt>
      <trkpt lat="45.90099" lon="4.38614">
        <ele>617.6</ele>
        <time>2025-09-09T13:00:15Z</time>
      </trkpt>
      <trkpt lat="45.90097" lon="4.38618">
        <ele>617.2</ele>
        <time>2025-09-09T13:00:16Z</time>
      </trkpt>
      <trkpt lat="45.90095" lon="4.38622">
        <ele>617.2</ele>
        <time>2025-09-09T13:00:17Z</time>
      </trkpt>
      <trkpt lat="45.90092" lon="4.38627">
        <ele>616.8</ele>
        <time>2025-09-09T13:00:18Z</time>
      </trkpt>
      <trkpt lat="45.90089" lon="4.38632">
        <ele>616.8</ele>
        <time>2025-09-09T13:00:19Z</time>
      </trkpt>
      <trkpt lat="45.90086" lon="4.38636">
        <ele>616</ele>
        <time>2025-09-09T13:00:20Z</time>
      </trkpt>
      <trkpt lat="45.90084" lon="4.38639">
        <ele>615.6</ele>
        <time>2025-09-09T13:00:21Z</time>
      </trkpt>
      <trkpt lat="45.90082" lon="4.38641">
        <ele>615.4</ele>
        <time>2025-09-09T13:00:22Z</time>
      </trkpt>
      <trkpt lat="45.9008" lon="4.38644">
        <ele>615</ele>
        <time>2025-09-09T13:00:23Z</time>
      </trkpt>
      <trkpt lat="45.90078" lon="4.38647">
        <ele>614.4</ele>
        <time>2025-09-09T13:00:24Z</time>
      </trkpt>
      <trkpt lat="45.90077" lon="4.38649">
        <ele>614.2</ele>
        <time>2025-09-09T13:00:25Z</time>
      </trkpt>
      <trkpt lat="45.90077" lon="4.3865">
        <ele>614</ele>
        <time>2025-09-09T13:00:26Z</time>
      </trkpt>
      <trkpt lat="45.90077" lon="4.3865">
        <ele>614</ele>
        <time>2025-09-09T13:00:27Z</time>
      </trkpt>
      <trkpt lat="45.90078" lon="4.38649">
        <ele>613.6</ele>
        <time>2025-09-09T13:00:28Z</time>
      </trkpt>
      <trkpt lat="45.90078" lon="4.38652">
        <ele>613</ele>
        <time>2025-09-09T13:01:08Z</time>
      </trkpt>
      <trkpt lat="45.90075" lon="4.38654">
        <ele>613</ele>
        <time>2025-09-09T13:01:09Z</time>
      </trkpt>
      <trkpt lat="45.90073" lon="4.38656">
        <ele>613</ele>
        <time>2025-09-09T13:01:10Z</time>
      </trkpt>
      <trkpt lat="45.9007" lon="4.38659">
        <ele>612.8</ele>
        <time>2025-09-09T13:01:11Z</time>
      </trkpt>
      <trkpt lat="45.90069" lon="4.38662">
        <ele>612.2</ele>
        <time>2025-09-09T13:01:12Z</time>
      </trkpt>
      <trkpt lat="45.90067" lon="4.38664">
        <ele>612.2</ele>
        <time>2025-09-09T13:01:13Z</time>
      </trkpt>
      <trkpt lat="45.90064" lon="4.38667">
        <ele>611.8</ele>
        <time>2025-09-09T13:01:14Z</time>
      </trkpt>
      <trkpt lat="45.90061" lon="4.3867">
        <ele>611.8</ele>
        <time>2025-09-09T13:01:15Z</time>
      </trkpt>
      <trkpt lat="45.90058" lon="4.38672">
        <ele>611.4</ele>
        <time>2025-09-09T13:01:16Z</time>
      </trkpt>
      <trkpt lat="45.90056" lon="4.38675">
        <ele>611.2</ele>
        <time>2025-09-09T13:01:17Z</time>
      </trkpt>
      <trkpt lat="45.90053" lon="4.38678">
        <ele>610.8</ele>
        <time>2025-09-09T13:01:18Z</time>
      </trkpt>
      <trkpt lat="45.90051" lon="4.38681">
        <ele>610.8</ele>
        <time>2025-09-09T13:01:19Z</time>
      </trkpt>
      <trkpt lat="45.90048" lon="4.38683">
        <ele>610.4</ele>
        <time>2025-09-09T13:01:20Z</time>
      </trkpt>
      <trkpt lat="45.90046" lon="4.38686">
        <ele>609.2</ele>
        <time>2025-09-09T13:01:21Z</time>
      </trkpt>
      <trkpt lat="45.90044" lon="4.38688">
        <ele>608.8</ele>
        <time>2025-09-09T13:01:22Z</time>
      </trkpt>
      <trkpt lat="45.90041" lon="4.3869">
        <ele>608.4</ele>
        <time>2025-09-09T13:01:23Z</time>
      </trkpt>
      <trkpt lat="45.90038" lon="4.38693">
        <ele>608.4</ele>
        <time>2025-09-09T13:01:24Z</time>
      </trkpt>
      <trkpt lat="45.90036" lon="4.38696">
        <ele>608.4</ele>
        <time>2025-09-09T13:01:25Z</time>
      </trkpt>
      <trkpt lat="45.90033" lon="4.38698">
        <ele>608.4</ele>
        <time>2025-09-09T13:01:26Z</time>
      </trkpt>
      <trkpt lat="45.90031" lon="4.387">
        <ele>607.8</ele>
        <time>2025-09-09T13:01:27Z</time>
      </trkpt>
      <trkpt lat="45.90028" lon="4.38703">
        <ele>607.4</ele>
        <time>2025-09-09T13:01:28Z</time>
      </trkpt>
      <trkpt lat="45.90025" lon="4.38705">
        <ele>608</ele>
        <time>2025-09-09T13:01:29Z</time>
      </trkpt>
      <trkpt lat="45.90023" lon="4.38708">
        <ele>607.4</ele>
        <time>2025-09-09T13:01:30Z</time>
      </trkpt>
      <trkpt lat="45.90021" lon="4.38709">
        <ele>607</ele>
        <time>2025-09-09T13:01:31Z</time>
      </trkpt>
      <trkpt lat="45.90018" lon="4.38711">
        <ele>607</ele>
        <time>2025-09-09T13:01:32Z</time>
      </trkpt>
      <trkpt lat="45.90017" lon="4.38712">
        <ele>606.8</ele>
        <time>2025-09-09T13:01:33Z</time>
      </trkpt>
      <trkpt lat="45.90015" lon="4.38713">
        <ele>606.8</ele>
        <time>2025-09-09T13:01:34Z</time>
      </trkpt>
      <trkpt lat="45.90012" lon="4.38715">
        <ele>606.4</ele>
        <time>2025-09-09T13:01:35Z</time>
      </trkpt>
      <trkpt lat="45.9001" lon="4.38716">
        <ele>606</ele>
        <time>2025-09-09T13:01:36Z</time>
      </trkpt>
      <trkpt lat="45.90008" lon="4.38719">
        <ele>605.8</ele>
        <time>2025-09-09T13:01:37Z</time>
      </trkpt>
      <trkpt lat="45.90006" lon="4.38722">
        <ele>605.2</ele>
        <time>2025-09-09T13:01:38Z</time>
      </trkpt>
      <trkpt lat="45.90004" lon="4.38725">
        <ele>604.6</ele>
        <time>2025-09-09T13:01:39Z</time>
      </trkpt>
      <trkpt lat="45.90002" lon="4.38728">
        <ele>604.6</ele>
        <time>2025-09-09T13:01:40Z</time>
      </trkpt>
      <trkpt lat="45.89999" lon="4.38732">
        <ele>604</ele>
        <time>2025-09-09T13:01:41Z</time>
      </trkpt>
      <trkpt lat="45.89996" lon="4.38735">
        <ele>603.6</ele>
        <time>2025-09-09T13:01:42Z</time>
      </trkpt>
      <trkpt lat="45.89994" lon="4.38739">
        <ele>603.2</ele>
        <time>2025-09-09T13:01:43Z</time>
      </trkpt>
      <trkpt lat="45.89991" lon="4.38742">
        <ele>603.2</ele>
        <time>2025-09-09T13:01:44Z</time>
      </trkpt>
      <trkpt lat="45.89988" lon="4.38745">
        <ele>602.6</ele>
        <time>2025-09-09T13:01:45Z</time>
      </trkpt>
      <trkpt lat="45.89986" lon="4.38748">
        <ele>602.6</ele>
        <time>2025-09-09T13:01:46Z</time>
      </trkpt>
      <trkpt lat="45.89983" lon="4.38752">
        <ele>602.6</ele>
        <time>2025-09-09T13:01:47Z</time>
      </trkpt>
      <trkpt lat="45.89981" lon="4.38755">
        <ele>603.4</ele>
        <time>2025-09-09T13:01:48Z</time>
      </trkpt>
      <trkpt lat="45.8998" lon="4.38758">
        <ele>602.8</ele>
        <time>2025-09-09T13:01:49Z</time>
      </trkpt>
      <trkpt lat="45.89977" lon="4.38763">
        <ele>602</ele>
        <time>2025-09-09T13:01:50Z</time>
      </trkpt>
      <trkpt lat="45.89976" lon="4.38766">
        <ele>602</ele>
        <time>2025-09-09T13:01:51Z</time>
      </trkpt>
      <trkpt lat="45.89974" lon="4.38769">
        <ele>601.4</ele>
        <time>2025-09-09T13:01:52Z</time>
      </trkpt>
      <trkpt lat="45.89972" lon="4.38772">
        <ele>601</ele>
        <time>2025-09-09T13:01:53Z</time>
      </trkpt>
      <trkpt lat="45.89971" lon="4.38774">
        <ele>600.8</ele>
        <time>2025-09-09T13:01:54Z</time>
      </trkpt>
      <trkpt lat="45.89969" lon="4.38776">
        <ele>600.4</ele>
        <time>2025-09-09T13:01:55Z</time>
      </trkpt>
      <trkpt lat="45.89967" lon="4.38779">
        <ele>600</ele>
        <time>2025-09-09T13:01:56Z</time>
      </trkpt>
      <trkpt lat="45.89965" lon="4.38781">
        <ele>600</ele>
        <time>2025-09-09T13:01:57Z</time>
      </trkpt>
      <trkpt lat="45.89965" lon="4.38784">
        <ele>600</ele>
        <time>2025-09-09T13:01:58Z</time>
      </trkpt>
      <trkpt lat="45.89964" lon="4.38786">
        <ele>599.6</ele>
        <time>2025-09-09T13:01:59Z</time>
      </trkpt>
      <trkpt lat="45.89965" lon="4.38789">
        <ele>599.2</ele>
        <time>2025-09-09T13:02:00Z</time>
      </trkpt>
      <trkpt lat="45.89965" lon="4.38792">
        <ele>599.2</ele>
        <time>2025-09-09T13:02:01Z</time>
      </trkpt>
      <trkpt lat="45.89965" lon="4.38795">
        <ele>598.8</ele>
        <time>2025-09-09T13:02:02Z</time>
      </trkpt>
      <trkpt lat="45.89965" lon="4.38798">
        <ele>598.8</ele>
        <time>2025-09-09T13:02:03Z</time>
      </trkpt>
      <trkpt lat="45.89965" lon="4.38801">
        <ele>598.8</ele>
        <time>2025-09-09T13:02:04Z</time>
      </trkpt>
      <trkpt lat="45.89966" lon="4.38804">
        <ele>598.8</ele>
        <time>2025-09-09T13:02:05Z</time>
      </trkpt>
      <trkpt lat="45.89966" lon="4.38808">
        <ele>598.8</ele>
        <time>2025-09-09T13:02:06Z</time>
      </trkpt>
      <trkpt lat="45.89966" lon="4.3881">
        <ele>598.4</ele>
        <time>2025-09-09T13:02:07Z</time>
      </trkpt>
      <trkpt lat="45.89966" lon="4.38813">
        <ele>597.6</ele>
        <time>2025-09-09T13:02:08Z</time>
      </trkpt>
      <trkpt lat="45.89967" lon="4.38816">
        <ele>597.2</ele>
        <time>2025-09-09T13:02:09Z</time>
      </trkpt>
      <trkpt lat="45.89967" lon="4.3882">
        <ele>596.6</ele>
        <time>2025-09-09T13:02:10Z</time>
      </trkpt>
      <trkpt lat="45.89967" lon="4.38824">
        <ele>596.4</ele>
        <time>2025-09-09T13:02:11Z</time>
      </trkpt>
      <trkpt lat="45.89967" lon="4.38828">
        <ele>596.4</ele>
        <time>2025-09-09T13:02:12Z</time>
      </trkpt>
      <trkpt lat="45.89967" lon="4.38831">
        <ele>596</ele>
        <time>2025-09-09T13:02:13Z</time>
      </trkpt>
      <trkpt lat="45.89967" lon="4.38834">
        <ele>595.8</ele>
        <time>2025-09-09T13:02:14Z</time>
      </trkpt>
      <trkpt lat="45.89967" lon="4.38837">
        <ele>595.4</ele>
        <time>2025-09-09T13:02:15Z</time>
      </trkpt>
      <trkpt lat="45.89967" lon="4.3884">
        <ele>595.2</ele>
        <time>2025-09-09T13:02:16Z</time>
      </trkpt>
      <trkpt lat="45.89967" lon="4.38844">
        <ele>594.6</ele>
        <time>2025-09-09T13:02:17Z</time>
      </trkpt>
      <trkpt lat="45.89967" lon="4.38847">
        <ele>595</ele>
        <time>2025-09-09T13:02:18Z</time>
      </trkpt>
      <trkpt lat="45.89967" lon="4.38851">
        <ele>595</ele>
        <time>2025-09-09T13:02:19Z</time>
      </trkpt>
      <trkpt lat="45.89967" lon="4.38854">
        <ele>594.2</ele>
        <time>2025-09-09T13:02:20Z</time>
      </trkpt>
      <trkpt lat="45.89967" lon="4.38858">
        <ele>593.8</ele>
        <time>2025-09-09T13:02:21Z</time>
      </trkpt>
      <trkpt lat="45.89966" lon="4.38863">
        <ele>593.8</ele>
        <time>2025-09-09T13:02:22Z</time>
      </trkpt>
      <trkpt lat="45.89966" lon="4.38866">
        <ele>593.6</ele>
        <time>2025-09-09T13:02:23Z</time>
      </trkpt>
      <trkpt lat="45.89967" lon="4.3887">
        <ele>592.8</ele>
        <time>2025-09-09T13:02:24Z</time>
      </trkpt>
      <trkpt lat="45.89967" lon="4.38875">
        <ele>592.4</ele>
        <time>2025-09-09T13:02:25Z</time>
      </trkpt>
      <trkpt lat="45.89967" lon="4.38879">
        <ele>592.2</ele>
        <time>2025-09-09T13:02:26Z</time>
      </trkpt>
      <trkpt lat="45.89968" lon="4.38883">
        <ele>592.2</ele>
        <time>2025-09-09T13:02:27Z</time>
      </trkpt>
      <trkpt lat="45.89968" lon="4.38887">
        <ele>591.8</ele>
        <time>2025-09-09T13:02:28Z</time>
      </trkpt>
      <trkpt lat="45.89968" lon="4.38891">
        <ele>591.8</ele>
        <time>2025-09-09T13:02:29Z</time>
      </trkpt>
      <trkpt lat="45.89967" lon="4.38894">
        <ele>591</ele>
        <time>2025-09-09T13:02:30Z</time>
      </trkpt>
      <trkpt lat="45.89966" lon="4.38897">
        <ele>591</ele>
        <time>2025-09-09T13:02:31Z</time>
      </trkpt>
      <trkpt lat="45.89966" lon="4.389">
        <ele>591.2</ele>
        <time>2025-09-09T13:02:32Z</time>
      </trkpt>
      <trkpt lat="45.89966" lon="4.38904">
        <ele>591</ele>
        <time>2025-09-09T13:02:33Z</time>
      </trkpt>
      <trkpt lat="45.89965" lon="4.38909">
        <ele>590.4</ele>
        <time>2025-09-09T13:02:34Z</time>
      </trkpt>
      <trkpt lat="45.89965" lon="4.38913">
        <ele>590.4</ele>
        <time>2025-09-09T13:02:35Z</time>
      </trkpt>
      <trkpt lat="45.89965" lon="4.38916">
        <ele>589.8</ele>
        <time>2025-09-09T13:02:36Z</time>
      </trkpt>
      <trkpt lat="45.89965" lon="4.38919">
        <ele>589.8</ele>
        <time>2025-09-09T13:02:37Z</time>
      </trkpt>
      <trkpt lat="45.89965" lon="4.38923">
        <ele>589.4</ele>
        <time>2025-09-09T13:02:38Z</time>
      </trkpt>
      <trkpt lat="45.89965" lon="4.38927">
        <ele>589.4</ele>
        <time>2025-09-09T13:02:39Z</time>
      </trkpt>
      <trkpt lat="45.89965" lon="4.3893">
        <ele>589</ele>
        <time>2025-09-09T13:02:40Z</time>
      </trkpt>
      <trkpt lat="45.89965" lon="4.38933">
        <ele>588.8</ele>
        <time>2025-09-09T13:02:41Z</time>
      </trkpt>
      <trkpt lat="45.89965" lon="4.38936">
        <ele>588.4</ele>
        <time>2025-09-09T13:02:42Z</time>
      </trkpt>
      <trkpt lat="45.89964" lon="4.3894">
        <ele>588.2</ele>
        <time>2025-09-09T13:02:43Z</time>
      </trkpt>
      <trkpt lat="45.89964" lon="4.38943">
        <ele>587.8</ele>
        <time>2025-09-09T13:02:44Z</time>
      </trkpt>
      <trkpt lat="45.89963" lon="4.38947">
        <ele>587.8</ele>
        <time>2025-09-09T13:02:45Z</time>
      </trkpt>
      <trkpt lat="45.89962" lon="4.38949">
        <ele>586.8</ele>
        <time>2025-09-09T13:02:46Z</time>
      </trkpt>
      <trkpt lat="45.89961" lon="4.38952">
        <ele>586.6</ele>
        <time>2025-09-09T13:02:47Z</time>
      </trkpt>
      <trkpt lat="45.8996" lon="4.38954">
        <ele>586.6</ele>
        <time>2025-09-09T13:02:48Z</time>
      </trkpt>
      <trkpt lat="45.8996" lon="4.38957">
        <ele>586.6</ele>
        <time>2025-09-09T13:02:49Z</time>
      </trkpt>
      <trkpt lat="45.89961" lon="4.3896">
        <ele>586.6</ele>
        <time>2025-09-09T13:02:50Z</time>
      </trkpt>
      <trkpt lat="45.89961" lon="4.38962">
        <ele>586.8</ele>
        <time>2025-09-09T13:02:51Z</time>
      </trkpt>
      <trkpt lat="45.89961" lon="4.38962">
        <ele>586.4</ele>
        <time>2025-09-09T13:02:52Z</time>
      </trkpt>
      <trkpt lat="45.89962" lon="4.38966">
        <ele>586</ele>
        <time>2025-09-09T13:02:53Z</time>
      </trkpt>
      <trkpt lat="45.89962" lon="4.38969">
        <ele>586</ele>
        <time>2025-09-09T13:02:54Z</time>
      </trkpt>
      <trkpt lat="45.89961" lon="4.38972">
        <ele>585.6</ele>
        <time>2025-09-09T13:02:55Z</time>
      </trkpt>
      <trkpt lat="45.8996" lon="4.38975">
        <ele>585.6</ele>
        <time>2025-09-09T13:02:56Z</time>
      </trkpt>
      <trkpt lat="45.89959" lon="4.38977">
        <ele>585.2</ele>
        <time>2025-09-09T13:02:57Z</time>
      </trkpt>
      <trkpt lat="45.89957" lon="4.3898">
        <ele>585.2</ele>
        <time>2025-09-09T13:02:58Z</time>
      </trkpt>
      <trkpt lat="45.89955" lon="4.38983">
        <ele>584.8</ele>
        <time>2025-09-09T13:02:59Z</time>
      </trkpt>
      <trkpt lat="45.89954" lon="4.38986">
        <ele>584.4</ele>
        <time>2025-09-09T13:03:00Z</time>
      </trkpt>
      <trkpt lat="45.89953" lon="4.38989">
        <ele>583.6</ele>
        <time>2025-09-09T13:03:01Z</time>
      </trkpt>
      <trkpt lat="45.89952" lon="4.38993">
        <ele>583.4</ele>
        <time>2025-09-09T13:03:02Z</time>
      </trkpt>
      <trkpt lat="45.89952" lon="4.38996">
        <ele>583.6</ele>
        <time>2025-09-09T13:03:03Z</time>
      </trkpt>
      <trkpt lat="45.89952" lon="4.38999">
        <ele>583</ele>
        <time>2025-09-09T13:03:04Z</time>
      </trkpt>
      <trkpt lat="45.89951" lon="4.39003">
        <ele>583</ele>
        <time>2025-09-09T13:03:05Z</time>
      </trkpt>
      <trkpt lat="45.8995" lon="4.39006">
        <ele>582.8</ele>
        <time>2025-09-09T13:03:06Z</time>
      </trkpt>
      <trkpt lat="45.8995" lon="4.39009">
        <ele>582.8</ele>
        <time>2025-09-09T13:03:07Z</time>
      </trkpt>
      <trkpt lat="45.89949" lon="4.39013">
        <ele>582.2</ele>
        <time>2025-09-09T13:03:08Z</time>
      </trkpt>
      <trkpt lat="45.89948" lon="4.39016">
        <ele>581.8</ele>
        <time>2025-09-09T13:03:09Z</time>
      </trkpt>
      <trkpt lat="45.89947" lon="4.3902">
        <ele>581.2</ele>
        <time>2025-09-09T13:03:10Z</time>
      </trkpt>
      <trkpt lat="45.89946" lon="4.39023">
        <ele>581.2</ele>
        <time>2025-09-09T13:03:11Z</time>
      </trkpt>
      <trkpt lat="45.89946" lon="4.39026">
        <ele>581.2</ele>
        <time>2025-09-09T13:03:12Z</time>
      </trkpt>
      <trkpt lat="45.89944" lon="4.3903">
        <ele>581</ele>
        <time>2025-09-09T13:03:13Z</time>
      </trkpt>
      <trkpt lat="45.89943" lon="4.39033">
        <ele>580.8</ele>
        <time>2025-09-09T13:03:14Z</time>
      </trkpt>
      <trkpt lat="45.89942" lon="4.39035">
        <ele>580.8</ele>
        <time>2025-09-09T13:03:15Z</time>
      </trkpt>
      <trkpt lat="45.89941" lon="4.39037">
        <ele>580.2</ele>
        <time>2025-09-09T13:03:16Z</time>
      </trkpt>
      <trkpt lat="45.8994" lon="4.3904">
        <ele>580.2</ele>
        <time>2025-09-09T13:03:17Z</time>
      </trkpt>
      <trkpt lat="45.8994" lon="4.39042">
        <ele>579.6</ele>
        <time>2025-09-09T13:03:18Z</time>
      </trkpt>
      <trkpt lat="45.8994" lon="4.39044">
        <ele>579.6</ele>
        <time>2025-09-09T13:03:19Z</time>
      </trkpt>
      <trkpt lat="45.89941" lon="4.39047">
        <ele>579.4</ele>
        <time>2025-09-09T13:03:20Z</time>
      </trkpt>
      <trkpt lat="45.89941" lon="4.3905">
        <ele>579.4</ele>
        <time>2025-09-09T13:03:21Z</time>
      </trkpt>
      <trkpt lat="45.8994" lon="4.39052">
        <ele>579.2</ele>
        <time>2025-09-09T13:03:22Z</time>
      </trkpt>
      <trkpt lat="45.8994" lon="4.39054">
        <ele>579.2</ele>
        <time>2025-09-09T13:03:23Z</time>
      </trkpt>
      <trkpt lat="45.89941" lon="4.39056">
        <ele>578.8</ele>
        <time>2025-09-09T13:03:24Z</time>
      </trkpt>
      <trkpt lat="45.89941" lon="4.39058">
        <ele>578.4</ele>
        <time>2025-09-09T13:03:25Z</time>
      </trkpt>
      <trkpt lat="45.89942" lon="4.3906">
        <ele>578</ele>
        <time>2025-09-09T13:03:26Z</time>
      </trkpt>
      <trkpt lat="45.89943" lon="4.39062">
        <ele>577.8</ele>
        <time>2025-09-09T13:03:27Z</time>
      </trkpt>
      <trkpt lat="45.89943" lon="4.39064">
        <ele>577.8</ele>
        <time>2025-09-09T13:03:28Z</time>
      </trkpt>
      <trkpt lat="45.89943" lon="4.39065">
        <ele>577.4</ele>
        <time>2025-09-09T13:03:29Z</time>
      </trkpt>
      <trkpt lat="45.89942" lon="4.39066">
        <ele>577.4</ele>
        <time>2025-09-09T13:03:30Z</time>
      </trkpt>
      <trkpt lat="45.89942" lon="4.39068">
        <ele>577.4</ele>
        <time>2025-09-09T13:03:31Z</time>
      </trkpt>
      <trkpt lat="45.89941" lon="4.39069">
        <ele>576.8</ele>
        <time>2025-09-09T13:03:32Z</time>
      </trkpt>
      <trkpt lat="45.89941" lon="4.39071">
        <ele>576.8</ele>
        <time>2025-09-09T13:03:33Z</time>
      </trkpt>
      <trkpt lat="45.89939" lon="4.39074">
        <ele>576.8</ele>
        <time>2025-09-09T13:03:34Z</time>
      </trkpt>
      <trkpt lat="45.89938" lon="4.39077">
        <ele>576.8</ele>
        <time>2025-09-09T13:03:35Z</time>
      </trkpt>
      <trkpt lat="45.89938" lon="4.3908">
        <ele>576.6</ele>
        <time>2025-09-09T13:03:36Z</time>
      </trkpt>
      <trkpt lat="45.89938" lon="4.39083">
        <ele>576.6</ele>
        <time>2025-09-09T13:03:37Z</time>
      </trkpt>
      <trkpt lat="45.89937" lon="4.39086">
        <ele>576</ele>
        <time>2025-09-09T13:03:38Z</time>
      </trkpt>
      <trkpt lat="45.89937" lon="4.39089">
        <ele>576</ele>
        <time>2025-09-09T13:03:39Z</time>
      </trkpt>
      <trkpt lat="45.89937" lon="4.39092">
        <ele>576</ele>
        <time>2025-09-09T13:03:40Z</time>
      </trkpt>
      <trkpt lat="45.89936" lon="4.39096">
        <ele>576</ele>
        <time>2025-09-09T13:03:41Z</time>
      </trkpt>
      <trkpt lat="45.89935" lon="4.391">
        <ele>575.6</ele>
        <time>2025-09-09T13:03:42Z</time>
      </trkpt>
      <trkpt lat="45.89934" lon="4.39103">
        <ele>575.6</ele>
        <time>2025-09-09T13:03:43Z</time>
      </trkpt>
      <trkpt lat="45.89933" lon="4.39106">
        <ele>575.6</ele>
        <time>2025-09-09T13:03:44Z</time>
      </trkpt>
      <trkpt lat="45.89932" lon="4.39109">
        <ele>575.2</ele>
        <time>2025-09-09T13:03:45Z</time>
      </trkpt>
      <trkpt lat="45.89931" lon="4.39112">
        <ele>574.8</ele>
        <time>2025-09-09T13:03:46Z</time>
      </trkpt>
      <trkpt lat="45.89931" lon="4.39115">
        <ele>574.8</ele>
        <time>2025-09-09T13:03:47Z</time>
      </trkpt>
      <trkpt lat="45.89929" lon="4.39118">
        <ele>574</ele>
        <time>2025-09-09T13:03:48Z</time>
      </trkpt>
      <trkpt lat="45.89928" lon="4.39122">
        <ele>573.4</ele>
        <time>2025-09-09T13:03:49Z</time>
      </trkpt>
      <trkpt lat="45.89927" lon="4.39125">
        <ele>573.4</ele>
        <time>2025-09-09T13:03:50Z</time>
      </trkpt>
      <trkpt lat="45.89926" lon="4.39129">
        <ele>572.4</ele>
        <time>2025-09-09T13:03:51Z</time>
      </trkpt>
      <trkpt lat="45.89925" lon="4.39132">
        <ele>573</ele>
        <time>2025-09-09T13:03:52Z</time>
      </trkpt>
      <trkpt lat="45.89923" lon="4.39135">
        <ele>572.4</ele>
        <time>2025-09-09T13:03:53Z</time>
      </trkpt>
      <trkpt lat="45.89921" lon="4.39138">
        <ele>572.2</ele>
        <time>2025-09-09T13:03:54Z</time>
      </trkpt>
      <trkpt lat="45.89919" lon="4.39141">
        <ele>571.8</ele>
        <time>2025-09-09T13:03:55Z</time>
      </trkpt>
      <trkpt lat="45.89917" lon="4.39143">
        <ele>571.4</ele>
        <time>2025-09-09T13:03:56Z</time>
      </trkpt>
      <trkpt lat="45.89916" lon="4.39145">
        <ele>571</ele>
        <time>2025-09-09T13:03:57Z</time>
      </trkpt>
      <trkpt lat="45.89915" lon="4.39147">
        <ele>571</ele>
        <time>2025-09-09T13:03:58Z</time>
      </trkpt>
      <trkpt lat="45.89914" lon="4.39149">
        <ele>570.4</ele>
        <time>2025-09-09T13:03:59Z</time>
      </trkpt>
      <trkpt lat="45.89913" lon="4.39152">
        <ele>570.4</ele>
        <time>2025-09-09T13:04:00Z</time>
      </trkpt>
      <trkpt lat="45.89912" lon="4.39156">
        <ele>570</ele>
        <time>2025-09-09T13:04:01Z</time>
      </trkpt>
      <trkpt lat="45.89911" lon="4.3916">
        <ele>569.8</ele>
        <time>2025-09-09T13:04:02Z</time>
      </trkpt>
      <trkpt lat="45.89911" lon="4.39163">
        <ele>569.2</ele>
        <time>2025-09-09T13:04:03Z</time>
      </trkpt>
      <trkpt lat="45.8991" lon="4.39166">
        <ele>569.2</ele>
        <time>2025-09-09T13:04:04Z</time>
      </trkpt>
      <trkpt lat="45.8991" lon="4.39168">
        <ele>569</ele>
        <time>2025-09-09T13:04:05Z</time>
      </trkpt>
      <trkpt lat="45.89909" lon="4.3917">
        <ele>569</ele>
        <time>2025-09-09T13:04:06Z</time>
      </trkpt>
      <trkpt lat="45.89909" lon="4.39173">
        <ele>568.6</ele>
        <time>2025-09-09T13:04:07Z</time>
      </trkpt>
      <trkpt lat="45.89908" lon="4.39175">
        <ele>568.6</ele>
        <time>2025-09-09T13:04:08Z</time>
      </trkpt>
      <trkpt lat="45.89907" lon="4.39178">
        <ele>568.2</ele>
        <time>2025-09-09T13:04:09Z</time>
      </trkpt>
      <trkpt lat="45.89905" lon="4.39181">
        <ele>568.6</ele>
        <time>2025-09-09T13:04:10Z</time>
      </trkpt>
      <trkpt lat="45.89903" lon="4.39184">
        <ele>568.2</ele>
        <time>2025-09-09T13:04:11Z</time>
      </trkpt>
      <trkpt lat="45.89902" lon="4.39187">
        <ele>568</ele>
        <time>2025-09-09T13:04:12Z</time>
      </trkpt>
      <trkpt lat="45.89901" lon="4.3919">
        <ele>567.4</ele>
        <time>2025-09-09T13:04:13Z</time>
      </trkpt>
      <trkpt lat="45.89899" lon="4.39194">
        <ele>567.4</ele>
        <time>2025-09-09T13:04:14Z</time>
      </trkpt>
      <trkpt lat="45.89897" lon="4.39197">
        <ele>567</ele>
        <time>2025-09-09T13:04:15Z</time>
      </trkpt>
      <trkpt lat="45.89895" lon="4.39201">
        <ele>567</ele>
        <time>2025-09-09T13:04:16Z</time>
      </trkpt>
      <trkpt lat="45.89892" lon="4.39204">
        <ele>566.4</ele>
        <time>2025-09-09T13:04:17Z</time>
      </trkpt>
      <trkpt lat="45.8989" lon="4.39208">
        <ele>566.4</ele>
        <time>2025-09-09T13:04:18Z</time>
      </trkpt>
      <trkpt lat="45.89888" lon="4.39211">
        <ele>566</ele>
        <time>2025-09-09T13:04:19Z</time>
      </trkpt>
      <trkpt lat="45.89886" lon="4.39213">
        <ele>565.6</ele>
        <time>2025-09-09T13:04:20Z</time>
      </trkpt>
      <trkpt lat="45.89884" lon="4.39215">
        <ele>565.6</ele>
        <time>2025-09-09T13:04:21Z</time>
      </trkpt>
      <trkpt lat="45.89882" lon="4.39217">
        <ele>565.6</ele>
        <time>2025-09-09T13:04:22Z</time>
      </trkpt>
      <trkpt lat="45.89879" lon="4.39219">
        <ele>565</ele>
        <time>2025-09-09T13:04:23Z</time>
      </trkpt>
      <trkpt lat="45.89876" lon="4.39222">
        <ele>564.4</ele>
        <time>2025-09-09T13:04:24Z</time>
      </trkpt>
      <trkpt lat="45.89874" lon="4.39225">
        <ele>564</ele>
        <time>2025-09-09T13:04:25Z</time>
      </trkpt>
      <trkpt lat="45.89872" lon="4.39227">
        <ele>564</ele>
        <time>2025-09-09T13:04:26Z</time>
      </trkpt>
      <trkpt lat="45.8987" lon="4.3923">
        <ele>564</ele>
        <time>2025-09-09T13:04:27Z</time>
      </trkpt>
      <trkpt lat="45.89868" lon="4.39233">
        <ele>563.4</ele>
        <time>2025-09-09T13:04:28Z</time>
      </trkpt>
      <trkpt lat="45.89866" lon="4.39236">
        <ele>562.8</ele>
        <time>2025-09-09T13:04:29Z</time>
      </trkpt>
      <trkpt lat="45.89864" lon="4.39239">
        <ele>562.4</ele>
        <time>2025-09-09T13:04:30Z</time>
      </trkpt>
      <trkpt lat="45.89863" lon="4.39243">
        <ele>561.8</ele>
        <time>2025-09-09T13:04:31Z</time>
      </trkpt>
      <trkpt lat="45.89861" lon="4.39246">
        <ele>561.8</ele>
        <time>2025-09-09T13:04:32Z</time>
      </trkpt>
      <trkpt lat="45.89859" lon="4.39249">
        <ele>561.2</ele>
        <time>2025-09-09T13:04:33Z</time>
      </trkpt>
      <trkpt lat="45.89857" lon="4.39251">
        <ele>560.8</ele>
        <time>2025-09-09T13:04:34Z</time>
      </trkpt>
      <trkpt lat="45.89855" lon="4.39254">
        <ele>560.6</ele>
        <time>2025-09-09T13:04:35Z</time>
      </trkpt>
      <trkpt lat="45.89854" lon="4.39256">
        <ele>560.2</ele>
        <time>2025-09-09T13:04:36Z</time>
      </trkpt>
      <trkpt lat="45.89853" lon="4.39257">
        <ele>560.2</ele>
        <time>2025-09-09T13:04:37Z</time>
      </trkpt>
      <trkpt lat="45.89851" lon="4.39259">
        <ele>559.8</ele>
        <time>2025-09-09T13:04:38Z</time>
      </trkpt>
      <trkpt lat="45.89849" lon="4.39262">
        <ele>560</ele>
        <time>2025-09-09T13:04:39Z</time>
      </trkpt>
      <trkpt lat="45.89847" lon="4.39265">
        <ele>559.6</ele>
        <time>2025-09-09T13:04:40Z</time>
      </trkpt>
      <trkpt lat="45.89845" lon="4.39267">
        <ele>559</ele>
        <time>2025-09-09T13:04:41Z</time>
      </trkpt>
      <trkpt lat="45.89844" lon="4.39269">
        <ele>559</ele>
        <time>2025-09-09T13:04:42Z</time>
      </trkpt>
      <trkpt lat="45.89842" lon="4.39272">
        <ele>558.6</ele>
        <time>2025-09-09T13:04:43Z</time>
      </trkpt>
      <trkpt lat="45.8984" lon="4.39274">
        <ele>558</ele>
        <time>2025-09-09T13:04:44Z</time>
      </trkpt>
      <trkpt lat="45.89838" lon="4.39277">
        <ele>557.6</ele>
        <time>2025-09-09T13:04:45Z</time>
      </trkpt>
      <trkpt lat="45.89836" lon="4.39279">
        <ele>557.2</ele>
        <time>2025-09-09T13:04:46Z</time>
      </trkpt>
      <trkpt lat="45.89834" lon="4.3928">
        <ele>557</ele>
        <time>2025-09-09T13:04:47Z</time>
      </trkpt>
      <trkpt lat="45.89833" lon="4.39282">
        <ele>556.6</ele>
        <time>2025-09-09T13:04:48Z</time>
      </trkpt>
      <trkpt lat="45.89831" lon="4.39285">
        <ele>556.2</ele>
        <time>2025-09-09T13:04:49Z</time>
      </trkpt>
      <trkpt lat="45.8983" lon="4.39286">
        <ele>556.2</ele>
        <time>2025-09-09T13:04:50Z</time>
      </trkpt>
      <trkpt lat="45.89828" lon="4.39288">
        <ele>555.4</ele>
        <time>2025-09-09T13:04:51Z</time>
      </trkpt>
      <trkpt lat="45.89826" lon="4.39291">
        <ele>555</ele>
        <time>2025-09-09T13:04:52Z</time>
      </trkpt>
      <trkpt lat="45.89824" lon="4.39294">
        <ele>555</ele>
        <time>2025-09-09T13:04:53Z</time>
      </trkpt>
      <trkpt lat="45.89822" lon="4.39296">
        <ele>554.6</ele>
        <time>2025-09-09T13:04:54Z</time>
      </trkpt>
      <trkpt lat="45.8982" lon="4.39298">
        <ele>554.4</ele>
        <time>2025-09-09T13:04:55Z</time>
      </trkpt>
      <trkpt lat="45.89818" lon="4.39302">
        <ele>554</ele>
        <time>2025-09-09T13:04:56Z</time>
      </trkpt>
      <trkpt lat="45.89816" lon="4.39305">
        <ele>554</ele>
        <time>2025-09-09T13:04:57Z</time>
      </trkpt>
      <trkpt lat="45.89813" lon="4.39309">
        <ele>553.6</ele>
        <time>2025-09-09T13:04:58Z</time>
      </trkpt>
      <trkpt lat="45.89811" lon="4.39312">
        <ele>553.4</ele>
        <time>2025-09-09T13:04:59Z</time>
      </trkpt>
      <trkpt lat="45.8981" lon="4.39314">
        <ele>552.8</ele>
        <time>2025-09-09T13:05:00Z</time>
      </trkpt>
      <trkpt lat="45.89807" lon="4.39317">
        <ele>552.8</ele>
        <time>2025-09-09T13:05:01Z</time>
      </trkpt>
      <trkpt lat="45.89805" lon="4.3932">
        <ele>552.2</ele>
        <time>2025-09-09T13:05:02Z</time>
      </trkpt>
      <trkpt lat="45.89802" lon="4.39323">
        <ele>552</ele>
        <time>2025-09-09T13:05:03Z</time>
      </trkpt>
      <trkpt lat="45.898" lon="4.39326">
        <ele>551.4</ele>
        <time>2025-09-09T13:05:04Z</time>
      </trkpt>
      <trkpt lat="45.89797" lon="4.39328">
        <ele>551.4</ele>
        <time>2025-09-09T13:05:05Z</time>
      </trkpt>
      <trkpt lat="45.89795" lon="4.39331">
        <ele>550.8</ele>
        <time>2025-09-09T13:05:06Z</time>
      </trkpt>
      <trkpt lat="45.89793" lon="4.39332">
        <ele>550.8</ele>
        <time>2025-09-09T13:05:07Z</time>
      </trkpt>
      <trkpt lat="45.89793" lon="4.39333">
        <ele>550</ele>
        <time>2025-09-09T13:05:08Z</time>
      </trkpt>
      <trkpt lat="45.8979" lon="4.39334">
        <ele>549.6</ele>
        <time>2025-09-09T13:05:09Z</time>
      </trkpt>
      <trkpt lat="45.89787" lon="4.39336">
        <ele>549.2</ele>
        <time>2025-09-09T13:05:10Z</time>
      </trkpt>
      <trkpt lat="45.89785" lon="4.39337">
        <ele>549.4</ele>
        <time>2025-09-09T13:05:11Z</time>
      </trkpt>
      <trkpt lat="45.89783" lon="4.39339">
        <ele>548.8</ele>
        <time>2025-09-09T13:05:12Z</time>
      </trkpt>
      <trkpt lat="45.89781" lon="4.39342">
        <ele>548.8</ele>
        <time>2025-09-09T13:05:13Z</time>
      </trkpt>
      <trkpt lat="45.89778" lon="4.39344">
        <ele>548.4</ele>
        <time>2025-09-09T13:05:14Z</time>
      </trkpt>
      <trkpt lat="45.89775" lon="4.39346">
        <ele>547.6</ele>
        <time>2025-09-09T13:05:15Z</time>
      </trkpt>
      <trkpt lat="45.89774" lon="4.39347">
        <ele>547.4</ele>
        <time>2025-09-09T13:05:16Z</time>
      </trkpt>
      <trkpt lat="45.89774" lon="4.3935">
        <ele>547.4</ele>
        <time>2025-09-09T13:05:17Z</time>
      </trkpt>
      <trkpt lat="45.89773" lon="4.39352">
        <ele>547</ele>
        <time>2025-09-09T13:05:18Z</time>
      </trkpt>
      <trkpt lat="45.89772" lon="4.39353">
        <ele>546.4</ele>
        <time>2025-09-09T13:05:19Z</time>
      </trkpt>
      <trkpt lat="45.89768" lon="4.39359">
        <ele>546.4</ele>
        <time>2025-09-09T13:05:20Z</time>
      </trkpt>
      <trkpt lat="45.89767" lon="4.39361">
        <ele>546.2</ele>
        <time>2025-09-09T13:05:21Z</time>
      </trkpt>
      <trkpt lat="45.89764" lon="4.39364">
        <ele>545.6</ele>
        <time>2025-09-09T13:05:22Z</time>
      </trkpt>
      <trkpt lat="45.89762" lon="4.39368">
        <ele>545.2</ele>
        <time>2025-09-09T13:05:23Z</time>
      </trkpt>
      <trkpt lat="45.8976" lon="4.39373">
        <ele>545</ele>
        <time>2025-09-09T13:05:24Z</time>
      </trkpt>
      <trkpt lat="45.89757" lon="4.39374">
        <ele>544.6</ele>
        <time>2025-09-09T13:05:25Z</time>
      </trkpt>
      <trkpt lat="45.89755" lon="4.39377">
        <ele>544</ele>
        <time>2025-09-09T13:05:26Z</time>
      </trkpt>
      <trkpt lat="45.89753" lon="4.39379">
        <ele>544</ele>
        <time>2025-09-09T13:05:27Z</time>
      </trkpt>
      <trkpt lat="45.89751" lon="4.39382">
        <ele>543.4</ele>
        <time>2025-09-09T13:05:28Z</time>
      </trkpt>
      <trkpt lat="45.8975" lon="4.39385">
        <ele>543</ele>
        <time>2025-09-09T13:05:29Z</time>
      </trkpt>
      <trkpt lat="45.89749" lon="4.39387">
        <ele>542.6</ele>
        <time>2025-09-09T13:05:30Z</time>
      </trkpt>
      <trkpt lat="45.89748" lon="4.3939">
        <ele>542</ele>
        <time>2025-09-09T13:05:31Z</time>
      </trkpt>
      <trkpt lat="45.89746" lon="4.39393">
        <ele>542</ele>
        <time>2025-09-09T13:05:32Z</time>
      </trkpt>
      <trkpt lat="45.89743" lon="4.39396">
        <ele>541.4</ele>
        <time>2025-09-09T13:05:33Z</time>
      </trkpt>
      <trkpt lat="45.89739" lon="4.39399">
        <ele>541.4</ele>
        <time>2025-09-09T13:05:34Z</time>
      </trkpt>
      <trkpt lat="45.89736" lon="4.39402">
        <ele>540.8</ele>
        <time>2025-09-09T13:05:35Z</time>
      </trkpt>
      <trkpt lat="45.89733" lon="4.39405">
        <ele>540.6</ele>
        <time>2025-09-09T13:05:36Z</time>
      </trkpt>
      <trkpt lat="45.8973" lon="4.39408">
        <ele>540.2</ele>
        <time>2025-09-09T13:05:37Z</time>
      </trkpt>
      <trkpt lat="45.89726" lon="4.39411">
        <ele>539.6</ele>
        <time>2025-09-09T13:05:38Z</time>
      </trkpt>
      <trkpt lat="45.89724" lon="4.39413">
        <ele>539.6</ele>
        <time>2025-09-09T13:05:39Z</time>
      </trkpt>
      <trkpt lat="45.89722" lon="4.39415">
        <ele>539</ele>
        <time>2025-09-09T13:05:40Z</time>
      </trkpt>
      <trkpt lat="45.89721" lon="4.39416">
        <ele>538.2</ele>
        <time>2025-09-09T13:05:41Z</time>
      </trkpt>
      <trkpt lat="45.89719" lon="4.3942">
        <ele>538.2</ele>
        <time>2025-09-09T13:05:42Z</time>
      </trkpt>
      <trkpt lat="45.89717" lon="4.39423">
        <ele>538</ele>
        <time>2025-09-09T13:05:43Z</time>
      </trkpt>
      <trkpt lat="45.89716" lon="4.39427">
        <ele>538</ele>
        <time>2025-09-09T13:05:44Z</time>
      </trkpt>
      <trkpt lat="45.89713" lon="4.39431">
        <ele>538</ele>
        <time>2025-09-09T13:05:45Z</time>
      </trkpt>
      <trkpt lat="45.89711" lon="4.39435">
        <ele>537.8</ele>
        <time>2025-09-09T13:05:46Z</time>
      </trkpt>
      <trkpt lat="45.89709" lon="4.39438">
        <ele>537</ele>
        <time>2025-09-09T13:05:47Z</time>
      </trkpt>
      <trkpt lat="45.89707" lon="4.39441">
        <ele>537.4</ele>
        <time>2025-09-09T13:05:48Z</time>
      </trkpt>
      <trkpt lat="45.89705" lon="4.39443">
        <ele>537.2</ele>
        <time>2025-09-09T13:05:49Z</time>
      </trkpt>
      <trkpt lat="45.89702" lon="4.39445">
        <ele>536.4</ele>
        <time>2025-09-09T13:05:50Z</time>
      </trkpt>
      <trkpt lat="45.89698" lon="4.39452">
        <ele>535.8</ele>
        <time>2025-09-09T13:05:51Z</time>
      </trkpt>
      <trkpt lat="45.89696" lon="4.39456">
        <ele>535.8</ele>
        <time>2025-09-09T13:05:52Z</time>
      </trkpt>
      <trkpt lat="45.89694" lon="4.39459">
        <ele>535</ele>
        <time>2025-09-09T13:05:53Z</time>
      </trkpt>
      <trkpt lat="45.89691" lon="4.39464">
        <ele>534.6</ele>
        <time>2025-09-09T13:05:54Z</time>
      </trkpt>
      <trkpt lat="45.89691" lon="4.3947">
        <ele>534.2</ele>
        <time>2025-09-09T13:05:55Z</time>
      </trkpt>
      <trkpt lat="45.89688" lon="4.39473">
        <ele>533.2</ele>
        <time>2025-09-09T13:05:56Z</time>
      </trkpt>
      <trkpt lat="45.89686" lon="4.39477">
        <ele>533</ele>
        <time>2025-09-09T13:05:57Z</time>
      </trkpt>
      <trkpt lat="45.8968" lon="4.39481">
        <ele>532.6</ele>
        <time>2025-09-09T13:05:58Z</time>
      </trkpt>
      <trkpt lat="45.89678" lon="4.39485">
        <ele>532.2</ele>
        <time>2025-09-09T13:05:59Z</time>
      </trkpt>
      <trkpt lat="45.89676" lon="4.39488">
        <ele>531.6</ele>
        <time>2025-09-09T13:06:00Z</time>
      </trkpt>
      <trkpt lat="45.89674" lon="4.39491">
        <ele>531.2</ele>
        <time>2025-09-09T13:06:01Z</time>
      </trkpt>
      <trkpt lat="45.89671" lon="4.39492">
        <ele>530.4</ele>
        <time>2025-09-09T13:06:02Z</time>
      </trkpt>
      <trkpt lat="45.89668" lon="4.39495">
        <ele>530</ele>
        <time>2025-09-09T13:06:03Z</time>
      </trkpt>
      <trkpt lat="45.89666" lon="4.39497">
        <ele>529.8</ele>
        <time>2025-09-09T13:06:04Z</time>
      </trkpt>
      <trkpt lat="45.89664" lon="4.395">
        <ele>529.8</ele>
        <time>2025-09-09T13:06:05Z</time>
      </trkpt>
      <trkpt lat="45.89662" lon="4.39503">
        <ele>529.8</ele>
        <time>2025-09-09T13:06:06Z</time>
      </trkpt>
      <trkpt lat="45.89658" lon="4.39507">
        <ele>528.8</ele>
        <time>2025-09-09T13:06:07Z</time>
      </trkpt>
      <trkpt lat="45.89655" lon="4.3951">
        <ele>528.8</ele>
        <time>2025-09-09T13:06:08Z</time>
      </trkpt>
      <trkpt lat="45.89653" lon="4.39513">
        <ele>528.4</ele>
        <time>2025-09-09T13:06:09Z</time>
      </trkpt>
      <trkpt lat="45.89652" lon="4.39514">
        <ele>527.8</ele>
        <time>2025-09-09T13:06:10Z</time>
      </trkpt>
      <trkpt lat="45.89651" lon="4.39516">
        <ele>527.8</ele>
        <time>2025-09-09T13:06:11Z</time>
      </trkpt>
      <trkpt lat="45.89649" lon="4.39519">
        <ele>527.8</ele>
        <time>2025-09-09T13:06:12Z</time>
      </trkpt>
      <trkpt lat="45.89647" lon="4.39521">
        <ele>527.8</ele>
        <time>2025-09-09T13:06:13Z</time>
      </trkpt>
      <trkpt lat="45.89646" lon="4.39524">
        <ele>527.8</ele>
        <time>2025-09-09T13:06:14Z</time>
      </trkpt>
      <trkpt lat="45.89646" lon="4.39528">
        <ele>526.8</ele>
        <time>2025-09-09T13:06:15Z</time>
      </trkpt>
      <trkpt lat="45.89646" lon="4.39531">
        <ele>526.6</ele>
        <time>2025-09-09T13:06:16Z</time>
      </trkpt>
      <trkpt lat="45.89644" lon="4.39534">
        <ele>526.6</ele>
        <time>2025-09-09T13:06:17Z</time>
      </trkpt>
      <trkpt lat="45.89641" lon="4.39538">
        <ele>526</ele>
        <time>2025-09-09T13:06:18Z</time>
      </trkpt>
      <trkpt lat="45.89635" lon="4.39541">
        <ele>526</ele>
        <time>2025-09-09T13:06:19Z</time>
      </trkpt>
      <trkpt lat="45.89632" lon="4.39545">
        <ele>526</ele>
        <time>2025-09-09T13:06:20Z</time>
      </trkpt>
      <trkpt lat="45.89631" lon="4.39549">
        <ele>525.4</ele>
        <time>2025-09-09T13:06:21Z</time>
      </trkpt>
      <trkpt lat="45.89629" lon="4.3955">
        <ele>525.4</ele>
        <time>2025-09-09T13:06:22Z</time>
      </trkpt>
      <trkpt lat="45.89627" lon="4.39552">
        <ele>524.8</ele>
        <time>2025-09-09T13:06:23Z</time>
      </trkpt>
      <trkpt lat="45.89626" lon="4.39554">
        <ele>524</ele>
        <time>2025-09-09T13:06:24Z</time>
      </trkpt>
      <trkpt lat="45.89625" lon="4.39554">
        <ele>523.8</ele>
        <time>2025-09-09T13:06:25Z</time>
      </trkpt>
      <trkpt lat="45.89622" lon="4.39555">
        <ele>523.8</ele>
        <time>2025-09-09T13:06:26Z</time>
      </trkpt>
      <trkpt lat="45.8962" lon="4.39557">
        <ele>523.2</ele>
        <time>2025-09-09T13:06:27Z</time>
      </trkpt>
      <trkpt lat="45.8962" lon="4.39559">
        <ele>523</ele>
        <time>2025-09-09T13:06:28Z</time>
      </trkpt>
      <trkpt lat="45.89618" lon="4.3956">
        <ele>522.2</ele>
        <time>2025-09-09T13:06:29Z</time>
      </trkpt>
      <trkpt lat="45.89616" lon="4.39563">
        <ele>522</ele>
        <time>2025-09-09T13:06:30Z</time>
      </trkpt>
      <trkpt lat="45.89615" lon="4.39566">
        <ele>522</ele>
        <time>2025-09-09T13:06:31Z</time>
      </trkpt>
      <trkpt lat="45.89614" lon="4.39569">
        <ele>521.2</ele>
        <time>2025-09-09T13:06:32Z</time>
      </trkpt>
      <trkpt lat="45.89614" lon="4.39571">
        <ele>521</ele>
        <time>2025-09-09T13:06:33Z</time>
      </trkpt>
      <trkpt lat="45.89614" lon="4.39574">
        <ele>520.6</ele>
        <time>2025-09-09T13:06:34Z</time>
      </trkpt>
      <trkpt lat="45.89613" lon="4.39578">
        <ele>520.6</ele>
        <time>2025-09-09T13:06:35Z</time>
      </trkpt>
      <trkpt lat="45.89612" lon="4.39581">
        <ele>520.2</ele>
        <time>2025-09-09T13:06:36Z</time>
      </trkpt>
      <trkpt lat="45.89611" lon="4.39585">
        <ele>520.2</ele>
        <time>2025-09-09T13:06:37Z</time>
      </trkpt>
      <trkpt lat="45.8961" lon="4.39588">
        <ele>520</ele>
        <time>2025-09-09T13:06:38Z</time>
      </trkpt>
      <trkpt lat="45.89609" lon="4.39591">
        <ele>520</ele>
        <time>2025-09-09T13:06:39Z</time>
      </trkpt>
      <trkpt lat="45.89607" lon="4.39594">
        <ele>519.6</ele>
        <time>2025-09-09T13:06:40Z</time>
      </trkpt>
      <trkpt lat="45.89605" lon="4.39597">
        <ele>519.4</ele>
        <time>2025-09-09T13:06:41Z</time>
      </trkpt>
      <trkpt lat="45.89603" lon="4.396">
        <ele>518.4</ele>
        <time>2025-09-09T13:06:42Z</time>
      </trkpt>
      <trkpt lat="45.89602" lon="4.39603">
        <ele>518</ele>
        <time>2025-09-09T13:06:43Z</time>
      </trkpt>
      <trkpt lat="45.89601" lon="4.39607">
        <ele>518</ele>
        <time>2025-09-09T13:06:44Z</time>
      </trkpt>
      <trkpt lat="45.896" lon="4.3961">
        <ele>517.8</ele>
        <time>2025-09-09T13:06:45Z</time>
      </trkpt>
      <trkpt lat="45.89599" lon="4.39614">
        <ele>517.8</ele>
        <time>2025-09-09T13:06:46Z</time>
      </trkpt>
      <trkpt lat="45.89598" lon="4.39618">
        <ele>517.2</ele>
        <time>2025-09-09T13:06:47Z</time>
      </trkpt>
      <trkpt lat="45.89598" lon="4.39622">
        <ele>516.8</ele>
        <time>2025-09-09T13:06:48Z</time>
      </trkpt>
      <trkpt lat="45.89598" lon="4.39625">
        <ele>516.6</ele>
        <time>2025-09-09T13:06:49Z</time>
      </trkpt>
      <trkpt lat="45.89599" lon="4.3963">
        <ele>516.6</ele>
        <time>2025-09-09T13:06:50Z</time>
      </trkpt>
      <trkpt lat="45.896" lon="4.39634">
        <ele>516</ele>
        <time>2025-09-09T13:06:51Z</time>
      </trkpt>
      <trkpt lat="45.89601" lon="4.39638">
        <ele>515.8</ele>
        <time>2025-09-09T13:06:52Z</time>
      </trkpt>
      <trkpt lat="45.89601" lon="4.39642">
        <ele>515.8</ele>
        <time>2025-09-09T13:06:53Z</time>
      </trkpt>
      <trkpt lat="45.896" lon="4.39646">
        <ele>515.8</ele>
        <time>2025-09-09T13:06:54Z</time>
      </trkpt>
      <trkpt lat="45.896" lon="4.3965">
        <ele>515</ele>
        <time>2025-09-09T13:06:55Z</time>
      </trkpt>
      <trkpt lat="45.89599" lon="4.39654">
        <ele>514.4</ele>
        <time>2025-09-09T13:06:56Z</time>
      </trkpt>
      <trkpt lat="45.89598" lon="4.39658">
        <ele>514.2</ele>
        <time>2025-09-09T13:06:57Z</time>
      </trkpt>
      <trkpt lat="45.89598" lon="4.39662">
        <ele>514.2</ele>
        <time>2025-09-09T13:06:58Z</time>
      </trkpt>
      <trkpt lat="45.89598" lon="4.39662">
        <ele>513.6</ele>
        <time>2025-09-09T13:06:59Z</time>
      </trkpt>
      <trkpt lat="45.89597" lon="4.39666">
        <ele>513.6</ele>
        <time>2025-09-09T13:07:00Z</time>
      </trkpt>
      <trkpt lat="45.89596" lon="4.39669">
        <ele>513.2</ele>
        <time>2025-09-09T13:07:01Z</time>
      </trkpt>
      <trkpt lat="45.89595" lon="4.39672">
        <ele>513.2</ele>
        <time>2025-09-09T13:07:02Z</time>
      </trkpt>
      <trkpt lat="45.89594" lon="4.39675">
        <ele>512.8</ele>
        <time>2025-09-09T13:07:03Z</time>
      </trkpt>
      <trkpt lat="45.89594" lon="4.3968">
        <ele>512.8</ele>
        <time>2025-09-09T13:07:04Z</time>
      </trkpt>
      <trkpt lat="45.89594" lon="4.39684">
        <ele>512.4</ele>
        <time>2025-09-09T13:07:05Z</time>
      </trkpt>
      <trkpt lat="45.89594" lon="4.39688">
        <ele>512.2</ele>
        <time>2025-09-09T13:07:06Z</time>
      </trkpt>
      <trkpt lat="45.89595" lon="4.39691">
        <ele>512.2</ele>
        <time>2025-09-09T13:07:07Z</time>
      </trkpt>
      <trkpt lat="45.89596" lon="4.39695">
        <ele>511.8</ele>
        <time>2025-09-09T13:07:08Z</time>
      </trkpt>
      <trkpt lat="45.89597" lon="4.39698">
        <ele>511.8</ele>
        <time>2025-09-09T13:07:09Z</time>
      </trkpt>
      <trkpt lat="45.89598" lon="4.39702">
        <ele>511.8</ele>
        <time>2025-09-09T13:07:10Z</time>
      </trkpt>
      <trkpt lat="45.89599" lon="4.39706">
        <ele>511</ele>
        <time>2025-09-09T13:07:11Z</time>
      </trkpt>
      <trkpt lat="45.896" lon="4.39711">
        <ele>510.6</ele>
        <time>2025-09-09T13:07:12Z</time>
      </trkpt>
      <trkpt lat="45.896" lon="4.39715">
        <ele>510.2</ele>
        <time>2025-09-09T13:07:13Z</time>
      </trkpt>
      <trkpt lat="45.896" lon="4.39717">
        <ele>509.8</ele>
        <time>2025-09-09T13:07:14Z</time>
      </trkpt>
      <trkpt lat="45.896" lon="4.39718">
        <ele>509.8</ele>
        <time>2025-09-09T13:07:15Z</time>
      </trkpt>
      <trkpt lat="45.896" lon="4.39718">
        <ele>509.8</ele>
        <time>2025-09-09T13:07:16Z</time>
      </trkpt>
      <trkpt lat="45.896" lon="4.39718">
        <ele>509.8</ele>
        <time>2025-09-09T13:07:17Z</time>
      </trkpt>
      <trkpt lat="45.89602" lon="4.3972">
        <ele>509</ele>
        <time>2025-09-09T13:07:30Z</time>
      </trkpt>
      <trkpt lat="45.89602" lon="4.39721">
        <ele>509</ele>
        <time>2025-09-09T13:07:31Z</time>
      </trkpt>
      <trkpt lat="45.89602" lon="4.39721">
        <ele>508.6</ele>
        <time>2025-09-09T13:07:32Z</time>
      </trkpt>
      <trkpt lat="45.89601" lon="4.39724">
        <ele>509.2</ele>
        <time>2025-09-09T13:07:37Z</time>
      </trkpt>
      <trkpt lat="45.89601" lon="4.39727">
        <ele>508.8</ele>
        <time>2025-09-09T13:07:38Z</time>
      </trkpt>
      <trkpt lat="45.896" lon="4.39732">
        <ele>508.8</ele>
        <time>2025-09-09T13:07:39Z</time>
      </trkpt>
      <trkpt lat="45.896" lon="4.39737">
        <ele>508.8</ele>
        <time>2025-09-09T13:07:40Z</time>
      </trkpt>
      <trkpt lat="45.89597" lon="4.39743">
        <ele>508</ele>
        <time>2025-09-09T13:07:41Z</time>
      </trkpt>
      <trkpt lat="45.89597" lon="4.3975">
        <ele>507.6</ele>
        <time>2025-09-09T13:07:42Z</time>
      </trkpt>
      <trkpt lat="45.89597" lon="4.3975">
        <ele>506.8</ele>
        <time>2025-09-09T13:07:43Z</time>
      </trkpt>
      <trkpt lat="45.89595" lon="4.39763">
        <ele>505.8</ele>
        <time>2025-09-09T13:07:44Z</time>
      </trkpt>
      <trkpt lat="45.89595" lon="4.39769">
        <ele>505.8</ele>
        <time>2025-09-09T13:07:45Z</time>
      </trkpt>
      <trkpt lat="45.89595" lon="4.39775">
        <ele>505</ele>
        <time>2025-09-09T13:07:46Z</time>
      </trkpt>
      <trkpt lat="45.89593" lon="4.39779">
        <ele>504.8</ele>
        <time>2025-09-09T13:07:47Z</time>
      </trkpt>
      <trkpt lat="45.89593" lon="4.39784">
        <ele>504.8</ele>
        <time>2025-09-09T13:07:48Z</time>
      </trkpt>
      <trkpt lat="45.89593" lon="4.3979">
        <ele>504.4</ele>
        <time>2025-09-09T13:07:49Z</time>
      </trkpt>
      <trkpt lat="45.89592" lon="4.39795">
        <ele>504</ele>
        <time>2025-09-09T13:07:50Z</time>
      </trkpt>
      <trkpt lat="45.89592" lon="4.398">
        <ele>504</ele>
        <time>2025-09-09T13:07:51Z</time>
      </trkpt>
      <trkpt lat="45.89592" lon="4.39805">
        <ele>503.8</ele>
        <time>2025-09-09T13:07:52Z</time>
      </trkpt>
      <trkpt lat="45.89592" lon="4.3981">
        <ele>503.8</ele>
        <time>2025-09-09T13:07:53Z</time>
      </trkpt>
      <trkpt lat="45.89591" lon="4.39814">
        <ele>503</ele>
        <time>2025-09-09T13:07:54Z</time>
      </trkpt>
      <trkpt lat="45.89591" lon="4.39819">
        <ele>502.4</ele>
        <time>2025-09-09T13:07:55Z</time>
      </trkpt>
      <trkpt lat="45.89589" lon="4.39825">
        <ele>502</ele>
        <time>2025-09-09T13:07:56Z</time>
      </trkpt>
      <trkpt lat="45.89589" lon="4.3983">
        <ele>501.6</ele>
        <time>2025-09-09T13:07:57Z</time>
      </trkpt>
      <trkpt lat="45.89589" lon="4.39835">
        <ele>501.2</ele>
        <time>2025-09-09T13:07:58Z</time>
      </trkpt>
      <trkpt lat="45.89588" lon="4.39841">
        <ele>501</ele>
        <time>2025-09-09T13:07:59Z</time>
      </trkpt>
      <trkpt lat="45.89586" lon="4.39848">
        <ele>500.4</ele>
        <time>2025-09-09T13:08:00Z</time>
      </trkpt>
      <trkpt lat="45.89585" lon="4.39855">
        <ele>500.8</ele>
        <time>2025-09-09T13:08:01Z</time>
      </trkpt>
      <trkpt lat="45.89582" lon="4.39862">
        <ele>500.4</ele>
        <time>2025-09-09T13:08:02Z</time>
      </trkpt>
      <trkpt lat="45.8958" lon="4.39869">
        <ele>499.6</ele>
        <time>2025-09-09T13:08:03Z</time>
      </trkpt>
      <trkpt lat="45.89576" lon="4.39875">
        <ele>498.8</ele>
        <time>2025-09-09T13:08:04Z</time>
      </trkpt>
      <trkpt lat="45.89573" lon="4.3988">
        <ele>497.8</ele>
        <time>2025-09-09T13:08:05Z</time>
      </trkpt>
      <trkpt lat="45.89568" lon="4.39886">
        <ele>497.4</ele>
        <time>2025-09-09T13:08:06Z</time>
      </trkpt>
      <trkpt lat="45.89564" lon="4.39892">
        <ele>496.6</ele>
        <time>2025-09-09T13:08:07Z</time>
      </trkpt>
      <trkpt lat="45.8956" lon="4.39896">
        <ele>496.2</ele>
        <time>2025-09-09T13:08:08Z</time>
      </trkpt>
      <trkpt lat="45.89556" lon="4.399">
        <ele>495.6</ele>
        <time>2025-09-09T13:08:09Z</time>
      </trkpt>
      <trkpt lat="45.89551" lon="4.39903">
        <ele>495</ele>
        <time>2025-09-09T13:08:10Z</time>
      </trkpt>
      <trkpt lat="45.89547" lon="4.39905">
        <ele>495</ele>
        <time>2025-09-09T13:08:11Z</time>
      </trkpt>
      <trkpt lat="45.89543" lon="4.39908">
        <ele>494.2</ele>
        <time>2025-09-09T13:08:12Z</time>
      </trkpt>
      <trkpt lat="45.89537" lon="4.39907">
        <ele>493.4</ele>
        <time>2025-09-09T13:08:13Z</time>
      </trkpt>
      <trkpt lat="45.89533" lon="4.39907">
        <ele>492.4</ele>
        <time>2025-09-09T13:08:14Z</time>
      </trkpt>
      <trkpt lat="45.89528" lon="4.39906">
        <ele>491.8</ele>
        <time>2025-09-09T13:08:15Z</time>
      </trkpt>
      <trkpt lat="45.89523" lon="4.39904">
        <ele>491.6</ele>
        <time>2025-09-09T13:08:16Z</time>
      </trkpt>
      <trkpt lat="45.89519" lon="4.399">
        <ele>491.6</ele>
        <time>2025-09-09T13:08:17Z</time>
      </trkpt>
      <trkpt lat="45.89515" lon="4.39897">
        <ele>490.6</ele>
        <time>2025-09-09T13:08:18Z</time>
      </trkpt>
      <trkpt lat="45.89511" lon="4.39892">
        <ele>490</ele>
        <time>2025-09-09T13:08:19Z</time>
      </trkpt>
      <trkpt lat="45.89508" lon="4.39888">
        <ele>489.6</ele>
        <time>2025-09-09T13:08:20Z</time>
      </trkpt>
      <trkpt lat="45.89504" lon="4.39882">
        <ele>489.2</ele>
        <time>2025-09-09T13:08:21Z</time>
      </trkpt>
      <trkpt lat="45.89502" lon="4.39877">
        <ele>488.6</ele>
        <time>2025-09-09T13:08:22Z</time>
      </trkpt>
      <trkpt lat="45.89499" lon="4.39873">
        <ele>488.2</ele>
        <time>2025-09-09T13:08:23Z</time>
      </trkpt>
      <trkpt lat="45.89497" lon="4.39865">
        <ele>487.2</ele>
        <time>2025-09-09T13:08:24Z</time>
      </trkpt>
      <trkpt lat="45.89496" lon="4.39861">
        <ele>486.6</ele>
        <time>2025-09-09T13:08:25Z</time>
      </trkpt>
      <trkpt lat="45.89494" lon="4.39855">
        <ele>486.4</ele>
        <time>2025-09-09T13:08:26Z</time>
      </trkpt>
      <trkpt lat="45.89493" lon="4.39848">
        <ele>486</ele>
        <time>2025-09-09T13:08:27Z</time>
      </trkpt>
      <trkpt lat="45.89493" lon="4.39844">
        <ele>485.4</ele>
        <time>2025-09-09T13:08:28Z</time>
      </trkpt>
      <trkpt lat="45.89492" lon="4.39838">
        <ele>484.4</ele>
        <time>2025-09-09T13:08:29Z</time>
      </trkpt>
      <trkpt lat="45.8949" lon="4.39832">
        <ele>484.2</ele>
        <time>2025-09-09T13:08:30Z</time>
      </trkpt>
      <trkpt lat="45.89488" lon="4.39825">
        <ele>483.4</ele>
        <time>2025-09-09T13:08:31Z</time>
      </trkpt>
      <trkpt lat="45.89486" lon="4.3982">
        <ele>483</ele>
        <time>2025-09-09T13:08:32Z</time>
      </trkpt>
      <trkpt lat="45.89484" lon="4.39811">
        <ele>482.4</ele>
        <time>2025-09-09T13:08:33Z</time>
      </trkpt>
      <trkpt lat="45.89485" lon="4.39806">
        <ele>482</ele>
        <time>2025-09-09T13:08:34Z</time>
      </trkpt>
      <trkpt lat="45.89485" lon="4.39803">
        <ele>481.4</ele>
        <time>2025-09-09T13:08:35Z</time>
      </trkpt>
      <trkpt lat="45.89482" lon="4.39799">
        <ele>480.8</ele>
        <time>2025-09-09T13:08:36Z</time>
      </trkpt>
      <trkpt lat="45.89481" lon="4.39792">
        <ele>480</ele>
        <time>2025-09-09T13:08:37Z</time>
      </trkpt>
      <trkpt lat="45.8948" lon="4.39786">
        <ele>479.4</ele>
        <time>2025-09-09T13:08:38Z</time>
      </trkpt>
      <trkpt lat="45.89479" lon="4.39782">
        <ele>479.4</ele>
        <time>2025-09-09T13:08:39Z</time>
      </trkpt>
      <trkpt lat="45.89478" lon="4.39777">
        <ele>479</ele>
        <time>2025-09-09T13:08:40Z</time>
      </trkpt>
      <trkpt lat="45.89476" lon="4.39771">
        <ele>479</ele>
        <time>2025-09-09T13:08:41Z</time>
      </trkpt>
      <trkpt lat="45.89475" lon="4.39765">
        <ele>478</ele>
        <time>2025-09-09T13:08:42Z</time>
      </trkpt>
      <trkpt lat="45.89474" lon="4.39759">
        <ele>477.2</ele>
        <time>2025-09-09T13:08:43Z</time>
      </trkpt>
      <trkpt lat="45.89473" lon="4.39753">
        <ele>476.6</ele>
        <time>2025-09-09T13:08:44Z</time>
      </trkpt>
      <trkpt lat="45.89473" lon="4.39747">
        <ele>477.4</ele>
        <time>2025-09-09T13:08:45Z</time>
      </trkpt>
      <trkpt lat="45.89473" lon="4.39741">
        <ele>476.6</ele>
        <time>2025-09-09T13:08:46Z</time>
      </trkpt>
      <trkpt lat="45.89472" lon="4.39736">
        <ele>476</ele>
        <time>2025-09-09T13:08:47Z</time>
      </trkpt>
      <trkpt lat="45.89471" lon="4.39731">
        <ele>475.4</ele>
        <time>2025-09-09T13:08:48Z</time>
      </trkpt>
      <trkpt lat="45.8947" lon="4.39727">
        <ele>475</ele>
        <time>2025-09-09T13:08:49Z</time>
      </trkpt>
      <trkpt lat="45.89469" lon="4.39723">
        <ele>474.4</ele>
        <time>2025-09-09T13:08:50Z</time>
      </trkpt>
      <trkpt lat="45.89467" lon="4.39718">
        <ele>474</ele>
        <time>2025-09-09T13:08:51Z</time>
      </trkpt>
      <trkpt lat="45.89465" lon="4.39714">
        <ele>473.4</ele>
        <time>2025-09-09T13:08:52Z</time>
      </trkpt>
      <trkpt lat="45.89462" lon="4.39711">
        <ele>473</ele>
        <time>2025-09-09T13:08:53Z</time>
      </trkpt>
      <trkpt lat="45.89459" lon="4.39709">
        <ele>472.6</ele>
        <time>2025-09-09T13:08:54Z</time>
      </trkpt>
      <trkpt lat="45.89456" lon="4.39709">
        <ele>472.2</ele>
        <time>2025-09-09T13:08:55Z</time>
      </trkpt>
      <trkpt lat="45.89452" lon="4.3971">
        <ele>471.8</ele>
        <time>2025-09-09T13:08:56Z</time>
      </trkpt>
      <trkpt lat="45.89449" lon="4.39713">
        <ele>471.2</ele>
        <time>2025-09-09T13:08:57Z</time>
      </trkpt>
      <trkpt lat="45.89446" lon="4.39717">
        <ele>471.2</ele>
        <time>2025-09-09T13:08:58Z</time>
      </trkpt>
      <trkpt lat="45.89443" lon="4.39722">
        <ele>470.2</ele>
        <time>2025-09-09T13:08:59Z</time>
      </trkpt>
      <trkpt lat="45.89443" lon="4.39727">
        <ele>470.2</ele>
        <time>2025-09-09T13:09:00Z</time>
      </trkpt>
      <trkpt lat="45.89443" lon="4.39732">
        <ele>469.6</ele>
        <time>2025-09-09T13:09:01Z</time>
      </trkpt>
      <trkpt lat="45.89444" lon="4.39738">
        <ele>469.6</ele>
        <time>2025-09-09T13:09:02Z</time>
      </trkpt>
      <trkpt lat="45.89445" lon="4.39744">
        <ele>469</ele>
        <time>2025-09-09T13:09:03Z</time>
      </trkpt>
      <trkpt lat="45.89445" lon="4.39749">
        <ele>469</ele>
        <time>2025-09-09T13:09:04Z</time>
      </trkpt>
      <trkpt lat="45.89446" lon="4.39754">
        <ele>468.6</ele>
        <time>2025-09-09T13:09:05Z</time>
      </trkpt>
      <trkpt lat="45.89446" lon="4.39759">
        <ele>468.6</ele>
        <time>2025-09-09T13:09:06Z</time>
      </trkpt>
      <trkpt lat="45.89447" lon="4.39763">
        <ele>468.2</ele>
        <time>2025-09-09T13:09:07Z</time>
      </trkpt>
      <trkpt lat="45.89447" lon="4.39771">
        <ele>467.6</ele>
        <time>2025-09-09T13:09:08Z</time>
      </trkpt>
      <trkpt lat="45.89445" lon="4.39775">
        <ele>467.4</ele>
        <time>2025-09-09T13:09:09Z</time>
      </trkpt>
      <trkpt lat="45.89446" lon="4.39783">
        <ele>467</ele>
        <time>2025-09-09T13:09:10Z</time>
      </trkpt>
      <trkpt lat="45.89445" lon="4.39789">
        <ele>466.2</ele>
        <time>2025-09-09T13:09:11Z</time>
      </trkpt>
      <trkpt lat="45.89443" lon="4.39796">
        <ele>466</ele>
        <time>2025-09-09T13:09:12Z</time>
      </trkpt>
      <trkpt lat="45.89443" lon="4.39801">
        <ele>465.6</ele>
        <time>2025-09-09T13:09:13Z</time>
      </trkpt>
      <trkpt lat="45.89442" lon="4.39808">
        <ele>465.2</ele>
        <time>2025-09-09T13:09:14Z</time>
      </trkpt>
      <trkpt lat="45.89442" lon="4.39813">
        <ele>464.8</ele>
        <time>2025-09-09T13:09:15Z</time>
      </trkpt>
      <trkpt lat="45.89441" lon="4.3982">
        <ele>464.4</ele>
        <time>2025-09-09T13:09:16Z</time>
      </trkpt>
      <trkpt lat="45.8944" lon="4.39828">
        <ele>464.2</ele>
        <time>2025-09-09T13:09:17Z</time>
      </trkpt>
      <trkpt lat="45.89439" lon="4.39836">
        <ele>463.6</ele>
        <time>2025-09-09T13:09:18Z</time>
      </trkpt>
      <trkpt lat="45.89437" lon="4.39845">
        <ele>463</ele>
        <time>2025-09-09T13:09:19Z</time>
      </trkpt>
      <trkpt lat="45.89436" lon="4.39855">
        <ele>462.4</ele>
        <time>2025-09-09T13:09:20Z</time>
      </trkpt>
      <trkpt lat="45.89434" lon="4.39865">
        <ele>461.6</ele>
        <time>2025-09-09T13:09:21Z</time>
      </trkpt>
      <trkpt lat="45.89432" lon="4.39876">
        <ele>461</ele>
        <time>2025-09-09T13:09:22Z</time>
      </trkpt>
      <trkpt lat="45.89429" lon="4.39887">
        <ele>460.4</ele>
        <time>2025-09-09T13:09:23Z</time>
      </trkpt>
      <trkpt lat="45.89426" lon="4.39897">
        <ele>459.8</ele>
        <time>2025-09-09T13:09:24Z</time>
      </trkpt>
      <trkpt lat="45.89424" lon="4.39908">
        <ele>459</ele>
        <time>2025-09-09T13:09:25Z</time>
      </trkpt>
      <trkpt lat="45.89422" lon="4.39918">
        <ele>458.4</ele>
        <time>2025-09-09T13:09:26Z</time>
      </trkpt>
      <trkpt lat="45.89419" lon="4.39925">
        <ele>457.8</ele>
        <time>2025-09-09T13:09:27Z</time>
      </trkpt>
      <trkpt lat="45.89417" lon="4.39932">
        <ele>457</ele>
        <time>2025-09-09T13:09:28Z</time>
      </trkpt>
      <trkpt lat="45.89414" lon="4.3994">
        <ele>456.2</ele>
        <time>2025-09-09T13:09:29Z</time>
      </trkpt>
      <trkpt lat="45.89411" lon="4.39948">
        <ele>455.8</ele>
        <time>2025-09-09T13:09:30Z</time>
      </trkpt>
      <trkpt lat="45.89409" lon="4.39955">
        <ele>455.4</ele>
        <time>2025-09-09T13:09:31Z</time>
      </trkpt>
      <trkpt lat="45.89408" lon="4.39959">
        <ele>454.6</ele>
        <time>2025-09-09T13:09:32Z</time>
      </trkpt>
      <trkpt lat="45.89407" lon="4.39965">
        <ele>454.2</ele>
        <time>2025-09-09T13:09:33Z</time>
      </trkpt>
      <trkpt lat="45.89404" lon="4.39976">
        <ele>453.6</ele>
        <time>2025-09-09T13:09:34Z</time>
      </trkpt>
      <trkpt lat="45.89403" lon="4.39981">
        <ele>452.8</ele>
        <time>2025-09-09T13:09:35Z</time>
      </trkpt>
      <trkpt lat="45.89402" lon="4.3999">
        <ele>452.4</ele>
        <time>2025-09-09T13:09:36Z</time>
      </trkpt>
      <trkpt lat="45.89401" lon="4.39997">
        <ele>452</ele>
        <time>2025-09-09T13:09:37Z</time>
      </trkpt>
      <trkpt lat="45.89401" lon="4.40003">
        <ele>451.6</ele>
        <time>2025-09-09T13:09:38Z</time>
      </trkpt>
      <trkpt lat="45.89401" lon="4.40009">
        <ele>451</ele>
        <time>2025-09-09T13:09:39Z</time>
      </trkpt>
      <trkpt lat="45.89402" lon="4.40014">
        <ele>450.4</ele>
        <time>2025-09-09T13:09:40Z</time>
      </trkpt>
      <trkpt lat="45.89402" lon="4.40019">
        <ele>449.8</ele>
        <time>2025-09-09T13:09:41Z</time>
      </trkpt>
      <trkpt lat="45.89403" lon="4.40023">
        <ele>449</ele>
        <time>2025-09-09T13:09:42Z</time>
      </trkpt>
      <trkpt lat="45.89403" lon="4.40027">
        <ele>448.4</ele>
        <time>2025-09-09T13:09:43Z</time>
      </trkpt>
      <trkpt lat="45.89405" lon="4.4003">
        <ele>447.8</ele>
        <time>2025-09-09T13:09:44Z</time>
      </trkpt>
      <trkpt lat="45.89405" lon="4.40033">
        <ele>447.4</ele>
        <time>2025-09-09T13:09:45Z</time>
      </trkpt>
      <trkpt lat="45.89405" lon="4.40036">
        <ele>447</ele>
        <time>2025-09-09T13:09:46Z</time>
      </trkpt>
      <trkpt lat="45.89403" lon="4.40039">
        <ele>446.6</ele>
        <time>2025-09-09T13:09:47Z</time>
      </trkpt>
      <trkpt lat="45.89401" lon="4.4004">
        <ele>446.2</ele>
        <time>2025-09-09T13:09:48Z</time>
      </trkpt>
      <trkpt lat="45.89398" lon="4.4004">
        <ele>446</ele>
        <time>2025-09-09T13:09:49Z</time>
      </trkpt>
      <trkpt lat="45.89395" lon="4.4004">
        <ele>445.8</ele>
        <time>2025-09-09T13:09:50Z</time>
      </trkpt>
      <trkpt lat="45.89391" lon="4.4004">
        <ele>445.4</ele>
        <time>2025-09-09T13:09:51Z</time>
      </trkpt>
      <trkpt lat="45.89388" lon="4.4004">
        <ele>445.4</ele>
        <time>2025-09-09T13:09:52Z</time>
      </trkpt>
      <trkpt lat="45.89384" lon="4.40039">
        <ele>445</ele>
        <time>2025-09-09T13:09:53Z</time>
      </trkpt>
      <trkpt lat="45.89381" lon="4.40037">
        <ele>445</ele>
        <time>2025-09-09T13:09:54Z</time>
      </trkpt>
      <trkpt lat="45.8938" lon="4.40036">
        <ele>444.8</ele>
        <time>2025-09-09T13:09:55Z</time>
      </trkpt>
      <trkpt lat="45.89381" lon="4.40035">
        <ele>444.8</ele>
        <time>2025-09-09T13:09:56Z</time>
      </trkpt>
      <trkpt lat="45.89382" lon="4.40035">
        <ele>444.8</ele>
        <time>2025-09-09T13:09:57Z</time>
      </trkpt>
      <trkpt lat="45.8938" lon="4.40036">
        <ele>445</ele>
        <time>2025-09-09T13:10:55Z</time>
      </trkpt>
      <trkpt lat="45.89379" lon="4.40035">
        <ele>445</ele>
        <time>2025-09-09T13:10:56Z</time>
      </trkpt>
      <trkpt lat="45.89378" lon="4.40034">
        <ele>445</ele>
        <time>2025-09-09T13:10:57Z</time>
      </trkpt>
      <trkpt lat="45.89376" lon="4.40032">
        <ele>445</ele>
        <time>2025-09-09T13:10:58Z</time>
      </trkpt>
      <trkpt lat="45.89374" lon="4.4003">
        <ele>445</ele>
        <time>2025-09-09T13:10:59Z</time>
      </trkpt>
      <trkpt lat="45.89372" lon="4.40029">
        <ele>445</ele>
        <time>2025-09-09T13:11:00Z</time>
      </trkpt>
      <trkpt lat="45.89368" lon="4.40031">
        <ele>445</ele>
        <time>2025-09-09T13:11:01Z</time>
      </trkpt>
      <trkpt lat="45.89366" lon="4.40034">
        <ele>444.8</ele>
        <time>2025-09-09T13:11:02Z</time>
      </trkpt>
      <trkpt lat="45.89363" lon="4.40042">
        <ele>444.8</ele>
        <time>2025-09-09T13:11:03Z</time>
      </trkpt>
      <trkpt lat="45.8936" lon="4.40048">
        <ele>444.8</ele>
        <time>2025-09-09T13:11:04Z</time>
      </trkpt>
      <trkpt lat="45.89357" lon="4.40054">
        <ele>444.4</ele>
        <time>2025-09-09T13:11:05Z</time>
      </trkpt>
      <trkpt lat="45.89354" lon="4.4006">
        <ele>444</ele>
        <time>2025-09-09T13:11:06Z</time>
      </trkpt>
      <trkpt lat="45.8935" lon="4.40067">
        <ele>443.6</ele>
        <time>2025-09-09T13:11:07Z</time>
      </trkpt>
      <trkpt lat="45.89345" lon="4.40075">
        <ele>443.2</ele>
        <time>2025-09-09T13:11:08Z</time>
      </trkpt>
      <trkpt lat="45.89341" lon="4.40082">
        <ele>442.8</ele>
        <time>2025-09-09T13:11:09Z</time>
      </trkpt>
      <trkpt lat="45.89336" lon="4.40089">
        <ele>442.4</ele>
        <time>2025-09-09T13:11:10Z</time>
      </trkpt>
      <trkpt lat="45.89332" lon="4.40096">
        <ele>442</ele>
        <time>2025-09-09T13:11:11Z</time>
      </trkpt>
      <trkpt lat="45.89329" lon="4.40103">
        <ele>441.6</ele>
        <time>2025-09-09T13:11:12Z</time>
      </trkpt>
      <trkpt lat="45.89323" lon="4.40108">
        <ele>441.2</ele>
        <time>2025-09-09T13:11:13Z</time>
      </trkpt>
      <trkpt lat="45.89319" lon="4.40113">
        <ele>441</ele>
        <time>2025-09-09T13:11:14Z</time>
      </trkpt>
      <trkpt lat="45.89316" lon="4.40122">
        <ele>440.6</ele>
        <time>2025-09-09T13:11:15Z</time>
      </trkpt>
      <trkpt lat="45.89312" lon="4.4013">
        <ele>440.6</ele>
        <time>2025-09-09T13:11:16Z</time>
      </trkpt>
      <trkpt lat="45.89309" lon="4.40138">
        <ele>440.2</ele>
        <time>2025-09-09T13:11:17Z</time>
      </trkpt>
      <trkpt lat="45.89304" lon="4.40145">
        <ele>439.2</ele>
        <time>2025-09-09T13:11:18Z</time>
      </trkpt>
      <trkpt lat="45.89301" lon="4.40154">
        <ele>438.8</ele>
        <time>2025-09-09T13:11:19Z</time>
      </trkpt>
      <trkpt lat="45.89296" lon="4.40163">
        <ele>439.2</ele>
        <time>2025-09-09T13:11:20Z</time>
      </trkpt>
      <trkpt lat="45.89293" lon="4.4017">
        <ele>439.2</ele>
        <time>2025-09-09T13:11:21Z</time>
      </trkpt>
      <trkpt lat="45.89289" lon="4.40179">
        <ele>439.2</ele>
        <time>2025-09-09T13:11:22Z</time>
      </trkpt>
      <trkpt lat="45.89288" lon="4.40184">
        <ele>439.2</ele>
        <time>2025-09-09T13:11:23Z</time>
      </trkpt>
      <trkpt lat="45.89285" lon="4.40189">
        <ele>439</ele>
        <time>2025-09-09T13:11:24Z</time>
      </trkpt>
      <trkpt lat="45.89284" lon="4.40193">
        <ele>439</ele>
        <time>2025-09-09T13:11:25Z</time>
      </trkpt>
      <trkpt lat="45.89282" lon="4.40196">
        <ele>438.6</ele>
        <time>2025-09-09T13:11:26Z</time>
      </trkpt>
      <trkpt lat="45.89281" lon="4.402">
        <ele>438.6</ele>
        <time>2025-09-09T13:11:27Z</time>
      </trkpt>
      <trkpt lat="45.8928" lon="4.40202">
        <ele>438.6</ele>
        <time>2025-09-09T13:11:28Z</time>
      </trkpt>
      <trkpt lat="45.8928" lon="4.40203">
        <ele>438.4</ele>
        <time>2025-09-09T13:11:29Z</time>
      </trkpt>
      <trkpt lat="45.8928" lon="4.40203">
        <ele>438.4</ele>
        <time>2025-09-09T13:11:30Z</time>
      </trkpt>
      <trkpt lat="45.8928" lon="4.40204">
        <ele>438.4</ele>
        <time>2025-09-09T13:11:31Z</time>
      </trkpt>
      <trkpt lat="45.89276" lon="4.40204">
        <ele>438</ele>
        <time>2025-09-09T13:11:54Z</time>
      </trkpt>
      <trkpt lat="45.89276" lon="4.40206">
        <ele>438</ele>
        <time>2025-09-09T13:11:55Z</time>
      </trkpt>
      <trkpt lat="45.89276" lon="4.40209">
        <ele>438</ele>
        <time>2025-09-09T13:11:56Z</time>
      </trkpt>
      <trkpt lat="45.89275" lon="4.40213">
        <ele>438</ele>
        <time>2025-09-09T13:11:57Z</time>
      </trkpt>
      <trkpt lat="45.89274" lon="4.40218">
        <ele>437.6</ele>
        <time>2025-09-09T13:11:58Z</time>
      </trkpt>
      <trkpt lat="45.89272" lon="4.40223">
        <ele>437.6</ele>
        <time>2025-09-09T13:11:59Z</time>
      </trkpt>
      <trkpt lat="45.89271" lon="4.40228">
        <ele>437.6</ele>
        <time>2025-09-09T13:12:00Z</time>
      </trkpt>
      <trkpt lat="45.89271" lon="4.40234">
        <ele>437.6</ele>
        <time>2025-09-09T13:12:01Z</time>
      </trkpt>
      <trkpt lat="45.89271" lon="4.40241">
        <ele>437.4</ele>
        <time>2025-09-09T13:12:02Z</time>
      </trkpt>
      <trkpt lat="45.8927" lon="4.40248">
        <ele>437.4</ele>
        <time>2025-09-09T13:12:03Z</time>
      </trkpt>
      <trkpt lat="45.89269" lon="4.40256">
        <ele>437.4</ele>
        <time>2025-09-09T13:12:04Z</time>
      </trkpt>
      <trkpt lat="45.89269" lon="4.40265">
        <ele>437.2</ele>
        <time>2025-09-09T13:12:05Z</time>
      </trkpt>
      <trkpt lat="45.89269" lon="4.40273">
        <ele>437.2</ele>
        <time>2025-09-09T13:12:06Z</time>
      </trkpt>
      <trkpt lat="45.89269" lon="4.40281">
        <ele>436.8</ele>
        <time>2025-09-09T13:12:07Z</time>
      </trkpt>
      <trkpt lat="45.89268" lon="4.40291">
        <ele>436.8</ele>
        <time>2025-09-09T13:12:08Z</time>
      </trkpt>
      <trkpt lat="45.89268" lon="4.40299">
        <ele>436.8</ele>
        <time>2025-09-09T13:12:09Z</time>
      </trkpt>
      <trkpt lat="45.89268" lon="4.40309">
        <ele>436.6</ele>
        <time>2025-09-09T13:12:10Z</time>
      </trkpt>
      <trkpt lat="45.89269" lon="4.40318">
        <ele>436.6</ele>
        <time>2025-09-09T13:12:11Z</time>
      </trkpt>
      <trkpt lat="45.89268" lon="4.40326">
        <ele>436.6</ele>
        <time>2025-09-09T13:12:12Z</time>
      </trkpt>
      <trkpt lat="45.89268" lon="4.40336">
        <ele>436.6</ele>
        <time>2025-09-09T13:12:13Z</time>
      </trkpt>
      <trkpt lat="45.89268" lon="4.40345">
        <ele>436.4</ele>
        <time>2025-09-09T13:12:14Z</time>
      </trkpt>
      <trkpt lat="45.89268" lon="4.40355">
        <ele>436.4</ele>
        <time>2025-09-09T13:12:15Z</time>
      </trkpt>
      <trkpt lat="45.89267" lon="4.40365">
        <ele>436.4</ele>
        <time>2025-09-09T13:12:16Z</time>
      </trkpt>
      <trkpt lat="45.89268" lon="4.40376">
        <ele>436</ele>
        <time>2025-09-09T13:12:17Z</time>
      </trkpt>
      <trkpt lat="45.89268" lon="4.40385">
        <ele>435.8</ele>
        <time>2025-09-09T13:12:18Z</time>
      </trkpt>
      <trkpt lat="45.89269" lon="4.40395">
        <ele>435.8</ele>
        <time>2025-09-09T13:12:19Z</time>
      </trkpt>
      <trkpt lat="45.89269" lon="4.40405">
        <ele>435.8</ele>
        <time>2025-09-09T13:12:20Z</time>
      </trkpt>
      <trkpt lat="45.89269" lon="4.40415">
        <ele>435.6</ele>
        <time>2025-09-09T13:12:21Z</time>
      </trkpt>
      <trkpt lat="45.8927" lon="4.40425">
        <ele>435.6</ele>
        <time>2025-09-09T13:12:22Z</time>
      </trkpt>
      <trkpt lat="45.8927" lon="4.40436">
        <ele>435.2</ele>
        <time>2025-09-09T13:12:23Z</time>
      </trkpt>
      <trkpt lat="45.89271" lon="4.40446">
        <ele>435.2</ele>
        <time>2025-09-09T13:12:24Z</time>
      </trkpt>
      <trkpt lat="45.8927" lon="4.40457">
        <ele>435.2</ele>
        <time>2025-09-09T13:12:25Z</time>
      </trkpt>
      <trkpt lat="45.8927" lon="4.40467">
        <ele>435</ele>
        <time>2025-09-09T13:12:26Z</time>
      </trkpt>
      <trkpt lat="45.89271" lon="4.40478">
        <ele>435</ele>
        <time>2025-09-09T13:12:27Z</time>
      </trkpt>
      <trkpt lat="45.8927" lon="4.40488">
        <ele>434.6</ele>
        <time>2025-09-09T13:12:28Z</time>
      </trkpt>
      <trkpt lat="45.8927" lon="4.40499">
        <ele>434.6</ele>
        <time>2025-09-09T13:12:29Z</time>
      </trkpt>
      <trkpt lat="45.89271" lon="4.40509">
        <ele>434.4</ele>
        <time>2025-09-09T13:12:30Z</time>
      </trkpt>
      <trkpt lat="45.8927" lon="4.40519">
        <ele>434.4</ele>
        <time>2025-09-09T13:12:31Z</time>
      </trkpt>
      <trkpt lat="45.8927" lon="4.4053">
        <ele>434.4</ele>
        <time>2025-09-09T13:12:32Z</time>
      </trkpt>
      <trkpt lat="45.89271" lon="4.40541">
        <ele>434.4</ele>
        <time>2025-09-09T13:12:33Z</time>
      </trkpt>
      <trkpt lat="45.89271" lon="4.4055">
        <ele>433.8</ele>
        <time>2025-09-09T13:12:34Z</time>
      </trkpt>
      <trkpt lat="45.89271" lon="4.40561">
        <ele>433.8</ele>
        <time>2025-09-09T13:12:35Z</time>
      </trkpt>
      <trkpt lat="45.8927" lon="4.40572">
        <ele>433.8</ele>
        <time>2025-09-09T13:12:36Z</time>
      </trkpt>
      <trkpt lat="45.89271" lon="4.40583">
        <ele>433.8</ele>
        <time>2025-09-09T13:12:37Z</time>
      </trkpt>
      <trkpt lat="45.8927" lon="4.40593">
        <ele>433.4</ele>
        <time>2025-09-09T13:12:38Z</time>
      </trkpt>
      <trkpt lat="45.89269" lon="4.40604">
        <ele>433.4</ele>
        <time>2025-09-09T13:12:39Z</time>
      </trkpt>
      <trkpt lat="45.89268" lon="4.40614">
        <ele>433.2</ele>
        <time>2025-09-09T13:12:40Z</time>
      </trkpt>
      <trkpt lat="45.89266" lon="4.40624">
        <ele>433.2</ele>
        <time>2025-09-09T13:12:41Z</time>
      </trkpt>
      <trkpt lat="45.89265" lon="4.40634">
        <ele>432.8</ele>
        <time>2025-09-09T13:12:42Z</time>
      </trkpt>
      <trkpt lat="45.89263" lon="4.40644">
        <ele>432.8</ele>
        <time>2025-09-09T13:12:43Z</time>
      </trkpt>
      <trkpt lat="45.89262" lon="4.40654">
        <ele>432.8</ele>
        <time>2025-09-09T13:12:44Z</time>
      </trkpt>
      <trkpt lat="45.8926" lon="4.40664">
        <ele>432.8</ele>
        <time>2025-09-09T13:12:45Z</time>
      </trkpt>
      <trkpt lat="45.89258" lon="4.40674">
        <ele>432.4</ele>
        <time>2025-09-09T13:12:46Z</time>
      </trkpt>
      <trkpt lat="45.89256" lon="4.40684">
        <ele>432.4</ele>
        <time>2025-09-09T13:12:47Z</time>
      </trkpt>
      <trkpt lat="45.89253" lon="4.40695">
        <ele>432.2</ele>
        <time>2025-09-09T13:12:48Z</time>
      </trkpt>
      <trkpt lat="45.89251" lon="4.40705">
        <ele>432.2</ele>
        <time>2025-09-09T13:12:49Z</time>
      </trkpt>
      <trkpt lat="45.89249" lon="4.40716">
        <ele>432.2</ele>
        <time>2025-09-09T13:12:50Z</time>
      </trkpt>
      <trkpt lat="45.89247" lon="4.40726">
        <ele>432</ele>
        <time>2025-09-09T13:12:51Z</time>
      </trkpt>
      <trkpt lat="45.89246" lon="4.40737">
        <ele>432</ele>
        <time>2025-09-09T13:12:52Z</time>
      </trkpt>
      <trkpt lat="45.89244" lon="4.40748">
        <ele>431.6</ele>
        <time>2025-09-09T13:12:53Z</time>
      </trkpt>
      <trkpt lat="45.89242" lon="4.40759">
        <ele>431.6</ele>
        <time>2025-09-09T13:12:54Z</time>
      </trkpt>
      <trkpt lat="45.8924" lon="4.40769">
        <ele>431.6</ele>
        <time>2025-09-09T13:12:55Z</time>
      </trkpt>
      <trkpt lat="45.89239" lon="4.4078">
        <ele>431.6</ele>
        <time>2025-09-09T13:12:56Z</time>
      </trkpt>
      <trkpt lat="45.89236" lon="4.4079">
        <ele>431.4</ele>
        <time>2025-09-09T13:12:57Z</time>
      </trkpt>
      <trkpt lat="45.89235" lon="4.40802">
        <ele>431.4</ele>
        <time>2025-09-09T13:12:58Z</time>
      </trkpt>
      <trkpt lat="45.89234" lon="4.40812">
        <ele>431</ele>
        <time>2025-09-09T13:12:59Z</time>
      </trkpt>
      <trkpt lat="45.89231" lon="4.40824">
        <ele>431</ele>
        <time>2025-09-09T13:13:00Z</time>
      </trkpt>
      <trkpt lat="45.8923" lon="4.40835">
        <ele>430.8</ele>
        <time>2025-09-09T13:13:01Z</time>
      </trkpt>
      <trkpt lat="45.89227" lon="4.40847">
        <ele>430.8</ele>
        <time>2025-09-09T13:13:02Z</time>
      </trkpt>
      <trkpt lat="45.89225" lon="4.40858">
        <ele>430.8</ele>
        <time>2025-09-09T13:13:03Z</time>
      </trkpt>
      <trkpt lat="45.89223" lon="4.40869">
        <ele>430.4</ele>
        <time>2025-09-09T13:13:04Z</time>
      </trkpt>
      <trkpt lat="45.89221" lon="4.40881">
        <ele>430</ele>
        <time>2025-09-09T13:13:05Z</time>
      </trkpt>
      <trkpt lat="45.89219" lon="4.40892">
        <ele>430</ele>
        <time>2025-09-09T13:13:06Z</time>
      </trkpt>
      <trkpt lat="45.89217" lon="4.40904">
        <ele>429.8</ele>
        <time>2025-09-09T13:13:07Z</time>
      </trkpt>
      <trkpt lat="45.89216" lon="4.40915">
        <ele>429.8</ele>
        <time>2025-09-09T13:13:08Z</time>
      </trkpt>
      <trkpt lat="45.89214" lon="4.40926">
        <ele>429.4</ele>
        <time>2025-09-09T13:13:09Z</time>
      </trkpt>
      <trkpt lat="45.89212" lon="4.40938">
        <ele>429.2</ele>
        <time>2025-09-09T13:13:10Z</time>
      </trkpt>
      <trkpt lat="45.8921" lon="4.40949">
        <ele>429</ele>
        <time>2025-09-09T13:13:11Z</time>
      </trkpt>
      <trkpt lat="45.89208" lon="4.4096">
        <ele>428.6</ele>
        <time>2025-09-09T13:13:12Z</time>
      </trkpt>
      <trkpt lat="45.89206" lon="4.40972">
        <ele>428.6</ele>
        <time>2025-09-09T13:13:13Z</time>
      </trkpt>
      <trkpt lat="45.89205" lon="4.40982">
        <ele>428.2</ele>
        <time>2025-09-09T13:13:14Z</time>
      </trkpt>
      <trkpt lat="45.89204" lon="4.40994">
        <ele>428.2</ele>
        <time>2025-09-09T13:13:15Z</time>
      </trkpt>
      <trkpt lat="45.89202" lon="4.41005">
        <ele>428.2</ele>
        <time>2025-09-09T13:13:16Z</time>
      </trkpt>
      <trkpt lat="45.89201" lon="4.41016">
        <ele>428.2</ele>
        <time>2025-09-09T13:13:17Z</time>
      </trkpt>
      <trkpt lat="45.892" lon="4.41026">
        <ele>427.8</ele>
        <time>2025-09-09T13:13:18Z</time>
      </trkpt>
      <trkpt lat="45.89199" lon="4.41037">
        <ele>427.8</ele>
        <time>2025-09-09T13:13:19Z</time>
      </trkpt>
      <trkpt lat="45.89198" lon="4.41047">
        <ele>427.8</ele>
        <time>2025-09-09T13:13:20Z</time>
      </trkpt>
      <trkpt lat="45.89198" lon="4.41058">
        <ele>427.8</ele>
        <time>2025-09-09T13:13:21Z</time>
      </trkpt>
      <trkpt lat="45.89197" lon="4.41069">
        <ele>427.6</ele>
        <time>2025-09-09T13:13:22Z</time>
      </trkpt>
      <trkpt lat="45.89196" lon="4.41078">
        <ele>427.2</ele>
        <time>2025-09-09T13:13:23Z</time>
      </trkpt>
      <trkpt lat="45.89193" lon="4.41085">
        <ele>427.2</ele>
        <time>2025-09-09T13:13:24Z</time>
      </trkpt>
      <trkpt lat="45.89188" lon="4.41091">
        <ele>427.2</ele>
        <time>2025-09-09T13:13:25Z</time>
      </trkpt>
      <trkpt lat="45.89183" lon="4.41094">
        <ele>427</ele>
        <time>2025-09-09T13:13:26Z</time>
      </trkpt>
      <trkpt lat="45.89177" lon="4.41094">
        <ele>426.6</ele>
        <time>2025-09-09T13:13:27Z</time>
      </trkpt>
      <trkpt lat="45.89171" lon="4.41094">
        <ele>426.6</ele>
        <time>2025-09-09T13:13:28Z</time>
      </trkpt>
      <trkpt lat="45.89166" lon="4.41094">
        <ele>426.2</ele>
        <time>2025-09-09T13:13:29Z</time>
      </trkpt>
      <trkpt lat="45.8916" lon="4.41094">
        <ele>426.2</ele>
        <time>2025-09-09T13:13:30Z</time>
      </trkpt>
      <trkpt lat="45.89153" lon="4.41093">
        <ele>426.2</ele>
        <time>2025-09-09T13:13:31Z</time>
      </trkpt>
      <trkpt lat="45.89147" lon="4.41093">
        <ele>426.2</ele>
        <time>2025-09-09T13:13:32Z</time>
      </trkpt>
      <trkpt lat="45.89141" lon="4.41093">
        <ele>426.2</ele>
        <time>2025-09-09T13:13:33Z</time>
      </trkpt>
      <trkpt lat="45.89136" lon="4.41092">
        <ele>426.2</ele>
        <time>2025-09-09T13:13:34Z</time>
      </trkpt>
      <trkpt lat="45.8913" lon="4.41092">
        <ele>426.2</ele>
        <time>2025-09-09T13:13:35Z</time>
      </trkpt>
      <trkpt lat="45.89125" lon="4.41092">
        <ele>426.2</ele>
        <time>2025-09-09T13:13:36Z</time>
      </trkpt>
      <trkpt lat="45.8912" lon="4.41091">
        <ele>426.2</ele>
        <time>2025-09-09T13:13:37Z</time>
      </trkpt>
      <trkpt lat="45.89115" lon="4.4109">
        <ele>426.4</ele>
        <time>2025-09-09T13:13:38Z</time>
      </trkpt>
      <trkpt lat="45.89109" lon="4.41088">
        <ele>426.4</ele>
        <time>2025-09-09T13:13:39Z</time>
      </trkpt>
      <trkpt lat="45.89104" lon="4.41086">
        <ele>426.4</ele>
        <time>2025-09-09T13:13:40Z</time>
      </trkpt>
      <trkpt lat="45.89099" lon="4.41084">
        <ele>426.8</ele>
        <time>2025-09-09T13:13:41Z</time>
      </trkpt>
      <trkpt lat="45.89094" lon="4.41081">
        <ele>426.8</ele>
        <time>2025-09-09T13:13:42Z</time>
      </trkpt>
      <trkpt lat="45.89091" lon="4.41079">
        <ele>426.8</ele>
        <time>2025-09-09T13:13:43Z</time>
      </trkpt>
      <trkpt lat="45.89087" lon="4.41078">
        <ele>427</ele>
        <time>2025-09-09T13:13:44Z</time>
      </trkpt>
      <trkpt lat="45.89083" lon="4.41076">
        <ele>427.4</ele>
        <time>2025-09-09T13:13:45Z</time>
      </trkpt>
      <trkpt lat="45.8908" lon="4.41073">
        <ele>427.4</ele>
        <time>2025-09-09T13:13:46Z</time>
      </trkpt>
      <trkpt lat="45.89077" lon="4.41071">
        <ele>427.4</ele>
        <time>2025-09-09T13:13:47Z</time>
      </trkpt>
      <trkpt lat="45.89074" lon="4.41068">
        <ele>428</ele>
        <time>2025-09-09T13:13:48Z</time>
      </trkpt>
      <trkpt lat="45.89074" lon="4.41065">
        <ele>428.2</ele>
        <time>2025-09-09T13:13:49Z</time>
      </trkpt>
      <trkpt lat="45.89071" lon="4.41062">
        <ele>428.4</ele>
        <time>2025-09-09T13:13:50Z</time>
      </trkpt>
      <trkpt lat="45.89069" lon="4.41059">
        <ele>428.4</ele>
        <time>2025-09-09T13:13:51Z</time>
      </trkpt>
      <trkpt lat="45.89067" lon="4.41057">
        <ele>428.8</ele>
        <time>2025-09-09T13:13:52Z</time>
      </trkpt>
      <trkpt lat="45.89065" lon="4.41054">
        <ele>428.8</ele>
        <time>2025-09-09T13:13:53Z</time>
      </trkpt>
      <trkpt lat="45.89063" lon="4.41051">
        <ele>429.2</ele>
        <time>2025-09-09T13:13:54Z</time>
      </trkpt>
      <trkpt lat="45.89061" lon="4.41049">
        <ele>429.4</ele>
        <time>2025-09-09T13:13:55Z</time>
      </trkpt>
      <trkpt lat="45.8906" lon="4.41046">
        <ele>429.6</ele>
        <time>2025-09-09T13:13:56Z</time>
      </trkpt>
      <trkpt lat="45.89058" lon="4.41044">
        <ele>429.8</ele>
        <time>2025-09-09T13:13:57Z</time>
      </trkpt>
      <trkpt lat="45.89055" lon="4.41042">
        <ele>429.8</ele>
        <time>2025-09-09T13:13:58Z</time>
      </trkpt>
      <trkpt lat="45.89053" lon="4.41041">
        <ele>430.2</ele>
        <time>2025-09-09T13:13:59Z</time>
      </trkpt>
      <trkpt lat="45.89052" lon="4.4104">
        <ele>430.4</ele>
        <time>2025-09-09T13:14:00Z</time>
      </trkpt>
      <trkpt lat="45.89051" lon="4.4104">
        <ele>430.4</ele>
        <time>2025-09-09T13:14:01Z</time>
      </trkpt>
      <trkpt lat="45.89049" lon="4.41039">
        <ele>430.8</ele>
        <time>2025-09-09T13:14:02Z</time>
      </trkpt>
      <trkpt lat="45.89047" lon="4.41039">
        <ele>430.8</ele>
        <time>2025-09-09T13:14:03Z</time>
      </trkpt>
      <trkpt lat="45.89045" lon="4.41038">
        <ele>430.8</ele>
        <time>2025-09-09T13:14:04Z</time>
      </trkpt>
      <trkpt lat="45.89044" lon="4.41036">
        <ele>431</ele>
        <time>2025-09-09T13:14:05Z</time>
      </trkpt>
      <trkpt lat="45.89041" lon="4.41035">
        <ele>431</ele>
        <time>2025-09-09T13:14:06Z</time>
      </trkpt>
      <trkpt lat="45.89039" lon="4.41034">
        <ele>431</ele>
        <time>2025-09-09T13:14:07Z</time>
      </trkpt>
      <trkpt lat="45.89036" lon="4.41034">
        <ele>431</ele>
        <time>2025-09-09T13:14:08Z</time>
      </trkpt>
      <trkpt lat="45.89034" lon="4.41033">
        <ele>431.2</ele>
        <time>2025-09-09T13:14:09Z</time>
      </trkpt>
      <trkpt lat="45.89031" lon="4.41033">
        <ele>431.2</ele>
        <time>2025-09-09T13:14:10Z</time>
      </trkpt>
      <trkpt lat="45.89028" lon="4.41032">
        <ele>431.2</ele>
        <time>2025-09-09T13:14:11Z</time>
      </trkpt>
      <trkpt lat="45.89025" lon="4.4103">
        <ele>431.4</ele>
        <time>2025-09-09T13:14:12Z</time>
      </trkpt>
      <trkpt lat="45.89022" lon="4.41029">
        <ele>431.4</ele>
        <time>2025-09-09T13:14:13Z</time>
      </trkpt>
      <trkpt lat="45.89019" lon="4.41028">
        <ele>431.4</ele>
        <time>2025-09-09T13:14:14Z</time>
      </trkpt>
      <trkpt lat="45.89016" lon="4.41027">
        <ele>431.4</ele>
        <time>2025-09-09T13:14:15Z</time>
      </trkpt>
      <trkpt lat="45.89013" lon="4.41025">
        <ele>431.4</ele>
        <time>2025-09-09T13:14:16Z</time>
      </trkpt>
      <trkpt lat="45.8901" lon="4.41021">
        <ele>431.4</ele>
        <time>2025-09-09T13:14:17Z</time>
      </trkpt>
      <trkpt lat="45.89009" lon="4.41017">
        <ele>431.4</ele>
        <time>2025-09-09T13:14:18Z</time>
      </trkpt>
      <trkpt lat="45.89007" lon="4.41012">
        <ele>431.4</ele>
        <time>2025-09-09T13:14:19Z</time>
      </trkpt>
      <trkpt lat="45.89006" lon="4.41007">
        <ele>431.4</ele>
        <time>2025-09-09T13:14:20Z</time>
      </trkpt>
      <trkpt lat="45.89004" lon="4.41003">
        <ele>431.4</ele>
        <time>2025-09-09T13:14:21Z</time>
      </trkpt>
      <trkpt lat="45.89003" lon="4.40998">
        <ele>431.8</ele>
        <time>2025-09-09T13:14:22Z</time>
      </trkpt>
      <trkpt lat="45.89001" lon="4.40994">
        <ele>431.8</ele>
        <time>2025-09-09T13:14:23Z</time>
      </trkpt>
      <trkpt lat="45.88998" lon="4.4099">
        <ele>431.8</ele>
        <time>2025-09-09T13:14:24Z</time>
      </trkpt>
      <trkpt lat="45.88995" lon="4.40987">
        <ele>432</ele>
        <time>2025-09-09T13:14:25Z</time>
      </trkpt>
      <trkpt lat="45.88992" lon="4.40986">
        <ele>432</ele>
        <time>2025-09-09T13:14:26Z</time>
      </trkpt>
      <trkpt lat="45.88988" lon="4.40985">
        <ele>432</ele>
        <time>2025-09-09T13:14:27Z</time>
      </trkpt>
      <trkpt lat="45.88985" lon="4.40986">
        <ele>432</ele>
        <time>2025-09-09T13:14:28Z</time>
      </trkpt>
      <trkpt lat="45.88982" lon="4.40988">
        <ele>432</ele>
        <time>2025-09-09T13:14:29Z</time>
      </trkpt>
      <trkpt lat="45.88979" lon="4.40992">
        <ele>432</ele>
        <time>2025-09-09T13:14:30Z</time>
      </trkpt>
      <trkpt lat="45.88977" lon="4.40996">
        <ele>432</ele>
        <time>2025-09-09T13:14:31Z</time>
      </trkpt>
      <trkpt lat="45.88975" lon="4.41">
        <ele>432</ele>
        <time>2025-09-09T13:14:32Z</time>
      </trkpt>
      <trkpt lat="45.88975" lon="4.41005">
        <ele>432</ele>
        <time>2025-09-09T13:14:33Z</time>
      </trkpt>
      <trkpt lat="45.88974" lon="4.41011">
        <ele>432</ele>
        <time>2025-09-09T13:14:34Z</time>
      </trkpt>
      <trkpt lat="45.88975" lon="4.41016">
        <ele>432</ele>
        <time>2025-09-09T13:14:35Z</time>
      </trkpt>
      <trkpt lat="45.88975" lon="4.41021">
        <ele>432</ele>
        <time>2025-09-09T13:14:36Z</time>
      </trkpt>
      <trkpt lat="45.88975" lon="4.41026">
        <ele>432.2</ele>
        <time>2025-09-09T13:14:37Z</time>
      </trkpt>
      <trkpt lat="45.88976" lon="4.41031">
        <ele>432.2</ele>
        <time>2025-09-09T13:14:38Z</time>
      </trkpt>
      <trkpt lat="45.88976" lon="4.41035">
        <ele>432.2</ele>
        <time>2025-09-09T13:14:39Z</time>
      </trkpt>
      <trkpt lat="45.88976" lon="4.4104">
        <ele>432.4</ele>
        <time>2025-09-09T13:14:40Z</time>
      </trkpt>
      <trkpt lat="45.88976" lon="4.41044">
        <ele>432.4</ele>
        <time>2025-09-09T13:14:41Z</time>
      </trkpt>
      <trkpt lat="45.88976" lon="4.41048">
        <ele>432.6</ele>
        <time>2025-09-09T13:14:42Z</time>
      </trkpt>
      <trkpt lat="45.88976" lon="4.41053">
        <ele>432.6</ele>
        <time>2025-09-09T13:14:43Z</time>
      </trkpt>
      <trkpt lat="45.88975" lon="4.41057">
        <ele>432.6</ele>
        <time>2025-09-09T13:14:44Z</time>
      </trkpt>
      <trkpt lat="45.88975" lon="4.41061">
        <ele>432.6</ele>
        <time>2025-09-09T13:14:45Z</time>
      </trkpt>
      <trkpt lat="45.88974" lon="4.41065">
        <ele>433</ele>
        <time>2025-09-09T13:14:46Z</time>
      </trkpt>
      <trkpt lat="45.88974" lon="4.4107">
        <ele>433.2</ele>
        <time>2025-09-09T13:14:47Z</time>
      </trkpt>
      <trkpt lat="45.88974" lon="4.41074">
        <ele>433.2</ele>
        <time>2025-09-09T13:14:48Z</time>
      </trkpt>
      <trkpt lat="45.88974" lon="4.41078">
        <ele>433.6</ele>
        <time>2025-09-09T13:14:49Z</time>
      </trkpt>
      <trkpt lat="45.88973" lon="4.41082">
        <ele>433.6</ele>
        <time>2025-09-09T13:14:50Z</time>
      </trkpt>
      <trkpt lat="45.88973" lon="4.41086">
        <ele>433.6</ele>
        <time>2025-09-09T13:14:51Z</time>
      </trkpt>
      <trkpt lat="45.88972" lon="4.41089">
        <ele>433.8</ele>
        <time>2025-09-09T13:14:52Z</time>
      </trkpt>
      <trkpt lat="45.88972" lon="4.41093">
        <ele>433.8</ele>
        <time>2025-09-09T13:14:53Z</time>
      </trkpt>
      <trkpt lat="45.88972" lon="4.41096">
        <ele>434.2</ele>
        <time>2025-09-09T13:14:54Z</time>
      </trkpt>
      <trkpt lat="45.88972" lon="4.41099">
        <ele>434.2</ele>
        <time>2025-09-09T13:14:55Z</time>
      </trkpt>
      <trkpt lat="45.88971" lon="4.41102">
        <ele>434.4</ele>
        <time>2025-09-09T13:14:56Z</time>
      </trkpt>
      <trkpt lat="45.88971" lon="4.41106">
        <ele>434.4</ele>
        <time>2025-09-09T13:14:57Z</time>
      </trkpt>
      <trkpt lat="45.8897" lon="4.41109">
        <ele>434.6</ele>
        <time>2025-09-09T13:14:58Z</time>
      </trkpt>
      <trkpt lat="45.8897" lon="4.41112">
        <ele>434.6</ele>
        <time>2025-09-09T13:14:59Z</time>
      </trkpt>
      <trkpt lat="45.8897" lon="4.41115">
        <ele>435</ele>
        <time>2025-09-09T13:15:00Z</time>
      </trkpt>
      <trkpt lat="45.88969" lon="4.41119">
        <ele>435</ele>
        <time>2025-09-09T13:15:01Z</time>
      </trkpt>
      <trkpt lat="45.8897" lon="4.4112">
        <ele>435.4</ele>
        <time>2025-09-09T13:15:02Z</time>
      </trkpt>
      <trkpt lat="45.8897" lon="4.41123">
        <ele>435.6</ele>
        <time>2025-09-09T13:15:03Z</time>
      </trkpt>
      <trkpt lat="45.8897" lon="4.41126">
        <ele>435.6</ele>
        <time>2025-09-09T13:15:04Z</time>
      </trkpt>
      <trkpt lat="45.8897" lon="4.41129">
        <ele>435.6</ele>
        <time>2025-09-09T13:15:05Z</time>
      </trkpt>
      <trkpt lat="45.8897" lon="4.41131">
        <ele>435.6</ele>
        <time>2025-09-09T13:15:06Z</time>
      </trkpt>
      <trkpt lat="45.8897" lon="4.41134">
        <ele>436</ele>
        <time>2025-09-09T13:15:07Z</time>
      </trkpt>
      <trkpt lat="45.8897" lon="4.41136">
        <ele>436</ele>
        <time>2025-09-09T13:15:08Z</time>
      </trkpt>
      <trkpt lat="45.8897" lon="4.41138">
        <ele>436.2</ele>
        <time>2025-09-09T13:15:09Z</time>
      </trkpt>
      <trkpt lat="45.88971" lon="4.4114">
        <ele>436.2</ele>
        <time>2025-09-09T13:15:10Z</time>
      </trkpt>
      <trkpt lat="45.88971" lon="4.41143">
        <ele>436.4</ele>
        <time>2025-09-09T13:15:11Z</time>
      </trkpt>
      <trkpt lat="45.88971" lon="4.41145">
        <ele>436.6</ele>
        <time>2025-09-09T13:15:12Z</time>
      </trkpt>
      <trkpt lat="45.88971" lon="4.41146">
        <ele>436.6</ele>
        <time>2025-09-09T13:15:13Z</time>
      </trkpt>
      <trkpt lat="45.88971" lon="4.41148">
        <ele>436.6</ele>
        <time>2025-09-09T13:15:14Z</time>
      </trkpt>
      <trkpt lat="45.88972" lon="4.4115">
        <ele>437</ele>
        <time>2025-09-09T13:15:15Z</time>
      </trkpt>
      <trkpt lat="45.88972" lon="4.41152">
        <ele>437</ele>
        <time>2025-09-09T13:15:16Z</time>
      </trkpt>
      <trkpt lat="45.88972" lon="4.41154">
        <ele>437.2</ele>
        <time>2025-09-09T13:15:17Z</time>
      </trkpt>
      <trkpt lat="45.88973" lon="4.41156">
        <ele>437.2</ele>
        <time>2025-09-09T13:15:18Z</time>
      </trkpt>
      <trkpt lat="45.88974" lon="4.41159">
        <ele>437.4</ele>
        <time>2025-09-09T13:15:19Z</time>
      </trkpt>
      <trkpt lat="45.88974" lon="4.41161">
        <ele>437.4</ele>
        <time>2025-09-09T13:15:20Z</time>
      </trkpt>
      <trkpt lat="45.88975" lon="4.41164">
        <ele>437.8</ele>
        <time>2025-09-09T13:15:21Z</time>
      </trkpt>
      <trkpt lat="45.88976" lon="4.41166">
        <ele>437.8</ele>
        <time>2025-09-09T13:15:22Z</time>
      </trkpt>
      <trkpt lat="45.88976" lon="4.41169">
        <ele>438.2</ele>
        <time>2025-09-09T13:15:23Z</time>
      </trkpt>
      <trkpt lat="45.88976" lon="4.41171">
        <ele>438.2</ele>
        <time>2025-09-09T13:15:24Z</time>
      </trkpt>
      <trkpt lat="45.88976" lon="4.41173">
        <ele>438.6</ele>
        <time>2025-09-09T13:15:25Z</time>
      </trkpt>
      <trkpt lat="45.88977" lon="4.41177">
        <ele>438.6</ele>
        <time>2025-09-09T13:15:26Z</time>
      </trkpt>
      <trkpt lat="45.88977" lon="4.41179">
        <ele>438.8</ele>
        <time>2025-09-09T13:15:27Z</time>
      </trkpt>
      <trkpt lat="45.88977" lon="4.41181">
        <ele>438.4</ele>
        <time>2025-09-09T13:15:28Z</time>
      </trkpt>
      <trkpt lat="45.88977" lon="4.41184">
        <ele>438.6</ele>
        <time>2025-09-09T13:15:29Z</time>
      </trkpt>
      <trkpt lat="45.88977" lon="4.41186">
        <ele>439</ele>
        <time>2025-09-09T13:15:30Z</time>
      </trkpt>
      <trkpt lat="45.88977" lon="4.41188">
        <ele>439</ele>
        <time>2025-09-09T13:15:31Z</time>
      </trkpt>
      <trkpt lat="45.88976" lon="4.4119">
        <ele>439.4</ele>
        <time>2025-09-09T13:15:32Z</time>
      </trkpt>
      <trkpt lat="45.88976" lon="4.41192">
        <ele>439.6</ele>
        <time>2025-09-09T13:15:33Z</time>
      </trkpt>
      <trkpt lat="45.88975" lon="4.41194">
        <ele>439.6</ele>
        <time>2025-09-09T13:15:34Z</time>
      </trkpt>
      <trkpt lat="45.88975" lon="4.41196">
        <ele>440.2</ele>
        <time>2025-09-09T13:15:35Z</time>
      </trkpt>
      <trkpt lat="45.88974" lon="4.41198">
        <ele>440.4</ele>
        <time>2025-09-09T13:15:36Z</time>
      </trkpt>
      <trkpt lat="45.88973" lon="4.412">
        <ele>440.8</ele>
        <time>2025-09-09T13:15:37Z</time>
      </trkpt>
      <trkpt lat="45.88972" lon="4.41202">
        <ele>440.8</ele>
        <time>2025-09-09T13:15:38Z</time>
      </trkpt>
      <trkpt lat="45.88971" lon="4.41204">
        <ele>441</ele>
        <time>2025-09-09T13:15:39Z</time>
      </trkpt>
      <trkpt lat="45.88971" lon="4.41205">
        <ele>441.2</ele>
        <time>2025-09-09T13:15:40Z</time>
      </trkpt>
      <trkpt lat="45.8897" lon="4.41207">
        <ele>441.2</ele>
        <time>2025-09-09T13:15:41Z</time>
      </trkpt>
      <trkpt lat="45.88969" lon="4.41208">
        <ele>441.4</ele>
        <time>2025-09-09T13:15:42Z</time>
      </trkpt>
      <trkpt lat="45.88968" lon="4.41209">
        <ele>441.4</ele>
        <time>2025-09-09T13:15:43Z</time>
      </trkpt>
      <trkpt lat="45.88967" lon="4.41211">
        <ele>441.6</ele>
        <time>2025-09-09T13:15:44Z</time>
      </trkpt>
      <trkpt lat="45.88966" lon="4.41212">
        <ele>441.6</ele>
        <time>2025-09-09T13:15:45Z</time>
      </trkpt>
      <trkpt lat="45.88965" lon="4.41213">
        <ele>442</ele>
        <time>2025-09-09T13:15:46Z</time>
      </trkpt>
      <trkpt lat="45.88964" lon="4.41214">
        <ele>442</ele>
        <time>2025-09-09T13:15:47Z</time>
      </trkpt>
      <trkpt lat="45.88962" lon="4.41215">
        <ele>442.2</ele>
        <time>2025-09-09T13:15:48Z</time>
      </trkpt>
      <trkpt lat="45.88962" lon="4.41215">
        <ele>442.2</ele>
        <time>2025-09-09T13:15:49Z</time>
      </trkpt>
      <trkpt lat="45.88961" lon="4.41216">
        <ele>442.6</ele>
        <time>2025-09-09T13:15:50Z</time>
      </trkpt>
      <trkpt lat="45.8896" lon="4.41217">
        <ele>442.6</ele>
        <time>2025-09-09T13:15:51Z</time>
      </trkpt>
      <trkpt lat="45.88959" lon="4.41217">
        <ele>442.6</ele>
        <time>2025-09-09T13:15:52Z</time>
      </trkpt>
      <trkpt lat="45.88958" lon="4.41217">
        <ele>443</ele>
        <time>2025-09-09T13:15:53Z</time>
      </trkpt>
      <trkpt lat="45.88957" lon="4.41218">
        <ele>443.2</ele>
        <time>2025-09-09T13:15:54Z</time>
      </trkpt>
      <trkpt lat="45.88956" lon="4.41219">
        <ele>443.2</ele>
        <time>2025-09-09T13:15:55Z</time>
      </trkpt>
      <trkpt lat="45.88954" lon="4.4122">
        <ele>443.4</ele>
        <time>2025-09-09T13:15:56Z</time>
      </trkpt>
      <trkpt lat="45.88953" lon="4.41221">
        <ele>443.4</ele>
        <time>2025-09-09T13:15:57Z</time>
      </trkpt>
      <trkpt lat="45.88951" lon="4.41222">
        <ele>443.6</ele>
        <time>2025-09-09T13:15:58Z</time>
      </trkpt>
      <trkpt lat="45.8895" lon="4.41222">
        <ele>443.6</ele>
        <time>2025-09-09T13:15:59Z</time>
      </trkpt>
      <trkpt lat="45.88949" lon="4.41222">
        <ele>444</ele>
        <time>2025-09-09T13:16:00Z</time>
      </trkpt>
      <trkpt lat="45.88947" lon="4.41223">
        <ele>444</ele>
        <time>2025-09-09T13:16:01Z</time>
      </trkpt>
      <trkpt lat="45.88946" lon="4.41223">
        <ele>444.2</ele>
        <time>2025-09-09T13:16:02Z</time>
      </trkpt>
      <trkpt lat="45.88945" lon="4.41223">
        <ele>444.4</ele>
        <time>2025-09-09T13:16:03Z</time>
      </trkpt>
      <trkpt lat="45.88943" lon="4.41223">
        <ele>444.4</ele>
        <time>2025-09-09T13:16:04Z</time>
      </trkpt>
      <trkpt lat="45.88942" lon="4.41223">
        <ele>444.8</ele>
        <time>2025-09-09T13:16:05Z</time>
      </trkpt>
      <trkpt lat="45.8894" lon="4.41223">
        <ele>444.8</ele>
        <time>2025-09-09T13:16:06Z</time>
      </trkpt>
      <trkpt lat="45.88939" lon="4.41223">
        <ele>445</ele>
        <time>2025-09-09T13:16:07Z</time>
      </trkpt>
      <trkpt lat="45.88938" lon="4.41223">
        <ele>445</ele>
        <time>2025-09-09T13:16:08Z</time>
      </trkpt>
      <trkpt lat="45.88937" lon="4.41223">
        <ele>445</ele>
        <time>2025-09-09T13:16:09Z</time>
      </trkpt>
      <trkpt lat="45.88936" lon="4.41223">
        <ele>445.4</ele>
        <time>2025-09-09T13:16:10Z</time>
      </trkpt>
      <trkpt lat="45.88936" lon="4.41224">
        <ele>445.4</ele>
        <time>2025-09-09T13:16:11Z</time>
      </trkpt>
      <trkpt lat="45.88935" lon="4.41224">
        <ele>445.6</ele>
        <time>2025-09-09T13:16:12Z</time>
      </trkpt>
      <trkpt lat="45.88935" lon="4.41224">
        <ele>445.6</ele>
        <time>2025-09-09T13:16:13Z</time>
      </trkpt>
      <trkpt lat="45.88935" lon="4.41224">
        <ele>445.6</ele>
        <time>2025-09-09T13:16:14Z</time>
      </trkpt>
      <trkpt lat="45.88935" lon="4.41224">
        <ele>446</ele>
        <time>2025-09-09T13:16:15Z</time>
      </trkpt>
      <trkpt lat="45.88855" lon="4.41259">
        <ele>453</ele>
        <time>2025-09-09T13:17:06Z</time>
      </trkpt>
      <trkpt lat="45.88854" lon="4.41258">
        <ele>453.2</ele>
        <time>2025-09-09T13:17:07Z</time>
      </trkpt>
      <trkpt lat="45.88852" lon="4.41256">
        <ele>453.2</ele>
        <time>2025-09-09T13:17:08Z</time>
      </trkpt>
      <trkpt lat="45.8885" lon="4.41254">
        <ele>453.2</ele>
        <time>2025-09-09T13:17:09Z</time>
      </trkpt>
      <trkpt lat="45.8885" lon="4.41251">
        <ele>453.6</ele>
        <time>2025-09-09T13:17:10Z</time>
      </trkpt>
      <trkpt lat="45.88849" lon="4.41248">
        <ele>453.6</ele>
        <time>2025-09-09T13:17:11Z</time>
      </trkpt>
      <trkpt lat="45.88848" lon="4.41245">
        <ele>453.6</ele>
        <time>2025-09-09T13:17:12Z</time>
      </trkpt>
      <trkpt lat="45.88848" lon="4.41242">
        <ele>453.6</ele>
        <time>2025-09-09T13:17:13Z</time>
      </trkpt>
      <trkpt lat="45.88847" lon="4.4124">
        <ele>453.6</ele>
        <time>2025-09-09T13:17:14Z</time>
      </trkpt>
      <trkpt lat="45.88847" lon="4.41237">
        <ele>454</ele>
        <time>2025-09-09T13:17:15Z</time>
      </trkpt>
      <trkpt lat="45.88846" lon="4.41234">
        <ele>454.2</ele>
        <time>2025-09-09T13:17:16Z</time>
      </trkpt>
      <trkpt lat="45.88845" lon="4.41232">
        <ele>454.4</ele>
        <time>2025-09-09T13:17:17Z</time>
      </trkpt>
      <trkpt lat="45.88844" lon="4.41229">
        <ele>454.4</ele>
        <time>2025-09-09T13:17:18Z</time>
      </trkpt>
      <trkpt lat="45.88843" lon="4.41228">
        <ele>454.6</ele>
        <time>2025-09-09T13:17:19Z</time>
      </trkpt>
      <trkpt lat="45.88843" lon="4.41226">
        <ele>454.6</ele>
        <time>2025-09-09T13:17:20Z</time>
      </trkpt>
      <trkpt lat="45.88842" lon="4.41225">
        <ele>455</ele>
        <time>2025-09-09T13:17:21Z</time>
      </trkpt>
      <trkpt lat="45.88841" lon="4.41224">
        <ele>455</ele>
        <time>2025-09-09T13:17:22Z</time>
      </trkpt>
      <trkpt lat="45.8884" lon="4.41222">
        <ele>455.4</ele>
        <time>2025-09-09T13:17:23Z</time>
      </trkpt>
      <trkpt lat="45.88839" lon="4.41221">
        <ele>455.4</ele>
        <time>2025-09-09T13:17:24Z</time>
      </trkpt>
      <trkpt lat="45.88838" lon="4.4122">
        <ele>455.6</ele>
        <time>2025-09-09T13:17:25Z</time>
      </trkpt>
      <trkpt lat="45.88837" lon="4.41219">
        <ele>455.6</ele>
        <time>2025-09-09T13:17:26Z</time>
      </trkpt>
      <trkpt lat="45.88837" lon="4.41217">
        <ele>455.6</ele>
        <time>2025-09-09T13:17:27Z</time>
      </trkpt>
      <trkpt lat="45.88836" lon="4.41216">
        <ele>456</ele>
        <time>2025-09-09T13:17:28Z</time>
      </trkpt>
      <trkpt lat="45.88835" lon="4.41214">
        <ele>456</ele>
        <time>2025-09-09T13:17:29Z</time>
      </trkpt>
      <trkpt lat="45.88834" lon="4.41213">
        <ele>456.2</ele>
        <time>2025-09-09T13:17:30Z</time>
      </trkpt>
      <trkpt lat="45.88833" lon="4.41212">
        <ele>456.2</ele>
        <time>2025-09-09T13:17:31Z</time>
      </trkpt>
      <trkpt lat="45.88831" lon="4.41211">
        <ele>456.6</ele>
        <time>2025-09-09T13:17:32Z</time>
      </trkpt>
      <trkpt lat="45.8883" lon="4.4121">
        <ele>456.6</ele>
        <time>2025-09-09T13:17:33Z</time>
      </trkpt>
      <trkpt lat="45.88829" lon="4.41209">
        <ele>457</ele>
        <time>2025-09-09T13:17:34Z</time>
      </trkpt>
      <trkpt lat="45.88827" lon="4.41209">
        <ele>457</ele>
        <time>2025-09-09T13:17:35Z</time>
      </trkpt>
      <trkpt lat="45.88826" lon="4.41207">
        <ele>457</ele>
        <time>2025-09-09T13:17:36Z</time>
      </trkpt>
      <trkpt lat="45.88826" lon="4.41205">
        <ele>457.2</ele>
        <time>2025-09-09T13:17:37Z</time>
      </trkpt>
      <trkpt lat="45.88825" lon="4.41203">
        <ele>457.4</ele>
        <time>2025-09-09T13:17:38Z</time>
      </trkpt>
      <trkpt lat="45.88825" lon="4.41202">
        <ele>457.4</ele>
        <time>2025-09-09T13:17:39Z</time>
      </trkpt>
      <trkpt lat="45.88824" lon="4.412">
        <ele>457.4</ele>
        <time>2025-09-09T13:17:40Z</time>
      </trkpt>
      <trkpt lat="45.88824" lon="4.41198">
        <ele>458</ele>
        <time>2025-09-09T13:17:41Z</time>
      </trkpt>
      <trkpt lat="45.88824" lon="4.41198">
        <ele>458</ele>
        <time>2025-09-09T13:17:42Z</time>
      </trkpt>
      <trkpt lat="45.88824" lon="4.41195">
        <ele>458.2</ele>
        <time>2025-09-09T13:17:43Z</time>
      </trkpt>
      <trkpt lat="45.88824" lon="4.41193">
        <ele>458.2</ele>
        <time>2025-09-09T13:17:44Z</time>
      </trkpt>
      <trkpt lat="45.88824" lon="4.41191">
        <ele>458.2</ele>
        <time>2025-09-09T13:17:45Z</time>
      </trkpt>
      <trkpt lat="45.88824" lon="4.41189">
        <ele>458.4</ele>
        <time>2025-09-09T13:17:46Z</time>
      </trkpt>
      <trkpt lat="45.88824" lon="4.41187">
        <ele>458.4</ele>
        <time>2025-09-09T13:17:47Z</time>
      </trkpt>
      <trkpt lat="45.88824" lon="4.41185">
        <ele>458.4</ele>
        <time>2025-09-09T13:17:48Z</time>
      </trkpt>
      <trkpt lat="45.88824" lon="4.41182">
        <ele>458.8</ele>
        <time>2025-09-09T13:17:49Z</time>
      </trkpt>
      <trkpt lat="45.88824" lon="4.41182">
        <ele>458.8</ele>
        <time>2025-09-09T13:17:50Z</time>
      </trkpt>
      <trkpt lat="45.88824" lon="4.41182">
        <ele>458.8</ele>
        <time>2025-09-09T13:17:51Z</time>
      </trkpt>
      <trkpt lat="45.88824" lon="4.4117">
        <ele>459</ele>
        <time>2025-09-09T13:17:53Z</time>
      </trkpt>
      <trkpt lat="45.88824" lon="4.41168">
        <ele>459.4</ele>
        <time>2025-09-09T13:17:54Z</time>
      </trkpt>
      <trkpt lat="45.88825" lon="4.41165">
        <ele>459.4</ele>
        <time>2025-09-09T13:17:55Z</time>
      </trkpt>
      <trkpt lat="45.88825" lon="4.41163">
        <ele>459.6</ele>
        <time>2025-09-09T13:17:56Z</time>
      </trkpt>
      <trkpt lat="45.88825" lon="4.4116">
        <ele>459.6</ele>
        <time>2025-09-09T13:17:57Z</time>
      </trkpt>
      <trkpt lat="45.88826" lon="4.41157">
        <ele>459.6</ele>
        <time>2025-09-09T13:17:58Z</time>
      </trkpt>
      <trkpt lat="45.88827" lon="4.41154">
        <ele>460</ele>
        <time>2025-09-09T13:17:59Z</time>
      </trkpt>
      <trkpt lat="45.88827" lon="4.41151">
        <ele>460</ele>
        <time>2025-09-09T13:18:00Z</time>
      </trkpt>
      <trkpt lat="45.88828" lon="4.41147">
        <ele>460</ele>
        <time>2025-09-09T13:18:01Z</time>
      </trkpt>
      <trkpt lat="45.88829" lon="4.41143">
        <ele>460.2</ele>
        <time>2025-09-09T13:18:02Z</time>
      </trkpt>
      <trkpt lat="45.88831" lon="4.41139">
        <ele>460.2</ele>
        <time>2025-09-09T13:18:03Z</time>
      </trkpt>
      <trkpt lat="45.88833" lon="4.41136">
        <ele>460.2</ele>
        <time>2025-09-09T13:18:04Z</time>
      </trkpt>
      <trkpt lat="45.88834" lon="4.41132">
        <ele>460.2</ele>
        <time>2025-09-09T13:18:05Z</time>
      </trkpt>
      <trkpt lat="45.88837" lon="4.41128">
        <ele>460.2</ele>
        <time>2025-09-09T13:18:06Z</time>
      </trkpt>
      <trkpt lat="45.88839" lon="4.41124">
        <ele>460.2</ele>
        <time>2025-09-09T13:18:07Z</time>
      </trkpt>
      <trkpt lat="45.88841" lon="4.41119">
        <ele>460.2</ele>
        <time>2025-09-09T13:18:08Z</time>
      </trkpt>
      <trkpt lat="45.88843" lon="4.41113">
        <ele>460.2</ele>
        <time>2025-09-09T13:18:09Z</time>
      </trkpt>
      <trkpt lat="45.88845" lon="4.41106">
        <ele>459.8</ele>
        <time>2025-09-09T13:18:10Z</time>
      </trkpt>
      <trkpt lat="45.88847" lon="4.411">
        <ele>459.8</ele>
        <time>2025-09-09T13:18:11Z</time>
      </trkpt>
      <trkpt lat="45.88849" lon="4.41093">
        <ele>459.8</ele>
        <time>2025-09-09T13:18:12Z</time>
      </trkpt>
      <trkpt lat="45.8885" lon="4.41084">
        <ele>459.4</ele>
        <time>2025-09-09T13:18:13Z</time>
      </trkpt>
      <trkpt lat="45.88849" lon="4.41074">
        <ele>459</ele>
        <time>2025-09-09T13:18:14Z</time>
      </trkpt>
      <trkpt lat="45.88849" lon="4.41074">
        <ele>459</ele>
        <time>2025-09-09T13:18:15Z</time>
      </trkpt>
      <trkpt lat="45.88848" lon="4.41064">
        <ele>458.4</ele>
        <time>2025-09-09T13:18:16Z</time>
      </trkpt>
      <trkpt lat="45.88845" lon="4.41053">
        <ele>458</ele>
        <time>2025-09-09T13:18:17Z</time>
      </trkpt>
      <trkpt lat="45.88842" lon="4.41042">
        <ele>457.6</ele>
        <time>2025-09-09T13:18:18Z</time>
      </trkpt>
      <trkpt lat="45.88837" lon="4.4103">
        <ele>457.2</ele>
        <time>2025-09-09T13:18:19Z</time>
      </trkpt>
      <trkpt lat="45.88832" lon="4.41018">
        <ele>456.2</ele>
        <time>2025-09-09T13:18:20Z</time>
      </trkpt>
      <trkpt lat="45.88826" lon="4.41006">
        <ele>455.4</ele>
        <time>2025-09-09T13:18:21Z</time>
      </trkpt>
      <trkpt lat="45.8882" lon="4.40994">
        <ele>454.6</ele>
        <time>2025-09-09T13:18:22Z</time>
      </trkpt>
      <trkpt lat="45.88813" lon="4.40983">
        <ele>453.6</ele>
        <time>2025-09-09T13:18:23Z</time>
      </trkpt>
      <trkpt lat="45.88805" lon="4.40971">
        <ele>452.6</ele>
        <time>2025-09-09T13:18:24Z</time>
      </trkpt>
      <trkpt lat="45.88796" lon="4.4096">
        <ele>452</ele>
        <time>2025-09-09T13:18:25Z</time>
      </trkpt>
      <trkpt lat="45.88787" lon="4.40949">
        <ele>451.4</ele>
        <time>2025-09-09T13:18:26Z</time>
      </trkpt>
      <trkpt lat="45.88779" lon="4.40939">
        <ele>450.8</ele>
        <time>2025-09-09T13:18:27Z</time>
      </trkpt>
      <trkpt lat="45.8877" lon="4.40928">
        <ele>450.2</ele>
        <time>2025-09-09T13:18:28Z</time>
      </trkpt>
      <trkpt lat="45.88762" lon="4.40918">
        <ele>449.8</ele>
        <time>2025-09-09T13:18:29Z</time>
      </trkpt>
      <trkpt lat="45.88753" lon="4.40908">
        <ele>449.2</ele>
        <time>2025-09-09T13:18:30Z</time>
      </trkpt>
      <trkpt lat="45.88744" lon="4.40897">
        <ele>448.6</ele>
        <time>2025-09-09T13:18:31Z</time>
      </trkpt>
      <trkpt lat="45.88736" lon="4.40887">
        <ele>448</ele>
        <time>2025-09-09T13:18:32Z</time>
      </trkpt>
      <trkpt lat="45.88729" lon="4.40875">
        <ele>447.8</ele>
        <time>2025-09-09T13:18:33Z</time>
      </trkpt>
      <trkpt lat="45.88722" lon="4.40862">
        <ele>447.4</ele>
        <time>2025-09-09T13:18:34Z</time>
      </trkpt>
      <trkpt lat="45.88716" lon="4.4085">
        <ele>447</ele>
        <time>2025-09-09T13:18:35Z</time>
      </trkpt>
      <trkpt lat="45.88711" lon="4.40837">
        <ele>446.6</ele>
        <time>2025-09-09T13:18:36Z</time>
      </trkpt>
      <trkpt lat="45.88706" lon="4.40824">
        <ele>446.4</ele>
        <time>2025-09-09T13:18:37Z</time>
      </trkpt>
      <trkpt lat="45.88702" lon="4.40809">
        <ele>446</ele>
        <time>2025-09-09T13:18:38Z</time>
      </trkpt>
      <trkpt lat="45.88699" lon="4.40795">
        <ele>445.6</ele>
        <time>2025-09-09T13:18:39Z</time>
      </trkpt>
      <trkpt lat="45.88697" lon="4.4078">
        <ele>445</ele>
        <time>2025-09-09T13:18:40Z</time>
      </trkpt>
      <trkpt lat="45.88697" lon="4.40766">
        <ele>444.8</ele>
        <time>2025-09-09T13:18:41Z</time>
      </trkpt>
      <trkpt lat="45.88697" lon="4.40751">
        <ele>444.4</ele>
        <time>2025-09-09T13:18:42Z</time>
      </trkpt>
      <trkpt lat="45.88697" lon="4.40736">
        <ele>444.2</ele>
        <time>2025-09-09T13:18:43Z</time>
      </trkpt>
      <trkpt lat="45.88696" lon="4.40722">
        <ele>444.2</ele>
        <time>2025-09-09T13:18:44Z</time>
      </trkpt>
      <trkpt lat="45.88695" lon="4.40708">
        <ele>443.8</ele>
        <time>2025-09-09T13:18:45Z</time>
      </trkpt>
      <trkpt lat="45.88692" lon="4.40695">
        <ele>443.8</ele>
        <time>2025-09-09T13:18:46Z</time>
      </trkpt>
      <trkpt lat="45.88689" lon="4.40684">
        <ele>443.6</ele>
        <time>2025-09-09T13:18:47Z</time>
      </trkpt>
      <trkpt lat="45.88684" lon="4.40673">
        <ele>443.8</ele>
        <time>2025-09-09T13:18:48Z</time>
      </trkpt>
      <trkpt lat="45.88681" lon="4.40664">
        <ele>444.2</ele>
        <time>2025-09-09T13:18:49Z</time>
      </trkpt>
      <trkpt lat="45.88677" lon="4.40655">
        <ele>444.6</ele>
        <time>2025-09-09T13:18:50Z</time>
      </trkpt>
      <trkpt lat="45.88674" lon="4.40647">
        <ele>444.8</ele>
        <time>2025-09-09T13:18:51Z</time>
      </trkpt>
      <trkpt lat="45.88671" lon="4.40639">
        <ele>445.2</ele>
        <time>2025-09-09T13:18:52Z</time>
      </trkpt>
      <trkpt lat="45.88668" lon="4.40632">
        <ele>445.6</ele>
        <time>2025-09-09T13:18:53Z</time>
      </trkpt>
      <trkpt lat="45.88665" lon="4.40626">
        <ele>446</ele>
        <time>2025-09-09T13:18:54Z</time>
      </trkpt>
      <trkpt lat="45.88663" lon="4.4062">
        <ele>446.2</ele>
        <time>2025-09-09T13:18:55Z</time>
      </trkpt>
      <trkpt lat="45.8866" lon="4.40615">
        <ele>446.4</ele>
        <time>2025-09-09T13:18:56Z</time>
      </trkpt>
      <trkpt lat="45.88659" lon="4.4061">
        <ele>446.8</ele>
        <time>2025-09-09T13:18:57Z</time>
      </trkpt>
      <trkpt lat="45.88657" lon="4.40605">
        <ele>447.2</ele>
        <time>2025-09-09T13:18:58Z</time>
      </trkpt>
      <trkpt lat="45.88655" lon="4.40601">
        <ele>447.6</ele>
        <time>2025-09-09T13:18:59Z</time>
      </trkpt>
      <trkpt lat="45.88654" lon="4.40597">
        <ele>447.6</ele>
        <time>2025-09-09T13:19:00Z</time>
      </trkpt>
      <trkpt lat="45.88653" lon="4.40594">
        <ele>448.2</ele>
        <time>2025-09-09T13:19:01Z</time>
      </trkpt>
      <trkpt lat="45.88653" lon="4.40586">
        <ele>448.4</ele>
        <time>2025-09-09T13:19:02Z</time>
      </trkpt>
      <trkpt lat="45.8865" lon="4.40583">
        <ele>448.6</ele>
        <time>2025-09-09T13:19:03Z</time>
      </trkpt>
      <trkpt lat="45.88649" lon="4.4058">
        <ele>448.6</ele>
        <time>2025-09-09T13:19:04Z</time>
      </trkpt>
      <trkpt lat="45.88648" lon="4.40576">
        <ele>449</ele>
        <time>2025-09-09T13:19:05Z</time>
      </trkpt>
      <trkpt lat="45.88647" lon="4.40574">
        <ele>449</ele>
        <time>2025-09-09T13:19:06Z</time>
      </trkpt>
      <trkpt lat="45.88646" lon="4.40571">
        <ele>449.2</ele>
        <time>2025-09-09T13:19:07Z</time>
      </trkpt>
      <trkpt lat="45.88644" lon="4.40568">
        <ele>449.2</ele>
        <time>2025-09-09T13:19:08Z</time>
      </trkpt>
      <trkpt lat="45.88644" lon="4.40565">
        <ele>449.2</ele>
        <time>2025-09-09T13:19:09Z</time>
      </trkpt>
      <trkpt lat="45.88643" lon="4.40562">
        <ele>449.6</ele>
        <time>2025-09-09T13:19:10Z</time>
      </trkpt>
      <trkpt lat="45.88642" lon="4.4056">
        <ele>449.8</ele>
        <time>2025-09-09T13:19:11Z</time>
      </trkpt>
      <trkpt lat="45.88642" lon="4.40557">
        <ele>450</ele>
        <time>2025-09-09T13:19:12Z</time>
      </trkpt>
      <trkpt lat="45.88641" lon="4.40554">
        <ele>450</ele>
        <time>2025-09-09T13:19:13Z</time>
      </trkpt>
      <trkpt lat="45.8864" lon="4.40551">
        <ele>450.4</ele>
        <time>2025-09-09T13:19:14Z</time>
      </trkpt>
      <trkpt lat="45.88639" lon="4.40549">
        <ele>450.4</ele>
        <time>2025-09-09T13:19:15Z</time>
      </trkpt>
      <trkpt lat="45.88638" lon="4.40547">
        <ele>450.4</ele>
        <time>2025-09-09T13:19:16Z</time>
      </trkpt>
      <trkpt lat="45.88638" lon="4.40544">
        <ele>450.8</ele>
        <time>2025-09-09T13:19:17Z</time>
      </trkpt>
      <trkpt lat="45.88637" lon="4.40542">
        <ele>450.8</ele>
        <time>2025-09-09T13:19:18Z</time>
      </trkpt>
      <trkpt lat="45.88637" lon="4.4054">
        <ele>451.2</ele>
        <time>2025-09-09T13:19:19Z</time>
      </trkpt>
      <trkpt lat="45.88636" lon="4.40537">
        <ele>451.2</ele>
        <time>2025-09-09T13:19:20Z</time>
      </trkpt>
      <trkpt lat="45.88635" lon="4.40535">
        <ele>451.6</ele>
        <time>2025-09-09T13:19:21Z</time>
      </trkpt>
      <trkpt lat="45.88635" lon="4.40533">
        <ele>451.6</ele>
        <time>2025-09-09T13:19:22Z</time>
      </trkpt>
      <trkpt lat="45.88634" lon="4.40531">
        <ele>451.8</ele>
        <time>2025-09-09T13:19:23Z</time>
      </trkpt>
      <trkpt lat="45.88633" lon="4.40529">
        <ele>452.2</ele>
        <time>2025-09-09T13:19:24Z</time>
      </trkpt>
      <trkpt lat="45.88632" lon="4.40527">
        <ele>452.2</ele>
        <time>2025-09-09T13:19:25Z</time>
      </trkpt>
      <trkpt lat="45.88631" lon="4.40525">
        <ele>452.2</ele>
        <time>2025-09-09T13:19:26Z</time>
      </trkpt>
      <trkpt lat="45.8863" lon="4.40523">
        <ele>452.2</ele>
        <time>2025-09-09T13:19:27Z</time>
      </trkpt>
      <trkpt lat="45.88629" lon="4.40521">
        <ele>452.4</ele>
        <time>2025-09-09T13:19:28Z</time>
      </trkpt>
      <trkpt lat="45.88629" lon="4.40519">
        <ele>452.4</ele>
        <time>2025-09-09T13:19:29Z</time>
      </trkpt>
      <trkpt lat="45.88628" lon="4.40517">
        <ele>452.4</ele>
        <time>2025-09-09T13:19:30Z</time>
      </trkpt>
      <trkpt lat="45.88627" lon="4.40514">
        <ele>452.8</ele>
        <time>2025-09-09T13:19:31Z</time>
      </trkpt>
      <trkpt lat="45.88626" lon="4.40512">
        <ele>452.8</ele>
        <time>2025-09-09T13:19:32Z</time>
      </trkpt>
      <trkpt lat="45.88625" lon="4.40509">
        <ele>453</ele>
        <time>2025-09-09T13:19:33Z</time>
      </trkpt>
      <trkpt lat="45.88624" lon="4.40506">
        <ele>453</ele>
        <time>2025-09-09T13:19:34Z</time>
      </trkpt>
      <trkpt lat="45.88624" lon="4.40504">
        <ele>453.2</ele>
        <time>2025-09-09T13:19:35Z</time>
      </trkpt>
      <trkpt lat="45.88623" lon="4.40501">
        <ele>453.2</ele>
        <time>2025-09-09T13:19:36Z</time>
      </trkpt>
      <trkpt lat="45.88623" lon="4.40498">
        <ele>453.4</ele>
        <time>2025-09-09T13:19:37Z</time>
      </trkpt>
      <trkpt lat="45.88622" lon="4.40495">
        <ele>453.6</ele>
        <time>2025-09-09T13:19:38Z</time>
      </trkpt>
      <trkpt lat="45.88621" lon="4.40493">
        <ele>453.8</ele>
        <time>2025-09-09T13:19:39Z</time>
      </trkpt>
      <trkpt lat="45.8862" lon="4.40491">
        <ele>454</ele>
        <time>2025-09-09T13:19:40Z</time>
      </trkpt>
      <trkpt lat="45.88619" lon="4.40489">
        <ele>454</ele>
        <time>2025-09-09T13:19:41Z</time>
      </trkpt>
      <trkpt lat="45.88619" lon="4.40489">
        <ele>454.4</ele>
        <time>2025-09-09T13:19:42Z</time>
      </trkpt>
      <trkpt lat="45.88619" lon="4.40486">
        <ele>454.4</ele>
        <time>2025-09-09T13:19:43Z</time>
      </trkpt>
      <trkpt lat="45.88618" lon="4.40484">
        <ele>454.6</ele>
        <time>2025-09-09T13:19:44Z</time>
      </trkpt>
      <trkpt lat="45.88617" lon="4.40482">
        <ele>455</ele>
        <time>2025-09-09T13:19:45Z</time>
      </trkpt>
      <trkpt lat="45.88617" lon="4.40479">
        <ele>455</ele>
        <time>2025-09-09T13:19:46Z</time>
      </trkpt>
      <trkpt lat="45.88616" lon="4.40477">
        <ele>455.2</ele>
        <time>2025-09-09T13:19:47Z</time>
      </trkpt>
      <trkpt lat="45.88616" lon="4.40476">
        <ele>455.2</ele>
        <time>2025-09-09T13:19:48Z</time>
      </trkpt>
      <trkpt lat="45.88615" lon="4.40474">
        <ele>455.2</ele>
        <time>2025-09-09T13:19:49Z</time>
      </trkpt>
      <trkpt lat="45.88614" lon="4.40472">
        <ele>455.6</ele>
        <time>2025-09-09T13:19:50Z</time>
      </trkpt>
      <trkpt lat="45.88614" lon="4.4047">
        <ele>455.6</ele>
        <time>2025-09-09T13:19:51Z</time>
      </trkpt>
      <trkpt lat="45.88613" lon="4.40468">
        <ele>456</ele>
        <time>2025-09-09T13:19:52Z</time>
      </trkpt>
      <trkpt lat="45.88612" lon="4.40466">
        <ele>456.2</ele>
        <time>2025-09-09T13:19:53Z</time>
      </trkpt>
      <trkpt lat="45.88611" lon="4.40465">
        <ele>456.4</ele>
        <time>2025-09-09T13:19:54Z</time>
      </trkpt>
      <trkpt lat="45.8861" lon="4.40463">
        <ele>456.4</ele>
        <time>2025-09-09T13:19:55Z</time>
      </trkpt>
      <trkpt lat="45.88609" lon="4.4046">
        <ele>456.8</ele>
        <time>2025-09-09T13:19:56Z</time>
      </trkpt>
      <trkpt lat="45.88609" lon="4.40458">
        <ele>456.8</ele>
        <time>2025-09-09T13:19:57Z</time>
      </trkpt>
      <trkpt lat="45.88609" lon="4.40456">
        <ele>457</ele>
        <time>2025-09-09T13:19:58Z</time>
      </trkpt>
      <trkpt lat="45.88608" lon="4.40454">
        <ele>457</ele>
        <time>2025-09-09T13:19:59Z</time>
      </trkpt>
      <trkpt lat="45.88607" lon="4.40451">
        <ele>457</ele>
        <time>2025-09-09T13:20:00Z</time>
      </trkpt>
      <trkpt lat="45.88606" lon="4.40449">
        <ele>457.4</ele>
        <time>2025-09-09T13:20:01Z</time>
      </trkpt>
      <trkpt lat="45.88606" lon="4.40447">
        <ele>457.4</ele>
        <time>2025-09-09T13:20:02Z</time>
      </trkpt>
      <trkpt lat="45.88605" lon="4.40445">
        <ele>457.4</ele>
        <time>2025-09-09T13:20:03Z</time>
      </trkpt>
      <trkpt lat="45.88604" lon="4.40443">
        <ele>457.4</ele>
        <time>2025-09-09T13:20:04Z</time>
      </trkpt>
      <trkpt lat="45.88603" lon="4.40441">
        <ele>457.6</ele>
        <time>2025-09-09T13:20:05Z</time>
      </trkpt>
      <trkpt lat="45.88602" lon="4.40439">
        <ele>457.6</ele>
        <time>2025-09-09T13:20:06Z</time>
      </trkpt>
      <trkpt lat="45.886" lon="4.40437">
        <ele>457.8</ele>
        <time>2025-09-09T13:20:07Z</time>
      </trkpt>
      <trkpt lat="45.88599" lon="4.40435">
        <ele>457.8</ele>
        <time>2025-09-09T13:20:08Z</time>
      </trkpt>
      <trkpt lat="45.88598" lon="4.40434">
        <ele>458</ele>
        <time>2025-09-09T13:20:09Z</time>
      </trkpt>
      <trkpt lat="45.88598" lon="4.40432">
        <ele>458</ele>
        <time>2025-09-09T13:20:10Z</time>
      </trkpt>
      <trkpt lat="45.88597" lon="4.4043">
        <ele>458</ele>
        <time>2025-09-09T13:20:11Z</time>
      </trkpt>
      <trkpt lat="45.88596" lon="4.40428">
        <ele>458.4</ele>
        <time>2025-09-09T13:20:12Z</time>
      </trkpt>
      <trkpt lat="45.88596" lon="4.40426">
        <ele>458.6</ele>
        <time>2025-09-09T13:20:13Z</time>
      </trkpt>
      <trkpt lat="45.88595" lon="4.40424">
        <ele>458.6</ele>
        <time>2025-09-09T13:20:14Z</time>
      </trkpt>
      <trkpt lat="45.88594" lon="4.40423">
        <ele>459</ele>
        <time>2025-09-09T13:20:15Z</time>
      </trkpt>
      <trkpt lat="45.88593" lon="4.40421">
        <ele>459</ele>
        <time>2025-09-09T13:20:16Z</time>
      </trkpt>
      <trkpt lat="45.88592" lon="4.40419">
        <ele>459</ele>
        <time>2025-09-09T13:20:17Z</time>
      </trkpt>
      <trkpt lat="45.88591" lon="4.40417">
        <ele>459.2</ele>
        <time>2025-09-09T13:20:18Z</time>
      </trkpt>
      <trkpt lat="45.8859" lon="4.40415">
        <ele>459.2</ele>
        <time>2025-09-09T13:20:19Z</time>
      </trkpt>
      <trkpt lat="45.8859" lon="4.40413">
        <ele>459.2</ele>
        <time>2025-09-09T13:20:20Z</time>
      </trkpt>
      <trkpt lat="45.88589" lon="4.40411">
        <ele>459.2</ele>
        <time>2025-09-09T13:20:21Z</time>
      </trkpt>
      <trkpt lat="45.88588" lon="4.4041">
        <ele>459.4</ele>
        <time>2025-09-09T13:20:22Z</time>
      </trkpt>
      <trkpt lat="45.88586" lon="4.40408">
        <ele>459.4</ele>
        <time>2025-09-09T13:20:23Z</time>
      </trkpt>
      <trkpt lat="45.88585" lon="4.40407">
        <ele>459.4</ele>
        <time>2025-09-09T13:20:24Z</time>
      </trkpt>
      <trkpt lat="45.88583" lon="4.40406">
        <ele>459.8</ele>
        <time>2025-09-09T13:20:25Z</time>
      </trkpt>
      <trkpt lat="45.88582" lon="4.40404">
        <ele>459.8</ele>
        <time>2025-09-09T13:20:26Z</time>
      </trkpt>
      <trkpt lat="45.88582" lon="4.40402">
        <ele>460</ele>
        <time>2025-09-09T13:20:27Z</time>
      </trkpt>
      <trkpt lat="45.88581" lon="4.40401">
        <ele>460</ele>
        <time>2025-09-09T13:20:28Z</time>
      </trkpt>
      <trkpt lat="45.88581" lon="4.40399">
        <ele>460.4</ele>
        <time>2025-09-09T13:20:29Z</time>
      </trkpt>
      <trkpt lat="45.8858" lon="4.40397">
        <ele>460.4</ele>
        <time>2025-09-09T13:20:30Z</time>
      </trkpt>
      <trkpt lat="45.8858" lon="4.40395">
        <ele>460.6</ele>
        <time>2025-09-09T13:20:31Z</time>
      </trkpt>
      <trkpt lat="45.88579" lon="4.40393">
        <ele>460.6</ele>
        <time>2025-09-09T13:20:32Z</time>
      </trkpt>
      <trkpt lat="45.88579" lon="4.40391">
        <ele>461</ele>
        <time>2025-09-09T13:20:33Z</time>
      </trkpt>
      <trkpt lat="45.88578" lon="4.40389">
        <ele>461</ele>
        <time>2025-09-09T13:20:34Z</time>
      </trkpt>
      <trkpt lat="45.88577" lon="4.40388">
        <ele>461.2</ele>
        <time>2025-09-09T13:20:35Z</time>
      </trkpt>
      <trkpt lat="45.88576" lon="4.40387">
        <ele>461.2</ele>
        <time>2025-09-09T13:20:36Z</time>
      </trkpt>
      <trkpt lat="45.88575" lon="4.40386">
        <ele>461.2</ele>
        <time>2025-09-09T13:20:37Z</time>
      </trkpt>
      <trkpt lat="45.88573" lon="4.40384">
        <ele>461.4</ele>
        <time>2025-09-09T13:20:38Z</time>
      </trkpt>
      <trkpt lat="45.88573" lon="4.40383">
        <ele>461.4</ele>
        <time>2025-09-09T13:20:39Z</time>
      </trkpt>
      <trkpt lat="45.88572" lon="4.40382">
        <ele>461.4</ele>
        <time>2025-09-09T13:20:40Z</time>
      </trkpt>
      <trkpt lat="45.88571" lon="4.4038">
        <ele>461.8</ele>
        <time>2025-09-09T13:20:41Z</time>
      </trkpt>
      <trkpt lat="45.8857" lon="4.40378">
        <ele>461.8</ele>
        <time>2025-09-09T13:20:42Z</time>
      </trkpt>
      <trkpt lat="45.88569" lon="4.40377">
        <ele>461.8</ele>
        <time>2025-09-09T13:20:43Z</time>
      </trkpt>
      <trkpt lat="45.88568" lon="4.40375">
        <ele>462.2</ele>
        <time>2025-09-09T13:20:44Z</time>
      </trkpt>
      <trkpt lat="45.88568" lon="4.40374">
        <ele>462.4</ele>
        <time>2025-09-09T13:20:45Z</time>
      </trkpt>
      <trkpt lat="45.88567" lon="4.40372">
        <ele>462.6</ele>
        <time>2025-09-09T13:20:46Z</time>
      </trkpt>
      <trkpt lat="45.88566" lon="4.40371">
        <ele>462.6</ele>
        <time>2025-09-09T13:20:47Z</time>
      </trkpt>
      <trkpt lat="45.88565" lon="4.40369">
        <ele>462.6</ele>
        <time>2025-09-09T13:20:48Z</time>
      </trkpt>
      <trkpt lat="45.88564" lon="4.40368">
        <ele>462.8</ele>
        <time>2025-09-09T13:20:49Z</time>
      </trkpt>
      <trkpt lat="45.88564" lon="4.40366">
        <ele>463</ele>
        <time>2025-09-09T13:20:50Z</time>
      </trkpt>
      <trkpt lat="45.88563" lon="4.40364">
        <ele>463</ele>
        <time>2025-09-09T13:20:51Z</time>
      </trkpt>
      <trkpt lat="45.88563" lon="4.40362">
        <ele>463</ele>
        <time>2025-09-09T13:20:52Z</time>
      </trkpt>
      <trkpt lat="45.88562" lon="4.4036">
        <ele>463.2</ele>
        <time>2025-09-09T13:20:53Z</time>
      </trkpt>
      <trkpt lat="45.88562" lon="4.40358">
        <ele>463.2</ele>
        <time>2025-09-09T13:20:54Z</time>
      </trkpt>
      <trkpt lat="45.88562" lon="4.40356">
        <ele>463.4</ele>
        <time>2025-09-09T13:20:55Z</time>
      </trkpt>
      <trkpt lat="45.88561" lon="4.40354">
        <ele>463.8</ele>
        <time>2025-09-09T13:20:56Z</time>
      </trkpt>
      <trkpt lat="45.8856" lon="4.40352">
        <ele>462.4</ele>
        <time>2025-09-09T13:20:57Z</time>
      </trkpt>
      <trkpt lat="45.8856" lon="4.40351">
        <ele>463</ele>
        <time>2025-09-09T13:20:58Z</time>
      </trkpt>
      <trkpt lat="45.88559" lon="4.40349">
        <ele>463.2</ele>
        <time>2025-09-09T13:20:59Z</time>
      </trkpt>
      <trkpt lat="45.88558" lon="4.40347">
        <ele>463.6</ele>
        <time>2025-09-09T13:21:00Z</time>
      </trkpt>
      <trkpt lat="45.88557" lon="4.40345">
        <ele>463.6</ele>
        <time>2025-09-09T13:21:01Z</time>
      </trkpt>
      <trkpt lat="45.88557" lon="4.40343">
        <ele>463.6</ele>
        <time>2025-09-09T13:21:02Z</time>
      </trkpt>
      <trkpt lat="45.88556" lon="4.40341">
        <ele>463.8</ele>
        <time>2025-09-09T13:21:03Z</time>
      </trkpt>
      <trkpt lat="45.88556" lon="4.40339">
        <ele>463.8</ele>
        <time>2025-09-09T13:21:04Z</time>
      </trkpt>
      <trkpt lat="45.88555" lon="4.40337">
        <ele>464.2</ele>
        <time>2025-09-09T13:21:05Z</time>
      </trkpt>
      <trkpt lat="45.88553" lon="4.40334">
        <ele>464.2</ele>
        <time>2025-09-09T13:21:06Z</time>
      </trkpt>
      <trkpt lat="45.88552" lon="4.40333">
        <ele>464.4</ele>
        <time>2025-09-09T13:21:07Z</time>
      </trkpt>
      <trkpt lat="45.88551" lon="4.40331">
        <ele>464.4</ele>
        <time>2025-09-09T13:21:08Z</time>
      </trkpt>
      <trkpt lat="45.8855" lon="4.40329">
        <ele>464.8</ele>
        <time>2025-09-09T13:21:09Z</time>
      </trkpt>
      <trkpt lat="45.88548" lon="4.40326">
        <ele>464.8</ele>
        <time>2025-09-09T13:21:10Z</time>
      </trkpt>
      <trkpt lat="45.88547" lon="4.40324">
        <ele>464.8</ele>
        <time>2025-09-09T13:21:11Z</time>
      </trkpt>
      <trkpt lat="45.88546" lon="4.40322">
        <ele>465</ele>
        <time>2025-09-09T13:21:12Z</time>
      </trkpt>
      <trkpt lat="45.88545" lon="4.40319">
        <ele>465</ele>
        <time>2025-09-09T13:21:13Z</time>
      </trkpt>
      <trkpt lat="45.88544" lon="4.40317">
        <ele>465.4</ele>
        <time>2025-09-09T13:21:14Z</time>
      </trkpt>
      <trkpt lat="45.88543" lon="4.40315">
        <ele>465.6</ele>
        <time>2025-09-09T13:21:15Z</time>
      </trkpt>
      <trkpt lat="45.88542" lon="4.40314">
        <ele>465.6</ele>
        <time>2025-09-09T13:21:16Z</time>
      </trkpt>
      <trkpt lat="45.88542" lon="4.40312">
        <ele>465.8</ele>
        <time>2025-09-09T13:21:17Z</time>
      </trkpt>
      <trkpt lat="45.88541" lon="4.4031">
        <ele>465.8</ele>
        <time>2025-09-09T13:21:18Z</time>
      </trkpt>
      <trkpt lat="45.8854" lon="4.40308">
        <ele>465.8</ele>
        <time>2025-09-09T13:21:19Z</time>
      </trkpt>
      <trkpt lat="45.88539" lon="4.40306">
        <ele>466</ele>
        <time>2025-09-09T13:21:20Z</time>
      </trkpt>
      <trkpt lat="45.88539" lon="4.40304">
        <ele>466</ele>
        <time>2025-09-09T13:21:21Z</time>
      </trkpt>
      <trkpt lat="45.88538" lon="4.40302">
        <ele>466</ele>
        <time>2025-09-09T13:21:22Z</time>
      </trkpt>
      <trkpt lat="45.88538" lon="4.403">
        <ele>466</ele>
        <time>2025-09-09T13:21:23Z</time>
      </trkpt>
      <trkpt lat="45.88537" lon="4.40299">
        <ele>466.2</ele>
        <time>2025-09-09T13:21:24Z</time>
      </trkpt>
      <trkpt lat="45.88537" lon="4.40297">
        <ele>466.2</ele>
        <time>2025-09-09T13:21:25Z</time>
      </trkpt>
      <trkpt lat="45.88536" lon="4.40295">
        <ele>466.6</ele>
        <time>2025-09-09T13:21:26Z</time>
      </trkpt>
      <trkpt lat="45.88535" lon="4.40293">
        <ele>466.6</ele>
        <time>2025-09-09T13:21:27Z</time>
      </trkpt>
      <trkpt lat="45.88534" lon="4.40291">
        <ele>466.6</ele>
        <time>2025-09-09T13:21:28Z</time>
      </trkpt>
      <trkpt lat="45.88533" lon="4.4029">
        <ele>466.8</ele>
        <time>2025-09-09T13:21:29Z</time>
      </trkpt>
      <trkpt lat="45.88534" lon="4.40288">
        <ele>466.8</ele>
        <time>2025-09-09T13:21:30Z</time>
      </trkpt>
      <trkpt lat="45.88534" lon="4.40285">
        <ele>466.8</ele>
        <time>2025-09-09T13:21:31Z</time>
      </trkpt>
      <trkpt lat="45.88535" lon="4.40283">
        <ele>467</ele>
        <time>2025-09-09T13:21:32Z</time>
      </trkpt>
      <trkpt lat="45.88535" lon="4.40282">
        <ele>467</ele>
        <time>2025-09-09T13:21:33Z</time>
      </trkpt>
      <trkpt lat="45.88535" lon="4.40279">
        <ele>467.4</ele>
        <time>2025-09-09T13:21:34Z</time>
      </trkpt>
      <trkpt lat="45.88535" lon="4.40277">
        <ele>467.6</ele>
        <time>2025-09-09T13:21:35Z</time>
      </trkpt>
      <trkpt lat="45.88535" lon="4.40275">
        <ele>467.6</ele>
        <time>2025-09-09T13:21:36Z</time>
      </trkpt>
      <trkpt lat="45.88535" lon="4.40274">
        <ele>467.6</ele>
        <time>2025-09-09T13:21:37Z</time>
      </trkpt>
      <trkpt lat="45.88535" lon="4.40272">
        <ele>468</ele>
        <time>2025-09-09T13:21:38Z</time>
      </trkpt>
      <trkpt lat="45.88536" lon="4.4027">
        <ele>468</ele>
        <time>2025-09-09T13:21:39Z</time>
      </trkpt>
      <trkpt lat="45.88536" lon="4.40267">
        <ele>468.4</ele>
        <time>2025-09-09T13:21:40Z</time>
      </trkpt>
      <trkpt lat="45.88536" lon="4.40266">
        <ele>468.4</ele>
        <time>2025-09-09T13:21:41Z</time>
      </trkpt>
      <trkpt lat="45.88535" lon="4.40264">
        <ele>468.4</ele>
        <time>2025-09-09T13:21:42Z</time>
      </trkpt>
      <trkpt lat="45.88535" lon="4.40262">
        <ele>468.6</ele>
        <time>2025-09-09T13:21:43Z</time>
      </trkpt>
      <trkpt lat="45.88535" lon="4.40259">
        <ele>468.8</ele>
        <time>2025-09-09T13:21:44Z</time>
      </trkpt>
      <trkpt lat="45.88534" lon="4.40257">
        <ele>468.8</ele>
        <time>2025-09-09T13:21:45Z</time>
      </trkpt>
      <trkpt lat="45.88534" lon="4.40255">
        <ele>469</ele>
        <time>2025-09-09T13:21:46Z</time>
      </trkpt>
      <trkpt lat="45.88534" lon="4.40253">
        <ele>469.2</ele>
        <time>2025-09-09T13:21:47Z</time>
      </trkpt>
      <trkpt lat="45.88533" lon="4.40251">
        <ele>469.2</ele>
        <time>2025-09-09T13:21:48Z</time>
      </trkpt>
      <trkpt lat="45.88533" lon="4.40249">
        <ele>469.4</ele>
        <time>2025-09-09T13:21:49Z</time>
      </trkpt>
      <trkpt lat="45.88532" lon="4.40247">
        <ele>469.4</ele>
        <time>2025-09-09T13:21:50Z</time>
      </trkpt>
      <trkpt lat="45.88532" lon="4.40245">
        <ele>469.8</ele>
        <time>2025-09-09T13:21:51Z</time>
      </trkpt>
      <trkpt lat="45.88531" lon="4.40243">
        <ele>469.8</ele>
        <time>2025-09-09T13:21:52Z</time>
      </trkpt>
      <trkpt lat="45.88531" lon="4.40241">
        <ele>470</ele>
        <time>2025-09-09T13:21:53Z</time>
      </trkpt>
      <trkpt lat="45.8853" lon="4.40239">
        <ele>470</ele>
        <time>2025-09-09T13:21:54Z</time>
      </trkpt>
      <trkpt lat="45.8853" lon="4.40237">
        <ele>470</ele>
        <time>2025-09-09T13:21:55Z</time>
      </trkpt>
      <trkpt lat="45.88529" lon="4.40235">
        <ele>470</ele>
        <time>2025-09-09T13:21:56Z</time>
      </trkpt>
      <trkpt lat="45.88528" lon="4.40233">
        <ele>470.4</ele>
        <time>2025-09-09T13:21:57Z</time>
      </trkpt>
      <trkpt lat="45.88528" lon="4.40231">
        <ele>470.4</ele>
        <time>2025-09-09T13:21:58Z</time>
      </trkpt>
      <trkpt lat="45.88527" lon="4.40229">
        <ele>470.8</ele>
        <time>2025-09-09T13:21:59Z</time>
      </trkpt>
      <trkpt lat="45.88527" lon="4.40227">
        <ele>470.8</ele>
        <time>2025-09-09T13:22:00Z</time>
      </trkpt>
      <trkpt lat="45.88526" lon="4.40225">
        <ele>471</ele>
        <time>2025-09-09T13:22:01Z</time>
      </trkpt>
      <trkpt lat="45.88525" lon="4.40223">
        <ele>471</ele>
        <time>2025-09-09T13:22:02Z</time>
      </trkpt>
      <trkpt lat="45.88523" lon="4.40219">
        <ele>471.2</ele>
        <time>2025-09-09T13:22:03Z</time>
      </trkpt>
      <trkpt lat="45.88523" lon="4.40217">
        <ele>471.2</ele>
        <time>2025-09-09T13:22:04Z</time>
      </trkpt>
      <trkpt lat="45.88521" lon="4.40216">
        <ele>471.4</ele>
        <time>2025-09-09T13:22:05Z</time>
      </trkpt>
      <trkpt lat="45.8852" lon="4.40214">
        <ele>471.4</ele>
        <time>2025-09-09T13:22:06Z</time>
      </trkpt>
      <trkpt lat="45.88519" lon="4.40212">
        <ele>471.6</ele>
        <time>2025-09-09T13:22:07Z</time>
      </trkpt>
      <trkpt lat="45.88518" lon="4.4021">
        <ele>471.6</ele>
        <time>2025-09-09T13:22:08Z</time>
      </trkpt>
      <trkpt lat="45.88518" lon="4.40208">
        <ele>471.6</ele>
        <time>2025-09-09T13:22:09Z</time>
      </trkpt>
      <trkpt lat="45.88518" lon="4.40206">
        <ele>471.6</ele>
        <time>2025-09-09T13:22:10Z</time>
      </trkpt>
      <trkpt lat="45.88517" lon="4.40205">
        <ele>471.8</ele>
        <time>2025-09-09T13:22:11Z</time>
      </trkpt>
      <trkpt lat="45.88517" lon="4.40203">
        <ele>472.2</ele>
        <time>2025-09-09T13:22:12Z</time>
      </trkpt>
      <trkpt lat="45.88516" lon="4.40201">
        <ele>472.2</ele>
        <time>2025-09-09T13:22:13Z</time>
      </trkpt>
      <trkpt lat="45.88516" lon="4.40199">
        <ele>472.4</ele>
        <time>2025-09-09T13:22:14Z</time>
      </trkpt>
      <trkpt lat="45.88515" lon="4.40197">
        <ele>472.4</ele>
        <time>2025-09-09T13:22:15Z</time>
      </trkpt>
      <trkpt lat="45.88514" lon="4.40196">
        <ele>472.6</ele>
        <time>2025-09-09T13:22:16Z</time>
      </trkpt>
      <trkpt lat="45.88513" lon="4.40194">
        <ele>472.6</ele>
        <time>2025-09-09T13:22:17Z</time>
      </trkpt>
      <trkpt lat="45.88512" lon="4.40192">
        <ele>473</ele>
        <time>2025-09-09T13:22:18Z</time>
      </trkpt>
      <trkpt lat="45.88512" lon="4.40189">
        <ele>473</ele>
        <time>2025-09-09T13:22:19Z</time>
      </trkpt>
      <trkpt lat="45.88512" lon="4.40187">
        <ele>473</ele>
        <time>2025-09-09T13:22:20Z</time>
      </trkpt>
      <trkpt lat="45.88511" lon="4.40185">
        <ele>473</ele>
        <time>2025-09-09T13:22:21Z</time>
      </trkpt>
      <trkpt lat="45.8851" lon="4.40182">
        <ele>473.2</ele>
        <time>2025-09-09T13:22:22Z</time>
      </trkpt>
      <trkpt lat="45.88509" lon="4.4018">
        <ele>473.2</ele>
        <time>2025-09-09T13:22:23Z</time>
      </trkpt>
      <trkpt lat="45.88509" lon="4.40179">
        <ele>473.4</ele>
        <time>2025-09-09T13:22:24Z</time>
      </trkpt>
      <trkpt lat="45.88508" lon="4.40177">
        <ele>473.4</ele>
        <time>2025-09-09T13:22:25Z</time>
      </trkpt>
      <trkpt lat="45.88507" lon="4.40175">
        <ele>473.8</ele>
        <time>2025-09-09T13:22:26Z</time>
      </trkpt>
      <trkpt lat="45.88507" lon="4.40173">
        <ele>473.8</ele>
        <time>2025-09-09T13:22:27Z</time>
      </trkpt>
      <trkpt lat="45.88506" lon="4.40172">
        <ele>474</ele>
        <time>2025-09-09T13:22:28Z</time>
      </trkpt>
      <trkpt lat="45.88506" lon="4.4017">
        <ele>474</ele>
        <time>2025-09-09T13:22:29Z</time>
      </trkpt>
      <trkpt lat="45.88505" lon="4.40168">
        <ele>474.2</ele>
        <time>2025-09-09T13:22:30Z</time>
      </trkpt>
      <trkpt lat="45.88505" lon="4.40167">
        <ele>474.2</ele>
        <time>2025-09-09T13:22:31Z</time>
      </trkpt>
      <trkpt lat="45.88505" lon="4.40165">
        <ele>474.4</ele>
        <time>2025-09-09T13:22:32Z</time>
      </trkpt>
      <trkpt lat="45.88503" lon="4.40164">
        <ele>474.4</ele>
        <time>2025-09-09T13:22:33Z</time>
      </trkpt>
      <trkpt lat="45.88502" lon="4.40162">
        <ele>474.4</ele>
        <time>2025-09-09T13:22:34Z</time>
      </trkpt>
      <trkpt lat="45.88502" lon="4.4016">
        <ele>474.8</ele>
        <time>2025-09-09T13:22:35Z</time>
      </trkpt>
      <trkpt lat="45.88502" lon="4.40158">
        <ele>474.8</ele>
        <time>2025-09-09T13:22:36Z</time>
      </trkpt>
      <trkpt lat="45.88501" lon="4.40156">
        <ele>474.8</ele>
        <time>2025-09-09T13:22:37Z</time>
      </trkpt>
      <trkpt lat="45.88501" lon="4.40153">
        <ele>475.2</ele>
        <time>2025-09-09T13:22:38Z</time>
      </trkpt>
      <trkpt lat="45.885" lon="4.40151">
        <ele>475.2</ele>
        <time>2025-09-09T13:22:39Z</time>
      </trkpt>
      <trkpt lat="45.88499" lon="4.40148">
        <ele>475.4</ele>
        <time>2025-09-09T13:22:40Z</time>
      </trkpt>
      <trkpt lat="45.88498" lon="4.40147">
        <ele>475.8</ele>
        <time>2025-09-09T13:22:41Z</time>
      </trkpt>
      <trkpt lat="45.88498" lon="4.40144">
        <ele>476</ele>
        <time>2025-09-09T13:22:42Z</time>
      </trkpt>
      <trkpt lat="45.88497" lon="4.40142">
        <ele>476.2</ele>
        <time>2025-09-09T13:22:43Z</time>
      </trkpt>
      <trkpt lat="45.88497" lon="4.4014">
        <ele>476.2</ele>
        <time>2025-09-09T13:22:44Z</time>
      </trkpt>
      <trkpt lat="45.88496" lon="4.40138">
        <ele>476.4</ele>
        <time>2025-09-09T13:22:45Z</time>
      </trkpt>
      <trkpt lat="45.88495" lon="4.40135">
        <ele>476.4</ele>
        <time>2025-09-09T13:22:46Z</time>
      </trkpt>
      <trkpt lat="45.88494" lon="4.40133">
        <ele>476.6</ele>
        <time>2025-09-09T13:22:47Z</time>
      </trkpt>
      <trkpt lat="45.88493" lon="4.40131">
        <ele>476.8</ele>
        <time>2025-09-09T13:22:48Z</time>
      </trkpt>
      <trkpt lat="45.88493" lon="4.40129">
        <ele>476.8</ele>
        <time>2025-09-09T13:22:49Z</time>
      </trkpt>
      <trkpt lat="45.88492" lon="4.40127">
        <ele>477.2</ele>
        <time>2025-09-09T13:22:50Z</time>
      </trkpt>
      <trkpt lat="45.88492" lon="4.40125">
        <ele>477.2</ele>
        <time>2025-09-09T13:22:51Z</time>
      </trkpt>
      <trkpt lat="45.88491" lon="4.40122">
        <ele>477.6</ele>
        <time>2025-09-09T13:22:52Z</time>
      </trkpt>
      <trkpt lat="45.88489" lon="4.4012">
        <ele>477.6</ele>
        <time>2025-09-09T13:22:53Z</time>
      </trkpt>
      <trkpt lat="45.88489" lon="4.40119">
        <ele>477.8</ele>
        <time>2025-09-09T13:22:54Z</time>
      </trkpt>
      <trkpt lat="45.88488" lon="4.40118">
        <ele>477.8</ele>
        <time>2025-09-09T13:22:55Z</time>
      </trkpt>
      <trkpt lat="45.88488" lon="4.40118">
        <ele>477.8</ele>
        <time>2025-09-09T13:22:56Z</time>
      </trkpt>
      <trkpt lat="45.88489" lon="4.40117">
        <ele>478</ele>
        <time>2025-09-09T13:22:57Z</time>
      </trkpt>
      <trkpt lat="45.88488" lon="4.40114">
        <ele>478</ele>
        <time>2025-09-09T13:22:58Z</time>
      </trkpt>
      <trkpt lat="45.88487" lon="4.40112">
        <ele>478</ele>
        <time>2025-09-09T13:22:59Z</time>
      </trkpt>
      <trkpt lat="45.88486" lon="4.4011">
        <ele>478.4</ele>
        <time>2025-09-09T13:23:00Z</time>
      </trkpt>
      <trkpt lat="45.88485" lon="4.40109">
        <ele>478.4</ele>
        <time>2025-09-09T13:23:01Z</time>
      </trkpt>
      <trkpt lat="45.88484" lon="4.40107">
        <ele>478.6</ele>
        <time>2025-09-09T13:23:02Z</time>
      </trkpt>
      <trkpt lat="45.88484" lon="4.40105">
        <ele>478.8</ele>
        <time>2025-09-09T13:23:03Z</time>
      </trkpt>
      <trkpt lat="45.88483" lon="4.40103">
        <ele>478.8</ele>
        <time>2025-09-09T13:23:04Z</time>
      </trkpt>
      <trkpt lat="45.88482" lon="4.40101">
        <ele>479.2</ele>
        <time>2025-09-09T13:23:05Z</time>
      </trkpt>
      <trkpt lat="45.8848" lon="4.40099">
        <ele>479.2</ele>
        <time>2025-09-09T13:23:06Z</time>
      </trkpt>
      <trkpt lat="45.88479" lon="4.40098">
        <ele>479.2</ele>
        <time>2025-09-09T13:23:07Z</time>
      </trkpt>
      <trkpt lat="45.88478" lon="4.40097">
        <ele>479.2</ele>
        <time>2025-09-09T13:23:08Z</time>
      </trkpt>
      <trkpt lat="45.88477" lon="4.40095">
        <ele>479.4</ele>
        <time>2025-09-09T13:23:09Z</time>
      </trkpt>
      <trkpt lat="45.88476" lon="4.40093">
        <ele>479.4</ele>
        <time>2025-09-09T13:23:10Z</time>
      </trkpt>
      <trkpt lat="45.88476" lon="4.40092">
        <ele>479.8</ele>
        <time>2025-09-09T13:23:11Z</time>
      </trkpt>
      <trkpt lat="45.88475" lon="4.40091">
        <ele>479.8</ele>
        <time>2025-09-09T13:23:12Z</time>
      </trkpt>
      <trkpt lat="45.88474" lon="4.40089">
        <ele>480.2</ele>
        <time>2025-09-09T13:23:13Z</time>
      </trkpt>
      <trkpt lat="45.88474" lon="4.40087">
        <ele>480.2</ele>
        <time>2025-09-09T13:23:14Z</time>
      </trkpt>
      <trkpt lat="45.88472" lon="4.40085">
        <ele>480.2</ele>
        <time>2025-09-09T13:23:15Z</time>
      </trkpt>
      <trkpt lat="45.88471" lon="4.40083">
        <ele>480.4</ele>
        <time>2025-09-09T13:23:16Z</time>
      </trkpt>
      <trkpt lat="45.8847" lon="4.40083">
        <ele>480.4</ele>
        <time>2025-09-09T13:23:17Z</time>
      </trkpt>
      <trkpt lat="45.88469" lon="4.40081">
        <ele>480.6</ele>
        <time>2025-09-09T13:23:18Z</time>
      </trkpt>
      <trkpt lat="45.88467" lon="4.4008">
        <ele>480.6</ele>
        <time>2025-09-09T13:23:19Z</time>
      </trkpt>
      <trkpt lat="45.88466" lon="4.40078">
        <ele>481</ele>
        <time>2025-09-09T13:23:20Z</time>
      </trkpt>
      <trkpt lat="45.88465" lon="4.40077">
        <ele>481</ele>
        <time>2025-09-09T13:23:21Z</time>
      </trkpt>
      <trkpt lat="45.88465" lon="4.40075">
        <ele>481</ele>
        <time>2025-09-09T13:23:22Z</time>
      </trkpt>
      <trkpt lat="45.88464" lon="4.40073">
        <ele>481</ele>
        <time>2025-09-09T13:23:23Z</time>
      </trkpt>
      <trkpt lat="45.88463" lon="4.40071">
        <ele>481.2</ele>
        <time>2025-09-09T13:23:24Z</time>
      </trkpt>
      <trkpt lat="45.88461" lon="4.40069">
        <ele>481.2</ele>
        <time>2025-09-09T13:23:25Z</time>
      </trkpt>
      <trkpt lat="45.88459" lon="4.40067">
        <ele>481.6</ele>
        <time>2025-09-09T13:23:26Z</time>
      </trkpt>
      <trkpt lat="45.88458" lon="4.40066">
        <ele>481.6</ele>
        <time>2025-09-09T13:23:27Z</time>
      </trkpt>
      <trkpt lat="45.88457" lon="4.40064">
        <ele>481.6</ele>
        <time>2025-09-09T13:23:28Z</time>
      </trkpt>
      <trkpt lat="45.88457" lon="4.40061">
        <ele>481.8</ele>
        <time>2025-09-09T13:23:29Z</time>
      </trkpt>
      <trkpt lat="45.88455" lon="4.40059">
        <ele>481.8</ele>
        <time>2025-09-09T13:23:30Z</time>
      </trkpt>
      <trkpt lat="45.88454" lon="4.40057">
        <ele>482</ele>
        <time>2025-09-09T13:23:31Z</time>
      </trkpt>
      <trkpt lat="45.88453" lon="4.40056">
        <ele>482</ele>
        <time>2025-09-09T13:23:32Z</time>
      </trkpt>
      <trkpt lat="45.88452" lon="4.40055">
        <ele>482.4</ele>
        <time>2025-09-09T13:23:33Z</time>
      </trkpt>
      <trkpt lat="45.88451" lon="4.40054">
        <ele>482.4</ele>
        <time>2025-09-09T13:23:34Z</time>
      </trkpt>
      <trkpt lat="45.8845" lon="4.40052">
        <ele>482.4</ele>
        <time>2025-09-09T13:23:35Z</time>
      </trkpt>
      <trkpt lat="45.88449" lon="4.4005">
        <ele>482.6</ele>
        <time>2025-09-09T13:23:36Z</time>
      </trkpt>
      <trkpt lat="45.88449" lon="4.40048">
        <ele>482.6</ele>
        <time>2025-09-09T13:23:37Z</time>
      </trkpt>
      <trkpt lat="45.88448" lon="4.40046">
        <ele>482.6</ele>
        <time>2025-09-09T13:23:38Z</time>
      </trkpt>
      <trkpt lat="45.88446" lon="4.40044">
        <ele>482.6</ele>
        <time>2025-09-09T13:23:39Z</time>
      </trkpt>
      <trkpt lat="45.88444" lon="4.40042">
        <ele>483</ele>
        <time>2025-09-09T13:23:40Z</time>
      </trkpt>
      <trkpt lat="45.88442" lon="4.40041">
        <ele>483</ele>
        <time>2025-09-09T13:23:41Z</time>
      </trkpt>
      <trkpt lat="45.8844" lon="4.4004">
        <ele>483</ele>
        <time>2025-09-09T13:23:42Z</time>
      </trkpt>
      <trkpt lat="45.88439" lon="4.4004">
        <ele>483.4</ele>
        <time>2025-09-09T13:23:43Z</time>
      </trkpt>
      <trkpt lat="45.88438" lon="4.40039">
        <ele>483.4</ele>
        <time>2025-09-09T13:23:44Z</time>
      </trkpt>
      <trkpt lat="45.88438" lon="4.40038">
        <ele>483.4</ele>
        <time>2025-09-09T13:23:45Z</time>
      </trkpt>
      <trkpt lat="45.88438" lon="4.40036">
        <ele>483.6</ele>
        <time>2025-09-09T13:23:46Z</time>
      </trkpt>
      <trkpt lat="45.88437" lon="4.40033">
        <ele>483.6</ele>
        <time>2025-09-09T13:23:47Z</time>
      </trkpt>
      <trkpt lat="45.88436" lon="4.40031">
        <ele>483.6</ele>
        <time>2025-09-09T13:23:48Z</time>
      </trkpt>
      <trkpt lat="45.88434" lon="4.40029">
        <ele>483.8</ele>
        <time>2025-09-09T13:23:49Z</time>
      </trkpt>
      <trkpt lat="45.88433" lon="4.40028">
        <ele>483.8</ele>
        <time>2025-09-09T13:23:50Z</time>
      </trkpt>
      <trkpt lat="45.88432" lon="4.40027">
        <ele>484.2</ele>
        <time>2025-09-09T13:23:51Z</time>
      </trkpt>
      <trkpt lat="45.8843" lon="4.40026">
        <ele>484.2</ele>
        <time>2025-09-09T13:23:52Z</time>
      </trkpt>
      <trkpt lat="45.88428" lon="4.40025">
        <ele>484.4</ele>
        <time>2025-09-09T13:23:53Z</time>
      </trkpt>
      <trkpt lat="45.88428" lon="4.40023">
        <ele>484.4</ele>
        <time>2025-09-09T13:23:54Z</time>
      </trkpt>
      <trkpt lat="45.88427" lon="4.40022">
        <ele>484.8</ele>
        <time>2025-09-09T13:23:55Z</time>
      </trkpt>
      <trkpt lat="45.88427" lon="4.4002">
        <ele>484.8</ele>
        <time>2025-09-09T13:23:56Z</time>
      </trkpt>
      <trkpt lat="45.88426" lon="4.40019">
        <ele>485</ele>
        <time>2025-09-09T13:23:57Z</time>
      </trkpt>
      <trkpt lat="45.88426" lon="4.40018">
        <ele>485</ele>
        <time>2025-09-09T13:23:58Z</time>
      </trkpt>
      <trkpt lat="45.88425" lon="4.40017">
        <ele>485</ele>
        <time>2025-09-09T13:23:59Z</time>
      </trkpt>
      <trkpt lat="45.88424" lon="4.40015">
        <ele>485.2</ele>
        <time>2025-09-09T13:24:00Z</time>
      </trkpt>
      <trkpt lat="45.88423" lon="4.40014">
        <ele>485.2</ele>
        <time>2025-09-09T13:24:01Z</time>
      </trkpt>
      <trkpt lat="45.88422" lon="4.40013">
        <ele>485.4</ele>
        <time>2025-09-09T13:24:02Z</time>
      </trkpt>
      <trkpt lat="45.88421" lon="4.40012">
        <ele>485.4</ele>
        <time>2025-09-09T13:24:03Z</time>
      </trkpt>
      <trkpt lat="45.8842" lon="4.4001">
        <ele>485.6</ele>
        <time>2025-09-09T13:24:04Z</time>
      </trkpt>
      <trkpt lat="45.88419" lon="4.40009">
        <ele>485.6</ele>
        <time>2025-09-09T13:24:05Z</time>
      </trkpt>
      <trkpt lat="45.88418" lon="4.40007">
        <ele>485.6</ele>
        <time>2025-09-09T13:24:06Z</time>
      </trkpt>
      <trkpt lat="45.88418" lon="4.40005">
        <ele>485.8</ele>
        <time>2025-09-09T13:24:07Z</time>
      </trkpt>
      <trkpt lat="45.88417" lon="4.40004">
        <ele>485.8</ele>
        <time>2025-09-09T13:24:08Z</time>
      </trkpt>
      <trkpt lat="45.88415" lon="4.40002">
        <ele>485.8</ele>
        <time>2025-09-09T13:24:09Z</time>
      </trkpt>
      <trkpt lat="45.88413" lon="4.40001">
        <ele>486.2</ele>
        <time>2025-09-09T13:24:10Z</time>
      </trkpt>
      <trkpt lat="45.88412" lon="4.4">
        <ele>486.2</ele>
        <time>2025-09-09T13:24:11Z</time>
      </trkpt>
      <trkpt lat="45.88411" lon="4.39999">
        <ele>486.6</ele>
        <time>2025-09-09T13:24:12Z</time>
      </trkpt>
      <trkpt lat="45.88411" lon="4.39998">
        <ele>486.6</ele>
        <time>2025-09-09T13:24:13Z</time>
      </trkpt>
      <trkpt lat="45.8841" lon="4.39996">
        <ele>486.6</ele>
        <time>2025-09-09T13:24:14Z</time>
      </trkpt>
      <trkpt lat="45.88409" lon="4.39994">
        <ele>486.6</ele>
        <time>2025-09-09T13:24:15Z</time>
      </trkpt>
      <trkpt lat="45.88409" lon="4.39992">
        <ele>486.6</ele>
        <time>2025-09-09T13:24:16Z</time>
      </trkpt>
      <trkpt lat="45.88408" lon="4.39991">
        <ele>487</ele>
        <time>2025-09-09T13:24:17Z</time>
      </trkpt>
      <trkpt lat="45.88406" lon="4.3999">
        <ele>487</ele>
        <time>2025-09-09T13:24:18Z</time>
      </trkpt>
      <trkpt lat="45.88404" lon="4.39989">
        <ele>487.2</ele>
        <time>2025-09-09T13:24:19Z</time>
      </trkpt>
      <trkpt lat="45.88403" lon="4.39988">
        <ele>487.2</ele>
        <time>2025-09-09T13:24:20Z</time>
      </trkpt>
      <trkpt lat="45.88401" lon="4.39987">
        <ele>487.6</ele>
        <time>2025-09-09T13:24:21Z</time>
      </trkpt>
      <trkpt lat="45.884" lon="4.39986">
        <ele>487.6</ele>
        <time>2025-09-09T13:24:22Z</time>
      </trkpt>
      <trkpt lat="45.88398" lon="4.39986">
        <ele>487.6</ele>
        <time>2025-09-09T13:24:23Z</time>
      </trkpt>
      <trkpt lat="45.88397" lon="4.39985">
        <ele>487.8</ele>
        <time>2025-09-09T13:24:24Z</time>
      </trkpt>
      <trkpt lat="45.88395" lon="4.39984">
        <ele>487.8</ele>
        <time>2025-09-09T13:24:25Z</time>
      </trkpt>
      <trkpt lat="45.88393" lon="4.39983">
        <ele>488.2</ele>
        <time>2025-09-09T13:24:26Z</time>
      </trkpt>
      <trkpt lat="45.88392" lon="4.39983">
        <ele>488.2</ele>
        <time>2025-09-09T13:24:27Z</time>
      </trkpt>
      <trkpt lat="45.88391" lon="4.39982">
        <ele>488.2</ele>
        <time>2025-09-09T13:24:28Z</time>
      </trkpt>
      <trkpt lat="45.88389" lon="4.39982">
        <ele>488.2</ele>
        <time>2025-09-09T13:24:29Z</time>
      </trkpt>
      <trkpt lat="45.88388" lon="4.39981">
        <ele>488.4</ele>
        <time>2025-09-09T13:24:30Z</time>
      </trkpt>
      <trkpt lat="45.88387" lon="4.3998">
        <ele>488.4</ele>
        <time>2025-09-09T13:24:31Z</time>
      </trkpt>
      <trkpt lat="45.88386" lon="4.39978">
        <ele>488.6</ele>
        <time>2025-09-09T13:24:32Z</time>
      </trkpt>
      <trkpt lat="45.88385" lon="4.39977">
        <ele>488.6</ele>
        <time>2025-09-09T13:24:33Z</time>
      </trkpt>
      <trkpt lat="45.88383" lon="4.39976">
        <ele>488.8</ele>
        <time>2025-09-09T13:24:34Z</time>
      </trkpt>
      <trkpt lat="45.88382" lon="4.39975">
        <ele>488.8</ele>
        <time>2025-09-09T13:24:35Z</time>
      </trkpt>
      <trkpt lat="45.88379" lon="4.39974">
        <ele>489.2</ele>
        <time>2025-09-09T13:24:36Z</time>
      </trkpt>
      <trkpt lat="45.88377" lon="4.39973">
        <ele>489.2</ele>
        <time>2025-09-09T13:24:37Z</time>
      </trkpt>
      <trkpt lat="45.88375" lon="4.39972">
        <ele>489.2</ele>
        <time>2025-09-09T13:24:38Z</time>
      </trkpt>
      <trkpt lat="45.88374" lon="4.39972">
        <ele>489.4</ele>
        <time>2025-09-09T13:24:39Z</time>
      </trkpt>
      <trkpt lat="45.88373" lon="4.39971">
        <ele>489.4</ele>
        <time>2025-09-09T13:24:40Z</time>
      </trkpt>
      <trkpt lat="45.88371" lon="4.39969">
        <ele>489.8</ele>
        <time>2025-09-09T13:24:41Z</time>
      </trkpt>
      <trkpt lat="45.8837" lon="4.39968">
        <ele>489.8</ele>
        <time>2025-09-09T13:24:42Z</time>
      </trkpt>
      <trkpt lat="45.88369" lon="4.39967">
        <ele>489.8</ele>
        <time>2025-09-09T13:24:43Z</time>
      </trkpt>
      <trkpt lat="45.88367" lon="4.39966">
        <ele>490</ele>
        <time>2025-09-09T13:24:44Z</time>
      </trkpt>
      <trkpt lat="45.88366" lon="4.39965">
        <ele>490</ele>
        <time>2025-09-09T13:24:45Z</time>
      </trkpt>
      <trkpt lat="45.88365" lon="4.39964">
        <ele>490.2</ele>
        <time>2025-09-09T13:24:46Z</time>
      </trkpt>
      <trkpt lat="45.88363" lon="4.39963">
        <ele>490.2</ele>
        <time>2025-09-09T13:24:47Z</time>
      </trkpt>
      <trkpt lat="45.88362" lon="4.39963">
        <ele>490.6</ele>
        <time>2025-09-09T13:24:48Z</time>
      </trkpt>
      <trkpt lat="45.88361" lon="4.39962">
        <ele>490.6</ele>
        <time>2025-09-09T13:24:49Z</time>
      </trkpt>
      <trkpt lat="45.8836" lon="4.3996">
        <ele>490.6</ele>
        <time>2025-09-09T13:24:50Z</time>
      </trkpt>
      <trkpt lat="45.8836" lon="4.39959">
        <ele>490.8</ele>
        <time>2025-09-09T13:24:51Z</time>
      </trkpt>
      <trkpt lat="45.88359" lon="4.39958">
        <ele>490.8</ele>
        <time>2025-09-09T13:24:52Z</time>
      </trkpt>
      <trkpt lat="45.88358" lon="4.39957">
        <ele>490.8</ele>
        <time>2025-09-09T13:24:53Z</time>
      </trkpt>
      <trkpt lat="45.88357" lon="4.39955">
        <ele>490.8</ele>
        <time>2025-09-09T13:24:54Z</time>
      </trkpt>
      <trkpt lat="45.88356" lon="4.39954">
        <ele>491.2</ele>
        <time>2025-09-09T13:24:55Z</time>
      </trkpt>
      <trkpt lat="45.88355" lon="4.39953">
        <ele>491.2</ele>
        <time>2025-09-09T13:24:56Z</time>
      </trkpt>
      <trkpt lat="45.88354" lon="4.39951">
        <ele>491.4</ele>
        <time>2025-09-09T13:24:57Z</time>
      </trkpt>
      <trkpt lat="45.88353" lon="4.3995">
        <ele>491.4</ele>
        <time>2025-09-09T13:24:58Z</time>
      </trkpt>
      <trkpt lat="45.88352" lon="4.39949">
        <ele>491.4</ele>
        <time>2025-09-09T13:24:59Z</time>
      </trkpt>
      <trkpt lat="45.8835" lon="4.39948">
        <ele>491.8</ele>
        <time>2025-09-09T13:25:00Z</time>
      </trkpt>
      <trkpt lat="45.88348" lon="4.39948">
        <ele>491.8</ele>
        <time>2025-09-09T13:25:01Z</time>
      </trkpt>
      <trkpt lat="45.88347" lon="4.39947">
        <ele>492.2</ele>
        <time>2025-09-09T13:25:02Z</time>
      </trkpt>
      <trkpt lat="45.88346" lon="4.39946">
        <ele>492.2</ele>
        <time>2025-09-09T13:25:03Z</time>
      </trkpt>
      <trkpt lat="45.88345" lon="4.39945">
        <ele>492.4</ele>
        <time>2025-09-09T13:25:04Z</time>
      </trkpt>
      <trkpt lat="45.88344" lon="4.39944">
        <ele>492.4</ele>
        <time>2025-09-09T13:25:05Z</time>
      </trkpt>
      <trkpt lat="45.88343" lon="4.39943">
        <ele>492.4</ele>
        <time>2025-09-09T13:25:06Z</time>
      </trkpt>
      <trkpt lat="45.88341" lon="4.39942">
        <ele>492.4</ele>
        <time>2025-09-09T13:25:07Z</time>
      </trkpt>
      <trkpt lat="45.88339" lon="4.39941">
        <ele>492.8</ele>
        <time>2025-09-09T13:25:08Z</time>
      </trkpt>
      <trkpt lat="45.88337" lon="4.39941">
        <ele>492.8</ele>
        <time>2025-09-09T13:25:09Z</time>
      </trkpt>
      <trkpt lat="45.88336" lon="4.3994">
        <ele>493.2</ele>
        <time>2025-09-09T13:25:10Z</time>
      </trkpt>
      <trkpt lat="45.88334" lon="4.39939">
        <ele>493.2</ele>
        <time>2025-09-09T13:25:11Z</time>
      </trkpt>
      <trkpt lat="45.88332" lon="4.39938">
        <ele>493.2</ele>
        <time>2025-09-09T13:25:12Z</time>
      </trkpt>
      <trkpt lat="45.88331" lon="4.39937">
        <ele>493.6</ele>
        <time>2025-09-09T13:25:13Z</time>
      </trkpt>
      <trkpt lat="45.88329" lon="4.39936">
        <ele>493.6</ele>
        <time>2025-09-09T13:25:14Z</time>
      </trkpt>
      <trkpt lat="45.88328" lon="4.39935">
        <ele>493.8</ele>
        <time>2025-09-09T13:25:15Z</time>
      </trkpt>
      <trkpt lat="45.88326" lon="4.39934">
        <ele>494</ele>
        <time>2025-09-09T13:25:16Z</time>
      </trkpt>
      <trkpt lat="45.88325" lon="4.39934">
        <ele>494</ele>
        <time>2025-09-09T13:25:17Z</time>
      </trkpt>
      <trkpt lat="45.88324" lon="4.39934">
        <ele>494</ele>
        <time>2025-09-09T13:25:18Z</time>
      </trkpt>
      <trkpt lat="45.88323" lon="4.39933">
        <ele>494.4</ele>
        <time>2025-09-09T13:25:19Z</time>
      </trkpt>
      <trkpt lat="45.8832" lon="4.39932">
        <ele>494.4</ele>
        <time>2025-09-09T13:25:20Z</time>
      </trkpt>
      <trkpt lat="45.88319" lon="4.39931">
        <ele>494.8</ele>
        <time>2025-09-09T13:25:21Z</time>
      </trkpt>
      <trkpt lat="45.88319" lon="4.39931">
        <ele>494.8</ele>
        <time>2025-09-09T13:25:22Z</time>
      </trkpt>
      <trkpt lat="45.88317" lon="4.39931">
        <ele>495</ele>
        <time>2025-09-09T13:25:23Z</time>
      </trkpt>
      <trkpt lat="45.88316" lon="4.39931">
        <ele>495</ele>
        <time>2025-09-09T13:25:24Z</time>
      </trkpt>
      <trkpt lat="45.88315" lon="4.3993">
        <ele>495.4</ele>
        <time>2025-09-09T13:25:25Z</time>
      </trkpt>
      <trkpt lat="45.88314" lon="4.3993">
        <ele>495.4</ele>
        <time>2025-09-09T13:25:26Z</time>
      </trkpt>
      <trkpt lat="45.88312" lon="4.39929">
        <ele>495.6</ele>
        <time>2025-09-09T13:25:27Z</time>
      </trkpt>
      <trkpt lat="45.88311" lon="4.39928">
        <ele>495.6</ele>
        <time>2025-09-09T13:25:28Z</time>
      </trkpt>
      <trkpt lat="45.88309" lon="4.39927">
        <ele>495.8</ele>
        <time>2025-09-09T13:25:29Z</time>
      </trkpt>
      <trkpt lat="45.88307" lon="4.39926">
        <ele>495.8</ele>
        <time>2025-09-09T13:25:30Z</time>
      </trkpt>
      <trkpt lat="45.88306" lon="4.39925">
        <ele>495.8</ele>
        <time>2025-09-09T13:25:31Z</time>
      </trkpt>
      <trkpt lat="45.88305" lon="4.39924">
        <ele>496.2</ele>
        <time>2025-09-09T13:25:32Z</time>
      </trkpt>
      <trkpt lat="45.88304" lon="4.39924">
        <ele>496.2</ele>
        <time>2025-09-09T13:25:33Z</time>
      </trkpt>
      <trkpt lat="45.88303" lon="4.39923">
        <ele>496.2</ele>
        <time>2025-09-09T13:25:34Z</time>
      </trkpt>
      <trkpt lat="45.88301" lon="4.39923">
        <ele>496.4</ele>
        <time>2025-09-09T13:25:35Z</time>
      </trkpt>
      <trkpt lat="45.883" lon="4.39923">
        <ele>496.4</ele>
        <time>2025-09-09T13:25:36Z</time>
      </trkpt>
      <trkpt lat="45.88298" lon="4.39923">
        <ele>496.4</ele>
        <time>2025-09-09T13:25:37Z</time>
      </trkpt>
      <trkpt lat="45.88296" lon="4.39923">
        <ele>496.8</ele>
        <time>2025-09-09T13:25:38Z</time>
      </trkpt>
      <trkpt lat="45.88294" lon="4.39923">
        <ele>496.8</ele>
        <time>2025-09-09T13:25:39Z</time>
      </trkpt>
      <trkpt lat="45.88293" lon="4.39923">
        <ele>497.2</ele>
        <time>2025-09-09T13:25:40Z</time>
      </trkpt>
      <trkpt lat="45.88291" lon="4.39923">
        <ele>497.2</ele>
        <time>2025-09-09T13:25:41Z</time>
      </trkpt>
      <trkpt lat="45.88289" lon="4.39923">
        <ele>497.2</ele>
        <time>2025-09-09T13:25:42Z</time>
      </trkpt>
      <trkpt lat="45.88288" lon="4.39923">
        <ele>497.4</ele>
        <time>2025-09-09T13:25:43Z</time>
      </trkpt>
      <trkpt lat="45.88287" lon="4.39923">
        <ele>497.4</ele>
        <time>2025-09-09T13:25:44Z</time>
      </trkpt>
      <trkpt lat="45.88286" lon="4.39923">
        <ele>497.8</ele>
        <time>2025-09-09T13:25:45Z</time>
      </trkpt>
      <trkpt lat="45.88284" lon="4.39923">
        <ele>497.8</ele>
        <time>2025-09-09T13:25:46Z</time>
      </trkpt>
      <trkpt lat="45.88283" lon="4.39924">
        <ele>497.8</ele>
        <time>2025-09-09T13:25:47Z</time>
      </trkpt>
      <trkpt lat="45.88281" lon="4.39924">
        <ele>497.8</ele>
        <time>2025-09-09T13:25:48Z</time>
      </trkpt>
      <trkpt lat="45.8828" lon="4.39924">
        <ele>498.2</ele>
        <time>2025-09-09T13:25:49Z</time>
      </trkpt>
      <trkpt lat="45.88279" lon="4.39924">
        <ele>498.2</ele>
        <time>2025-09-09T13:25:50Z</time>
      </trkpt>
      <trkpt lat="45.88277" lon="4.39924">
        <ele>498.2</ele>
        <time>2025-09-09T13:25:51Z</time>
      </trkpt>
      <trkpt lat="45.88275" lon="4.39924">
        <ele>498.2</ele>
        <time>2025-09-09T13:25:52Z</time>
      </trkpt>
      <trkpt lat="45.88274" lon="4.39925">
        <ele>498.4</ele>
        <time>2025-09-09T13:25:53Z</time>
      </trkpt>
      <trkpt lat="45.88273" lon="4.39925">
        <ele>498.4</ele>
        <time>2025-09-09T13:25:54Z</time>
      </trkpt>
      <trkpt lat="45.88271" lon="4.39925">
        <ele>498.8</ele>
        <time>2025-09-09T13:25:55Z</time>
      </trkpt>
      <trkpt lat="45.88269" lon="4.39925">
        <ele>498.8</ele>
        <time>2025-09-09T13:25:56Z</time>
      </trkpt>
      <trkpt lat="45.88268" lon="4.39926">
        <ele>499</ele>
        <time>2025-09-09T13:25:57Z</time>
      </trkpt>
      <trkpt lat="45.88266" lon="4.39926">
        <ele>499.2</ele>
        <time>2025-09-09T13:25:58Z</time>
      </trkpt>
      <trkpt lat="45.88265" lon="4.39926">
        <ele>499.2</ele>
        <time>2025-09-09T13:25:59Z</time>
      </trkpt>
      <trkpt lat="45.88263" lon="4.39925">
        <ele>499.4</ele>
        <time>2025-09-09T13:26:00Z</time>
      </trkpt>
      <trkpt lat="45.88261" lon="4.39925">
        <ele>499.4</ele>
        <time>2025-09-09T13:26:01Z</time>
      </trkpt>
      <trkpt lat="45.88259" lon="4.39924">
        <ele>499.8</ele>
        <time>2025-09-09T13:26:02Z</time>
      </trkpt>
      <trkpt lat="45.88258" lon="4.39923">
        <ele>499.8</ele>
        <time>2025-09-09T13:26:03Z</time>
      </trkpt>
      <trkpt lat="45.88256" lon="4.39922">
        <ele>499.8</ele>
        <time>2025-09-09T13:26:04Z</time>
      </trkpt>
      <trkpt lat="45.88255" lon="4.39921">
        <ele>500</ele>
        <time>2025-09-09T13:26:05Z</time>
      </trkpt>
      <trkpt lat="45.88254" lon="4.39921">
        <ele>500</ele>
        <time>2025-09-09T13:26:06Z</time>
      </trkpt>
      <trkpt lat="45.88252" lon="4.39921">
        <ele>500.2</ele>
        <time>2025-09-09T13:26:07Z</time>
      </trkpt>
      <trkpt lat="45.8825" lon="4.39921">
        <ele>500.4</ele>
        <time>2025-09-09T13:26:08Z</time>
      </trkpt>
      <trkpt lat="45.88248" lon="4.39921">
        <ele>500.4</ele>
        <time>2025-09-09T13:26:09Z</time>
      </trkpt>
      <trkpt lat="45.88246" lon="4.39921">
        <ele>500.4</ele>
        <time>2025-09-09T13:26:10Z</time>
      </trkpt>
      <trkpt lat="45.88246" lon="4.39921">
        <ele>500.8</ele>
        <time>2025-09-09T13:26:11Z</time>
      </trkpt>
      <trkpt lat="45.88244" lon="4.39921">
        <ele>500.8</ele>
        <time>2025-09-09T13:26:12Z</time>
      </trkpt>
      <trkpt lat="45.88243" lon="4.39921">
        <ele>500.8</ele>
        <time>2025-09-09T13:26:13Z</time>
      </trkpt>
      <trkpt lat="45.88242" lon="4.39921">
        <ele>500.8</ele>
        <time>2025-09-09T13:26:14Z</time>
      </trkpt>
      <trkpt lat="45.8824" lon="4.39921">
        <ele>501</ele>
        <time>2025-09-09T13:26:15Z</time>
      </trkpt>
      <trkpt lat="45.88239" lon="4.39922">
        <ele>501</ele>
        <time>2025-09-09T13:26:16Z</time>
      </trkpt>
      <trkpt lat="45.88237" lon="4.39923">
        <ele>501.2</ele>
        <time>2025-09-09T13:26:17Z</time>
      </trkpt>
      <trkpt lat="45.88235" lon="4.39923">
        <ele>501.2</ele>
        <time>2025-09-09T13:26:18Z</time>
      </trkpt>
      <trkpt lat="45.88234" lon="4.39923">
        <ele>501.6</ele>
        <time>2025-09-09T13:26:19Z</time>
      </trkpt>
      <trkpt lat="45.88232" lon="4.39923">
        <ele>501.6</ele>
        <time>2025-09-09T13:26:20Z</time>
      </trkpt>
      <trkpt lat="45.8823" lon="4.39923">
        <ele>502</ele>
        <time>2025-09-09T13:26:21Z</time>
      </trkpt>
      <trkpt lat="45.88229" lon="4.39923">
        <ele>502</ele>
        <time>2025-09-09T13:26:22Z</time>
      </trkpt>
      <trkpt lat="45.88227" lon="4.39923">
        <ele>502.2</ele>
        <time>2025-09-09T13:26:23Z</time>
      </trkpt>
      <trkpt lat="45.88225" lon="4.39922">
        <ele>502.2</ele>
        <time>2025-09-09T13:26:24Z</time>
      </trkpt>
      <trkpt lat="45.88224" lon="4.39923">
        <ele>502.2</ele>
        <time>2025-09-09T13:26:25Z</time>
      </trkpt>
      <trkpt lat="45.88222" lon="4.39923">
        <ele>502.2</ele>
        <time>2025-09-09T13:26:26Z</time>
      </trkpt>
      <trkpt lat="45.88221" lon="4.39923">
        <ele>502.4</ele>
        <time>2025-09-09T13:26:27Z</time>
      </trkpt>
      <trkpt lat="45.88219" lon="4.39923">
        <ele>502.4</ele>
        <time>2025-09-09T13:26:28Z</time>
      </trkpt>
      <trkpt lat="45.88218" lon="4.39922">
        <ele>502.8</ele>
        <time>2025-09-09T13:26:29Z</time>
      </trkpt>
      <trkpt lat="45.88217" lon="4.39922">
        <ele>502.8</ele>
        <time>2025-09-09T13:26:30Z</time>
      </trkpt>
      <trkpt lat="45.88216" lon="4.39921">
        <ele>503</ele>
        <time>2025-09-09T13:26:31Z</time>
      </trkpt>
      <trkpt lat="45.88215" lon="4.39922">
        <ele>503</ele>
        <time>2025-09-09T13:26:32Z</time>
      </trkpt>
      <trkpt lat="45.88213" lon="4.39922">
        <ele>503</ele>
        <time>2025-09-09T13:26:33Z</time>
      </trkpt>
      <trkpt lat="45.88212" lon="4.39923">
        <ele>503.4</ele>
        <time>2025-09-09T13:26:34Z</time>
      </trkpt>
      <trkpt lat="45.8821" lon="4.39924">
        <ele>503.6</ele>
        <time>2025-09-09T13:26:35Z</time>
      </trkpt>
      <trkpt lat="45.88209" lon="4.39924">
        <ele>503.6</ele>
        <time>2025-09-09T13:26:36Z</time>
      </trkpt>
      <trkpt lat="45.88207" lon="4.39925">
        <ele>503.8</ele>
        <time>2025-09-09T13:26:37Z</time>
      </trkpt>
      <trkpt lat="45.88205" lon="4.39926">
        <ele>504.2</ele>
        <time>2025-09-09T13:26:38Z</time>
      </trkpt>
      <trkpt lat="45.88204" lon="4.39926">
        <ele>504.2</ele>
        <time>2025-09-09T13:26:39Z</time>
      </trkpt>
      <trkpt lat="45.88202" lon="4.39926">
        <ele>504.4</ele>
        <time>2025-09-09T13:26:40Z</time>
      </trkpt>
      <trkpt lat="45.88201" lon="4.39927">
        <ele>504.4</ele>
        <time>2025-09-09T13:26:41Z</time>
      </trkpt>
      <trkpt lat="45.88199" lon="4.39927">
        <ele>504.8</ele>
        <time>2025-09-09T13:26:42Z</time>
      </trkpt>
      <trkpt lat="45.88199" lon="4.39928">
        <ele>504.8</ele>
        <time>2025-09-09T13:26:43Z</time>
      </trkpt>
      <trkpt lat="45.88198" lon="4.39929">
        <ele>505</ele>
        <time>2025-09-09T13:26:44Z</time>
      </trkpt>
      <trkpt lat="45.88196" lon="4.39929">
        <ele>505</ele>
        <time>2025-09-09T13:26:45Z</time>
      </trkpt>
      <trkpt lat="45.88194" lon="4.3993">
        <ele>505</ele>
        <time>2025-09-09T13:26:46Z</time>
      </trkpt>
      <trkpt lat="45.88192" lon="4.3993">
        <ele>505.4</ele>
        <time>2025-09-09T13:26:47Z</time>
      </trkpt>
      <trkpt lat="45.88191" lon="4.39931">
        <ele>505.4</ele>
        <time>2025-09-09T13:26:48Z</time>
      </trkpt>
      <trkpt lat="45.8819" lon="4.39931">
        <ele>505.6</ele>
        <time>2025-09-09T13:26:49Z</time>
      </trkpt>
      <trkpt lat="45.88189" lon="4.39932">
        <ele>505.6</ele>
        <time>2025-09-09T13:26:50Z</time>
      </trkpt>
      <trkpt lat="45.88188" lon="4.39932">
        <ele>505.6</ele>
        <time>2025-09-09T13:26:51Z</time>
      </trkpt>
      <trkpt lat="45.88186" lon="4.39932">
        <ele>505.8</ele>
        <time>2025-09-09T13:26:52Z</time>
      </trkpt>
      <trkpt lat="45.88185" lon="4.39932">
        <ele>506</ele>
        <time>2025-09-09T13:26:53Z</time>
      </trkpt>
      <trkpt lat="45.88184" lon="4.39932">
        <ele>506</ele>
        <time>2025-09-09T13:26:54Z</time>
      </trkpt>
      <trkpt lat="45.88182" lon="4.39932">
        <ele>506.2</ele>
        <time>2025-09-09T13:26:55Z</time>
      </trkpt>
      <trkpt lat="45.88181" lon="4.39932">
        <ele>506.2</ele>
        <time>2025-09-09T13:26:56Z</time>
      </trkpt>
      <trkpt lat="45.8818" lon="4.39932">
        <ele>506.6</ele>
        <time>2025-09-09T13:26:57Z</time>
      </trkpt>
      <trkpt lat="45.8818" lon="4.39932">
        <ele>506.6</ele>
        <time>2025-09-09T13:26:58Z</time>
      </trkpt>
      <trkpt lat="45.88179" lon="4.39932">
        <ele>506.6</ele>
        <time>2025-09-09T13:26:59Z</time>
      </trkpt>
      <trkpt lat="45.88177" lon="4.39934">
        <ele>506.8</ele>
        <time>2025-09-09T13:27:00Z</time>
      </trkpt>
      <trkpt lat="45.88176" lon="4.39934">
        <ele>506.8</ele>
        <time>2025-09-09T13:27:01Z</time>
      </trkpt>
      <trkpt lat="45.88174" lon="4.39935">
        <ele>507</ele>
        <time>2025-09-09T13:27:02Z</time>
      </trkpt>
      <trkpt lat="45.88172" lon="4.39935">
        <ele>507</ele>
        <time>2025-09-09T13:27:03Z</time>
      </trkpt>
      <trkpt lat="45.88171" lon="4.39936">
        <ele>507.2</ele>
        <time>2025-09-09T13:27:04Z</time>
      </trkpt>
      <trkpt lat="45.8817" lon="4.39936">
        <ele>507.2</ele>
        <time>2025-09-09T13:27:05Z</time>
      </trkpt>
      <trkpt lat="45.88168" lon="4.39937">
        <ele>507.4</ele>
        <time>2025-09-09T13:27:06Z</time>
      </trkpt>
      <trkpt lat="45.88166" lon="4.39936">
        <ele>507.4</ele>
        <time>2025-09-09T13:27:07Z</time>
      </trkpt>
      <trkpt lat="45.88164" lon="4.39936">
        <ele>507.8</ele>
        <time>2025-09-09T13:27:08Z</time>
      </trkpt>
      <trkpt lat="45.88163" lon="4.39936">
        <ele>507.8</ele>
        <time>2025-09-09T13:27:09Z</time>
      </trkpt>
      <trkpt lat="45.88161" lon="4.39936">
        <ele>508</ele>
        <time>2025-09-09T13:27:10Z</time>
      </trkpt>
      <trkpt lat="45.88158" lon="4.39936">
        <ele>508</ele>
        <time>2025-09-09T13:27:11Z</time>
      </trkpt>
      <trkpt lat="45.88157" lon="4.39936">
        <ele>508.2</ele>
        <time>2025-09-09T13:27:12Z</time>
      </trkpt>
      <trkpt lat="45.88156" lon="4.39935">
        <ele>508.2</ele>
        <time>2025-09-09T13:27:13Z</time>
      </trkpt>
      <trkpt lat="45.88154" lon="4.39935">
        <ele>508.6</ele>
        <time>2025-09-09T13:27:14Z</time>
      </trkpt>
      <trkpt lat="45.88153" lon="4.39935">
        <ele>508.6</ele>
        <time>2025-09-09T13:27:15Z</time>
      </trkpt>
      <trkpt lat="45.88151" lon="4.39935">
        <ele>508.8</ele>
        <time>2025-09-09T13:27:16Z</time>
      </trkpt>
      <trkpt lat="45.8815" lon="4.39934">
        <ele>508.8</ele>
        <time>2025-09-09T13:27:17Z</time>
      </trkpt>
      <trkpt lat="45.88148" lon="4.39934">
        <ele>509</ele>
        <time>2025-09-09T13:27:18Z</time>
      </trkpt>
      <trkpt lat="45.88147" lon="4.39934">
        <ele>509</ele>
        <time>2025-09-09T13:27:19Z</time>
      </trkpt>
      <trkpt lat="45.88146" lon="4.39934">
        <ele>509</ele>
        <time>2025-09-09T13:27:20Z</time>
      </trkpt>
      <trkpt lat="45.88145" lon="4.39935">
        <ele>509.4</ele>
        <time>2025-09-09T13:27:21Z</time>
      </trkpt>
      <trkpt lat="45.88144" lon="4.39935">
        <ele>509.4</ele>
        <time>2025-09-09T13:27:22Z</time>
      </trkpt>
      <trkpt lat="45.88142" lon="4.39936">
        <ele>509.6</ele>
        <time>2025-09-09T13:27:23Z</time>
      </trkpt>
      <trkpt lat="45.88141" lon="4.39936">
        <ele>509.6</ele>
        <time>2025-09-09T13:27:24Z</time>
      </trkpt>
      <trkpt lat="45.88139" lon="4.39935">
        <ele>509.6</ele>
        <time>2025-09-09T13:27:25Z</time>
      </trkpt>
      <trkpt lat="45.88137" lon="4.39935">
        <ele>510</ele>
        <time>2025-09-09T13:27:26Z</time>
      </trkpt>
      <trkpt lat="45.88136" lon="4.39935">
        <ele>510</ele>
        <time>2025-09-09T13:27:27Z</time>
      </trkpt>
      <trkpt lat="45.88134" lon="4.39935">
        <ele>510.2</ele>
        <time>2025-09-09T13:27:28Z</time>
      </trkpt>
      <trkpt lat="45.88133" lon="4.39936">
        <ele>510.2</ele>
        <time>2025-09-09T13:27:29Z</time>
      </trkpt>
      <trkpt lat="45.88131" lon="4.39936">
        <ele>510.4</ele>
        <time>2025-09-09T13:27:30Z</time>
      </trkpt>
      <trkpt lat="45.8813" lon="4.39937">
        <ele>510.4</ele>
        <time>2025-09-09T13:27:31Z</time>
      </trkpt>
      <trkpt lat="45.88129" lon="4.39938">
        <ele>510.4</ele>
        <time>2025-09-09T13:27:32Z</time>
      </trkpt>
      <trkpt lat="45.88128" lon="4.39939">
        <ele>510.4</ele>
        <time>2025-09-09T13:27:33Z</time>
      </trkpt>
      <trkpt lat="45.88126" lon="4.39939">
        <ele>510.4</ele>
        <time>2025-09-09T13:27:34Z</time>
      </trkpt>
      <trkpt lat="45.88125" lon="4.39939">
        <ele>510.4</ele>
        <time>2025-09-09T13:27:35Z</time>
      </trkpt>
      <trkpt lat="45.88123" lon="4.39939">
        <ele>510.8</ele>
        <time>2025-09-09T13:27:36Z</time>
      </trkpt>
      <trkpt lat="45.88121" lon="4.3994">
        <ele>510.8</ele>
        <time>2025-09-09T13:27:37Z</time>
      </trkpt>
      <trkpt lat="45.8812" lon="4.3994">
        <ele>510.8</ele>
        <time>2025-09-09T13:27:38Z</time>
      </trkpt>
      <trkpt lat="45.88119" lon="4.3994">
        <ele>511</ele>
        <time>2025-09-09T13:27:39Z</time>
      </trkpt>
      <trkpt lat="45.88117" lon="4.3994">
        <ele>511.2</ele>
        <time>2025-09-09T13:27:40Z</time>
      </trkpt>
      <trkpt lat="45.88117" lon="4.39941">
        <ele>511.4</ele>
        <time>2025-09-09T13:27:41Z</time>
      </trkpt>
      <trkpt lat="45.88115" lon="4.39941">
        <ele>511.4</ele>
        <time>2025-09-09T13:27:42Z</time>
      </trkpt>
      <trkpt lat="45.88114" lon="4.3994">
        <ele>511.6</ele>
        <time>2025-09-09T13:27:43Z</time>
      </trkpt>
      <trkpt lat="45.88113" lon="4.3994">
        <ele>511.6</ele>
        <time>2025-09-09T13:27:44Z</time>
      </trkpt>
      <trkpt lat="45.88112" lon="4.39941">
        <ele>512</ele>
        <time>2025-09-09T13:27:45Z</time>
      </trkpt>
      <trkpt lat="45.8811" lon="4.39941">
        <ele>512</ele>
        <time>2025-09-09T13:27:46Z</time>
      </trkpt>
      <trkpt lat="45.88108" lon="4.39941">
        <ele>512.2</ele>
        <time>2025-09-09T13:27:47Z</time>
      </trkpt>
      <trkpt lat="45.88107" lon="4.39941">
        <ele>512.2</ele>
        <time>2025-09-09T13:27:48Z</time>
      </trkpt>
      <trkpt lat="45.88106" lon="4.39942">
        <ele>512.6</ele>
        <time>2025-09-09T13:27:49Z</time>
      </trkpt>
      <trkpt lat="45.88104" lon="4.39943">
        <ele>512.6</ele>
        <time>2025-09-09T13:27:50Z</time>
      </trkpt>
      <trkpt lat="45.88103" lon="4.39943">
        <ele>512.8</ele>
        <time>2025-09-09T13:27:51Z</time>
      </trkpt>
      <trkpt lat="45.88102" lon="4.39944">
        <ele>512.8</ele>
        <time>2025-09-09T13:27:52Z</time>
      </trkpt>
      <trkpt lat="45.881" lon="4.39945">
        <ele>513</ele>
        <time>2025-09-09T13:27:53Z</time>
      </trkpt>
      <trkpt lat="45.88099" lon="4.39945">
        <ele>513</ele>
        <time>2025-09-09T13:27:54Z</time>
      </trkpt>
      <trkpt lat="45.88097" lon="4.39945">
        <ele>513</ele>
        <time>2025-09-09T13:27:55Z</time>
      </trkpt>
      <trkpt lat="45.88096" lon="4.39946">
        <ele>513.2</ele>
        <time>2025-09-09T13:27:56Z</time>
      </trkpt>
      <trkpt lat="45.88095" lon="4.39946">
        <ele>513.2</ele>
        <time>2025-09-09T13:27:57Z</time>
      </trkpt>
      <trkpt lat="45.88094" lon="4.39947">
        <ele>513.6</ele>
        <time>2025-09-09T13:27:58Z</time>
      </trkpt>
      <trkpt lat="45.88092" lon="4.39947">
        <ele>513.6</ele>
        <time>2025-09-09T13:27:59Z</time>
      </trkpt>
      <trkpt lat="45.88091" lon="4.39947">
        <ele>513.6</ele>
        <time>2025-09-09T13:28:00Z</time>
      </trkpt>
      <trkpt lat="45.8809" lon="4.39948">
        <ele>514</ele>
        <time>2025-09-09T13:28:01Z</time>
      </trkpt>
      <trkpt lat="45.88088" lon="4.39949">
        <ele>514</ele>
        <time>2025-09-09T13:28:02Z</time>
      </trkpt>
      <trkpt lat="45.88086" lon="4.3995">
        <ele>514</ele>
        <time>2025-09-09T13:28:03Z</time>
      </trkpt>
      <trkpt lat="45.88085" lon="4.39951">
        <ele>514</ele>
        <time>2025-09-09T13:28:04Z</time>
      </trkpt>
      <trkpt lat="45.88085" lon="4.39951">
        <ele>514.2</ele>
        <time>2025-09-09T13:28:05Z</time>
      </trkpt>
      <trkpt lat="45.88083" lon="4.39952">
        <ele>514.2</ele>
        <time>2025-09-09T13:28:06Z</time>
      </trkpt>
      <trkpt lat="45.88082" lon="4.39953">
        <ele>514.2</ele>
        <time>2025-09-09T13:28:07Z</time>
      </trkpt>
      <trkpt lat="45.88081" lon="4.39953">
        <ele>514.4</ele>
        <time>2025-09-09T13:28:08Z</time>
      </trkpt>
      <trkpt lat="45.88079" lon="4.39954">
        <ele>514.4</ele>
        <time>2025-09-09T13:28:09Z</time>
      </trkpt>
      <trkpt lat="45.88078" lon="4.39954">
        <ele>514.4</ele>
        <time>2025-09-09T13:28:10Z</time>
      </trkpt>
      <trkpt lat="45.88076" lon="4.39955">
        <ele>514.4</ele>
        <time>2025-09-09T13:28:11Z</time>
      </trkpt>
      <trkpt lat="45.88075" lon="4.39956">
        <ele>514.4</ele>
        <time>2025-09-09T13:28:12Z</time>
      </trkpt>
      <trkpt lat="45.88073" lon="4.39956">
        <ele>514.8</ele>
        <time>2025-09-09T13:28:13Z</time>
      </trkpt>
      <trkpt lat="45.88072" lon="4.39957">
        <ele>515</ele>
        <time>2025-09-09T13:28:14Z</time>
      </trkpt>
      <trkpt lat="45.8807" lon="4.39958">
        <ele>515</ele>
        <time>2025-09-09T13:28:15Z</time>
      </trkpt>
      <trkpt lat="45.88068" lon="4.39958">
        <ele>515.4</ele>
        <time>2025-09-09T13:28:16Z</time>
      </trkpt>
      <trkpt lat="45.88067" lon="4.39958">
        <ele>515.4</ele>
        <time>2025-09-09T13:28:17Z</time>
      </trkpt>
      <trkpt lat="45.88066" lon="4.39958">
        <ele>515.6</ele>
        <time>2025-09-09T13:28:18Z</time>
      </trkpt>
      <trkpt lat="45.88065" lon="4.39959">
        <ele>515.6</ele>
        <time>2025-09-09T13:28:19Z</time>
      </trkpt>
      <trkpt lat="45.88063" lon="4.39959">
        <ele>516</ele>
        <time>2025-09-09T13:28:20Z</time>
      </trkpt>
      <trkpt lat="45.88062" lon="4.3996">
        <ele>516</ele>
        <time>2025-09-09T13:28:21Z</time>
      </trkpt>
      <trkpt lat="45.88062" lon="4.39961">
        <ele>516.2</ele>
        <time>2025-09-09T13:28:22Z</time>
      </trkpt>
      <trkpt lat="45.88061" lon="4.39962">
        <ele>516.2</ele>
        <time>2025-09-09T13:28:23Z</time>
      </trkpt>
      <trkpt lat="45.88059" lon="4.39962">
        <ele>516.4</ele>
        <time>2025-09-09T13:28:24Z</time>
      </trkpt>
      <trkpt lat="45.88058" lon="4.39963">
        <ele>516.4</ele>
        <time>2025-09-09T13:28:25Z</time>
      </trkpt>
      <trkpt lat="45.88057" lon="4.39964">
        <ele>516.8</ele>
        <time>2025-09-09T13:28:26Z</time>
      </trkpt>
      <trkpt lat="45.88056" lon="4.39965">
        <ele>516.8</ele>
        <time>2025-09-09T13:28:27Z</time>
      </trkpt>
      <trkpt lat="45.88054" lon="4.39966">
        <ele>516.8</ele>
        <time>2025-09-09T13:28:28Z</time>
      </trkpt>
      <trkpt lat="45.88053" lon="4.39966">
        <ele>516.8</ele>
        <time>2025-09-09T13:28:29Z</time>
      </trkpt>
      <trkpt lat="45.88051" lon="4.39967">
        <ele>517</ele>
        <time>2025-09-09T13:28:30Z</time>
      </trkpt>
      <trkpt lat="45.8805" lon="4.39967">
        <ele>517</ele>
        <time>2025-09-09T13:28:31Z</time>
      </trkpt>
      <trkpt lat="45.88049" lon="4.39967">
        <ele>517.2</ele>
        <time>2025-09-09T13:28:32Z</time>
      </trkpt>
      <trkpt lat="45.88048" lon="4.39967">
        <ele>517.2</ele>
        <time>2025-09-09T13:28:33Z</time>
      </trkpt>
      <trkpt lat="45.88046" lon="4.39968">
        <ele>517.2</ele>
        <time>2025-09-09T13:28:34Z</time>
      </trkpt>
      <trkpt lat="45.88044" lon="4.39968">
        <ele>517.6</ele>
        <time>2025-09-09T13:28:35Z</time>
      </trkpt>
      <trkpt lat="45.88043" lon="4.39969">
        <ele>518</ele>
        <time>2025-09-09T13:28:36Z</time>
      </trkpt>
      <trkpt lat="45.88041" lon="4.39969">
        <ele>518.2</ele>
        <time>2025-09-09T13:28:37Z</time>
      </trkpt>
      <trkpt lat="45.8804" lon="4.39969">
        <ele>518.4</ele>
        <time>2025-09-09T13:28:38Z</time>
      </trkpt>
      <trkpt lat="45.88039" lon="4.39969">
        <ele>518.4</ele>
        <time>2025-09-09T13:28:39Z</time>
      </trkpt>
      <trkpt lat="45.88037" lon="4.39969">
        <ele>518.4</ele>
        <time>2025-09-09T13:28:40Z</time>
      </trkpt>
      <trkpt lat="45.88036" lon="4.39969">
        <ele>518.4</ele>
        <time>2025-09-09T13:28:41Z</time>
      </trkpt>
      <trkpt lat="45.88035" lon="4.3997">
        <ele>518.8</ele>
        <time>2025-09-09T13:28:42Z</time>
      </trkpt>
      <trkpt lat="45.88033" lon="4.3997">
        <ele>518.8</ele>
        <time>2025-09-09T13:28:43Z</time>
      </trkpt>
      <trkpt lat="45.88032" lon="4.3997">
        <ele>518.8</ele>
        <time>2025-09-09T13:28:44Z</time>
      </trkpt>
      <trkpt lat="45.8803" lon="4.39971">
        <ele>519.2</ele>
        <time>2025-09-09T13:28:45Z</time>
      </trkpt>
      <trkpt lat="45.88029" lon="4.39972">
        <ele>519.2</ele>
        <time>2025-09-09T13:28:46Z</time>
      </trkpt>
      <trkpt lat="45.88028" lon="4.39973">
        <ele>519.4</ele>
        <time>2025-09-09T13:28:47Z</time>
      </trkpt>
      <trkpt lat="45.88026" lon="4.39973">
        <ele>519.6</ele>
        <time>2025-09-09T13:28:48Z</time>
      </trkpt>
      <trkpt lat="45.88025" lon="4.39974">
        <ele>519.6</ele>
        <time>2025-09-09T13:28:49Z</time>
      </trkpt>
      <trkpt lat="45.88023" lon="4.39975">
        <ele>519.6</ele>
        <time>2025-09-09T13:28:50Z</time>
      </trkpt>
      <trkpt lat="45.88021" lon="4.39975">
        <ele>519.8</ele>
        <time>2025-09-09T13:28:51Z</time>
      </trkpt>
      <trkpt lat="45.8802" lon="4.39976">
        <ele>519.8</ele>
        <time>2025-09-09T13:28:52Z</time>
      </trkpt>
      <trkpt lat="45.88017" lon="4.39978">
        <ele>519.8</ele>
        <time>2025-09-09T13:28:53Z</time>
      </trkpt>
      <trkpt lat="45.88016" lon="4.39978">
        <ele>520.2</ele>
        <time>2025-09-09T13:28:54Z</time>
      </trkpt>
      <trkpt lat="45.88014" lon="4.39978">
        <ele>520.2</ele>
        <time>2025-09-09T13:28:55Z</time>
      </trkpt>
      <trkpt lat="45.88013" lon="4.39979">
        <ele>520.4</ele>
        <time>2025-09-09T13:28:56Z</time>
      </trkpt>
      <trkpt lat="45.88011" lon="4.3998">
        <ele>520.4</ele>
        <time>2025-09-09T13:28:57Z</time>
      </trkpt>
      <trkpt lat="45.8801" lon="4.39981">
        <ele>520.6</ele>
        <time>2025-09-09T13:28:58Z</time>
      </trkpt>
      <trkpt lat="45.88009" lon="4.39982">
        <ele>520.6</ele>
        <time>2025-09-09T13:28:59Z</time>
      </trkpt>
      <trkpt lat="45.88008" lon="4.39983">
        <ele>521</ele>
        <time>2025-09-09T13:29:00Z</time>
      </trkpt>
      <trkpt lat="45.88006" lon="4.39984">
        <ele>521</ele>
        <time>2025-09-09T13:29:01Z</time>
      </trkpt>
      <trkpt lat="45.88005" lon="4.39985">
        <ele>521</ele>
        <time>2025-09-09T13:29:02Z</time>
      </trkpt>
      <trkpt lat="45.88004" lon="4.39986">
        <ele>521.2</ele>
        <time>2025-09-09T13:29:03Z</time>
      </trkpt>
      <trkpt lat="45.88002" lon="4.39986">
        <ele>521.2</ele>
        <time>2025-09-09T13:29:04Z</time>
      </trkpt>
      <trkpt lat="45.88001" lon="4.39988">
        <ele>521.4</ele>
        <time>2025-09-09T13:29:05Z</time>
      </trkpt>
      <trkpt lat="45.88" lon="4.39989">
        <ele>521.4</ele>
        <time>2025-09-09T13:29:06Z</time>
      </trkpt>
      <trkpt lat="45.87999" lon="4.3999">
        <ele>521.8</ele>
        <time>2025-09-09T13:29:07Z</time>
      </trkpt>
      <trkpt lat="45.87998" lon="4.39991">
        <ele>521.8</ele>
        <time>2025-09-09T13:29:08Z</time>
      </trkpt>
      <trkpt lat="45.87996" lon="4.39992">
        <ele>522</ele>
        <time>2025-09-09T13:29:09Z</time>
      </trkpt>
      <trkpt lat="45.87995" lon="4.39993">
        <ele>522</ele>
        <time>2025-09-09T13:29:10Z</time>
      </trkpt>
      <trkpt lat="45.87994" lon="4.39994">
        <ele>522</ele>
        <time>2025-09-09T13:29:11Z</time>
      </trkpt>
      <trkpt lat="45.87993" lon="4.39995">
        <ele>522</ele>
        <time>2025-09-09T13:29:12Z</time>
      </trkpt>
      <trkpt lat="45.87992" lon="4.39996">
        <ele>522.2</ele>
        <time>2025-09-09T13:29:13Z</time>
      </trkpt>
      <trkpt lat="45.8799" lon="4.39997">
        <ele>522.2</ele>
        <time>2025-09-09T13:29:14Z</time>
      </trkpt>
      <trkpt lat="45.87989" lon="4.39998">
        <ele>522.6</ele>
        <time>2025-09-09T13:29:15Z</time>
      </trkpt>
      <trkpt lat="45.87988" lon="4.4">
        <ele>522.6</ele>
        <time>2025-09-09T13:29:16Z</time>
      </trkpt>
      <trkpt lat="45.87987" lon="4.40001">
        <ele>522.6</ele>
        <time>2025-09-09T13:29:17Z</time>
      </trkpt>
      <trkpt lat="45.87985" lon="4.40002">
        <ele>522.8</ele>
        <time>2025-09-09T13:29:18Z</time>
      </trkpt>
      <trkpt lat="45.87985" lon="4.40003">
        <ele>522.8</ele>
        <time>2025-09-09T13:29:19Z</time>
      </trkpt>
      <trkpt lat="45.87984" lon="4.40005">
        <ele>523.2</ele>
        <time>2025-09-09T13:29:20Z</time>
      </trkpt>
      <trkpt lat="45.87983" lon="4.40007">
        <ele>523.2</ele>
        <time>2025-09-09T13:29:21Z</time>
      </trkpt>
      <trkpt lat="45.87981" lon="4.40008">
        <ele>523.6</ele>
        <time>2025-09-09T13:29:22Z</time>
      </trkpt>
      <trkpt lat="45.8798" lon="4.40009">
        <ele>523.6</ele>
        <time>2025-09-09T13:29:23Z</time>
      </trkpt>
      <trkpt lat="45.87979" lon="4.4001">
        <ele>523.8</ele>
        <time>2025-09-09T13:29:24Z</time>
      </trkpt>
      <trkpt lat="45.87978" lon="4.40011">
        <ele>523.8</ele>
        <time>2025-09-09T13:29:25Z</time>
      </trkpt>
      <trkpt lat="45.87976" lon="4.40012">
        <ele>524.2</ele>
        <time>2025-09-09T13:29:26Z</time>
      </trkpt>
      <trkpt lat="45.87975" lon="4.40013">
        <ele>524.2</ele>
        <time>2025-09-09T13:29:27Z</time>
      </trkpt>
      <trkpt lat="45.87974" lon="4.40014">
        <ele>524.2</ele>
        <time>2025-09-09T13:29:28Z</time>
      </trkpt>
      <trkpt lat="45.87973" lon="4.40015">
        <ele>524.6</ele>
        <time>2025-09-09T13:29:29Z</time>
      </trkpt>
      <trkpt lat="45.87971" lon="4.40016">
        <ele>524.6</ele>
        <time>2025-09-09T13:29:30Z</time>
      </trkpt>
      <trkpt lat="45.8797" lon="4.40017">
        <ele>524.6</ele>
        <time>2025-09-09T13:29:31Z</time>
      </trkpt>
      <trkpt lat="45.87969" lon="4.40018">
        <ele>525</ele>
        <time>2025-09-09T13:29:32Z</time>
      </trkpt>
      <trkpt lat="45.87968" lon="4.40019">
        <ele>525</ele>
        <time>2025-09-09T13:29:33Z</time>
      </trkpt>
      <trkpt lat="45.87967" lon="4.40021">
        <ele>525</ele>
        <time>2025-09-09T13:29:34Z</time>
      </trkpt>
      <trkpt lat="45.87966" lon="4.40022">
        <ele>525.2</ele>
        <time>2025-09-09T13:29:35Z</time>
      </trkpt>
      <trkpt lat="45.87965" lon="4.40024">
        <ele>525.2</ele>
        <time>2025-09-09T13:29:36Z</time>
      </trkpt>
      <trkpt lat="45.87964" lon="4.40025">
        <ele>525.4</ele>
        <time>2025-09-09T13:29:37Z</time>
      </trkpt>
      <trkpt lat="45.87962" lon="4.40027">
        <ele>525.4</ele>
        <time>2025-09-09T13:29:38Z</time>
      </trkpt>
      <trkpt lat="45.87961" lon="4.40028">
        <ele>525.8</ele>
        <time>2025-09-09T13:29:39Z</time>
      </trkpt>
      <trkpt lat="45.8796" lon="4.4003">
        <ele>525.8</ele>
        <time>2025-09-09T13:29:40Z</time>
      </trkpt>
      <trkpt lat="45.8796" lon="4.4003">
        <ele>525.8</ele>
        <time>2025-09-09T13:29:41Z</time>
      </trkpt>
      <trkpt lat="45.87959" lon="4.40032">
        <ele>526</ele>
        <time>2025-09-09T13:29:42Z</time>
      </trkpt>
      <trkpt lat="45.87958" lon="4.40034">
        <ele>526</ele>
        <time>2025-09-09T13:29:43Z</time>
      </trkpt>
      <trkpt lat="45.87957" lon="4.40036">
        <ele>526.2</ele>
        <time>2025-09-09T13:29:44Z</time>
      </trkpt>
      <trkpt lat="45.87956" lon="4.40037">
        <ele>526.2</ele>
        <time>2025-09-09T13:29:45Z</time>
      </trkpt>
      <trkpt lat="45.87955" lon="4.40038">
        <ele>526.2</ele>
        <time>2025-09-09T13:29:46Z</time>
      </trkpt>
      <trkpt lat="45.87954" lon="4.4004">
        <ele>526.6</ele>
        <time>2025-09-09T13:29:47Z</time>
      </trkpt>
      <trkpt lat="45.87952" lon="4.40041">
        <ele>526.6</ele>
        <time>2025-09-09T13:29:48Z</time>
      </trkpt>
      <trkpt lat="45.87951" lon="4.40043">
        <ele>526.6</ele>
        <time>2025-09-09T13:29:49Z</time>
      </trkpt>
      <trkpt lat="45.87949" lon="4.40044">
        <ele>526.8</ele>
        <time>2025-09-09T13:29:50Z</time>
      </trkpt>
      <trkpt lat="45.87948" lon="4.40045">
        <ele>526.8</ele>
        <time>2025-09-09T13:29:51Z</time>
      </trkpt>
      <trkpt lat="45.87947" lon="4.40046">
        <ele>527</ele>
        <time>2025-09-09T13:29:52Z</time>
      </trkpt>
      <trkpt lat="45.87945" lon="4.40047">
        <ele>527</ele>
        <time>2025-09-09T13:29:53Z</time>
      </trkpt>
      <trkpt lat="45.87944" lon="4.40048">
        <ele>527.4</ele>
        <time>2025-09-09T13:29:54Z</time>
      </trkpt>
      <trkpt lat="45.87943" lon="4.4005">
        <ele>527.4</ele>
        <time>2025-09-09T13:29:55Z</time>
      </trkpt>
      <trkpt lat="45.87943" lon="4.4005">
        <ele>527.4</ele>
        <time>2025-09-09T13:29:56Z</time>
      </trkpt>
      <trkpt lat="45.87943" lon="4.4005">
        <ele>527.6</ele>
        <time>2025-09-09T13:29:57Z</time>
      </trkpt>
      <trkpt lat="45.87939" lon="4.40057">
        <ele>527.6</ele>
        <time>2025-09-09T13:29:59Z</time>
      </trkpt>
      <trkpt lat="45.87938" lon="4.40058">
        <ele>527.6</ele>
        <time>2025-09-09T13:30:00Z</time>
      </trkpt>
      <trkpt lat="45.87937" lon="4.40059">
        <ele>527.8</ele>
        <time>2025-09-09T13:30:01Z</time>
      </trkpt>
      <trkpt lat="45.87936" lon="4.4006">
        <ele>527.8</ele>
        <time>2025-09-09T13:30:02Z</time>
      </trkpt>
      <trkpt lat="45.87934" lon="4.40061">
        <ele>528.2</ele>
        <time>2025-09-09T13:30:03Z</time>
      </trkpt>
      <trkpt lat="45.87933" lon="4.40062">
        <ele>528.2</ele>
        <time>2025-09-09T13:30:04Z</time>
      </trkpt>
      <trkpt lat="45.87932" lon="4.40063">
        <ele>528.4</ele>
        <time>2025-09-09T13:30:05Z</time>
      </trkpt>
      <trkpt lat="45.87931" lon="4.40064">
        <ele>528.4</ele>
        <time>2025-09-09T13:30:06Z</time>
      </trkpt>
      <trkpt lat="45.87929" lon="4.40066">
        <ele>528.4</ele>
        <time>2025-09-09T13:30:07Z</time>
      </trkpt>
      <trkpt lat="45.87928" lon="4.40068">
        <ele>528.4</ele>
        <time>2025-09-09T13:30:08Z</time>
      </trkpt>
      <trkpt lat="45.87927" lon="4.40069">
        <ele>528.4</ele>
        <time>2025-09-09T13:30:09Z</time>
      </trkpt>
      <trkpt lat="45.87926" lon="4.4007">
        <ele>528.8</ele>
        <time>2025-09-09T13:30:10Z</time>
      </trkpt>
      <trkpt lat="45.87925" lon="4.40072">
        <ele>528.8</ele>
        <time>2025-09-09T13:30:11Z</time>
      </trkpt>
      <trkpt lat="45.87925" lon="4.40074">
        <ele>529</ele>
        <time>2025-09-09T13:30:12Z</time>
      </trkpt>
      <trkpt lat="45.87924" lon="4.40075">
        <ele>529</ele>
        <time>2025-09-09T13:30:13Z</time>
      </trkpt>
      <trkpt lat="45.87923" lon="4.40077">
        <ele>529.4</ele>
        <time>2025-09-09T13:30:14Z</time>
      </trkpt>
      <trkpt lat="45.87922" lon="4.40079">
        <ele>529.4</ele>
        <time>2025-09-09T13:30:15Z</time>
      </trkpt>
      <trkpt lat="45.87921" lon="4.40081">
        <ele>529.4</ele>
        <time>2025-09-09T13:30:16Z</time>
      </trkpt>
      <trkpt lat="45.87919" lon="4.40084">
        <ele>529.6</ele>
        <time>2025-09-09T13:30:17Z</time>
      </trkpt>
      <trkpt lat="45.87918" lon="4.40085">
        <ele>529.6</ele>
        <time>2025-09-09T13:30:18Z</time>
      </trkpt>
      <trkpt lat="45.87917" lon="4.40087">
        <ele>530</ele>
        <time>2025-09-09T13:30:19Z</time>
      </trkpt>
      <trkpt lat="45.87916" lon="4.40088">
        <ele>530</ele>
        <time>2025-09-09T13:30:20Z</time>
      </trkpt>
      <trkpt lat="45.87915" lon="4.40089">
        <ele>530.4</ele>
        <time>2025-09-09T13:30:21Z</time>
      </trkpt>
      <trkpt lat="45.87915" lon="4.4009">
        <ele>530.4</ele>
        <time>2025-09-09T13:30:22Z</time>
      </trkpt>
      <trkpt lat="45.87914" lon="4.40092">
        <ele>530.6</ele>
        <time>2025-09-09T13:30:23Z</time>
      </trkpt>
      <trkpt lat="45.87913" lon="4.40094">
        <ele>530.6</ele>
        <time>2025-09-09T13:30:24Z</time>
      </trkpt>
      <trkpt lat="45.87912" lon="4.40095">
        <ele>530.8</ele>
        <time>2025-09-09T13:30:25Z</time>
      </trkpt>
      <trkpt lat="45.87912" lon="4.40095">
        <ele>530.8</ele>
        <time>2025-09-09T13:30:26Z</time>
      </trkpt>
      <trkpt lat="45.87912" lon="4.40098">
        <ele>530.8</ele>
        <time>2025-09-09T13:30:27Z</time>
      </trkpt>
      <trkpt lat="45.87911" lon="4.40099">
        <ele>530.8</ele>
        <time>2025-09-09T13:30:28Z</time>
      </trkpt>
      <trkpt lat="45.8791" lon="4.40101">
        <ele>531.2</ele>
        <time>2025-09-09T13:30:29Z</time>
      </trkpt>
      <trkpt lat="45.8791" lon="4.40102">
        <ele>531.2</ele>
        <time>2025-09-09T13:30:30Z</time>
      </trkpt>
      <trkpt lat="45.87909" lon="4.40104">
        <ele>531.6</ele>
        <time>2025-09-09T13:30:31Z</time>
      </trkpt>
      <trkpt lat="45.87908" lon="4.40105">
        <ele>531.6</ele>
        <time>2025-09-09T13:30:32Z</time>
      </trkpt>
      <trkpt lat="45.87907" lon="4.40107">
        <ele>532</ele>
        <time>2025-09-09T13:30:33Z</time>
      </trkpt>
      <trkpt lat="45.87906" lon="4.40108">
        <ele>532.2</ele>
        <time>2025-09-09T13:30:34Z</time>
      </trkpt>
      <trkpt lat="45.87905" lon="4.40109">
        <ele>532.4</ele>
        <time>2025-09-09T13:30:35Z</time>
      </trkpt>
      <trkpt lat="45.87904" lon="4.4011">
        <ele>532.4</ele>
        <time>2025-09-09T13:30:36Z</time>
      </trkpt>
      <trkpt lat="45.87904" lon="4.40111">
        <ele>532.4</ele>
        <time>2025-09-09T13:30:37Z</time>
      </trkpt>
      <trkpt lat="45.87903" lon="4.40114">
        <ele>532.6</ele>
        <time>2025-09-09T13:30:38Z</time>
      </trkpt>
      <trkpt lat="45.87902" lon="4.40116">
        <ele>532.6</ele>
        <time>2025-09-09T13:30:39Z</time>
      </trkpt>
      <trkpt lat="45.87902" lon="4.40117">
        <ele>532.8</ele>
        <time>2025-09-09T13:30:40Z</time>
      </trkpt>
      <trkpt lat="45.87901" lon="4.40118">
        <ele>533</ele>
        <time>2025-09-09T13:30:41Z</time>
      </trkpt>
      <trkpt lat="45.879" lon="4.40121">
        <ele>533</ele>
        <time>2025-09-09T13:30:42Z</time>
      </trkpt>
      <trkpt lat="45.87899" lon="4.40123">
        <ele>533</ele>
        <time>2025-09-09T13:30:43Z</time>
      </trkpt>
      <trkpt lat="45.87898" lon="4.40124">
        <ele>533</ele>
        <time>2025-09-09T13:30:44Z</time>
      </trkpt>
      <trkpt lat="45.87897" lon="4.40126">
        <ele>533</ele>
        <time>2025-09-09T13:30:45Z</time>
      </trkpt>
      <trkpt lat="45.87897" lon="4.40128">
        <ele>533.4</ele>
        <time>2025-09-09T13:30:46Z</time>
      </trkpt>
      <trkpt lat="45.87896" lon="4.40129">
        <ele>533.4</ele>
        <time>2025-09-09T13:30:47Z</time>
      </trkpt>
      <trkpt lat="45.87895" lon="4.40131">
        <ele>533.8</ele>
        <time>2025-09-09T13:30:48Z</time>
      </trkpt>
      <trkpt lat="45.87894" lon="4.40132">
        <ele>533.8</ele>
        <time>2025-09-09T13:30:49Z</time>
      </trkpt>
      <trkpt lat="45.87893" lon="4.40133">
        <ele>534</ele>
        <time>2025-09-09T13:30:50Z</time>
      </trkpt>
      <trkpt lat="45.87892" lon="4.40135">
        <ele>534</ele>
        <time>2025-09-09T13:30:51Z</time>
      </trkpt>
      <trkpt lat="45.87891" lon="4.40136">
        <ele>534.4</ele>
        <time>2025-09-09T13:30:52Z</time>
      </trkpt>
      <trkpt lat="45.8789" lon="4.40138">
        <ele>534.4</ele>
        <time>2025-09-09T13:30:53Z</time>
      </trkpt>
      <trkpt lat="45.87888" lon="4.40141">
        <ele>534.4</ele>
        <time>2025-09-09T13:30:54Z</time>
      </trkpt>
      <trkpt lat="45.87887" lon="4.40143">
        <ele>534.4</ele>
        <time>2025-09-09T13:30:55Z</time>
      </trkpt>
      <trkpt lat="45.87885" lon="4.40145">
        <ele>534.4</ele>
        <time>2025-09-09T13:30:56Z</time>
      </trkpt>
      <trkpt lat="45.87883" lon="4.40147">
        <ele>534.6</ele>
        <time>2025-09-09T13:30:57Z</time>
      </trkpt>
      <trkpt lat="45.87882" lon="4.40148">
        <ele>534.6</ele>
        <time>2025-09-09T13:30:58Z</time>
      </trkpt>
      <trkpt lat="45.87881" lon="4.40149">
        <ele>534.6</ele>
        <time>2025-09-09T13:30:59Z</time>
      </trkpt>
      <trkpt lat="45.8788" lon="4.40151">
        <ele>534.6</ele>
        <time>2025-09-09T13:31:00Z</time>
      </trkpt>
      <trkpt lat="45.87878" lon="4.40152">
        <ele>534.6</ele>
        <time>2025-09-09T13:31:01Z</time>
      </trkpt>
      <trkpt lat="45.87878" lon="4.40153">
        <ele>535</ele>
        <time>2025-09-09T13:31:02Z</time>
      </trkpt>
      <trkpt lat="45.87877" lon="4.40154">
        <ele>535</ele>
        <time>2025-09-09T13:31:03Z</time>
      </trkpt>
      <trkpt lat="45.87876" lon="4.40155">
        <ele>535.2</ele>
        <time>2025-09-09T13:31:04Z</time>
      </trkpt>
      <trkpt lat="45.87875" lon="4.40157">
        <ele>535.2</ele>
        <time>2025-09-09T13:31:05Z</time>
      </trkpt>
      <trkpt lat="45.87874" lon="4.40158">
        <ele>535.6</ele>
        <time>2025-09-09T13:31:06Z</time>
      </trkpt>
      <trkpt lat="45.87873" lon="4.40159">
        <ele>535.6</ele>
        <time>2025-09-09T13:31:07Z</time>
      </trkpt>
      <trkpt lat="45.87873" lon="4.4016">
        <ele>535.8</ele>
        <time>2025-09-09T13:31:08Z</time>
      </trkpt>
      <trkpt lat="45.87872" lon="4.40162">
        <ele>535.8</ele>
        <time>2025-09-09T13:31:09Z</time>
      </trkpt>
      <trkpt lat="45.87871" lon="4.40163">
        <ele>536.2</ele>
        <time>2025-09-09T13:31:10Z</time>
      </trkpt>
      <trkpt lat="45.8787" lon="4.40165">
        <ele>536.4</ele>
        <time>2025-09-09T13:31:11Z</time>
      </trkpt>
      <trkpt lat="45.87869" lon="4.40166">
        <ele>536.4</ele>
        <time>2025-09-09T13:31:12Z</time>
      </trkpt>
      <trkpt lat="45.87868" lon="4.40167">
        <ele>536.8</ele>
        <time>2025-09-09T13:31:13Z</time>
      </trkpt>
      <trkpt lat="45.87867" lon="4.40168">
        <ele>536.8</ele>
        <time>2025-09-09T13:31:14Z</time>
      </trkpt>
      <trkpt lat="45.87866" lon="4.40169">
        <ele>537</ele>
        <time>2025-09-09T13:31:15Z</time>
      </trkpt>
      <trkpt lat="45.87865" lon="4.4017">
        <ele>537</ele>
        <time>2025-09-09T13:31:16Z</time>
      </trkpt>
      <trkpt lat="45.87864" lon="4.40171">
        <ele>537.4</ele>
        <time>2025-09-09T13:31:17Z</time>
      </trkpt>
      <trkpt lat="45.87863" lon="4.40173">
        <ele>537.4</ele>
        <time>2025-09-09T13:31:18Z</time>
      </trkpt>
      <trkpt lat="45.87862" lon="4.40174">
        <ele>537.4</ele>
        <time>2025-09-09T13:31:19Z</time>
      </trkpt>
      <trkpt lat="45.87861" lon="4.40175">
        <ele>537.8</ele>
        <time>2025-09-09T13:31:20Z</time>
      </trkpt>
      <trkpt lat="45.8786" lon="4.40176">
        <ele>537.8</ele>
        <time>2025-09-09T13:31:21Z</time>
      </trkpt>
      <trkpt lat="45.87859" lon="4.40177">
        <ele>537.8</ele>
        <time>2025-09-09T13:31:22Z</time>
      </trkpt>
      <trkpt lat="45.87858" lon="4.40179">
        <ele>537.8</ele>
        <time>2025-09-09T13:31:23Z</time>
      </trkpt>
      <trkpt lat="45.87858" lon="4.40179">
        <ele>537.8</ele>
        <time>2025-09-09T13:31:24Z</time>
      </trkpt>
      <trkpt lat="45.87857" lon="4.4018">
        <ele>537.8</ele>
        <time>2025-09-09T13:31:25Z</time>
      </trkpt>
      <trkpt lat="45.87856" lon="4.40182">
        <ele>538</ele>
        <time>2025-09-09T13:31:26Z</time>
      </trkpt>
      <trkpt lat="45.87855" lon="4.40183">
        <ele>538</ele>
        <time>2025-09-09T13:31:27Z</time>
      </trkpt>
      <trkpt lat="45.87854" lon="4.40185">
        <ele>538.2</ele>
        <time>2025-09-09T13:31:28Z</time>
      </trkpt>
      <trkpt lat="45.87853" lon="4.40186">
        <ele>538.2</ele>
        <time>2025-09-09T13:31:29Z</time>
      </trkpt>
      <trkpt lat="45.87852" lon="4.40187">
        <ele>538.2</ele>
        <time>2025-09-09T13:31:30Z</time>
      </trkpt>
      <trkpt lat="45.87851" lon="4.40188">
        <ele>538.4</ele>
        <time>2025-09-09T13:31:31Z</time>
      </trkpt>
      <trkpt lat="45.8785" lon="4.4019">
        <ele>538.4</ele>
        <time>2025-09-09T13:31:32Z</time>
      </trkpt>
      <trkpt lat="45.87849" lon="4.40191">
        <ele>538.8</ele>
        <time>2025-09-09T13:31:33Z</time>
      </trkpt>
      <trkpt lat="45.87848" lon="4.40193">
        <ele>538.8</ele>
        <time>2025-09-09T13:31:34Z</time>
      </trkpt>
      <trkpt lat="45.87848" lon="4.40195">
        <ele>538.8</ele>
        <time>2025-09-09T13:31:35Z</time>
      </trkpt>
      <trkpt lat="45.87847" lon="4.40196">
        <ele>538.8</ele>
        <time>2025-09-09T13:31:36Z</time>
      </trkpt>
      <trkpt lat="45.87846" lon="4.40197">
        <ele>538.8</ele>
        <time>2025-09-09T13:31:37Z</time>
      </trkpt>
      <trkpt lat="45.87845" lon="4.40198">
        <ele>539</ele>
        <time>2025-09-09T13:31:38Z</time>
      </trkpt>
      <trkpt lat="45.87845" lon="4.40199">
        <ele>539.2</ele>
        <time>2025-09-09T13:31:39Z</time>
      </trkpt>
      <trkpt lat="45.87844" lon="4.40201">
        <ele>539.4</ele>
        <time>2025-09-09T13:31:40Z</time>
      </trkpt>
      <trkpt lat="45.87843" lon="4.40202">
        <ele>539.4</ele>
        <time>2025-09-09T13:31:41Z</time>
      </trkpt>
      <trkpt lat="45.87841" lon="4.40202">
        <ele>539.8</ele>
        <time>2025-09-09T13:31:42Z</time>
      </trkpt>
      <trkpt lat="45.8784" lon="4.40203">
        <ele>539.8</ele>
        <time>2025-09-09T13:31:43Z</time>
      </trkpt>
      <trkpt lat="45.87839" lon="4.40204">
        <ele>539.8</ele>
        <time>2025-09-09T13:31:44Z</time>
      </trkpt>
      <trkpt lat="45.87839" lon="4.40206">
        <ele>540</ele>
        <time>2025-09-09T13:31:45Z</time>
      </trkpt>
      <trkpt lat="45.87838" lon="4.40207">
        <ele>540</ele>
        <time>2025-09-09T13:31:46Z</time>
      </trkpt>
      <trkpt lat="45.87838" lon="4.40209">
        <ele>540.4</ele>
        <time>2025-09-09T13:31:47Z</time>
      </trkpt>
      <trkpt lat="45.87837" lon="4.4021">
        <ele>540.4</ele>
        <time>2025-09-09T13:31:48Z</time>
      </trkpt>
      <trkpt lat="45.87836" lon="4.40211">
        <ele>540.6</ele>
        <time>2025-09-09T13:31:49Z</time>
      </trkpt>
      <trkpt lat="45.87836" lon="4.40213">
        <ele>540.6</ele>
        <time>2025-09-09T13:31:50Z</time>
      </trkpt>
      <trkpt lat="45.87836" lon="4.40214">
        <ele>541</ele>
        <time>2025-09-09T13:31:51Z</time>
      </trkpt>
      <trkpt lat="45.87835" lon="4.40215">
        <ele>541</ele>
        <time>2025-09-09T13:31:52Z</time>
      </trkpt>
      <trkpt lat="45.87834" lon="4.40216">
        <ele>541</ele>
        <time>2025-09-09T13:31:53Z</time>
      </trkpt>
      <trkpt lat="45.87832" lon="4.40217">
        <ele>541.2</ele>
        <time>2025-09-09T13:31:54Z</time>
      </trkpt>
      <trkpt lat="45.87831" lon="4.40218">
        <ele>541.2</ele>
        <time>2025-09-09T13:31:55Z</time>
      </trkpt>
      <trkpt lat="45.87829" lon="4.4022">
        <ele>541.2</ele>
        <time>2025-09-09T13:31:56Z</time>
      </trkpt>
      <trkpt lat="45.87828" lon="4.40221">
        <ele>541.4</ele>
        <time>2025-09-09T13:31:57Z</time>
      </trkpt>
      <trkpt lat="45.87827" lon="4.40223">
        <ele>541.8</ele>
        <time>2025-09-09T13:31:58Z</time>
      </trkpt>
      <trkpt lat="45.87826" lon="4.40225">
        <ele>542</ele>
        <time>2025-09-09T13:31:59Z</time>
      </trkpt>
      <trkpt lat="45.87825" lon="4.40226">
        <ele>542</ele>
        <time>2025-09-09T13:32:00Z</time>
      </trkpt>
      <trkpt lat="45.87824" lon="4.40228">
        <ele>542.2</ele>
        <time>2025-09-09T13:32:01Z</time>
      </trkpt>
      <trkpt lat="45.87823" lon="4.40229">
        <ele>542.2</ele>
        <time>2025-09-09T13:32:02Z</time>
      </trkpt>
      <trkpt lat="45.87823" lon="4.4023">
        <ele>542.2</ele>
        <time>2025-09-09T13:32:03Z</time>
      </trkpt>
      <trkpt lat="45.87822" lon="4.40231">
        <ele>542.4</ele>
        <time>2025-09-09T13:32:04Z</time>
      </trkpt>
      <trkpt lat="45.87821" lon="4.40232">
        <ele>542.4</ele>
        <time>2025-09-09T13:32:05Z</time>
      </trkpt>
      <trkpt lat="45.8782" lon="4.40233">
        <ele>542.4</ele>
        <time>2025-09-09T13:32:06Z</time>
      </trkpt>
      <trkpt lat="45.87818" lon="4.40234">
        <ele>542.8</ele>
        <time>2025-09-09T13:32:07Z</time>
      </trkpt>
      <trkpt lat="45.87817" lon="4.40235">
        <ele>542.8</ele>
        <time>2025-09-09T13:32:08Z</time>
      </trkpt>
      <trkpt lat="45.87816" lon="4.40236">
        <ele>543</ele>
        <time>2025-09-09T13:32:09Z</time>
      </trkpt>
      <trkpt lat="45.87815" lon="4.40237">
        <ele>543</ele>
        <time>2025-09-09T13:32:10Z</time>
      </trkpt>
      <trkpt lat="45.87814" lon="4.40239">
        <ele>543.2</ele>
        <time>2025-09-09T13:32:11Z</time>
      </trkpt>
      <trkpt lat="45.87813" lon="4.4024">
        <ele>543.2</ele>
        <time>2025-09-09T13:32:12Z</time>
      </trkpt>
      <trkpt lat="45.87813" lon="4.40241">
        <ele>543.2</ele>
        <time>2025-09-09T13:32:13Z</time>
      </trkpt>
      <trkpt lat="45.87812" lon="4.40242">
        <ele>543.2</ele>
        <time>2025-09-09T13:32:14Z</time>
      </trkpt>
      <trkpt lat="45.87811" lon="4.40244">
        <ele>543.2</ele>
        <time>2025-09-09T13:32:15Z</time>
      </trkpt>
      <trkpt lat="45.8781" lon="4.40245">
        <ele>543.6</ele>
        <time>2025-09-09T13:32:16Z</time>
      </trkpt>
      <trkpt lat="45.87809" lon="4.40245">
        <ele>543.6</ele>
        <time>2025-09-09T13:32:17Z</time>
      </trkpt>
      <trkpt lat="45.87808" lon="4.40246">
        <ele>543.8</ele>
        <time>2025-09-09T13:32:18Z</time>
      </trkpt>
      <trkpt lat="45.87807" lon="4.40247">
        <ele>543.8</ele>
        <time>2025-09-09T13:32:19Z</time>
      </trkpt>
      <trkpt lat="45.87807" lon="4.40248">
        <ele>544</ele>
        <time>2025-09-09T13:32:20Z</time>
      </trkpt>
      <trkpt lat="45.87806" lon="4.40249">
        <ele>544</ele>
        <time>2025-09-09T13:32:21Z</time>
      </trkpt>
      <trkpt lat="45.87805" lon="4.40251">
        <ele>544.4</ele>
        <time>2025-09-09T13:32:22Z</time>
      </trkpt>
      <trkpt lat="45.87805" lon="4.40253">
        <ele>544.4</ele>
        <time>2025-09-09T13:32:23Z</time>
      </trkpt>
      <trkpt lat="45.87804" lon="4.40254">
        <ele>544.4</ele>
        <time>2025-09-09T13:32:24Z</time>
      </trkpt>
      <trkpt lat="45.87803" lon="4.40255">
        <ele>544.4</ele>
        <time>2025-09-09T13:32:25Z</time>
      </trkpt>
      <trkpt lat="45.87802" lon="4.40256">
        <ele>544.6</ele>
        <time>2025-09-09T13:32:26Z</time>
      </trkpt>
      <trkpt lat="45.87801" lon="4.40257">
        <ele>544.6</ele>
        <time>2025-09-09T13:32:27Z</time>
      </trkpt>
      <trkpt lat="45.878" lon="4.40258">
        <ele>544.6</ele>
        <time>2025-09-09T13:32:28Z</time>
      </trkpt>
      <trkpt lat="45.87799" lon="4.4026">
        <ele>545</ele>
        <time>2025-09-09T13:32:29Z</time>
      </trkpt>
      <trkpt lat="45.87798" lon="4.40261">
        <ele>545</ele>
        <time>2025-09-09T13:32:30Z</time>
      </trkpt>
      <trkpt lat="45.87797" lon="4.40263">
        <ele>545.2</ele>
        <time>2025-09-09T13:32:31Z</time>
      </trkpt>
      <trkpt lat="45.87796" lon="4.40264">
        <ele>545.2</ele>
        <time>2025-09-09T13:32:32Z</time>
      </trkpt>
      <trkpt lat="45.87795" lon="4.40265">
        <ele>545.2</ele>
        <time>2025-09-09T13:32:33Z</time>
      </trkpt>
      <trkpt lat="45.87794" lon="4.40266">
        <ele>545.4</ele>
        <time>2025-09-09T13:32:34Z</time>
      </trkpt>
      <trkpt lat="45.87793" lon="4.40267">
        <ele>545.4</ele>
        <time>2025-09-09T13:32:35Z</time>
      </trkpt>
      <trkpt lat="45.87793" lon="4.40269">
        <ele>545.4</ele>
        <time>2025-09-09T13:32:36Z</time>
      </trkpt>
      <trkpt lat="45.87792" lon="4.4027">
        <ele>545.4</ele>
        <time>2025-09-09T13:32:37Z</time>
      </trkpt>
      <trkpt lat="45.87791" lon="4.40271">
        <ele>545.6</ele>
        <time>2025-09-09T13:32:38Z</time>
      </trkpt>
      <trkpt lat="45.8779" lon="4.40272">
        <ele>545.6</ele>
        <time>2025-09-09T13:32:39Z</time>
      </trkpt>
      <trkpt lat="45.8779" lon="4.40273">
        <ele>545.8</ele>
        <time>2025-09-09T13:32:40Z</time>
      </trkpt>
      <trkpt lat="45.87789" lon="4.40274">
        <ele>545.8</ele>
        <time>2025-09-09T13:32:41Z</time>
      </trkpt>
      <trkpt lat="45.87788" lon="4.40275">
        <ele>545.8</ele>
        <time>2025-09-09T13:32:42Z</time>
      </trkpt>
      <trkpt lat="45.87787" lon="4.40276">
        <ele>545.8</ele>
        <time>2025-09-09T13:32:43Z</time>
      </trkpt>
      <trkpt lat="45.87787" lon="4.40277">
        <ele>546.2</ele>
        <time>2025-09-09T13:32:44Z</time>
      </trkpt>
      <trkpt lat="45.87786" lon="4.40278">
        <ele>546.2</ele>
        <time>2025-09-09T13:32:45Z</time>
      </trkpt>
      <trkpt lat="45.87785" lon="4.40279">
        <ele>546.4</ele>
        <time>2025-09-09T13:32:46Z</time>
      </trkpt>
      <trkpt lat="45.87785" lon="4.4028">
        <ele>546.4</ele>
        <time>2025-09-09T13:32:47Z</time>
      </trkpt>
      <trkpt lat="45.87785" lon="4.40282">
        <ele>546.8</ele>
        <time>2025-09-09T13:32:48Z</time>
      </trkpt>
      <trkpt lat="45.87784" lon="4.40283">
        <ele>546.8</ele>
        <time>2025-09-09T13:32:49Z</time>
      </trkpt>
      <trkpt lat="45.87784" lon="4.40285">
        <ele>547.2</ele>
        <time>2025-09-09T13:32:50Z</time>
      </trkpt>
      <trkpt lat="45.87783" lon="4.40286">
        <ele>547.2</ele>
        <time>2025-09-09T13:32:51Z</time>
      </trkpt>
      <trkpt lat="45.87782" lon="4.40287">
        <ele>547.4</ele>
        <time>2025-09-09T13:32:52Z</time>
      </trkpt>
      <trkpt lat="45.87781" lon="4.40288">
        <ele>547.4</ele>
        <time>2025-09-09T13:32:53Z</time>
      </trkpt>
      <trkpt lat="45.8778" lon="4.40289">
        <ele>547.6</ele>
        <time>2025-09-09T13:32:54Z</time>
      </trkpt>
      <trkpt lat="45.87779" lon="4.4029">
        <ele>547.6</ele>
        <time>2025-09-09T13:32:55Z</time>
      </trkpt>
      <trkpt lat="45.87779" lon="4.40291">
        <ele>548</ele>
        <time>2025-09-09T13:32:56Z</time>
      </trkpt>
      <trkpt lat="45.87778" lon="4.40292">
        <ele>548</ele>
        <time>2025-09-09T13:32:57Z</time>
      </trkpt>
      <trkpt lat="45.87778" lon="4.40293">
        <ele>548.2</ele>
        <time>2025-09-09T13:32:58Z</time>
      </trkpt>
      <trkpt lat="45.87777" lon="4.40294">
        <ele>548.2</ele>
        <time>2025-09-09T13:32:59Z</time>
      </trkpt>
      <trkpt lat="45.87777" lon="4.40295">
        <ele>548.2</ele>
        <time>2025-09-09T13:33:00Z</time>
      </trkpt>
      <trkpt lat="45.87776" lon="4.40296">
        <ele>548.4</ele>
        <time>2025-09-09T13:33:01Z</time>
      </trkpt>
      <trkpt lat="45.87775" lon="4.40297">
        <ele>548.4</ele>
        <time>2025-09-09T13:33:02Z</time>
      </trkpt>
      <trkpt lat="45.87775" lon="4.40299">
        <ele>548.6</ele>
        <time>2025-09-09T13:33:03Z</time>
      </trkpt>
      <trkpt lat="45.87775" lon="4.403">
        <ele>548.6</ele>
        <time>2025-09-09T13:33:04Z</time>
      </trkpt>
      <trkpt lat="45.87775" lon="4.40303">
        <ele>548.8</ele>
        <time>2025-09-09T13:33:05Z</time>
      </trkpt>
      <trkpt lat="45.87775" lon="4.40304">
        <ele>548.8</ele>
        <time>2025-09-09T13:33:06Z</time>
      </trkpt>
      <trkpt lat="45.87775" lon="4.40306">
        <ele>548.8</ele>
        <time>2025-09-09T13:33:07Z</time>
      </trkpt>
      <trkpt lat="45.87774" lon="4.40308">
        <ele>548.8</ele>
        <time>2025-09-09T13:33:08Z</time>
      </trkpt>
      <trkpt lat="45.87773" lon="4.40309">
        <ele>549.2</ele>
        <time>2025-09-09T13:33:09Z</time>
      </trkpt>
      <trkpt lat="45.87772" lon="4.40311">
        <ele>549.2</ele>
        <time>2025-09-09T13:33:10Z</time>
      </trkpt>
      <trkpt lat="45.87771" lon="4.40312">
        <ele>549.4</ele>
        <time>2025-09-09T13:33:11Z</time>
      </trkpt>
      <trkpt lat="45.87771" lon="4.40313">
        <ele>549.4</ele>
        <time>2025-09-09T13:33:12Z</time>
      </trkpt>
      <trkpt lat="45.87771" lon="4.40315">
        <ele>549.4</ele>
        <time>2025-09-09T13:33:13Z</time>
      </trkpt>
      <trkpt lat="45.8777" lon="4.40317">
        <ele>549.6</ele>
        <time>2025-09-09T13:33:14Z</time>
      </trkpt>
      <trkpt lat="45.8777" lon="4.40318">
        <ele>549.6</ele>
        <time>2025-09-09T13:33:15Z</time>
      </trkpt>
      <trkpt lat="45.8777" lon="4.4032">
        <ele>549.8</ele>
        <time>2025-09-09T13:33:16Z</time>
      </trkpt>
      <trkpt lat="45.8777" lon="4.40321">
        <ele>549.8</ele>
        <time>2025-09-09T13:33:17Z</time>
      </trkpt>
      <trkpt lat="45.87769" lon="4.40323">
        <ele>550.2</ele>
        <time>2025-09-09T13:33:18Z</time>
      </trkpt>
      <trkpt lat="45.87769" lon="4.40325">
        <ele>550.2</ele>
        <time>2025-09-09T13:33:19Z</time>
      </trkpt>
      <trkpt lat="45.87768" lon="4.40326">
        <ele>550.6</ele>
        <time>2025-09-09T13:33:20Z</time>
      </trkpt>
      <trkpt lat="45.87768" lon="4.40327">
        <ele>550.6</ele>
        <time>2025-09-09T13:33:21Z</time>
      </trkpt>
      <trkpt lat="45.87768" lon="4.40329">
        <ele>550.8</ele>
        <time>2025-09-09T13:33:22Z</time>
      </trkpt>
      <trkpt lat="45.87768" lon="4.40331">
        <ele>550.8</ele>
        <time>2025-09-09T13:33:23Z</time>
      </trkpt>
      <trkpt lat="45.87768" lon="4.40332">
        <ele>551.2</ele>
        <time>2025-09-09T13:33:24Z</time>
      </trkpt>
      <trkpt lat="45.87768" lon="4.40334">
        <ele>551.2</ele>
        <time>2025-09-09T13:33:25Z</time>
      </trkpt>
      <trkpt lat="45.87768" lon="4.40335">
        <ele>551.2</ele>
        <time>2025-09-09T13:33:26Z</time>
      </trkpt>
      <trkpt lat="45.87768" lon="4.40337">
        <ele>551.2</ele>
        <time>2025-09-09T13:33:27Z</time>
      </trkpt>
      <trkpt lat="45.87768" lon="4.40338">
        <ele>551.6</ele>
        <time>2025-09-09T13:33:28Z</time>
      </trkpt>
      <trkpt lat="45.87768" lon="4.40339">
        <ele>551.6</ele>
        <time>2025-09-09T13:33:29Z</time>
      </trkpt>
      <trkpt lat="45.87768" lon="4.40341">
        <ele>551.8</ele>
        <time>2025-09-09T13:33:30Z</time>
      </trkpt>
      <trkpt lat="45.87768" lon="4.40343">
        <ele>552</ele>
        <time>2025-09-09T13:33:31Z</time>
      </trkpt>
      <trkpt lat="45.87768" lon="4.40344">
        <ele>552.2</ele>
        <time>2025-09-09T13:33:32Z</time>
      </trkpt>
      <trkpt lat="45.87768" lon="4.40345">
        <ele>552.4</ele>
        <time>2025-09-09T13:33:33Z</time>
      </trkpt>
      <trkpt lat="45.87768" lon="4.40346">
        <ele>552.4</ele>
        <time>2025-09-09T13:33:34Z</time>
      </trkpt>
      <trkpt lat="45.87767" lon="4.40348">
        <ele>552.4</ele>
        <time>2025-09-09T13:33:35Z</time>
      </trkpt>
      <trkpt lat="45.87766" lon="4.40349">
        <ele>552.8</ele>
        <time>2025-09-09T13:33:36Z</time>
      </trkpt>
      <trkpt lat="45.87766" lon="4.4035">
        <ele>552.8</ele>
        <time>2025-09-09T13:33:37Z</time>
      </trkpt>
      <trkpt lat="45.87766" lon="4.40352">
        <ele>553</ele>
        <time>2025-09-09T13:33:38Z</time>
      </trkpt>
      <trkpt lat="45.87767" lon="4.40354">
        <ele>553</ele>
        <time>2025-09-09T13:33:39Z</time>
      </trkpt>
      <trkpt lat="45.87767" lon="4.40355">
        <ele>553</ele>
        <time>2025-09-09T13:33:40Z</time>
      </trkpt>
      <trkpt lat="45.87766" lon="4.40357">
        <ele>553.2</ele>
        <time>2025-09-09T13:33:41Z</time>
      </trkpt>
      <trkpt lat="45.87766" lon="4.40358">
        <ele>553.4</ele>
        <time>2025-09-09T13:33:42Z</time>
      </trkpt>
      <trkpt lat="45.87766" lon="4.4036">
        <ele>553.4</ele>
        <time>2025-09-09T13:33:43Z</time>
      </trkpt>
      <trkpt lat="45.87767" lon="4.40361">
        <ele>553.4</ele>
        <time>2025-09-09T13:33:44Z</time>
      </trkpt>
      <trkpt lat="45.87767" lon="4.40363">
        <ele>553.6</ele>
        <time>2025-09-09T13:33:45Z</time>
      </trkpt>
      <trkpt lat="45.87767" lon="4.40364">
        <ele>553.6</ele>
        <time>2025-09-09T13:33:46Z</time>
      </trkpt>
      <trkpt lat="45.87767" lon="4.40365">
        <ele>554</ele>
        <time>2025-09-09T13:33:47Z</time>
      </trkpt>
      <trkpt lat="45.87767" lon="4.40367">
        <ele>554</ele>
        <time>2025-09-09T13:33:48Z</time>
      </trkpt>
      <trkpt lat="45.87767" lon="4.40368">
        <ele>554</ele>
        <time>2025-09-09T13:33:49Z</time>
      </trkpt>
      <trkpt lat="45.87768" lon="4.4037">
        <ele>554.2</ele>
        <time>2025-09-09T13:33:50Z</time>
      </trkpt>
      <trkpt lat="45.87768" lon="4.40371">
        <ele>554.2</ele>
        <time>2025-09-09T13:33:51Z</time>
      </trkpt>
      <trkpt lat="45.87768" lon="4.40373">
        <ele>554.2</ele>
        <time>2025-09-09T13:33:52Z</time>
      </trkpt>
      <trkpt lat="45.87768" lon="4.40375">
        <ele>554.4</ele>
        <time>2025-09-09T13:33:53Z</time>
      </trkpt>
      <trkpt lat="45.87768" lon="4.40376">
        <ele>554.4</ele>
        <time>2025-09-09T13:33:54Z</time>
      </trkpt>
      <trkpt lat="45.87768" lon="4.40378">
        <ele>554.4</ele>
        <time>2025-09-09T13:33:55Z</time>
      </trkpt>
      <trkpt lat="45.87767" lon="4.4038">
        <ele>554.8</ele>
        <time>2025-09-09T13:33:56Z</time>
      </trkpt>
      <trkpt lat="45.87768" lon="4.40383">
        <ele>555</ele>
        <time>2025-09-09T13:33:57Z</time>
      </trkpt>
      <trkpt lat="45.87768" lon="4.40384">
        <ele>555</ele>
        <time>2025-09-09T13:33:58Z</time>
      </trkpt>
      <trkpt lat="45.87768" lon="4.40386">
        <ele>555.2</ele>
        <time>2025-09-09T13:33:59Z</time>
      </trkpt>
      <trkpt lat="45.87769" lon="4.40387">
        <ele>555.2</ele>
        <time>2025-09-09T13:34:00Z</time>
      </trkpt>
      <trkpt lat="45.87769" lon="4.40389">
        <ele>555.4</ele>
        <time>2025-09-09T13:34:01Z</time>
      </trkpt>
      <trkpt lat="45.87769" lon="4.4039">
        <ele>555.4</ele>
        <time>2025-09-09T13:34:02Z</time>
      </trkpt>
      <trkpt lat="45.87769" lon="4.40391">
        <ele>555.4</ele>
        <time>2025-09-09T13:34:03Z</time>
      </trkpt>
      <trkpt lat="45.87769" lon="4.40393">
        <ele>555.8</ele>
        <time>2025-09-09T13:34:04Z</time>
      </trkpt>
      <trkpt lat="45.87769" lon="4.40394">
        <ele>555.8</ele>
        <time>2025-09-09T13:34:05Z</time>
      </trkpt>
      <trkpt lat="45.87769" lon="4.40396">
        <ele>556</ele>
        <time>2025-09-09T13:34:06Z</time>
      </trkpt>
      <trkpt lat="45.87769" lon="4.40398">
        <ele>556</ele>
        <time>2025-09-09T13:34:07Z</time>
      </trkpt>
      <trkpt lat="45.87769" lon="4.40399">
        <ele>556</ele>
        <time>2025-09-09T13:34:08Z</time>
      </trkpt>
      <trkpt lat="45.87769" lon="4.40401">
        <ele>556</ele>
        <time>2025-09-09T13:34:09Z</time>
      </trkpt>
      <trkpt lat="45.87769" lon="4.40403">
        <ele>556.2</ele>
        <time>2025-09-09T13:34:10Z</time>
      </trkpt>
      <trkpt lat="45.87769" lon="4.40404">
        <ele>556.2</ele>
        <time>2025-09-09T13:34:11Z</time>
      </trkpt>
      <trkpt lat="45.87769" lon="4.40406">
        <ele>556.2</ele>
        <time>2025-09-09T13:34:12Z</time>
      </trkpt>
      <trkpt lat="45.87768" lon="4.40408">
        <ele>556.6</ele>
        <time>2025-09-09T13:34:13Z</time>
      </trkpt>
      <trkpt lat="45.87769" lon="4.4041">
        <ele>556.6</ele>
        <time>2025-09-09T13:34:14Z</time>
      </trkpt>
      <trkpt lat="45.87769" lon="4.40412">
        <ele>556.6</ele>
        <time>2025-09-09T13:34:15Z</time>
      </trkpt>
      <trkpt lat="45.87769" lon="4.40414">
        <ele>556.8</ele>
        <time>2025-09-09T13:34:16Z</time>
      </trkpt>
      <trkpt lat="45.87769" lon="4.40416">
        <ele>556.8</ele>
        <time>2025-09-09T13:34:17Z</time>
      </trkpt>
      <trkpt lat="45.87768" lon="4.40418">
        <ele>556.8</ele>
        <time>2025-09-09T13:34:18Z</time>
      </trkpt>
      <trkpt lat="45.87768" lon="4.4042">
        <ele>557.2</ele>
        <time>2025-09-09T13:34:19Z</time>
      </trkpt>
      <trkpt lat="45.87768" lon="4.40422">
        <ele>557.2</ele>
        <time>2025-09-09T13:34:20Z</time>
      </trkpt>
      <trkpt lat="45.87768" lon="4.40424">
        <ele>557.2</ele>
        <time>2025-09-09T13:34:21Z</time>
      </trkpt>
      <trkpt lat="45.87769" lon="4.40426">
        <ele>557.2</ele>
        <time>2025-09-09T13:34:22Z</time>
      </trkpt>
      <trkpt lat="45.87769" lon="4.40428">
        <ele>557.4</ele>
        <time>2025-09-09T13:34:23Z</time>
      </trkpt>
      <trkpt lat="45.87769" lon="4.4043">
        <ele>557.4</ele>
        <time>2025-09-09T13:34:24Z</time>
      </trkpt>
      <trkpt lat="45.87769" lon="4.40432">
        <ele>557.6</ele>
        <time>2025-09-09T13:34:25Z</time>
      </trkpt>
      <trkpt lat="45.87769" lon="4.40434">
        <ele>557.6</ele>
        <time>2025-09-09T13:34:26Z</time>
      </trkpt>
      <trkpt lat="45.87769" lon="4.40437">
        <ele>557.8</ele>
        <time>2025-09-09T13:34:27Z</time>
      </trkpt>
      <trkpt lat="45.87769" lon="4.40439">
        <ele>557.8</ele>
        <time>2025-09-09T13:34:28Z</time>
      </trkpt>
      <trkpt lat="45.87769" lon="4.40442">
        <ele>557.8</ele>
        <time>2025-09-09T13:34:29Z</time>
      </trkpt>
      <trkpt lat="45.87768" lon="4.40445">
        <ele>558.2</ele>
        <time>2025-09-09T13:34:30Z</time>
      </trkpt>
      <trkpt lat="45.87768" lon="4.40448">
        <ele>558.2</ele>
        <time>2025-09-09T13:34:31Z</time>
      </trkpt>
      <trkpt lat="45.87768" lon="4.4045">
        <ele>558.2</ele>
        <time>2025-09-09T13:34:32Z</time>
      </trkpt>
      <trkpt lat="45.87768" lon="4.40453">
        <ele>558.4</ele>
        <time>2025-09-09T13:34:33Z</time>
      </trkpt>
      <trkpt lat="45.87767" lon="4.40456">
        <ele>558.4</ele>
        <time>2025-09-09T13:34:34Z</time>
      </trkpt>
      <trkpt lat="45.87767" lon="4.40458">
        <ele>558.4</ele>
        <time>2025-09-09T13:34:35Z</time>
      </trkpt>
      <trkpt lat="45.87766" lon="4.40461">
        <ele>558.6</ele>
        <time>2025-09-09T13:34:36Z</time>
      </trkpt>
      <trkpt lat="45.87765" lon="4.40464">
        <ele>558.6</ele>
        <time>2025-09-09T13:34:37Z</time>
      </trkpt>
      <trkpt lat="45.87764" lon="4.40466">
        <ele>558.6</ele>
        <time>2025-09-09T13:34:38Z</time>
      </trkpt>
      <trkpt lat="45.87762" lon="4.40469">
        <ele>558.6</ele>
        <time>2025-09-09T13:34:39Z</time>
      </trkpt>
      <trkpt lat="45.87761" lon="4.40472">
        <ele>558.6</ele>
        <time>2025-09-09T13:34:40Z</time>
      </trkpt>
      <trkpt lat="45.8776" lon="4.40475">
        <ele>558.6</ele>
        <time>2025-09-09T13:34:41Z</time>
      </trkpt>
      <trkpt lat="45.87759" lon="4.40477">
        <ele>558.6</ele>
        <time>2025-09-09T13:34:42Z</time>
      </trkpt>
      <trkpt lat="45.87757" lon="4.4048">
        <ele>558.6</ele>
        <time>2025-09-09T13:34:43Z</time>
      </trkpt>
      <trkpt lat="45.87755" lon="4.40482">
        <ele>559</ele>
        <time>2025-09-09T13:34:44Z</time>
      </trkpt>
      <trkpt lat="45.87755" lon="4.40482">
        <ele>559</ele>
        <time>2025-09-09T13:34:45Z</time>
      </trkpt>
      <trkpt lat="45.87752" lon="4.40483">
        <ele>559</ele>
        <time>2025-09-09T13:34:46Z</time>
      </trkpt>
      <trkpt lat="45.8775" lon="4.40485">
        <ele>559</ele>
        <time>2025-09-09T13:34:47Z</time>
      </trkpt>
      <trkpt lat="45.87748" lon="4.40486">
        <ele>559</ele>
        <time>2025-09-09T13:34:48Z</time>
      </trkpt>
      <trkpt lat="45.87746" lon="4.40488">
        <ele>559.2</ele>
        <time>2025-09-09T13:34:49Z</time>
      </trkpt>
      <trkpt lat="45.87744" lon="4.40489">
        <ele>559.2</ele>
        <time>2025-09-09T13:34:50Z</time>
      </trkpt>
      <trkpt lat="45.87742" lon="4.4049">
        <ele>559.6</ele>
        <time>2025-09-09T13:34:51Z</time>
      </trkpt>
      <trkpt lat="45.8774" lon="4.4049">
        <ele>559.6</ele>
        <time>2025-09-09T13:34:52Z</time>
      </trkpt>
      <trkpt lat="45.87738" lon="4.40491">
        <ele>559.8</ele>
        <time>2025-09-09T13:34:53Z</time>
      </trkpt>
      <trkpt lat="45.87736" lon="4.40492">
        <ele>559.8</ele>
        <time>2025-09-09T13:34:54Z</time>
      </trkpt>
      <trkpt lat="45.87734" lon="4.40492">
        <ele>560.2</ele>
        <time>2025-09-09T13:34:55Z</time>
      </trkpt>
      <trkpt lat="45.87733" lon="4.40492">
        <ele>560.2</ele>
        <time>2025-09-09T13:34:56Z</time>
      </trkpt>
      <trkpt lat="45.87731" lon="4.40493">
        <ele>560.2</ele>
        <time>2025-09-09T13:34:57Z</time>
      </trkpt>
      <trkpt lat="45.8773" lon="4.40493">
        <ele>560.4</ele>
        <time>2025-09-09T13:34:58Z</time>
      </trkpt>
      <trkpt lat="45.87728" lon="4.40493">
        <ele>560.4</ele>
        <time>2025-09-09T13:34:59Z</time>
      </trkpt>
      <trkpt lat="45.87726" lon="4.40493">
        <ele>560.4</ele>
        <time>2025-09-09T13:35:00Z</time>
      </trkpt>
      <trkpt lat="45.87725" lon="4.40493">
        <ele>560.6</ele>
        <time>2025-09-09T13:35:01Z</time>
      </trkpt>
      <trkpt lat="45.87723" lon="4.40494">
        <ele>560.6</ele>
        <time>2025-09-09T13:35:02Z</time>
      </trkpt>
      <trkpt lat="45.87722" lon="4.40495">
        <ele>560.6</ele>
        <time>2025-09-09T13:35:03Z</time>
      </trkpt>
      <trkpt lat="45.8772" lon="4.40496">
        <ele>560.8</ele>
        <time>2025-09-09T13:35:04Z</time>
      </trkpt>
      <trkpt lat="45.87718" lon="4.40496">
        <ele>560.8</ele>
        <time>2025-09-09T13:35:05Z</time>
      </trkpt>
      <trkpt lat="45.87717" lon="4.40497">
        <ele>561.2</ele>
        <time>2025-09-09T13:35:06Z</time>
      </trkpt>
      <trkpt lat="45.87715" lon="4.40498">
        <ele>561.2</ele>
        <time>2025-09-09T13:35:07Z</time>
      </trkpt>
      <trkpt lat="45.87714" lon="4.40499">
        <ele>561.2</ele>
        <time>2025-09-09T13:35:08Z</time>
      </trkpt>
      <trkpt lat="45.87712" lon="4.405">
        <ele>561.4</ele>
        <time>2025-09-09T13:35:09Z</time>
      </trkpt>
      <trkpt lat="45.8771" lon="4.40501">
        <ele>561.4</ele>
        <time>2025-09-09T13:35:10Z</time>
      </trkpt>
      <trkpt lat="45.87708" lon="4.40501">
        <ele>561.4</ele>
        <time>2025-09-09T13:35:11Z</time>
      </trkpt>
      <trkpt lat="45.87707" lon="4.40502">
        <ele>561.6</ele>
        <time>2025-09-09T13:35:12Z</time>
      </trkpt>
      <trkpt lat="45.87705" lon="4.40502">
        <ele>561.6</ele>
        <time>2025-09-09T13:35:13Z</time>
      </trkpt>
      <trkpt lat="45.87703" lon="4.40502">
        <ele>561.6</ele>
        <time>2025-09-09T13:35:14Z</time>
      </trkpt>
      <trkpt lat="45.87701" lon="4.40502">
        <ele>561.6</ele>
        <time>2025-09-09T13:35:15Z</time>
      </trkpt>
      <trkpt lat="45.877" lon="4.40502">
        <ele>561.8</ele>
        <time>2025-09-09T13:35:16Z</time>
      </trkpt>
      <trkpt lat="45.87698" lon="4.40503">
        <ele>561.8</ele>
        <time>2025-09-09T13:35:17Z</time>
      </trkpt>
      <trkpt lat="45.87697" lon="4.40503">
        <ele>562.2</ele>
        <time>2025-09-09T13:35:18Z</time>
      </trkpt>
      <trkpt lat="45.87695" lon="4.40504">
        <ele>562.2</ele>
        <time>2025-09-09T13:35:19Z</time>
      </trkpt>
      <trkpt lat="45.87694" lon="4.40504">
        <ele>562.4</ele>
        <time>2025-09-09T13:35:20Z</time>
      </trkpt>
      <trkpt lat="45.87692" lon="4.40505">
        <ele>562.4</ele>
        <time>2025-09-09T13:35:21Z</time>
      </trkpt>
      <trkpt lat="45.87691" lon="4.40505">
        <ele>562.6</ele>
        <time>2025-09-09T13:35:22Z</time>
      </trkpt>
      <trkpt lat="45.87689" lon="4.40506">
        <ele>562.6</ele>
        <time>2025-09-09T13:35:23Z</time>
      </trkpt>
      <trkpt lat="45.87688" lon="4.40506">
        <ele>562.6</ele>
        <time>2025-09-09T13:35:24Z</time>
      </trkpt>
      <trkpt lat="45.87687" lon="4.40507">
        <ele>563</ele>
        <time>2025-09-09T13:35:25Z</time>
      </trkpt>
      <trkpt lat="45.87685" lon="4.40508">
        <ele>563</ele>
        <time>2025-09-09T13:35:26Z</time>
      </trkpt>
      <trkpt lat="45.87684" lon="4.40508">
        <ele>563</ele>
        <time>2025-09-09T13:35:27Z</time>
      </trkpt>
      <trkpt lat="45.87683" lon="4.40509">
        <ele>563.2</ele>
        <time>2025-09-09T13:35:28Z</time>
      </trkpt>
      <trkpt lat="45.87681" lon="4.40509">
        <ele>563.2</ele>
        <time>2025-09-09T13:35:29Z</time>
      </trkpt>
      <trkpt lat="45.8768" lon="4.40509">
        <ele>563.2</ele>
        <time>2025-09-09T13:35:30Z</time>
      </trkpt>
      <trkpt lat="45.87679" lon="4.4051">
        <ele>563.4</ele>
        <time>2025-09-09T13:35:31Z</time>
      </trkpt>
      <trkpt lat="45.87677" lon="4.40511">
        <ele>563.4</ele>
        <time>2025-09-09T13:35:32Z</time>
      </trkpt>
      <trkpt lat="45.87676" lon="4.40511">
        <ele>563.4</ele>
        <time>2025-09-09T13:35:33Z</time>
      </trkpt>
      <trkpt lat="45.87675" lon="4.40512">
        <ele>563.6</ele>
        <time>2025-09-09T13:35:34Z</time>
      </trkpt>
      <trkpt lat="45.87673" lon="4.40512">
        <ele>563.6</ele>
        <time>2025-09-09T13:35:35Z</time>
      </trkpt>
      <trkpt lat="45.87672" lon="4.40513">
        <ele>563.8</ele>
        <time>2025-09-09T13:35:36Z</time>
      </trkpt>
      <trkpt lat="45.87671" lon="4.40514">
        <ele>563.8</ele>
        <time>2025-09-09T13:35:37Z</time>
      </trkpt>
      <trkpt lat="45.87669" lon="4.40514">
        <ele>564.2</ele>
        <time>2025-09-09T13:35:38Z</time>
      </trkpt>
      <trkpt lat="45.87668" lon="4.40515">
        <ele>564.2</ele>
        <time>2025-09-09T13:35:39Z</time>
      </trkpt>
      <trkpt lat="45.87667" lon="4.40516">
        <ele>564.4</ele>
        <time>2025-09-09T13:35:40Z</time>
      </trkpt>
      <trkpt lat="45.87665" lon="4.40517">
        <ele>564.6</ele>
        <time>2025-09-09T13:35:41Z</time>
      </trkpt>
      <trkpt lat="45.87664" lon="4.40518">
        <ele>564.6</ele>
        <time>2025-09-09T13:35:42Z</time>
      </trkpt>
      <trkpt lat="45.87663" lon="4.40519">
        <ele>564.8</ele>
        <time>2025-09-09T13:35:43Z</time>
      </trkpt>
      <trkpt lat="45.87661" lon="4.4052">
        <ele>564.8</ele>
        <time>2025-09-09T13:35:44Z</time>
      </trkpt>
      <trkpt lat="45.8766" lon="4.40521">
        <ele>564.8</ele>
        <time>2025-09-09T13:35:45Z</time>
      </trkpt>
      <trkpt lat="45.87659" lon="4.40522">
        <ele>565</ele>
        <time>2025-09-09T13:35:46Z</time>
      </trkpt>
      <trkpt lat="45.87657" lon="4.40523">
        <ele>565</ele>
        <time>2025-09-09T13:35:47Z</time>
      </trkpt>
      <trkpt lat="45.87656" lon="4.40524">
        <ele>565</ele>
        <time>2025-09-09T13:35:48Z</time>
      </trkpt>
      <trkpt lat="45.87655" lon="4.40524">
        <ele>565</ele>
        <time>2025-09-09T13:35:49Z</time>
      </trkpt>
      <trkpt lat="45.87654" lon="4.40525">
        <ele>565.2</ele>
        <time>2025-09-09T13:35:50Z</time>
      </trkpt>
      <trkpt lat="45.87653" lon="4.40526">
        <ele>565.2</ele>
        <time>2025-09-09T13:35:51Z</time>
      </trkpt>
      <trkpt lat="45.87652" lon="4.40527">
        <ele>565.4</ele>
        <time>2025-09-09T13:35:52Z</time>
      </trkpt>
      <trkpt lat="45.87651" lon="4.40528">
        <ele>565.4</ele>
        <time>2025-09-09T13:35:53Z</time>
      </trkpt>
      <trkpt lat="45.87649" lon="4.40529">
        <ele>565.4</ele>
        <time>2025-09-09T13:35:54Z</time>
      </trkpt>
      <trkpt lat="45.87648" lon="4.4053">
        <ele>565.4</ele>
        <time>2025-09-09T13:35:55Z</time>
      </trkpt>
      <trkpt lat="45.87647" lon="4.40531">
        <ele>565.6</ele>
        <time>2025-09-09T13:35:56Z</time>
      </trkpt>
      <trkpt lat="45.87646" lon="4.40533">
        <ele>565.8</ele>
        <time>2025-09-09T13:35:57Z</time>
      </trkpt>
      <trkpt lat="45.87645" lon="4.40534">
        <ele>566</ele>
        <time>2025-09-09T13:35:58Z</time>
      </trkpt>
      <trkpt lat="45.87643" lon="4.40535">
        <ele>566</ele>
        <time>2025-09-09T13:35:59Z</time>
      </trkpt>
      <trkpt lat="45.87642" lon="4.40537">
        <ele>566.4</ele>
        <time>2025-09-09T13:36:00Z</time>
      </trkpt>
      <trkpt lat="45.87641" lon="4.40538">
        <ele>566.4</ele>
        <time>2025-09-09T13:36:01Z</time>
      </trkpt>
      <trkpt lat="45.8764" lon="4.40539">
        <ele>566.6</ele>
        <time>2025-09-09T13:36:02Z</time>
      </trkpt>
      <trkpt lat="45.87638" lon="4.4054">
        <ele>566.6</ele>
        <time>2025-09-09T13:36:03Z</time>
      </trkpt>
      <trkpt lat="45.87637" lon="4.40541">
        <ele>566.6</ele>
        <time>2025-09-09T13:36:04Z</time>
      </trkpt>
      <trkpt lat="45.87636" lon="4.40542">
        <ele>566.6</ele>
        <time>2025-09-09T13:36:05Z</time>
      </trkpt>
      <trkpt lat="45.87635" lon="4.40544">
        <ele>566.8</ele>
        <time>2025-09-09T13:36:06Z</time>
      </trkpt>
      <trkpt lat="45.87634" lon="4.40545">
        <ele>566.8</ele>
        <time>2025-09-09T13:36:07Z</time>
      </trkpt>
      <trkpt lat="45.87633" lon="4.40547">
        <ele>566.8</ele>
        <time>2025-09-09T13:36:08Z</time>
      </trkpt>
      <trkpt lat="45.87631" lon="4.40548">
        <ele>567.2</ele>
        <time>2025-09-09T13:36:09Z</time>
      </trkpt>
      <trkpt lat="45.8763" lon="4.4055">
        <ele>567.4</ele>
        <time>2025-09-09T13:36:10Z</time>
      </trkpt>
      <trkpt lat="45.87629" lon="4.40552">
        <ele>567.4</ele>
        <time>2025-09-09T13:36:11Z</time>
      </trkpt>
      <trkpt lat="45.87628" lon="4.40553">
        <ele>567.6</ele>
        <time>2025-09-09T13:36:12Z</time>
      </trkpt>
      <trkpt lat="45.87627" lon="4.40554">
        <ele>567.6</ele>
        <time>2025-09-09T13:36:13Z</time>
      </trkpt>
      <trkpt lat="45.87625" lon="4.40555">
        <ele>567.6</ele>
        <time>2025-09-09T13:36:14Z</time>
      </trkpt>
      <trkpt lat="45.87624" lon="4.40557">
        <ele>567.8</ele>
        <time>2025-09-09T13:36:15Z</time>
      </trkpt>
      <trkpt lat="45.87624" lon="4.40559">
        <ele>567.8</ele>
        <time>2025-09-09T13:36:16Z</time>
      </trkpt>
      <trkpt lat="45.87623" lon="4.4056">
        <ele>567.8</ele>
        <time>2025-09-09T13:36:17Z</time>
      </trkpt>
      <trkpt lat="45.87622" lon="4.40562">
        <ele>567.8</ele>
        <time>2025-09-09T13:36:18Z</time>
      </trkpt>
      <trkpt lat="45.8762" lon="4.40564">
        <ele>568</ele>
        <time>2025-09-09T13:36:19Z</time>
      </trkpt>
      <trkpt lat="45.87619" lon="4.40566">
        <ele>568</ele>
        <time>2025-09-09T13:36:20Z</time>
      </trkpt>
      <trkpt lat="45.87618" lon="4.40567">
        <ele>568.4</ele>
        <time>2025-09-09T13:36:21Z</time>
      </trkpt>
      <trkpt lat="45.87617" lon="4.40569">
        <ele>568.4</ele>
        <time>2025-09-09T13:36:22Z</time>
      </trkpt>
      <trkpt lat="45.87616" lon="4.4057">
        <ele>568.6</ele>
        <time>2025-09-09T13:36:23Z</time>
      </trkpt>
      <trkpt lat="45.87615" lon="4.40572">
        <ele>568.6</ele>
        <time>2025-09-09T13:36:24Z</time>
      </trkpt>
      <trkpt lat="45.87613" lon="4.40574">
        <ele>568.6</ele>
        <time>2025-09-09T13:36:25Z</time>
      </trkpt>
      <trkpt lat="45.87612" lon="4.40575">
        <ele>569</ele>
        <time>2025-09-09T13:36:26Z</time>
      </trkpt>
      <trkpt lat="45.87611" lon="4.40577">
        <ele>569</ele>
        <time>2025-09-09T13:36:27Z</time>
      </trkpt>
      <trkpt lat="45.8761" lon="4.40578">
        <ele>569</ele>
        <time>2025-09-09T13:36:28Z</time>
      </trkpt>
      <trkpt lat="45.87609" lon="4.4058">
        <ele>569.2</ele>
        <time>2025-09-09T13:36:29Z</time>
      </trkpt>
      <trkpt lat="45.87607" lon="4.40581">
        <ele>569.2</ele>
        <time>2025-09-09T13:36:30Z</time>
      </trkpt>
      <trkpt lat="45.87607" lon="4.40583">
        <ele>569.6</ele>
        <time>2025-09-09T13:36:31Z</time>
      </trkpt>
      <trkpt lat="45.87606" lon="4.40585">
        <ele>569.6</ele>
        <time>2025-09-09T13:36:32Z</time>
      </trkpt>
      <trkpt lat="45.87605" lon="4.40586">
        <ele>569.8</ele>
        <time>2025-09-09T13:36:33Z</time>
      </trkpt>
      <trkpt lat="45.87605" lon="4.40588">
        <ele>570</ele>
        <time>2025-09-09T13:36:34Z</time>
      </trkpt>
      <trkpt lat="45.87603" lon="4.4059">
        <ele>570.2</ele>
        <time>2025-09-09T13:36:35Z</time>
      </trkpt>
      <trkpt lat="45.87602" lon="4.40591">
        <ele>570.4</ele>
        <time>2025-09-09T13:36:36Z</time>
      </trkpt>
      <trkpt lat="45.87601" lon="4.40593">
        <ele>570.4</ele>
        <time>2025-09-09T13:36:37Z</time>
      </trkpt>
      <trkpt lat="45.876" lon="4.40594">
        <ele>570.4</ele>
        <time>2025-09-09T13:36:38Z</time>
      </trkpt>
      <trkpt lat="45.87599" lon="4.40596">
        <ele>570.6</ele>
        <time>2025-09-09T13:36:39Z</time>
      </trkpt>
      <trkpt lat="45.87598" lon="4.40598">
        <ele>570.6</ele>
        <time>2025-09-09T13:36:40Z</time>
      </trkpt>
      <trkpt lat="45.87597" lon="4.40599">
        <ele>570.8</ele>
        <time>2025-09-09T13:36:41Z</time>
      </trkpt>
      <trkpt lat="45.87597" lon="4.40599">
        <ele>570.8</ele>
        <time>2025-09-09T13:36:42Z</time>
      </trkpt>
      <trkpt lat="45.87597" lon="4.40599">
        <ele>570.8</ele>
        <time>2025-09-09T13:36:43Z</time>
      </trkpt>
      <trkpt lat="45.87597" lon="4.40599">
        <ele>570.8</ele>
        <time>2025-09-09T13:36:44Z</time>
      </trkpt>
      <trkpt lat="45.87597" lon="4.406">
        <ele>570.8</ele>
        <time>2025-09-09T13:36:45Z</time>
      </trkpt>
      <trkpt lat="45.87597" lon="4.406">
        <ele>570.8</ele>
        <time>2025-09-09T13:36:46Z</time>
      </trkpt>
      <trkpt lat="45.87596" lon="4.406">
        <ele>571.2</ele>
        <time>2025-09-09T13:40:34Z</time>
      </trkpt>
      <trkpt lat="45.87596" lon="4.406">
        <ele>571.2</ele>
        <time>2025-09-09T13:40:35Z</time>
      </trkpt>
      <trkpt lat="45.87596" lon="4.406">
        <ele>571.2</ele>
        <time>2025-09-09T13:40:36Z</time>
      </trkpt>
      <trkpt lat="45.87596" lon="4.406">
        <ele>571.2</ele>
        <time>2025-09-09T13:40:37Z</time>
      </trkpt>
      <trkpt lat="45.87595" lon="4.40605">
        <ele>571.2</ele>
        <time>2025-09-09T13:40:39Z</time>
      </trkpt>
      <trkpt lat="45.87594" lon="4.40607">
        <ele>571.2</ele>
        <time>2025-09-09T13:40:40Z</time>
      </trkpt>
      <trkpt lat="45.87593" lon="4.40609">
        <ele>571.2</ele>
        <time>2025-09-09T13:40:41Z</time>
      </trkpt>
      <trkpt lat="45.87592" lon="4.40611">
        <ele>571.2</ele>
        <time>2025-09-09T13:40:42Z</time>
      </trkpt>
      <trkpt lat="45.87591" lon="4.40613">
        <ele>571.2</ele>
        <time>2025-09-09T13:40:43Z</time>
      </trkpt>
      <trkpt lat="45.8759" lon="4.40615">
        <ele>571.6</ele>
        <time>2025-09-09T13:40:44Z</time>
      </trkpt>
      <trkpt lat="45.87589" lon="4.40617">
        <ele>571.6</ele>
        <time>2025-09-09T13:40:45Z</time>
      </trkpt>
      <trkpt lat="45.87588" lon="4.4062">
        <ele>571.8</ele>
        <time>2025-09-09T13:40:46Z</time>
      </trkpt>
      <trkpt lat="45.87587" lon="4.40622">
        <ele>571.8</ele>
        <time>2025-09-09T13:40:47Z</time>
      </trkpt>
      <trkpt lat="45.87587" lon="4.40625">
        <ele>572</ele>
        <time>2025-09-09T13:40:48Z</time>
      </trkpt>
      <trkpt lat="45.87586" lon="4.40628">
        <ele>572</ele>
        <time>2025-09-09T13:40:49Z</time>
      </trkpt>
      <trkpt lat="45.87585" lon="4.4063">
        <ele>572.2</ele>
        <time>2025-09-09T13:40:50Z</time>
      </trkpt>
      <trkpt lat="45.87584" lon="4.40632">
        <ele>572.2</ele>
        <time>2025-09-09T13:40:51Z</time>
      </trkpt>
      <trkpt lat="45.87583" lon="4.40634">
        <ele>572.4</ele>
        <time>2025-09-09T13:40:52Z</time>
      </trkpt>
      <trkpt lat="45.87582" lon="4.40636">
        <ele>572.4</ele>
        <time>2025-09-09T13:40:53Z</time>
      </trkpt>
      <trkpt lat="45.87581" lon="4.40638">
        <ele>572.4</ele>
        <time>2025-09-09T13:40:54Z</time>
      </trkpt>
      <trkpt lat="45.87581" lon="4.4064">
        <ele>572.8</ele>
        <time>2025-09-09T13:40:55Z</time>
      </trkpt>
      <trkpt lat="45.8758" lon="4.40643">
        <ele>572.8</ele>
        <time>2025-09-09T13:40:56Z</time>
      </trkpt>
      <trkpt lat="45.87579" lon="4.40645">
        <ele>572.8</ele>
        <time>2025-09-09T13:40:57Z</time>
      </trkpt>
      <trkpt lat="45.87579" lon="4.40647">
        <ele>573</ele>
        <time>2025-09-09T13:40:58Z</time>
      </trkpt>
      <trkpt lat="45.87578" lon="4.40649">
        <ele>573</ele>
        <time>2025-09-09T13:40:59Z</time>
      </trkpt>
      <trkpt lat="45.87577" lon="4.40653">
        <ele>573</ele>
        <time>2025-09-09T13:41:00Z</time>
      </trkpt>
      <trkpt lat="45.87576" lon="4.40655">
        <ele>573.2</ele>
        <time>2025-09-09T13:41:01Z</time>
      </trkpt>
      <trkpt lat="45.87575" lon="4.40658">
        <ele>573.2</ele>
        <time>2025-09-09T13:41:02Z</time>
      </trkpt>
      <trkpt lat="45.87574" lon="4.4066">
        <ele>573.2</ele>
        <time>2025-09-09T13:41:03Z</time>
      </trkpt>
      <trkpt lat="45.87573" lon="4.40662">
        <ele>573.6</ele>
        <time>2025-09-09T13:41:04Z</time>
      </trkpt>
      <trkpt lat="45.87572" lon="4.40663">
        <ele>573.8</ele>
        <time>2025-09-09T13:41:05Z</time>
      </trkpt>
      <trkpt lat="45.87572" lon="4.40665">
        <ele>573.8</ele>
        <time>2025-09-09T13:41:06Z</time>
      </trkpt>
      <trkpt lat="45.87572" lon="4.40667">
        <ele>573.8</ele>
        <time>2025-09-09T13:41:07Z</time>
      </trkpt>
      <trkpt lat="45.87572" lon="4.40667">
        <ele>574</ele>
        <time>2025-09-09T13:41:08Z</time>
      </trkpt>
      <trkpt lat="45.87571" lon="4.4067">
        <ele>574</ele>
        <time>2025-09-09T13:41:09Z</time>
      </trkpt>
      <trkpt lat="45.8757" lon="4.40672">
        <ele>574.4</ele>
        <time>2025-09-09T13:41:10Z</time>
      </trkpt>
      <trkpt lat="45.87569" lon="4.40673">
        <ele>574.4</ele>
        <time>2025-09-09T13:41:11Z</time>
      </trkpt>
      <trkpt lat="45.87568" lon="4.40676">
        <ele>574.4</ele>
        <time>2025-09-09T13:41:12Z</time>
      </trkpt>
      <trkpt lat="45.87567" lon="4.40678">
        <ele>574.6</ele>
        <time>2025-09-09T13:41:13Z</time>
      </trkpt>
      <trkpt lat="45.87566" lon="4.4068">
        <ele>574.6</ele>
        <time>2025-09-09T13:41:14Z</time>
      </trkpt>
      <trkpt lat="45.87565" lon="4.40682">
        <ele>574.6</ele>
        <time>2025-09-09T13:41:15Z</time>
      </trkpt>
      <trkpt lat="45.87565" lon="4.40684">
        <ele>574.6</ele>
        <time>2025-09-09T13:41:16Z</time>
      </trkpt>
      <trkpt lat="45.87564" lon="4.40686">
        <ele>574.8</ele>
        <time>2025-09-09T13:41:17Z</time>
      </trkpt>
      <trkpt lat="45.87563" lon="4.40688">
        <ele>574.8</ele>
        <time>2025-09-09T13:41:18Z</time>
      </trkpt>
      <trkpt lat="45.87563" lon="4.4069">
        <ele>574.8</ele>
        <time>2025-09-09T13:41:19Z</time>
      </trkpt>
      <trkpt lat="45.87562" lon="4.40692">
        <ele>575.2</ele>
        <time>2025-09-09T13:41:20Z</time>
      </trkpt>
      <trkpt lat="45.87562" lon="4.40695">
        <ele>575.2</ele>
        <time>2025-09-09T13:41:21Z</time>
      </trkpt>
      <trkpt lat="45.87562" lon="4.40696">
        <ele>575.4</ele>
        <time>2025-09-09T13:41:22Z</time>
      </trkpt>
      <trkpt lat="45.87561" lon="4.40698">
        <ele>575.4</ele>
        <time>2025-09-09T13:41:23Z</time>
      </trkpt>
      <trkpt lat="45.87561" lon="4.407">
        <ele>575.6</ele>
        <time>2025-09-09T13:41:24Z</time>
      </trkpt>
      <trkpt lat="45.8756" lon="4.40702">
        <ele>575.6</ele>
        <time>2025-09-09T13:41:25Z</time>
      </trkpt>
      <trkpt lat="45.8756" lon="4.40704">
        <ele>575.6</ele>
        <time>2025-09-09T13:41:26Z</time>
      </trkpt>
      <trkpt lat="45.87559" lon="4.40705">
        <ele>575.6</ele>
        <time>2025-09-09T13:41:27Z</time>
      </trkpt>
      <trkpt lat="45.87558" lon="4.40707">
        <ele>575.8</ele>
        <time>2025-09-09T13:41:28Z</time>
      </trkpt>
      <trkpt lat="45.87558" lon="4.40709">
        <ele>575.8</ele>
        <time>2025-09-09T13:41:29Z</time>
      </trkpt>
      <trkpt lat="45.87558" lon="4.40711">
        <ele>575.8</ele>
        <time>2025-09-09T13:41:30Z</time>
      </trkpt>
      <trkpt lat="45.87557" lon="4.40713">
        <ele>576.2</ele>
        <time>2025-09-09T13:41:31Z</time>
      </trkpt>
      <trkpt lat="45.87556" lon="4.40715">
        <ele>576.2</ele>
        <time>2025-09-09T13:41:32Z</time>
      </trkpt>
      <trkpt lat="45.87556" lon="4.40717">
        <ele>576.6</ele>
        <time>2025-09-09T13:41:33Z</time>
      </trkpt>
      <trkpt lat="45.87555" lon="4.40718">
        <ele>576.6</ele>
        <time>2025-09-09T13:41:34Z</time>
      </trkpt>
      <trkpt lat="45.87555" lon="4.4072">
        <ele>576.6</ele>
        <time>2025-09-09T13:41:35Z</time>
      </trkpt>
      <trkpt lat="45.87554" lon="4.40723">
        <ele>576.6</ele>
        <time>2025-09-09T13:41:36Z</time>
      </trkpt>
      <trkpt lat="45.87553" lon="4.40725">
        <ele>576.6</ele>
        <time>2025-09-09T13:41:37Z</time>
      </trkpt>
      <trkpt lat="45.87553" lon="4.40726">
        <ele>576.8</ele>
        <time>2025-09-09T13:41:38Z</time>
      </trkpt>
      <trkpt lat="45.87552" lon="4.40728">
        <ele>576.8</ele>
        <time>2025-09-09T13:41:39Z</time>
      </trkpt>
      <trkpt lat="45.87551" lon="4.4073">
        <ele>577</ele>
        <time>2025-09-09T13:41:40Z</time>
      </trkpt>
      <trkpt lat="45.8755" lon="4.40731">
        <ele>577</ele>
        <time>2025-09-09T13:41:41Z</time>
      </trkpt>
      <trkpt lat="45.87549" lon="4.40732">
        <ele>577</ele>
        <time>2025-09-09T13:41:42Z</time>
      </trkpt>
      <trkpt lat="45.87549" lon="4.40732">
        <ele>577.2</ele>
        <time>2025-09-09T13:41:43Z</time>
      </trkpt>
      <trkpt lat="45.87549" lon="4.40732">
        <ele>577.2</ele>
        <time>2025-09-09T13:41:44Z</time>
      </trkpt>
      <trkpt lat="45.87549" lon="4.4073">
        <ele>577.2</ele>
        <time>2025-09-09T13:41:51Z</time>
      </trkpt>
      <trkpt lat="45.87548" lon="4.40732">
        <ele>577.2</ele>
        <time>2025-09-09T13:41:52Z</time>
      </trkpt>
      <trkpt lat="45.87547" lon="4.40735">
        <ele>577.2</ele>
        <time>2025-09-09T13:41:53Z</time>
      </trkpt>
      <trkpt lat="45.87546" lon="4.40737">
        <ele>577.2</ele>
        <time>2025-09-09T13:41:54Z</time>
      </trkpt>
      <trkpt lat="45.87545" lon="4.4074">
        <ele>577.2</ele>
        <time>2025-09-09T13:41:55Z</time>
      </trkpt>
      <trkpt lat="45.87544" lon="4.40743">
        <ele>577.4</ele>
        <time>2025-09-09T13:41:56Z</time>
      </trkpt>
      <trkpt lat="45.87544" lon="4.40745">
        <ele>577.6</ele>
        <time>2025-09-09T13:41:57Z</time>
      </trkpt>
      <trkpt lat="45.87543" lon="4.40748">
        <ele>577.6</ele>
        <time>2025-09-09T13:41:58Z</time>
      </trkpt>
      <trkpt lat="45.87542" lon="4.4075">
        <ele>577.6</ele>
        <time>2025-09-09T13:41:59Z</time>
      </trkpt>
      <trkpt lat="45.87541" lon="4.40752">
        <ele>577.6</ele>
        <time>2025-09-09T13:42:00Z</time>
      </trkpt>
      <trkpt lat="45.87541" lon="4.40754">
        <ele>577.8</ele>
        <time>2025-09-09T13:42:01Z</time>
      </trkpt>
      <trkpt lat="45.8754" lon="4.40756">
        <ele>577.8</ele>
        <time>2025-09-09T13:42:02Z</time>
      </trkpt>
      <trkpt lat="45.87539" lon="4.40759">
        <ele>577.8</ele>
        <time>2025-09-09T13:42:03Z</time>
      </trkpt>
      <trkpt lat="45.87538" lon="4.40761">
        <ele>577.8</ele>
        <time>2025-09-09T13:42:04Z</time>
      </trkpt>
      <trkpt lat="45.87537" lon="4.40764">
        <ele>578.2</ele>
        <time>2025-09-09T13:42:05Z</time>
      </trkpt>
      <trkpt lat="45.87536" lon="4.40766">
        <ele>578.4</ele>
        <time>2025-09-09T13:42:06Z</time>
      </trkpt>
      <trkpt lat="45.87535" lon="4.40768">
        <ele>578.4</ele>
        <time>2025-09-09T13:42:07Z</time>
      </trkpt>
      <trkpt lat="45.87535" lon="4.4077">
        <ele>578.4</ele>
        <time>2025-09-09T13:42:08Z</time>
      </trkpt>
      <trkpt lat="45.87534" lon="4.40772">
        <ele>578.6</ele>
        <time>2025-09-09T13:42:09Z</time>
      </trkpt>
      <trkpt lat="45.87533" lon="4.40775">
        <ele>579</ele>
        <time>2025-09-09T13:42:10Z</time>
      </trkpt>
      <trkpt lat="45.87533" lon="4.40777">
        <ele>579</ele>
        <time>2025-09-09T13:42:11Z</time>
      </trkpt>
      <trkpt lat="45.87532" lon="4.40779">
        <ele>579</ele>
        <time>2025-09-09T13:42:12Z</time>
      </trkpt>
      <trkpt lat="45.87531" lon="4.40781">
        <ele>579.4</ele>
        <time>2025-09-09T13:42:13Z</time>
      </trkpt>
      <trkpt lat="45.8753" lon="4.40783">
        <ele>579.4</ele>
        <time>2025-09-09T13:42:14Z</time>
      </trkpt>
      <trkpt lat="45.87529" lon="4.40785">
        <ele>579.4</ele>
        <time>2025-09-09T13:42:15Z</time>
      </trkpt>
      <trkpt lat="45.87529" lon="4.40787">
        <ele>579.8</ele>
        <time>2025-09-09T13:42:16Z</time>
      </trkpt>
      <trkpt lat="45.87528" lon="4.40789">
        <ele>579.8</ele>
        <time>2025-09-09T13:42:17Z</time>
      </trkpt>
      <trkpt lat="45.87527" lon="4.40792">
        <ele>579.8</ele>
        <time>2025-09-09T13:42:18Z</time>
      </trkpt>
      <trkpt lat="45.87527" lon="4.40794">
        <ele>579.8</ele>
        <time>2025-09-09T13:42:19Z</time>
      </trkpt>
      <trkpt lat="45.87526" lon="4.40796">
        <ele>580.2</ele>
        <time>2025-09-09T13:42:20Z</time>
      </trkpt>
      <trkpt lat="45.87526" lon="4.40798">
        <ele>580.2</ele>
        <time>2025-09-09T13:42:21Z</time>
      </trkpt>
      <trkpt lat="45.87524" lon="4.40801">
        <ele>580.2</ele>
        <time>2025-09-09T13:42:22Z</time>
      </trkpt>
      <trkpt lat="45.87524" lon="4.40803">
        <ele>580.4</ele>
        <time>2025-09-09T13:42:23Z</time>
      </trkpt>
      <trkpt lat="45.87523" lon="4.40805">
        <ele>580.4</ele>
        <time>2025-09-09T13:42:24Z</time>
      </trkpt>
      <trkpt lat="45.87522" lon="4.40807">
        <ele>580.4</ele>
        <time>2025-09-09T13:42:25Z</time>
      </trkpt>
      <trkpt lat="45.87521" lon="4.40809">
        <ele>580.8</ele>
        <time>2025-09-09T13:42:26Z</time>
      </trkpt>
      <trkpt lat="45.87521" lon="4.40811">
        <ele>580.8</ele>
        <time>2025-09-09T13:42:27Z</time>
      </trkpt>
      <trkpt lat="45.8752" lon="4.40813">
        <ele>581</ele>
        <time>2025-09-09T13:42:28Z</time>
      </trkpt>
      <trkpt lat="45.8752" lon="4.40815">
        <ele>581</ele>
        <time>2025-09-09T13:42:29Z</time>
      </trkpt>
      <trkpt lat="45.87519" lon="4.40817">
        <ele>581.2</ele>
        <time>2025-09-09T13:42:30Z</time>
      </trkpt>
      <trkpt lat="45.87518" lon="4.40819">
        <ele>581.2</ele>
        <time>2025-09-09T13:42:31Z</time>
      </trkpt>
      <trkpt lat="45.87517" lon="4.40821">
        <ele>581.2</ele>
        <time>2025-09-09T13:42:32Z</time>
      </trkpt>
      <trkpt lat="45.87517" lon="4.40823">
        <ele>581.6</ele>
        <time>2025-09-09T13:42:33Z</time>
      </trkpt>
      <trkpt lat="45.87516" lon="4.40825">
        <ele>581.6</ele>
        <time>2025-09-09T13:42:34Z</time>
      </trkpt>
      <trkpt lat="45.87516" lon="4.40827">
        <ele>581.6</ele>
        <time>2025-09-09T13:42:35Z</time>
      </trkpt>
      <trkpt lat="45.87515" lon="4.40829">
        <ele>581.8</ele>
        <time>2025-09-09T13:42:36Z</time>
      </trkpt>
      <trkpt lat="45.87514" lon="4.40831">
        <ele>581.8</ele>
        <time>2025-09-09T13:42:37Z</time>
      </trkpt>
      <trkpt lat="45.87513" lon="4.40833">
        <ele>582.2</ele>
        <time>2025-09-09T13:42:38Z</time>
      </trkpt>
      <trkpt lat="45.87513" lon="4.40835">
        <ele>582.2</ele>
        <time>2025-09-09T13:42:39Z</time>
      </trkpt>
      <trkpt lat="45.87512" lon="4.40837">
        <ele>582.4</ele>
        <time>2025-09-09T13:42:40Z</time>
      </trkpt>
      <trkpt lat="45.87512" lon="4.40839">
        <ele>582.4</ele>
        <time>2025-09-09T13:42:41Z</time>
      </trkpt>
      <trkpt lat="45.87512" lon="4.40841">
        <ele>582.6</ele>
        <time>2025-09-09T13:42:42Z</time>
      </trkpt>
      <trkpt lat="45.87512" lon="4.40844">
        <ele>582.6</ele>
        <time>2025-09-09T13:42:43Z</time>
      </trkpt>
      <trkpt lat="45.87513" lon="4.40846">
        <ele>582.6</ele>
        <time>2025-09-09T13:42:44Z</time>
      </trkpt>
      <trkpt lat="45.87513" lon="4.40848">
        <ele>582.8</ele>
        <time>2025-09-09T13:42:45Z</time>
      </trkpt>
      <trkpt lat="45.87513" lon="4.4085">
        <ele>582.8</ele>
        <time>2025-09-09T13:42:46Z</time>
      </trkpt>
      <trkpt lat="45.87512" lon="4.40852">
        <ele>582.8</ele>
        <time>2025-09-09T13:42:47Z</time>
      </trkpt>
      <trkpt lat="45.87511" lon="4.40854">
        <ele>583</ele>
        <time>2025-09-09T13:42:48Z</time>
      </trkpt>
      <trkpt lat="45.87511" lon="4.40856">
        <ele>583</ele>
        <time>2025-09-09T13:42:49Z</time>
      </trkpt>
      <trkpt lat="45.8751" lon="4.40858">
        <ele>583</ele>
        <time>2025-09-09T13:42:50Z</time>
      </trkpt>
      <trkpt lat="45.87509" lon="4.4086">
        <ele>583.4</ele>
        <time>2025-09-09T13:42:51Z</time>
      </trkpt>
      <trkpt lat="45.87508" lon="4.40862">
        <ele>583.4</ele>
        <time>2025-09-09T13:42:52Z</time>
      </trkpt>
      <trkpt lat="45.87508" lon="4.40864">
        <ele>583.4</ele>
        <time>2025-09-09T13:42:53Z</time>
      </trkpt>
      <trkpt lat="45.87507" lon="4.40866">
        <ele>583.6</ele>
        <time>2025-09-09T13:42:54Z</time>
      </trkpt>
      <trkpt lat="45.87506" lon="4.40868">
        <ele>583.6</ele>
        <time>2025-09-09T13:42:55Z</time>
      </trkpt>
      <trkpt lat="45.87506" lon="4.4087">
        <ele>583.6</ele>
        <time>2025-09-09T13:42:56Z</time>
      </trkpt>
      <trkpt lat="45.87506" lon="4.40872">
        <ele>583.6</ele>
        <time>2025-09-09T13:42:57Z</time>
      </trkpt>
      <trkpt lat="45.87505" lon="4.40874">
        <ele>584</ele>
        <time>2025-09-09T13:42:58Z</time>
      </trkpt>
      <trkpt lat="45.87505" lon="4.40876">
        <ele>584</ele>
        <time>2025-09-09T13:42:59Z</time>
      </trkpt>
      <trkpt lat="45.87504" lon="4.40878">
        <ele>584.2</ele>
        <time>2025-09-09T13:43:00Z</time>
      </trkpt>
      <trkpt lat="45.87504" lon="4.40879">
        <ele>584.2</ele>
        <time>2025-09-09T13:43:01Z</time>
      </trkpt>
      <trkpt lat="45.87504" lon="4.40882">
        <ele>584.2</ele>
        <time>2025-09-09T13:43:02Z</time>
      </trkpt>
      <trkpt lat="45.87503" lon="4.40884">
        <ele>584.2</ele>
        <time>2025-09-09T13:43:03Z</time>
      </trkpt>
      <trkpt lat="45.87503" lon="4.40886">
        <ele>584.6</ele>
        <time>2025-09-09T13:43:04Z</time>
      </trkpt>
      <trkpt lat="45.87502" lon="4.40887">
        <ele>584.6</ele>
        <time>2025-09-09T13:43:05Z</time>
      </trkpt>
      <trkpt lat="45.87502" lon="4.4089">
        <ele>584.6</ele>
        <time>2025-09-09T13:43:06Z</time>
      </trkpt>
      <trkpt lat="45.87501" lon="4.40892">
        <ele>584.8</ele>
        <time>2025-09-09T13:43:07Z</time>
      </trkpt>
      <trkpt lat="45.87501" lon="4.40894">
        <ele>584.8</ele>
        <time>2025-09-09T13:43:08Z</time>
      </trkpt>
      <trkpt lat="45.87501" lon="4.40896">
        <ele>585</ele>
        <time>2025-09-09T13:43:09Z</time>
      </trkpt>
      <trkpt lat="45.87501" lon="4.40898">
        <ele>585</ele>
        <time>2025-09-09T13:43:10Z</time>
      </trkpt>
      <trkpt lat="45.875" lon="4.40899">
        <ele>585</ele>
        <time>2025-09-09T13:43:11Z</time>
      </trkpt>
      <trkpt lat="45.875" lon="4.40901">
        <ele>585</ele>
        <time>2025-09-09T13:43:12Z</time>
      </trkpt>
      <trkpt lat="45.875" lon="4.40903">
        <ele>585.4</ele>
        <time>2025-09-09T13:43:13Z</time>
      </trkpt>
      <trkpt lat="45.87499" lon="4.40905">
        <ele>585.4</ele>
        <time>2025-09-09T13:43:14Z</time>
      </trkpt>
      <trkpt lat="45.87499" lon="4.40907">
        <ele>585.6</ele>
        <time>2025-09-09T13:43:15Z</time>
      </trkpt>
      <trkpt lat="45.87499" lon="4.40909">
        <ele>585.6</ele>
        <time>2025-09-09T13:43:16Z</time>
      </trkpt>
      <trkpt lat="45.87499" lon="4.40911">
        <ele>585.6</ele>
        <time>2025-09-09T13:43:17Z</time>
      </trkpt>
      <trkpt lat="45.87499" lon="4.40913">
        <ele>585.8</ele>
        <time>2025-09-09T13:43:18Z</time>
      </trkpt>
      <trkpt lat="45.87499" lon="4.40915">
        <ele>585.8</ele>
        <time>2025-09-09T13:43:19Z</time>
      </trkpt>
      <trkpt lat="45.87499" lon="4.40917">
        <ele>585.8</ele>
        <time>2025-09-09T13:43:20Z</time>
      </trkpt>
      <trkpt lat="45.87498" lon="4.40919">
        <ele>586.2</ele>
        <time>2025-09-09T13:43:21Z</time>
      </trkpt>
      <trkpt lat="45.87498" lon="4.40922">
        <ele>586.2</ele>
        <time>2025-09-09T13:43:22Z</time>
      </trkpt>
      <trkpt lat="45.87497" lon="4.40924">
        <ele>586.2</ele>
        <time>2025-09-09T13:43:23Z</time>
      </trkpt>
      <trkpt lat="45.87497" lon="4.40926">
        <ele>586.4</ele>
        <time>2025-09-09T13:43:24Z</time>
      </trkpt>
      <trkpt lat="45.87497" lon="4.40928">
        <ele>586.6</ele>
        <time>2025-09-09T13:43:25Z</time>
      </trkpt>
      <trkpt lat="45.87497" lon="4.4093">
        <ele>586.6</ele>
        <time>2025-09-09T13:43:26Z</time>
      </trkpt>
      <trkpt lat="45.87497" lon="4.40932">
        <ele>587</ele>
        <time>2025-09-09T13:43:27Z</time>
      </trkpt>
      <trkpt lat="45.87496" lon="4.40935">
        <ele>587</ele>
        <time>2025-09-09T13:43:28Z</time>
      </trkpt>
      <trkpt lat="45.87496" lon="4.40937">
        <ele>587.2</ele>
        <time>2025-09-09T13:43:29Z</time>
      </trkpt>
      <trkpt lat="45.87496" lon="4.40939">
        <ele>587.2</ele>
        <time>2025-09-09T13:43:30Z</time>
      </trkpt>
      <trkpt lat="45.87496" lon="4.40942">
        <ele>587.2</ele>
        <time>2025-09-09T13:43:31Z</time>
      </trkpt>
      <trkpt lat="45.87495" lon="4.40944">
        <ele>587.4</ele>
        <time>2025-09-09T13:43:32Z</time>
      </trkpt>
      <trkpt lat="45.87495" lon="4.40946">
        <ele>587.4</ele>
        <time>2025-09-09T13:43:33Z</time>
      </trkpt>
      <trkpt lat="45.87495" lon="4.40948">
        <ele>587.4</ele>
        <time>2025-09-09T13:43:34Z</time>
      </trkpt>
      <trkpt lat="45.87495" lon="4.40952">
        <ele>587.4</ele>
        <time>2025-09-09T13:43:35Z</time>
      </trkpt>
      <trkpt lat="45.87495" lon="4.40955">
        <ele>587.6</ele>
        <time>2025-09-09T13:43:36Z</time>
      </trkpt>
      <trkpt lat="45.87495" lon="4.40957">
        <ele>587.6</ele>
        <time>2025-09-09T13:43:37Z</time>
      </trkpt>
      <trkpt lat="45.87495" lon="4.40959">
        <ele>588</ele>
        <time>2025-09-09T13:43:38Z</time>
      </trkpt>
      <trkpt lat="45.87495" lon="4.40961">
        <ele>588</ele>
        <time>2025-09-09T13:43:39Z</time>
      </trkpt>
      <trkpt lat="45.87495" lon="4.40963">
        <ele>588.2</ele>
        <time>2025-09-09T13:43:40Z</time>
      </trkpt>
      <trkpt lat="45.87495" lon="4.40965">
        <ele>588.2</ele>
        <time>2025-09-09T13:43:41Z</time>
      </trkpt>
      <trkpt lat="45.87494" lon="4.40967">
        <ele>588.2</ele>
        <time>2025-09-09T13:43:42Z</time>
      </trkpt>
      <trkpt lat="45.87494" lon="4.40969">
        <ele>588.6</ele>
        <time>2025-09-09T13:43:43Z</time>
      </trkpt>
      <trkpt lat="45.87495" lon="4.40972">
        <ele>588.6</ele>
        <time>2025-09-09T13:43:44Z</time>
      </trkpt>
      <trkpt lat="45.87495" lon="4.40974">
        <ele>588.6</ele>
        <time>2025-09-09T13:43:45Z</time>
      </trkpt>
      <trkpt lat="45.87495" lon="4.40976">
        <ele>588.6</ele>
        <time>2025-09-09T13:43:46Z</time>
      </trkpt>
      <trkpt lat="45.87495" lon="4.40978">
        <ele>588.6</ele>
        <time>2025-09-09T13:43:47Z</time>
      </trkpt>
      <trkpt lat="45.87495" lon="4.40981">
        <ele>588.8</ele>
        <time>2025-09-09T13:43:48Z</time>
      </trkpt>
      <trkpt lat="45.87494" lon="4.40983">
        <ele>588.8</ele>
        <time>2025-09-09T13:43:49Z</time>
      </trkpt>
      <trkpt lat="45.87494" lon="4.40986">
        <ele>588.8</ele>
        <time>2025-09-09T13:43:50Z</time>
      </trkpt>
      <trkpt lat="45.87494" lon="4.40988">
        <ele>588.8</ele>
        <time>2025-09-09T13:43:51Z</time>
      </trkpt>
      <trkpt lat="45.87494" lon="4.40991">
        <ele>588.8</ele>
        <time>2025-09-09T13:43:52Z</time>
      </trkpt>
      <trkpt lat="45.87494" lon="4.40994">
        <ele>589.2</ele>
        <time>2025-09-09T13:43:53Z</time>
      </trkpt>
      <trkpt lat="45.87494" lon="4.40996">
        <ele>589.4</ele>
        <time>2025-09-09T13:43:54Z</time>
      </trkpt>
      <trkpt lat="45.87493" lon="4.40998">
        <ele>589.4</ele>
        <time>2025-09-09T13:43:55Z</time>
      </trkpt>
      <trkpt lat="45.87493" lon="4.41001">
        <ele>589.8</ele>
        <time>2025-09-09T13:43:56Z</time>
      </trkpt>
      <trkpt lat="45.87493" lon="4.41003">
        <ele>589.8</ele>
        <time>2025-09-09T13:43:57Z</time>
      </trkpt>
      <trkpt lat="45.87492" lon="4.41006">
        <ele>589.8</ele>
        <time>2025-09-09T13:43:58Z</time>
      </trkpt>
      <trkpt lat="45.87492" lon="4.41008">
        <ele>590.2</ele>
        <time>2025-09-09T13:43:59Z</time>
      </trkpt>
      <trkpt lat="45.87492" lon="4.4101">
        <ele>590.2</ele>
        <time>2025-09-09T13:44:00Z</time>
      </trkpt>
      <trkpt lat="45.87492" lon="4.41013">
        <ele>590.2</ele>
        <time>2025-09-09T13:44:01Z</time>
      </trkpt>
      <trkpt lat="45.87492" lon="4.41015">
        <ele>590.2</ele>
        <time>2025-09-09T13:44:02Z</time>
      </trkpt>
      <trkpt lat="45.87491" lon="4.41018">
        <ele>590.2</ele>
        <time>2025-09-09T13:44:03Z</time>
      </trkpt>
      <trkpt lat="45.87491" lon="4.4102">
        <ele>590.2</ele>
        <time>2025-09-09T13:44:04Z</time>
      </trkpt>
      <trkpt lat="45.87491" lon="4.41022">
        <ele>590.6</ele>
        <time>2025-09-09T13:44:05Z</time>
      </trkpt>
      <trkpt lat="45.87491" lon="4.41024">
        <ele>590.6</ele>
        <time>2025-09-09T13:44:06Z</time>
      </trkpt>
      <trkpt lat="45.87491" lon="4.41027">
        <ele>590.8</ele>
        <time>2025-09-09T13:44:07Z</time>
      </trkpt>
      <trkpt lat="45.87491" lon="4.41029">
        <ele>590.8</ele>
        <time>2025-09-09T13:44:08Z</time>
      </trkpt>
      <trkpt lat="45.87491" lon="4.41031">
        <ele>591</ele>
        <time>2025-09-09T13:44:09Z</time>
      </trkpt>
      <trkpt lat="45.87491" lon="4.41034">
        <ele>591</ele>
        <time>2025-09-09T13:44:10Z</time>
      </trkpt>
      <trkpt lat="45.87491" lon="4.41036">
        <ele>591</ele>
        <time>2025-09-09T13:44:11Z</time>
      </trkpt>
      <trkpt lat="45.87491" lon="4.41039">
        <ele>591.2</ele>
        <time>2025-09-09T13:44:12Z</time>
      </trkpt>
      <trkpt lat="45.87491" lon="4.41041">
        <ele>591.2</ele>
        <time>2025-09-09T13:44:13Z</time>
      </trkpt>
      <trkpt lat="45.87491" lon="4.41043">
        <ele>591.2</ele>
        <time>2025-09-09T13:44:14Z</time>
      </trkpt>
      <trkpt lat="45.87491" lon="4.41046">
        <ele>591.6</ele>
        <time>2025-09-09T13:44:15Z</time>
      </trkpt>
      <trkpt lat="45.87491" lon="4.41049">
        <ele>591.6</ele>
        <time>2025-09-09T13:44:16Z</time>
      </trkpt>
      <trkpt lat="45.87491" lon="4.41051">
        <ele>591.6</ele>
        <time>2025-09-09T13:44:17Z</time>
      </trkpt>
      <trkpt lat="45.87492" lon="4.41054">
        <ele>591.6</ele>
        <time>2025-09-09T13:44:18Z</time>
      </trkpt>
      <trkpt lat="45.87492" lon="4.41057">
        <ele>591.6</ele>
        <time>2025-09-09T13:44:19Z</time>
      </trkpt>
      <trkpt lat="45.87493" lon="4.4106">
        <ele>591.6</ele>
        <time>2025-09-09T13:44:20Z</time>
      </trkpt>
      <trkpt lat="45.87493" lon="4.41062">
        <ele>591.8</ele>
        <time>2025-09-09T13:44:21Z</time>
      </trkpt>
      <trkpt lat="45.87492" lon="4.41064">
        <ele>591.8</ele>
        <time>2025-09-09T13:44:22Z</time>
      </trkpt>
      <trkpt lat="45.87492" lon="4.41067">
        <ele>591.8</ele>
        <time>2025-09-09T13:44:23Z</time>
      </trkpt>
      <trkpt lat="45.8749" lon="4.41069">
        <ele>592</ele>
        <time>2025-09-09T13:44:24Z</time>
      </trkpt>
      <trkpt lat="45.87489" lon="4.41071">
        <ele>592</ele>
        <time>2025-09-09T13:44:25Z</time>
      </trkpt>
      <trkpt lat="45.87488" lon="4.41073">
        <ele>592</ele>
        <time>2025-09-09T13:44:26Z</time>
      </trkpt>
      <trkpt lat="45.87486" lon="4.41076">
        <ele>592.4</ele>
        <time>2025-09-09T13:44:27Z</time>
      </trkpt>
      <trkpt lat="45.87485" lon="4.41078">
        <ele>592.4</ele>
        <time>2025-09-09T13:44:28Z</time>
      </trkpt>
      <trkpt lat="45.87483" lon="4.4108">
        <ele>592.8</ele>
        <time>2025-09-09T13:44:29Z</time>
      </trkpt>
      <trkpt lat="45.87481" lon="4.41081">
        <ele>592.8</ele>
        <time>2025-09-09T13:44:30Z</time>
      </trkpt>
      <trkpt lat="45.87479" lon="4.41082">
        <ele>592.8</ele>
        <time>2025-09-09T13:44:31Z</time>
      </trkpt>
      <trkpt lat="45.87477" lon="4.41083">
        <ele>592.8</ele>
        <time>2025-09-09T13:44:32Z</time>
      </trkpt>
      <trkpt lat="45.87477" lon="4.41083">
        <ele>592.8</ele>
        <time>2025-09-09T13:44:33Z</time>
      </trkpt>
      <trkpt lat="45.87475" lon="4.41085">
        <ele>593</ele>
        <time>2025-09-09T13:44:34Z</time>
      </trkpt>
      <trkpt lat="45.87473" lon="4.41086">
        <ele>593</ele>
        <time>2025-09-09T13:44:35Z</time>
      </trkpt>
      <trkpt lat="45.87471" lon="4.41087">
        <ele>593</ele>
        <time>2025-09-09T13:44:36Z</time>
      </trkpt>
      <trkpt lat="45.87469" lon="4.41088">
        <ele>593.2</ele>
        <time>2025-09-09T13:44:37Z</time>
      </trkpt>
      <trkpt lat="45.87467" lon="4.41089">
        <ele>593.2</ele>
        <time>2025-09-09T13:44:38Z</time>
      </trkpt>
      <trkpt lat="45.87465" lon="4.41089">
        <ele>593.2</ele>
        <time>2025-09-09T13:44:39Z</time>
      </trkpt>
      <trkpt lat="45.87463" lon="4.41089">
        <ele>593.2</ele>
        <time>2025-09-09T13:44:40Z</time>
      </trkpt>
      <trkpt lat="45.8746" lon="4.4109">
        <ele>593.4</ele>
        <time>2025-09-09T13:44:41Z</time>
      </trkpt>
      <trkpt lat="45.87458" lon="4.4109">
        <ele>593.4</ele>
        <time>2025-09-09T13:44:42Z</time>
      </trkpt>
      <trkpt lat="45.87455" lon="4.41091">
        <ele>593.4</ele>
        <time>2025-09-09T13:44:43Z</time>
      </trkpt>
      <trkpt lat="45.87452" lon="4.41092">
        <ele>593.4</ele>
        <time>2025-09-09T13:44:44Z</time>
      </trkpt>
      <trkpt lat="45.8745" lon="4.41093">
        <ele>593.4</ele>
        <time>2025-09-09T13:44:45Z</time>
      </trkpt>
      <trkpt lat="45.87447" lon="4.41094">
        <ele>593.8</ele>
        <time>2025-09-09T13:44:46Z</time>
      </trkpt>
      <trkpt lat="45.87444" lon="4.41095">
        <ele>593.8</ele>
        <time>2025-09-09T13:44:47Z</time>
      </trkpt>
      <trkpt lat="45.87441" lon="4.41096">
        <ele>593.8</ele>
        <time>2025-09-09T13:44:48Z</time>
      </trkpt>
      <trkpt lat="45.87439" lon="4.41098">
        <ele>593.8</ele>
        <time>2025-09-09T13:44:49Z</time>
      </trkpt>
      <trkpt lat="45.87437" lon="4.41101">
        <ele>593.8</ele>
        <time>2025-09-09T13:44:50Z</time>
      </trkpt>
      <trkpt lat="45.87434" lon="4.41103">
        <ele>593.8</ele>
        <time>2025-09-09T13:44:51Z</time>
      </trkpt>
      <trkpt lat="45.87432" lon="4.41106">
        <ele>594</ele>
        <time>2025-09-09T13:44:52Z</time>
      </trkpt>
      <trkpt lat="45.8743" lon="4.41109">
        <ele>594</ele>
        <time>2025-09-09T13:44:53Z</time>
      </trkpt>
      <trkpt lat="45.87428" lon="4.41111">
        <ele>594</ele>
        <time>2025-09-09T13:44:54Z</time>
      </trkpt>
      <trkpt lat="45.87425" lon="4.41114">
        <ele>594</ele>
        <time>2025-09-09T13:44:55Z</time>
      </trkpt>
      <trkpt lat="45.87423" lon="4.41117">
        <ele>594</ele>
        <time>2025-09-09T13:44:56Z</time>
      </trkpt>
      <trkpt lat="45.87421" lon="4.4112">
        <ele>594</ele>
        <time>2025-09-09T13:44:57Z</time>
      </trkpt>
      <trkpt lat="45.87419" lon="4.41123">
        <ele>594</ele>
        <time>2025-09-09T13:44:58Z</time>
      </trkpt>
      <trkpt lat="45.87417" lon="4.41126">
        <ele>594</ele>
        <time>2025-09-09T13:44:59Z</time>
      </trkpt>
      <trkpt lat="45.87415" lon="4.41129">
        <ele>594.2</ele>
        <time>2025-09-09T13:45:00Z</time>
      </trkpt>
      <trkpt lat="45.87413" lon="4.41133">
        <ele>594.2</ele>
        <time>2025-09-09T13:45:01Z</time>
      </trkpt>
      <trkpt lat="45.87411" lon="4.41136">
        <ele>594.6</ele>
        <time>2025-09-09T13:45:02Z</time>
      </trkpt>
      <trkpt lat="45.87409" lon="4.41139">
        <ele>594.6</ele>
        <time>2025-09-09T13:45:03Z</time>
      </trkpt>
      <trkpt lat="45.87407" lon="4.41143">
        <ele>594.6</ele>
        <time>2025-09-09T13:45:04Z</time>
      </trkpt>
      <trkpt lat="45.87406" lon="4.41147">
        <ele>594.8</ele>
        <time>2025-09-09T13:45:05Z</time>
      </trkpt>
      <trkpt lat="45.87404" lon="4.41151">
        <ele>594.8</ele>
        <time>2025-09-09T13:45:06Z</time>
      </trkpt>
      <trkpt lat="45.87403" lon="4.41155">
        <ele>594.8</ele>
        <time>2025-09-09T13:45:07Z</time>
      </trkpt>
      <trkpt lat="45.87401" lon="4.4116">
        <ele>594.8</ele>
        <time>2025-09-09T13:45:08Z</time>
      </trkpt>
      <trkpt lat="45.87401" lon="4.41164">
        <ele>595</ele>
        <time>2025-09-09T13:45:09Z</time>
      </trkpt>
      <trkpt lat="45.87399" lon="4.41167">
        <ele>595</ele>
        <time>2025-09-09T13:45:10Z</time>
      </trkpt>
      <trkpt lat="45.87398" lon="4.41171">
        <ele>595</ele>
        <time>2025-09-09T13:45:11Z</time>
      </trkpt>
      <trkpt lat="45.87397" lon="4.41175">
        <ele>595</ele>
        <time>2025-09-09T13:45:12Z</time>
      </trkpt>
      <trkpt lat="45.87396" lon="4.41179">
        <ele>595.2</ele>
        <time>2025-09-09T13:45:13Z</time>
      </trkpt>
      <trkpt lat="45.87395" lon="4.41182">
        <ele>595.4</ele>
        <time>2025-09-09T13:45:14Z</time>
      </trkpt>
      <trkpt lat="45.87395" lon="4.41186">
        <ele>595.4</ele>
        <time>2025-09-09T13:45:15Z</time>
      </trkpt>
      <trkpt lat="45.87394" lon="4.41191">
        <ele>595.4</ele>
        <time>2025-09-09T13:45:16Z</time>
      </trkpt>
      <trkpt lat="45.87393" lon="4.41195">
        <ele>595.4</ele>
        <time>2025-09-09T13:45:17Z</time>
      </trkpt>
      <trkpt lat="45.87393" lon="4.41199">
        <ele>595.4</ele>
        <time>2025-09-09T13:45:18Z</time>
      </trkpt>
      <trkpt lat="45.87392" lon="4.41203">
        <ele>595.8</ele>
        <time>2025-09-09T13:45:19Z</time>
      </trkpt>
      <trkpt lat="45.87392" lon="4.41207">
        <ele>595.8</ele>
        <time>2025-09-09T13:45:20Z</time>
      </trkpt>
      <trkpt lat="45.87391" lon="4.41211">
        <ele>596</ele>
        <time>2025-09-09T13:45:21Z</time>
      </trkpt>
      <trkpt lat="45.87389" lon="4.41216">
        <ele>596</ele>
        <time>2025-09-09T13:45:22Z</time>
      </trkpt>
      <trkpt lat="45.87388" lon="4.4122">
        <ele>596</ele>
        <time>2025-09-09T13:45:23Z</time>
      </trkpt>
      <trkpt lat="45.87387" lon="4.41225">
        <ele>596</ele>
        <time>2025-09-09T13:45:24Z</time>
      </trkpt>
      <trkpt lat="45.87386" lon="4.41229">
        <ele>596.2</ele>
        <time>2025-09-09T13:45:25Z</time>
      </trkpt>
      <trkpt lat="45.87384" lon="4.41233">
        <ele>596.2</ele>
        <time>2025-09-09T13:45:26Z</time>
      </trkpt>
      <trkpt lat="45.87381" lon="4.41237">
        <ele>596.2</ele>
        <time>2025-09-09T13:45:27Z</time>
      </trkpt>
      <trkpt lat="45.87378" lon="4.4124">
        <ele>596.6</ele>
        <time>2025-09-09T13:45:28Z</time>
      </trkpt>
      <trkpt lat="45.87375" lon="4.41242">
        <ele>596.6</ele>
        <time>2025-09-09T13:45:29Z</time>
      </trkpt>
      <trkpt lat="45.87372" lon="4.41243">
        <ele>596.6</ele>
        <time>2025-09-09T13:45:30Z</time>
      </trkpt>
      <trkpt lat="45.87369" lon="4.41244">
        <ele>597</ele>
        <time>2025-09-09T13:45:31Z</time>
      </trkpt>
      <trkpt lat="45.87366" lon="4.41243">
        <ele>597</ele>
        <time>2025-09-09T13:45:32Z</time>
      </trkpt>
      <trkpt lat="45.87363" lon="4.41243">
        <ele>597.4</ele>
        <time>2025-09-09T13:45:33Z</time>
      </trkpt>
      <trkpt lat="45.8736" lon="4.41243">
        <ele>597.6</ele>
        <time>2025-09-09T13:45:34Z</time>
      </trkpt>
      <trkpt lat="45.87358" lon="4.41242">
        <ele>597.6</ele>
        <time>2025-09-09T13:45:35Z</time>
      </trkpt>
      <trkpt lat="45.87355" lon="4.41242">
        <ele>598</ele>
        <time>2025-09-09T13:45:36Z</time>
      </trkpt>
      <trkpt lat="45.87352" lon="4.41242">
        <ele>598</ele>
        <time>2025-09-09T13:45:37Z</time>
      </trkpt>
      <trkpt lat="45.8735" lon="4.41242">
        <ele>598</ele>
        <time>2025-09-09T13:45:38Z</time>
      </trkpt>
      <trkpt lat="45.87347" lon="4.41241">
        <ele>598.2</ele>
        <time>2025-09-09T13:45:39Z</time>
      </trkpt>
      <trkpt lat="45.87344" lon="4.41241">
        <ele>598.2</ele>
        <time>2025-09-09T13:45:40Z</time>
      </trkpt>
      <trkpt lat="45.87342" lon="4.4124">
        <ele>598.4</ele>
        <time>2025-09-09T13:45:41Z</time>
      </trkpt>
      <trkpt lat="45.87339" lon="4.4124">
        <ele>598.4</ele>
        <time>2025-09-09T13:45:42Z</time>
      </trkpt>
      <trkpt lat="45.87337" lon="4.4124">
        <ele>598.4</ele>
        <time>2025-09-09T13:45:43Z</time>
      </trkpt>
      <trkpt lat="45.87334" lon="4.4124">
        <ele>598.4</ele>
        <time>2025-09-09T13:45:44Z</time>
      </trkpt>
      <trkpt lat="45.87332" lon="4.41239">
        <ele>598.4</ele>
        <time>2025-09-09T13:45:45Z</time>
      </trkpt>
      <trkpt lat="45.87329" lon="4.41237">
        <ele>598.8</ele>
        <time>2025-09-09T13:45:46Z</time>
      </trkpt>
      <trkpt lat="45.87327" lon="4.41236">
        <ele>599</ele>
        <time>2025-09-09T13:45:47Z</time>
      </trkpt>
      <trkpt lat="45.87324" lon="4.41235">
        <ele>599</ele>
        <time>2025-09-09T13:45:48Z</time>
      </trkpt>
      <trkpt lat="45.87322" lon="4.41235">
        <ele>599.2</ele>
        <time>2025-09-09T13:45:49Z</time>
      </trkpt>
      <trkpt lat="45.87319" lon="4.41234">
        <ele>599.2</ele>
        <time>2025-09-09T13:45:50Z</time>
      </trkpt>
      <trkpt lat="45.87316" lon="4.41233">
        <ele>599.2</ele>
        <time>2025-09-09T13:45:51Z</time>
      </trkpt>
      <trkpt lat="45.87314" lon="4.41232">
        <ele>599.4</ele>
        <time>2025-09-09T13:45:52Z</time>
      </trkpt>
      <trkpt lat="45.87311" lon="4.41232">
        <ele>599.4</ele>
        <time>2025-09-09T13:45:53Z</time>
      </trkpt>
      <trkpt lat="45.87309" lon="4.41232">
        <ele>599.4</ele>
        <time>2025-09-09T13:45:54Z</time>
      </trkpt>
      <trkpt lat="45.87306" lon="4.41231">
        <ele>599.4</ele>
        <time>2025-09-09T13:45:55Z</time>
      </trkpt>
      <trkpt lat="45.87304" lon="4.41231">
        <ele>599.6</ele>
        <time>2025-09-09T13:45:56Z</time>
      </trkpt>
      <trkpt lat="45.87301" lon="4.41231">
        <ele>600</ele>
        <time>2025-09-09T13:45:57Z</time>
      </trkpt>
      <trkpt lat="45.87299" lon="4.41231">
        <ele>600</ele>
        <time>2025-09-09T13:45:58Z</time>
      </trkpt>
      <trkpt lat="45.87296" lon="4.41231">
        <ele>600.2</ele>
        <time>2025-09-09T13:45:59Z</time>
      </trkpt>
      <trkpt lat="45.87294" lon="4.41231">
        <ele>600.2</ele>
        <time>2025-09-09T13:46:00Z</time>
      </trkpt>
      <trkpt lat="45.87291" lon="4.41232">
        <ele>600.2</ele>
        <time>2025-09-09T13:46:01Z</time>
      </trkpt>
      <trkpt lat="45.87289" lon="4.41233">
        <ele>600.2</ele>
        <time>2025-09-09T13:46:02Z</time>
      </trkpt>
      <trkpt lat="45.87286" lon="4.41234">
        <ele>600.4</ele>
        <time>2025-09-09T13:46:03Z</time>
      </trkpt>
      <trkpt lat="45.87284" lon="4.41234">
        <ele>600.4</ele>
        <time>2025-09-09T13:46:04Z</time>
      </trkpt>
      <trkpt lat="45.87282" lon="4.41234">
        <ele>600.6</ele>
        <time>2025-09-09T13:46:05Z</time>
      </trkpt>
      <trkpt lat="45.87279" lon="4.41235">
        <ele>600.6</ele>
        <time>2025-09-09T13:46:06Z</time>
      </trkpt>
      <trkpt lat="45.87277" lon="4.41235">
        <ele>601</ele>
        <time>2025-09-09T13:46:07Z</time>
      </trkpt>
      <trkpt lat="45.87275" lon="4.41235">
        <ele>601</ele>
        <time>2025-09-09T13:46:08Z</time>
      </trkpt>
      <trkpt lat="45.87272" lon="4.41235">
        <ele>601</ele>
        <time>2025-09-09T13:46:09Z</time>
      </trkpt>
      <trkpt lat="45.8727" lon="4.41236">
        <ele>601</ele>
        <time>2025-09-09T13:46:10Z</time>
      </trkpt>
      <trkpt lat="45.87268" lon="4.41236">
        <ele>601</ele>
        <time>2025-09-09T13:46:11Z</time>
      </trkpt>
      <trkpt lat="45.87266" lon="4.41236">
        <ele>601</ele>
        <time>2025-09-09T13:46:12Z</time>
      </trkpt>
      <trkpt lat="45.87263" lon="4.41236">
        <ele>601.2</ele>
        <time>2025-09-09T13:46:13Z</time>
      </trkpt>
      <trkpt lat="45.87261" lon="4.41236">
        <ele>601.2</ele>
        <time>2025-09-09T13:46:14Z</time>
      </trkpt>
      <trkpt lat="45.87258" lon="4.41236">
        <ele>601.2</ele>
        <time>2025-09-09T13:46:15Z</time>
      </trkpt>
      <trkpt lat="45.87255" lon="4.41236">
        <ele>601.4</ele>
        <time>2025-09-09T13:46:16Z</time>
      </trkpt>
      <trkpt lat="45.87253" lon="4.41236">
        <ele>601.4</ele>
        <time>2025-09-09T13:46:17Z</time>
      </trkpt>
      <trkpt lat="45.87251" lon="4.41236">
        <ele>601.6</ele>
        <time>2025-09-09T13:46:18Z</time>
      </trkpt>
      <trkpt lat="45.87249" lon="4.41236">
        <ele>601.6</ele>
        <time>2025-09-09T13:46:19Z</time>
      </trkpt>
      <trkpt lat="45.87246" lon="4.41235">
        <ele>601.6</ele>
        <time>2025-09-09T13:46:20Z</time>
      </trkpt>
      <trkpt lat="45.87244" lon="4.41234">
        <ele>601.6</ele>
        <time>2025-09-09T13:46:21Z</time>
      </trkpt>
      <trkpt lat="45.87242" lon="4.41234">
        <ele>602</ele>
        <time>2025-09-09T13:46:22Z</time>
      </trkpt>
      <trkpt lat="45.8724" lon="4.41233">
        <ele>602</ele>
        <time>2025-09-09T13:46:23Z</time>
      </trkpt>
      <trkpt lat="45.87238" lon="4.41232">
        <ele>602</ele>
        <time>2025-09-09T13:46:24Z</time>
      </trkpt>
      <trkpt lat="45.87236" lon="4.41231">
        <ele>602.2</ele>
        <time>2025-09-09T13:46:25Z</time>
      </trkpt>
      <trkpt lat="45.87234" lon="4.41229">
        <ele>602.2</ele>
        <time>2025-09-09T13:46:26Z</time>
      </trkpt>
      <trkpt lat="45.87233" lon="4.41227">
        <ele>602.6</ele>
        <time>2025-09-09T13:46:27Z</time>
      </trkpt>
      <trkpt lat="45.87231" lon="4.41225">
        <ele>602.6</ele>
        <time>2025-09-09T13:46:28Z</time>
      </trkpt>
      <trkpt lat="45.87229" lon="4.41223">
        <ele>602.8</ele>
        <time>2025-09-09T13:46:29Z</time>
      </trkpt>
      <trkpt lat="45.87227" lon="4.41221">
        <ele>602.8</ele>
        <time>2025-09-09T13:46:30Z</time>
      </trkpt>
      <trkpt lat="45.87225" lon="4.4122">
        <ele>602.8</ele>
        <time>2025-09-09T13:46:31Z</time>
      </trkpt>
      <trkpt lat="45.87223" lon="4.41219">
        <ele>602.8</ele>
        <time>2025-09-09T13:46:32Z</time>
      </trkpt>
      <trkpt lat="45.8722" lon="4.41217">
        <ele>602.8</ele>
        <time>2025-09-09T13:46:33Z</time>
      </trkpt>
      <trkpt lat="45.87219" lon="4.41217">
        <ele>603.2</ele>
        <time>2025-09-09T13:46:34Z</time>
      </trkpt>
      <trkpt lat="45.87218" lon="4.41216">
        <ele>603.2</ele>
        <time>2025-09-09T13:46:35Z</time>
      </trkpt>
      <trkpt lat="45.87216" lon="4.41214">
        <ele>603.4</ele>
        <time>2025-09-09T13:46:36Z</time>
      </trkpt>
      <trkpt lat="45.87214" lon="4.41213">
        <ele>603.4</ele>
        <time>2025-09-09T13:46:37Z</time>
      </trkpt>
      <trkpt lat="45.87212" lon="4.41211">
        <ele>603.4</ele>
        <time>2025-09-09T13:46:38Z</time>
      </trkpt>
      <trkpt lat="45.8721" lon="4.4121">
        <ele>603.8</ele>
        <time>2025-09-09T13:46:39Z</time>
      </trkpt>
      <trkpt lat="45.87208" lon="4.41209">
        <ele>603.8</ele>
        <time>2025-09-09T13:46:40Z</time>
      </trkpt>
      <trkpt lat="45.87206" lon="4.41207">
        <ele>603.8</ele>
        <time>2025-09-09T13:46:41Z</time>
      </trkpt>
      <trkpt lat="45.87204" lon="4.41205">
        <ele>603.8</ele>
        <time>2025-09-09T13:46:42Z</time>
      </trkpt>
      <trkpt lat="45.87201" lon="4.41204">
        <ele>603.8</ele>
        <time>2025-09-09T13:46:43Z</time>
      </trkpt>
      <trkpt lat="45.87198" lon="4.41202">
        <ele>603.8</ele>
        <time>2025-09-09T13:46:44Z</time>
      </trkpt>
      <trkpt lat="45.87196" lon="4.412">
        <ele>604</ele>
        <time>2025-09-09T13:46:45Z</time>
      </trkpt>
      <trkpt lat="45.87194" lon="4.41198">
        <ele>604</ele>
        <time>2025-09-09T13:46:46Z</time>
      </trkpt>
      <trkpt lat="45.87191" lon="4.41197">
        <ele>604</ele>
        <time>2025-09-09T13:46:47Z</time>
      </trkpt>
      <trkpt lat="45.87189" lon="4.41195">
        <ele>604</ele>
        <time>2025-09-09T13:46:48Z</time>
      </trkpt>
      <trkpt lat="45.87186" lon="4.41194">
        <ele>604</ele>
        <time>2025-09-09T13:46:49Z</time>
      </trkpt>
      <trkpt lat="45.87184" lon="4.41192">
        <ele>604.4</ele>
        <time>2025-09-09T13:46:50Z</time>
      </trkpt>
      <trkpt lat="45.87181" lon="4.41191">
        <ele>604.4</ele>
        <time>2025-09-09T13:46:51Z</time>
      </trkpt>
      <trkpt lat="45.87179" lon="4.4119">
        <ele>604.4</ele>
        <time>2025-09-09T13:46:52Z</time>
      </trkpt>
      <trkpt lat="45.87177" lon="4.41189">
        <ele>604.6</ele>
        <time>2025-09-09T13:46:53Z</time>
      </trkpt>
      <trkpt lat="45.87175" lon="4.41187">
        <ele>604.6</ele>
        <time>2025-09-09T13:46:54Z</time>
      </trkpt>
      <trkpt lat="45.87173" lon="4.41185">
        <ele>604.6</ele>
        <time>2025-09-09T13:46:55Z</time>
      </trkpt>
      <trkpt lat="45.87171" lon="4.41183">
        <ele>605</ele>
        <time>2025-09-09T13:46:56Z</time>
      </trkpt>
      <trkpt lat="45.8717" lon="4.41181">
        <ele>605</ele>
        <time>2025-09-09T13:46:57Z</time>
      </trkpt>
      <trkpt lat="45.87169" lon="4.4118">
        <ele>605</ele>
        <time>2025-09-09T13:46:58Z</time>
      </trkpt>
      <trkpt lat="45.87169" lon="4.41178">
        <ele>605</ele>
        <time>2025-09-09T13:46:59Z</time>
      </trkpt>
      <trkpt lat="45.87168" lon="4.41175">
        <ele>605.4</ele>
        <time>2025-09-09T13:47:00Z</time>
      </trkpt>
      <trkpt lat="45.87168" lon="4.41173">
        <ele>605.4</ele>
        <time>2025-09-09T13:47:01Z</time>
      </trkpt>
      <trkpt lat="45.87167" lon="4.41171">
        <ele>605.6</ele>
        <time>2025-09-09T13:47:02Z</time>
      </trkpt>
      <trkpt lat="45.87167" lon="4.41168">
        <ele>605.6</ele>
        <time>2025-09-09T13:47:03Z</time>
      </trkpt>
      <trkpt lat="45.87167" lon="4.41165">
        <ele>605.6</ele>
        <time>2025-09-09T13:47:04Z</time>
      </trkpt>
      <trkpt lat="45.87167" lon="4.41162">
        <ele>605.8</ele>
        <time>2025-09-09T13:47:05Z</time>
      </trkpt>
      <trkpt lat="45.87167" lon="4.41158">
        <ele>605.8</ele>
        <time>2025-09-09T13:47:06Z</time>
      </trkpt>
      <trkpt lat="45.87167" lon="4.41155">
        <ele>606</ele>
        <time>2025-09-09T13:47:07Z</time>
      </trkpt>
      <trkpt lat="45.87167" lon="4.41153">
        <ele>606.2</ele>
        <time>2025-09-09T13:47:08Z</time>
      </trkpt>
      <trkpt lat="45.87167" lon="4.4115">
        <ele>606.4</ele>
        <time>2025-09-09T13:47:09Z</time>
      </trkpt>
      <trkpt lat="45.87167" lon="4.41147">
        <ele>606.4</ele>
        <time>2025-09-09T13:47:10Z</time>
      </trkpt>
      <trkpt lat="45.87167" lon="4.41145">
        <ele>606.8</ele>
        <time>2025-09-09T13:47:11Z</time>
      </trkpt>
      <trkpt lat="45.87167" lon="4.41142">
        <ele>606.8</ele>
        <time>2025-09-09T13:47:12Z</time>
      </trkpt>
      <trkpt lat="45.87167" lon="4.41139">
        <ele>606.8</ele>
        <time>2025-09-09T13:47:13Z</time>
      </trkpt>
      <trkpt lat="45.87167" lon="4.41136">
        <ele>607</ele>
        <time>2025-09-09T13:47:14Z</time>
      </trkpt>
      <trkpt lat="45.87168" lon="4.41134">
        <ele>607</ele>
        <time>2025-09-09T13:47:15Z</time>
      </trkpt>
      <trkpt lat="45.87168" lon="4.41132">
        <ele>607</ele>
        <time>2025-09-09T13:47:16Z</time>
      </trkpt>
      <trkpt lat="45.87168" lon="4.41129">
        <ele>607.2</ele>
        <time>2025-09-09T13:47:17Z</time>
      </trkpt>
      <trkpt lat="45.87169" lon="4.41127">
        <ele>607.2</ele>
        <time>2025-09-09T13:47:18Z</time>
      </trkpt>
      <trkpt lat="45.8717" lon="4.41124">
        <ele>607.2</ele>
        <time>2025-09-09T13:47:19Z</time>
      </trkpt>
      <trkpt lat="45.87172" lon="4.41122">
        <ele>607.4</ele>
        <time>2025-09-09T13:47:20Z</time>
      </trkpt>
      <trkpt lat="45.87172" lon="4.41119">
        <ele>607.4</ele>
        <time>2025-09-09T13:47:21Z</time>
      </trkpt>
      <trkpt lat="45.87173" lon="4.41117">
        <ele>607.4</ele>
        <time>2025-09-09T13:47:22Z</time>
      </trkpt>
      <trkpt lat="45.87173" lon="4.41115">
        <ele>607.4</ele>
        <time>2025-09-09T13:47:23Z</time>
      </trkpt>
      <trkpt lat="45.87174" lon="4.41112">
        <ele>607.4</ele>
        <time>2025-09-09T13:47:24Z</time>
      </trkpt>
      <trkpt lat="45.87174" lon="4.41109">
        <ele>607.8</ele>
        <time>2025-09-09T13:47:25Z</time>
      </trkpt>
      <trkpt lat="45.87175" lon="4.41107">
        <ele>607.8</ele>
        <time>2025-09-09T13:47:26Z</time>
      </trkpt>
      <trkpt lat="45.87175" lon="4.41104">
        <ele>608</ele>
        <time>2025-09-09T13:47:27Z</time>
      </trkpt>
      <trkpt lat="45.87176" lon="4.41101">
        <ele>608</ele>
        <time>2025-09-09T13:47:28Z</time>
      </trkpt>
      <trkpt lat="45.87177" lon="4.41096">
        <ele>608</ele>
        <time>2025-09-09T13:47:29Z</time>
      </trkpt>
      <trkpt lat="45.87177" lon="4.41093">
        <ele>608.4</ele>
        <time>2025-09-09T13:47:30Z</time>
      </trkpt>
      <trkpt lat="45.87178" lon="4.41091">
        <ele>608.4</ele>
        <time>2025-09-09T13:47:31Z</time>
      </trkpt>
      <trkpt lat="45.87179" lon="4.41088">
        <ele>608.6</ele>
        <time>2025-09-09T13:47:32Z</time>
      </trkpt>
      <trkpt lat="45.8718" lon="4.41086">
        <ele>608.6</ele>
        <time>2025-09-09T13:47:33Z</time>
      </trkpt>
      <trkpt lat="45.8718" lon="4.41083">
        <ele>608.6</ele>
        <time>2025-09-09T13:47:34Z</time>
      </trkpt>
      <trkpt lat="45.87181" lon="4.4108">
        <ele>608.8</ele>
        <time>2025-09-09T13:47:35Z</time>
      </trkpt>
      <trkpt lat="45.87181" lon="4.41077">
        <ele>608.8</ele>
        <time>2025-09-09T13:47:36Z</time>
      </trkpt>
      <trkpt lat="45.87181" lon="4.41075">
        <ele>608.8</ele>
        <time>2025-09-09T13:47:37Z</time>
      </trkpt>
      <trkpt lat="45.87181" lon="4.41072">
        <ele>608.8</ele>
        <time>2025-09-09T13:47:38Z</time>
      </trkpt>
      <trkpt lat="45.87181" lon="4.41069">
        <ele>609.2</ele>
        <time>2025-09-09T13:47:39Z</time>
      </trkpt>
      <trkpt lat="45.87181" lon="4.41066">
        <ele>609.2</ele>
        <time>2025-09-09T13:47:40Z</time>
      </trkpt>
      <trkpt lat="45.87182" lon="4.41064">
        <ele>609.2</ele>
        <time>2025-09-09T13:47:41Z</time>
      </trkpt>
      <trkpt lat="45.87182" lon="4.41061">
        <ele>609.4</ele>
        <time>2025-09-09T13:47:42Z</time>
      </trkpt>
      <trkpt lat="45.87182" lon="4.41058">
        <ele>609.4</ele>
        <time>2025-09-09T13:47:43Z</time>
      </trkpt>
      <trkpt lat="45.87182" lon="4.41056">
        <ele>609.4</ele>
        <time>2025-09-09T13:47:44Z</time>
      </trkpt>
      <trkpt lat="45.87182" lon="4.41054">
        <ele>609.4</ele>
        <time>2025-09-09T13:47:45Z</time>
      </trkpt>
      <trkpt lat="45.87182" lon="4.41051">
        <ele>609.6</ele>
        <time>2025-09-09T13:47:46Z</time>
      </trkpt>
      <trkpt lat="45.87182" lon="4.41048">
        <ele>609.6</ele>
        <time>2025-09-09T13:47:47Z</time>
      </trkpt>
      <trkpt lat="45.87183" lon="4.41046">
        <ele>610</ele>
        <time>2025-09-09T13:47:48Z</time>
      </trkpt>
      <trkpt lat="45.87182" lon="4.41043">
        <ele>610</ele>
        <time>2025-09-09T13:47:49Z</time>
      </trkpt>
      <trkpt lat="45.87182" lon="4.4104">
        <ele>610</ele>
        <time>2025-09-09T13:47:50Z</time>
      </trkpt>
      <trkpt lat="45.87182" lon="4.41038">
        <ele>610.2</ele>
        <time>2025-09-09T13:47:51Z</time>
      </trkpt>
      <trkpt lat="45.87181" lon="4.41035">
        <ele>610.2</ele>
        <time>2025-09-09T13:47:52Z</time>
      </trkpt>
      <trkpt lat="45.87181" lon="4.41033">
        <ele>610.4</ele>
        <time>2025-09-09T13:47:53Z</time>
      </trkpt>
      <trkpt lat="45.87181" lon="4.4103">
        <ele>610.4</ele>
        <time>2025-09-09T13:47:54Z</time>
      </trkpt>
      <trkpt lat="45.8718" lon="4.41028">
        <ele>610.4</ele>
        <time>2025-09-09T13:47:55Z</time>
      </trkpt>
      <trkpt lat="45.8718" lon="4.41025">
        <ele>610.6</ele>
        <time>2025-09-09T13:47:56Z</time>
      </trkpt>
      <trkpt lat="45.87179" lon="4.41023">
        <ele>610.6</ele>
        <time>2025-09-09T13:47:57Z</time>
      </trkpt>
      <trkpt lat="45.87179" lon="4.4102">
        <ele>610.6</ele>
        <time>2025-09-09T13:47:58Z</time>
      </trkpt>
      <trkpt lat="45.87179" lon="4.41018">
        <ele>610.6</ele>
        <time>2025-09-09T13:47:59Z</time>
      </trkpt>
      <trkpt lat="45.87178" lon="4.41016">
        <ele>610.8</ele>
        <time>2025-09-09T13:48:00Z</time>
      </trkpt>
      <trkpt lat="45.87178" lon="4.41014">
        <ele>611</ele>
        <time>2025-09-09T13:48:01Z</time>
      </trkpt>
      <trkpt lat="45.87177" lon="4.41011">
        <ele>611</ele>
        <time>2025-09-09T13:48:02Z</time>
      </trkpt>
      <trkpt lat="45.87176" lon="4.41009">
        <ele>611.2</ele>
        <time>2025-09-09T13:48:03Z</time>
      </trkpt>
      <trkpt lat="45.87175" lon="4.41007">
        <ele>611.4</ele>
        <time>2025-09-09T13:48:04Z</time>
      </trkpt>
      <trkpt lat="45.87175" lon="4.41004">
        <ele>611.4</ele>
        <time>2025-09-09T13:48:05Z</time>
      </trkpt>
      <trkpt lat="45.87175" lon="4.41001">
        <ele>611.4</ele>
        <time>2025-09-09T13:48:06Z</time>
      </trkpt>
      <trkpt lat="45.87174" lon="4.40999">
        <ele>611.6</ele>
        <time>2025-09-09T13:48:07Z</time>
      </trkpt>
      <trkpt lat="45.87174" lon="4.40996">
        <ele>611.8</ele>
        <time>2025-09-09T13:48:08Z</time>
      </trkpt>
      <trkpt lat="45.87173" lon="4.40994">
        <ele>611.8</ele>
        <time>2025-09-09T13:48:09Z</time>
      </trkpt>
      <trkpt lat="45.87173" lon="4.40992">
        <ele>611.8</ele>
        <time>2025-09-09T13:48:10Z</time>
      </trkpt>
      <trkpt lat="45.87172" lon="4.40989">
        <ele>612.2</ele>
        <time>2025-09-09T13:48:11Z</time>
      </trkpt>
      <trkpt lat="45.87171" lon="4.40987">
        <ele>612.2</ele>
        <time>2025-09-09T13:48:12Z</time>
      </trkpt>
      <trkpt lat="45.8717" lon="4.40985">
        <ele>612.2</ele>
        <time>2025-09-09T13:48:13Z</time>
      </trkpt>
      <trkpt lat="45.87169" lon="4.40983">
        <ele>612.2</ele>
        <time>2025-09-09T13:48:14Z</time>
      </trkpt>
      <trkpt lat="45.87169" lon="4.4098">
        <ele>612.2</ele>
        <time>2025-09-09T13:48:15Z</time>
      </trkpt>
      <trkpt lat="45.87168" lon="4.40978">
        <ele>612.4</ele>
        <time>2025-09-09T13:48:16Z</time>
      </trkpt>
      <trkpt lat="45.87167" lon="4.40976">
        <ele>612.4</ele>
        <time>2025-09-09T13:48:17Z</time>
      </trkpt>
      <trkpt lat="45.87166" lon="4.40974">
        <ele>612.8</ele>
        <time>2025-09-09T13:48:18Z</time>
      </trkpt>
      <trkpt lat="45.87165" lon="4.40972">
        <ele>612.8</ele>
        <time>2025-09-09T13:48:19Z</time>
      </trkpt>
      <trkpt lat="45.87164" lon="4.4097">
        <ele>613</ele>
        <time>2025-09-09T13:48:20Z</time>
      </trkpt>
      <trkpt lat="45.87163" lon="4.40968">
        <ele>613</ele>
        <time>2025-09-09T13:48:21Z</time>
      </trkpt>
      <trkpt lat="45.87162" lon="4.40966">
        <ele>613.2</ele>
        <time>2025-09-09T13:48:22Z</time>
      </trkpt>
      <trkpt lat="45.87161" lon="4.40964">
        <ele>613.2</ele>
        <time>2025-09-09T13:48:23Z</time>
      </trkpt>
      <trkpt lat="45.8716" lon="4.40963">
        <ele>613.4</ele>
        <time>2025-09-09T13:48:24Z</time>
      </trkpt>
      <trkpt lat="45.87159" lon="4.40961">
        <ele>613.4</ele>
        <time>2025-09-09T13:48:25Z</time>
      </trkpt>
      <trkpt lat="45.87158" lon="4.40959">
        <ele>613.8</ele>
        <time>2025-09-09T13:48:26Z</time>
      </trkpt>
      <trkpt lat="45.87157" lon="4.40957">
        <ele>613.8</ele>
        <time>2025-09-09T13:48:27Z</time>
      </trkpt>
      <trkpt lat="45.87156" lon="4.40955">
        <ele>613.8</ele>
        <time>2025-09-09T13:48:28Z</time>
      </trkpt>
      <trkpt lat="45.87156" lon="4.40955">
        <ele>613.8</ele>
        <time>2025-09-09T13:48:29Z</time>
      </trkpt>
      <trkpt lat="45.87155" lon="4.40953">
        <ele>613.8</ele>
        <time>2025-09-09T13:48:30Z</time>
      </trkpt>
      <trkpt lat="45.87154" lon="4.40951">
        <ele>614</ele>
        <time>2025-09-09T13:48:31Z</time>
      </trkpt>
      <trkpt lat="45.87153" lon="4.4095">
        <ele>614</ele>
        <time>2025-09-09T13:48:32Z</time>
      </trkpt>
      <trkpt lat="45.87152" lon="4.40949">
        <ele>614</ele>
        <time>2025-09-09T13:48:33Z</time>
      </trkpt>
      <trkpt lat="45.87151" lon="4.40948">
        <ele>614.4</ele>
        <time>2025-09-09T13:48:34Z</time>
      </trkpt>
      <trkpt lat="45.8715" lon="4.40946">
        <ele>614.4</ele>
        <time>2025-09-09T13:48:35Z</time>
      </trkpt>
      <trkpt lat="45.87149" lon="4.40944">
        <ele>614.6</ele>
        <time>2025-09-09T13:48:36Z</time>
      </trkpt>
      <trkpt lat="45.87147" lon="4.40943">
        <ele>614.6</ele>
        <time>2025-09-09T13:48:37Z</time>
      </trkpt>
      <trkpt lat="45.87146" lon="4.40941">
        <ele>614.8</ele>
        <time>2025-09-09T13:48:38Z</time>
      </trkpt>
      <trkpt lat="45.87145" lon="4.4094">
        <ele>614.8</ele>
        <time>2025-09-09T13:48:39Z</time>
      </trkpt>
      <trkpt lat="45.87143" lon="4.40938">
        <ele>615.2</ele>
        <time>2025-09-09T13:48:40Z</time>
      </trkpt>
      <trkpt lat="45.87142" lon="4.40936">
        <ele>615.2</ele>
        <time>2025-09-09T13:48:41Z</time>
      </trkpt>
      <trkpt lat="45.87141" lon="4.40935">
        <ele>615.4</ele>
        <time>2025-09-09T13:48:42Z</time>
      </trkpt>
      <trkpt lat="45.8714" lon="4.40934">
        <ele>615.4</ele>
        <time>2025-09-09T13:48:43Z</time>
      </trkpt>
      <trkpt lat="45.87139" lon="4.40932">
        <ele>615.4</ele>
        <time>2025-09-09T13:48:44Z</time>
      </trkpt>
      <trkpt lat="45.87137" lon="4.40931">
        <ele>615.8</ele>
        <time>2025-09-09T13:48:45Z</time>
      </trkpt>
      <trkpt lat="45.87136" lon="4.40929">
        <ele>615.8</ele>
        <time>2025-09-09T13:48:46Z</time>
      </trkpt>
      <trkpt lat="45.87134" lon="4.40928">
        <ele>616</ele>
        <time>2025-09-09T13:48:47Z</time>
      </trkpt>
      <trkpt lat="45.87133" lon="4.40926">
        <ele>616</ele>
        <time>2025-09-09T13:48:48Z</time>
      </trkpt>
      <trkpt lat="45.87132" lon="4.40925">
        <ele>616</ele>
        <time>2025-09-09T13:48:49Z</time>
      </trkpt>
      <trkpt lat="45.8713" lon="4.40924">
        <ele>616</ele>
        <time>2025-09-09T13:48:50Z</time>
      </trkpt>
      <trkpt lat="45.87129" lon="4.40923">
        <ele>616.2</ele>
        <time>2025-09-09T13:48:51Z</time>
      </trkpt>
      <trkpt lat="45.87127" lon="4.40922">
        <ele>616.2</ele>
        <time>2025-09-09T13:48:52Z</time>
      </trkpt>
      <trkpt lat="45.87126" lon="4.40921">
        <ele>616.4</ele>
        <time>2025-09-09T13:48:53Z</time>
      </trkpt>
      <trkpt lat="45.87124" lon="4.4092">
        <ele>616.4</ele>
        <time>2025-09-09T13:48:54Z</time>
      </trkpt>
      <trkpt lat="45.87122" lon="4.40919">
        <ele>616.4</ele>
        <time>2025-09-09T13:48:55Z</time>
      </trkpt>
      <trkpt lat="45.87121" lon="4.40917">
        <ele>616.4</ele>
        <time>2025-09-09T13:48:56Z</time>
      </trkpt>
      <trkpt lat="45.87119" lon="4.40915">
        <ele>616.4</ele>
        <time>2025-09-09T13:48:57Z</time>
      </trkpt>
      <trkpt lat="45.87118" lon="4.40914">
        <ele>616.4</ele>
        <time>2025-09-09T13:48:58Z</time>
      </trkpt>
      <trkpt lat="45.87117" lon="4.40912">
        <ele>616.4</ele>
        <time>2025-09-09T13:48:59Z</time>
      </trkpt>
      <trkpt lat="45.87116" lon="4.40911">
        <ele>616.6</ele>
        <time>2025-09-09T13:49:00Z</time>
      </trkpt>
      <trkpt lat="45.87115" lon="4.40909">
        <ele>616.6</ele>
        <time>2025-09-09T13:49:01Z</time>
      </trkpt>
      <trkpt lat="45.87113" lon="4.40908">
        <ele>616.6</ele>
        <time>2025-09-09T13:49:02Z</time>
      </trkpt>
      <trkpt lat="45.87111" lon="4.40906">
        <ele>617</ele>
        <time>2025-09-09T13:49:03Z</time>
      </trkpt>
      <trkpt lat="45.87109" lon="4.40905">
        <ele>617</ele>
        <time>2025-09-09T13:49:04Z</time>
      </trkpt>
      <trkpt lat="45.87108" lon="4.40904">
        <ele>617.2</ele>
        <time>2025-09-09T13:49:05Z</time>
      </trkpt>
      <trkpt lat="45.87106" lon="4.40903">
        <ele>617.2</ele>
        <time>2025-09-09T13:49:06Z</time>
      </trkpt>
      <trkpt lat="45.87104" lon="4.40901">
        <ele>617.2</ele>
        <time>2025-09-09T13:49:07Z</time>
      </trkpt>
      <trkpt lat="45.87102" lon="4.40899">
        <ele>617.2</ele>
        <time>2025-09-09T13:49:08Z</time>
      </trkpt>
      <trkpt lat="45.87101" lon="4.40897">
        <ele>617.4</ele>
        <time>2025-09-09T13:49:09Z</time>
      </trkpt>
      <trkpt lat="45.87099" lon="4.40896">
        <ele>617.4</ele>
        <time>2025-09-09T13:49:10Z</time>
      </trkpt>
      <trkpt lat="45.87097" lon="4.40894">
        <ele>617.4</ele>
        <time>2025-09-09T13:49:11Z</time>
      </trkpt>
      <trkpt lat="45.87095" lon="4.40893">
        <ele>617.8</ele>
        <time>2025-09-09T13:49:12Z</time>
      </trkpt>
      <trkpt lat="45.87094" lon="4.40892">
        <ele>617.8</ele>
        <time>2025-09-09T13:49:13Z</time>
      </trkpt>
      <trkpt lat="45.87092" lon="4.40891">
        <ele>617.8</ele>
        <time>2025-09-09T13:49:14Z</time>
      </trkpt>
      <trkpt lat="45.8709" lon="4.40889">
        <ele>618</ele>
        <time>2025-09-09T13:49:15Z</time>
      </trkpt>
      <trkpt lat="45.87089" lon="4.40887">
        <ele>618</ele>
        <time>2025-09-09T13:49:16Z</time>
      </trkpt>
      <trkpt lat="45.87087" lon="4.40886">
        <ele>618</ele>
        <time>2025-09-09T13:49:17Z</time>
      </trkpt>
      <trkpt lat="45.87085" lon="4.40885">
        <ele>618</ele>
        <time>2025-09-09T13:49:18Z</time>
      </trkpt>
      <trkpt lat="45.87083" lon="4.40884">
        <ele>618.2</ele>
        <time>2025-09-09T13:49:19Z</time>
      </trkpt>
      <trkpt lat="45.87082" lon="4.40883">
        <ele>618.2</ele>
        <time>2025-09-09T13:49:20Z</time>
      </trkpt>
      <trkpt lat="45.87081" lon="4.40881">
        <ele>618.4</ele>
        <time>2025-09-09T13:49:21Z</time>
      </trkpt>
      <trkpt lat="45.8708" lon="4.40879">
        <ele>618.4</ele>
        <time>2025-09-09T13:49:22Z</time>
      </trkpt>
      <trkpt lat="45.87079" lon="4.40877">
        <ele>618.4</ele>
        <time>2025-09-09T13:49:23Z</time>
      </trkpt>
      <trkpt lat="45.87077" lon="4.40876">
        <ele>618.6</ele>
        <time>2025-09-09T13:49:24Z</time>
      </trkpt>
      <trkpt lat="45.87075" lon="4.40874">
        <ele>618.6</ele>
        <time>2025-09-09T13:49:25Z</time>
      </trkpt>
      <trkpt lat="45.87074" lon="4.40872">
        <ele>618.6</ele>
        <time>2025-09-09T13:49:26Z</time>
      </trkpt>
      <trkpt lat="45.87073" lon="4.40871">
        <ele>618.6</ele>
        <time>2025-09-09T13:49:27Z</time>
      </trkpt>
      <trkpt lat="45.87072" lon="4.40869">
        <ele>618.6</ele>
        <time>2025-09-09T13:49:28Z</time>
      </trkpt>
      <trkpt lat="45.8707" lon="4.40867">
        <ele>619</ele>
        <time>2025-09-09T13:49:29Z</time>
      </trkpt>
      <trkpt lat="45.87069" lon="4.40865">
        <ele>619</ele>
        <time>2025-09-09T13:49:30Z</time>
      </trkpt>
      <trkpt lat="45.87068" lon="4.40863">
        <ele>619</ele>
        <time>2025-09-09T13:49:31Z</time>
      </trkpt>
      <trkpt lat="45.87067" lon="4.40861">
        <ele>619.2</ele>
        <time>2025-09-09T13:49:32Z</time>
      </trkpt>
      <trkpt lat="45.87065" lon="4.40859">
        <ele>619.2</ele>
        <time>2025-09-09T13:49:33Z</time>
      </trkpt>
      <trkpt lat="45.87064" lon="4.40857">
        <ele>619.2</ele>
        <time>2025-09-09T13:49:34Z</time>
      </trkpt>
      <trkpt lat="45.87063" lon="4.40856">
        <ele>619.2</ele>
        <time>2025-09-09T13:49:35Z</time>
      </trkpt>
      <trkpt lat="45.87061" lon="4.40854">
        <ele>619.4</ele>
        <time>2025-09-09T13:49:36Z</time>
      </trkpt>
      <trkpt lat="45.8706" lon="4.40852">
        <ele>619.4</ele>
        <time>2025-09-09T13:49:37Z</time>
      </trkpt>
      <trkpt lat="45.87059" lon="4.4085">
        <ele>619.8</ele>
        <time>2025-09-09T13:49:38Z</time>
      </trkpt>
      <trkpt lat="45.87058" lon="4.40848">
        <ele>619.8</ele>
        <time>2025-09-09T13:49:39Z</time>
      </trkpt>
      <trkpt lat="45.87056" lon="4.40846">
        <ele>620</ele>
        <time>2025-09-09T13:49:40Z</time>
      </trkpt>
      <trkpt lat="45.87054" lon="4.40844">
        <ele>620.2</ele>
        <time>2025-09-09T13:49:41Z</time>
      </trkpt>
      <trkpt lat="45.87053" lon="4.40843">
        <ele>620.2</ele>
        <time>2025-09-09T13:49:42Z</time>
      </trkpt>
      <trkpt lat="45.87051" lon="4.40841">
        <ele>620.2</ele>
        <time>2025-09-09T13:49:43Z</time>
      </trkpt>
      <trkpt lat="45.8705" lon="4.40839">
        <ele>620.6</ele>
        <time>2025-09-09T13:49:44Z</time>
      </trkpt>
      <trkpt lat="45.87049" lon="4.40837">
        <ele>620.6</ele>
        <time>2025-09-09T13:49:45Z</time>
      </trkpt>
      <trkpt lat="45.87048" lon="4.40834">
        <ele>620.8</ele>
        <time>2025-09-09T13:49:46Z</time>
      </trkpt>
      <trkpt lat="45.87046" lon="4.40832">
        <ele>621</ele>
        <time>2025-09-09T13:49:47Z</time>
      </trkpt>
      <trkpt lat="45.87045" lon="4.4083">
        <ele>621</ele>
        <time>2025-09-09T13:49:48Z</time>
      </trkpt>
      <trkpt lat="45.87043" lon="4.40828">
        <ele>621</ele>
        <time>2025-09-09T13:49:49Z</time>
      </trkpt>
      <trkpt lat="45.87042" lon="4.40826">
        <ele>621.4</ele>
        <time>2025-09-09T13:49:50Z</time>
      </trkpt>
      <trkpt lat="45.87041" lon="4.40824">
        <ele>621.4</ele>
        <time>2025-09-09T13:49:51Z</time>
      </trkpt>
      <trkpt lat="45.87039" lon="4.40822">
        <ele>621.6</ele>
        <time>2025-09-09T13:49:52Z</time>
      </trkpt>
      <trkpt lat="45.87038" lon="4.4082">
        <ele>621.6</ele>
        <time>2025-09-09T13:49:53Z</time>
      </trkpt>
      <trkpt lat="45.87037" lon="4.40818">
        <ele>621.8</ele>
        <time>2025-09-09T13:49:54Z</time>
      </trkpt>
      <trkpt lat="45.87036" lon="4.40816">
        <ele>621.8</ele>
        <time>2025-09-09T13:49:55Z</time>
      </trkpt>
      <trkpt lat="45.87035" lon="4.40814">
        <ele>622</ele>
        <time>2025-09-09T13:49:56Z</time>
      </trkpt>
      <trkpt lat="45.87034" lon="4.40812">
        <ele>622.4</ele>
        <time>2025-09-09T13:49:57Z</time>
      </trkpt>
      <trkpt lat="45.87033" lon="4.4081">
        <ele>622.4</ele>
        <time>2025-09-09T13:49:58Z</time>
      </trkpt>
      <trkpt lat="45.87031" lon="4.40808">
        <ele>622.4</ele>
        <time>2025-09-09T13:49:59Z</time>
      </trkpt>
      <trkpt lat="45.8703" lon="4.40806">
        <ele>622.4</ele>
        <time>2025-09-09T13:50:00Z</time>
      </trkpt>
      <trkpt lat="45.87029" lon="4.40804">
        <ele>622.4</ele>
        <time>2025-09-09T13:50:01Z</time>
      </trkpt>
      <trkpt lat="45.87028" lon="4.40802">
        <ele>622.4</ele>
        <time>2025-09-09T13:50:02Z</time>
      </trkpt>
      <trkpt lat="45.87026" lon="4.408">
        <ele>622.6</ele>
        <time>2025-09-09T13:50:03Z</time>
      </trkpt>
      <trkpt lat="45.87025" lon="4.40799">
        <ele>622.6</ele>
        <time>2025-09-09T13:50:04Z</time>
      </trkpt>
      <trkpt lat="45.87024" lon="4.40798">
        <ele>622.6</ele>
        <time>2025-09-09T13:50:05Z</time>
      </trkpt>
      <trkpt lat="45.87023" lon="4.40798">
        <ele>622.6</ele>
        <time>2025-09-09T13:50:06Z</time>
      </trkpt>
      <trkpt lat="45.87022" lon="4.40798">
        <ele>622.6</ele>
        <time>2025-09-09T13:50:07Z</time>
      </trkpt>
      <trkpt lat="45.8702" lon="4.40798">
        <ele>622.8</ele>
        <time>2025-09-09T13:50:08Z</time>
      </trkpt>
      <trkpt lat="45.87019" lon="4.40798">
        <ele>622.8</ele>
        <time>2025-09-09T13:50:09Z</time>
      </trkpt>
      <trkpt lat="45.87018" lon="4.40797">
        <ele>622.8</ele>
        <time>2025-09-09T13:50:10Z</time>
      </trkpt>
      <trkpt lat="45.87017" lon="4.40796">
        <ele>622.8</ele>
        <time>2025-09-09T13:50:11Z</time>
      </trkpt>
      <trkpt lat="45.87017" lon="4.40794">
        <ele>623</ele>
        <time>2025-09-09T13:50:12Z</time>
      </trkpt>
      <trkpt lat="45.87017" lon="4.40792">
        <ele>623</ele>
        <time>2025-09-09T13:50:13Z</time>
      </trkpt>
      <trkpt lat="45.87017" lon="4.40791">
        <ele>623</ele>
        <time>2025-09-09T13:50:14Z</time>
      </trkpt>
      <trkpt lat="45.87017" lon="4.4079">
        <ele>623.2</ele>
        <time>2025-09-09T13:50:15Z</time>
      </trkpt>
      <trkpt lat="45.87017" lon="4.4079">
        <ele>623.2</ele>
        <time>2025-09-09T13:50:16Z</time>
      </trkpt>
      <trkpt lat="45.8702" lon="4.40788">
        <ele>623.6</ele>
        <time>2025-09-09T13:55:18Z</time>
      </trkpt>
      <trkpt lat="45.8702" lon="4.40785">
        <ele>623.2</ele>
        <time>2025-09-09T13:55:19Z</time>
      </trkpt>
      <trkpt lat="45.8702" lon="4.40781">
        <ele>623.2</ele>
        <time>2025-09-09T13:55:20Z</time>
      </trkpt>
      <trkpt lat="45.87019" lon="4.40776">
        <ele>622.8</ele>
        <time>2025-09-09T13:55:21Z</time>
      </trkpt>
      <trkpt lat="45.87018" lon="4.40771">
        <ele>622.8</ele>
        <time>2025-09-09T13:55:22Z</time>
      </trkpt>
      <trkpt lat="45.87017" lon="4.40765">
        <ele>622.8</ele>
        <time>2025-09-09T13:55:23Z</time>
      </trkpt>
      <trkpt lat="45.87015" lon="4.40758">
        <ele>622.4</ele>
        <time>2025-09-09T13:55:24Z</time>
      </trkpt>
      <trkpt lat="45.87015" lon="4.40751">
        <ele>622.4</ele>
        <time>2025-09-09T13:55:25Z</time>
      </trkpt>
      <trkpt lat="45.87014" lon="4.40744">
        <ele>622.2</ele>
        <time>2025-09-09T13:55:26Z</time>
      </trkpt>
      <trkpt lat="45.87014" lon="4.40737">
        <ele>622.2</ele>
        <time>2025-09-09T13:55:27Z</time>
      </trkpt>
      <trkpt lat="45.87014" lon="4.40729">
        <ele>621.6</ele>
        <time>2025-09-09T13:55:28Z</time>
      </trkpt>
      <trkpt lat="45.87014" lon="4.40721">
        <ele>621.4</ele>
        <time>2025-09-09T13:55:29Z</time>
      </trkpt>
      <trkpt lat="45.87013" lon="4.40713">
        <ele>620.8</ele>
        <time>2025-09-09T13:55:30Z</time>
      </trkpt>
      <trkpt lat="45.87012" lon="4.40704">
        <ele>620.6</ele>
        <time>2025-09-09T13:55:31Z</time>
      </trkpt>
      <trkpt lat="45.87011" lon="4.40695">
        <ele>620.6</ele>
        <time>2025-09-09T13:55:32Z</time>
      </trkpt>
      <trkpt lat="45.87012" lon="4.40685">
        <ele>620.2</ele>
        <time>2025-09-09T13:55:33Z</time>
      </trkpt>
      <trkpt lat="45.87011" lon="4.40677">
        <ele>619.8</ele>
        <time>2025-09-09T13:55:34Z</time>
      </trkpt>
      <trkpt lat="45.87011" lon="4.40668">
        <ele>619.8</ele>
        <time>2025-09-09T13:55:35Z</time>
      </trkpt>
      <trkpt lat="45.87011" lon="4.4066">
        <ele>619.4</ele>
        <time>2025-09-09T13:55:36Z</time>
      </trkpt>
      <trkpt lat="45.87013" lon="4.40653">
        <ele>618.8</ele>
        <time>2025-09-09T13:55:37Z</time>
      </trkpt>
      <trkpt lat="45.87012" lon="4.40646">
        <ele>618.4</ele>
        <time>2025-09-09T13:55:38Z</time>
      </trkpt>
      <trkpt lat="45.8701" lon="4.4064">
        <ele>618</ele>
        <time>2025-09-09T13:55:39Z</time>
      </trkpt>
      <trkpt lat="45.87008" lon="4.40635">
        <ele>617.8</ele>
        <time>2025-09-09T13:55:40Z</time>
      </trkpt>
      <trkpt lat="45.87006" lon="4.40631">
        <ele>617.4</ele>
        <time>2025-09-09T13:55:41Z</time>
      </trkpt>
      <trkpt lat="45.87004" lon="4.40629">
        <ele>617.2</ele>
        <time>2025-09-09T13:55:42Z</time>
      </trkpt>
      <trkpt lat="45.87" lon="4.40629">
        <ele>617.2</ele>
        <time>2025-09-09T13:55:43Z</time>
      </trkpt>
      <trkpt lat="45.86997" lon="4.40628">
        <ele>616.8</ele>
        <time>2025-09-09T13:55:44Z</time>
      </trkpt>
      <trkpt lat="45.86996" lon="4.4063">
        <ele>616.8</ele>
        <time>2025-09-09T13:55:45Z</time>
      </trkpt>
      <trkpt lat="45.8699" lon="4.40631">
        <ele>616.6</ele>
        <time>2025-09-09T13:55:46Z</time>
      </trkpt>
      <trkpt lat="45.86986" lon="4.40633">
        <ele>616.6</ele>
        <time>2025-09-09T13:55:47Z</time>
      </trkpt>
      <trkpt lat="45.86982" lon="4.40634">
        <ele>616.6</ele>
        <time>2025-09-09T13:55:48Z</time>
      </trkpt>
      <trkpt lat="45.86978" lon="4.40636">
        <ele>616.6</ele>
        <time>2025-09-09T13:55:49Z</time>
      </trkpt>
      <trkpt lat="45.86974" lon="4.40637">
        <ele>616.6</ele>
        <time>2025-09-09T13:55:50Z</time>
      </trkpt>
      <trkpt lat="45.86969" lon="4.40638">
        <ele>616.6</ele>
        <time>2025-09-09T13:55:51Z</time>
      </trkpt>
      <trkpt lat="45.86965" lon="4.40642">
        <ele>616.4</ele>
        <time>2025-09-09T13:55:52Z</time>
      </trkpt>
      <trkpt lat="45.86961" lon="4.40645">
        <ele>616.4</ele>
        <time>2025-09-09T13:55:53Z</time>
      </trkpt>
      <trkpt lat="45.86956" lon="4.40648">
        <ele>616.2</ele>
        <time>2025-09-09T13:55:54Z</time>
      </trkpt>
      <trkpt lat="45.86952" lon="4.40651">
        <ele>616.2</ele>
        <time>2025-09-09T13:55:55Z</time>
      </trkpt>
      <trkpt lat="45.86949" lon="4.40654">
        <ele>616.2</ele>
        <time>2025-09-09T13:55:56Z</time>
      </trkpt>
      <trkpt lat="45.86946" lon="4.40657">
        <ele>616.2</ele>
        <time>2025-09-09T13:55:57Z</time>
      </trkpt>
      <trkpt lat="45.86944" lon="4.40659">
        <ele>616.2</ele>
        <time>2025-09-09T13:55:58Z</time>
      </trkpt>
      <trkpt lat="45.86942" lon="4.4066">
        <ele>616.2</ele>
        <time>2025-09-09T13:55:59Z</time>
      </trkpt>
      <trkpt lat="45.8694" lon="4.40661">
        <ele>616.6</ele>
        <time>2025-09-09T13:56:00Z</time>
      </trkpt>
      <trkpt lat="45.86939" lon="4.40662">
        <ele>616.6</ele>
        <time>2025-09-09T13:56:01Z</time>
      </trkpt>
      <trkpt lat="45.86937" lon="4.40663">
        <ele>616.8</ele>
        <time>2025-09-09T13:56:02Z</time>
      </trkpt>
      <trkpt lat="45.86935" lon="4.40665">
        <ele>616.8</ele>
        <time>2025-09-09T13:56:03Z</time>
      </trkpt>
      <trkpt lat="45.86933" lon="4.40667">
        <ele>617</ele>
        <time>2025-09-09T13:56:04Z</time>
      </trkpt>
      <trkpt lat="45.8693" lon="4.40667">
        <ele>616.8</ele>
        <time>2025-09-09T13:56:05Z</time>
      </trkpt>
      <trkpt lat="45.86928" lon="4.40668">
        <ele>617</ele>
        <time>2025-09-09T13:56:06Z</time>
      </trkpt>
      <trkpt lat="45.86926" lon="4.4067">
        <ele>617</ele>
        <time>2025-09-09T13:56:07Z</time>
      </trkpt>
      <trkpt lat="45.86923" lon="4.40672">
        <ele>617</ele>
        <time>2025-09-09T13:56:08Z</time>
      </trkpt>
      <trkpt lat="45.8692" lon="4.40673">
        <ele>616.8</ele>
        <time>2025-09-09T13:56:09Z</time>
      </trkpt>
      <trkpt lat="45.86917" lon="4.40674">
        <ele>616.8</ele>
        <time>2025-09-09T13:56:10Z</time>
      </trkpt>
      <trkpt lat="45.86914" lon="4.40675">
        <ele>616.8</ele>
        <time>2025-09-09T13:56:11Z</time>
      </trkpt>
      <trkpt lat="45.8691" lon="4.40676">
        <ele>616.8</ele>
        <time>2025-09-09T13:56:12Z</time>
      </trkpt>
      <trkpt lat="45.86906" lon="4.40677">
        <ele>616.8</ele>
        <time>2025-09-09T13:56:13Z</time>
      </trkpt>
      <trkpt lat="45.86903" lon="4.40677">
        <ele>616.8</ele>
        <time>2025-09-09T13:56:14Z</time>
      </trkpt>
      <trkpt lat="45.86899" lon="4.40678">
        <ele>616.8</ele>
        <time>2025-09-09T13:56:15Z</time>
      </trkpt>
      <trkpt lat="45.86896" lon="4.40678">
        <ele>616.4</ele>
        <time>2025-09-09T13:56:16Z</time>
      </trkpt>
      <trkpt lat="45.86893" lon="4.40678">
        <ele>616.6</ele>
        <time>2025-09-09T13:56:17Z</time>
      </trkpt>
      <trkpt lat="45.8689" lon="4.40678">
        <ele>616.4</ele>
        <time>2025-09-09T13:56:18Z</time>
      </trkpt>
      <trkpt lat="45.86886" lon="4.40679">
        <ele>616</ele>
        <time>2025-09-09T13:56:19Z</time>
      </trkpt>
      <trkpt lat="45.86882" lon="4.4068">
        <ele>616</ele>
        <time>2025-09-09T13:56:20Z</time>
      </trkpt>
      <trkpt lat="45.86878" lon="4.40681">
        <ele>615.6</ele>
        <time>2025-09-09T13:56:21Z</time>
      </trkpt>
      <trkpt lat="45.86874" lon="4.40682">
        <ele>615.6</ele>
        <time>2025-09-09T13:56:22Z</time>
      </trkpt>
      <trkpt lat="45.8687" lon="4.40684">
        <ele>615.6</ele>
        <time>2025-09-09T13:56:23Z</time>
      </trkpt>
      <trkpt lat="45.86867" lon="4.40685">
        <ele>615.2</ele>
        <time>2025-09-09T13:56:24Z</time>
      </trkpt>
      <trkpt lat="45.86865" lon="4.40686">
        <ele>615.2</ele>
        <time>2025-09-09T13:56:25Z</time>
      </trkpt>
      <trkpt lat="45.86862" lon="4.40687">
        <ele>615.2</ele>
        <time>2025-09-09T13:56:26Z</time>
      </trkpt>
      <trkpt lat="45.8686" lon="4.40687">
        <ele>615.2</ele>
        <time>2025-09-09T13:56:27Z</time>
      </trkpt>
      <trkpt lat="45.86858" lon="4.40687">
        <ele>615.2</ele>
        <time>2025-09-09T13:56:28Z</time>
      </trkpt>
      <trkpt lat="45.86856" lon="4.40687">
        <ele>615.4</ele>
        <time>2025-09-09T13:56:29Z</time>
      </trkpt>
      <trkpt lat="45.86855" lon="4.40687">
        <ele>615.4</ele>
        <time>2025-09-09T13:56:30Z</time>
      </trkpt>
      <trkpt lat="45.86853" lon="4.40686">
        <ele>615.8</ele>
        <time>2025-09-09T13:56:31Z</time>
      </trkpt>
      <trkpt lat="45.86851" lon="4.40685">
        <ele>615.8</ele>
        <time>2025-09-09T13:56:32Z</time>
      </trkpt>
      <trkpt lat="45.8685" lon="4.40684">
        <ele>616</ele>
        <time>2025-09-09T13:56:33Z</time>
      </trkpt>
      <trkpt lat="45.86848" lon="4.40682">
        <ele>616.2</ele>
        <time>2025-09-09T13:56:34Z</time>
      </trkpt>
      <trkpt lat="45.86847" lon="4.40681">
        <ele>616.2</ele>
        <time>2025-09-09T13:56:35Z</time>
      </trkpt>
      <trkpt lat="45.86846" lon="4.40679">
        <ele>616.6</ele>
        <time>2025-09-09T13:56:36Z</time>
      </trkpt>
      <trkpt lat="45.86844" lon="4.40677">
        <ele>616.8</ele>
        <time>2025-09-09T13:56:37Z</time>
      </trkpt>
      <trkpt lat="45.86843" lon="4.40675">
        <ele>616.8</ele>
        <time>2025-09-09T13:56:38Z</time>
      </trkpt>
      <trkpt lat="45.86842" lon="4.40674">
        <ele>616.8</ele>
        <time>2025-09-09T13:56:39Z</time>
      </trkpt>
      <trkpt lat="45.86841" lon="4.40672">
        <ele>616.8</ele>
        <time>2025-09-09T13:56:40Z</time>
      </trkpt>
      <trkpt lat="45.8684" lon="4.40669">
        <ele>617</ele>
        <time>2025-09-09T13:56:41Z</time>
      </trkpt>
      <trkpt lat="45.8684" lon="4.40667">
        <ele>617</ele>
        <time>2025-09-09T13:56:42Z</time>
      </trkpt>
      <trkpt lat="45.86839" lon="4.40664">
        <ele>617</ele>
        <time>2025-09-09T13:56:43Z</time>
      </trkpt>
      <trkpt lat="45.86838" lon="4.40662">
        <ele>617</ele>
        <time>2025-09-09T13:56:44Z</time>
      </trkpt>
      <trkpt lat="45.86838" lon="4.40659">
        <ele>617.2</ele>
        <time>2025-09-09T13:56:45Z</time>
      </trkpt>
      <trkpt lat="45.86837" lon="4.40657">
        <ele>617.2</ele>
        <time>2025-09-09T13:56:46Z</time>
      </trkpt>
      <trkpt lat="45.86836" lon="4.40655">
        <ele>617.4</ele>
        <time>2025-09-09T13:56:47Z</time>
      </trkpt>
      <trkpt lat="45.86835" lon="4.40653">
        <ele>617.4</ele>
        <time>2025-09-09T13:56:48Z</time>
      </trkpt>
      <trkpt lat="45.86834" lon="4.40651">
        <ele>617.8</ele>
        <time>2025-09-09T13:56:49Z</time>
      </trkpt>
      <trkpt lat="45.86834" lon="4.40648">
        <ele>617.8</ele>
        <time>2025-09-09T13:56:50Z</time>
      </trkpt>
      <trkpt lat="45.86833" lon="4.40646">
        <ele>618.2</ele>
        <time>2025-09-09T13:56:51Z</time>
      </trkpt>
      <trkpt lat="45.86832" lon="4.40644">
        <ele>618.2</ele>
        <time>2025-09-09T13:56:52Z</time>
      </trkpt>
      <trkpt lat="45.86832" lon="4.40642">
        <ele>618.4</ele>
        <time>2025-09-09T13:56:53Z</time>
      </trkpt>
      <trkpt lat="45.86831" lon="4.4064">
        <ele>618.4</ele>
        <time>2025-09-09T13:56:54Z</time>
      </trkpt>
      <trkpt lat="45.86829" lon="4.40638">
        <ele>618.4</ele>
        <time>2025-09-09T13:56:55Z</time>
      </trkpt>
      <trkpt lat="45.86828" lon="4.40637">
        <ele>618.4</ele>
        <time>2025-09-09T13:56:56Z</time>
      </trkpt>
      <trkpt lat="45.86828" lon="4.40635">
        <ele>618.8</ele>
        <time>2025-09-09T13:56:57Z</time>
      </trkpt>
      <trkpt lat="45.86827" lon="4.40634">
        <ele>618.8</ele>
        <time>2025-09-09T13:56:58Z</time>
      </trkpt>
      <trkpt lat="45.86827" lon="4.40632">
        <ele>619</ele>
        <time>2025-09-09T13:56:59Z</time>
      </trkpt>
      <trkpt lat="45.86827" lon="4.40631">
        <ele>619</ele>
        <time>2025-09-09T13:57:00Z</time>
      </trkpt>
      <trkpt lat="45.86826" lon="4.4063">
        <ele>619</ele>
        <time>2025-09-09T13:57:01Z</time>
      </trkpt>
      <trkpt lat="45.86827" lon="4.40629">
        <ele>619.4</ele>
        <time>2025-09-09T13:57:02Z</time>
      </trkpt>
      <trkpt lat="45.86826" lon="4.40627">
        <ele>619.8</ele>
        <time>2025-09-09T13:57:03Z</time>
      </trkpt>
      <trkpt lat="45.86826" lon="4.40625">
        <ele>619.8</ele>
        <time>2025-09-09T13:57:04Z</time>
      </trkpt>
      <trkpt lat="45.86826" lon="4.40624">
        <ele>620</ele>
        <time>2025-09-09T13:57:05Z</time>
      </trkpt>
      <trkpt lat="45.86825" lon="4.40622">
        <ele>620</ele>
        <time>2025-09-09T13:57:06Z</time>
      </trkpt>
      <trkpt lat="45.86824" lon="4.40621">
        <ele>620.4</ele>
        <time>2025-09-09T13:57:07Z</time>
      </trkpt>
      <trkpt lat="45.86823" lon="4.40621">
        <ele>620.6</ele>
        <time>2025-09-09T13:57:08Z</time>
      </trkpt>
      <trkpt lat="45.86823" lon="4.40619">
        <ele>620.6</ele>
        <time>2025-09-09T13:57:09Z</time>
      </trkpt>
      <trkpt lat="45.86822" lon="4.40618">
        <ele>620.8</ele>
        <time>2025-09-09T13:57:10Z</time>
      </trkpt>
      <trkpt lat="45.86821" lon="4.40616">
        <ele>620.8</ele>
        <time>2025-09-09T13:57:11Z</time>
      </trkpt>
      <trkpt lat="45.86821" lon="4.40615">
        <ele>621.2</ele>
        <time>2025-09-09T13:57:12Z</time>
      </trkpt>
      <trkpt lat="45.86821" lon="4.40613">
        <ele>621.4</ele>
        <time>2025-09-09T13:57:13Z</time>
      </trkpt>
      <trkpt lat="45.8682" lon="4.40611">
        <ele>621.4</ele>
        <time>2025-09-09T13:57:14Z</time>
      </trkpt>
      <trkpt lat="45.86819" lon="4.4061">
        <ele>621.6</ele>
        <time>2025-09-09T13:57:15Z</time>
      </trkpt>
      <trkpt lat="45.86818" lon="4.40609">
        <ele>621.6</ele>
        <time>2025-09-09T13:57:16Z</time>
      </trkpt>
      <trkpt lat="45.86817" lon="4.40607">
        <ele>621.6</ele>
        <time>2025-09-09T13:57:17Z</time>
      </trkpt>
      <trkpt lat="45.86817" lon="4.40606">
        <ele>622.2</ele>
        <time>2025-09-09T13:57:18Z</time>
      </trkpt>
      <trkpt lat="45.86817" lon="4.40605">
        <ele>622.4</ele>
        <time>2025-09-09T13:57:19Z</time>
      </trkpt>
      <trkpt lat="45.86816" lon="4.40603">
        <ele>622.6</ele>
        <time>2025-09-09T13:57:20Z</time>
      </trkpt>
      <trkpt lat="45.86816" lon="4.40602">
        <ele>622.6</ele>
        <time>2025-09-09T13:57:21Z</time>
      </trkpt>
      <trkpt lat="45.86816" lon="4.406">
        <ele>623</ele>
        <time>2025-09-09T13:57:22Z</time>
      </trkpt>
      <trkpt lat="45.86816" lon="4.40599">
        <ele>623</ele>
        <time>2025-09-09T13:57:23Z</time>
      </trkpt>
      <trkpt lat="45.86817" lon="4.40597">
        <ele>623.4</ele>
        <time>2025-09-09T13:57:24Z</time>
      </trkpt>
      <trkpt lat="45.86817" lon="4.40596">
        <ele>623.4</ele>
        <time>2025-09-09T13:57:25Z</time>
      </trkpt>
      <trkpt lat="45.86817" lon="4.40594">
        <ele>623.6</ele>
        <time>2025-09-09T13:57:26Z</time>
      </trkpt>
      <trkpt lat="45.86817" lon="4.40593">
        <ele>623.8</ele>
        <time>2025-09-09T13:57:27Z</time>
      </trkpt>
      <trkpt lat="45.86817" lon="4.40591">
        <ele>623.8</ele>
        <time>2025-09-09T13:57:28Z</time>
      </trkpt>
      <trkpt lat="45.86817" lon="4.40589">
        <ele>624</ele>
        <time>2025-09-09T13:57:29Z</time>
      </trkpt>
      <trkpt lat="45.86817" lon="4.40588">
        <ele>624</ele>
        <time>2025-09-09T13:57:30Z</time>
      </trkpt>
      <trkpt lat="45.86817" lon="4.40586">
        <ele>624</ele>
        <time>2025-09-09T13:57:31Z</time>
      </trkpt>
      <trkpt lat="45.86817" lon="4.40585">
        <ele>624.4</ele>
        <time>2025-09-09T13:57:32Z</time>
      </trkpt>
      <trkpt lat="45.86818" lon="4.40583">
        <ele>624.4</ele>
        <time>2025-09-09T13:57:33Z</time>
      </trkpt>
      <trkpt lat="45.86818" lon="4.40582">
        <ele>624.8</ele>
        <time>2025-09-09T13:57:34Z</time>
      </trkpt>
      <trkpt lat="45.86818" lon="4.4058">
        <ele>624.8</ele>
        <time>2025-09-09T13:57:35Z</time>
      </trkpt>
      <trkpt lat="45.86818" lon="4.40579">
        <ele>624.8</ele>
        <time>2025-09-09T13:57:36Z</time>
      </trkpt>
      <trkpt lat="45.86818" lon="4.40578">
        <ele>624.8</ele>
        <time>2025-09-09T13:57:37Z</time>
      </trkpt>
      <trkpt lat="45.86818" lon="4.40576">
        <ele>625</ele>
        <time>2025-09-09T13:57:38Z</time>
      </trkpt>
      <trkpt lat="45.86818" lon="4.40574">
        <ele>625</ele>
        <time>2025-09-09T13:57:39Z</time>
      </trkpt>
      <trkpt lat="45.86818" lon="4.40572">
        <ele>625.2</ele>
        <time>2025-09-09T13:57:40Z</time>
      </trkpt>
      <trkpt lat="45.86818" lon="4.40571">
        <ele>625.2</ele>
        <time>2025-09-09T13:57:41Z</time>
      </trkpt>
      <trkpt lat="45.86818" lon="4.4057">
        <ele>625.2</ele>
        <time>2025-09-09T13:57:42Z</time>
      </trkpt>
      <trkpt lat="45.86817" lon="4.40569">
        <ele>625.6</ele>
        <time>2025-09-09T13:57:43Z</time>
      </trkpt>
      <trkpt lat="45.86815" lon="4.40567">
        <ele>625.8</ele>
        <time>2025-09-09T13:57:44Z</time>
      </trkpt>
      <trkpt lat="45.86815" lon="4.40567">
        <ele>625.8</ele>
        <time>2025-09-09T13:57:45Z</time>
      </trkpt>
      <trkpt lat="45.86814" lon="4.40567">
        <ele>625.8</ele>
        <time>2025-09-09T13:57:46Z</time>
      </trkpt>
      <trkpt lat="45.86813" lon="4.40567">
        <ele>625.8</ele>
        <time>2025-09-09T13:57:47Z</time>
      </trkpt>
      <trkpt lat="45.86812" lon="4.40565">
        <ele>625.8</ele>
        <time>2025-09-09T13:57:48Z</time>
      </trkpt>
      <trkpt lat="45.86811" lon="4.40563">
        <ele>625.8</ele>
        <time>2025-09-09T13:57:49Z</time>
      </trkpt>
      <trkpt lat="45.86811" lon="4.40561">
        <ele>625.8</ele>
        <time>2025-09-09T13:57:50Z</time>
      </trkpt>
      <trkpt lat="45.86811" lon="4.40559">
        <ele>626</ele>
        <time>2025-09-09T13:57:51Z</time>
      </trkpt>
      <trkpt lat="45.8681" lon="4.40557">
        <ele>626</ele>
        <time>2025-09-09T13:57:52Z</time>
      </trkpt>
      <trkpt lat="45.8681" lon="4.40557">
        <ele>626</ele>
        <time>2025-09-09T13:57:53Z</time>
      </trkpt>
      <trkpt lat="45.86811" lon="4.40555">
        <ele>626.2</ele>
        <time>2025-09-09T13:57:54Z</time>
      </trkpt>
      <trkpt lat="45.86811" lon="4.40552">
        <ele>626.6</ele>
        <time>2025-09-09T13:57:55Z</time>
      </trkpt>
      <trkpt lat="45.86811" lon="4.40551">
        <ele>626.8</ele>
        <time>2025-09-09T13:57:56Z</time>
      </trkpt>
      <trkpt lat="45.86811" lon="4.40549">
        <ele>626.8</ele>
        <time>2025-09-09T13:57:57Z</time>
      </trkpt>
      <trkpt lat="45.8681" lon="4.40545">
        <ele>627.2</ele>
        <time>2025-09-09T13:57:58Z</time>
      </trkpt>
      <trkpt lat="45.8681" lon="4.40543">
        <ele>627.2</ele>
        <time>2025-09-09T13:57:59Z</time>
      </trkpt>
      <trkpt lat="45.8681" lon="4.40542">
        <ele>627.2</ele>
        <time>2025-09-09T13:58:00Z</time>
      </trkpt>
      <trkpt lat="45.8681" lon="4.40541">
        <ele>627.6</ele>
        <time>2025-09-09T13:58:01Z</time>
      </trkpt>
      <trkpt lat="45.8681" lon="4.40539">
        <ele>627.6</ele>
        <time>2025-09-09T13:58:02Z</time>
      </trkpt>
      <trkpt lat="45.86809" lon="4.40536">
        <ele>627.8</ele>
        <time>2025-09-09T13:58:03Z</time>
      </trkpt>
      <trkpt lat="45.86809" lon="4.40534">
        <ele>627.8</ele>
        <time>2025-09-09T13:58:04Z</time>
      </trkpt>
      <trkpt lat="45.86808" lon="4.40532">
        <ele>628</ele>
        <time>2025-09-09T13:58:05Z</time>
      </trkpt>
      <trkpt lat="45.86809" lon="4.4053">
        <ele>628</ele>
        <time>2025-09-09T13:58:06Z</time>
      </trkpt>
      <trkpt lat="45.86808" lon="4.40529">
        <ele>628.2</ele>
        <time>2025-09-09T13:58:07Z</time>
      </trkpt>
      <trkpt lat="45.86808" lon="4.40527">
        <ele>628.2</ele>
        <time>2025-09-09T13:58:08Z</time>
      </trkpt>
      <trkpt lat="45.86807" lon="4.40525">
        <ele>628.2</ele>
        <time>2025-09-09T13:58:09Z</time>
      </trkpt>
      <trkpt lat="45.86807" lon="4.40523">
        <ele>628.2</ele>
        <time>2025-09-09T13:58:10Z</time>
      </trkpt>
      <trkpt lat="45.86807" lon="4.40521">
        <ele>628.2</ele>
        <time>2025-09-09T13:58:11Z</time>
      </trkpt>
      <trkpt lat="45.86806" lon="4.40518">
        <ele>628.6</ele>
        <time>2025-09-09T13:58:12Z</time>
      </trkpt>
      <trkpt lat="45.86806" lon="4.40516">
        <ele>628.6</ele>
        <time>2025-09-09T13:58:13Z</time>
      </trkpt>
      <trkpt lat="45.86805" lon="4.40514">
        <ele>628.6</ele>
        <time>2025-09-09T13:58:14Z</time>
      </trkpt>
      <trkpt lat="45.86804" lon="4.40512">
        <ele>628.8</ele>
        <time>2025-09-09T13:58:15Z</time>
      </trkpt>
      <trkpt lat="45.86802" lon="4.4051">
        <ele>628.8</ele>
        <time>2025-09-09T13:58:16Z</time>
      </trkpt>
      <trkpt lat="45.86801" lon="4.40508">
        <ele>628.8</ele>
        <time>2025-09-09T13:58:17Z</time>
      </trkpt>
      <trkpt lat="45.86799" lon="4.40507">
        <ele>628.8</ele>
        <time>2025-09-09T13:58:18Z</time>
      </trkpt>
      <trkpt lat="45.86798" lon="4.40505">
        <ele>628.8</ele>
        <time>2025-09-09T13:58:19Z</time>
      </trkpt>
      <trkpt lat="45.86796" lon="4.40503">
        <ele>629.2</ele>
        <time>2025-09-09T13:58:20Z</time>
      </trkpt>
      <trkpt lat="45.86795" lon="4.40502">
        <ele>629.2</ele>
        <time>2025-09-09T13:58:21Z</time>
      </trkpt>
      <trkpt lat="45.86793" lon="4.40501">
        <ele>629.2</ele>
        <time>2025-09-09T13:58:22Z</time>
      </trkpt>
      <trkpt lat="45.86792" lon="4.40499">
        <ele>629.2</ele>
        <time>2025-09-09T13:58:23Z</time>
      </trkpt>
      <trkpt lat="45.8679" lon="4.40498">
        <ele>629.4</ele>
        <time>2025-09-09T13:58:24Z</time>
      </trkpt>
      <trkpt lat="45.86788" lon="4.40497">
        <ele>629.4</ele>
        <time>2025-09-09T13:58:25Z</time>
      </trkpt>
      <trkpt lat="45.86786" lon="4.40495">
        <ele>629.4</ele>
        <time>2025-09-09T13:58:26Z</time>
      </trkpt>
      <trkpt lat="45.86785" lon="4.40494">
        <ele>629.4</ele>
        <time>2025-09-09T13:58:27Z</time>
      </trkpt>
      <trkpt lat="45.86783" lon="4.40493">
        <ele>629.6</ele>
        <time>2025-09-09T13:58:28Z</time>
      </trkpt>
      <trkpt lat="45.86781" lon="4.40493">
        <ele>629.6</ele>
        <time>2025-09-09T13:58:29Z</time>
      </trkpt>
      <trkpt lat="45.86779" lon="4.40492">
        <ele>629.6</ele>
        <time>2025-09-09T13:58:30Z</time>
      </trkpt>
      <trkpt lat="45.86777" lon="4.40492">
        <ele>629.6</ele>
        <time>2025-09-09T13:58:31Z</time>
      </trkpt>
      <trkpt lat="45.86776" lon="4.40491">
        <ele>630</ele>
        <time>2025-09-09T13:58:32Z</time>
      </trkpt>
      <trkpt lat="45.86774" lon="4.4049">
        <ele>630</ele>
        <time>2025-09-09T13:58:33Z</time>
      </trkpt>
      <trkpt lat="45.86772" lon="4.40489">
        <ele>630</ele>
        <time>2025-09-09T13:58:34Z</time>
      </trkpt>
      <trkpt lat="45.8677" lon="4.40489">
        <ele>630.2</ele>
        <time>2025-09-09T13:58:35Z</time>
      </trkpt>
      <trkpt lat="45.86768" lon="4.40489">
        <ele>630.2</ele>
        <time>2025-09-09T13:58:36Z</time>
      </trkpt>
      <trkpt lat="45.86766" lon="4.40488">
        <ele>630</ele>
        <time>2025-09-09T13:58:37Z</time>
      </trkpt>
      <trkpt lat="45.86764" lon="4.40488">
        <ele>630</ele>
        <time>2025-09-09T13:58:38Z</time>
      </trkpt>
      <trkpt lat="45.86761" lon="4.40488">
        <ele>629.8</ele>
        <time>2025-09-09T13:58:39Z</time>
      </trkpt>
      <trkpt lat="45.86758" lon="4.40489">
        <ele>630.2</ele>
        <time>2025-09-09T13:58:40Z</time>
      </trkpt>
      <trkpt lat="45.86755" lon="4.40489">
        <ele>630.2</ele>
        <time>2025-09-09T13:58:41Z</time>
      </trkpt>
      <trkpt lat="45.86752" lon="4.40489">
        <ele>630.2</ele>
        <time>2025-09-09T13:58:42Z</time>
      </trkpt>
      <trkpt lat="45.8675" lon="4.40488">
        <ele>629.8</ele>
        <time>2025-09-09T13:58:43Z</time>
      </trkpt>
      <trkpt lat="45.86748" lon="4.40487">
        <ele>629.8</ele>
        <time>2025-09-09T13:58:44Z</time>
      </trkpt>
      <trkpt lat="45.86746" lon="4.40486">
        <ele>629.4</ele>
        <time>2025-09-09T13:58:45Z</time>
      </trkpt>
      <trkpt lat="45.86745" lon="4.40485">
        <ele>629.4</ele>
        <time>2025-09-09T13:58:46Z</time>
      </trkpt>
      <trkpt lat="45.86743" lon="4.40484">
        <ele>629.2</ele>
        <time>2025-09-09T13:58:47Z</time>
      </trkpt>
      <trkpt lat="45.86741" lon="4.40484">
        <ele>629</ele>
        <time>2025-09-09T13:58:48Z</time>
      </trkpt>
      <trkpt lat="45.86739" lon="4.40485">
        <ele>629</ele>
        <time>2025-09-09T13:58:49Z</time>
      </trkpt>
      <trkpt lat="45.86737" lon="4.40487">
        <ele>629</ele>
        <time>2025-09-09T13:58:50Z</time>
      </trkpt>
      <trkpt lat="45.86735" lon="4.40489">
        <ele>629</ele>
        <time>2025-09-09T13:58:51Z</time>
      </trkpt>
      <trkpt lat="45.86735" lon="4.40489">
        <ele>628.8</ele>
        <time>2025-09-09T13:58:52Z</time>
      </trkpt>
      <trkpt lat="45.86733" lon="4.4049">
        <ele>628.8</ele>
        <time>2025-09-09T13:58:53Z</time>
      </trkpt>
      <trkpt lat="45.86731" lon="4.40491">
        <ele>629</ele>
        <time>2025-09-09T13:58:54Z</time>
      </trkpt>
      <trkpt lat="45.8673" lon="4.40491">
        <ele>628.6</ele>
        <time>2025-09-09T13:58:55Z</time>
      </trkpt>
      <trkpt lat="45.86728" lon="4.40492">
        <ele>628.6</ele>
        <time>2025-09-09T13:58:56Z</time>
      </trkpt>
      <trkpt lat="45.86726" lon="4.40493">
        <ele>628.6</ele>
        <time>2025-09-09T13:58:57Z</time>
      </trkpt>
      <trkpt lat="45.86724" lon="4.40494">
        <ele>628.6</ele>
        <time>2025-09-09T13:58:58Z</time>
      </trkpt>
      <trkpt lat="45.86721" lon="4.40495">
        <ele>629</ele>
        <time>2025-09-09T13:58:59Z</time>
      </trkpt>
      <trkpt lat="45.86719" lon="4.40495">
        <ele>629</ele>
        <time>2025-09-09T13:59:00Z</time>
      </trkpt>
      <trkpt lat="45.86717" lon="4.40495">
        <ele>629</ele>
        <time>2025-09-09T13:59:01Z</time>
      </trkpt>
      <trkpt lat="45.86715" lon="4.40495">
        <ele>629</ele>
        <time>2025-09-09T13:59:02Z</time>
      </trkpt>
      <trkpt lat="45.86712" lon="4.40496">
        <ele>629</ele>
        <time>2025-09-09T13:59:03Z</time>
      </trkpt>
      <trkpt lat="45.86708" lon="4.40497">
        <ele>629</ele>
        <time>2025-09-09T13:59:04Z</time>
      </trkpt>
      <trkpt lat="45.86705" lon="4.40498">
        <ele>628.8</ele>
        <time>2025-09-09T13:59:05Z</time>
      </trkpt>
      <trkpt lat="45.86701" lon="4.405">
        <ele>628.8</ele>
        <time>2025-09-09T13:59:06Z</time>
      </trkpt>
      <trkpt lat="45.86697" lon="4.40501">
        <ele>628.6</ele>
        <time>2025-09-09T13:59:07Z</time>
      </trkpt>
      <trkpt lat="45.86694" lon="4.40501">
        <ele>628.6</ele>
        <time>2025-09-09T13:59:08Z</time>
      </trkpt>
      <trkpt lat="45.86691" lon="4.40502">
        <ele>628.2</ele>
        <time>2025-09-09T13:59:09Z</time>
      </trkpt>
      <trkpt lat="45.86687" lon="4.40502">
        <ele>628.2</ele>
        <time>2025-09-09T13:59:10Z</time>
      </trkpt>
      <trkpt lat="45.86683" lon="4.40504">
        <ele>628.2</ele>
        <time>2025-09-09T13:59:11Z</time>
      </trkpt>
      <trkpt lat="45.86679" lon="4.40505">
        <ele>628.2</ele>
        <time>2025-09-09T13:59:12Z</time>
      </trkpt>
      <trkpt lat="45.86675" lon="4.40506">
        <ele>628</ele>
        <time>2025-09-09T13:59:13Z</time>
      </trkpt>
      <trkpt lat="45.86669" lon="4.40511">
        <ele>628</ele>
        <time>2025-09-09T13:59:14Z</time>
      </trkpt>
      <trkpt lat="45.86664" lon="4.40512">
        <ele>628</ele>
        <time>2025-09-09T13:59:15Z</time>
      </trkpt>
      <trkpt lat="45.86661" lon="4.40512">
        <ele>628</ele>
        <time>2025-09-09T13:59:16Z</time>
      </trkpt>
      <trkpt lat="45.86658" lon="4.40513">
        <ele>627.8</ele>
        <time>2025-09-09T13:59:17Z</time>
      </trkpt>
      <trkpt lat="45.86655" lon="4.40514">
        <ele>627.8</ele>
        <time>2025-09-09T13:59:18Z</time>
      </trkpt>
      <trkpt lat="45.86652" lon="4.40515">
        <ele>627.8</ele>
        <time>2025-09-09T13:59:19Z</time>
      </trkpt>
      <trkpt lat="45.86649" lon="4.40515">
        <ele>628</ele>
        <time>2025-09-09T13:59:20Z</time>
      </trkpt>
      <trkpt lat="45.86645" lon="4.40517">
        <ele>628</ele>
        <time>2025-09-09T13:59:21Z</time>
      </trkpt>
      <trkpt lat="45.86641" lon="4.40519">
        <ele>628</ele>
        <time>2025-09-09T13:59:22Z</time>
      </trkpt>
      <trkpt lat="45.86638" lon="4.4052">
        <ele>628</ele>
        <time>2025-09-09T13:59:23Z</time>
      </trkpt>
      <trkpt lat="45.86635" lon="4.40521">
        <ele>628</ele>
        <time>2025-09-09T13:59:24Z</time>
      </trkpt>
      <trkpt lat="45.86631" lon="4.40523">
        <ele>628</ele>
        <time>2025-09-09T13:59:25Z</time>
      </trkpt>
      <trkpt lat="45.86628" lon="4.40525">
        <ele>627.6</ele>
        <time>2025-09-09T13:59:26Z</time>
      </trkpt>
      <trkpt lat="45.86625" lon="4.40526">
        <ele>627.6</ele>
        <time>2025-09-09T13:59:27Z</time>
      </trkpt>
      <trkpt lat="45.86621" lon="4.40527">
        <ele>628.2</ele>
        <time>2025-09-09T13:59:28Z</time>
      </trkpt>
      <trkpt lat="45.86617" lon="4.40528">
        <ele>628.2</ele>
        <time>2025-09-09T13:59:29Z</time>
      </trkpt>
      <trkpt lat="45.86614" lon="4.4053">
        <ele>628.2</ele>
        <time>2025-09-09T13:59:30Z</time>
      </trkpt>
      <trkpt lat="45.86611" lon="4.40531">
        <ele>628.2</ele>
        <time>2025-09-09T13:59:31Z</time>
      </trkpt>
      <trkpt lat="45.86609" lon="4.40532">
        <ele>628.2</ele>
        <time>2025-09-09T13:59:32Z</time>
      </trkpt>
      <trkpt lat="45.86607" lon="4.40533">
        <ele>628.6</ele>
        <time>2025-09-09T13:59:33Z</time>
      </trkpt>
      <trkpt lat="45.86604" lon="4.40535">
        <ele>628.8</ele>
        <time>2025-09-09T13:59:34Z</time>
      </trkpt>
      <trkpt lat="45.86602" lon="4.40536">
        <ele>628.8</ele>
        <time>2025-09-09T13:59:35Z</time>
      </trkpt>
      <trkpt lat="45.86599" lon="4.40537">
        <ele>629.2</ele>
        <time>2025-09-09T13:59:36Z</time>
      </trkpt>
      <trkpt lat="45.86597" lon="4.40538">
        <ele>629.2</ele>
        <time>2025-09-09T13:59:37Z</time>
      </trkpt>
      <trkpt lat="45.86596" lon="4.40538">
        <ele>629.6</ele>
        <time>2025-09-09T13:59:38Z</time>
      </trkpt>
      <trkpt lat="45.86594" lon="4.40537">
        <ele>629.6</ele>
        <time>2025-09-09T13:59:39Z</time>
      </trkpt>
      <trkpt lat="45.86592" lon="4.40536">
        <ele>629.6</ele>
        <time>2025-09-09T13:59:40Z</time>
      </trkpt>
      <trkpt lat="45.8659" lon="4.40536">
        <ele>629.6</ele>
        <time>2025-09-09T13:59:41Z</time>
      </trkpt>
      <trkpt lat="45.86588" lon="4.40536">
        <ele>630</ele>
        <time>2025-09-09T13:59:42Z</time>
      </trkpt>
      <trkpt lat="45.86586" lon="4.40536">
        <ele>630.4</ele>
        <time>2025-09-09T13:59:43Z</time>
      </trkpt>
      <trkpt lat="45.86585" lon="4.40536">
        <ele>630.4</ele>
        <time>2025-09-09T13:59:44Z</time>
      </trkpt>
      <trkpt lat="45.86584" lon="4.40536">
        <ele>630.8</ele>
        <time>2025-09-09T13:59:45Z</time>
      </trkpt>
      <trkpt lat="45.86582" lon="4.40536">
        <ele>630.8</ele>
        <time>2025-09-09T13:59:46Z</time>
      </trkpt>
      <trkpt lat="45.86581" lon="4.40537">
        <ele>630.8</ele>
        <time>2025-09-09T13:59:47Z</time>
      </trkpt>
      <trkpt lat="45.86579" lon="4.40537">
        <ele>631</ele>
        <time>2025-09-09T13:59:48Z</time>
      </trkpt>
      <trkpt lat="45.86577" lon="4.40538">
        <ele>631.2</ele>
        <time>2025-09-09T13:59:49Z</time>
      </trkpt>
      <trkpt lat="45.86576" lon="4.40539">
        <ele>631.2</ele>
        <time>2025-09-09T13:59:50Z</time>
      </trkpt>
      <trkpt lat="45.86574" lon="4.40539">
        <ele>631.4</ele>
        <time>2025-09-09T13:59:51Z</time>
      </trkpt>
      <trkpt lat="45.86573" lon="4.4054">
        <ele>631.8</ele>
        <time>2025-09-09T13:59:52Z</time>
      </trkpt>
      <trkpt lat="45.86572" lon="4.40541">
        <ele>632</ele>
        <time>2025-09-09T13:59:53Z</time>
      </trkpt>
      <trkpt lat="45.8657" lon="4.40541">
        <ele>632</ele>
        <time>2025-09-09T13:59:54Z</time>
      </trkpt>
      <trkpt lat="45.86567" lon="4.40541">
        <ele>632</ele>
        <time>2025-09-09T13:59:55Z</time>
      </trkpt>
      <trkpt lat="45.86565" lon="4.4054">
        <ele>632</ele>
        <time>2025-09-09T13:59:56Z</time>
      </trkpt>
      <trkpt lat="45.86563" lon="4.4054">
        <ele>632.6</ele>
        <time>2025-09-09T13:59:57Z</time>
      </trkpt>
      <trkpt lat="45.86561" lon="4.4054">
        <ele>632.8</ele>
        <time>2025-09-09T13:59:58Z</time>
      </trkpt>
      <trkpt lat="45.86558" lon="4.4054">
        <ele>633.2</ele>
        <time>2025-09-09T13:59:59Z</time>
      </trkpt>
      <trkpt lat="45.86557" lon="4.4054">
        <ele>633.2</ele>
        <time>2025-09-09T14:00:00Z</time>
      </trkpt>
      <trkpt lat="45.86555" lon="4.4054">
        <ele>633.8</ele>
        <time>2025-09-09T14:00:01Z</time>
      </trkpt>
      <trkpt lat="45.86553" lon="4.4054">
        <ele>634</ele>
        <time>2025-09-09T14:00:02Z</time>
      </trkpt>
      <trkpt lat="45.86551" lon="4.4054">
        <ele>634.2</ele>
        <time>2025-09-09T14:00:03Z</time>
      </trkpt>
      <trkpt lat="45.86549" lon="4.4054">
        <ele>634.2</ele>
        <time>2025-09-09T14:00:04Z</time>
      </trkpt>
      <trkpt lat="45.86548" lon="4.4054">
        <ele>634.2</ele>
        <time>2025-09-09T14:00:05Z</time>
      </trkpt>
      <trkpt lat="45.86546" lon="4.40541">
        <ele>634.2</ele>
        <time>2025-09-09T14:00:06Z</time>
      </trkpt>
      <trkpt lat="45.86544" lon="4.40541">
        <ele>634.6</ele>
        <time>2025-09-09T14:00:07Z</time>
      </trkpt>
      <trkpt lat="45.86543" lon="4.4054">
        <ele>634.6</ele>
        <time>2025-09-09T14:00:08Z</time>
      </trkpt>
      <trkpt lat="45.86541" lon="4.40539">
        <ele>634.6</ele>
        <time>2025-09-09T14:00:09Z</time>
      </trkpt>
      <trkpt lat="45.86539" lon="4.40539">
        <ele>634.6</ele>
        <time>2025-09-09T14:00:10Z</time>
      </trkpt>
      <trkpt lat="45.86535" lon="4.40538">
        <ele>633.8</ele>
        <time>2025-09-09T14:00:11Z</time>
      </trkpt>
      <trkpt lat="45.86533" lon="4.40537">
        <ele>633.8</ele>
        <time>2025-09-09T14:00:12Z</time>
      </trkpt>
      <trkpt lat="45.86531" lon="4.40536">
        <ele>633.8</ele>
        <time>2025-09-09T14:00:13Z</time>
      </trkpt>
      <trkpt lat="45.8653" lon="4.40534">
        <ele>633.2</ele>
        <time>2025-09-09T14:00:14Z</time>
      </trkpt>
      <trkpt lat="45.86528" lon="4.40532">
        <ele>633.2</ele>
        <time>2025-09-09T14:00:15Z</time>
      </trkpt>
      <trkpt lat="45.86526" lon="4.4053">
        <ele>633.2</ele>
        <time>2025-09-09T14:00:16Z</time>
      </trkpt>
      <trkpt lat="45.86523" lon="4.40529">
        <ele>632.8</ele>
        <time>2025-09-09T14:00:17Z</time>
      </trkpt>
      <trkpt lat="45.8652" lon="4.4053">
        <ele>632.4</ele>
        <time>2025-09-09T14:00:18Z</time>
      </trkpt>
      <trkpt lat="45.86517" lon="4.40531">
        <ele>632</ele>
        <time>2025-09-09T14:00:19Z</time>
      </trkpt>
      <trkpt lat="45.86514" lon="4.40531">
        <ele>631.6</ele>
        <time>2025-09-09T14:00:20Z</time>
      </trkpt>
      <trkpt lat="45.86513" lon="4.40532">
        <ele>631.2</ele>
        <time>2025-09-09T14:00:21Z</time>
      </trkpt>
      <trkpt lat="45.86507" lon="4.40535">
        <ele>630.6</ele>
        <time>2025-09-09T14:00:22Z</time>
      </trkpt>
      <trkpt lat="45.86505" lon="4.40536">
        <ele>630.2</ele>
        <time>2025-09-09T14:00:23Z</time>
      </trkpt>
      <trkpt lat="45.86501" lon="4.40536">
        <ele>629.2</ele>
        <time>2025-09-09T14:00:24Z</time>
      </trkpt>
      <trkpt lat="45.86498" lon="4.40534">
        <ele>628.8</ele>
        <time>2025-09-09T14:00:25Z</time>
      </trkpt>
      <trkpt lat="45.86494" lon="4.40537">
        <ele>628.6</ele>
        <time>2025-09-09T14:00:26Z</time>
      </trkpt>
      <trkpt lat="45.86486" lon="4.40535">
        <ele>628</ele>
        <time>2025-09-09T14:00:27Z</time>
      </trkpt>
      <trkpt lat="45.86483" lon="4.40535">
        <ele>627.2</ele>
        <time>2025-09-09T14:00:28Z</time>
      </trkpt>
      <trkpt lat="45.86477" lon="4.40535">
        <ele>627</ele>
        <time>2025-09-09T14:00:29Z</time>
      </trkpt>
      <trkpt lat="45.86474" lon="4.40533">
        <ele>626.6</ele>
        <time>2025-09-09T14:00:30Z</time>
      </trkpt>
      <trkpt lat="45.86471" lon="4.40535">
        <ele>625.8</ele>
        <time>2025-09-09T14:00:31Z</time>
      </trkpt>
      <trkpt lat="45.86471" lon="4.40536">
        <ele>625.6</ele>
        <time>2025-09-09T14:00:32Z</time>
      </trkpt>
      <trkpt lat="45.86469" lon="4.40535">
        <ele>625.2</ele>
        <time>2025-09-09T14:00:33Z</time>
      </trkpt>
      <trkpt lat="45.86464" lon="4.40534">
        <ele>624.8</ele>
        <time>2025-09-09T14:00:34Z</time>
      </trkpt>
      <trkpt lat="45.86462" lon="4.40533">
        <ele>624.6</ele>
        <time>2025-09-09T14:00:35Z</time>
      </trkpt>
      <trkpt lat="45.86459" lon="4.40533">
        <ele>624.4</ele>
        <time>2025-09-09T14:00:36Z</time>
      </trkpt>
      <trkpt lat="45.86454" lon="4.40532">
        <ele>623.8</ele>
        <time>2025-09-09T14:00:37Z</time>
      </trkpt>
      <trkpt lat="45.86451" lon="4.40532">
        <ele>623.6</ele>
        <time>2025-09-09T14:00:38Z</time>
      </trkpt>
      <trkpt lat="45.86449" lon="4.40533">
        <ele>623.2</ele>
        <time>2025-09-09T14:00:39Z</time>
      </trkpt>
      <trkpt lat="45.86446" lon="4.40534">
        <ele>622.8</ele>
        <time>2025-09-09T14:00:40Z</time>
      </trkpt>
      <trkpt lat="45.86445" lon="4.40534">
        <ele>622.4</ele>
        <time>2025-09-09T14:00:41Z</time>
      </trkpt>
      <trkpt lat="45.86444" lon="4.40535">
        <ele>622.2</ele>
        <time>2025-09-09T14:00:42Z</time>
      </trkpt>
      <trkpt lat="45.86444" lon="4.40535">
        <ele>621.8</ele>
        <time>2025-09-09T14:00:43Z</time>
      </trkpt>
      <trkpt lat="45.86443" lon="4.40535">
        <ele>620.4</ele>
        <time>2025-09-09T14:01:22Z</time>
      </trkpt>
      <trkpt lat="45.86441" lon="4.40535">
        <ele>620.4</ele>
        <time>2025-09-09T14:01:23Z</time>
      </trkpt>
      <trkpt lat="45.86439" lon="4.40535">
        <ele>620</ele>
        <time>2025-09-09T14:01:24Z</time>
      </trkpt>
      <trkpt lat="45.86437" lon="4.40535">
        <ele>620</ele>
        <time>2025-09-09T14:01:25Z</time>
      </trkpt>
      <trkpt lat="45.86436" lon="4.40536">
        <ele>620</ele>
        <time>2025-09-09T14:01:26Z</time>
      </trkpt>
      <trkpt lat="45.86433" lon="4.40536">
        <ele>619.4</ele>
        <time>2025-09-09T14:01:27Z</time>
      </trkpt>
      <trkpt lat="45.86431" lon="4.40536">
        <ele>619.4</ele>
        <time>2025-09-09T14:01:28Z</time>
      </trkpt>
      <trkpt lat="45.86428" lon="4.40537">
        <ele>618.8</ele>
        <time>2025-09-09T14:01:29Z</time>
      </trkpt>
      <trkpt lat="45.86422" lon="4.40536">
        <ele>618.4</ele>
        <time>2025-09-09T14:01:30Z</time>
      </trkpt>
      <trkpt lat="45.86416" lon="4.40534">
        <ele>618.4</ele>
        <time>2025-09-09T14:01:31Z</time>
      </trkpt>
      <trkpt lat="45.86412" lon="4.40534">
        <ele>617.6</ele>
        <time>2025-09-09T14:01:32Z</time>
      </trkpt>
      <trkpt lat="45.86408" lon="4.40536">
        <ele>616.6</ele>
        <time>2025-09-09T14:01:33Z</time>
      </trkpt>
      <trkpt lat="45.86401" lon="4.40532">
        <ele>616</ele>
        <time>2025-09-09T14:01:34Z</time>
      </trkpt>
      <trkpt lat="45.86397" lon="4.40531">
        <ele>615</ele>
        <time>2025-09-09T14:01:35Z</time>
      </trkpt>
      <trkpt lat="45.8639" lon="4.40534">
        <ele>614.6</ele>
        <time>2025-09-09T14:01:36Z</time>
      </trkpt>
      <trkpt lat="45.86385" lon="4.40533">
        <ele>613.8</ele>
        <time>2025-09-09T14:01:37Z</time>
      </trkpt>
      <trkpt lat="45.86382" lon="4.40534">
        <ele>613.2</ele>
        <time>2025-09-09T14:01:38Z</time>
      </trkpt>
      <trkpt lat="45.86378" lon="4.40533">
        <ele>612.6</ele>
        <time>2025-09-09T14:01:39Z</time>
      </trkpt>
      <trkpt lat="45.86378" lon="4.40534">
        <ele>612.2</ele>
        <time>2025-09-09T14:01:40Z</time>
      </trkpt>
      <trkpt lat="45.86375" lon="4.40531">
        <ele>612.2</ele>
        <time>2025-09-09T14:01:41Z</time>
      </trkpt>
      <trkpt lat="45.86373" lon="4.4053">
        <ele>611.8</ele>
        <time>2025-09-09T14:01:42Z</time>
      </trkpt>
      <trkpt lat="45.8637" lon="4.40529">
        <ele>611</ele>
        <time>2025-09-09T14:01:43Z</time>
      </trkpt>
      <trkpt lat="45.8637" lon="4.40528">
        <ele>610.6</ele>
        <time>2025-09-09T14:01:44Z</time>
      </trkpt>
      <trkpt lat="45.86369" lon="4.40528">
        <ele>610.2</ele>
        <time>2025-09-09T14:01:45Z</time>
      </trkpt>
      <trkpt lat="45.86368" lon="4.40527">
        <ele>609.8</ele>
        <time>2025-09-09T14:01:46Z</time>
      </trkpt>
      <trkpt lat="45.86367" lon="4.40527">
        <ele>609.4</ele>
        <time>2025-09-09T14:01:47Z</time>
      </trkpt>
      <trkpt lat="45.86361" lon="4.40527">
        <ele>608.2</ele>
        <time>2025-09-09T14:02:04Z</time>
      </trkpt>
      <trkpt lat="45.86359" lon="4.40526">
        <ele>608.2</ele>
        <time>2025-09-09T14:02:05Z</time>
      </trkpt>
      <trkpt lat="45.86357" lon="4.40526">
        <ele>607.8</ele>
        <time>2025-09-09T14:02:06Z</time>
      </trkpt>
      <trkpt lat="45.86356" lon="4.40525">
        <ele>607.8</ele>
        <time>2025-09-09T14:02:07Z</time>
      </trkpt>
      <trkpt lat="45.86349" lon="4.40524">
        <ele>607</ele>
        <time>2025-09-09T14:02:08Z</time>
      </trkpt>
      <trkpt lat="45.86346" lon="4.40523">
        <ele>606.4</ele>
        <time>2025-09-09T14:02:09Z</time>
      </trkpt>
      <trkpt lat="45.86343" lon="4.40521">
        <ele>606</ele>
        <time>2025-09-09T14:02:10Z</time>
      </trkpt>
      <trkpt lat="45.8634" lon="4.40518">
        <ele>605.6</ele>
        <time>2025-09-09T14:02:11Z</time>
      </trkpt>
      <trkpt lat="45.86338" lon="4.40517">
        <ele>605.2</ele>
        <time>2025-09-09T14:02:12Z</time>
      </trkpt>
      <trkpt lat="45.86337" lon="4.40513">
        <ele>605.2</ele>
        <time>2025-09-09T14:02:13Z</time>
      </trkpt>
      <trkpt lat="45.86336" lon="4.40509">
        <ele>605.2</ele>
        <time>2025-09-09T14:02:14Z</time>
      </trkpt>
      <trkpt lat="45.86336" lon="4.40504">
        <ele>605</ele>
        <time>2025-09-09T14:02:15Z</time>
      </trkpt>
      <trkpt lat="45.86339" lon="4.40501">
        <ele>605.4</ele>
        <time>2025-09-09T14:02:16Z</time>
      </trkpt>
      <trkpt lat="45.86339" lon="4.40497">
        <ele>605.4</ele>
        <time>2025-09-09T14:02:17Z</time>
      </trkpt>
      <trkpt lat="45.8634" lon="4.40493">
        <ele>605.4</ele>
        <time>2025-09-09T14:02:18Z</time>
      </trkpt>
      <trkpt lat="45.8634" lon="4.4049">
        <ele>605.8</ele>
        <time>2025-09-09T14:02:19Z</time>
      </trkpt>
      <trkpt lat="45.86341" lon="4.40488">
        <ele>606</ele>
        <time>2025-09-09T14:02:20Z</time>
      </trkpt>
      <trkpt lat="45.86343" lon="4.40485">
        <ele>606</ele>
        <time>2025-09-09T14:02:21Z</time>
      </trkpt>
      <trkpt lat="45.86343" lon="4.40482">
        <ele>606.4</ele>
        <time>2025-09-09T14:02:22Z</time>
      </trkpt>
      <trkpt lat="45.86344" lon="4.40479">
        <ele>606.6</ele>
        <time>2025-09-09T14:02:23Z</time>
      </trkpt>
      <trkpt lat="45.86344" lon="4.40477">
        <ele>606.6</ele>
        <time>2025-09-09T14:02:24Z</time>
      </trkpt>
      <trkpt lat="45.86346" lon="4.40474">
        <ele>606.6</ele>
        <time>2025-09-09T14:02:25Z</time>
      </trkpt>
      <trkpt lat="45.86347" lon="4.40471">
        <ele>606.6</ele>
        <time>2025-09-09T14:02:26Z</time>
      </trkpt>
      <trkpt lat="45.86348" lon="4.40468">
        <ele>606.6</ele>
        <time>2025-09-09T14:02:27Z</time>
      </trkpt>
      <trkpt lat="45.86348" lon="4.40465">
        <ele>606.6</ele>
        <time>2025-09-09T14:02:28Z</time>
      </trkpt>
      <trkpt lat="45.86349" lon="4.40462">
        <ele>607</ele>
        <time>2025-09-09T14:02:29Z</time>
      </trkpt>
      <trkpt lat="45.8635" lon="4.4046">
        <ele>607.2</ele>
        <time>2025-09-09T14:02:30Z</time>
      </trkpt>
      <trkpt lat="45.8635" lon="4.40458">
        <ele>607.4</ele>
        <time>2025-09-09T14:02:31Z</time>
      </trkpt>
      <trkpt lat="45.8635" lon="4.40455">
        <ele>607.4</ele>
        <time>2025-09-09T14:02:32Z</time>
      </trkpt>
      <trkpt lat="45.8635" lon="4.40453">
        <ele>607.4</ele>
        <time>2025-09-09T14:02:33Z</time>
      </trkpt>
      <trkpt lat="45.8635" lon="4.4045">
        <ele>607.8</ele>
        <time>2025-09-09T14:02:34Z</time>
      </trkpt>
      <trkpt lat="45.8635" lon="4.40448">
        <ele>607.8</ele>
        <time>2025-09-09T14:02:35Z</time>
      </trkpt>
      <trkpt lat="45.86351" lon="4.40445">
        <ele>607.8</ele>
        <time>2025-09-09T14:02:36Z</time>
      </trkpt>
      <trkpt lat="45.86352" lon="4.40443">
        <ele>608.2</ele>
        <time>2025-09-09T14:02:37Z</time>
      </trkpt>
      <trkpt lat="45.86352" lon="4.4044">
        <ele>607.8</ele>
        <time>2025-09-09T14:02:38Z</time>
      </trkpt>
      <trkpt lat="45.86353" lon="4.40437">
        <ele>608</ele>
        <time>2025-09-09T14:02:39Z</time>
      </trkpt>
      <trkpt lat="45.86353" lon="4.40435">
        <ele>608</ele>
        <time>2025-09-09T14:02:40Z</time>
      </trkpt>
      <trkpt lat="45.86353" lon="4.40435">
        <ele>608</ele>
        <time>2025-09-09T14:02:41Z</time>
      </trkpt>
      <trkpt lat="45.86353" lon="4.40435">
        <ele>608</ele>
        <time>2025-09-09T14:02:42Z</time>
      </trkpt>
      <trkpt lat="45.86356" lon="4.40425">
        <ele>608.6</ele>
        <time>2025-09-09T14:02:44Z</time>
      </trkpt>
      <trkpt lat="45.86357" lon="4.40423">
        <ele>608.6</ele>
        <time>2025-09-09T14:02:45Z</time>
      </trkpt>
      <trkpt lat="45.86358" lon="4.40421">
        <ele>608.8</ele>
        <time>2025-09-09T14:02:46Z</time>
      </trkpt>
      <trkpt lat="45.86358" lon="4.40419">
        <ele>608.8</ele>
        <time>2025-09-09T14:02:47Z</time>
      </trkpt>
      <trkpt lat="45.86359" lon="4.40416">
        <ele>609.2</ele>
        <time>2025-09-09T14:02:48Z</time>
      </trkpt>
      <trkpt lat="45.86359" lon="4.40414">
        <ele>609.2</ele>
        <time>2025-09-09T14:02:49Z</time>
      </trkpt>
      <trkpt lat="45.8636" lon="4.40412">
        <ele>609.4</ele>
        <time>2025-09-09T14:02:50Z</time>
      </trkpt>
      <trkpt lat="45.86361" lon="4.4041">
        <ele>609.4</ele>
        <time>2025-09-09T14:02:51Z</time>
      </trkpt>
      <trkpt lat="45.86362" lon="4.40407">
        <ele>609.4</ele>
        <time>2025-09-09T14:02:52Z</time>
      </trkpt>
      <trkpt lat="45.86363" lon="4.40405">
        <ele>609.4</ele>
        <time>2025-09-09T14:02:53Z</time>
      </trkpt>
      <trkpt lat="45.86363" lon="4.40403">
        <ele>609.6</ele>
        <time>2025-09-09T14:02:54Z</time>
      </trkpt>
      <trkpt lat="45.86364" lon="4.40401">
        <ele>609.6</ele>
        <time>2025-09-09T14:02:55Z</time>
      </trkpt>
      <trkpt lat="45.86364" lon="4.40399">
        <ele>609.6</ele>
        <time>2025-09-09T14:02:56Z</time>
      </trkpt>
      <trkpt lat="45.86365" lon="4.40397">
        <ele>610</ele>
        <time>2025-09-09T14:02:57Z</time>
      </trkpt>
      <trkpt lat="45.86366" lon="4.40395">
        <ele>610</ele>
        <time>2025-09-09T14:02:58Z</time>
      </trkpt>
      <trkpt lat="45.86366" lon="4.40393">
        <ele>610.2</ele>
        <time>2025-09-09T14:02:59Z</time>
      </trkpt>
      <trkpt lat="45.86367" lon="4.40391">
        <ele>610.2</ele>
        <time>2025-09-09T14:03:00Z</time>
      </trkpt>
      <trkpt lat="45.86368" lon="4.40389">
        <ele>610.2</ele>
        <time>2025-09-09T14:03:01Z</time>
      </trkpt>
      <trkpt lat="45.86368" lon="4.40387">
        <ele>610.6</ele>
        <time>2025-09-09T14:03:02Z</time>
      </trkpt>
      <trkpt lat="45.86369" lon="4.40384">
        <ele>610.6</ele>
        <time>2025-09-09T14:03:03Z</time>
      </trkpt>
      <trkpt lat="45.8637" lon="4.40382">
        <ele>610.6</ele>
        <time>2025-09-09T14:03:04Z</time>
      </trkpt>
      <trkpt lat="45.8637" lon="4.4038">
        <ele>610.6</ele>
        <time>2025-09-09T14:03:05Z</time>
      </trkpt>
      <trkpt lat="45.86371" lon="4.40378">
        <ele>611</ele>
        <time>2025-09-09T14:03:06Z</time>
      </trkpt>
      <trkpt lat="45.86372" lon="4.40376">
        <ele>611</ele>
        <time>2025-09-09T14:03:07Z</time>
      </trkpt>
      <trkpt lat="45.86373" lon="4.40375">
        <ele>611</ele>
        <time>2025-09-09T14:03:08Z</time>
      </trkpt>
      <trkpt lat="45.86374" lon="4.40373">
        <ele>611</ele>
        <time>2025-09-09T14:03:09Z</time>
      </trkpt>
      <trkpt lat="45.86374" lon="4.40372">
        <ele>611.2</ele>
        <time>2025-09-09T14:03:10Z</time>
      </trkpt>
      <trkpt lat="45.86375" lon="4.40372">
        <ele>611.4</ele>
        <time>2025-09-09T14:03:11Z</time>
      </trkpt>
      <trkpt lat="45.86376" lon="4.4037">
        <ele>611.8</ele>
        <time>2025-09-09T14:03:12Z</time>
      </trkpt>
      <trkpt lat="45.86377" lon="4.40368">
        <ele>611.8</ele>
        <time>2025-09-09T14:03:13Z</time>
      </trkpt>
      <trkpt lat="45.86377" lon="4.40366">
        <ele>612</ele>
        <time>2025-09-09T14:03:14Z</time>
      </trkpt>
      <trkpt lat="45.86378" lon="4.40365">
        <ele>612</ele>
        <time>2025-09-09T14:03:15Z</time>
      </trkpt>
      <trkpt lat="45.86379" lon="4.40364">
        <ele>612</ele>
        <time>2025-09-09T14:03:16Z</time>
      </trkpt>
      <trkpt lat="45.8638" lon="4.40362">
        <ele>612.4</ele>
        <time>2025-09-09T14:03:17Z</time>
      </trkpt>
      <trkpt lat="45.86381" lon="4.40362">
        <ele>612.4</ele>
        <time>2025-09-09T14:03:18Z</time>
      </trkpt>
      <trkpt lat="45.8638" lon="4.40362">
        <ele>612.4</ele>
        <time>2025-09-09T14:03:19Z</time>
      </trkpt>
      <trkpt lat="45.8638" lon="4.40362">
        <ele>612.4</ele>
        <time>2025-09-09T14:03:20Z</time>
      </trkpt>
      <trkpt lat="45.8638" lon="4.40362">
        <ele>612.4</ele>
        <time>2025-09-09T14:03:21Z</time>
      </trkpt>
      <trkpt lat="45.86379" lon="4.40359">
        <ele>612.2</ele>
        <time>2025-09-09T14:03:47Z</time>
      </trkpt>
      <trkpt lat="45.86379" lon="4.40358">
        <ele>612.4</ele>
        <time>2025-09-09T14:03:48Z</time>
      </trkpt>
      <trkpt lat="45.86379" lon="4.40356">
        <ele>612.4</ele>
        <time>2025-09-09T14:03:49Z</time>
      </trkpt>
      <trkpt lat="45.86379" lon="4.40356">
        <ele>612.6</ele>
        <time>2025-09-09T14:03:50Z</time>
      </trkpt>
      <trkpt lat="45.86381" lon="4.40355">
        <ele>612.6</ele>
        <time>2025-09-09T14:03:55Z</time>
      </trkpt>
      <trkpt lat="45.86381" lon="4.40354">
        <ele>612.6</ele>
        <time>2025-09-09T14:03:56Z</time>
      </trkpt>
      <trkpt lat="45.86381" lon="4.40353">
        <ele>613</ele>
        <time>2025-09-09T14:03:57Z</time>
      </trkpt>
      <trkpt lat="45.86382" lon="4.40352">
        <ele>613</ele>
        <time>2025-09-09T14:03:58Z</time>
      </trkpt>
      <trkpt lat="45.86382" lon="4.40351">
        <ele>613</ele>
        <time>2025-09-09T14:03:59Z</time>
      </trkpt>
      <trkpt lat="45.86383" lon="4.40349">
        <ele>613.2</ele>
        <time>2025-09-09T14:04:00Z</time>
      </trkpt>
      <trkpt lat="45.86383" lon="4.40348">
        <ele>612.8</ele>
        <time>2025-09-09T14:04:01Z</time>
      </trkpt>
      <trkpt lat="45.86383" lon="4.40347">
        <ele>613.2</ele>
        <time>2025-09-09T14:04:02Z</time>
      </trkpt>
      <trkpt lat="45.86384" lon="4.40346">
        <ele>613.6</ele>
        <time>2025-09-09T14:04:03Z</time>
      </trkpt>
      <trkpt lat="45.86385" lon="4.40345">
        <ele>613.8</ele>
        <time>2025-09-09T14:04:04Z</time>
      </trkpt>
      <trkpt lat="45.86386" lon="4.40343">
        <ele>614.2</ele>
        <time>2025-09-09T14:04:05Z</time>
      </trkpt>
      <trkpt lat="45.86387" lon="4.40342">
        <ele>614.4</ele>
        <time>2025-09-09T14:04:06Z</time>
      </trkpt>
      <trkpt lat="45.86387" lon="4.40341">
        <ele>614.6</ele>
        <time>2025-09-09T14:04:07Z</time>
      </trkpt>
      <trkpt lat="45.86387" lon="4.40339">
        <ele>614.6</ele>
        <time>2025-09-09T14:04:08Z</time>
      </trkpt>
      <trkpt lat="45.86387" lon="4.40338">
        <ele>614.6</ele>
        <time>2025-09-09T14:04:09Z</time>
      </trkpt>
      <trkpt lat="45.86387" lon="4.40336">
        <ele>615</ele>
        <time>2025-09-09T14:04:10Z</time>
      </trkpt>
      <trkpt lat="45.86387" lon="4.40335">
        <ele>615</ele>
        <time>2025-09-09T14:04:11Z</time>
      </trkpt>
      <trkpt lat="45.86387" lon="4.40334">
        <ele>615.2</ele>
        <time>2025-09-09T14:04:12Z</time>
      </trkpt>
      <trkpt lat="45.86387" lon="4.40333">
        <ele>615.2</ele>
        <time>2025-09-09T14:04:13Z</time>
      </trkpt>
      <trkpt lat="45.86388" lon="4.40332">
        <ele>615.4</ele>
        <time>2025-09-09T14:04:14Z</time>
      </trkpt>
      <trkpt lat="45.86388" lon="4.40331">
        <ele>615.4</ele>
        <time>2025-09-09T14:04:15Z</time>
      </trkpt>
      <trkpt lat="45.86389" lon="4.4033">
        <ele>615.4</ele>
        <time>2025-09-09T14:04:16Z</time>
      </trkpt>
      <trkpt lat="45.86389" lon="4.40329">
        <ele>615.8</ele>
        <time>2025-09-09T14:04:17Z</time>
      </trkpt>
      <trkpt lat="45.86389" lon="4.40328">
        <ele>615.8</ele>
        <time>2025-09-09T14:04:18Z</time>
      </trkpt>
      <trkpt lat="45.8639" lon="4.40327">
        <ele>616</ele>
        <time>2025-09-09T14:04:19Z</time>
      </trkpt>
      <trkpt lat="45.86391" lon="4.40324">
        <ele>616</ele>
        <time>2025-09-09T14:04:20Z</time>
      </trkpt>
      <trkpt lat="45.86391" lon="4.40323">
        <ele>616.4</ele>
        <time>2025-09-09T14:04:21Z</time>
      </trkpt>
      <trkpt lat="45.86391" lon="4.40322">
        <ele>616.6</ele>
        <time>2025-09-09T14:04:22Z</time>
      </trkpt>
      <trkpt lat="45.86392" lon="4.40321">
        <ele>616.6</ele>
        <time>2025-09-09T14:04:23Z</time>
      </trkpt>
      <trkpt lat="45.86392" lon="4.4032">
        <ele>616.8</ele>
        <time>2025-09-09T14:04:24Z</time>
      </trkpt>
      <trkpt lat="45.86392" lon="4.40319">
        <ele>616.8</ele>
        <time>2025-09-09T14:04:25Z</time>
      </trkpt>
      <trkpt lat="45.86392" lon="4.40317">
        <ele>617</ele>
        <time>2025-09-09T14:04:26Z</time>
      </trkpt>
      <trkpt lat="45.86393" lon="4.40315">
        <ele>617</ele>
        <time>2025-09-09T14:04:27Z</time>
      </trkpt>
      <trkpt lat="45.86393" lon="4.40314">
        <ele>617</ele>
        <time>2025-09-09T14:04:28Z</time>
      </trkpt>
      <trkpt lat="45.86393" lon="4.40312">
        <ele>617.4</ele>
        <time>2025-09-09T14:04:29Z</time>
      </trkpt>
      <trkpt lat="45.86394" lon="4.40311">
        <ele>617.4</ele>
        <time>2025-09-09T14:04:30Z</time>
      </trkpt>
      <trkpt lat="45.86394" lon="4.40309">
        <ele>617.4</ele>
        <time>2025-09-09T14:04:31Z</time>
      </trkpt>
      <trkpt lat="45.86394" lon="4.40308">
        <ele>617.6</ele>
        <time>2025-09-09T14:04:32Z</time>
      </trkpt>
      <trkpt lat="45.86394" lon="4.40307">
        <ele>617.8</ele>
        <time>2025-09-09T14:04:33Z</time>
      </trkpt>
      <trkpt lat="45.86394" lon="4.40306">
        <ele>618</ele>
        <time>2025-09-09T14:04:34Z</time>
      </trkpt>
      <trkpt lat="45.86395" lon="4.40305">
        <ele>618</ele>
        <time>2025-09-09T14:04:35Z</time>
      </trkpt>
      <trkpt lat="45.86395" lon="4.40305">
        <ele>618</ele>
        <time>2025-09-09T14:04:36Z</time>
      </trkpt>
      <trkpt lat="45.86396" lon="4.40304">
        <ele>618</ele>
        <time>2025-09-09T14:04:37Z</time>
      </trkpt>
      <trkpt lat="45.86396" lon="4.40302">
        <ele>618.6</ele>
        <time>2025-09-09T14:04:38Z</time>
      </trkpt>
      <trkpt lat="45.86396" lon="4.40301">
        <ele>618.8</ele>
        <time>2025-09-09T14:04:39Z</time>
      </trkpt>
      <trkpt lat="45.86396" lon="4.403">
        <ele>618.8</ele>
        <time>2025-09-09T14:04:40Z</time>
      </trkpt>
      <trkpt lat="45.86396" lon="4.40298">
        <ele>619</ele>
        <time>2025-09-09T14:04:41Z</time>
      </trkpt>
      <trkpt lat="45.86396" lon="4.40297">
        <ele>619</ele>
        <time>2025-09-09T14:04:42Z</time>
      </trkpt>
      <trkpt lat="45.86396" lon="4.40296">
        <ele>619</ele>
        <time>2025-09-09T14:04:43Z</time>
      </trkpt>
      <trkpt lat="45.86396" lon="4.40295">
        <ele>619.4</ele>
        <time>2025-09-09T14:04:44Z</time>
      </trkpt>
      <trkpt lat="45.86396" lon="4.40294">
        <ele>619.4</ele>
        <time>2025-09-09T14:04:45Z</time>
      </trkpt>
      <trkpt lat="45.86396" lon="4.40293">
        <ele>619.6</ele>
        <time>2025-09-09T14:04:46Z</time>
      </trkpt>
      <trkpt lat="45.86396" lon="4.40291">
        <ele>619.6</ele>
        <time>2025-09-09T14:04:47Z</time>
      </trkpt>
      <trkpt lat="45.86396" lon="4.40291">
        <ele>619.8</ele>
        <time>2025-09-09T14:04:48Z</time>
      </trkpt>
      <trkpt lat="45.86396" lon="4.4029">
        <ele>619.8</ele>
        <time>2025-09-09T14:04:49Z</time>
      </trkpt>
      <trkpt lat="45.86397" lon="4.40289">
        <ele>620.2</ele>
        <time>2025-09-09T14:04:50Z</time>
      </trkpt>
      <trkpt lat="45.86397" lon="4.40287">
        <ele>620.2</ele>
        <time>2025-09-09T14:04:51Z</time>
      </trkpt>
      <trkpt lat="45.86397" lon="4.40286">
        <ele>620.6</ele>
        <time>2025-09-09T14:04:52Z</time>
      </trkpt>
      <trkpt lat="45.86397" lon="4.40285">
        <ele>620.6</ele>
        <time>2025-09-09T14:04:53Z</time>
      </trkpt>
      <trkpt lat="45.86397" lon="4.40284">
        <ele>620.8</ele>
        <time>2025-09-09T14:04:54Z</time>
      </trkpt>
      <trkpt lat="45.86397" lon="4.40283">
        <ele>620.8</ele>
        <time>2025-09-09T14:04:55Z</time>
      </trkpt>
      <trkpt lat="45.86397" lon="4.40281">
        <ele>621</ele>
        <time>2025-09-09T14:04:56Z</time>
      </trkpt>
      <trkpt lat="45.86397" lon="4.4028">
        <ele>621</ele>
        <time>2025-09-09T14:04:57Z</time>
      </trkpt>
      <trkpt lat="45.86397" lon="4.40279">
        <ele>621.4</ele>
        <time>2025-09-09T14:04:58Z</time>
      </trkpt>
      <trkpt lat="45.86397" lon="4.40278">
        <ele>621.4</ele>
        <time>2025-09-09T14:04:59Z</time>
      </trkpt>
      <trkpt lat="45.86397" lon="4.40278">
        <ele>621.8</ele>
        <time>2025-09-09T14:05:00Z</time>
      </trkpt>
      <trkpt lat="45.86397" lon="4.40277">
        <ele>621.8</ele>
        <time>2025-09-09T14:05:01Z</time>
      </trkpt>
      <trkpt lat="45.86398" lon="4.40275">
        <ele>622</ele>
        <time>2025-09-09T14:05:02Z</time>
      </trkpt>
      <trkpt lat="45.86398" lon="4.40274">
        <ele>622.2</ele>
        <time>2025-09-09T14:05:03Z</time>
      </trkpt>
      <trkpt lat="45.86398" lon="4.40273">
        <ele>622.2</ele>
        <time>2025-09-09T14:05:04Z</time>
      </trkpt>
      <trkpt lat="45.86398" lon="4.40272">
        <ele>622.2</ele>
        <time>2025-09-09T14:05:05Z</time>
      </trkpt>
      <trkpt lat="45.86398" lon="4.40271">
        <ele>622.2</ele>
        <time>2025-09-09T14:05:06Z</time>
      </trkpt>
      <trkpt lat="45.86399" lon="4.4027">
        <ele>622.2</ele>
        <time>2025-09-09T14:05:07Z</time>
      </trkpt>
      <trkpt lat="45.86399" lon="4.40269">
        <ele>622.6</ele>
        <time>2025-09-09T14:05:08Z</time>
      </trkpt>
      <trkpt lat="45.86399" lon="4.40268">
        <ele>622.6</ele>
        <time>2025-09-09T14:05:09Z</time>
      </trkpt>
      <trkpt lat="45.86399" lon="4.40267">
        <ele>622.8</ele>
        <time>2025-09-09T14:05:10Z</time>
      </trkpt>
      <trkpt lat="45.86399" lon="4.40266">
        <ele>623</ele>
        <time>2025-09-09T14:05:11Z</time>
      </trkpt>
      <trkpt lat="45.86399" lon="4.40265">
        <ele>623</ele>
        <time>2025-09-09T14:05:12Z</time>
      </trkpt>
      <trkpt lat="45.86399" lon="4.40264">
        <ele>623.2</ele>
        <time>2025-09-09T14:05:13Z</time>
      </trkpt>
      <trkpt lat="45.864" lon="4.40263">
        <ele>623.2</ele>
        <time>2025-09-09T14:05:14Z</time>
      </trkpt>
      <trkpt lat="45.86399" lon="4.40261">
        <ele>623.4</ele>
        <time>2025-09-09T14:05:15Z</time>
      </trkpt>
      <trkpt lat="45.86399" lon="4.4026">
        <ele>623.8</ele>
        <time>2025-09-09T14:05:16Z</time>
      </trkpt>
      <trkpt lat="45.86399" lon="4.40259">
        <ele>623.8</ele>
        <time>2025-09-09T14:05:17Z</time>
      </trkpt>
      <trkpt lat="45.86399" lon="4.40258">
        <ele>624</ele>
        <time>2025-09-09T14:05:18Z</time>
      </trkpt>
      <trkpt lat="45.86399" lon="4.40257">
        <ele>624</ele>
        <time>2025-09-09T14:05:19Z</time>
      </trkpt>
      <trkpt lat="45.86399" lon="4.40257">
        <ele>624.2</ele>
        <time>2025-09-09T14:05:20Z</time>
      </trkpt>
      <trkpt lat="45.86399" lon="4.40256">
        <ele>624.2</ele>
        <time>2025-09-09T14:05:21Z</time>
      </trkpt>
      <trkpt lat="45.86399" lon="4.40255">
        <ele>624.4</ele>
        <time>2025-09-09T14:05:22Z</time>
      </trkpt>
      <trkpt lat="45.86399" lon="4.40254">
        <ele>624.4</ele>
        <time>2025-09-09T14:05:23Z</time>
      </trkpt>
      <trkpt lat="45.86399" lon="4.40253">
        <ele>624.4</ele>
        <time>2025-09-09T14:05:24Z</time>
      </trkpt>
      <trkpt lat="45.86399" lon="4.40252">
        <ele>624.8</ele>
        <time>2025-09-09T14:05:25Z</time>
      </trkpt>
      <trkpt lat="45.86399" lon="4.40251">
        <ele>624.8</ele>
        <time>2025-09-09T14:05:26Z</time>
      </trkpt>
      <trkpt lat="45.86399" lon="4.4025">
        <ele>624.8</ele>
        <time>2025-09-09T14:05:27Z</time>
      </trkpt>
      <trkpt lat="45.86398" lon="4.40249">
        <ele>624.8</ele>
        <time>2025-09-09T14:05:28Z</time>
      </trkpt>
      <trkpt lat="45.86398" lon="4.40248">
        <ele>625.2</ele>
        <time>2025-09-09T14:05:29Z</time>
      </trkpt>
      <trkpt lat="45.86398" lon="4.40247">
        <ele>625.2</ele>
        <time>2025-09-09T14:05:30Z</time>
      </trkpt>
      <trkpt lat="45.86398" lon="4.40246">
        <ele>625.4</ele>
        <time>2025-09-09T14:05:31Z</time>
      </trkpt>
      <trkpt lat="45.86398" lon="4.40244">
        <ele>625.4</ele>
        <time>2025-09-09T14:05:32Z</time>
      </trkpt>
      <trkpt lat="45.86398" lon="4.40243">
        <ele>625.8</ele>
        <time>2025-09-09T14:05:33Z</time>
      </trkpt>
      <trkpt lat="45.86398" lon="4.40243">
        <ele>625.8</ele>
        <time>2025-09-09T14:05:34Z</time>
      </trkpt>
      <trkpt lat="45.86398" lon="4.40241">
        <ele>625.8</ele>
        <time>2025-09-09T14:05:35Z</time>
      </trkpt>
      <trkpt lat="45.86398" lon="4.4024">
        <ele>625.8</ele>
        <time>2025-09-09T14:05:36Z</time>
      </trkpt>
      <trkpt lat="45.86397" lon="4.40238">
        <ele>626</ele>
        <time>2025-09-09T14:05:37Z</time>
      </trkpt>
      <trkpt lat="45.86397" lon="4.40238">
        <ele>626</ele>
        <time>2025-09-09T14:05:38Z</time>
      </trkpt>
      <trkpt lat="45.86397" lon="4.40236">
        <ele>626.4</ele>
        <time>2025-09-09T14:05:39Z</time>
      </trkpt>
      <trkpt lat="45.86397" lon="4.40235">
        <ele>626.4</ele>
        <time>2025-09-09T14:05:40Z</time>
      </trkpt>
      <trkpt lat="45.86397" lon="4.40234">
        <ele>626.8</ele>
        <time>2025-09-09T14:05:41Z</time>
      </trkpt>
      <trkpt lat="45.86397" lon="4.40233">
        <ele>626.8</ele>
        <time>2025-09-09T14:05:42Z</time>
      </trkpt>
      <trkpt lat="45.86397" lon="4.40233">
        <ele>626.8</ele>
        <time>2025-09-09T14:05:43Z</time>
      </trkpt>
      <trkpt lat="45.86397" lon="4.40233">
        <ele>627</ele>
        <time>2025-09-09T14:05:44Z</time>
      </trkpt>
      <trkpt lat="45.86398" lon="4.40232">
        <ele>626.8</ele>
        <time>2025-09-09T14:05:49Z</time>
      </trkpt>
      <trkpt lat="45.86398" lon="4.40229">
        <ele>626.8</ele>
        <time>2025-09-09T14:05:50Z</time>
      </trkpt>
      <trkpt lat="45.86397" lon="4.40227">
        <ele>626.8</ele>
        <time>2025-09-09T14:05:51Z</time>
      </trkpt>
      <trkpt lat="45.86397" lon="4.40224">
        <ele>626.8</ele>
        <time>2025-09-09T14:05:52Z</time>
      </trkpt>
      <trkpt lat="45.86398" lon="4.40222">
        <ele>627</ele>
        <time>2025-09-09T14:05:53Z</time>
      </trkpt>
      <trkpt lat="45.86398" lon="4.4022">
        <ele>627</ele>
        <time>2025-09-09T14:05:54Z</time>
      </trkpt>
      <trkpt lat="45.86398" lon="4.40217">
        <ele>627.2</ele>
        <time>2025-09-09T14:05:55Z</time>
      </trkpt>
      <trkpt lat="45.86398" lon="4.40215">
        <ele>627.2</ele>
        <time>2025-09-09T14:05:56Z</time>
      </trkpt>
      <trkpt lat="45.86398" lon="4.40212">
        <ele>627.2</ele>
        <time>2025-09-09T14:05:57Z</time>
      </trkpt>
      <trkpt lat="45.86398" lon="4.40209">
        <ele>627.4</ele>
        <time>2025-09-09T14:05:58Z</time>
      </trkpt>
      <trkpt lat="45.86399" lon="4.40208">
        <ele>627.4</ele>
        <time>2025-09-09T14:05:59Z</time>
      </trkpt>
      <trkpt lat="45.86399" lon="4.40206">
        <ele>627.4</ele>
        <time>2025-09-09T14:06:00Z</time>
      </trkpt>
      <trkpt lat="45.86399" lon="4.40204">
        <ele>627.8</ele>
        <time>2025-09-09T14:06:01Z</time>
      </trkpt>
      <trkpt lat="45.864" lon="4.40202">
        <ele>627.8</ele>
        <time>2025-09-09T14:06:02Z</time>
      </trkpt>
      <trkpt lat="45.864" lon="4.402">
        <ele>628.2</ele>
        <time>2025-09-09T14:06:03Z</time>
      </trkpt>
      <trkpt lat="45.864" lon="4.40198">
        <ele>628.6</ele>
        <time>2025-09-09T14:06:04Z</time>
      </trkpt>
      <trkpt lat="45.864" lon="4.40196">
        <ele>628.6</ele>
        <time>2025-09-09T14:06:05Z</time>
      </trkpt>
      <trkpt lat="45.864" lon="4.40194">
        <ele>628.6</ele>
        <time>2025-09-09T14:06:06Z</time>
      </trkpt>
      <trkpt lat="45.86401" lon="4.40192">
        <ele>628.6</ele>
        <time>2025-09-09T14:06:07Z</time>
      </trkpt>
      <trkpt lat="45.86401" lon="4.4019">
        <ele>628.6</ele>
        <time>2025-09-09T14:06:08Z</time>
      </trkpt>
      <trkpt lat="45.86402" lon="4.40188">
        <ele>628.6</ele>
        <time>2025-09-09T14:06:09Z</time>
      </trkpt>
      <trkpt lat="45.86403" lon="4.40186">
        <ele>628.8</ele>
        <time>2025-09-09T14:06:10Z</time>
      </trkpt>
      <trkpt lat="45.86404" lon="4.40185">
        <ele>628.8</ele>
        <time>2025-09-09T14:06:11Z</time>
      </trkpt>
      <trkpt lat="45.86405" lon="4.40184">
        <ele>628.8</ele>
        <time>2025-09-09T14:06:12Z</time>
      </trkpt>
      <trkpt lat="45.86406" lon="4.40183">
        <ele>629</ele>
        <time>2025-09-09T14:06:13Z</time>
      </trkpt>
      <trkpt lat="45.86407" lon="4.40181">
        <ele>629.4</ele>
        <time>2025-09-09T14:06:14Z</time>
      </trkpt>
      <trkpt lat="45.86409" lon="4.4018">
        <ele>629.4</ele>
        <time>2025-09-09T14:06:15Z</time>
      </trkpt>
      <trkpt lat="45.86409" lon="4.4018">
        <ele>629.4</ele>
        <time>2025-09-09T14:06:16Z</time>
      </trkpt>
      <trkpt lat="45.86411" lon="4.40179">
        <ele>629.4</ele>
        <time>2025-09-09T14:06:17Z</time>
      </trkpt>
      <trkpt lat="45.86412" lon="4.40178">
        <ele>629.8</ele>
        <time>2025-09-09T14:06:18Z</time>
      </trkpt>
      <trkpt lat="45.86413" lon="4.40178">
        <ele>630</ele>
        <time>2025-09-09T14:06:19Z</time>
      </trkpt>
      <trkpt lat="45.86415" lon="4.40177">
        <ele>630</ele>
        <time>2025-09-09T14:06:20Z</time>
      </trkpt>
      <trkpt lat="45.86416" lon="4.40177">
        <ele>630.4</ele>
        <time>2025-09-09T14:06:21Z</time>
      </trkpt>
      <trkpt lat="45.86417" lon="4.40177">
        <ele>630.6</ele>
        <time>2025-09-09T14:06:22Z</time>
      </trkpt>
      <trkpt lat="45.86418" lon="4.40176">
        <ele>630.8</ele>
        <time>2025-09-09T14:06:23Z</time>
      </trkpt>
      <trkpt lat="45.8642" lon="4.40176">
        <ele>631.2</ele>
        <time>2025-09-09T14:06:24Z</time>
      </trkpt>
      <trkpt lat="45.86421" lon="4.40175">
        <ele>631.2</ele>
        <time>2025-09-09T14:06:25Z</time>
      </trkpt>
      <trkpt lat="45.86422" lon="4.40175">
        <ele>631.2</ele>
        <time>2025-09-09T14:06:26Z</time>
      </trkpt>
      <trkpt lat="45.86423" lon="4.40174">
        <ele>631.4</ele>
        <time>2025-09-09T14:06:27Z</time>
      </trkpt>
      <trkpt lat="45.86422" lon="4.40173">
        <ele>631.4</ele>
        <time>2025-09-09T14:06:28Z</time>
      </trkpt>
      <trkpt lat="45.86422" lon="4.40173">
        <ele>631.4</ele>
        <time>2025-09-09T14:06:29Z</time>
      </trkpt>
      <trkpt lat="45.86422" lon="4.40172">
        <ele>631.8</ele>
        <time>2025-09-09T14:06:34Z</time>
      </trkpt>
      <trkpt lat="45.86423" lon="4.40171">
        <ele>631.8</ele>
        <time>2025-09-09T14:06:35Z</time>
      </trkpt>
      <trkpt lat="45.86424" lon="4.4017">
        <ele>631.8</ele>
        <time>2025-09-09T14:06:36Z</time>
      </trkpt>
      <trkpt lat="45.86424" lon="4.40169">
        <ele>631.8</ele>
        <time>2025-09-09T14:06:37Z</time>
      </trkpt>
      <trkpt lat="45.86425" lon="4.40168">
        <ele>632</ele>
        <time>2025-09-09T14:06:38Z</time>
      </trkpt>
      <trkpt lat="45.86425" lon="4.40168">
        <ele>632.4</ele>
        <time>2025-09-09T14:06:39Z</time>
      </trkpt>
      <trkpt lat="45.86426" lon="4.40167">
        <ele>632.4</ele>
        <time>2025-09-09T14:06:40Z</time>
      </trkpt>
      <trkpt lat="45.86426" lon="4.40166">
        <ele>632.6</ele>
        <time>2025-09-09T14:06:41Z</time>
      </trkpt>
      <trkpt lat="45.86427" lon="4.40165">
        <ele>632.6</ele>
        <time>2025-09-09T14:06:42Z</time>
      </trkpt>
      <trkpt lat="45.86427" lon="4.40164">
        <ele>633</ele>
        <time>2025-09-09T14:06:43Z</time>
      </trkpt>
      <trkpt lat="45.86428" lon="4.40163">
        <ele>633.2</ele>
        <time>2025-09-09T14:06:44Z</time>
      </trkpt>
      <trkpt lat="45.86428" lon="4.40162">
        <ele>633.2</ele>
        <time>2025-09-09T14:06:45Z</time>
      </trkpt>
      <trkpt lat="45.86429" lon="4.40162">
        <ele>633.2</ele>
        <time>2025-09-09T14:06:46Z</time>
      </trkpt>
      <trkpt lat="45.8643" lon="4.40161">
        <ele>633.6</ele>
        <time>2025-09-09T14:06:47Z</time>
      </trkpt>
      <trkpt lat="45.8643" lon="4.40161">
        <ele>633.6</ele>
        <time>2025-09-09T14:06:48Z</time>
      </trkpt>
      <trkpt lat="45.86431" lon="4.4016">
        <ele>633.6</ele>
        <time>2025-09-09T14:06:49Z</time>
      </trkpt>
      <trkpt lat="45.86432" lon="4.4016">
        <ele>633.6</ele>
        <time>2025-09-09T14:06:50Z</time>
      </trkpt>
      <trkpt lat="45.86433" lon="4.4016">
        <ele>633.6</ele>
        <time>2025-09-09T14:06:51Z</time>
      </trkpt>
      <trkpt lat="45.86434" lon="4.4016">
        <ele>634</ele>
        <time>2025-09-09T14:06:52Z</time>
      </trkpt>
      <trkpt lat="45.86434" lon="4.40159">
        <ele>634</ele>
        <time>2025-09-09T14:06:53Z</time>
      </trkpt>
      <trkpt lat="45.86435" lon="4.40158">
        <ele>634.2</ele>
        <time>2025-09-09T14:06:54Z</time>
      </trkpt>
      <trkpt lat="45.86435" lon="4.40158">
        <ele>634.2</ele>
        <time>2025-09-09T14:06:55Z</time>
      </trkpt>
      <trkpt lat="45.86435" lon="4.40158">
        <ele>634.6</ele>
        <time>2025-09-09T14:06:56Z</time>
      </trkpt>
      <trkpt lat="45.86435" lon="4.40158">
        <ele>634.6</ele>
        <time>2025-09-09T14:06:57Z</time>
      </trkpt>
      <trkpt lat="45.86435" lon="4.40157">
        <ele>635</ele>
        <time>2025-09-09T14:06:58Z</time>
      </trkpt>
      <trkpt lat="45.86435" lon="4.40156">
        <ele>635</ele>
        <time>2025-09-09T14:06:59Z</time>
      </trkpt>
      <trkpt lat="45.86435" lon="4.40155">
        <ele>635.2</ele>
        <time>2025-09-09T14:07:00Z</time>
      </trkpt>
      <trkpt lat="45.86436" lon="4.40154">
        <ele>635.2</ele>
        <time>2025-09-09T14:07:01Z</time>
      </trkpt>
      <trkpt lat="45.86436" lon="4.40153">
        <ele>635.4</ele>
        <time>2025-09-09T14:07:02Z</time>
      </trkpt>
      <trkpt lat="45.86436" lon="4.40152">
        <ele>635.4</ele>
        <time>2025-09-09T14:07:03Z</time>
      </trkpt>
      <trkpt lat="45.86436" lon="4.4015">
        <ele>635.8</ele>
        <time>2025-09-09T14:07:04Z</time>
      </trkpt>
      <trkpt lat="45.86435" lon="4.40149">
        <ele>635.8</ele>
        <time>2025-09-09T14:07:05Z</time>
      </trkpt>
      <trkpt lat="45.86435" lon="4.40148">
        <ele>635.8</ele>
        <time>2025-09-09T14:07:06Z</time>
      </trkpt>
      <trkpt lat="45.86435" lon="4.40147">
        <ele>636</ele>
        <time>2025-09-09T14:07:07Z</time>
      </trkpt>
      <trkpt lat="45.86435" lon="4.40146">
        <ele>636</ele>
        <time>2025-09-09T14:07:08Z</time>
      </trkpt>
      <trkpt lat="45.86435" lon="4.40145">
        <ele>636.4</ele>
        <time>2025-09-09T14:07:09Z</time>
      </trkpt>
      <trkpt lat="45.86435" lon="4.40144">
        <ele>636.8</ele>
        <time>2025-09-09T14:07:10Z</time>
      </trkpt>
      <trkpt lat="45.86435" lon="4.40143">
        <ele>637</ele>
        <time>2025-09-09T14:07:11Z</time>
      </trkpt>
      <trkpt lat="45.86435" lon="4.40142">
        <ele>637.2</ele>
        <time>2025-09-09T14:07:12Z</time>
      </trkpt>
      <trkpt lat="45.86435" lon="4.40141">
        <ele>637.2</ele>
        <time>2025-09-09T14:07:13Z</time>
      </trkpt>
      <trkpt lat="45.86435" lon="4.4014">
        <ele>637.6</ele>
        <time>2025-09-09T14:07:14Z</time>
      </trkpt>
      <trkpt lat="45.86435" lon="4.4014">
        <ele>637.8</ele>
        <time>2025-09-09T14:07:15Z</time>
      </trkpt>
      <trkpt lat="45.86435" lon="4.4014">
        <ele>637.8</ele>
        <time>2025-09-09T14:07:16Z</time>
      </trkpt>
      <trkpt lat="45.86434" lon="4.40137">
        <ele>637.8</ele>
        <time>2025-09-09T14:07:27Z</time>
      </trkpt>
      <trkpt lat="45.86434" lon="4.40136">
        <ele>637.8</ele>
        <time>2025-09-09T14:07:28Z</time>
      </trkpt>
      <trkpt lat="45.86433" lon="4.40135">
        <ele>637.8</ele>
        <time>2025-09-09T14:07:29Z</time>
      </trkpt>
      <trkpt lat="45.86433" lon="4.40134">
        <ele>638</ele>
        <time>2025-09-09T14:07:30Z</time>
      </trkpt>
      <trkpt lat="45.86433" lon="4.40133">
        <ele>638</ele>
        <time>2025-09-09T14:07:31Z</time>
      </trkpt>
      <trkpt lat="45.86433" lon="4.40132">
        <ele>638</ele>
        <time>2025-09-09T14:07:32Z</time>
      </trkpt>
      <trkpt lat="45.86432" lon="4.40131">
        <ele>638.4</ele>
        <time>2025-09-09T14:07:33Z</time>
      </trkpt>
      <trkpt lat="45.86432" lon="4.4013">
        <ele>638.4</ele>
        <time>2025-09-09T14:07:34Z</time>
      </trkpt>
      <trkpt lat="45.86432" lon="4.4013">
        <ele>638.6</ele>
        <time>2025-09-09T14:07:35Z</time>
      </trkpt>
      <trkpt lat="45.86432" lon="4.40129">
        <ele>638.8</ele>
        <time>2025-09-09T14:07:36Z</time>
      </trkpt>
      <trkpt lat="45.86431" lon="4.40129">
        <ele>639.2</ele>
        <time>2025-09-09T14:07:37Z</time>
      </trkpt>
      <trkpt lat="45.86431" lon="4.40128">
        <ele>639.2</ele>
        <time>2025-09-09T14:07:38Z</time>
      </trkpt>
      <trkpt lat="45.86431" lon="4.40127">
        <ele>639.2</ele>
        <time>2025-09-09T14:07:39Z</time>
      </trkpt>
      <trkpt lat="45.86431" lon="4.40126">
        <ele>639.6</ele>
        <time>2025-09-09T14:07:40Z</time>
      </trkpt>
      <trkpt lat="45.86431" lon="4.40125">
        <ele>639.6</ele>
        <time>2025-09-09T14:07:41Z</time>
      </trkpt>
      <trkpt lat="45.86431" lon="4.40124">
        <ele>640</ele>
        <time>2025-09-09T14:07:42Z</time>
      </trkpt>
      <trkpt lat="45.86431" lon="4.40123">
        <ele>640</ele>
        <time>2025-09-09T14:07:43Z</time>
      </trkpt>
      <trkpt lat="45.86431" lon="4.40123">
        <ele>640.2</ele>
        <time>2025-09-09T14:07:44Z</time>
      </trkpt>
      <trkpt lat="45.86431" lon="4.40122">
        <ele>640.2</ele>
        <time>2025-09-09T14:07:45Z</time>
      </trkpt>
      <trkpt lat="45.86431" lon="4.40121">
        <ele>640.4</ele>
        <time>2025-09-09T14:07:46Z</time>
      </trkpt>
      <trkpt lat="45.86431" lon="4.4012">
        <ele>640.4</ele>
        <time>2025-09-09T14:07:47Z</time>
      </trkpt>
      <trkpt lat="45.86431" lon="4.40119">
        <ele>640.6</ele>
        <time>2025-09-09T14:07:48Z</time>
      </trkpt>
      <trkpt lat="45.86431" lon="4.40119">
        <ele>640.6</ele>
        <time>2025-09-09T14:07:49Z</time>
      </trkpt>
      <trkpt lat="45.86431" lon="4.40118">
        <ele>641</ele>
        <time>2025-09-09T14:07:50Z</time>
      </trkpt>
      <trkpt lat="45.86431" lon="4.40118">
        <ele>641</ele>
        <time>2025-09-09T14:07:51Z</time>
      </trkpt>
      <trkpt lat="45.86431" lon="4.40117">
        <ele>641</ele>
        <time>2025-09-09T14:07:52Z</time>
      </trkpt>
      <trkpt lat="45.8643" lon="4.40117">
        <ele>641.2</ele>
        <time>2025-09-09T14:07:53Z</time>
      </trkpt>
      <trkpt lat="45.8643" lon="4.40116">
        <ele>641.2</ele>
        <time>2025-09-09T14:07:54Z</time>
      </trkpt>
      <trkpt lat="45.8643" lon="4.40114">
        <ele>641.6</ele>
        <time>2025-09-09T14:07:55Z</time>
      </trkpt>
      <trkpt lat="45.8643" lon="4.40113">
        <ele>641.6</ele>
        <time>2025-09-09T14:07:56Z</time>
      </trkpt>
      <trkpt lat="45.8643" lon="4.40112">
        <ele>641.8</ele>
        <time>2025-09-09T14:07:57Z</time>
      </trkpt>
      <trkpt lat="45.8643" lon="4.40111">
        <ele>641.8</ele>
        <time>2025-09-09T14:07:58Z</time>
      </trkpt>
      <trkpt lat="45.8643" lon="4.4011">
        <ele>642</ele>
        <time>2025-09-09T14:07:59Z</time>
      </trkpt>
      <trkpt lat="45.86431" lon="4.40108">
        <ele>642</ele>
        <time>2025-09-09T14:08:00Z</time>
      </trkpt>
      <trkpt lat="45.86431" lon="4.40108">
        <ele>642</ele>
        <time>2025-09-09T14:08:01Z</time>
      </trkpt>
      <trkpt lat="45.86432" lon="4.40107">
        <ele>642</ele>
        <time>2025-09-09T14:08:02Z</time>
      </trkpt>
      <trkpt lat="45.86432" lon="4.40107">
        <ele>642</ele>
        <time>2025-09-09T14:08:03Z</time>
      </trkpt>
      <trkpt lat="45.86433" lon="4.40106">
        <ele>642</ele>
        <time>2025-09-09T14:08:09Z</time>
      </trkpt>
      <trkpt lat="45.86433" lon="4.40105">
        <ele>642</ele>
        <time>2025-09-09T14:08:10Z</time>
      </trkpt>
      <trkpt lat="45.86433" lon="4.40105">
        <ele>642</ele>
        <time>2025-09-09T14:08:11Z</time>
      </trkpt>
      <trkpt lat="45.86433" lon="4.40103">
        <ele>642</ele>
        <time>2025-09-09T14:08:12Z</time>
      </trkpt>
      <trkpt lat="45.86433" lon="4.40102">
        <ele>642</ele>
        <time>2025-09-09T14:08:13Z</time>
      </trkpt>
      <trkpt lat="45.86434" lon="4.40101">
        <ele>642</ele>
        <time>2025-09-09T14:08:14Z</time>
      </trkpt>
      <trkpt lat="45.86434" lon="4.401">
        <ele>642</ele>
        <time>2025-09-09T14:08:15Z</time>
      </trkpt>
      <trkpt lat="45.86433" lon="4.40098">
        <ele>642.8</ele>
        <time>2025-09-09T14:08:21Z</time>
      </trkpt>
      <trkpt lat="45.86433" lon="4.40096">
        <ele>642.8</ele>
        <time>2025-09-09T14:08:22Z</time>
      </trkpt>
      <trkpt lat="45.86434" lon="4.40094">
        <ele>642.8</ele>
        <time>2025-09-09T14:08:23Z</time>
      </trkpt>
      <trkpt lat="45.86434" lon="4.40092">
        <ele>642.8</ele>
        <time>2025-09-09T14:08:24Z</time>
      </trkpt>
      <trkpt lat="45.86435" lon="4.4009">
        <ele>643</ele>
        <time>2025-09-09T14:08:25Z</time>
      </trkpt>
      <trkpt lat="45.86436" lon="4.40088">
        <ele>643</ele>
        <time>2025-09-09T14:08:26Z</time>
      </trkpt>
      <trkpt lat="45.86437" lon="4.40086">
        <ele>643.2</ele>
        <time>2025-09-09T14:08:27Z</time>
      </trkpt>
      <trkpt lat="45.86437" lon="4.40084">
        <ele>643.2</ele>
        <time>2025-09-09T14:08:28Z</time>
      </trkpt>
      <trkpt lat="45.86438" lon="4.40082">
        <ele>643.2</ele>
        <time>2025-09-09T14:08:29Z</time>
      </trkpt>
      <trkpt lat="45.86438" lon="4.4008">
        <ele>643.2</ele>
        <time>2025-09-09T14:08:30Z</time>
      </trkpt>
      <trkpt lat="45.86439" lon="4.40078">
        <ele>643.6</ele>
        <time>2025-09-09T14:08:31Z</time>
      </trkpt>
      <trkpt lat="45.8644" lon="4.40076">
        <ele>643.6</ele>
        <time>2025-09-09T14:08:32Z</time>
      </trkpt>
      <trkpt lat="45.86441" lon="4.40074">
        <ele>643.6</ele>
        <time>2025-09-09T14:08:33Z</time>
      </trkpt>
      <trkpt lat="45.86441" lon="4.40072">
        <ele>643.8</ele>
        <time>2025-09-09T14:08:34Z</time>
      </trkpt>
      <trkpt lat="45.86442" lon="4.4007">
        <ele>643.8</ele>
        <time>2025-09-09T14:08:35Z</time>
      </trkpt>
      <trkpt lat="45.86443" lon="4.40068">
        <ele>644.2</ele>
        <time>2025-09-09T14:08:36Z</time>
      </trkpt>
      <trkpt lat="45.86443" lon="4.40066">
        <ele>644.2</ele>
        <time>2025-09-09T14:08:37Z</time>
      </trkpt>
      <trkpt lat="45.86443" lon="4.40065">
        <ele>644.4</ele>
        <time>2025-09-09T14:08:38Z</time>
      </trkpt>
      <trkpt lat="45.86443" lon="4.40063">
        <ele>644.4</ele>
        <time>2025-09-09T14:08:39Z</time>
      </trkpt>
      <trkpt lat="45.86443" lon="4.40062">
        <ele>644.4</ele>
        <time>2025-09-09T14:08:40Z</time>
      </trkpt>
      <trkpt lat="45.86443" lon="4.4006">
        <ele>644.4</ele>
        <time>2025-09-09T14:08:41Z</time>
      </trkpt>
      <trkpt lat="45.86444" lon="4.40058">
        <ele>644.4</ele>
        <time>2025-09-09T14:08:42Z</time>
      </trkpt>
      <trkpt lat="45.86444" lon="4.40058">
        <ele>644.4</ele>
        <time>2025-09-09T14:08:43Z</time>
      </trkpt>
      <trkpt lat="45.86444" lon="4.40058">
        <ele>644.4</ele>
        <time>2025-09-09T14:08:44Z</time>
      </trkpt>
      <trkpt lat="45.86444" lon="4.40058">
        <ele>644.6</ele>
        <time>2025-09-09T14:08:45Z</time>
      </trkpt>
      <trkpt lat="45.86449" lon="4.40055">
        <ele>644.8</ele>
        <time>2025-09-09T14:11:59Z</time>
      </trkpt>
      <trkpt lat="45.86449" lon="4.40054">
        <ele>644.8</ele>
        <time>2025-09-09T14:12:00Z</time>
      </trkpt>
      <trkpt lat="45.86449" lon="4.40051">
        <ele>644.8</ele>
        <time>2025-09-09T14:12:01Z</time>
      </trkpt>
      <trkpt lat="45.86449" lon="4.40049">
        <ele>644.8</ele>
        <time>2025-09-09T14:12:02Z</time>
      </trkpt>
      <trkpt lat="45.8645" lon="4.40045">
        <ele>644.8</ele>
        <time>2025-09-09T14:12:03Z</time>
      </trkpt>
      <trkpt lat="45.8645" lon="4.40041">
        <ele>644.4</ele>
        <time>2025-09-09T14:12:04Z</time>
      </trkpt>
      <trkpt lat="45.86449" lon="4.40039">
        <ele>644.4</ele>
        <time>2025-09-09T14:12:05Z</time>
      </trkpt>
      <trkpt lat="45.86449" lon="4.40037">
        <ele>644.2</ele>
        <time>2025-09-09T14:12:06Z</time>
      </trkpt>
      <trkpt lat="45.86448" lon="4.40034">
        <ele>644.2</ele>
        <time>2025-09-09T14:12:07Z</time>
      </trkpt>
      <trkpt lat="45.86448" lon="4.40032">
        <ele>644.2</ele>
        <time>2025-09-09T14:12:08Z</time>
      </trkpt>
      <trkpt lat="45.86447" lon="4.40031">
        <ele>644.2</ele>
        <time>2025-09-09T14:12:09Z</time>
      </trkpt>
      <trkpt lat="45.86447" lon="4.40029">
        <ele>644.2</ele>
        <time>2025-09-09T14:12:10Z</time>
      </trkpt>
      <trkpt lat="45.86447" lon="4.40027">
        <ele>644.2</ele>
        <time>2025-09-09T14:12:11Z</time>
      </trkpt>
      <trkpt lat="45.86446" lon="4.40026">
        <ele>644.2</ele>
        <time>2025-09-09T14:12:12Z</time>
      </trkpt>
      <trkpt lat="45.86446" lon="4.40026">
        <ele>644.2</ele>
        <time>2025-09-09T14:12:13Z</time>
      </trkpt>
      <trkpt lat="45.86444" lon="4.40023">
        <ele>644</ele>
        <time>2025-09-09T14:12:19Z</time>
      </trkpt>
      <trkpt lat="45.86442" lon="4.4002">
        <ele>644</ele>
        <time>2025-09-09T14:12:20Z</time>
      </trkpt>
      <trkpt lat="45.86441" lon="4.40017">
        <ele>643.8</ele>
        <time>2025-09-09T14:12:21Z</time>
      </trkpt>
      <trkpt lat="45.8644" lon="4.40013">
        <ele>644.6</ele>
        <time>2025-09-09T14:12:22Z</time>
      </trkpt>
      <trkpt lat="45.8644" lon="4.4001">
        <ele>645</ele>
        <time>2025-09-09T14:12:23Z</time>
      </trkpt>
      <trkpt lat="45.8644" lon="4.40007">
        <ele>645</ele>
        <time>2025-09-09T14:12:24Z</time>
      </trkpt>
      <trkpt lat="45.86441" lon="4.40005">
        <ele>644</ele>
        <time>2025-09-09T14:12:25Z</time>
      </trkpt>
      <trkpt lat="45.86441" lon="4.40001">
        <ele>644</ele>
        <time>2025-09-09T14:12:26Z</time>
      </trkpt>
      <trkpt lat="45.86439" lon="4.39995">
        <ele>643.2</ele>
        <time>2025-09-09T14:12:27Z</time>
      </trkpt>
      <trkpt lat="45.86437" lon="4.3999">
        <ele>643.2</ele>
        <time>2025-09-09T14:12:28Z</time>
      </trkpt>
      <trkpt lat="45.86435" lon="4.39984">
        <ele>643</ele>
        <time>2025-09-09T14:12:29Z</time>
      </trkpt>
      <trkpt lat="45.86433" lon="4.39978">
        <ele>642.8</ele>
        <time>2025-09-09T14:12:30Z</time>
      </trkpt>
      <trkpt lat="45.8643" lon="4.39972">
        <ele>642.4</ele>
        <time>2025-09-09T14:12:31Z</time>
      </trkpt>
      <trkpt lat="45.86427" lon="4.39966">
        <ele>642.4</ele>
        <time>2025-09-09T14:12:32Z</time>
      </trkpt>
      <trkpt lat="45.86425" lon="4.39961">
        <ele>642.4</ele>
        <time>2025-09-09T14:12:33Z</time>
      </trkpt>
      <trkpt lat="45.86424" lon="4.39955">
        <ele>642.4</ele>
        <time>2025-09-09T14:12:34Z</time>
      </trkpt>
      <trkpt lat="45.86423" lon="4.39951">
        <ele>642.4</ele>
        <time>2025-09-09T14:12:35Z</time>
      </trkpt>
      <trkpt lat="45.86421" lon="4.39947">
        <ele>642.4</ele>
        <time>2025-09-09T14:12:36Z</time>
      </trkpt>
      <trkpt lat="45.86419" lon="4.39944">
        <ele>642.2</ele>
        <time>2025-09-09T14:12:37Z</time>
      </trkpt>
      <trkpt lat="45.86416" lon="4.3994">
        <ele>642.2</ele>
        <time>2025-09-09T14:12:38Z</time>
      </trkpt>
      <trkpt lat="45.86414" lon="4.39935">
        <ele>642</ele>
        <time>2025-09-09T14:12:39Z</time>
      </trkpt>
      <trkpt lat="45.86412" lon="4.3993">
        <ele>642</ele>
        <time>2025-09-09T14:12:40Z</time>
      </trkpt>
      <trkpt lat="45.8641" lon="4.39926">
        <ele>642</ele>
        <time>2025-09-09T14:12:41Z</time>
      </trkpt>
      <trkpt lat="45.86409" lon="4.3992">
        <ele>641.8</ele>
        <time>2025-09-09T14:12:42Z</time>
      </trkpt>
      <trkpt lat="45.86407" lon="4.39914">
        <ele>641.8</ele>
        <time>2025-09-09T14:12:43Z</time>
      </trkpt>
      <trkpt lat="45.86405" lon="4.39909">
        <ele>641.8</ele>
        <time>2025-09-09T14:12:44Z</time>
      </trkpt>
      <trkpt lat="45.86404" lon="4.39904">
        <ele>641.4</ele>
        <time>2025-09-09T14:12:45Z</time>
      </trkpt>
      <trkpt lat="45.86402" lon="4.399">
        <ele>641.4</ele>
        <time>2025-09-09T14:12:46Z</time>
      </trkpt>
      <trkpt lat="45.86401" lon="4.39895">
        <ele>641.4</ele>
        <time>2025-09-09T14:12:47Z</time>
      </trkpt>
      <trkpt lat="45.864" lon="4.39891">
        <ele>641.4</ele>
        <time>2025-09-09T14:12:48Z</time>
      </trkpt>
      <trkpt lat="45.86399" lon="4.39886">
        <ele>641.4</ele>
        <time>2025-09-09T14:12:49Z</time>
      </trkpt>
      <trkpt lat="45.86398" lon="4.39881">
        <ele>641.4</ele>
        <time>2025-09-09T14:12:50Z</time>
      </trkpt>
      <trkpt lat="45.86397" lon="4.39876">
        <ele>641.2</ele>
        <time>2025-09-09T14:12:51Z</time>
      </trkpt>
      <trkpt lat="45.86397" lon="4.39869">
        <ele>641</ele>
        <time>2025-09-09T14:12:52Z</time>
      </trkpt>
      <trkpt lat="45.86397" lon="4.39864">
        <ele>641.4</ele>
        <time>2025-09-09T14:12:53Z</time>
      </trkpt>
      <trkpt lat="45.86396" lon="4.39858">
        <ele>641.4</ele>
        <time>2025-09-09T14:12:54Z</time>
      </trkpt>
      <trkpt lat="45.86394" lon="4.39851">
        <ele>641.4</ele>
        <time>2025-09-09T14:12:55Z</time>
      </trkpt>
      <trkpt lat="45.86394" lon="4.39846">
        <ele>641</ele>
        <time>2025-09-09T14:12:56Z</time>
      </trkpt>
      <trkpt lat="45.86394" lon="4.3984">
        <ele>641</ele>
        <time>2025-09-09T14:12:57Z</time>
      </trkpt>
      <trkpt lat="45.86394" lon="4.39835">
        <ele>641</ele>
        <time>2025-09-09T14:12:58Z</time>
      </trkpt>
      <trkpt lat="45.86395" lon="4.39829">
        <ele>641.4</ele>
        <time>2025-09-09T14:12:59Z</time>
      </trkpt>
      <trkpt lat="45.86396" lon="4.39824">
        <ele>641</ele>
        <time>2025-09-09T14:13:00Z</time>
      </trkpt>
      <trkpt lat="45.86396" lon="4.39824">
        <ele>641</ele>
        <time>2025-09-09T14:13:01Z</time>
      </trkpt>
      <trkpt lat="45.86396" lon="4.39824">
        <ele>640.4</ele>
        <time>2025-09-09T14:13:02Z</time>
      </trkpt>
      <trkpt lat="45.86402" lon="4.39798">
        <ele>640.4</ele>
        <time>2025-09-09T14:13:03Z</time>
      </trkpt>
      <trkpt lat="45.86398" lon="4.39795">
        <ele>640</ele>
        <time>2025-09-09T14:13:04Z</time>
      </trkpt>
      <trkpt lat="45.864" lon="4.39791">
        <ele>640</ele>
        <time>2025-09-09T14:13:05Z</time>
      </trkpt>
      <trkpt lat="45.864" lon="4.39787">
        <ele>640</ele>
        <time>2025-09-09T14:13:06Z</time>
      </trkpt>
      <trkpt lat="45.86402" lon="4.39777">
        <ele>639.2</ele>
        <time>2025-09-09T14:13:07Z</time>
      </trkpt>
      <trkpt lat="45.86405" lon="4.39773">
        <ele>639.2</ele>
        <time>2025-09-09T14:13:08Z</time>
      </trkpt>
      <trkpt lat="45.86405" lon="4.39765">
        <ele>639.4</ele>
        <time>2025-09-09T14:13:09Z</time>
      </trkpt>
      <trkpt lat="45.8641" lon="4.39763">
        <ele>638.6</ele>
        <time>2025-09-09T14:13:10Z</time>
      </trkpt>
      <trkpt lat="45.86409" lon="4.39758">
        <ele>638.6</ele>
        <time>2025-09-09T14:13:11Z</time>
      </trkpt>
      <trkpt lat="45.86407" lon="4.39756">
        <ele>638.6</ele>
        <time>2025-09-09T14:13:12Z</time>
      </trkpt>
      <trkpt lat="45.86408" lon="4.39751">
        <ele>638.2</ele>
        <time>2025-09-09T14:13:13Z</time>
      </trkpt>
      <trkpt lat="45.86409" lon="4.39747">
        <ele>638.2</ele>
        <time>2025-09-09T14:13:14Z</time>
      </trkpt>
      <trkpt lat="45.86409" lon="4.39743">
        <ele>638</ele>
        <time>2025-09-09T14:13:15Z</time>
      </trkpt>
      <trkpt lat="45.86411" lon="4.3974">
        <ele>637.6</ele>
        <time>2025-09-09T14:13:16Z</time>
      </trkpt>
      <trkpt lat="45.86412" lon="4.39737">
        <ele>637.2</ele>
        <time>2025-09-09T14:13:17Z</time>
      </trkpt>
      <trkpt lat="45.86409" lon="4.39729">
        <ele>637.2</ele>
        <time>2025-09-09T14:13:18Z</time>
      </trkpt>
      <trkpt lat="45.86409" lon="4.39729">
        <ele>636.8</ele>
        <time>2025-09-09T14:13:19Z</time>
      </trkpt>
      <trkpt lat="45.86409" lon="4.39724">
        <ele>636.8</ele>
        <time>2025-09-09T14:13:20Z</time>
      </trkpt>
      <trkpt lat="45.86408" lon="4.39722">
        <ele>636.8</ele>
        <time>2025-09-09T14:13:21Z</time>
      </trkpt>
      <trkpt lat="45.86411" lon="4.39713">
        <ele>636.6</ele>
        <time>2025-09-09T14:13:22Z</time>
      </trkpt>
      <trkpt lat="45.86412" lon="4.39708">
        <ele>636.6</ele>
        <time>2025-09-09T14:13:23Z</time>
      </trkpt>
      <trkpt lat="45.86414" lon="4.39705">
        <ele>635.4</ele>
        <time>2025-09-09T14:13:24Z</time>
      </trkpt>
      <trkpt lat="45.86414" lon="4.39702">
        <ele>634.6</ele>
        <time>2025-09-09T14:13:25Z</time>
      </trkpt>
      <trkpt lat="45.86413" lon="4.39694">
        <ele>634.6</ele>
        <time>2025-09-09T14:13:26Z</time>
      </trkpt>
      <trkpt lat="45.86416" lon="4.39689">
        <ele>634.2</ele>
        <time>2025-09-09T14:13:27Z</time>
      </trkpt>
      <trkpt lat="45.86415" lon="4.39684">
        <ele>633.8</ele>
        <time>2025-09-09T14:13:28Z</time>
      </trkpt>
      <trkpt lat="45.86416" lon="4.39678">
        <ele>633.8</ele>
        <time>2025-09-09T14:13:29Z</time>
      </trkpt>
      <trkpt lat="45.86417" lon="4.39674">
        <ele>633.8</ele>
        <time>2025-09-09T14:13:30Z</time>
      </trkpt>
      <trkpt lat="45.86417" lon="4.39674">
        <ele>633.6</ele>
        <time>2025-09-09T14:13:31Z</time>
      </trkpt>
      <trkpt lat="45.86417" lon="4.39669">
        <ele>633.2</ele>
        <time>2025-09-09T14:13:32Z</time>
      </trkpt>
      <trkpt lat="45.86416" lon="4.39664">
        <ele>632.6</ele>
        <time>2025-09-09T14:13:33Z</time>
      </trkpt>
      <trkpt lat="45.86415" lon="4.39659">
        <ele>632.4</ele>
        <time>2025-09-09T14:13:34Z</time>
      </trkpt>
      <trkpt lat="45.86414" lon="4.39655">
        <ele>632.4</ele>
        <time>2025-09-09T14:13:35Z</time>
      </trkpt>
      <trkpt lat="45.86414" lon="4.39652">
        <ele>632</ele>
        <time>2025-09-09T14:13:36Z</time>
      </trkpt>
      <trkpt lat="45.86414" lon="4.39651">
        <ele>631.8</ele>
        <time>2025-09-09T14:13:37Z</time>
      </trkpt>
      <trkpt lat="45.86414" lon="4.39648">
        <ele>631.4</ele>
        <time>2025-09-09T14:13:38Z</time>
      </trkpt>
      <trkpt lat="45.86413" lon="4.39645">
        <ele>631.4</ele>
        <time>2025-09-09T14:13:39Z</time>
      </trkpt>
      <trkpt lat="45.86412" lon="4.39642">
        <ele>630.8</ele>
        <time>2025-09-09T14:13:40Z</time>
      </trkpt>
      <trkpt lat="45.86411" lon="4.39639">
        <ele>630.6</ele>
        <time>2025-09-09T14:13:41Z</time>
      </trkpt>
      <trkpt lat="45.8641" lon="4.39637">
        <ele>630.6</ele>
        <time>2025-09-09T14:13:42Z</time>
      </trkpt>
      <trkpt lat="45.8641" lon="4.39635">
        <ele>630.4</ele>
        <time>2025-09-09T14:13:43Z</time>
      </trkpt>
      <trkpt lat="45.86409" lon="4.39632">
        <ele>629.8</ele>
        <time>2025-09-09T14:13:44Z</time>
      </trkpt>
      <trkpt lat="45.86408" lon="4.3963">
        <ele>629.4</ele>
        <time>2025-09-09T14:13:45Z</time>
      </trkpt>
      <trkpt lat="45.86406" lon="4.39627">
        <ele>629.2</ele>
        <time>2025-09-09T14:13:46Z</time>
      </trkpt>
      <trkpt lat="45.86405" lon="4.39624">
        <ele>629.2</ele>
        <time>2025-09-09T14:13:47Z</time>
      </trkpt>
      <trkpt lat="45.86404" lon="4.39621">
        <ele>629.2</ele>
        <time>2025-09-09T14:13:48Z</time>
      </trkpt>
      <trkpt lat="45.86403" lon="4.39619">
        <ele>629.2</ele>
        <time>2025-09-09T14:13:49Z</time>
      </trkpt>
      <trkpt lat="45.86402" lon="4.39617">
        <ele>628.8</ele>
        <time>2025-09-09T14:13:50Z</time>
      </trkpt>
      <trkpt lat="45.864" lon="4.39613">
        <ele>628.6</ele>
        <time>2025-09-09T14:13:58Z</time>
      </trkpt>
      <trkpt lat="45.864" lon="4.39611">
        <ele>628.2</ele>
        <time>2025-09-09T14:13:59Z</time>
      </trkpt>
      <trkpt lat="45.86399" lon="4.3961">
        <ele>628.2</ele>
        <time>2025-09-09T14:14:00Z</time>
      </trkpt>
      <trkpt lat="45.86399" lon="4.39609">
        <ele>628.2</ele>
        <time>2025-09-09T14:14:01Z</time>
      </trkpt>
      <trkpt lat="45.86399" lon="4.39608">
        <ele>627.8</ele>
        <time>2025-09-09T14:14:02Z</time>
      </trkpt>
      <trkpt lat="45.86398" lon="4.39607">
        <ele>627.8</ele>
        <time>2025-09-09T14:14:03Z</time>
      </trkpt>
      <trkpt lat="45.86397" lon="4.39605">
        <ele>627.4</ele>
        <time>2025-09-09T14:14:04Z</time>
      </trkpt>
      <trkpt lat="45.86396" lon="4.39604">
        <ele>627.4</ele>
        <time>2025-09-09T14:14:05Z</time>
      </trkpt>
      <trkpt lat="45.86395" lon="4.39602">
        <ele>627.4</ele>
        <time>2025-09-09T14:14:06Z</time>
      </trkpt>
      <trkpt lat="45.86394" lon="4.39599">
        <ele>627</ele>
        <time>2025-09-09T14:14:07Z</time>
      </trkpt>
      <trkpt lat="45.86392" lon="4.39596">
        <ele>626.8</ele>
        <time>2025-09-09T14:14:08Z</time>
      </trkpt>
      <trkpt lat="45.86391" lon="4.39593">
        <ele>626.8</ele>
        <time>2025-09-09T14:14:09Z</time>
      </trkpt>
      <trkpt lat="45.86389" lon="4.39592">
        <ele>626.6</ele>
        <time>2025-09-09T14:14:10Z</time>
      </trkpt>
      <trkpt lat="45.86387" lon="4.39589">
        <ele>626.6</ele>
        <time>2025-09-09T14:14:11Z</time>
      </trkpt>
      <trkpt lat="45.86384" lon="4.39587">
        <ele>626.6</ele>
        <time>2025-09-09T14:14:12Z</time>
      </trkpt>
      <trkpt lat="45.86381" lon="4.39583">
        <ele>626.6</ele>
        <time>2025-09-09T14:14:13Z</time>
      </trkpt>
      <trkpt lat="45.86379" lon="4.39579">
        <ele>626</ele>
        <time>2025-09-09T14:14:14Z</time>
      </trkpt>
      <trkpt lat="45.86377" lon="4.39577">
        <ele>626</ele>
        <time>2025-09-09T14:14:15Z</time>
      </trkpt>
      <trkpt lat="45.86376" lon="4.39575">
        <ele>625.6</ele>
        <time>2025-09-09T14:14:16Z</time>
      </trkpt>
      <trkpt lat="45.86374" lon="4.39573">
        <ele>625.2</ele>
        <time>2025-09-09T14:14:17Z</time>
      </trkpt>
      <trkpt lat="45.86373" lon="4.39571">
        <ele>624.8</ele>
        <time>2025-09-09T14:14:18Z</time>
      </trkpt>
      <trkpt lat="45.86372" lon="4.3957">
        <ele>624.6</ele>
        <time>2025-09-09T14:14:19Z</time>
      </trkpt>
      <trkpt lat="45.8637" lon="4.39567">
        <ele>624.4</ele>
        <time>2025-09-09T14:14:20Z</time>
      </trkpt>
      <trkpt lat="45.86369" lon="4.39564">
        <ele>624.4</ele>
        <time>2025-09-09T14:14:21Z</time>
      </trkpt>
      <trkpt lat="45.86367" lon="4.39561">
        <ele>624.4</ele>
        <time>2025-09-09T14:14:22Z</time>
      </trkpt>
      <trkpt lat="45.86366" lon="4.39559">
        <ele>624</ele>
        <time>2025-09-09T14:14:23Z</time>
      </trkpt>
      <trkpt lat="45.86364" lon="4.39558">
        <ele>624</ele>
        <time>2025-09-09T14:14:24Z</time>
      </trkpt>
      <trkpt lat="45.86363" lon="4.39556">
        <ele>623.8</ele>
        <time>2025-09-09T14:14:25Z</time>
      </trkpt>
      <trkpt lat="45.86361" lon="4.39554">
        <ele>623.4</ele>
        <time>2025-09-09T14:14:26Z</time>
      </trkpt>
      <trkpt lat="45.86358" lon="4.39554">
        <ele>623.2</ele>
        <time>2025-09-09T14:14:27Z</time>
      </trkpt>
      <trkpt lat="45.86356" lon="4.39553">
        <ele>622.8</ele>
        <time>2025-09-09T14:14:28Z</time>
      </trkpt>
      <trkpt lat="45.86355" lon="4.39553">
        <ele>622.2</ele>
        <time>2025-09-09T14:14:29Z</time>
      </trkpt>
      <trkpt lat="45.86353" lon="4.39552">
        <ele>622.2</ele>
        <time>2025-09-09T14:14:30Z</time>
      </trkpt>
      <trkpt lat="45.86352" lon="4.3955">
        <ele>622</ele>
        <time>2025-09-09T14:14:31Z</time>
      </trkpt>
      <trkpt lat="45.86349" lon="4.39548">
        <ele>622</ele>
        <time>2025-09-09T14:14:32Z</time>
      </trkpt>
      <trkpt lat="45.86347" lon="4.39546">
        <ele>621.4</ele>
        <time>2025-09-09T14:14:33Z</time>
      </trkpt>
      <trkpt lat="45.86345" lon="4.39544">
        <ele>621.2</ele>
        <time>2025-09-09T14:14:34Z</time>
      </trkpt>
      <trkpt lat="45.86342" lon="4.39542">
        <ele>621.2</ele>
        <time>2025-09-09T14:14:35Z</time>
      </trkpt>
      <trkpt lat="45.8634" lon="4.3954">
        <ele>621</ele>
        <time>2025-09-09T14:14:36Z</time>
      </trkpt>
      <trkpt lat="45.86337" lon="4.39538">
        <ele>621</ele>
        <time>2025-09-09T14:14:37Z</time>
      </trkpt>
      <trkpt lat="45.86334" lon="4.39537">
        <ele>621</ele>
        <time>2025-09-09T14:14:38Z</time>
      </trkpt>
      <trkpt lat="45.86332" lon="4.39535">
        <ele>620.6</ele>
        <time>2025-09-09T14:14:39Z</time>
      </trkpt>
      <trkpt lat="45.8633" lon="4.39533">
        <ele>620.2</ele>
        <time>2025-09-09T14:14:40Z</time>
      </trkpt>
      <trkpt lat="45.86329" lon="4.39531">
        <ele>620.2</ele>
        <time>2025-09-09T14:14:41Z</time>
      </trkpt>
      <trkpt lat="45.86326" lon="4.3953">
        <ele>620.2</ele>
        <time>2025-09-09T14:14:42Z</time>
      </trkpt>
      <trkpt lat="45.86323" lon="4.39528">
        <ele>619.8</ele>
        <time>2025-09-09T14:14:43Z</time>
      </trkpt>
      <trkpt lat="45.86321" lon="4.39528">
        <ele>619.6</ele>
        <time>2025-09-09T14:14:44Z</time>
      </trkpt>
      <trkpt lat="45.86318" lon="4.39528">
        <ele>619.6</ele>
        <time>2025-09-09T14:14:45Z</time>
      </trkpt>
      <trkpt lat="45.86314" lon="4.39528">
        <ele>618.8</ele>
        <time>2025-09-09T14:14:46Z</time>
      </trkpt>
      <trkpt lat="45.86311" lon="4.39528">
        <ele>618.8</ele>
        <time>2025-09-09T14:14:47Z</time>
      </trkpt>
      <trkpt lat="45.86307" lon="4.39527">
        <ele>618.8</ele>
        <time>2025-09-09T14:14:48Z</time>
      </trkpt>
      <trkpt lat="45.86305" lon="4.39526">
        <ele>618.6</ele>
        <time>2025-09-09T14:14:49Z</time>
      </trkpt>
      <trkpt lat="45.86303" lon="4.39525">
        <ele>618.2</ele>
        <time>2025-09-09T14:14:50Z</time>
      </trkpt>
      <trkpt lat="45.863" lon="4.39523">
        <ele>617.8</ele>
        <time>2025-09-09T14:14:51Z</time>
      </trkpt>
      <trkpt lat="45.86297" lon="4.39523">
        <ele>617.2</ele>
        <time>2025-09-09T14:14:52Z</time>
      </trkpt>
      <trkpt lat="45.86295" lon="4.39523">
        <ele>617</ele>
        <time>2025-09-09T14:14:53Z</time>
      </trkpt>
      <trkpt lat="45.86294" lon="4.39524">
        <ele>617</ele>
        <time>2025-09-09T14:14:54Z</time>
      </trkpt>
      <trkpt lat="45.86292" lon="4.39524">
        <ele>616.6</ele>
        <time>2025-09-09T14:14:55Z</time>
      </trkpt>
      <trkpt lat="45.86291" lon="4.39524">
        <ele>616.6</ele>
        <time>2025-09-09T14:14:56Z</time>
      </trkpt>
      <trkpt lat="45.86289" lon="4.39524">
        <ele>616.2</ele>
        <time>2025-09-09T14:14:57Z</time>
      </trkpt>
      <trkpt lat="45.86287" lon="4.39524">
        <ele>615.8</ele>
        <time>2025-09-09T14:14:58Z</time>
      </trkpt>
      <trkpt lat="45.86284" lon="4.39523">
        <ele>615.4</ele>
        <time>2025-09-09T14:14:59Z</time>
      </trkpt>
      <trkpt lat="45.86282" lon="4.39523">
        <ele>615.2</ele>
        <time>2025-09-09T14:15:00Z</time>
      </trkpt>
      <trkpt lat="45.8628" lon="4.39523">
        <ele>615</ele>
        <time>2025-09-09T14:15:01Z</time>
      </trkpt>
      <trkpt lat="45.86278" lon="4.39524">
        <ele>614.6</ele>
        <time>2025-09-09T14:15:02Z</time>
      </trkpt>
      <trkpt lat="45.86276" lon="4.39525">
        <ele>614.2</ele>
        <time>2025-09-09T14:15:03Z</time>
      </trkpt>
      <trkpt lat="45.86274" lon="4.39527">
        <ele>614</ele>
        <time>2025-09-09T14:15:04Z</time>
      </trkpt>
      <trkpt lat="45.86272" lon="4.39529">
        <ele>613.8</ele>
        <time>2025-09-09T14:15:05Z</time>
      </trkpt>
      <trkpt lat="45.86269" lon="4.39529">
        <ele>613.6</ele>
        <time>2025-09-09T14:15:06Z</time>
      </trkpt>
      <trkpt lat="45.86266" lon="4.39529">
        <ele>613</ele>
        <time>2025-09-09T14:15:07Z</time>
      </trkpt>
      <trkpt lat="45.86263" lon="4.39529">
        <ele>612.8</ele>
        <time>2025-09-09T14:15:08Z</time>
      </trkpt>
      <trkpt lat="45.8626" lon="4.39529">
        <ele>613.4</ele>
        <time>2025-09-09T14:15:09Z</time>
      </trkpt>
      <trkpt lat="45.86256" lon="4.39529">
        <ele>612.6</ele>
        <time>2025-09-09T14:15:10Z</time>
      </trkpt>
      <trkpt lat="45.86252" lon="4.3953">
        <ele>612</ele>
        <time>2025-09-09T14:15:11Z</time>
      </trkpt>
      <trkpt lat="45.86249" lon="4.3953">
        <ele>611.8</ele>
        <time>2025-09-09T14:15:12Z</time>
      </trkpt>
      <trkpt lat="45.86244" lon="4.39531">
        <ele>611.8</ele>
        <time>2025-09-09T14:15:13Z</time>
      </trkpt>
      <trkpt lat="45.8624" lon="4.39531">
        <ele>611.4</ele>
        <time>2025-09-09T14:15:14Z</time>
      </trkpt>
      <trkpt lat="45.86237" lon="4.39532">
        <ele>611.4</ele>
        <time>2025-09-09T14:15:15Z</time>
      </trkpt>
      <trkpt lat="45.86234" lon="4.39532">
        <ele>611.2</ele>
        <time>2025-09-09T14:15:16Z</time>
      </trkpt>
      <trkpt lat="45.86231" lon="4.39532">
        <ele>611.2</ele>
        <time>2025-09-09T14:15:17Z</time>
      </trkpt>
      <trkpt lat="45.86228" lon="4.39532">
        <ele>611.2</ele>
        <time>2025-09-09T14:15:18Z</time>
      </trkpt>
      <trkpt lat="45.86226" lon="4.39532">
        <ele>611.2</ele>
        <time>2025-09-09T14:15:19Z</time>
      </trkpt>
      <trkpt lat="45.86224" lon="4.39532">
        <ele>611.2</ele>
        <time>2025-09-09T14:15:20Z</time>
      </trkpt>
      <trkpt lat="45.86222" lon="4.39532">
        <ele>611</ele>
        <time>2025-09-09T14:15:21Z</time>
      </trkpt>
      <trkpt lat="45.86219" lon="4.39533">
        <ele>611</ele>
        <time>2025-09-09T14:15:22Z</time>
      </trkpt>
      <trkpt lat="45.86217" lon="4.39534">
        <ele>610.4</ele>
        <time>2025-09-09T14:15:23Z</time>
      </trkpt>
      <trkpt lat="45.86215" lon="4.39534">
        <ele>610.2</ele>
        <time>2025-09-09T14:15:24Z</time>
      </trkpt>
      <trkpt lat="45.86213" lon="4.39534">
        <ele>610.2</ele>
        <time>2025-09-09T14:15:25Z</time>
      </trkpt>
      <trkpt lat="45.86211" lon="4.39534">
        <ele>609.8</ele>
        <time>2025-09-09T14:15:26Z</time>
      </trkpt>
      <trkpt lat="45.86209" lon="4.39534">
        <ele>609.8</ele>
        <time>2025-09-09T14:15:27Z</time>
      </trkpt>
      <trkpt lat="45.86207" lon="4.39534">
        <ele>609.8</ele>
        <time>2025-09-09T14:15:28Z</time>
      </trkpt>
      <trkpt lat="45.86206" lon="4.39535">
        <ele>609.6</ele>
        <time>2025-09-09T14:15:29Z</time>
      </trkpt>
      <trkpt lat="45.86205" lon="4.39535">
        <ele>609.6</ele>
        <time>2025-09-09T14:15:30Z</time>
      </trkpt>
      <trkpt lat="45.86205" lon="4.39535">
        <ele>609.6</ele>
        <time>2025-09-09T14:15:31Z</time>
      </trkpt>
      <trkpt lat="45.86203" lon="4.39537">
        <ele>609</ele>
        <time>2025-09-09T14:15:43Z</time>
      </trkpt>
      <trkpt lat="45.86201" lon="4.39537">
        <ele>609</ele>
        <time>2025-09-09T14:15:44Z</time>
      </trkpt>
      <trkpt lat="45.86199" lon="4.39537">
        <ele>609</ele>
        <time>2025-09-09T14:15:45Z</time>
      </trkpt>
      <trkpt lat="45.86197" lon="4.39538">
        <ele>608.6</ele>
        <time>2025-09-09T14:15:46Z</time>
      </trkpt>
      <trkpt lat="45.86194" lon="4.39538">
        <ele>608.6</ele>
        <time>2025-09-09T14:15:47Z</time>
      </trkpt>
      <trkpt lat="45.86191" lon="4.39539">
        <ele>608.6</ele>
        <time>2025-09-09T14:15:48Z</time>
      </trkpt>
      <trkpt lat="45.86188" lon="4.3954">
        <ele>608.2</ele>
        <time>2025-09-09T14:15:49Z</time>
      </trkpt>
      <trkpt lat="45.86185" lon="4.39541">
        <ele>608</ele>
        <time>2025-09-09T14:15:50Z</time>
      </trkpt>
      <trkpt lat="45.86182" lon="4.39541">
        <ele>608</ele>
        <time>2025-09-09T14:15:51Z</time>
      </trkpt>
      <trkpt lat="45.86179" lon="4.39542">
        <ele>608</ele>
        <time>2025-09-09T14:15:52Z</time>
      </trkpt>
      <trkpt lat="45.86177" lon="4.39542">
        <ele>607.8</ele>
        <time>2025-09-09T14:15:53Z</time>
      </trkpt>
      <trkpt lat="45.86175" lon="4.39543">
        <ele>607.6</ele>
        <time>2025-09-09T14:15:54Z</time>
      </trkpt>
      <trkpt lat="45.86173" lon="4.39544">
        <ele>607.2</ele>
        <time>2025-09-09T14:15:55Z</time>
      </trkpt>
      <trkpt lat="45.86171" lon="4.39546">
        <ele>607.2</ele>
        <time>2025-09-09T14:15:56Z</time>
      </trkpt>
      <trkpt lat="45.86169" lon="4.39547">
        <ele>607</ele>
        <time>2025-09-09T14:15:57Z</time>
      </trkpt>
      <trkpt lat="45.86167" lon="4.39547">
        <ele>606.6</ele>
        <time>2025-09-09T14:15:58Z</time>
      </trkpt>
      <trkpt lat="45.86165" lon="4.39546">
        <ele>606.6</ele>
        <time>2025-09-09T14:15:59Z</time>
      </trkpt>
      <trkpt lat="45.86163" lon="4.39546">
        <ele>606.2</ele>
        <time>2025-09-09T14:16:00Z</time>
      </trkpt>
      <trkpt lat="45.8616" lon="4.39547">
        <ele>606.2</ele>
        <time>2025-09-09T14:16:01Z</time>
      </trkpt>
      <trkpt lat="45.86159" lon="4.39547">
        <ele>606</ele>
        <time>2025-09-09T14:16:02Z</time>
      </trkpt>
      <trkpt lat="45.86157" lon="4.39548">
        <ele>605.4</ele>
        <time>2025-09-09T14:16:03Z</time>
      </trkpt>
      <trkpt lat="45.86156" lon="4.39548">
        <ele>605</ele>
        <time>2025-09-09T14:16:04Z</time>
      </trkpt>
      <trkpt lat="45.86156" lon="4.39548">
        <ele>604.8</ele>
        <time>2025-09-09T14:16:05Z</time>
      </trkpt>
      <trkpt lat="45.86155" lon="4.39548">
        <ele>604.4</ele>
        <time>2025-09-09T14:16:06Z</time>
      </trkpt>
      <trkpt lat="45.86154" lon="4.39548">
        <ele>604.4</ele>
        <time>2025-09-09T14:16:07Z</time>
      </trkpt>
      <trkpt lat="45.86153" lon="4.39548">
        <ele>604.4</ele>
        <time>2025-09-09T14:16:08Z</time>
      </trkpt>
      <trkpt lat="45.86151" lon="4.39548">
        <ele>604.2</ele>
        <time>2025-09-09T14:16:09Z</time>
      </trkpt>
      <trkpt lat="45.8615" lon="4.39549">
        <ele>603.8</ele>
        <time>2025-09-09T14:16:10Z</time>
      </trkpt>
      <trkpt lat="45.86148" lon="4.3955">
        <ele>603.4</ele>
        <time>2025-09-09T14:16:11Z</time>
      </trkpt>
      <trkpt lat="45.86146" lon="4.39551">
        <ele>603</ele>
        <time>2025-09-09T14:16:12Z</time>
      </trkpt>
      <trkpt lat="45.86144" lon="4.39552">
        <ele>603</ele>
        <time>2025-09-09T14:16:13Z</time>
      </trkpt>
      <trkpt lat="45.86142" lon="4.39552">
        <ele>602.6</ele>
        <time>2025-09-09T14:16:14Z</time>
      </trkpt>
      <trkpt lat="45.86139" lon="4.39552">
        <ele>602.2</ele>
        <time>2025-09-09T14:16:15Z</time>
      </trkpt>
      <trkpt lat="45.86137" lon="4.39552">
        <ele>601.8</ele>
        <time>2025-09-09T14:16:16Z</time>
      </trkpt>
      <trkpt lat="45.86134" lon="4.39553">
        <ele>601.4</ele>
        <time>2025-09-09T14:16:17Z</time>
      </trkpt>
      <trkpt lat="45.86132" lon="4.39554">
        <ele>601</ele>
        <time>2025-09-09T14:16:18Z</time>
      </trkpt>
      <trkpt lat="45.8613" lon="4.39556">
        <ele>600.2</ele>
        <time>2025-09-09T14:16:19Z</time>
      </trkpt>
      <trkpt lat="45.86128" lon="4.39557">
        <ele>599.8</ele>
        <time>2025-09-09T14:16:20Z</time>
      </trkpt>
      <trkpt lat="45.86126" lon="4.39559">
        <ele>599.2</ele>
        <time>2025-09-09T14:16:21Z</time>
      </trkpt>
      <trkpt lat="45.86124" lon="4.39561">
        <ele>599.2</ele>
        <time>2025-09-09T14:16:22Z</time>
      </trkpt>
      <trkpt lat="45.86122" lon="4.39563">
        <ele>598.6</ele>
        <time>2025-09-09T14:16:23Z</time>
      </trkpt>
      <trkpt lat="45.8612" lon="4.39564">
        <ele>598</ele>
        <time>2025-09-09T14:16:24Z</time>
      </trkpt>
      <trkpt lat="45.86118" lon="4.39566">
        <ele>597.2</ele>
        <time>2025-09-09T14:16:25Z</time>
      </trkpt>
      <trkpt lat="45.86117" lon="4.39567">
        <ele>596.6</ele>
        <time>2025-09-09T14:16:26Z</time>
      </trkpt>
      <trkpt lat="45.86116" lon="4.39569">
        <ele>596.2</ele>
        <time>2025-09-09T14:16:27Z</time>
      </trkpt>
      <trkpt lat="45.86114" lon="4.3957">
        <ele>595.8</ele>
        <time>2025-09-09T14:16:28Z</time>
      </trkpt>
      <trkpt lat="45.86112" lon="4.39571">
        <ele>595.4</ele>
        <time>2025-09-09T14:16:29Z</time>
      </trkpt>
      <trkpt lat="45.86111" lon="4.39572">
        <ele>595.4</ele>
        <time>2025-09-09T14:16:30Z</time>
      </trkpt>
      <trkpt lat="45.8611" lon="4.39572">
        <ele>595</ele>
        <time>2025-09-09T14:16:31Z</time>
      </trkpt>
      <trkpt lat="45.86109" lon="4.39572">
        <ele>594.8</ele>
        <time>2025-09-09T14:16:32Z</time>
      </trkpt>
      <trkpt lat="45.86109" lon="4.39572">
        <ele>594.4</ele>
        <time>2025-09-09T14:16:33Z</time>
      </trkpt>
      <trkpt lat="45.86108" lon="4.39572">
        <ele>594</ele>
        <time>2025-09-09T14:16:34Z</time>
      </trkpt>
      <trkpt lat="45.86108" lon="4.39571">
        <ele>594</ele>
        <time>2025-09-09T14:16:35Z</time>
      </trkpt>
      <trkpt lat="45.8611" lon="4.3957">
        <ele>594</ele>
        <time>2025-09-09T14:16:36Z</time>
      </trkpt>
      <trkpt lat="45.86111" lon="4.39569">
        <ele>593.4</ele>
        <time>2025-09-09T14:16:37Z</time>
      </trkpt>
      <trkpt lat="45.86113" lon="4.39567">
        <ele>593</ele>
        <time>2025-09-09T14:16:38Z</time>
      </trkpt>
      <trkpt lat="45.86116" lon="4.39566">
        <ele>592.8</ele>
        <time>2025-09-09T14:16:39Z</time>
      </trkpt>
      <trkpt lat="45.86117" lon="4.39564">
        <ele>592.4</ele>
        <time>2025-09-09T14:16:40Z</time>
      </trkpt>
      <trkpt lat="45.86119" lon="4.39563">
        <ele>592.2</ele>
        <time>2025-09-09T14:16:41Z</time>
      </trkpt>
      <trkpt lat="45.8612" lon="4.39561">
        <ele>591.8</ele>
        <time>2025-09-09T14:16:42Z</time>
      </trkpt>
      <trkpt lat="45.8612" lon="4.39558">
        <ele>591.8</ele>
        <time>2025-09-09T14:16:43Z</time>
      </trkpt>
      <trkpt lat="45.8612" lon="4.39557">
        <ele>591.4</ele>
        <time>2025-09-09T14:16:44Z</time>
      </trkpt>
      <trkpt lat="45.86119" lon="4.39557">
        <ele>591.4</ele>
        <time>2025-09-09T14:16:45Z</time>
      </trkpt>
      <trkpt lat="45.86123" lon="4.39556">
        <ele>590.2</ele>
        <time>2025-09-09T14:17:02Z</time>
      </trkpt>
      <trkpt lat="45.86125" lon="4.39554">
        <ele>590</ele>
        <time>2025-09-09T14:17:03Z</time>
      </trkpt>
      <trkpt lat="45.86126" lon="4.39552">
        <ele>590</ele>
        <time>2025-09-09T14:17:04Z</time>
      </trkpt>
      <trkpt lat="45.86128" lon="4.3955">
        <ele>589.6</ele>
        <time>2025-09-09T14:17:05Z</time>
      </trkpt>
      <trkpt lat="45.86129" lon="4.39547">
        <ele>589.2</ele>
        <time>2025-09-09T14:17:06Z</time>
      </trkpt>
      <trkpt lat="45.8613" lon="4.39544">
        <ele>589.2</ele>
        <time>2025-09-09T14:17:07Z</time>
      </trkpt>
      <trkpt lat="45.86131" lon="4.3954">
        <ele>588.8</ele>
        <time>2025-09-09T14:17:08Z</time>
      </trkpt>
      <trkpt lat="45.86132" lon="4.39537">
        <ele>588.4</ele>
        <time>2025-09-09T14:17:09Z</time>
      </trkpt>
      <trkpt lat="45.86133" lon="4.39536">
        <ele>588.4</ele>
        <time>2025-09-09T14:17:10Z</time>
      </trkpt>
      <trkpt lat="45.86133" lon="4.39533">
        <ele>588.2</ele>
        <time>2025-09-09T14:17:11Z</time>
      </trkpt>
      <trkpt lat="45.86133" lon="4.39531">
        <ele>588</ele>
        <time>2025-09-09T14:17:12Z</time>
      </trkpt>
      <trkpt lat="45.86134" lon="4.39529">
        <ele>588</ele>
        <time>2025-09-09T14:17:13Z</time>
      </trkpt>
      <trkpt lat="45.86135" lon="4.39527">
        <ele>587.8</ele>
        <time>2025-09-09T14:17:14Z</time>
      </trkpt>
      <trkpt lat="45.86137" lon="4.39525">
        <ele>587.4</ele>
        <time>2025-09-09T14:17:15Z</time>
      </trkpt>
      <trkpt lat="45.86138" lon="4.39523">
        <ele>587.4</ele>
        <time>2025-09-09T14:17:16Z</time>
      </trkpt>
      <trkpt lat="45.8614" lon="4.3952">
        <ele>587</ele>
        <time>2025-09-09T14:17:17Z</time>
      </trkpt>
      <trkpt lat="45.86141" lon="4.39518">
        <ele>587</ele>
        <time>2025-09-09T14:17:18Z</time>
      </trkpt>
      <trkpt lat="45.86141" lon="4.39516">
        <ele>587</ele>
        <time>2025-09-09T14:17:19Z</time>
      </trkpt>
      <trkpt lat="45.8614" lon="4.39515">
        <ele>586.6</ele>
        <time>2025-09-09T14:17:20Z</time>
      </trkpt>
      <trkpt lat="45.86138" lon="4.3951">
        <ele>586.4</ele>
        <time>2025-09-09T14:17:49Z</time>
      </trkpt>
      <trkpt lat="45.86138" lon="4.3951">
        <ele>586.4</ele>
        <time>2025-09-09T14:17:50Z</time>
      </trkpt>
      <trkpt lat="45.8582" lon="4.39787">
        <ele>601.8</ele>
        <time>2025-09-09T14:35:01Z</time>
      </trkpt>
      <trkpt lat="45.85819" lon="4.39787">
        <ele>601.8</ele>
        <time>2025-09-09T14:35:02Z</time>
      </trkpt>
      <trkpt lat="45.85819" lon="4.39787">
        <ele>601.6</ele>
        <time>2025-09-09T14:35:03Z</time>
      </trkpt>
      <trkpt lat="45.85819" lon="4.39787">
        <ele>601.6</ele>
        <time>2025-09-09T14:35:04Z</time>
      </trkpt>
      <trkpt lat="45.85817" lon="4.39787">
        <ele>601.6</ele>
        <time>2025-09-09T14:35:06Z</time>
      </trkpt>
      <trkpt lat="45.85817" lon="4.39787">
        <ele>601.6</ele>
        <time>2025-09-09T14:35:07Z</time>
      </trkpt>
      <trkpt lat="45.85816" lon="4.39788">
        <ele>601.6</ele>
        <time>2025-09-09T14:35:08Z</time>
      </trkpt>
      <trkpt lat="45.85815" lon="4.39788">
        <ele>601.6</ele>
        <time>2025-09-09T14:35:09Z</time>
      </trkpt>
      <trkpt lat="45.85815" lon="4.39789">
        <ele>601.6</ele>
        <time>2025-09-09T14:35:10Z</time>
      </trkpt>
      <trkpt lat="45.85814" lon="4.39789">
        <ele>601.8</ele>
        <time>2025-09-09T14:35:11Z</time>
      </trkpt>
      <trkpt lat="45.85814" lon="4.39789">
        <ele>601.8</ele>
        <time>2025-09-09T14:35:12Z</time>
      </trkpt>
      <trkpt lat="45.85813" lon="4.39789">
        <ele>602</ele>
        <time>2025-09-09T14:35:17Z</time>
      </trkpt>
      <trkpt lat="45.85812" lon="4.39789">
        <ele>602</ele>
        <time>2025-09-09T14:35:18Z</time>
      </trkpt>
      <trkpt lat="45.85811" lon="4.39789">
        <ele>602</ele>
        <time>2025-09-09T14:35:19Z</time>
      </trkpt>
      <trkpt lat="45.85811" lon="4.39789">
        <ele>602.2</ele>
        <time>2025-09-09T14:35:20Z</time>
      </trkpt>
      <trkpt lat="45.85811" lon="4.39789">
        <ele>602.2</ele>
        <time>2025-09-09T14:35:21Z</time>
      </trkpt>
      <trkpt lat="45.85809" lon="4.39787">
        <ele>602.4</ele>
        <time>2025-09-09T14:35:33Z</time>
      </trkpt>
      <trkpt lat="45.85809" lon="4.39786">
        <ele>602.4</ele>
        <time>2025-09-09T14:35:34Z</time>
      </trkpt>
      <trkpt lat="45.85809" lon="4.39786">
        <ele>602.4</ele>
        <time>2025-09-09T14:35:35Z</time>
      </trkpt>
      <trkpt lat="45.85809" lon="4.39785">
        <ele>602.4</ele>
        <time>2025-09-09T14:35:36Z</time>
      </trkpt>
      <trkpt lat="45.85809" lon="4.39784">
        <ele>602.4</ele>
        <time>2025-09-09T14:35:37Z</time>
      </trkpt>
      <trkpt lat="45.85809" lon="4.39784">
        <ele>602.4</ele>
        <time>2025-09-09T14:35:38Z</time>
      </trkpt>
      <trkpt lat="45.85809" lon="4.39784">
        <ele>602</ele>
        <time>2025-09-09T14:35:39Z</time>
      </trkpt>
      <trkpt lat="45.8581" lon="4.39783">
        <ele>601.8</ele>
        <time>2025-09-09T14:35:43Z</time>
      </trkpt>
      <trkpt lat="45.85811" lon="4.39782">
        <ele>601.8</ele>
        <time>2025-09-09T14:35:44Z</time>
      </trkpt>
      <trkpt lat="45.85811" lon="4.3978">
        <ele>601.8</ele>
        <time>2025-09-09T14:35:45Z</time>
      </trkpt>
      <trkpt lat="45.85812" lon="4.39778">
        <ele>601.8</ele>
        <time>2025-09-09T14:35:46Z</time>
      </trkpt>
      <trkpt lat="45.85812" lon="4.39777">
        <ele>601.8</ele>
        <time>2025-09-09T14:35:47Z</time>
      </trkpt>
      <trkpt lat="45.85812" lon="4.39774">
        <ele>601.8</ele>
        <time>2025-09-09T14:35:48Z</time>
      </trkpt>
      <trkpt lat="45.85811" lon="4.3977">
        <ele>601.8</ele>
        <time>2025-09-09T14:35:49Z</time>
      </trkpt>
      <trkpt lat="45.8581" lon="4.39767">
        <ele>601.2</ele>
        <time>2025-09-09T14:35:50Z</time>
      </trkpt>
      <trkpt lat="45.85808" lon="4.39765">
        <ele>601.2</ele>
        <time>2025-09-09T14:35:51Z</time>
      </trkpt>
      <trkpt lat="45.85805" lon="4.39763">
        <ele>600.8</ele>
        <time>2025-09-09T14:35:52Z</time>
      </trkpt>
      <trkpt lat="45.85803" lon="4.39762">
        <ele>600.8</ele>
        <time>2025-09-09T14:35:53Z</time>
      </trkpt>
      <trkpt lat="45.858" lon="4.39761">
        <ele>600.6</ele>
        <time>2025-09-09T14:35:54Z</time>
      </trkpt>
      <trkpt lat="45.85797" lon="4.3976">
        <ele>600.2</ele>
        <time>2025-09-09T14:35:55Z</time>
      </trkpt>
      <trkpt lat="45.85794" lon="4.39759">
        <ele>600.2</ele>
        <time>2025-09-09T14:35:56Z</time>
      </trkpt>
      <trkpt lat="45.85792" lon="4.39758">
        <ele>600.2</ele>
        <time>2025-09-09T14:35:57Z</time>
      </trkpt>
      <trkpt lat="45.85789" lon="4.39758">
        <ele>600</ele>
        <time>2025-09-09T14:35:58Z</time>
      </trkpt>
      <trkpt lat="45.85787" lon="4.39757">
        <ele>600</ele>
        <time>2025-09-09T14:35:59Z</time>
      </trkpt>
      <trkpt lat="45.85785" lon="4.39757">
        <ele>600</ele>
        <time>2025-09-09T14:36:00Z</time>
      </trkpt>
      <trkpt lat="45.85783" lon="4.39756">
        <ele>600</ele>
        <time>2025-09-09T14:36:01Z</time>
      </trkpt>
      <trkpt lat="45.8578" lon="4.39755">
        <ele>600</ele>
        <time>2025-09-09T14:36:02Z</time>
      </trkpt>
      <trkpt lat="45.85778" lon="4.39753">
        <ele>600</ele>
        <time>2025-09-09T14:36:03Z</time>
      </trkpt>
      <trkpt lat="45.85776" lon="4.39751">
        <ele>600</ele>
        <time>2025-09-09T14:36:04Z</time>
      </trkpt>
      <trkpt lat="45.85775" lon="4.39747">
        <ele>599.6</ele>
        <time>2025-09-09T14:36:05Z</time>
      </trkpt>
      <trkpt lat="45.85774" lon="4.39744">
        <ele>599.6</ele>
        <time>2025-09-09T14:36:06Z</time>
      </trkpt>
      <trkpt lat="45.85773" lon="4.3974">
        <ele>599.4</ele>
        <time>2025-09-09T14:36:07Z</time>
      </trkpt>
      <trkpt lat="45.85773" lon="4.39737">
        <ele>599</ele>
        <time>2025-09-09T14:36:08Z</time>
      </trkpt>
      <trkpt lat="45.85773" lon="4.39734">
        <ele>599</ele>
        <time>2025-09-09T14:36:09Z</time>
      </trkpt>
      <trkpt lat="45.85773" lon="4.39731">
        <ele>599</ele>
        <time>2025-09-09T14:36:10Z</time>
      </trkpt>
      <trkpt lat="45.85774" lon="4.39728">
        <ele>599</ele>
        <time>2025-09-09T14:36:11Z</time>
      </trkpt>
      <trkpt lat="45.85774" lon="4.39725">
        <ele>598.8</ele>
        <time>2025-09-09T14:36:12Z</time>
      </trkpt>
      <trkpt lat="45.85775" lon="4.39722">
        <ele>598.8</ele>
        <time>2025-09-09T14:36:13Z</time>
      </trkpt>
      <trkpt lat="45.85776" lon="4.39719">
        <ele>598.8</ele>
        <time>2025-09-09T14:36:14Z</time>
      </trkpt>
      <trkpt lat="45.85778" lon="4.39716">
        <ele>598.8</ele>
        <time>2025-09-09T14:36:15Z</time>
      </trkpt>
      <trkpt lat="45.8578" lon="4.39714">
        <ele>598.6</ele>
        <time>2025-09-09T14:36:16Z</time>
      </trkpt>
      <trkpt lat="45.85782" lon="4.39711">
        <ele>598.6</ele>
        <time>2025-09-09T14:36:17Z</time>
      </trkpt>
      <trkpt lat="45.85783" lon="4.39707">
        <ele>598.6</ele>
        <time>2025-09-09T14:36:18Z</time>
      </trkpt>
      <trkpt lat="45.85785" lon="4.39704">
        <ele>598.6</ele>
        <time>2025-09-09T14:36:19Z</time>
      </trkpt>
      <trkpt lat="45.85786" lon="4.397">
        <ele>598.6</ele>
        <time>2025-09-09T14:36:20Z</time>
      </trkpt>
      <trkpt lat="45.85787" lon="4.39698">
        <ele>598.6</ele>
        <time>2025-09-09T14:36:21Z</time>
      </trkpt>
      <trkpt lat="45.85788" lon="4.39695">
        <ele>598.6</ele>
        <time>2025-09-09T14:36:22Z</time>
      </trkpt>
      <trkpt lat="45.85789" lon="4.39693">
        <ele>598.6</ele>
        <time>2025-09-09T14:36:23Z</time>
      </trkpt>
      <trkpt lat="45.8579" lon="4.39691">
        <ele>598.6</ele>
        <time>2025-09-09T14:36:24Z</time>
      </trkpt>
      <trkpt lat="45.85791" lon="4.39689">
        <ele>598.6</ele>
        <time>2025-09-09T14:36:25Z</time>
      </trkpt>
      <trkpt lat="45.85793" lon="4.39687">
        <ele>598.6</ele>
        <time>2025-09-09T14:36:26Z</time>
      </trkpt>
      <trkpt lat="45.85794" lon="4.39684">
        <ele>598.6</ele>
        <time>2025-09-09T14:36:27Z</time>
      </trkpt>
      <trkpt lat="45.85796" lon="4.39682">
        <ele>598.4</ele>
        <time>2025-09-09T14:36:28Z</time>
      </trkpt>
      <trkpt lat="45.85797" lon="4.39679">
        <ele>598.4</ele>
        <time>2025-09-09T14:36:29Z</time>
      </trkpt>
      <trkpt lat="45.858" lon="4.39676">
        <ele>598.2</ele>
        <time>2025-09-09T14:36:30Z</time>
      </trkpt>
      <trkpt lat="45.85802" lon="4.39674">
        <ele>598</ele>
        <time>2025-09-09T14:36:31Z</time>
      </trkpt>
      <trkpt lat="45.85803" lon="4.39672">
        <ele>598</ele>
        <time>2025-09-09T14:36:32Z</time>
      </trkpt>
      <trkpt lat="45.85804" lon="4.39669">
        <ele>598</ele>
        <time>2025-09-09T14:36:33Z</time>
      </trkpt>
      <trkpt lat="45.85805" lon="4.39666">
        <ele>598</ele>
        <time>2025-09-09T14:36:34Z</time>
      </trkpt>
      <trkpt lat="45.85806" lon="4.39663">
        <ele>598</ele>
        <time>2025-09-09T14:36:35Z</time>
      </trkpt>
      <trkpt lat="45.85808" lon="4.39661">
        <ele>598</ele>
        <time>2025-09-09T14:36:36Z</time>
      </trkpt>
      <trkpt lat="45.85809" lon="4.39658">
        <ele>598</ele>
        <time>2025-09-09T14:36:37Z</time>
      </trkpt>
      <trkpt lat="45.8581" lon="4.39655">
        <ele>598</ele>
        <time>2025-09-09T14:36:38Z</time>
      </trkpt>
      <trkpt lat="45.85811" lon="4.39652">
        <ele>598</ele>
        <time>2025-09-09T14:36:39Z</time>
      </trkpt>
      <trkpt lat="45.85813" lon="4.39649">
        <ele>598.2</ele>
        <time>2025-09-09T14:36:40Z</time>
      </trkpt>
      <trkpt lat="45.85814" lon="4.39646">
        <ele>598.2</ele>
        <time>2025-09-09T14:36:41Z</time>
      </trkpt>
      <trkpt lat="45.85815" lon="4.39644">
        <ele>598.4</ele>
        <time>2025-09-09T14:36:42Z</time>
      </trkpt>
      <trkpt lat="45.85816" lon="4.39641">
        <ele>598.4</ele>
        <time>2025-09-09T14:36:43Z</time>
      </trkpt>
      <trkpt lat="45.85817" lon="4.39639">
        <ele>598.4</ele>
        <time>2025-09-09T14:36:44Z</time>
      </trkpt>
      <trkpt lat="45.85818" lon="4.39637">
        <ele>598.8</ele>
        <time>2025-09-09T14:36:45Z</time>
      </trkpt>
      <trkpt lat="45.8582" lon="4.39633">
        <ele>598.8</ele>
        <time>2025-09-09T14:36:46Z</time>
      </trkpt>
      <trkpt lat="45.85821" lon="4.3963">
        <ele>598.8</ele>
        <time>2025-09-09T14:36:47Z</time>
      </trkpt>
      <trkpt lat="45.85821" lon="4.39629">
        <ele>599</ele>
        <time>2025-09-09T14:36:48Z</time>
      </trkpt>
      <trkpt lat="45.85822" lon="4.39627">
        <ele>599</ele>
        <time>2025-09-09T14:36:49Z</time>
      </trkpt>
      <trkpt lat="45.85823" lon="4.39625">
        <ele>599.4</ele>
        <time>2025-09-09T14:36:50Z</time>
      </trkpt>
      <trkpt lat="45.85824" lon="4.39623">
        <ele>599.6</ele>
        <time>2025-09-09T14:36:51Z</time>
      </trkpt>
      <trkpt lat="45.85825" lon="4.39622">
        <ele>599.6</ele>
        <time>2025-09-09T14:36:52Z</time>
      </trkpt>
      <trkpt lat="45.85826" lon="4.39619">
        <ele>599.8</ele>
        <time>2025-09-09T14:36:53Z</time>
      </trkpt>
      <trkpt lat="45.85827" lon="4.39617">
        <ele>599.8</ele>
        <time>2025-09-09T14:36:54Z</time>
      </trkpt>
      <trkpt lat="45.85828" lon="4.39615">
        <ele>599.8</ele>
        <time>2025-09-09T14:36:55Z</time>
      </trkpt>
      <trkpt lat="45.85828" lon="4.39613">
        <ele>599.8</ele>
        <time>2025-09-09T14:36:56Z</time>
      </trkpt>
      <trkpt lat="45.85829" lon="4.39611">
        <ele>600.2</ele>
        <time>2025-09-09T14:36:57Z</time>
      </trkpt>
      <trkpt lat="45.8583" lon="4.39608">
        <ele>600.2</ele>
        <time>2025-09-09T14:36:58Z</time>
      </trkpt>
      <trkpt lat="45.85831" lon="4.39607">
        <ele>600.8</ele>
        <time>2025-09-09T14:36:59Z</time>
      </trkpt>
      <trkpt lat="45.85831" lon="4.39605">
        <ele>600.8</ele>
        <time>2025-09-09T14:37:00Z</time>
      </trkpt>
      <trkpt lat="45.85831" lon="4.39602">
        <ele>601</ele>
        <time>2025-09-09T14:37:01Z</time>
      </trkpt>
      <trkpt lat="45.85832" lon="4.396">
        <ele>601.2</ele>
        <time>2025-09-09T14:37:02Z</time>
      </trkpt>
      <trkpt lat="45.85832" lon="4.39599">
        <ele>601.2</ele>
        <time>2025-09-09T14:37:03Z</time>
      </trkpt>
      <trkpt lat="45.85833" lon="4.39597">
        <ele>601.6</ele>
        <time>2025-09-09T14:37:04Z</time>
      </trkpt>
      <trkpt lat="45.85833" lon="4.39596">
        <ele>601.8</ele>
        <time>2025-09-09T14:37:05Z</time>
      </trkpt>
      <trkpt lat="45.85834" lon="4.39595">
        <ele>601.8</ele>
        <time>2025-09-09T14:37:06Z</time>
      </trkpt>
      <trkpt lat="45.85835" lon="4.39593">
        <ele>601.8</ele>
        <time>2025-09-09T14:37:07Z</time>
      </trkpt>
      <trkpt lat="45.85836" lon="4.39591">
        <ele>601.8</ele>
        <time>2025-09-09T14:37:08Z</time>
      </trkpt>
      <trkpt lat="45.85836" lon="4.39589">
        <ele>602.2</ele>
        <time>2025-09-09T14:37:09Z</time>
      </trkpt>
      <trkpt lat="45.85836" lon="4.39588">
        <ele>602.2</ele>
        <time>2025-09-09T14:37:10Z</time>
      </trkpt>
      <trkpt lat="45.85837" lon="4.39586">
        <ele>602.4</ele>
        <time>2025-09-09T14:37:11Z</time>
      </trkpt>
      <trkpt lat="45.85837" lon="4.39584">
        <ele>602.4</ele>
        <time>2025-09-09T14:37:12Z</time>
      </trkpt>
      <trkpt lat="45.85837" lon="4.39583">
        <ele>602.4</ele>
        <time>2025-09-09T14:37:13Z</time>
      </trkpt>
      <trkpt lat="45.85837" lon="4.39581">
        <ele>602.8</ele>
        <time>2025-09-09T14:37:14Z</time>
      </trkpt>
      <trkpt lat="45.85837" lon="4.39579">
        <ele>602.8</ele>
        <time>2025-09-09T14:37:15Z</time>
      </trkpt>
      <trkpt lat="45.85836" lon="4.39577">
        <ele>602.8</ele>
        <time>2025-09-09T14:37:16Z</time>
      </trkpt>
      <trkpt lat="45.85836" lon="4.39574">
        <ele>602.8</ele>
        <time>2025-09-09T14:37:17Z</time>
      </trkpt>
      <trkpt lat="45.85835" lon="4.39572">
        <ele>603</ele>
        <time>2025-09-09T14:37:18Z</time>
      </trkpt>
      <trkpt lat="45.85835" lon="4.39571">
        <ele>603</ele>
        <time>2025-09-09T14:37:19Z</time>
      </trkpt>
      <trkpt lat="45.85834" lon="4.39569">
        <ele>603</ele>
        <time>2025-09-09T14:37:20Z</time>
      </trkpt>
      <trkpt lat="45.85834" lon="4.39567">
        <ele>603.4</ele>
        <time>2025-09-09T14:37:21Z</time>
      </trkpt>
      <trkpt lat="45.85833" lon="4.39565">
        <ele>603.4</ele>
        <time>2025-09-09T14:37:22Z</time>
      </trkpt>
      <trkpt lat="45.85832" lon="4.39563">
        <ele>603.6</ele>
        <time>2025-09-09T14:37:23Z</time>
      </trkpt>
      <trkpt lat="45.8583" lon="4.39561">
        <ele>603.6</ele>
        <time>2025-09-09T14:37:24Z</time>
      </trkpt>
      <trkpt lat="45.8583" lon="4.39559">
        <ele>603.6</ele>
        <time>2025-09-09T14:37:25Z</time>
      </trkpt>
      <trkpt lat="45.85829" lon="4.39557">
        <ele>604</ele>
        <time>2025-09-09T14:37:26Z</time>
      </trkpt>
      <trkpt lat="45.85828" lon="4.39556">
        <ele>604.2</ele>
        <time>2025-09-09T14:37:27Z</time>
      </trkpt>
      <trkpt lat="45.85827" lon="4.39554">
        <ele>604.2</ele>
        <time>2025-09-09T14:37:28Z</time>
      </trkpt>
      <trkpt lat="45.85826" lon="4.39553">
        <ele>604.4</ele>
        <time>2025-09-09T14:37:29Z</time>
      </trkpt>
      <trkpt lat="45.85825" lon="4.39551">
        <ele>604.4</ele>
        <time>2025-09-09T14:37:30Z</time>
      </trkpt>
      <trkpt lat="45.85825" lon="4.3955">
        <ele>604.4</ele>
        <time>2025-09-09T14:37:31Z</time>
      </trkpt>
      <trkpt lat="45.85824" lon="4.39548">
        <ele>604.4</ele>
        <time>2025-09-09T14:37:32Z</time>
      </trkpt>
      <trkpt lat="45.85824" lon="4.39547">
        <ele>604.8</ele>
        <time>2025-09-09T14:37:33Z</time>
      </trkpt>
      <trkpt lat="45.85823" lon="4.39545">
        <ele>604.8</ele>
        <time>2025-09-09T14:37:34Z</time>
      </trkpt>
      <trkpt lat="45.85822" lon="4.39543">
        <ele>605.2</ele>
        <time>2025-09-09T14:37:35Z</time>
      </trkpt>
      <trkpt lat="45.85821" lon="4.39542">
        <ele>605.2</ele>
        <time>2025-09-09T14:37:36Z</time>
      </trkpt>
      <trkpt lat="45.85819" lon="4.39541">
        <ele>605.2</ele>
        <time>2025-09-09T14:37:37Z</time>
      </trkpt>
      <trkpt lat="45.85818" lon="4.39539">
        <ele>605.2</ele>
        <time>2025-09-09T14:37:38Z</time>
      </trkpt>
      <trkpt lat="45.85816" lon="4.39538">
        <ele>605.6</ele>
        <time>2025-09-09T14:37:39Z</time>
      </trkpt>
      <trkpt lat="45.85815" lon="4.39536">
        <ele>605.6</ele>
        <time>2025-09-09T14:37:40Z</time>
      </trkpt>
      <trkpt lat="45.85814" lon="4.39534">
        <ele>605.6</ele>
        <time>2025-09-09T14:37:41Z</time>
      </trkpt>
      <trkpt lat="45.85814" lon="4.39533">
        <ele>605.6</ele>
        <time>2025-09-09T14:37:42Z</time>
      </trkpt>
      <trkpt lat="45.85813" lon="4.39532">
        <ele>605.6</ele>
        <time>2025-09-09T14:37:43Z</time>
      </trkpt>
      <trkpt lat="45.85813" lon="4.3953">
        <ele>605.8</ele>
        <time>2025-09-09T14:37:44Z</time>
      </trkpt>
      <trkpt lat="45.85812" lon="4.39529">
        <ele>605.8</ele>
        <time>2025-09-09T14:37:45Z</time>
      </trkpt>
      <trkpt lat="45.85811" lon="4.39528">
        <ele>605.8</ele>
        <time>2025-09-09T14:37:46Z</time>
      </trkpt>
      <trkpt lat="45.85811" lon="4.39527">
        <ele>605.8</ele>
        <time>2025-09-09T14:37:47Z</time>
      </trkpt>
      <trkpt lat="45.85811" lon="4.39527">
        <ele>605.8</ele>
        <time>2025-09-09T14:37:48Z</time>
      </trkpt>
      <trkpt lat="45.85809" lon="4.39526">
        <ele>605.6</ele>
        <time>2025-09-09T14:37:55Z</time>
      </trkpt>
      <trkpt lat="45.85808" lon="4.39525">
        <ele>605.6</ele>
        <time>2025-09-09T14:37:56Z</time>
      </trkpt>
      <trkpt lat="45.85807" lon="4.39523">
        <ele>605.8</ele>
        <time>2025-09-09T14:37:57Z</time>
      </trkpt>
      <trkpt lat="45.85806" lon="4.39521">
        <ele>605.8</ele>
        <time>2025-09-09T14:37:58Z</time>
      </trkpt>
      <trkpt lat="45.85806" lon="4.3952">
        <ele>606.2</ele>
        <time>2025-09-09T14:37:59Z</time>
      </trkpt>
      <trkpt lat="45.85805" lon="4.39518">
        <ele>606.2</ele>
        <time>2025-09-09T14:38:00Z</time>
      </trkpt>
      <trkpt lat="45.85804" lon="4.39517">
        <ele>606.2</ele>
        <time>2025-09-09T14:38:01Z</time>
      </trkpt>
      <trkpt lat="45.85803" lon="4.39517">
        <ele>606.4</ele>
        <time>2025-09-09T14:38:02Z</time>
      </trkpt>
      <trkpt lat="45.85802" lon="4.39517">
        <ele>606.8</ele>
        <time>2025-09-09T14:38:03Z</time>
      </trkpt>
      <trkpt lat="45.85801" lon="4.39516">
        <ele>606.8</ele>
        <time>2025-09-09T14:38:04Z</time>
      </trkpt>
      <trkpt lat="45.858" lon="4.39515">
        <ele>606.8</ele>
        <time>2025-09-09T14:38:05Z</time>
      </trkpt>
      <trkpt lat="45.85799" lon="4.39515">
        <ele>606.8</ele>
        <time>2025-09-09T14:38:06Z</time>
      </trkpt>
      <trkpt lat="45.85798" lon="4.39514">
        <ele>607</ele>
        <time>2025-09-09T14:38:07Z</time>
      </trkpt>
      <trkpt lat="45.85798" lon="4.39513">
        <ele>607</ele>
        <time>2025-09-09T14:38:08Z</time>
      </trkpt>
      <trkpt lat="45.85797" lon="4.39513">
        <ele>607</ele>
        <time>2025-09-09T14:38:09Z</time>
      </trkpt>
      <trkpt lat="45.85797" lon="4.39513">
        <ele>607.4</ele>
        <time>2025-09-09T14:38:10Z</time>
      </trkpt>
      <trkpt lat="45.85796" lon="4.39512">
        <ele>607.4</ele>
        <time>2025-09-09T14:38:11Z</time>
      </trkpt>
      <trkpt lat="45.85796" lon="4.39511">
        <ele>607.6</ele>
        <time>2025-09-09T14:38:12Z</time>
      </trkpt>
      <trkpt lat="45.85795" lon="4.39509">
        <ele>607.6</ele>
        <time>2025-09-09T14:38:13Z</time>
      </trkpt>
      <trkpt lat="45.85795" lon="4.39509">
        <ele>607.8</ele>
        <time>2025-09-09T14:38:14Z</time>
      </trkpt>
      <trkpt lat="45.85794" lon="4.39509">
        <ele>607.8</ele>
        <time>2025-09-09T14:38:15Z</time>
      </trkpt>
      <trkpt lat="45.85794" lon="4.39507">
        <ele>608</ele>
        <time>2025-09-09T14:38:16Z</time>
      </trkpt>
      <trkpt lat="45.85794" lon="4.39506">
        <ele>608</ele>
        <time>2025-09-09T14:38:17Z</time>
      </trkpt>
      <trkpt lat="45.85793" lon="4.39505">
        <ele>608</ele>
        <time>2025-09-09T14:38:18Z</time>
      </trkpt>
      <trkpt lat="45.85793" lon="4.39504">
        <ele>608.4</ele>
        <time>2025-09-09T14:38:19Z</time>
      </trkpt>
      <trkpt lat="45.85793" lon="4.39504">
        <ele>608.6</ele>
        <time>2025-09-09T14:38:20Z</time>
      </trkpt>
      <trkpt lat="45.85792" lon="4.39503">
        <ele>608.8</ele>
        <time>2025-09-09T14:38:21Z</time>
      </trkpt>
      <trkpt lat="45.85792" lon="4.39502">
        <ele>608.8</ele>
        <time>2025-09-09T14:38:22Z</time>
      </trkpt>
      <trkpt lat="45.85792" lon="4.39502">
        <ele>609.2</ele>
        <time>2025-09-09T14:38:23Z</time>
      </trkpt>
      <trkpt lat="45.85791" lon="4.39501">
        <ele>609.2</ele>
        <time>2025-09-09T14:38:24Z</time>
      </trkpt>
      <trkpt lat="45.85791" lon="4.395">
        <ele>609.4</ele>
        <time>2025-09-09T14:38:25Z</time>
      </trkpt>
      <trkpt lat="45.85791" lon="4.39499">
        <ele>609.4</ele>
        <time>2025-09-09T14:38:26Z</time>
      </trkpt>
      <trkpt lat="45.8579" lon="4.39498">
        <ele>609.4</ele>
        <time>2025-09-09T14:38:27Z</time>
      </trkpt>
      <trkpt lat="45.85789" lon="4.39497">
        <ele>609.6</ele>
        <time>2025-09-09T14:38:28Z</time>
      </trkpt>
      <trkpt lat="45.85788" lon="4.39496">
        <ele>609.6</ele>
        <time>2025-09-09T14:38:29Z</time>
      </trkpt>
      <trkpt lat="45.85788" lon="4.39495">
        <ele>609.8</ele>
        <time>2025-09-09T14:38:30Z</time>
      </trkpt>
      <trkpt lat="45.85787" lon="4.39495">
        <ele>610</ele>
        <time>2025-09-09T14:38:31Z</time>
      </trkpt>
      <trkpt lat="45.85787" lon="4.39494">
        <ele>610</ele>
        <time>2025-09-09T14:38:32Z</time>
      </trkpt>
      <trkpt lat="45.85785" lon="4.39494">
        <ele>610.2</ele>
        <time>2025-09-09T14:38:33Z</time>
      </trkpt>
      <trkpt lat="45.85785" lon="4.39493">
        <ele>610.2</ele>
        <time>2025-09-09T14:38:34Z</time>
      </trkpt>
      <trkpt lat="45.85784" lon="4.39492">
        <ele>610.6</ele>
        <time>2025-09-09T14:38:35Z</time>
      </trkpt>
      <trkpt lat="45.85784" lon="4.39492">
        <ele>610.8</ele>
        <time>2025-09-09T14:38:36Z</time>
      </trkpt>
      <trkpt lat="45.85783" lon="4.39491">
        <ele>611</ele>
        <time>2025-09-09T14:38:37Z</time>
      </trkpt>
      <trkpt lat="45.85782" lon="4.3949">
        <ele>611</ele>
        <time>2025-09-09T14:38:38Z</time>
      </trkpt>
      <trkpt lat="45.85782" lon="4.39489">
        <ele>611.2</ele>
        <time>2025-09-09T14:38:39Z</time>
      </trkpt>
      <trkpt lat="45.85781" lon="4.39488">
        <ele>611.2</ele>
        <time>2025-09-09T14:38:40Z</time>
      </trkpt>
      <trkpt lat="45.85779" lon="4.39487">
        <ele>611.2</ele>
        <time>2025-09-09T14:38:41Z</time>
      </trkpt>
      <trkpt lat="45.85778" lon="4.39486">
        <ele>611.2</ele>
        <time>2025-09-09T14:38:42Z</time>
      </trkpt>
      <trkpt lat="45.85777" lon="4.39486">
        <ele>611.6</ele>
        <time>2025-09-09T14:38:43Z</time>
      </trkpt>
      <trkpt lat="45.85776" lon="4.39486">
        <ele>611.6</ele>
        <time>2025-09-09T14:38:44Z</time>
      </trkpt>
      <trkpt lat="45.85776" lon="4.39486">
        <ele>611.6</ele>
        <time>2025-09-09T14:38:45Z</time>
      </trkpt>
      <trkpt lat="45.85776" lon="4.39487">
        <ele>611.6</ele>
        <time>2025-09-09T14:38:46Z</time>
      </trkpt>
      <trkpt lat="45.85775" lon="4.39488">
        <ele>611.6</ele>
        <time>2025-09-09T14:38:47Z</time>
      </trkpt>
      <trkpt lat="45.85775" lon="4.39488">
        <ele>611.8</ele>
        <time>2025-09-09T14:38:48Z</time>
      </trkpt>
      <trkpt lat="45.85774" lon="4.39488">
        <ele>611.8</ele>
        <time>2025-09-09T14:38:49Z</time>
      </trkpt>
      <trkpt lat="45.85772" lon="4.39487">
        <ele>611.6</ele>
        <time>2025-09-09T14:38:57Z</time>
      </trkpt>
      <trkpt lat="45.8577" lon="4.39487">
        <ele>611.6</ele>
        <time>2025-09-09T14:38:58Z</time>
      </trkpt>
      <trkpt lat="45.85769" lon="4.39486">
        <ele>611.6</ele>
        <time>2025-09-09T14:38:59Z</time>
      </trkpt>
      <trkpt lat="45.85768" lon="4.39485">
        <ele>611.6</ele>
        <time>2025-09-09T14:39:00Z</time>
      </trkpt>
      <trkpt lat="45.85767" lon="4.39484">
        <ele>612</ele>
        <time>2025-09-09T14:39:01Z</time>
      </trkpt>
      <trkpt lat="45.85766" lon="4.39483">
        <ele>612</ele>
        <time>2025-09-09T14:39:02Z</time>
      </trkpt>
      <trkpt lat="45.85765" lon="4.39481">
        <ele>612</ele>
        <time>2025-09-09T14:39:03Z</time>
      </trkpt>
      <trkpt lat="45.85763" lon="4.3948">
        <ele>612.4</ele>
        <time>2025-09-09T14:39:04Z</time>
      </trkpt>
      <trkpt lat="45.85762" lon="4.39479">
        <ele>612.4</ele>
        <time>2025-09-09T14:39:05Z</time>
      </trkpt>
      <trkpt lat="45.85761" lon="4.39479">
        <ele>612.6</ele>
        <time>2025-09-09T14:39:06Z</time>
      </trkpt>
      <trkpt lat="45.8576" lon="4.39478">
        <ele>612.8</ele>
        <time>2025-09-09T14:39:07Z</time>
      </trkpt>
      <trkpt lat="45.85759" lon="4.39477">
        <ele>612.8</ele>
        <time>2025-09-09T14:39:08Z</time>
      </trkpt>
      <trkpt lat="45.85757" lon="4.39476">
        <ele>613</ele>
        <time>2025-09-09T14:39:09Z</time>
      </trkpt>
      <trkpt lat="45.85756" lon="4.39476">
        <ele>613</ele>
        <time>2025-09-09T14:39:10Z</time>
      </trkpt>
      <trkpt lat="45.85755" lon="4.39475">
        <ele>613.2</ele>
        <time>2025-09-09T14:39:11Z</time>
      </trkpt>
      <trkpt lat="45.85755" lon="4.39475">
        <ele>613.2</ele>
        <time>2025-09-09T14:39:12Z</time>
      </trkpt>
      <trkpt lat="45.85754" lon="4.39475">
        <ele>613.6</ele>
        <time>2025-09-09T14:39:13Z</time>
      </trkpt>
      <trkpt lat="45.85753" lon="4.39473">
        <ele>613.6</ele>
        <time>2025-09-09T14:39:14Z</time>
      </trkpt>
      <trkpt lat="45.85752" lon="4.39472">
        <ele>614</ele>
        <time>2025-09-09T14:39:15Z</time>
      </trkpt>
      <trkpt lat="45.85751" lon="4.39471">
        <ele>614</ele>
        <time>2025-09-09T14:39:16Z</time>
      </trkpt>
      <trkpt lat="45.85749" lon="4.39471">
        <ele>614</ele>
        <time>2025-09-09T14:39:17Z</time>
      </trkpt>
      <trkpt lat="45.85748" lon="4.39471">
        <ele>614.2</ele>
        <time>2025-09-09T14:39:18Z</time>
      </trkpt>
      <trkpt lat="45.85746" lon="4.39471">
        <ele>614.4</ele>
        <time>2025-09-09T14:39:19Z</time>
      </trkpt>
      <trkpt lat="45.85745" lon="4.39472">
        <ele>614.4</ele>
        <time>2025-09-09T14:39:20Z</time>
      </trkpt>
      <trkpt lat="45.85743" lon="4.39472">
        <ele>614.4</ele>
        <time>2025-09-09T14:39:21Z</time>
      </trkpt>
      <trkpt lat="45.85742" lon="4.39472">
        <ele>614.8</ele>
        <time>2025-09-09T14:39:22Z</time>
      </trkpt>
      <trkpt lat="45.85741" lon="4.39472">
        <ele>614.8</ele>
        <time>2025-09-09T14:39:23Z</time>
      </trkpt>
      <trkpt lat="45.85739" lon="4.39471">
        <ele>615</ele>
        <time>2025-09-09T14:39:24Z</time>
      </trkpt>
      <trkpt lat="45.85738" lon="4.39471">
        <ele>615.2</ele>
        <time>2025-09-09T14:39:25Z</time>
      </trkpt>
      <trkpt lat="45.85736" lon="4.39472">
        <ele>615.6</ele>
        <time>2025-09-09T14:39:26Z</time>
      </trkpt>
      <trkpt lat="45.85734" lon="4.39472">
        <ele>615.6</ele>
        <time>2025-09-09T14:39:27Z</time>
      </trkpt>
      <trkpt lat="45.85733" lon="4.39471">
        <ele>615.8</ele>
        <time>2025-09-09T14:39:28Z</time>
      </trkpt>
      <trkpt lat="45.85732" lon="4.3947">
        <ele>615.8</ele>
        <time>2025-09-09T14:39:29Z</time>
      </trkpt>
      <trkpt lat="45.85731" lon="4.39469">
        <ele>616</ele>
        <time>2025-09-09T14:39:30Z</time>
      </trkpt>
      <trkpt lat="45.8573" lon="4.39468">
        <ele>616</ele>
        <time>2025-09-09T14:39:31Z</time>
      </trkpt>
      <trkpt lat="45.85729" lon="4.39468">
        <ele>616.2</ele>
        <time>2025-09-09T14:39:32Z</time>
      </trkpt>
      <trkpt lat="45.85728" lon="4.39468">
        <ele>616.2</ele>
        <time>2025-09-09T14:39:33Z</time>
      </trkpt>
      <trkpt lat="45.85728" lon="4.39469">
        <ele>616.2</ele>
        <time>2025-09-09T14:39:34Z</time>
      </trkpt>
      <trkpt lat="45.85727" lon="4.39467">
        <ele>616.4</ele>
        <time>2025-09-09T14:39:35Z</time>
      </trkpt>
      <trkpt lat="45.85726" lon="4.39466">
        <ele>616.6</ele>
        <time>2025-09-09T14:39:36Z</time>
      </trkpt>
      <trkpt lat="45.85725" lon="4.39465">
        <ele>617</ele>
        <time>2025-09-09T14:39:37Z</time>
      </trkpt>
      <trkpt lat="45.85724" lon="4.39465">
        <ele>617</ele>
        <time>2025-09-09T14:39:38Z</time>
      </trkpt>
      <trkpt lat="45.85723" lon="4.39465">
        <ele>617.2</ele>
        <time>2025-09-09T14:39:39Z</time>
      </trkpt>
      <trkpt lat="45.85721" lon="4.39466">
        <ele>617.2</ele>
        <time>2025-09-09T14:39:40Z</time>
      </trkpt>
      <trkpt lat="45.8572" lon="4.39466">
        <ele>617.2</ele>
        <time>2025-09-09T14:39:41Z</time>
      </trkpt>
      <trkpt lat="45.85719" lon="4.39467">
        <ele>617.6</ele>
        <time>2025-09-09T14:39:42Z</time>
      </trkpt>
      <trkpt lat="45.85718" lon="4.39467">
        <ele>617.6</ele>
        <time>2025-09-09T14:39:43Z</time>
      </trkpt>
      <trkpt lat="45.85717" lon="4.39467">
        <ele>618.2</ele>
        <time>2025-09-09T14:39:44Z</time>
      </trkpt>
      <trkpt lat="45.85716" lon="4.39467">
        <ele>618.4</ele>
        <time>2025-09-09T14:39:45Z</time>
      </trkpt>
      <trkpt lat="45.85715" lon="4.39466">
        <ele>618.8</ele>
        <time>2025-09-09T14:39:46Z</time>
      </trkpt>
      <trkpt lat="45.85714" lon="4.39466">
        <ele>618.8</ele>
        <time>2025-09-09T14:39:47Z</time>
      </trkpt>
      <trkpt lat="45.85713" lon="4.39466">
        <ele>618.8</ele>
        <time>2025-09-09T14:39:48Z</time>
      </trkpt>
      <trkpt lat="45.85712" lon="4.39465">
        <ele>619</ele>
        <time>2025-09-09T14:39:49Z</time>
      </trkpt>
      <trkpt lat="45.85711" lon="4.39464">
        <ele>619</ele>
        <time>2025-09-09T14:39:50Z</time>
      </trkpt>
      <trkpt lat="45.85711" lon="4.39463">
        <ele>619.4</ele>
        <time>2025-09-09T14:39:51Z</time>
      </trkpt>
      <trkpt lat="45.85711" lon="4.39463">
        <ele>619.4</ele>
        <time>2025-09-09T14:39:52Z</time>
      </trkpt>
      <trkpt lat="45.8571" lon="4.39464">
        <ele>619.4</ele>
        <time>2025-09-09T14:39:53Z</time>
      </trkpt>
      <trkpt lat="45.85709" lon="4.39464">
        <ele>619.6</ele>
        <time>2025-09-09T14:39:54Z</time>
      </trkpt>
      <trkpt lat="45.85708" lon="4.39464">
        <ele>620</ele>
        <time>2025-09-09T14:39:55Z</time>
      </trkpt>
      <trkpt lat="45.85707" lon="4.39463">
        <ele>620.2</ele>
        <time>2025-09-09T14:39:56Z</time>
      </trkpt>
      <trkpt lat="45.85705" lon="4.39462">
        <ele>620.2</ele>
        <time>2025-09-09T14:39:57Z</time>
      </trkpt>
      <trkpt lat="45.85703" lon="4.39461">
        <ele>620.4</ele>
        <time>2025-09-09T14:39:58Z</time>
      </trkpt>
      <trkpt lat="45.85702" lon="4.39461">
        <ele>620.4</ele>
        <time>2025-09-09T14:39:59Z</time>
      </trkpt>
      <trkpt lat="45.85701" lon="4.39461">
        <ele>620.8</ele>
        <time>2025-09-09T14:40:00Z</time>
      </trkpt>
      <trkpt lat="45.85701" lon="4.39461">
        <ele>620.8</ele>
        <time>2025-09-09T14:40:01Z</time>
      </trkpt>
      <trkpt lat="45.857" lon="4.39461">
        <ele>620.8</ele>
        <time>2025-09-09T14:40:02Z</time>
      </trkpt>
      <trkpt lat="45.85699" lon="4.3946">
        <ele>621</ele>
        <time>2025-09-09T14:40:03Z</time>
      </trkpt>
      <trkpt lat="45.85698" lon="4.39459">
        <ele>621</ele>
        <time>2025-09-09T14:40:04Z</time>
      </trkpt>
      <trkpt lat="45.85697" lon="4.39459">
        <ele>621.4</ele>
        <time>2025-09-09T14:40:05Z</time>
      </trkpt>
      <trkpt lat="45.85696" lon="4.39459">
        <ele>621.4</ele>
        <time>2025-09-09T14:40:06Z</time>
      </trkpt>
      <trkpt lat="45.85695" lon="4.39459">
        <ele>621.6</ele>
        <time>2025-09-09T14:40:07Z</time>
      </trkpt>
      <trkpt lat="45.85694" lon="4.39459">
        <ele>621.6</ele>
        <time>2025-09-09T14:40:08Z</time>
      </trkpt>
      <trkpt lat="45.85692" lon="4.39458">
        <ele>621.8</ele>
        <time>2025-09-09T14:40:09Z</time>
      </trkpt>
      <trkpt lat="45.85691" lon="4.39457">
        <ele>621.8</ele>
        <time>2025-09-09T14:40:10Z</time>
      </trkpt>
      <trkpt lat="45.8569" lon="4.39457">
        <ele>621.8</ele>
        <time>2025-09-09T14:40:11Z</time>
      </trkpt>
      <trkpt lat="45.85688" lon="4.39456">
        <ele>622.2</ele>
        <time>2025-09-09T14:40:12Z</time>
      </trkpt>
      <trkpt lat="45.85687" lon="4.39455">
        <ele>622.2</ele>
        <time>2025-09-09T14:40:13Z</time>
      </trkpt>
      <trkpt lat="45.85686" lon="4.39454">
        <ele>622.2</ele>
        <time>2025-09-09T14:40:14Z</time>
      </trkpt>
      <trkpt lat="45.85685" lon="4.39453">
        <ele>622.2</ele>
        <time>2025-09-09T14:40:15Z</time>
      </trkpt>
      <trkpt lat="45.85684" lon="4.39453">
        <ele>622.6</ele>
        <time>2025-09-09T14:40:16Z</time>
      </trkpt>
      <trkpt lat="45.85683" lon="4.39452">
        <ele>622.8</ele>
        <time>2025-09-09T14:40:17Z</time>
      </trkpt>
      <trkpt lat="45.85682" lon="4.39452">
        <ele>622.8</ele>
        <time>2025-09-09T14:40:18Z</time>
      </trkpt>
      <trkpt lat="45.85681" lon="4.39453">
        <ele>622.8</ele>
        <time>2025-09-09T14:40:19Z</time>
      </trkpt>
      <trkpt lat="45.85679" lon="4.39453">
        <ele>623.2</ele>
        <time>2025-09-09T14:40:20Z</time>
      </trkpt>
      <trkpt lat="45.85678" lon="4.39454">
        <ele>623.2</ele>
        <time>2025-09-09T14:40:21Z</time>
      </trkpt>
      <trkpt lat="45.85677" lon="4.39454">
        <ele>623.2</ele>
        <time>2025-09-09T14:40:22Z</time>
      </trkpt>
      <trkpt lat="45.85676" lon="4.39453">
        <ele>623.4</ele>
        <time>2025-09-09T14:40:23Z</time>
      </trkpt>
      <trkpt lat="45.85675" lon="4.39452">
        <ele>623.4</ele>
        <time>2025-09-09T14:40:24Z</time>
      </trkpt>
      <trkpt lat="45.85674" lon="4.39452">
        <ele>623.8</ele>
        <time>2025-09-09T14:40:25Z</time>
      </trkpt>
      <trkpt lat="45.85673" lon="4.39452">
        <ele>624</ele>
        <time>2025-09-09T14:40:26Z</time>
      </trkpt>
      <trkpt lat="45.85672" lon="4.39452">
        <ele>624</ele>
        <time>2025-09-09T14:40:27Z</time>
      </trkpt>
      <trkpt lat="45.85672" lon="4.39452">
        <ele>624.4</ele>
        <time>2025-09-09T14:40:28Z</time>
      </trkpt>
      <trkpt lat="45.85671" lon="4.39452">
        <ele>624.4</ele>
        <time>2025-09-09T14:40:29Z</time>
      </trkpt>
      <trkpt lat="45.8567" lon="4.39452">
        <ele>624.4</ele>
        <time>2025-09-09T14:40:30Z</time>
      </trkpt>
      <trkpt lat="45.85669" lon="4.39451">
        <ele>624.6</ele>
        <time>2025-09-09T14:40:31Z</time>
      </trkpt>
      <trkpt lat="45.85667" lon="4.3945">
        <ele>624.6</ele>
        <time>2025-09-09T14:40:32Z</time>
      </trkpt>
      <trkpt lat="45.85665" lon="4.39448">
        <ele>624.6</ele>
        <time>2025-09-09T14:40:33Z</time>
      </trkpt>
      <trkpt lat="45.85664" lon="4.39446">
        <ele>624.8</ele>
        <time>2025-09-09T14:40:34Z</time>
      </trkpt>
      <trkpt lat="45.85663" lon="4.39445">
        <ele>624.8</ele>
        <time>2025-09-09T14:40:35Z</time>
      </trkpt>
      <trkpt lat="45.85662" lon="4.39445">
        <ele>625.2</ele>
        <time>2025-09-09T14:40:36Z</time>
      </trkpt>
      <trkpt lat="45.8566" lon="4.39444">
        <ele>625.2</ele>
        <time>2025-09-09T14:40:37Z</time>
      </trkpt>
      <trkpt lat="45.85659" lon="4.39444">
        <ele>625.4</ele>
        <time>2025-09-09T14:40:38Z</time>
      </trkpt>
      <trkpt lat="45.85658" lon="4.39443">
        <ele>625.4</ele>
        <time>2025-09-09T14:40:39Z</time>
      </trkpt>
      <trkpt lat="45.85657" lon="4.39443">
        <ele>625.4</ele>
        <time>2025-09-09T14:40:40Z</time>
      </trkpt>
      <trkpt lat="45.85656" lon="4.39442">
        <ele>625.6</ele>
        <time>2025-09-09T14:40:41Z</time>
      </trkpt>
      <trkpt lat="45.85655" lon="4.39442">
        <ele>625.6</ele>
        <time>2025-09-09T14:40:42Z</time>
      </trkpt>
      <trkpt lat="45.85654" lon="4.3944">
        <ele>625.4</ele>
        <time>2025-09-09T14:40:55Z</time>
      </trkpt>
      <trkpt lat="45.85653" lon="4.39441">
        <ele>625.2</ele>
        <time>2025-09-09T14:40:56Z</time>
      </trkpt>
      <trkpt lat="45.8565" lon="4.3944">
        <ele>625.4</ele>
        <time>2025-09-09T14:40:57Z</time>
      </trkpt>
      <trkpt lat="45.85648" lon="4.39439">
        <ele>625</ele>
        <time>2025-09-09T14:40:58Z</time>
      </trkpt>
      <trkpt lat="45.85647" lon="4.39438">
        <ele>625</ele>
        <time>2025-09-09T14:40:59Z</time>
      </trkpt>
      <trkpt lat="45.85647" lon="4.39436">
        <ele>625</ele>
        <time>2025-09-09T14:41:00Z</time>
      </trkpt>
      <trkpt lat="45.85646" lon="4.39433">
        <ele>625</ele>
        <time>2025-09-09T14:41:01Z</time>
      </trkpt>
      <trkpt lat="45.85644" lon="4.39429">
        <ele>624.8</ele>
        <time>2025-09-09T14:41:02Z</time>
      </trkpt>
      <trkpt lat="45.85641" lon="4.39426">
        <ele>624.6</ele>
        <time>2025-09-09T14:41:03Z</time>
      </trkpt>
      <trkpt lat="45.85639" lon="4.39423">
        <ele>624.6</ele>
        <time>2025-09-09T14:41:04Z</time>
      </trkpt>
      <trkpt lat="45.85635" lon="4.39421">
        <ele>624.2</ele>
        <time>2025-09-09T14:41:05Z</time>
      </trkpt>
      <trkpt lat="45.85633" lon="4.39419">
        <ele>624.2</ele>
        <time>2025-09-09T14:41:06Z</time>
      </trkpt>
      <trkpt lat="45.85631" lon="4.39418">
        <ele>624.2</ele>
        <time>2025-09-09T14:41:07Z</time>
      </trkpt>
      <trkpt lat="45.8563" lon="4.39417">
        <ele>624.6</ele>
        <time>2025-09-09T14:41:08Z</time>
      </trkpt>
      <trkpt lat="45.8563" lon="4.39416">
        <ele>624.6</ele>
        <time>2025-09-09T14:41:09Z</time>
      </trkpt>
      <trkpt lat="45.8563" lon="4.39415">
        <ele>624.6</ele>
        <time>2025-09-09T14:41:10Z</time>
      </trkpt>
      <trkpt lat="45.85629" lon="4.39414">
        <ele>624.8</ele>
        <time>2025-09-09T14:41:11Z</time>
      </trkpt>
      <trkpt lat="45.85625" lon="4.39412">
        <ele>624.8</ele>
        <time>2025-09-09T14:41:12Z</time>
      </trkpt>
      <trkpt lat="45.85622" lon="4.39409">
        <ele>624.8</ele>
        <time>2025-09-09T14:41:13Z</time>
      </trkpt>
      <trkpt lat="45.8562" lon="4.39407">
        <ele>624.8</ele>
        <time>2025-09-09T14:41:14Z</time>
      </trkpt>
      <trkpt lat="45.85619" lon="4.39406">
        <ele>625.2</ele>
        <time>2025-09-09T14:41:15Z</time>
      </trkpt>
      <trkpt lat="45.85618" lon="4.39404">
        <ele>625.2</ele>
        <time>2025-09-09T14:41:16Z</time>
      </trkpt>
      <trkpt lat="45.85617" lon="4.39403">
        <ele>625.2</ele>
        <time>2025-09-09T14:41:17Z</time>
      </trkpt>
      <trkpt lat="45.85616" lon="4.394">
        <ele>625.2</ele>
        <time>2025-09-09T14:41:18Z</time>
      </trkpt>
      <trkpt lat="45.85615" lon="4.39397">
        <ele>625.6</ele>
        <time>2025-09-09T14:41:19Z</time>
      </trkpt>
      <trkpt lat="45.85614" lon="4.39395">
        <ele>625.6</ele>
        <time>2025-09-09T14:41:20Z</time>
      </trkpt>
      <trkpt lat="45.85614" lon="4.39393">
        <ele>625.6</ele>
        <time>2025-09-09T14:41:21Z</time>
      </trkpt>
      <trkpt lat="45.85615" lon="4.39389">
        <ele>625.2</ele>
        <time>2025-09-09T14:41:22Z</time>
      </trkpt>
      <trkpt lat="45.85617" lon="4.39387">
        <ele>625</ele>
        <time>2025-09-09T14:41:23Z</time>
      </trkpt>
      <trkpt lat="45.85619" lon="4.39387">
        <ele>625</ele>
        <time>2025-09-09T14:41:24Z</time>
      </trkpt>
      <trkpt lat="45.85622" lon="4.39387">
        <ele>625.2</ele>
        <time>2025-09-09T14:41:25Z</time>
      </trkpt>
      <trkpt lat="45.85625" lon="4.39388">
        <ele>625.2</ele>
        <time>2025-09-09T14:41:26Z</time>
      </trkpt>
      <trkpt lat="45.85627" lon="4.39388">
        <ele>625.2</ele>
        <time>2025-09-09T14:41:27Z</time>
      </trkpt>
      <trkpt lat="45.85629" lon="4.39389">
        <ele>625.2</ele>
        <time>2025-09-09T14:41:28Z</time>
      </trkpt>
      <trkpt lat="45.8563" lon="4.39389">
        <ele>625.2</ele>
        <time>2025-09-09T14:41:29Z</time>
      </trkpt>
      <trkpt lat="45.85631" lon="4.39389">
        <ele>625</ele>
        <time>2025-09-09T14:41:30Z</time>
      </trkpt>
      <trkpt lat="45.85633" lon="4.39389">
        <ele>625</ele>
        <time>2025-09-09T14:41:31Z</time>
      </trkpt>
      <trkpt lat="45.85635" lon="4.39389">
        <ele>625.6</ele>
        <time>2025-09-09T14:41:32Z</time>
      </trkpt>
      <trkpt lat="45.85637" lon="4.39388">
        <ele>625.6</ele>
        <time>2025-09-09T14:41:33Z</time>
      </trkpt>
      <trkpt lat="45.85639" lon="4.39388">
        <ele>626.2</ele>
        <time>2025-09-09T14:41:34Z</time>
      </trkpt>
      <trkpt lat="45.85641" lon="4.39386">
        <ele>626.2</ele>
        <time>2025-09-09T14:41:35Z</time>
      </trkpt>
      <trkpt lat="45.85642" lon="4.39385">
        <ele>626.6</ele>
        <time>2025-09-09T14:41:36Z</time>
      </trkpt>
      <trkpt lat="45.85643" lon="4.39384">
        <ele>626.8</ele>
        <time>2025-09-09T14:41:37Z</time>
      </trkpt>
      <trkpt lat="45.85645" lon="4.39383">
        <ele>626.8</ele>
        <time>2025-09-09T14:41:38Z</time>
      </trkpt>
      <trkpt lat="45.85646" lon="4.39383">
        <ele>626.8</ele>
        <time>2025-09-09T14:41:39Z</time>
      </trkpt>
      <trkpt lat="45.85648" lon="4.39383">
        <ele>626.8</ele>
        <time>2025-09-09T14:41:40Z</time>
      </trkpt>
      <trkpt lat="45.85649" lon="4.39383">
        <ele>626.8</ele>
        <time>2025-09-09T14:41:41Z</time>
      </trkpt>
      <trkpt lat="45.8565" lon="4.39383">
        <ele>626.8</ele>
        <time>2025-09-09T14:41:42Z</time>
      </trkpt>
      <trkpt lat="45.85651" lon="4.39381">
        <ele>626.8</ele>
        <time>2025-09-09T14:41:43Z</time>
      </trkpt>
      <trkpt lat="45.85653" lon="4.39379">
        <ele>627</ele>
        <time>2025-09-09T14:41:44Z</time>
      </trkpt>
      <trkpt lat="45.85654" lon="4.39377">
        <ele>626.8</ele>
        <time>2025-09-09T14:41:45Z</time>
      </trkpt>
      <trkpt lat="45.85656" lon="4.39375">
        <ele>626.8</ele>
        <time>2025-09-09T14:41:46Z</time>
      </trkpt>
      <trkpt lat="45.85657" lon="4.39373">
        <ele>626.8</ele>
        <time>2025-09-09T14:41:47Z</time>
      </trkpt>
      <trkpt lat="45.85658" lon="4.39371">
        <ele>626.8</ele>
        <time>2025-09-09T14:41:48Z</time>
      </trkpt>
      <trkpt lat="45.85658" lon="4.39371">
        <ele>626.8</ele>
        <time>2025-09-09T14:41:49Z</time>
      </trkpt>
      <trkpt lat="45.85659" lon="4.3937">
        <ele>626.8</ele>
        <time>2025-09-09T14:41:50Z</time>
      </trkpt>
      <trkpt lat="45.85659" lon="4.39368">
        <ele>626.4</ele>
        <time>2025-09-09T14:41:51Z</time>
      </trkpt>
      <trkpt lat="45.85661" lon="4.39365">
        <ele>626.4</ele>
        <time>2025-09-09T14:41:52Z</time>
      </trkpt>
      <trkpt lat="45.85662" lon="4.39362">
        <ele>626.8</ele>
        <time>2025-09-09T14:41:53Z</time>
      </trkpt>
      <trkpt lat="45.85663" lon="4.39359">
        <ele>626.8</ele>
        <time>2025-09-09T14:41:54Z</time>
      </trkpt>
      <trkpt lat="45.85664" lon="4.39355">
        <ele>626.8</ele>
        <time>2025-09-09T14:41:55Z</time>
      </trkpt>
      <trkpt lat="45.85665" lon="4.39353">
        <ele>626.8</ele>
        <time>2025-09-09T14:41:56Z</time>
      </trkpt>
      <trkpt lat="45.85665" lon="4.39351">
        <ele>626.6</ele>
        <time>2025-09-09T14:41:57Z</time>
      </trkpt>
      <trkpt lat="45.85665" lon="4.39347">
        <ele>626.6</ele>
        <time>2025-09-09T14:41:58Z</time>
      </trkpt>
      <trkpt lat="45.85666" lon="4.39344">
        <ele>626.8</ele>
        <time>2025-09-09T14:41:59Z</time>
      </trkpt>
      <trkpt lat="45.85666" lon="4.39341">
        <ele>626.8</ele>
        <time>2025-09-09T14:42:00Z</time>
      </trkpt>
      <trkpt lat="45.85666" lon="4.39338">
        <ele>626.8</ele>
        <time>2025-09-09T14:42:01Z</time>
      </trkpt>
      <trkpt lat="45.85668" lon="4.39336">
        <ele>626.4</ele>
        <time>2025-09-09T14:42:02Z</time>
      </trkpt>
      <trkpt lat="45.85669" lon="4.39334">
        <ele>626.4</ele>
        <time>2025-09-09T14:42:03Z</time>
      </trkpt>
      <trkpt lat="45.8567" lon="4.39334">
        <ele>626.2</ele>
        <time>2025-09-09T14:42:04Z</time>
      </trkpt>
      <trkpt lat="45.8567" lon="4.39333">
        <ele>626.2</ele>
        <time>2025-09-09T14:42:05Z</time>
      </trkpt>
      <trkpt lat="45.85671" lon="4.39332">
        <ele>626.2</ele>
        <time>2025-09-09T14:42:06Z</time>
      </trkpt>
      <trkpt lat="45.85673" lon="4.39332">
        <ele>626.2</ele>
        <time>2025-09-09T14:42:07Z</time>
      </trkpt>
      <trkpt lat="45.85675" lon="4.39331">
        <ele>625.8</ele>
        <time>2025-09-09T14:42:08Z</time>
      </trkpt>
      <trkpt lat="45.85677" lon="4.39332">
        <ele>625.8</ele>
        <time>2025-09-09T14:42:09Z</time>
      </trkpt>
      <trkpt lat="45.8568" lon="4.39333">
        <ele>625.8</ele>
        <time>2025-09-09T14:42:10Z</time>
      </trkpt>
      <trkpt lat="45.85682" lon="4.39333">
        <ele>625.6</ele>
        <time>2025-09-09T14:42:11Z</time>
      </trkpt>
      <trkpt lat="45.85685" lon="4.39334">
        <ele>625.6</ele>
        <time>2025-09-09T14:42:12Z</time>
      </trkpt>
      <trkpt lat="45.85687" lon="4.39334">
        <ele>625.6</ele>
        <time>2025-09-09T14:42:13Z</time>
      </trkpt>
      <trkpt lat="45.85688" lon="4.39334">
        <ele>625.6</ele>
        <time>2025-09-09T14:42:14Z</time>
      </trkpt>
      <trkpt lat="45.8569" lon="4.39333">
        <ele>625.4</ele>
        <time>2025-09-09T14:42:15Z</time>
      </trkpt>
      <trkpt lat="45.85691" lon="4.39326">
        <ele>625.4</ele>
        <time>2025-09-09T14:42:33Z</time>
      </trkpt>
      <trkpt lat="45.8569" lon="4.39326">
        <ele>625.4</ele>
        <time>2025-09-09T14:42:34Z</time>
      </trkpt>
      <trkpt lat="45.85689" lon="4.39325">
        <ele>625.4</ele>
        <time>2025-09-09T14:42:35Z</time>
      </trkpt>
      <trkpt lat="45.85689" lon="4.39326">
        <ele>625.4</ele>
        <time>2025-09-09T14:42:36Z</time>
      </trkpt>
      <trkpt lat="45.85689" lon="4.39327">
        <ele>625.4</ele>
        <time>2025-09-09T14:42:37Z</time>
      </trkpt>
      <trkpt lat="45.85688" lon="4.39326">
        <ele>625.4</ele>
        <time>2025-09-09T14:42:38Z</time>
      </trkpt>
      <trkpt lat="45.85687" lon="4.39325">
        <ele>625.4</ele>
        <time>2025-09-09T14:42:39Z</time>
      </trkpt>
      <trkpt lat="45.85687" lon="4.39325">
        <ele>625.4</ele>
        <time>2025-09-09T14:42:40Z</time>
      </trkpt>
      <trkpt lat="45.85686" lon="4.39322">
        <ele>625.4</ele>
        <time>2025-09-09T14:42:43Z</time>
      </trkpt>
      <trkpt lat="45.85685" lon="4.3932">
        <ele>625.4</ele>
        <time>2025-09-09T14:42:44Z</time>
      </trkpt>
      <trkpt lat="45.85683" lon="4.3932">
        <ele>625.4</ele>
        <time>2025-09-09T14:42:45Z</time>
      </trkpt>
      <trkpt lat="45.85681" lon="4.3932">
        <ele>625.4</ele>
        <time>2025-09-09T14:42:46Z</time>
      </trkpt>
      <trkpt lat="45.85679" lon="4.3932">
        <ele>625.8</ele>
        <time>2025-09-09T14:42:47Z</time>
      </trkpt>
      <trkpt lat="45.85677" lon="4.39322">
        <ele>625.8</ele>
        <time>2025-09-09T14:42:48Z</time>
      </trkpt>
      <trkpt lat="45.85675" lon="4.39323">
        <ele>626.2</ele>
        <time>2025-09-09T14:42:49Z</time>
      </trkpt>
      <trkpt lat="45.85674" lon="4.39324">
        <ele>626.2</ele>
        <time>2025-09-09T14:42:50Z</time>
      </trkpt>
      <trkpt lat="45.85673" lon="4.39326">
        <ele>626.2</ele>
        <time>2025-09-09T14:42:51Z</time>
      </trkpt>
      <trkpt lat="45.85672" lon="4.3933">
        <ele>626.2</ele>
        <time>2025-09-09T14:42:52Z</time>
      </trkpt>
      <trkpt lat="45.85672" lon="4.39333">
        <ele>626.4</ele>
        <time>2025-09-09T14:42:53Z</time>
      </trkpt>
      <trkpt lat="45.85672" lon="4.39335">
        <ele>626.4</ele>
        <time>2025-09-09T14:42:54Z</time>
      </trkpt>
      <trkpt lat="45.85671" lon="4.39338">
        <ele>626.2</ele>
        <time>2025-09-09T14:42:55Z</time>
      </trkpt>
      <trkpt lat="45.85671" lon="4.39342">
        <ele>626.2</ele>
        <time>2025-09-09T14:42:56Z</time>
      </trkpt>
      <trkpt lat="45.85671" lon="4.39346">
        <ele>626.2</ele>
        <time>2025-09-09T14:42:57Z</time>
      </trkpt>
      <trkpt lat="45.85672" lon="4.39347">
        <ele>626.2</ele>
        <time>2025-09-09T14:42:58Z</time>
      </trkpt>
      <trkpt lat="45.85673" lon="4.39349">
        <ele>626.2</ele>
        <time>2025-09-09T14:42:59Z</time>
      </trkpt>
      <trkpt lat="45.85673" lon="4.39352">
        <ele>626.2</ele>
        <time>2025-09-09T14:43:00Z</time>
      </trkpt>
      <trkpt lat="45.85673" lon="4.39354">
        <ele>626.6</ele>
        <time>2025-09-09T14:43:01Z</time>
      </trkpt>
      <trkpt lat="45.85673" lon="4.39356">
        <ele>626.6</ele>
        <time>2025-09-09T14:43:02Z</time>
      </trkpt>
      <trkpt lat="45.85673" lon="4.39359">
        <ele>626.6</ele>
        <time>2025-09-09T14:43:03Z</time>
      </trkpt>
      <trkpt lat="45.85672" lon="4.39362">
        <ele>626.6</ele>
        <time>2025-09-09T14:43:04Z</time>
      </trkpt>
      <trkpt lat="45.85669" lon="4.39364">
        <ele>626.6</ele>
        <time>2025-09-09T14:43:05Z</time>
      </trkpt>
      <trkpt lat="45.85667" lon="4.39363">
        <ele>626.6</ele>
        <time>2025-09-09T14:43:06Z</time>
      </trkpt>
      <trkpt lat="45.85666" lon="4.39361">
        <ele>627</ele>
        <time>2025-09-09T14:43:07Z</time>
      </trkpt>
      <trkpt lat="45.85665" lon="4.39359">
        <ele>627</ele>
        <time>2025-09-09T14:43:08Z</time>
      </trkpt>
      <trkpt lat="45.85665" lon="4.39357">
        <ele>627.2</ele>
        <time>2025-09-09T14:43:09Z</time>
      </trkpt>
      <trkpt lat="45.85666" lon="4.39356">
        <ele>627.6</ele>
        <time>2025-09-09T14:43:10Z</time>
      </trkpt>
      <trkpt lat="45.85666" lon="4.39353">
        <ele>627.8</ele>
        <time>2025-09-09T14:43:11Z</time>
      </trkpt>
      <trkpt lat="45.85666" lon="4.3935">
        <ele>627.8</ele>
        <time>2025-09-09T14:43:12Z</time>
      </trkpt>
      <trkpt lat="45.85666" lon="4.39348">
        <ele>628.2</ele>
        <time>2025-09-09T14:43:13Z</time>
      </trkpt>
      <trkpt lat="45.85666" lon="4.39347">
        <ele>628.2</ele>
        <time>2025-09-09T14:43:14Z</time>
      </trkpt>
      <trkpt lat="45.85666" lon="4.39345">
        <ele>628.6</ele>
        <time>2025-09-09T14:43:15Z</time>
      </trkpt>
      <trkpt lat="45.85666" lon="4.39343">
        <ele>628.6</ele>
        <time>2025-09-09T14:43:16Z</time>
      </trkpt>
      <trkpt lat="45.85665" lon="4.39341">
        <ele>628.6</ele>
        <time>2025-09-09T14:43:17Z</time>
      </trkpt>
      <trkpt lat="45.85664" lon="4.39339">
        <ele>629</ele>
        <time>2025-09-09T14:43:18Z</time>
      </trkpt>
      <trkpt lat="45.85663" lon="4.39337">
        <ele>629</ele>
        <time>2025-09-09T14:43:19Z</time>
      </trkpt>
      <trkpt lat="45.85662" lon="4.39334">
        <ele>629.4</ele>
        <time>2025-09-09T14:43:20Z</time>
      </trkpt>
      <trkpt lat="45.85661" lon="4.39331">
        <ele>629.4</ele>
        <time>2025-09-09T14:43:21Z</time>
      </trkpt>
      <trkpt lat="45.85661" lon="4.39329">
        <ele>629.4</ele>
        <time>2025-09-09T14:43:22Z</time>
      </trkpt>
      <trkpt lat="45.8566" lon="4.39326">
        <ele>629.6</ele>
        <time>2025-09-09T14:43:23Z</time>
      </trkpt>
      <trkpt lat="45.85659" lon="4.39324">
        <ele>630</ele>
        <time>2025-09-09T14:43:24Z</time>
      </trkpt>
      <trkpt lat="45.85659" lon="4.39324">
        <ele>630</ele>
        <time>2025-09-09T14:43:25Z</time>
      </trkpt>
      <trkpt lat="45.85658" lon="4.39323">
        <ele>630</ele>
        <time>2025-09-09T14:43:26Z</time>
      </trkpt>
      <trkpt lat="45.85658" lon="4.39321">
        <ele>630</ele>
        <time>2025-09-09T14:43:27Z</time>
      </trkpt>
      <trkpt lat="45.85657" lon="4.3932">
        <ele>630.2</ele>
        <time>2025-09-09T14:43:28Z</time>
      </trkpt>
      <trkpt lat="45.85657" lon="4.39318">
        <ele>630.2</ele>
        <time>2025-09-09T14:43:29Z</time>
      </trkpt>
      <trkpt lat="45.85655" lon="4.39316">
        <ele>630.4</ele>
        <time>2025-09-09T14:43:30Z</time>
      </trkpt>
      <trkpt lat="45.85654" lon="4.39313">
        <ele>630.6</ele>
        <time>2025-09-09T14:43:31Z</time>
      </trkpt>
      <trkpt lat="45.85653" lon="4.39313">
        <ele>630.6</ele>
        <time>2025-09-09T14:43:32Z</time>
      </trkpt>
      <trkpt lat="45.85652" lon="4.39312">
        <ele>630.6</ele>
        <time>2025-09-09T14:43:33Z</time>
      </trkpt>
      <trkpt lat="45.85651" lon="4.3931">
        <ele>630.6</ele>
        <time>2025-09-09T14:43:34Z</time>
      </trkpt>
      <trkpt lat="45.8565" lon="4.39307">
        <ele>630.8</ele>
        <time>2025-09-09T14:43:35Z</time>
      </trkpt>
      <trkpt lat="45.85649" lon="4.39305">
        <ele>630.8</ele>
        <time>2025-09-09T14:43:36Z</time>
      </trkpt>
      <trkpt lat="45.85649" lon="4.39303">
        <ele>631.2</ele>
        <time>2025-09-09T14:43:37Z</time>
      </trkpt>
      <trkpt lat="45.85649" lon="4.39302">
        <ele>631.2</ele>
        <time>2025-09-09T14:43:38Z</time>
      </trkpt>
      <trkpt lat="45.85649" lon="4.393">
        <ele>631.2</ele>
        <time>2025-09-09T14:43:39Z</time>
      </trkpt>
      <trkpt lat="45.8565" lon="4.393">
        <ele>631.2</ele>
        <time>2025-09-09T14:43:40Z</time>
      </trkpt>
      <trkpt lat="45.8565" lon="4.39298">
        <ele>631.2</ele>
        <time>2025-09-09T14:43:41Z</time>
      </trkpt>
      <trkpt lat="45.85651" lon="4.39295">
        <ele>631.4</ele>
        <time>2025-09-09T14:43:42Z</time>
      </trkpt>
      <trkpt lat="45.85651" lon="4.39293">
        <ele>631.4</ele>
        <time>2025-09-09T14:43:43Z</time>
      </trkpt>
      <trkpt lat="45.85652" lon="4.39293">
        <ele>631.6</ele>
        <time>2025-09-09T14:43:44Z</time>
      </trkpt>
      <trkpt lat="45.85653" lon="4.39291">
        <ele>631.6</ele>
        <time>2025-09-09T14:43:45Z</time>
      </trkpt>
      <trkpt lat="45.85655" lon="4.39289">
        <ele>631.8</ele>
        <time>2025-09-09T14:43:46Z</time>
      </trkpt>
      <trkpt lat="45.85656" lon="4.39287">
        <ele>631.8</ele>
        <time>2025-09-09T14:43:47Z</time>
      </trkpt>
      <trkpt lat="45.85658" lon="4.39286">
        <ele>631.8</ele>
        <time>2025-09-09T14:43:48Z</time>
      </trkpt>
      <trkpt lat="45.85659" lon="4.39285">
        <ele>631.8</ele>
        <time>2025-09-09T14:43:49Z</time>
      </trkpt>
      <trkpt lat="45.8566" lon="4.39284">
        <ele>631.8</ele>
        <time>2025-09-09T14:43:50Z</time>
      </trkpt>
      <trkpt lat="45.8566" lon="4.39284">
        <ele>632.4</ele>
        <time>2025-09-09T14:43:51Z</time>
      </trkpt>
      <trkpt lat="45.8566" lon="4.39284">
        <ele>632.4</ele>
        <time>2025-09-09T14:43:52Z</time>
      </trkpt>
      <trkpt lat="45.85661" lon="4.39285">
        <ele>632.4</ele>
        <time>2025-09-09T14:43:53Z</time>
      </trkpt>
      <trkpt lat="45.85661" lon="4.39285">
        <ele>632.4</ele>
        <time>2025-09-09T14:43:54Z</time>
      </trkpt>
      <trkpt lat="45.85662" lon="4.39286">
        <ele>632.4</ele>
        <time>2025-09-09T14:43:55Z</time>
      </trkpt>
      <trkpt lat="45.85662" lon="4.39288">
        <ele>632.4</ele>
        <time>2025-09-09T14:43:56Z</time>
      </trkpt>
      <trkpt lat="45.85664" lon="4.39288">
        <ele>632.4</ele>
        <time>2025-09-09T14:43:57Z</time>
      </trkpt>
      <trkpt lat="45.85667" lon="4.39288">
        <ele>632.6</ele>
        <time>2025-09-09T14:43:58Z</time>
      </trkpt>
      <trkpt lat="45.85669" lon="4.39288">
        <ele>632.6</ele>
        <time>2025-09-09T14:43:59Z</time>
      </trkpt>
      <trkpt lat="45.8567" lon="4.39287">
        <ele>633</ele>
        <time>2025-09-09T14:44:00Z</time>
      </trkpt>
      <trkpt lat="45.85671" lon="4.39286">
        <ele>633.2</ele>
        <time>2025-09-09T14:44:01Z</time>
      </trkpt>
      <trkpt lat="45.85672" lon="4.39285">
        <ele>633.4</ele>
        <time>2025-09-09T14:44:02Z</time>
      </trkpt>
      <trkpt lat="45.85673" lon="4.39284">
        <ele>633.4</ele>
        <time>2025-09-09T14:44:03Z</time>
      </trkpt>
      <trkpt lat="45.85674" lon="4.39283">
        <ele>633.4</ele>
        <time>2025-09-09T14:44:04Z</time>
      </trkpt>
      <trkpt lat="45.85675" lon="4.39283">
        <ele>633.6</ele>
        <time>2025-09-09T14:44:05Z</time>
      </trkpt>
      <trkpt lat="45.85677" lon="4.39282">
        <ele>633.6</ele>
        <time>2025-09-09T14:44:06Z</time>
      </trkpt>
      <trkpt lat="45.85678" lon="4.39282">
        <ele>633.6</ele>
        <time>2025-09-09T14:44:07Z</time>
      </trkpt>
      <trkpt lat="45.8568" lon="4.39282">
        <ele>634</ele>
        <time>2025-09-09T14:44:08Z</time>
      </trkpt>
      <trkpt lat="45.85682" lon="4.39282">
        <ele>634</ele>
        <time>2025-09-09T14:44:09Z</time>
      </trkpt>
      <trkpt lat="45.85684" lon="4.39283">
        <ele>634.4</ele>
        <time>2025-09-09T14:44:10Z</time>
      </trkpt>
      <trkpt lat="45.85686" lon="4.39283">
        <ele>634.6</ele>
        <time>2025-09-09T14:44:11Z</time>
      </trkpt>
      <trkpt lat="45.85686" lon="4.39282">
        <ele>634.6</ele>
        <time>2025-09-09T14:44:12Z</time>
      </trkpt>
      <trkpt lat="45.85688" lon="4.39282">
        <ele>634.6</ele>
        <time>2025-09-09T14:44:13Z</time>
      </trkpt>
      <trkpt lat="45.85689" lon="4.39282">
        <ele>634.8</ele>
        <time>2025-09-09T14:44:14Z</time>
      </trkpt>
      <trkpt lat="45.8569" lon="4.39282">
        <ele>634.8</ele>
        <time>2025-09-09T14:44:15Z</time>
      </trkpt>
      <trkpt lat="45.85692" lon="4.39281">
        <ele>635.2</ele>
        <time>2025-09-09T14:44:16Z</time>
      </trkpt>
      <trkpt lat="45.85692" lon="4.3928">
        <ele>635.4</ele>
        <time>2025-09-09T14:44:17Z</time>
      </trkpt>
      <trkpt lat="45.85692" lon="4.3928">
        <ele>635.4</ele>
        <time>2025-09-09T14:44:18Z</time>
      </trkpt>
      <trkpt lat="45.85693" lon="4.3928">
        <ele>635.4</ele>
        <time>2025-09-09T14:44:19Z</time>
      </trkpt>
      <trkpt lat="45.85694" lon="4.3928">
        <ele>635.4</ele>
        <time>2025-09-09T14:44:20Z</time>
      </trkpt>
      <trkpt lat="45.85695" lon="4.39281">
        <ele>635.8</ele>
        <time>2025-09-09T14:44:21Z</time>
      </trkpt>
      <trkpt lat="45.85696" lon="4.39281">
        <ele>635.8</ele>
        <time>2025-09-09T14:44:22Z</time>
      </trkpt>
      <trkpt lat="45.85697" lon="4.39281">
        <ele>635.8</ele>
        <time>2025-09-09T14:44:23Z</time>
      </trkpt>
      <trkpt lat="45.85698" lon="4.3928">
        <ele>636</ele>
        <time>2025-09-09T14:44:24Z</time>
      </trkpt>
      <trkpt lat="45.85698" lon="4.39279">
        <ele>636</ele>
        <time>2025-09-09T14:44:25Z</time>
      </trkpt>
      <trkpt lat="45.85699" lon="4.39278">
        <ele>636</ele>
        <time>2025-09-09T14:44:26Z</time>
      </trkpt>
      <trkpt lat="45.85701" lon="4.39277">
        <ele>636.2</ele>
        <time>2025-09-09T14:44:27Z</time>
      </trkpt>
      <trkpt lat="45.85702" lon="4.39277">
        <ele>636.2</ele>
        <time>2025-09-09T14:44:28Z</time>
      </trkpt>
      <trkpt lat="45.85704" lon="4.39276">
        <ele>636.4</ele>
        <time>2025-09-09T14:44:29Z</time>
      </trkpt>
      <trkpt lat="45.85705" lon="4.39275">
        <ele>636.4</ele>
        <time>2025-09-09T14:44:30Z</time>
      </trkpt>
      <trkpt lat="45.85706" lon="4.39274">
        <ele>636.6</ele>
        <time>2025-09-09T14:44:31Z</time>
      </trkpt>
      <trkpt lat="45.85707" lon="4.39273">
        <ele>636.6</ele>
        <time>2025-09-09T14:44:32Z</time>
      </trkpt>
      <trkpt lat="45.85708" lon="4.39274">
        <ele>636.8</ele>
        <time>2025-09-09T14:44:33Z</time>
      </trkpt>
      <trkpt lat="45.8571" lon="4.39274">
        <ele>636.8</ele>
        <time>2025-09-09T14:44:34Z</time>
      </trkpt>
      <trkpt lat="45.85712" lon="4.39274">
        <ele>637.2</ele>
        <time>2025-09-09T14:44:35Z</time>
      </trkpt>
      <trkpt lat="45.85713" lon="4.39274">
        <ele>637.2</ele>
        <time>2025-09-09T14:44:36Z</time>
      </trkpt>
      <trkpt lat="45.85715" lon="4.39275">
        <ele>637.6</ele>
        <time>2025-09-09T14:44:37Z</time>
      </trkpt>
      <trkpt lat="45.85717" lon="4.39275">
        <ele>637.6</ele>
        <time>2025-09-09T14:44:38Z</time>
      </trkpt>
      <trkpt lat="45.85718" lon="4.39275">
        <ele>637.8</ele>
        <time>2025-09-09T14:44:39Z</time>
      </trkpt>
      <trkpt lat="45.85719" lon="4.39276">
        <ele>637.8</ele>
        <time>2025-09-09T14:44:40Z</time>
      </trkpt>
      <trkpt lat="45.85721" lon="4.39276">
        <ele>638.2</ele>
        <time>2025-09-09T14:44:41Z</time>
      </trkpt>
      <trkpt lat="45.85722" lon="4.39277">
        <ele>638.4</ele>
        <time>2025-09-09T14:44:42Z</time>
      </trkpt>
      <trkpt lat="45.85724" lon="4.39277">
        <ele>638.4</ele>
        <time>2025-09-09T14:44:43Z</time>
      </trkpt>
      <trkpt lat="45.85725" lon="4.39278">
        <ele>638.4</ele>
        <time>2025-09-09T14:44:44Z</time>
      </trkpt>
      <trkpt lat="45.85726" lon="4.39278">
        <ele>638.4</ele>
        <time>2025-09-09T14:44:45Z</time>
      </trkpt>
      <trkpt lat="45.85728" lon="4.39279">
        <ele>638.6</ele>
        <time>2025-09-09T14:44:46Z</time>
      </trkpt>
      <trkpt lat="45.8573" lon="4.39279">
        <ele>638.8</ele>
        <time>2025-09-09T14:44:47Z</time>
      </trkpt>
      <trkpt lat="45.85732" lon="4.3928">
        <ele>638.8</ele>
        <time>2025-09-09T14:44:48Z</time>
      </trkpt>
      <trkpt lat="45.85734" lon="4.3928">
        <ele>639.2</ele>
        <time>2025-09-09T14:44:49Z</time>
      </trkpt>
      <trkpt lat="45.85735" lon="4.3928">
        <ele>639.2</ele>
        <time>2025-09-09T14:44:50Z</time>
      </trkpt>
      <trkpt lat="45.85737" lon="4.3928">
        <ele>639.2</ele>
        <time>2025-09-09T14:44:51Z</time>
      </trkpt>
      <trkpt lat="45.85738" lon="4.39281">
        <ele>639.2</ele>
        <time>2025-09-09T14:44:52Z</time>
      </trkpt>
      <trkpt lat="45.85739" lon="4.39282">
        <ele>639.6</ele>
        <time>2025-09-09T14:44:53Z</time>
      </trkpt>
      <trkpt lat="45.85741" lon="4.39282">
        <ele>639.6</ele>
        <time>2025-09-09T14:44:54Z</time>
      </trkpt>
      <trkpt lat="45.85742" lon="4.39282">
        <ele>639.6</ele>
        <time>2025-09-09T14:44:55Z</time>
      </trkpt>
      <trkpt lat="45.85743" lon="4.39282">
        <ele>639.8</ele>
        <time>2025-09-09T14:44:56Z</time>
      </trkpt>
      <trkpt lat="45.85745" lon="4.39282">
        <ele>639.8</ele>
        <time>2025-09-09T14:44:57Z</time>
      </trkpt>
      <trkpt lat="45.85746" lon="4.39283">
        <ele>639.8</ele>
        <time>2025-09-09T14:44:58Z</time>
      </trkpt>
      <trkpt lat="45.85748" lon="4.39284">
        <ele>639.8</ele>
        <time>2025-09-09T14:44:59Z</time>
      </trkpt>
      <trkpt lat="45.85749" lon="4.39285">
        <ele>639.8</ele>
        <time>2025-09-09T14:45:00Z</time>
      </trkpt>
      <trkpt lat="45.8575" lon="4.39285">
        <ele>640.2</ele>
        <time>2025-09-09T14:45:01Z</time>
      </trkpt>
      <trkpt lat="45.85752" lon="4.39286">
        <ele>640.2</ele>
        <time>2025-09-09T14:45:02Z</time>
      </trkpt>
      <trkpt lat="45.85753" lon="4.39286">
        <ele>640.6</ele>
        <time>2025-09-09T14:45:03Z</time>
      </trkpt>
      <trkpt lat="45.85754" lon="4.39287">
        <ele>640.6</ele>
        <time>2025-09-09T14:45:04Z</time>
      </trkpt>
      <trkpt lat="45.85755" lon="4.39288">
        <ele>640.6</ele>
        <time>2025-09-09T14:45:05Z</time>
      </trkpt>
      <trkpt lat="45.85755" lon="4.39288">
        <ele>641</ele>
        <time>2025-09-09T14:45:06Z</time>
      </trkpt>
      <trkpt lat="45.85755" lon="4.39288">
        <ele>641.2</ele>
        <time>2025-09-09T14:45:07Z</time>
      </trkpt>
      <trkpt lat="45.85756" lon="4.39289">
        <ele>641.6</ele>
        <time>2025-09-09T14:45:08Z</time>
      </trkpt>
      <trkpt lat="45.85757" lon="4.39288">
        <ele>641.6</ele>
        <time>2025-09-09T14:45:09Z</time>
      </trkpt>
      <trkpt lat="45.85758" lon="4.39289">
        <ele>641.6</ele>
        <time>2025-09-09T14:45:10Z</time>
      </trkpt>
      <trkpt lat="45.85759" lon="4.39289">
        <ele>641.6</ele>
        <time>2025-09-09T14:45:11Z</time>
      </trkpt>
      <trkpt lat="45.8576" lon="4.39289">
        <ele>641.6</ele>
        <time>2025-09-09T14:45:12Z</time>
      </trkpt>
      <trkpt lat="45.8576" lon="4.39289">
        <ele>641.6</ele>
        <time>2025-09-09T14:45:13Z</time>
      </trkpt>
      <trkpt lat="45.85764" lon="4.3929">
        <ele>641.8</ele>
        <time>2025-09-09T14:46:13Z</time>
      </trkpt>
      <trkpt lat="45.85764" lon="4.3929">
        <ele>641.8</ele>
        <time>2025-09-09T14:46:14Z</time>
      </trkpt>
      <trkpt lat="45.85764" lon="4.3929">
        <ele>641.6</ele>
        <time>2025-09-09T14:46:15Z</time>
      </trkpt>
      <trkpt lat="45.85765" lon="4.39289">
        <ele>641.6</ele>
        <time>2025-09-09T14:46:16Z</time>
      </trkpt>
      <trkpt lat="45.85764" lon="4.39287">
        <ele>641.8</ele>
        <time>2025-09-09T14:46:28Z</time>
      </trkpt>
      <trkpt lat="45.85765" lon="4.39286">
        <ele>641.8</ele>
        <time>2025-09-09T14:46:29Z</time>
      </trkpt>
      <trkpt lat="45.85766" lon="4.39286">
        <ele>641.8</ele>
        <time>2025-09-09T14:46:30Z</time>
      </trkpt>
      <trkpt lat="45.85768" lon="4.39286">
        <ele>642</ele>
        <time>2025-09-09T14:46:31Z</time>
      </trkpt>
      <trkpt lat="45.85769" lon="4.39287">
        <ele>642</ele>
        <time>2025-09-09T14:46:32Z</time>
      </trkpt>
      <trkpt lat="45.8577" lon="4.39287">
        <ele>642</ele>
        <time>2025-09-09T14:46:33Z</time>
      </trkpt>
      <trkpt lat="45.85772" lon="4.39288">
        <ele>642</ele>
        <time>2025-09-09T14:46:34Z</time>
      </trkpt>
      <trkpt lat="45.85773" lon="4.39289">
        <ele>642</ele>
        <time>2025-09-09T14:46:35Z</time>
      </trkpt>
      <trkpt lat="45.85775" lon="4.39289">
        <ele>642</ele>
        <time>2025-09-09T14:46:36Z</time>
      </trkpt>
      <trkpt lat="45.85776" lon="4.39289">
        <ele>642.4</ele>
        <time>2025-09-09T14:46:37Z</time>
      </trkpt>
      <trkpt lat="45.85777" lon="4.39289">
        <ele>642.4</ele>
        <time>2025-09-09T14:46:38Z</time>
      </trkpt>
      <trkpt lat="45.85779" lon="4.39289">
        <ele>642.4</ele>
        <time>2025-09-09T14:46:39Z</time>
      </trkpt>
      <trkpt lat="45.8578" lon="4.3929">
        <ele>642.8</ele>
        <time>2025-09-09T14:46:40Z</time>
      </trkpt>
      <trkpt lat="45.85782" lon="4.39291">
        <ele>642.8</ele>
        <time>2025-09-09T14:46:41Z</time>
      </trkpt>
      <trkpt lat="45.85784" lon="4.39291">
        <ele>642.8</ele>
        <time>2025-09-09T14:46:42Z</time>
      </trkpt>
      <trkpt lat="45.85784" lon="4.39292">
        <ele>642.8</ele>
        <time>2025-09-09T14:46:43Z</time>
      </trkpt>
      <trkpt lat="45.85786" lon="4.39291">
        <ele>642.8</ele>
        <time>2025-09-09T14:46:44Z</time>
      </trkpt>
      <trkpt lat="45.85787" lon="4.39291">
        <ele>643.2</ele>
        <time>2025-09-09T14:46:45Z</time>
      </trkpt>
      <trkpt lat="45.85788" lon="4.39291">
        <ele>643.2</ele>
        <time>2025-09-09T14:46:46Z</time>
      </trkpt>
      <trkpt lat="45.85791" lon="4.39292">
        <ele>643.2</ele>
        <time>2025-09-09T14:46:47Z</time>
      </trkpt>
      <trkpt lat="45.85793" lon="4.39293">
        <ele>643.4</ele>
        <time>2025-09-09T14:46:48Z</time>
      </trkpt>
      <trkpt lat="45.85794" lon="4.39294">
        <ele>643.4</ele>
        <time>2025-09-09T14:46:49Z</time>
      </trkpt>
      <trkpt lat="45.85796" lon="4.39294">
        <ele>643.4</ele>
        <time>2025-09-09T14:46:50Z</time>
      </trkpt>
      <trkpt lat="45.85797" lon="4.39295">
        <ele>643.4</ele>
        <time>2025-09-09T14:46:51Z</time>
      </trkpt>
      <trkpt lat="45.85799" lon="4.39296">
        <ele>643.6</ele>
        <time>2025-09-09T14:46:52Z</time>
      </trkpt>
      <trkpt lat="45.85801" lon="4.39297">
        <ele>643.6</ele>
        <time>2025-09-09T14:46:53Z</time>
      </trkpt>
      <trkpt lat="45.85803" lon="4.39297">
        <ele>643.6</ele>
        <time>2025-09-09T14:46:54Z</time>
      </trkpt>
      <trkpt lat="45.85804" lon="4.39298">
        <ele>643.8</ele>
        <time>2025-09-09T14:46:55Z</time>
      </trkpt>
      <trkpt lat="45.85806" lon="4.39299">
        <ele>643.8</ele>
        <time>2025-09-09T14:46:56Z</time>
      </trkpt>
      <trkpt lat="45.85808" lon="4.393">
        <ele>643.8</ele>
        <time>2025-09-09T14:46:57Z</time>
      </trkpt>
      <trkpt lat="45.85809" lon="4.393">
        <ele>644.2</ele>
        <time>2025-09-09T14:46:58Z</time>
      </trkpt>
      <trkpt lat="45.85811" lon="4.393">
        <ele>644.2</ele>
        <time>2025-09-09T14:46:59Z</time>
      </trkpt>
      <trkpt lat="45.85814" lon="4.393">
        <ele>644.2</ele>
        <time>2025-09-09T14:47:00Z</time>
      </trkpt>
      <trkpt lat="45.85815" lon="4.393">
        <ele>644.4</ele>
        <time>2025-09-09T14:47:01Z</time>
      </trkpt>
      <trkpt lat="45.85817" lon="4.393">
        <ele>644.4</ele>
        <time>2025-09-09T14:47:02Z</time>
      </trkpt>
      <trkpt lat="45.85819" lon="4.39301">
        <ele>644.6</ele>
        <time>2025-09-09T14:47:03Z</time>
      </trkpt>
      <trkpt lat="45.85821" lon="4.39303">
        <ele>644.6</ele>
        <time>2025-09-09T14:47:04Z</time>
      </trkpt>
      <trkpt lat="45.85824" lon="4.39305">
        <ele>644.6</ele>
        <time>2025-09-09T14:47:05Z</time>
      </trkpt>
      <trkpt lat="45.85826" lon="4.39306">
        <ele>644.6</ele>
        <time>2025-09-09T14:47:06Z</time>
      </trkpt>
      <trkpt lat="45.85828" lon="4.39306">
        <ele>645</ele>
        <time>2025-09-09T14:47:07Z</time>
      </trkpt>
      <trkpt lat="45.8583" lon="4.39306">
        <ele>645.2</ele>
        <time>2025-09-09T14:47:08Z</time>
      </trkpt>
      <trkpt lat="45.85832" lon="4.39307">
        <ele>645.2</ele>
        <time>2025-09-09T14:47:09Z</time>
      </trkpt>
      <trkpt lat="45.85834" lon="4.39308">
        <ele>645.4</ele>
        <time>2025-09-09T14:47:10Z</time>
      </trkpt>
      <trkpt lat="45.85836" lon="4.39309">
        <ele>645.4</ele>
        <time>2025-09-09T14:47:11Z</time>
      </trkpt>
      <trkpt lat="45.85838" lon="4.39309">
        <ele>645.8</ele>
        <time>2025-09-09T14:47:12Z</time>
      </trkpt>
      <trkpt lat="45.8584" lon="4.3931">
        <ele>645.8</ele>
        <time>2025-09-09T14:47:13Z</time>
      </trkpt>
      <trkpt lat="45.85841" lon="4.3931">
        <ele>645.8</ele>
        <time>2025-09-09T14:47:14Z</time>
      </trkpt>
      <trkpt lat="45.85843" lon="4.39311">
        <ele>645.8</ele>
        <time>2025-09-09T14:47:15Z</time>
      </trkpt>
      <trkpt lat="45.85844" lon="4.39311">
        <ele>646</ele>
        <time>2025-09-09T14:47:16Z</time>
      </trkpt>
      <trkpt lat="45.85845" lon="4.39311">
        <ele>646.4</ele>
        <time>2025-09-09T14:47:17Z</time>
      </trkpt>
      <trkpt lat="45.85847" lon="4.39312">
        <ele>646.4</ele>
        <time>2025-09-09T14:47:18Z</time>
      </trkpt>
      <trkpt lat="45.85849" lon="4.39312">
        <ele>646.4</ele>
        <time>2025-09-09T14:47:19Z</time>
      </trkpt>
      <trkpt lat="45.8585" lon="4.39311">
        <ele>646.6</ele>
        <time>2025-09-09T14:47:20Z</time>
      </trkpt>
      <trkpt lat="45.85851" lon="4.39311">
        <ele>646.6</ele>
        <time>2025-09-09T14:47:21Z</time>
      </trkpt>
      <trkpt lat="45.85853" lon="4.3931">
        <ele>646.6</ele>
        <time>2025-09-09T14:47:22Z</time>
      </trkpt>
      <trkpt lat="45.85854" lon="4.3931">
        <ele>646.6</ele>
        <time>2025-09-09T14:47:23Z</time>
      </trkpt>
      <trkpt lat="45.85855" lon="4.3931">
        <ele>646.6</ele>
        <time>2025-09-09T14:47:24Z</time>
      </trkpt>
      <trkpt lat="45.85857" lon="4.3931">
        <ele>646.6</ele>
        <time>2025-09-09T14:47:25Z</time>
      </trkpt>
      <trkpt lat="45.85858" lon="4.3931">
        <ele>646.6</ele>
        <time>2025-09-09T14:47:26Z</time>
      </trkpt>
      <trkpt lat="45.85859" lon="4.3931">
        <ele>646.8</ele>
        <time>2025-09-09T14:47:27Z</time>
      </trkpt>
      <trkpt lat="45.85863" lon="4.39307">
        <ele>647.2</ele>
        <time>2025-09-09T14:47:33Z</time>
      </trkpt>
      <trkpt lat="45.85863" lon="4.39306">
        <ele>647.2</ele>
        <time>2025-09-09T14:47:34Z</time>
      </trkpt>
      <trkpt lat="45.85864" lon="4.39306">
        <ele>647.4</ele>
        <time>2025-09-09T14:47:35Z</time>
      </trkpt>
      <trkpt lat="45.85864" lon="4.39306">
        <ele>647.4</ele>
        <time>2025-09-09T14:47:36Z</time>
      </trkpt>
      <trkpt lat="45.85867" lon="4.39303">
        <ele>647.2</ele>
        <time>2025-09-09T14:47:46Z</time>
      </trkpt>
      <trkpt lat="45.85868" lon="4.39302">
        <ele>647.2</ele>
        <time>2025-09-09T14:47:47Z</time>
      </trkpt>
      <trkpt lat="45.85868" lon="4.393">
        <ele>647.2</ele>
        <time>2025-09-09T14:47:48Z</time>
      </trkpt>
      <trkpt lat="45.85868" lon="4.39298">
        <ele>647.2</ele>
        <time>2025-09-09T14:47:49Z</time>
      </trkpt>
      <trkpt lat="45.85867" lon="4.39296">
        <ele>647.2</ele>
        <time>2025-09-09T14:47:50Z</time>
      </trkpt>
      <trkpt lat="45.85867" lon="4.39295">
        <ele>647.6</ele>
        <time>2025-09-09T14:47:51Z</time>
      </trkpt>
      <trkpt lat="45.85867" lon="4.39293">
        <ele>647.6</ele>
        <time>2025-09-09T14:47:52Z</time>
      </trkpt>
      <trkpt lat="45.85867" lon="4.39292">
        <ele>648</ele>
        <time>2025-09-09T14:47:53Z</time>
      </trkpt>
      <trkpt lat="45.85866" lon="4.39291">
        <ele>648</ele>
        <time>2025-09-09T14:47:54Z</time>
      </trkpt>
      <trkpt lat="45.85865" lon="4.39291">
        <ele>648</ele>
        <time>2025-09-09T14:47:55Z</time>
      </trkpt>
      <trkpt lat="45.85865" lon="4.39292">
        <ele>648</ele>
        <time>2025-09-09T14:47:56Z</time>
      </trkpt>
      <trkpt lat="45.85865" lon="4.39291">
        <ele>648.2</ele>
        <time>2025-09-09T14:48:06Z</time>
      </trkpt>
      <trkpt lat="45.85864" lon="4.3929">
        <ele>648.4</ele>
        <time>2025-09-09T14:48:07Z</time>
      </trkpt>
      <trkpt lat="45.85864" lon="4.39289">
        <ele>648.4</ele>
        <time>2025-09-09T14:48:08Z</time>
      </trkpt>
      <trkpt lat="45.85863" lon="4.39287">
        <ele>648.8</ele>
        <time>2025-09-09T14:48:09Z</time>
      </trkpt>
      <trkpt lat="45.85863" lon="4.39287">
        <ele>648.8</ele>
        <time>2025-09-09T14:48:10Z</time>
      </trkpt>
      <trkpt lat="45.85863" lon="4.39287">
        <ele>649</ele>
        <time>2025-09-09T14:48:11Z</time>
      </trkpt>
      <trkpt lat="45.85862" lon="4.39286">
        <ele>649</ele>
        <time>2025-09-09T14:48:12Z</time>
      </trkpt>
      <trkpt lat="45.85861" lon="4.39286">
        <ele>649.2</ele>
        <time>2025-09-09T14:48:13Z</time>
      </trkpt>
      <trkpt lat="45.8586" lon="4.39286">
        <ele>649.2</ele>
        <time>2025-09-09T14:48:14Z</time>
      </trkpt>
      <trkpt lat="45.85859" lon="4.39286">
        <ele>649.2</ele>
        <time>2025-09-09T14:48:15Z</time>
      </trkpt>
      <trkpt lat="45.85858" lon="4.39286">
        <ele>649.2</ele>
        <time>2025-09-09T14:48:16Z</time>
      </trkpt>
      <trkpt lat="45.85857" lon="4.39286">
        <ele>649.4</ele>
        <time>2025-09-09T14:48:17Z</time>
      </trkpt>
      <trkpt lat="45.85856" lon="4.39286">
        <ele>649.8</ele>
        <time>2025-09-09T14:48:18Z</time>
      </trkpt>
      <trkpt lat="45.85856" lon="4.39287">
        <ele>649.8</ele>
        <time>2025-09-09T14:48:19Z</time>
      </trkpt>
      <trkpt lat="45.85855" lon="4.39287">
        <ele>649.8</ele>
        <time>2025-09-09T14:48:20Z</time>
      </trkpt>
      <trkpt lat="45.85854" lon="4.39287">
        <ele>650.2</ele>
        <time>2025-09-09T14:48:21Z</time>
      </trkpt>
      <trkpt lat="45.85854" lon="4.39287">
        <ele>650.2</ele>
        <time>2025-09-09T14:48:22Z</time>
      </trkpt>
      <trkpt lat="45.85852" lon="4.39287">
        <ele>650.2</ele>
        <time>2025-09-09T14:48:23Z</time>
      </trkpt>
      <trkpt lat="45.85851" lon="4.39286">
        <ele>650.4</ele>
        <time>2025-09-09T14:48:24Z</time>
      </trkpt>
      <trkpt lat="45.85851" lon="4.39285">
        <ele>650.4</ele>
        <time>2025-09-09T14:48:25Z</time>
      </trkpt>
      <trkpt lat="45.85851" lon="4.39284">
        <ele>650.4</ele>
        <time>2025-09-09T14:48:26Z</time>
      </trkpt>
      <trkpt lat="45.85851" lon="4.39284">
        <ele>650.8</ele>
        <time>2025-09-09T14:48:27Z</time>
      </trkpt>
      <trkpt lat="45.8585" lon="4.39283">
        <ele>650.8</ele>
        <time>2025-09-09T14:48:28Z</time>
      </trkpt>
      <trkpt lat="45.85849" lon="4.39283">
        <ele>650.8</ele>
        <time>2025-09-09T14:48:29Z</time>
      </trkpt>
      <trkpt lat="45.85848" lon="4.39283">
        <ele>651</ele>
        <time>2025-09-09T14:48:30Z</time>
      </trkpt>
      <trkpt lat="45.85847" lon="4.39283">
        <ele>651</ele>
        <time>2025-09-09T14:48:31Z</time>
      </trkpt>
      <trkpt lat="45.85847" lon="4.39283">
        <ele>651</ele>
        <time>2025-09-09T14:48:32Z</time>
      </trkpt>
      <trkpt lat="45.85846" lon="4.39283">
        <ele>651.4</ele>
        <time>2025-09-09T14:48:33Z</time>
      </trkpt>
      <trkpt lat="45.85844" lon="4.39283">
        <ele>651.6</ele>
        <time>2025-09-09T14:48:34Z</time>
      </trkpt>
      <trkpt lat="45.85843" lon="4.39282">
        <ele>652</ele>
        <time>2025-09-09T14:48:35Z</time>
      </trkpt>
      <trkpt lat="45.85842" lon="4.39282">
        <ele>652</ele>
        <time>2025-09-09T14:48:36Z</time>
      </trkpt>
      <trkpt lat="45.85841" lon="4.39281">
        <ele>652.2</ele>
        <time>2025-09-09T14:48:37Z</time>
      </trkpt>
      <trkpt lat="45.8584" lon="4.39281">
        <ele>652.2</ele>
        <time>2025-09-09T14:48:38Z</time>
      </trkpt>
      <trkpt lat="45.8584" lon="4.39281">
        <ele>652.4</ele>
        <time>2025-09-09T14:48:39Z</time>
      </trkpt>
      <trkpt lat="45.85838" lon="4.39281">
        <ele>652.8</ele>
        <time>2025-09-09T14:48:42Z</time>
      </trkpt>
      <trkpt lat="45.85837" lon="4.39281">
        <ele>652.8</ele>
        <time>2025-09-09T14:48:43Z</time>
      </trkpt>
      <trkpt lat="45.85836" lon="4.3928">
        <ele>653.2</ele>
        <time>2025-09-09T14:48:44Z</time>
      </trkpt>
      <trkpt lat="45.85835" lon="4.39279">
        <ele>653.2</ele>
        <time>2025-09-09T14:48:45Z</time>
      </trkpt>
      <trkpt lat="45.85835" lon="4.39279">
        <ele>653.2</ele>
        <time>2025-09-09T14:48:46Z</time>
      </trkpt>
      <trkpt lat="45.85833" lon="4.39278">
        <ele>653.4</ele>
        <time>2025-09-09T14:48:49Z</time>
      </trkpt>
      <trkpt lat="45.85832" lon="4.39278">
        <ele>653.6</ele>
        <time>2025-09-09T14:48:50Z</time>
      </trkpt>
      <trkpt lat="45.85831" lon="4.39278">
        <ele>653.6</ele>
        <time>2025-09-09T14:48:51Z</time>
      </trkpt>
      <trkpt lat="45.8583" lon="4.39278">
        <ele>653.6</ele>
        <time>2025-09-09T14:48:52Z</time>
      </trkpt>
      <trkpt lat="45.85829" lon="4.39277">
        <ele>653.6</ele>
        <time>2025-09-09T14:48:53Z</time>
      </trkpt>
      <trkpt lat="45.85828" lon="4.39276">
        <ele>654</ele>
        <time>2025-09-09T14:48:54Z</time>
      </trkpt>
      <trkpt lat="45.85827" lon="4.39275">
        <ele>654</ele>
        <time>2025-09-09T14:48:55Z</time>
      </trkpt>
      <trkpt lat="45.85826" lon="4.39274">
        <ele>654.2</ele>
        <time>2025-09-09T14:48:56Z</time>
      </trkpt>
      <trkpt lat="45.85825" lon="4.39273">
        <ele>654.2</ele>
        <time>2025-09-09T14:48:57Z</time>
      </trkpt>
      <trkpt lat="45.85824" lon="4.39272">
        <ele>654.2</ele>
        <time>2025-09-09T14:48:58Z</time>
      </trkpt>
      <trkpt lat="45.85823" lon="4.39272">
        <ele>654.4</ele>
        <time>2025-09-09T14:48:59Z</time>
      </trkpt>
      <trkpt lat="45.85822" lon="4.39271">
        <ele>654.4</ele>
        <time>2025-09-09T14:49:00Z</time>
      </trkpt>
      <trkpt lat="45.85821" lon="4.3927">
        <ele>654.8</ele>
        <time>2025-09-09T14:49:01Z</time>
      </trkpt>
      <trkpt lat="45.8582" lon="4.39269">
        <ele>654.8</ele>
        <time>2025-09-09T14:49:02Z</time>
      </trkpt>
      <trkpt lat="45.85818" lon="4.39268">
        <ele>655</ele>
        <time>2025-09-09T14:49:03Z</time>
      </trkpt>
      <trkpt lat="45.85817" lon="4.39267">
        <ele>655</ele>
        <time>2025-09-09T14:49:04Z</time>
      </trkpt>
      <trkpt lat="45.85816" lon="4.39266">
        <ele>655.4</ele>
        <time>2025-09-09T14:49:05Z</time>
      </trkpt>
      <trkpt lat="45.85816" lon="4.39266">
        <ele>655.4</ele>
        <time>2025-09-09T14:49:06Z</time>
      </trkpt>
      <trkpt lat="45.85815" lon="4.39266">
        <ele>655.4</ele>
        <time>2025-09-09T14:49:07Z</time>
      </trkpt>
      <trkpt lat="45.85814" lon="4.39266">
        <ele>655.6</ele>
        <time>2025-09-09T14:49:08Z</time>
      </trkpt>
      <trkpt lat="45.85814" lon="4.39265">
        <ele>655.6</ele>
        <time>2025-09-09T14:49:09Z</time>
      </trkpt>
      <trkpt lat="45.85813" lon="4.39265">
        <ele>656</ele>
        <time>2025-09-09T14:49:10Z</time>
      </trkpt>
      <trkpt lat="45.85811" lon="4.39264">
        <ele>656</ele>
        <time>2025-09-09T14:49:11Z</time>
      </trkpt>
      <trkpt lat="45.8581" lon="4.39263">
        <ele>656.2</ele>
        <time>2025-09-09T14:49:12Z</time>
      </trkpt>
      <trkpt lat="45.85809" lon="4.39263">
        <ele>656.2</ele>
        <time>2025-09-09T14:49:13Z</time>
      </trkpt>
      <trkpt lat="45.85808" lon="4.39263">
        <ele>656.6</ele>
        <time>2025-09-09T14:49:14Z</time>
      </trkpt>
      <trkpt lat="45.85808" lon="4.39263">
        <ele>656.6</ele>
        <time>2025-09-09T14:49:15Z</time>
      </trkpt>
      <trkpt lat="45.85807" lon="4.39263">
        <ele>656.8</ele>
        <time>2025-09-09T14:49:16Z</time>
      </trkpt>
      <trkpt lat="45.85806" lon="4.39263">
        <ele>656.8</ele>
        <time>2025-09-09T14:49:17Z</time>
      </trkpt>
      <trkpt lat="45.85806" lon="4.39262">
        <ele>657</ele>
        <time>2025-09-09T14:49:18Z</time>
      </trkpt>
      <trkpt lat="45.85805" lon="4.39262">
        <ele>657</ele>
        <time>2025-09-09T14:49:19Z</time>
      </trkpt>
      <trkpt lat="45.85805" lon="4.39262">
        <ele>657</ele>
        <time>2025-09-09T14:49:20Z</time>
      </trkpt>
      <trkpt lat="45.85804" lon="4.39262">
        <ele>657.4</ele>
        <time>2025-09-09T14:49:21Z</time>
      </trkpt>
      <trkpt lat="45.85803" lon="4.39262">
        <ele>657.6</ele>
        <time>2025-09-09T14:49:22Z</time>
      </trkpt>
      <trkpt lat="45.85802" lon="4.39262">
        <ele>657.6</ele>
        <time>2025-09-09T14:49:23Z</time>
      </trkpt>
      <trkpt lat="45.85801" lon="4.39262">
        <ele>657.8</ele>
        <time>2025-09-09T14:49:24Z</time>
      </trkpt>
      <trkpt lat="45.858" lon="4.39262">
        <ele>657.8</ele>
        <time>2025-09-09T14:49:25Z</time>
      </trkpt>
      <trkpt lat="45.858" lon="4.39262">
        <ele>658</ele>
        <time>2025-09-09T14:49:26Z</time>
      </trkpt>
      <trkpt lat="45.85799" lon="4.39261">
        <ele>658</ele>
        <time>2025-09-09T14:49:27Z</time>
      </trkpt>
      <trkpt lat="45.85799" lon="4.39261">
        <ele>658.2</ele>
        <time>2025-09-09T14:49:28Z</time>
      </trkpt>
      <trkpt lat="45.85798" lon="4.3926">
        <ele>658.2</ele>
        <time>2025-09-09T14:49:29Z</time>
      </trkpt>
      <trkpt lat="45.85797" lon="4.3926">
        <ele>658.6</ele>
        <time>2025-09-09T14:49:30Z</time>
      </trkpt>
      <trkpt lat="45.85796" lon="4.3926">
        <ele>658.6</ele>
        <time>2025-09-09T14:49:31Z</time>
      </trkpt>
      <trkpt lat="45.85795" lon="4.3926">
        <ele>658.8</ele>
        <time>2025-09-09T14:49:32Z</time>
      </trkpt>
      <trkpt lat="45.85795" lon="4.3926">
        <ele>658.8</ele>
        <time>2025-09-09T14:49:33Z</time>
      </trkpt>
      <trkpt lat="45.85794" lon="4.3926">
        <ele>659.2</ele>
        <time>2025-09-09T14:49:34Z</time>
      </trkpt>
      <trkpt lat="45.85793" lon="4.39259">
        <ele>659.2</ele>
        <time>2025-09-09T14:49:35Z</time>
      </trkpt>
      <trkpt lat="45.85792" lon="4.39258">
        <ele>659.4</ele>
        <time>2025-09-09T14:49:36Z</time>
      </trkpt>
      <trkpt lat="45.85791" lon="4.39257">
        <ele>659.4</ele>
        <time>2025-09-09T14:49:37Z</time>
      </trkpt>
      <trkpt lat="45.85791" lon="4.39257">
        <ele>659.4</ele>
        <time>2025-09-09T14:49:38Z</time>
      </trkpt>
      <trkpt lat="45.85791" lon="4.39257">
        <ele>659.8</ele>
        <time>2025-09-09T14:49:39Z</time>
      </trkpt>
      <trkpt lat="45.8579" lon="4.39256">
        <ele>659.8</ele>
        <time>2025-09-09T14:49:40Z</time>
      </trkpt>
      <trkpt lat="45.85789" lon="4.39255">
        <ele>659.8</ele>
        <time>2025-09-09T14:49:41Z</time>
      </trkpt>
      <trkpt lat="45.85788" lon="4.39255">
        <ele>660.2</ele>
        <time>2025-09-09T14:49:42Z</time>
      </trkpt>
      <trkpt lat="45.85787" lon="4.39254">
        <ele>660.2</ele>
        <time>2025-09-09T14:49:43Z</time>
      </trkpt>
      <trkpt lat="45.85787" lon="4.39254">
        <ele>660.6</ele>
        <time>2025-09-09T14:49:44Z</time>
      </trkpt>
      <trkpt lat="45.85786" lon="4.39253">
        <ele>660.6</ele>
        <time>2025-09-09T14:49:45Z</time>
      </trkpt>
      <trkpt lat="45.85785" lon="4.39252">
        <ele>660.8</ele>
        <time>2025-09-09T14:49:46Z</time>
      </trkpt>
      <trkpt lat="45.85784" lon="4.39251">
        <ele>660.8</ele>
        <time>2025-09-09T14:49:47Z</time>
      </trkpt>
      <trkpt lat="45.85783" lon="4.3925">
        <ele>660.8</ele>
        <time>2025-09-09T14:49:48Z</time>
      </trkpt>
      <trkpt lat="45.85782" lon="4.39249">
        <ele>660.8</ele>
        <time>2025-09-09T14:49:49Z</time>
      </trkpt>
      <trkpt lat="45.85781" lon="4.39249">
        <ele>661</ele>
        <time>2025-09-09T14:49:50Z</time>
      </trkpt>
      <trkpt lat="45.8578" lon="4.39247">
        <ele>661</ele>
        <time>2025-09-09T14:49:51Z</time>
      </trkpt>
      <trkpt lat="45.85779" lon="4.39246">
        <ele>661.4</ele>
        <time>2025-09-09T14:49:52Z</time>
      </trkpt>
      <trkpt lat="45.85778" lon="4.39245">
        <ele>661.4</ele>
        <time>2025-09-09T14:49:53Z</time>
      </trkpt>
      <trkpt lat="45.85778" lon="4.39245">
        <ele>661.6</ele>
        <time>2025-09-09T14:49:54Z</time>
      </trkpt>
      <trkpt lat="45.85777" lon="4.39244">
        <ele>661.6</ele>
        <time>2025-09-09T14:49:55Z</time>
      </trkpt>
      <trkpt lat="45.85776" lon="4.39244">
        <ele>661.6</ele>
        <time>2025-09-09T14:49:56Z</time>
      </trkpt>
      <trkpt lat="45.85775" lon="4.39244">
        <ele>661.6</ele>
        <time>2025-09-09T14:49:57Z</time>
      </trkpt>
      <trkpt lat="45.85774" lon="4.39243">
        <ele>662</ele>
        <time>2025-09-09T14:49:58Z</time>
      </trkpt>
      <trkpt lat="45.85773" lon="4.39243">
        <ele>662</ele>
        <time>2025-09-09T14:49:59Z</time>
      </trkpt>
      <trkpt lat="45.85772" lon="4.39242">
        <ele>662</ele>
        <time>2025-09-09T14:50:00Z</time>
      </trkpt>
      <trkpt lat="45.85772" lon="4.39242">
        <ele>662</ele>
        <time>2025-09-09T14:50:01Z</time>
      </trkpt>
      <trkpt lat="45.85771" lon="4.39241">
        <ele>662</ele>
        <time>2025-09-09T14:50:02Z</time>
      </trkpt>
      <trkpt lat="45.85771" lon="4.39241">
        <ele>662.2</ele>
        <time>2025-09-09T14:50:03Z</time>
      </trkpt>
      <trkpt lat="45.85771" lon="4.3924">
        <ele>662.4</ele>
        <time>2025-09-09T14:50:04Z</time>
      </trkpt>
      <trkpt lat="45.85771" lon="4.3924">
        <ele>662.4</ele>
        <time>2025-09-09T14:50:05Z</time>
      </trkpt>
      <trkpt lat="45.85771" lon="4.39239">
        <ele>662.4</ele>
        <time>2025-09-09T14:50:06Z</time>
      </trkpt>
      <trkpt lat="45.85771" lon="4.39237">
        <ele>662.4</ele>
        <time>2025-09-09T14:50:07Z</time>
      </trkpt>
      <trkpt lat="45.85769" lon="4.39235">
        <ele>662.8</ele>
        <time>2025-09-09T14:50:08Z</time>
      </trkpt>
      <trkpt lat="45.85768" lon="4.39234">
        <ele>662.8</ele>
        <time>2025-09-09T14:50:09Z</time>
      </trkpt>
      <trkpt lat="45.85768" lon="4.39234">
        <ele>662.8</ele>
        <time>2025-09-09T14:50:10Z</time>
      </trkpt>
      <trkpt lat="45.85767" lon="4.39234">
        <ele>663.2</ele>
        <time>2025-09-09T14:50:11Z</time>
      </trkpt>
      <trkpt lat="45.85767" lon="4.39233">
        <ele>663.2</ele>
        <time>2025-09-09T14:50:12Z</time>
      </trkpt>
      <trkpt lat="45.85765" lon="4.39233">
        <ele>663.2</ele>
        <time>2025-09-09T14:50:13Z</time>
      </trkpt>
      <trkpt lat="45.85765" lon="4.39233">
        <ele>663.2</ele>
        <time>2025-09-09T14:50:14Z</time>
      </trkpt>
      <trkpt lat="45.85764" lon="4.39232">
        <ele>663.2</ele>
        <time>2025-09-09T14:50:15Z</time>
      </trkpt>
      <trkpt lat="45.85764" lon="4.39231">
        <ele>663.2</ele>
        <time>2025-09-09T14:50:16Z</time>
      </trkpt>
      <trkpt lat="45.85764" lon="4.39229">
        <ele>663.4</ele>
        <time>2025-09-09T14:50:17Z</time>
      </trkpt>
      <trkpt lat="45.85763" lon="4.39228">
        <ele>663.4</ele>
        <time>2025-09-09T14:50:18Z</time>
      </trkpt>
      <trkpt lat="45.85762" lon="4.39227">
        <ele>663.4</ele>
        <time>2025-09-09T14:50:19Z</time>
      </trkpt>
      <trkpt lat="45.85761" lon="4.39226">
        <ele>663.6</ele>
        <time>2025-09-09T14:50:20Z</time>
      </trkpt>
      <trkpt lat="45.8576" lon="4.39225">
        <ele>663.6</ele>
        <time>2025-09-09T14:50:21Z</time>
      </trkpt>
      <trkpt lat="45.85759" lon="4.39224">
        <ele>664</ele>
        <time>2025-09-09T14:50:22Z</time>
      </trkpt>
      <trkpt lat="45.85758" lon="4.39224">
        <ele>664</ele>
        <time>2025-09-09T14:50:23Z</time>
      </trkpt>
      <trkpt lat="45.85757" lon="4.39224">
        <ele>664</ele>
        <time>2025-09-09T14:50:24Z</time>
      </trkpt>
      <trkpt lat="45.85756" lon="4.39224">
        <ele>664</ele>
        <time>2025-09-09T14:50:25Z</time>
      </trkpt>
      <trkpt lat="45.85755" lon="4.39224">
        <ele>664.2</ele>
        <time>2025-09-09T14:50:26Z</time>
      </trkpt>
      <trkpt lat="45.85755" lon="4.39224">
        <ele>664.2</ele>
        <time>2025-09-09T14:50:27Z</time>
      </trkpt>
      <trkpt lat="45.85754" lon="4.39224">
        <ele>664.2</ele>
        <time>2025-09-09T14:50:28Z</time>
      </trkpt>
      <trkpt lat="45.85753" lon="4.39223">
        <ele>664.6</ele>
        <time>2025-09-09T14:50:29Z</time>
      </trkpt>
      <trkpt lat="45.85751" lon="4.39221">
        <ele>664.6</ele>
        <time>2025-09-09T14:50:30Z</time>
      </trkpt>
      <trkpt lat="45.8575" lon="4.39221">
        <ele>665</ele>
        <time>2025-09-09T14:50:31Z</time>
      </trkpt>
      <trkpt lat="45.85749" lon="4.39221">
        <ele>665.2</ele>
        <time>2025-09-09T14:50:32Z</time>
      </trkpt>
      <trkpt lat="45.85749" lon="4.39221">
        <ele>665.2</ele>
        <time>2025-09-09T14:50:33Z</time>
      </trkpt>
      <trkpt lat="45.85748" lon="4.3922">
        <ele>665.4</ele>
        <time>2025-09-09T14:50:34Z</time>
      </trkpt>
      <trkpt lat="45.85747" lon="4.3922">
        <ele>665.4</ele>
        <time>2025-09-09T14:50:35Z</time>
      </trkpt>
      <trkpt lat="45.85745" lon="4.39218">
        <ele>665.4</ele>
        <time>2025-09-09T14:50:36Z</time>
      </trkpt>
      <trkpt lat="45.85745" lon="4.39218">
        <ele>665.4</ele>
        <time>2025-09-09T14:50:37Z</time>
      </trkpt>
      <trkpt lat="45.85744" lon="4.39218">
        <ele>665.8</ele>
        <time>2025-09-09T14:50:38Z</time>
      </trkpt>
      <trkpt lat="45.85744" lon="4.39216">
        <ele>665.8</ele>
        <time>2025-09-09T14:50:39Z</time>
      </trkpt>
      <trkpt lat="45.85743" lon="4.39215">
        <ele>666</ele>
        <time>2025-09-09T14:50:40Z</time>
      </trkpt>
      <trkpt lat="45.85743" lon="4.39214">
        <ele>666</ele>
        <time>2025-09-09T14:50:41Z</time>
      </trkpt>
      <trkpt lat="45.85742" lon="4.39213">
        <ele>666</ele>
        <time>2025-09-09T14:50:42Z</time>
      </trkpt>
      <trkpt lat="45.8574" lon="4.39212">
        <ele>666.2</ele>
        <time>2025-09-09T14:50:43Z</time>
      </trkpt>
      <trkpt lat="45.8574" lon="4.39211">
        <ele>666.2</ele>
        <time>2025-09-09T14:50:44Z</time>
      </trkpt>
      <trkpt lat="45.85739" lon="4.39211">
        <ele>666.2</ele>
        <time>2025-09-09T14:50:45Z</time>
      </trkpt>
      <trkpt lat="45.85738" lon="4.39211">
        <ele>666.6</ele>
        <time>2025-09-09T14:50:46Z</time>
      </trkpt>
      <trkpt lat="45.85738" lon="4.3921">
        <ele>666.6</ele>
        <time>2025-09-09T14:50:47Z</time>
      </trkpt>
      <trkpt lat="45.85737" lon="4.39209">
        <ele>666.6</ele>
        <time>2025-09-09T14:50:48Z</time>
      </trkpt>
      <trkpt lat="45.85737" lon="4.39209">
        <ele>667</ele>
        <time>2025-09-09T14:50:49Z</time>
      </trkpt>
      <trkpt lat="45.85736" lon="4.39209">
        <ele>667</ele>
        <time>2025-09-09T14:50:50Z</time>
      </trkpt>
      <trkpt lat="45.85737" lon="4.3921">
        <ele>667</ele>
        <time>2025-09-09T14:50:51Z</time>
      </trkpt>
      <trkpt lat="45.85737" lon="4.39211">
        <ele>667</ele>
        <time>2025-09-09T14:50:52Z</time>
      </trkpt>
      <trkpt lat="45.85734" lon="4.39208">
        <ele>667.8</ele>
        <time>2025-09-09T14:51:12Z</time>
      </trkpt>
      <trkpt lat="45.85733" lon="4.39207">
        <ele>667.8</ele>
        <time>2025-09-09T14:51:13Z</time>
      </trkpt>
      <trkpt lat="45.85733" lon="4.39207">
        <ele>667.8</ele>
        <time>2025-09-09T14:51:14Z</time>
      </trkpt>
      <trkpt lat="45.85732" lon="4.39206">
        <ele>668.2</ele>
        <time>2025-09-09T14:51:15Z</time>
      </trkpt>
      <trkpt lat="45.85731" lon="4.39205">
        <ele>668.2</ele>
        <time>2025-09-09T14:51:16Z</time>
      </trkpt>
      <trkpt lat="45.8573" lon="4.39203">
        <ele>668.2</ele>
        <time>2025-09-09T14:51:17Z</time>
      </trkpt>
      <trkpt lat="45.8573" lon="4.39203">
        <ele>668.2</ele>
        <time>2025-09-09T14:51:18Z</time>
      </trkpt>
      <trkpt lat="45.85729" lon="4.39203">
        <ele>668.4</ele>
        <time>2025-09-09T14:51:19Z</time>
      </trkpt>
      <trkpt lat="45.85729" lon="4.39202">
        <ele>668.6</ele>
        <time>2025-09-09T14:51:20Z</time>
      </trkpt>
      <trkpt lat="45.85728" lon="4.39202">
        <ele>668.6</ele>
        <time>2025-09-09T14:51:21Z</time>
      </trkpt>
      <trkpt lat="45.85728" lon="4.39201">
        <ele>668.8</ele>
        <time>2025-09-09T14:51:22Z</time>
      </trkpt>
      <trkpt lat="45.85727" lon="4.39201">
        <ele>668.8</ele>
        <time>2025-09-09T14:51:23Z</time>
      </trkpt>
      <trkpt lat="45.85726" lon="4.39201">
        <ele>669.2</ele>
        <time>2025-09-09T14:51:24Z</time>
      </trkpt>
      <trkpt lat="45.85724" lon="4.392">
        <ele>669.6</ele>
        <time>2025-09-09T14:51:29Z</time>
      </trkpt>
      <trkpt lat="45.85723" lon="4.39199">
        <ele>669.6</ele>
        <time>2025-09-09T14:51:30Z</time>
      </trkpt>
      <trkpt lat="45.85722" lon="4.39198">
        <ele>669.8</ele>
        <time>2025-09-09T14:51:31Z</time>
      </trkpt>
      <trkpt lat="45.85722" lon="4.39196">
        <ele>669.8</ele>
        <time>2025-09-09T14:51:32Z</time>
      </trkpt>
      <trkpt lat="45.85721" lon="4.39194">
        <ele>670</ele>
        <time>2025-09-09T14:51:33Z</time>
      </trkpt>
      <trkpt lat="45.85721" lon="4.39192">
        <ele>670</ele>
        <time>2025-09-09T14:51:34Z</time>
      </trkpt>
      <trkpt lat="45.85721" lon="4.39191">
        <ele>670.2</ele>
        <time>2025-09-09T14:51:35Z</time>
      </trkpt>
      <trkpt lat="45.85721" lon="4.3919">
        <ele>670.2</ele>
        <time>2025-09-09T14:51:36Z</time>
      </trkpt>
      <trkpt lat="45.8572" lon="4.3919">
        <ele>670.6</ele>
        <time>2025-09-09T14:51:37Z</time>
      </trkpt>
      <trkpt lat="45.8572" lon="4.3919">
        <ele>670.6</ele>
        <time>2025-09-09T14:51:38Z</time>
      </trkpt>
      <trkpt lat="45.8572" lon="4.39189">
        <ele>670.6</ele>
        <time>2025-09-09T14:51:39Z</time>
      </trkpt>
      <trkpt lat="45.85719" lon="4.39189">
        <ele>670.8</ele>
        <time>2025-09-09T14:51:40Z</time>
      </trkpt>
      <trkpt lat="45.85718" lon="4.39189">
        <ele>671</ele>
        <time>2025-09-09T14:51:41Z</time>
      </trkpt>
      <trkpt lat="45.85718" lon="4.3919">
        <ele>671.4</ele>
        <time>2025-09-09T14:51:42Z</time>
      </trkpt>
      <trkpt lat="45.85717" lon="4.3919">
        <ele>671.4</ele>
        <time>2025-09-09T14:51:43Z</time>
      </trkpt>
      <trkpt lat="45.85717" lon="4.3919">
        <ele>671.4</ele>
        <time>2025-09-09T14:51:44Z</time>
      </trkpt>
      <trkpt lat="45.85715" lon="4.39189">
        <ele>671.6</ele>
        <time>2025-09-09T14:51:45Z</time>
      </trkpt>
      <trkpt lat="45.85714" lon="4.39189">
        <ele>671.6</ele>
        <time>2025-09-09T14:51:46Z</time>
      </trkpt>
      <trkpt lat="45.85714" lon="4.39188">
        <ele>671.6</ele>
        <time>2025-09-09T14:51:47Z</time>
      </trkpt>
      <trkpt lat="45.85713" lon="4.39187">
        <ele>671.8</ele>
        <time>2025-09-09T14:51:48Z</time>
      </trkpt>
      <trkpt lat="45.85712" lon="4.39186">
        <ele>671.8</ele>
        <time>2025-09-09T14:51:49Z</time>
      </trkpt>
      <trkpt lat="45.85712" lon="4.39185">
        <ele>672</ele>
        <time>2025-09-09T14:51:50Z</time>
      </trkpt>
      <trkpt lat="45.85711" lon="4.39185">
        <ele>672</ele>
        <time>2025-09-09T14:51:51Z</time>
      </trkpt>
      <trkpt lat="45.85711" lon="4.39184">
        <ele>672</ele>
        <time>2025-09-09T14:51:52Z</time>
      </trkpt>
      <trkpt lat="45.85711" lon="4.39184">
        <ele>672.4</ele>
        <time>2025-09-09T14:51:53Z</time>
      </trkpt>
      <trkpt lat="45.8571" lon="4.39184">
        <ele>672.4</ele>
        <time>2025-09-09T14:51:54Z</time>
      </trkpt>
      <trkpt lat="45.8571" lon="4.39183">
        <ele>673</ele>
        <time>2025-09-09T14:51:55Z</time>
      </trkpt>
      <trkpt lat="45.85709" lon="4.39182">
        <ele>673</ele>
        <time>2025-09-09T14:51:56Z</time>
      </trkpt>
      <trkpt lat="45.85708" lon="4.39181">
        <ele>673</ele>
        <time>2025-09-09T14:51:57Z</time>
      </trkpt>
      <trkpt lat="45.85708" lon="4.39181">
        <ele>673.4</ele>
        <time>2025-09-09T14:51:58Z</time>
      </trkpt>
      <trkpt lat="45.85707" lon="4.39181">
        <ele>673.4</ele>
        <time>2025-09-09T14:51:59Z</time>
      </trkpt>
      <trkpt lat="45.85707" lon="4.39181">
        <ele>673.6</ele>
        <time>2025-09-09T14:52:00Z</time>
      </trkpt>
      <trkpt lat="45.85706" lon="4.39181">
        <ele>673.6</ele>
        <time>2025-09-09T14:52:01Z</time>
      </trkpt>
      <trkpt lat="45.85705" lon="4.39181">
        <ele>674</ele>
        <time>2025-09-09T14:52:02Z</time>
      </trkpt>
      <trkpt lat="45.85705" lon="4.3918">
        <ele>674</ele>
        <time>2025-09-09T14:52:03Z</time>
      </trkpt>
      <trkpt lat="45.85705" lon="4.3918">
        <ele>674.4</ele>
        <time>2025-09-09T14:52:04Z</time>
      </trkpt>
      <trkpt lat="45.85704" lon="4.39179">
        <ele>674.4</ele>
        <time>2025-09-09T14:52:05Z</time>
      </trkpt>
      <trkpt lat="45.85704" lon="4.3918">
        <ele>674.6</ele>
        <time>2025-09-09T14:52:06Z</time>
      </trkpt>
      <trkpt lat="45.85704" lon="4.3918">
        <ele>674.6</ele>
        <time>2025-09-09T14:52:07Z</time>
      </trkpt>
      <trkpt lat="45.85704" lon="4.39178">
        <ele>675</ele>
        <time>2025-09-09T14:52:08Z</time>
      </trkpt>
      <trkpt lat="45.85703" lon="4.39177">
        <ele>675.2</ele>
        <time>2025-09-09T14:52:09Z</time>
      </trkpt>
      <trkpt lat="45.85702" lon="4.39176">
        <ele>675.4</ele>
        <time>2025-09-09T14:52:10Z</time>
      </trkpt>
      <trkpt lat="45.85701" lon="4.39176">
        <ele>675.4</ele>
        <time>2025-09-09T14:52:11Z</time>
      </trkpt>
      <trkpt lat="45.85701" lon="4.39175">
        <ele>675.4</ele>
        <time>2025-09-09T14:52:12Z</time>
      </trkpt>
      <trkpt lat="45.857" lon="4.39175">
        <ele>675.8</ele>
        <time>2025-09-09T14:52:13Z</time>
      </trkpt>
      <trkpt lat="45.857" lon="4.39175">
        <ele>675.8</ele>
        <time>2025-09-09T14:52:14Z</time>
      </trkpt>
      <trkpt lat="45.85699" lon="4.39174">
        <ele>676</ele>
        <time>2025-09-09T14:52:15Z</time>
      </trkpt>
      <trkpt lat="45.85698" lon="4.39174">
        <ele>676</ele>
        <time>2025-09-09T14:52:16Z</time>
      </trkpt>
      <trkpt lat="45.85697" lon="4.39172">
        <ele>676.4</ele>
        <time>2025-09-09T14:52:17Z</time>
      </trkpt>
      <trkpt lat="45.85696" lon="4.39172">
        <ele>676.4</ele>
        <time>2025-09-09T14:52:18Z</time>
      </trkpt>
      <trkpt lat="45.85696" lon="4.39171">
        <ele>676.6</ele>
        <time>2025-09-09T14:52:19Z</time>
      </trkpt>
      <trkpt lat="45.85696" lon="4.39171">
        <ele>676.6</ele>
        <time>2025-09-09T14:52:20Z</time>
      </trkpt>
      <trkpt lat="45.85696" lon="4.3917">
        <ele>676.8</ele>
        <time>2025-09-09T14:52:23Z</time>
      </trkpt>
      <trkpt lat="45.85696" lon="4.39169">
        <ele>676.8</ele>
        <time>2025-09-09T14:52:24Z</time>
      </trkpt>
      <trkpt lat="45.85695" lon="4.39168">
        <ele>676.8</ele>
        <time>2025-09-09T14:52:25Z</time>
      </trkpt>
      <trkpt lat="45.85695" lon="4.39167">
        <ele>676.8</ele>
        <time>2025-09-09T14:52:26Z</time>
      </trkpt>
      <trkpt lat="45.85694" lon="4.39165">
        <ele>677.2</ele>
        <time>2025-09-09T14:52:27Z</time>
      </trkpt>
      <trkpt lat="45.85693" lon="4.39164">
        <ele>677.2</ele>
        <time>2025-09-09T14:52:28Z</time>
      </trkpt>
      <trkpt lat="45.85693" lon="4.39164">
        <ele>677.2</ele>
        <time>2025-09-09T14:52:29Z</time>
      </trkpt>
      <trkpt lat="45.85691" lon="4.3916">
        <ele>677.6</ele>
        <time>2025-09-09T14:52:47Z</time>
      </trkpt>
      <trkpt lat="45.85692" lon="4.39159">
        <ele>677.6</ele>
        <time>2025-09-09T14:52:48Z</time>
      </trkpt>
      <trkpt lat="45.85692" lon="4.39158">
        <ele>677.6</ele>
        <time>2025-09-09T14:52:49Z</time>
      </trkpt>
      <trkpt lat="45.85693" lon="4.39158">
        <ele>677.6</ele>
        <time>2025-09-09T14:52:50Z</time>
      </trkpt>
      <trkpt lat="45.85693" lon="4.39158">
        <ele>677.6</ele>
        <time>2025-09-09T14:52:51Z</time>
      </trkpt>
      <trkpt lat="45.85694" lon="4.39158">
        <ele>677.8</ele>
        <time>2025-09-09T14:52:52Z</time>
      </trkpt>
      <trkpt lat="45.85694" lon="4.39158">
        <ele>677.8</ele>
        <time>2025-09-09T14:52:53Z</time>
      </trkpt>
      <trkpt lat="45.85695" lon="4.39158">
        <ele>678</ele>
        <time>2025-09-09T14:52:54Z</time>
      </trkpt>
      <trkpt lat="45.85695" lon="4.39158">
        <ele>678.4</ele>
        <time>2025-09-09T14:52:55Z</time>
      </trkpt>
      <trkpt lat="45.85696" lon="4.39158">
        <ele>678.4</ele>
        <time>2025-09-09T14:52:56Z</time>
      </trkpt>
      <trkpt lat="45.85696" lon="4.39158">
        <ele>678.4</ele>
        <time>2025-09-09T14:52:57Z</time>
      </trkpt>
      <trkpt lat="45.85697" lon="4.39158">
        <ele>678.6</ele>
        <time>2025-09-09T14:52:58Z</time>
      </trkpt>
      <trkpt lat="45.85698" lon="4.39157">
        <ele>678.6</ele>
        <time>2025-09-09T14:52:59Z</time>
      </trkpt>
      <trkpt lat="45.85698" lon="4.39157">
        <ele>678.8</ele>
        <time>2025-09-09T14:53:00Z</time>
      </trkpt>
      <trkpt lat="45.85699" lon="4.39157">
        <ele>679</ele>
        <time>2025-09-09T14:53:01Z</time>
      </trkpt>
      <trkpt lat="45.85699" lon="4.39156">
        <ele>679</ele>
        <time>2025-09-09T14:53:02Z</time>
      </trkpt>
      <trkpt lat="45.85699" lon="4.39156">
        <ele>679.4</ele>
        <time>2025-09-09T14:53:03Z</time>
      </trkpt>
      <trkpt lat="45.857" lon="4.39155">
        <ele>679.6</ele>
        <time>2025-09-09T14:53:04Z</time>
      </trkpt>
      <trkpt lat="45.85701" lon="4.39154">
        <ele>679.6</ele>
        <time>2025-09-09T14:53:05Z</time>
      </trkpt>
      <trkpt lat="45.85701" lon="4.39154">
        <ele>679.8</ele>
        <time>2025-09-09T14:53:06Z</time>
      </trkpt>
      <trkpt lat="45.85701" lon="4.39153">
        <ele>679.8</ele>
        <time>2025-09-09T14:53:07Z</time>
      </trkpt>
      <trkpt lat="45.85701" lon="4.39153">
        <ele>679.8</ele>
        <time>2025-09-09T14:53:08Z</time>
      </trkpt>
      <trkpt lat="45.85702" lon="4.39153">
        <ele>680.2</ele>
        <time>2025-09-09T14:53:09Z</time>
      </trkpt>
      <trkpt lat="45.85702" lon="4.39153">
        <ele>680.4</ele>
        <time>2025-09-09T14:53:10Z</time>
      </trkpt>
      <trkpt lat="45.85703" lon="4.39152">
        <ele>680.4</ele>
        <time>2025-09-09T14:53:11Z</time>
      </trkpt>
      <trkpt lat="45.85703" lon="4.39151">
        <ele>680.4</ele>
        <time>2025-09-09T14:53:12Z</time>
      </trkpt>
      <trkpt lat="45.85704" lon="4.39151">
        <ele>680.8</ele>
        <time>2025-09-09T14:53:13Z</time>
      </trkpt>
      <trkpt lat="45.85705" lon="4.39151">
        <ele>680.8</ele>
        <time>2025-09-09T14:53:14Z</time>
      </trkpt>
      <trkpt lat="45.85706" lon="4.39151">
        <ele>681</ele>
        <time>2025-09-09T14:53:15Z</time>
      </trkpt>
      <trkpt lat="45.85706" lon="4.39152">
        <ele>681</ele>
        <time>2025-09-09T14:53:16Z</time>
      </trkpt>
      <trkpt lat="45.85707" lon="4.39152">
        <ele>681.2</ele>
        <time>2025-09-09T14:53:17Z</time>
      </trkpt>
      <trkpt lat="45.85707" lon="4.39153">
        <ele>681.2</ele>
        <time>2025-09-09T14:53:18Z</time>
      </trkpt>
      <trkpt lat="45.85707" lon="4.39153">
        <ele>681.6</ele>
        <time>2025-09-09T14:53:19Z</time>
      </trkpt>
      <trkpt lat="45.85707" lon="4.39153">
        <ele>681.6</ele>
        <time>2025-09-09T14:53:20Z</time>
      </trkpt>
      <trkpt lat="45.85708" lon="4.39152">
        <ele>681.8</ele>
        <time>2025-09-09T14:53:21Z</time>
      </trkpt>
      <trkpt lat="45.85708" lon="4.39152">
        <ele>681.8</ele>
        <time>2025-09-09T14:53:22Z</time>
      </trkpt>
      <trkpt lat="45.85709" lon="4.39152">
        <ele>682.2</ele>
        <time>2025-09-09T14:53:23Z</time>
      </trkpt>
      <trkpt lat="45.8571" lon="4.39151">
        <ele>682.2</ele>
        <time>2025-09-09T14:53:24Z</time>
      </trkpt>
      <trkpt lat="45.85711" lon="4.39151">
        <ele>682.4</ele>
        <time>2025-09-09T14:53:25Z</time>
      </trkpt>
      <trkpt lat="45.85711" lon="4.3915">
        <ele>682.4</ele>
        <time>2025-09-09T14:53:26Z</time>
      </trkpt>
      <trkpt lat="45.8571" lon="4.3915">
        <ele>682.6</ele>
        <time>2025-09-09T14:53:27Z</time>
      </trkpt>
      <trkpt lat="45.85711" lon="4.3915">
        <ele>682.6</ele>
        <time>2025-09-09T14:53:28Z</time>
      </trkpt>
      <trkpt lat="45.85712" lon="4.39149">
        <ele>682.8</ele>
        <time>2025-09-09T14:53:29Z</time>
      </trkpt>
      <trkpt lat="45.85714" lon="4.39149">
        <ele>682.8</ele>
        <time>2025-09-09T14:53:30Z</time>
      </trkpt>
      <trkpt lat="45.85715" lon="4.39149">
        <ele>683.2</ele>
        <time>2025-09-09T14:53:31Z</time>
      </trkpt>
      <trkpt lat="45.85716" lon="4.39148">
        <ele>683.2</ele>
        <time>2025-09-09T14:53:32Z</time>
      </trkpt>
      <trkpt lat="45.85717" lon="4.39148">
        <ele>683.6</ele>
        <time>2025-09-09T14:53:33Z</time>
      </trkpt>
      <trkpt lat="45.85717" lon="4.39148">
        <ele>683.6</ele>
        <time>2025-09-09T14:53:34Z</time>
      </trkpt>
      <trkpt lat="45.85718" lon="4.39148">
        <ele>683.8</ele>
        <time>2025-09-09T14:53:35Z</time>
      </trkpt>
      <trkpt lat="45.85718" lon="4.39148">
        <ele>683.8</ele>
        <time>2025-09-09T14:53:36Z</time>
      </trkpt>
      <trkpt lat="45.8572" lon="4.39148">
        <ele>683.8</ele>
        <time>2025-09-09T14:53:37Z</time>
      </trkpt>
      <trkpt lat="45.85721" lon="4.39147">
        <ele>684</ele>
        <time>2025-09-09T14:53:38Z</time>
      </trkpt>
      <trkpt lat="45.85722" lon="4.39146">
        <ele>684</ele>
        <time>2025-09-09T14:53:39Z</time>
      </trkpt>
      <trkpt lat="45.85723" lon="4.39145">
        <ele>684.4</ele>
        <time>2025-09-09T14:53:40Z</time>
      </trkpt>
      <trkpt lat="45.85724" lon="4.39144">
        <ele>684.4</ele>
        <time>2025-09-09T14:53:41Z</time>
      </trkpt>
      <trkpt lat="45.85725" lon="4.39143">
        <ele>684.6</ele>
        <time>2025-09-09T14:53:42Z</time>
      </trkpt>
      <trkpt lat="45.85726" lon="4.39143">
        <ele>684.6</ele>
        <time>2025-09-09T14:53:43Z</time>
      </trkpt>
      <trkpt lat="45.85727" lon="4.39142">
        <ele>684.8</ele>
        <time>2025-09-09T14:53:44Z</time>
      </trkpt>
      <trkpt lat="45.85728" lon="4.39142">
        <ele>684.8</ele>
        <time>2025-09-09T14:53:45Z</time>
      </trkpt>
      <trkpt lat="45.85728" lon="4.39142">
        <ele>684.8</ele>
        <time>2025-09-09T14:53:46Z</time>
      </trkpt>
      <trkpt lat="45.85729" lon="4.39141">
        <ele>685</ele>
        <time>2025-09-09T14:53:47Z</time>
      </trkpt>
      <trkpt lat="45.8573" lon="4.39141">
        <ele>685</ele>
        <time>2025-09-09T14:53:48Z</time>
      </trkpt>
      <trkpt lat="45.85732" lon="4.3914">
        <ele>685</ele>
        <time>2025-09-09T14:53:49Z</time>
      </trkpt>
      <trkpt lat="45.85733" lon="4.39139">
        <ele>685</ele>
        <time>2025-09-09T14:53:50Z</time>
      </trkpt>
      <trkpt lat="45.85734" lon="4.39138">
        <ele>685</ele>
        <time>2025-09-09T14:53:51Z</time>
      </trkpt>
      <trkpt lat="45.85736" lon="4.39136">
        <ele>685.4</ele>
        <time>2025-09-09T14:53:52Z</time>
      </trkpt>
      <trkpt lat="45.85736" lon="4.39135">
        <ele>685.4</ele>
        <time>2025-09-09T14:53:53Z</time>
      </trkpt>
      <trkpt lat="45.85737" lon="4.39135">
        <ele>685.4</ele>
        <time>2025-09-09T14:53:54Z</time>
      </trkpt>
      <trkpt lat="45.85738" lon="4.39135">
        <ele>685.6</ele>
        <time>2025-09-09T14:53:55Z</time>
      </trkpt>
      <trkpt lat="45.85738" lon="4.39135">
        <ele>685.6</ele>
        <time>2025-09-09T14:53:56Z</time>
      </trkpt>
      <trkpt lat="45.85739" lon="4.39134">
        <ele>685.6</ele>
        <time>2025-09-09T14:53:57Z</time>
      </trkpt>
      <trkpt lat="45.85739" lon="4.39134">
        <ele>685.6</ele>
        <time>2025-09-09T14:53:58Z</time>
      </trkpt>
      <trkpt lat="45.8574" lon="4.39133">
        <ele>685.6</ele>
        <time>2025-09-09T14:53:59Z</time>
      </trkpt>
      <trkpt lat="45.8574" lon="4.39132">
        <ele>685.6</ele>
        <time>2025-09-09T14:54:00Z</time>
      </trkpt>
      <trkpt lat="45.85741" lon="4.39132">
        <ele>685.6</ele>
        <time>2025-09-09T14:54:01Z</time>
      </trkpt>
      <trkpt lat="45.85742" lon="4.39132">
        <ele>685.8</ele>
        <time>2025-09-09T14:54:02Z</time>
      </trkpt>
      <trkpt lat="45.85752" lon="4.39132">
        <ele>685.8</ele>
        <time>2025-09-09T14:54:24Z</time>
      </trkpt>
      <trkpt lat="45.85753" lon="4.39132">
        <ele>686</ele>
        <time>2025-09-09T14:54:25Z</time>
      </trkpt>
      <trkpt lat="45.85755" lon="4.39131">
        <ele>686</ele>
        <time>2025-09-09T14:54:26Z</time>
      </trkpt>
      <trkpt lat="45.85755" lon="4.39131">
        <ele>685.8</ele>
        <time>2025-09-09T14:54:27Z</time>
      </trkpt>
      <trkpt lat="45.85756" lon="4.39131">
        <ele>685.8</ele>
        <time>2025-09-09T14:54:28Z</time>
      </trkpt>
      <trkpt lat="45.85757" lon="4.39131">
        <ele>685.8</ele>
        <time>2025-09-09T14:54:29Z</time>
      </trkpt>
      <trkpt lat="45.85759" lon="4.39129">
        <ele>685.8</ele>
        <time>2025-09-09T14:54:30Z</time>
      </trkpt>
      <trkpt lat="45.8576" lon="4.39127">
        <ele>685.8</ele>
        <time>2025-09-09T14:54:31Z</time>
      </trkpt>
      <trkpt lat="45.85763" lon="4.39125">
        <ele>685.8</ele>
        <time>2025-09-09T14:54:32Z</time>
      </trkpt>
      <trkpt lat="45.85765" lon="4.39124">
        <ele>685.8</ele>
        <time>2025-09-09T14:54:33Z</time>
      </trkpt>
      <trkpt lat="45.85767" lon="4.39123">
        <ele>685.8</ele>
        <time>2025-09-09T14:54:34Z</time>
      </trkpt>
      <trkpt lat="45.85768" lon="4.39122">
        <ele>685.8</ele>
        <time>2025-09-09T14:54:35Z</time>
      </trkpt>
      <trkpt lat="45.85769" lon="4.39121">
        <ele>685.8</ele>
        <time>2025-09-09T14:54:36Z</time>
      </trkpt>
      <trkpt lat="45.85772" lon="4.3912">
        <ele>685.6</ele>
        <time>2025-09-09T14:54:37Z</time>
      </trkpt>
      <trkpt lat="45.85774" lon="4.39119">
        <ele>685.6</ele>
        <time>2025-09-09T14:54:38Z</time>
      </trkpt>
      <trkpt lat="45.85776" lon="4.39118">
        <ele>685.6</ele>
        <time>2025-09-09T14:54:39Z</time>
      </trkpt>
      <trkpt lat="45.85778" lon="4.39118">
        <ele>685.6</ele>
        <time>2025-09-09T14:54:40Z</time>
      </trkpt>
      <trkpt lat="45.8578" lon="4.39117">
        <ele>685.6</ele>
        <time>2025-09-09T14:54:41Z</time>
      </trkpt>
      <trkpt lat="45.85782" lon="4.39116">
        <ele>685.8</ele>
        <time>2025-09-09T14:54:42Z</time>
      </trkpt>
      <trkpt lat="45.85784" lon="4.39115">
        <ele>685.8</ele>
        <time>2025-09-09T14:54:43Z</time>
      </trkpt>
      <trkpt lat="45.85785" lon="4.39114">
        <ele>685.8</ele>
        <time>2025-09-09T14:54:44Z</time>
      </trkpt>
      <trkpt lat="45.85786" lon="4.39114">
        <ele>686</ele>
        <time>2025-09-09T14:54:45Z</time>
      </trkpt>
      <trkpt lat="45.85786" lon="4.39113">
        <ele>686</ele>
        <time>2025-09-09T14:54:46Z</time>
      </trkpt>
      <trkpt lat="45.8579" lon="4.39107">
        <ele>687</ele>
        <time>2025-09-09T14:54:58Z</time>
      </trkpt>
      <trkpt lat="45.85791" lon="4.39106">
        <ele>687</ele>
        <time>2025-09-09T14:54:59Z</time>
      </trkpt>
      <trkpt lat="45.85792" lon="4.39105">
        <ele>687</ele>
        <time>2025-09-09T14:55:00Z</time>
      </trkpt>
      <trkpt lat="45.85794" lon="4.39104">
        <ele>687.4</ele>
        <time>2025-09-09T14:55:01Z</time>
      </trkpt>
      <trkpt lat="45.85796" lon="4.39102">
        <ele>687.4</ele>
        <time>2025-09-09T14:55:02Z</time>
      </trkpt>
      <trkpt lat="45.85797" lon="4.391">
        <ele>687.4</ele>
        <time>2025-09-09T14:55:03Z</time>
      </trkpt>
      <trkpt lat="45.858" lon="4.39097">
        <ele>687.6</ele>
        <time>2025-09-09T14:55:04Z</time>
      </trkpt>
      <trkpt lat="45.85802" lon="4.39095">
        <ele>687.6</ele>
        <time>2025-09-09T14:55:05Z</time>
      </trkpt>
      <trkpt lat="45.85804" lon="4.39093">
        <ele>687.6</ele>
        <time>2025-09-09T14:55:06Z</time>
      </trkpt>
      <trkpt lat="45.85806" lon="4.39091">
        <ele>688</ele>
        <time>2025-09-09T14:55:07Z</time>
      </trkpt>
      <trkpt lat="45.85806" lon="4.39089">
        <ele>688</ele>
        <time>2025-09-09T14:55:08Z</time>
      </trkpt>
      <trkpt lat="45.85807" lon="4.39086">
        <ele>688.4</ele>
        <time>2025-09-09T14:55:09Z</time>
      </trkpt>
      <trkpt lat="45.85809" lon="4.39084">
        <ele>688.4</ele>
        <time>2025-09-09T14:55:10Z</time>
      </trkpt>
      <trkpt lat="45.85811" lon="4.39082">
        <ele>688.4</ele>
        <time>2025-09-09T14:55:11Z</time>
      </trkpt>
      <trkpt lat="45.85812" lon="4.3908">
        <ele>688.6</ele>
        <time>2025-09-09T14:55:12Z</time>
      </trkpt>
      <trkpt lat="45.85814" lon="4.39079">
        <ele>688.6</ele>
        <time>2025-09-09T14:55:13Z</time>
      </trkpt>
      <trkpt lat="45.85815" lon="4.39078">
        <ele>688.8</ele>
        <time>2025-09-09T14:55:14Z</time>
      </trkpt>
      <trkpt lat="45.85816" lon="4.39077">
        <ele>689.2</ele>
        <time>2025-09-09T14:55:15Z</time>
      </trkpt>
      <trkpt lat="45.85817" lon="4.39075">
        <ele>689.2</ele>
        <time>2025-09-09T14:55:16Z</time>
      </trkpt>
      <trkpt lat="45.85818" lon="4.39072">
        <ele>689.2</ele>
        <time>2025-09-09T14:55:17Z</time>
      </trkpt>
      <trkpt lat="45.85818" lon="4.3907">
        <ele>689.6</ele>
        <time>2025-09-09T14:55:18Z</time>
      </trkpt>
      <trkpt lat="45.85819" lon="4.39068">
        <ele>689.6</ele>
        <time>2025-09-09T14:55:19Z</time>
      </trkpt>
      <trkpt lat="45.85822" lon="4.39065">
        <ele>689.6</ele>
        <time>2025-09-09T14:55:20Z</time>
      </trkpt>
      <trkpt lat="45.85824" lon="4.39063">
        <ele>689.6</ele>
        <time>2025-09-09T14:55:21Z</time>
      </trkpt>
      <trkpt lat="45.85824" lon="4.39062">
        <ele>689.6</ele>
        <time>2025-09-09T14:55:22Z</time>
      </trkpt>
      <trkpt lat="45.85825" lon="4.39061">
        <ele>689.6</ele>
        <time>2025-09-09T14:55:23Z</time>
      </trkpt>
      <trkpt lat="45.85826" lon="4.39058">
        <ele>689.8</ele>
        <time>2025-09-09T14:55:24Z</time>
      </trkpt>
      <trkpt lat="45.85827" lon="4.39055">
        <ele>689.8</ele>
        <time>2025-09-09T14:55:25Z</time>
      </trkpt>
      <trkpt lat="45.85828" lon="4.39053">
        <ele>689.8</ele>
        <time>2025-09-09T14:55:26Z</time>
      </trkpt>
      <trkpt lat="45.85829" lon="4.39051">
        <ele>689.8</ele>
        <time>2025-09-09T14:55:27Z</time>
      </trkpt>
      <trkpt lat="45.85831" lon="4.39048">
        <ele>689.8</ele>
        <time>2025-09-09T14:55:28Z</time>
      </trkpt>
      <trkpt lat="45.85832" lon="4.39047">
        <ele>690.4</ele>
        <time>2025-09-09T14:55:29Z</time>
      </trkpt>
      <trkpt lat="45.85833" lon="4.39046">
        <ele>690.6</ele>
        <time>2025-09-09T14:55:30Z</time>
      </trkpt>
      <trkpt lat="45.85834" lon="4.39045">
        <ele>690.6</ele>
        <time>2025-09-09T14:55:31Z</time>
      </trkpt>
      <trkpt lat="45.85836" lon="4.39045">
        <ele>690.6</ele>
        <time>2025-09-09T14:55:32Z</time>
      </trkpt>
      <trkpt lat="45.85837" lon="4.39045">
        <ele>690.6</ele>
        <time>2025-09-09T14:55:33Z</time>
      </trkpt>
      <trkpt lat="45.85838" lon="4.39044">
        <ele>690.8</ele>
        <time>2025-09-09T14:55:34Z</time>
      </trkpt>
      <trkpt lat="45.85838" lon="4.39044">
        <ele>691.2</ele>
        <time>2025-09-09T14:55:35Z</time>
      </trkpt>
      <trkpt lat="45.85838" lon="4.39044">
        <ele>691.2</ele>
        <time>2025-09-09T14:55:36Z</time>
      </trkpt>
      <trkpt lat="45.85841" lon="4.39037">
        <ele>691.4</ele>
        <time>2025-09-09T14:55:38Z</time>
      </trkpt>
      <trkpt lat="45.85841" lon="4.39035">
        <ele>691.6</ele>
        <time>2025-09-09T14:55:39Z</time>
      </trkpt>
      <trkpt lat="45.85843" lon="4.39034">
        <ele>691.6</ele>
        <time>2025-09-09T14:55:40Z</time>
      </trkpt>
      <trkpt lat="45.85843" lon="4.39034">
        <ele>691.6</ele>
        <time>2025-09-09T14:55:41Z</time>
      </trkpt>
      <trkpt lat="45.85842" lon="4.39034">
        <ele>692</ele>
        <time>2025-09-09T14:55:42Z</time>
      </trkpt>
      <trkpt lat="45.85842" lon="4.39033">
        <ele>692</ele>
        <time>2025-09-09T14:55:43Z</time>
      </trkpt>
      <trkpt lat="45.85843" lon="4.39031">
        <ele>692.2</ele>
        <time>2025-09-09T14:55:44Z</time>
      </trkpt>
      <trkpt lat="45.85845" lon="4.39028">
        <ele>692.2</ele>
        <time>2025-09-09T14:55:45Z</time>
      </trkpt>
      <trkpt lat="45.85846" lon="4.39026">
        <ele>692.2</ele>
        <time>2025-09-09T14:55:46Z</time>
      </trkpt>
      <trkpt lat="45.85846" lon="4.39024">
        <ele>692.2</ele>
        <time>2025-09-09T14:55:47Z</time>
      </trkpt>
      <trkpt lat="45.85847" lon="4.39023">
        <ele>692.2</ele>
        <time>2025-09-09T14:55:48Z</time>
      </trkpt>
      <trkpt lat="45.85848" lon="4.3902">
        <ele>692.6</ele>
        <time>2025-09-09T14:55:49Z</time>
      </trkpt>
      <trkpt lat="45.85849" lon="4.39018">
        <ele>692.6</ele>
        <time>2025-09-09T14:55:50Z</time>
      </trkpt>
      <trkpt lat="45.85849" lon="4.39017">
        <ele>692.6</ele>
        <time>2025-09-09T14:55:51Z</time>
      </trkpt>
      <trkpt lat="45.8585" lon="4.39017">
        <ele>693</ele>
        <time>2025-09-09T14:55:52Z</time>
      </trkpt>
      <trkpt lat="45.85851" lon="4.39015">
        <ele>693</ele>
        <time>2025-09-09T14:55:53Z</time>
      </trkpt>
      <trkpt lat="45.85852" lon="4.39014">
        <ele>693.4</ele>
        <time>2025-09-09T14:55:54Z</time>
      </trkpt>
      <trkpt lat="45.85853" lon="4.39013">
        <ele>693.4</ele>
        <time>2025-09-09T14:55:55Z</time>
      </trkpt>
      <trkpt lat="45.85855" lon="4.39013">
        <ele>693.6</ele>
        <time>2025-09-09T14:55:56Z</time>
      </trkpt>
      <trkpt lat="45.85856" lon="4.39012">
        <ele>693.6</ele>
        <time>2025-09-09T14:55:57Z</time>
      </trkpt>
      <trkpt lat="45.85858" lon="4.39011">
        <ele>693.6</ele>
        <time>2025-09-09T14:55:58Z</time>
      </trkpt>
      <trkpt lat="45.85858" lon="4.39011">
        <ele>693.6</ele>
        <time>2025-09-09T14:55:59Z</time>
      </trkpt>
      <trkpt lat="45.8586" lon="4.39007">
        <ele>693.6</ele>
        <time>2025-09-09T14:56:00Z</time>
      </trkpt>
      <trkpt lat="45.8586" lon="4.39005">
        <ele>693.6</ele>
        <time>2025-09-09T14:56:01Z</time>
      </trkpt>
      <trkpt lat="45.8586" lon="4.39003">
        <ele>693.8</ele>
        <time>2025-09-09T14:56:02Z</time>
      </trkpt>
      <trkpt lat="45.8586" lon="4.39002">
        <ele>693.8</ele>
        <time>2025-09-09T14:56:03Z</time>
      </trkpt>
      <trkpt lat="45.85861" lon="4.39">
        <ele>694.2</ele>
        <time>2025-09-09T14:56:04Z</time>
      </trkpt>
      <trkpt lat="45.85862" lon="4.38998">
        <ele>694.6</ele>
        <time>2025-09-09T14:56:05Z</time>
      </trkpt>
      <trkpt lat="45.85863" lon="4.38996">
        <ele>694.6</ele>
        <time>2025-09-09T14:56:06Z</time>
      </trkpt>
      <trkpt lat="45.85864" lon="4.38995">
        <ele>694.8</ele>
        <time>2025-09-09T14:56:07Z</time>
      </trkpt>
      <trkpt lat="45.85865" lon="4.38994">
        <ele>694.8</ele>
        <time>2025-09-09T14:56:08Z</time>
      </trkpt>
      <trkpt lat="45.85866" lon="4.38993">
        <ele>694.8</ele>
        <time>2025-09-09T14:56:09Z</time>
      </trkpt>
      <trkpt lat="45.85867" lon="4.38993">
        <ele>694.8</ele>
        <time>2025-09-09T14:56:10Z</time>
      </trkpt>
      <trkpt lat="45.85867" lon="4.38993">
        <ele>695.2</ele>
        <time>2025-09-09T14:56:11Z</time>
      </trkpt>
      <trkpt lat="45.85868" lon="4.38993">
        <ele>695.2</ele>
        <time>2025-09-09T14:56:12Z</time>
      </trkpt>
      <trkpt lat="45.85869" lon="4.38993">
        <ele>695.2</ele>
        <time>2025-09-09T14:56:13Z</time>
      </trkpt>
      <trkpt lat="45.8587" lon="4.38993">
        <ele>695.2</ele>
        <time>2025-09-09T14:56:14Z</time>
      </trkpt>
      <trkpt lat="45.85871" lon="4.38993">
        <ele>695.2</ele>
        <time>2025-09-09T14:56:15Z</time>
      </trkpt>
      <trkpt lat="45.85871" lon="4.38992">
        <ele>695.2</ele>
        <time>2025-09-09T14:56:16Z</time>
      </trkpt>
      <trkpt lat="45.85872" lon="4.38991">
        <ele>695.2</ele>
        <time>2025-09-09T14:56:17Z</time>
      </trkpt>
      <trkpt lat="45.85872" lon="4.3899">
        <ele>695.2</ele>
        <time>2025-09-09T14:56:18Z</time>
      </trkpt>
      <trkpt lat="45.85873" lon="4.38987">
        <ele>695.6</ele>
        <time>2025-09-09T14:56:19Z</time>
      </trkpt>
      <trkpt lat="45.85874" lon="4.38985">
        <ele>695.8</ele>
        <time>2025-09-09T14:56:20Z</time>
      </trkpt>
      <trkpt lat="45.85874" lon="4.38985">
        <ele>695.8</ele>
        <time>2025-09-09T14:56:21Z</time>
      </trkpt>
      <trkpt lat="45.85875" lon="4.38983">
        <ele>695.8</ele>
        <time>2025-09-09T14:56:22Z</time>
      </trkpt>
      <trkpt lat="45.85875" lon="4.38983">
        <ele>696</ele>
        <time>2025-09-09T14:56:23Z</time>
      </trkpt>
      <trkpt lat="45.85875" lon="4.38982">
        <ele>696</ele>
        <time>2025-09-09T14:56:24Z</time>
      </trkpt>
      <trkpt lat="45.85876" lon="4.38982">
        <ele>696</ele>
        <time>2025-09-09T14:56:25Z</time>
      </trkpt>
      <trkpt lat="45.85877" lon="4.38982">
        <ele>696</ele>
        <time>2025-09-09T14:56:26Z</time>
      </trkpt>
      <trkpt lat="45.85878" lon="4.38981">
        <ele>696.4</ele>
        <time>2025-09-09T14:56:27Z</time>
      </trkpt>
      <trkpt lat="45.8588" lon="4.38981">
        <ele>696.4</ele>
        <time>2025-09-09T14:56:28Z</time>
      </trkpt>
      <trkpt lat="45.85881" lon="4.38981">
        <ele>696.6</ele>
        <time>2025-09-09T14:56:29Z</time>
      </trkpt>
      <trkpt lat="45.85882" lon="4.3898">
        <ele>696.6</ele>
        <time>2025-09-09T14:56:30Z</time>
      </trkpt>
      <trkpt lat="45.85884" lon="4.38978">
        <ele>696.8</ele>
        <time>2025-09-09T14:56:31Z</time>
      </trkpt>
      <trkpt lat="45.85885" lon="4.38976">
        <ele>696.8</ele>
        <time>2025-09-09T14:56:32Z</time>
      </trkpt>
      <trkpt lat="45.85886" lon="4.38973">
        <ele>696.8</ele>
        <time>2025-09-09T14:56:33Z</time>
      </trkpt>
      <trkpt lat="45.85887" lon="4.38972">
        <ele>697.2</ele>
        <time>2025-09-09T14:56:34Z</time>
      </trkpt>
      <trkpt lat="45.85888" lon="4.3897">
        <ele>697.2</ele>
        <time>2025-09-09T14:56:35Z</time>
      </trkpt>
      <trkpt lat="45.8589" lon="4.38967">
        <ele>697.2</ele>
        <time>2025-09-09T14:56:36Z</time>
      </trkpt>
      <trkpt lat="45.85891" lon="4.38965">
        <ele>697.2</ele>
        <time>2025-09-09T14:56:37Z</time>
      </trkpt>
      <trkpt lat="45.85893" lon="4.38963">
        <ele>697.4</ele>
        <time>2025-09-09T14:56:38Z</time>
      </trkpt>
      <trkpt lat="45.85894" lon="4.38962">
        <ele>697.4</ele>
        <time>2025-09-09T14:56:39Z</time>
      </trkpt>
      <trkpt lat="45.85895" lon="4.38961">
        <ele>697.6</ele>
        <time>2025-09-09T14:56:40Z</time>
      </trkpt>
      <trkpt lat="45.85897" lon="4.3896">
        <ele>697.6</ele>
        <time>2025-09-09T14:56:41Z</time>
      </trkpt>
      <trkpt lat="45.85898" lon="4.38958">
        <ele>697.6</ele>
        <time>2025-09-09T14:56:42Z</time>
      </trkpt>
      <trkpt lat="45.85899" lon="4.38957">
        <ele>698</ele>
        <time>2025-09-09T14:56:43Z</time>
      </trkpt>
      <trkpt lat="45.85901" lon="4.38956">
        <ele>698</ele>
        <time>2025-09-09T14:56:44Z</time>
      </trkpt>
      <trkpt lat="45.85902" lon="4.38955">
        <ele>698</ele>
        <time>2025-09-09T14:56:45Z</time>
      </trkpt>
      <trkpt lat="45.85903" lon="4.38954">
        <ele>698</ele>
        <time>2025-09-09T14:56:46Z</time>
      </trkpt>
      <trkpt lat="45.85905" lon="4.38953">
        <ele>698.2</ele>
        <time>2025-09-09T14:56:47Z</time>
      </trkpt>
      <trkpt lat="45.85907" lon="4.38951">
        <ele>698.2</ele>
        <time>2025-09-09T14:56:48Z</time>
      </trkpt>
      <trkpt lat="45.85908" lon="4.38949">
        <ele>698.2</ele>
        <time>2025-09-09T14:56:49Z</time>
      </trkpt>
      <trkpt lat="45.85909" lon="4.38948">
        <ele>698.6</ele>
        <time>2025-09-09T14:56:50Z</time>
      </trkpt>
      <trkpt lat="45.85911" lon="4.38946">
        <ele>698.6</ele>
        <time>2025-09-09T14:56:51Z</time>
      </trkpt>
      <trkpt lat="45.85912" lon="4.38944">
        <ele>698.6</ele>
        <time>2025-09-09T14:56:52Z</time>
      </trkpt>
      <trkpt lat="45.85912" lon="4.38944">
        <ele>698.6</ele>
        <time>2025-09-09T14:56:53Z</time>
      </trkpt>
      <trkpt lat="45.85914" lon="4.38943">
        <ele>698.6</ele>
        <time>2025-09-09T14:56:54Z</time>
      </trkpt>
      <trkpt lat="45.85915" lon="4.38941">
        <ele>698.6</ele>
        <time>2025-09-09T14:56:55Z</time>
      </trkpt>
      <trkpt lat="45.85917" lon="4.38938">
        <ele>699</ele>
        <time>2025-09-09T14:56:56Z</time>
      </trkpt>
      <trkpt lat="45.85918" lon="4.38935">
        <ele>699</ele>
        <time>2025-09-09T14:56:57Z</time>
      </trkpt>
      <trkpt lat="45.85919" lon="4.38932">
        <ele>699</ele>
        <time>2025-09-09T14:56:58Z</time>
      </trkpt>
      <trkpt lat="45.8592" lon="4.38932">
        <ele>699.4</ele>
        <time>2025-09-09T14:56:59Z</time>
      </trkpt>
      <trkpt lat="45.85921" lon="4.38931">
        <ele>699.4</ele>
        <time>2025-09-09T14:57:00Z</time>
      </trkpt>
      <trkpt lat="45.85922" lon="4.38931">
        <ele>699.6</ele>
        <time>2025-09-09T14:57:01Z</time>
      </trkpt>
      <trkpt lat="45.85923" lon="4.38931">
        <ele>699.6</ele>
        <time>2025-09-09T14:57:02Z</time>
      </trkpt>
      <trkpt lat="45.85925" lon="4.3893">
        <ele>699.6</ele>
        <time>2025-09-09T14:57:03Z</time>
      </trkpt>
      <trkpt lat="45.85927" lon="4.38929">
        <ele>699.6</ele>
        <time>2025-09-09T14:57:04Z</time>
      </trkpt>
      <trkpt lat="45.8593" lon="4.38929">
        <ele>699.8</ele>
        <time>2025-09-09T14:57:05Z</time>
      </trkpt>
      <trkpt lat="45.85931" lon="4.38929">
        <ele>699.8</ele>
        <time>2025-09-09T14:57:06Z</time>
      </trkpt>
      <trkpt lat="45.85933" lon="4.38928">
        <ele>699.8</ele>
        <time>2025-09-09T14:57:07Z</time>
      </trkpt>
      <trkpt lat="45.85934" lon="4.38926">
        <ele>700.2</ele>
        <time>2025-09-09T14:57:08Z</time>
      </trkpt>
      <trkpt lat="45.85936" lon="4.38925">
        <ele>700.4</ele>
        <time>2025-09-09T14:57:09Z</time>
      </trkpt>
      <trkpt lat="45.85938" lon="4.38923">
        <ele>700.4</ele>
        <time>2025-09-09T14:57:10Z</time>
      </trkpt>
      <trkpt lat="45.85939" lon="4.38922">
        <ele>700.4</ele>
        <time>2025-09-09T14:57:11Z</time>
      </trkpt>
      <trkpt lat="45.8594" lon="4.38921">
        <ele>700.8</ele>
        <time>2025-09-09T14:57:12Z</time>
      </trkpt>
      <trkpt lat="45.85941" lon="4.38919">
        <ele>700.8</ele>
        <time>2025-09-09T14:57:13Z</time>
      </trkpt>
      <trkpt lat="45.85942" lon="4.38918">
        <ele>700.8</ele>
        <time>2025-09-09T14:57:14Z</time>
      </trkpt>
      <trkpt lat="45.85943" lon="4.38917">
        <ele>700.8</ele>
        <time>2025-09-09T14:57:15Z</time>
      </trkpt>
      <trkpt lat="45.85944" lon="4.38915">
        <ele>700.8</ele>
        <time>2025-09-09T14:57:16Z</time>
      </trkpt>
      <trkpt lat="45.85945" lon="4.38914">
        <ele>701</ele>
        <time>2025-09-09T14:57:17Z</time>
      </trkpt>
      <trkpt lat="45.85946" lon="4.38913">
        <ele>701</ele>
        <time>2025-09-09T14:57:18Z</time>
      </trkpt>
      <trkpt lat="45.85948" lon="4.38912">
        <ele>701</ele>
        <time>2025-09-09T14:57:19Z</time>
      </trkpt>
      <trkpt lat="45.85949" lon="4.38911">
        <ele>701</ele>
        <time>2025-09-09T14:57:20Z</time>
      </trkpt>
      <trkpt lat="45.8595" lon="4.3891">
        <ele>701.4</ele>
        <time>2025-09-09T14:57:21Z</time>
      </trkpt>
      <trkpt lat="45.85952" lon="4.38909">
        <ele>701.4</ele>
        <time>2025-09-09T14:57:22Z</time>
      </trkpt>
      <trkpt lat="45.85953" lon="4.38908">
        <ele>701.6</ele>
        <time>2025-09-09T14:57:23Z</time>
      </trkpt>
      <trkpt lat="45.85955" lon="4.38906">
        <ele>701.4</ele>
        <time>2025-09-09T14:57:24Z</time>
      </trkpt>
      <trkpt lat="45.85956" lon="4.38905">
        <ele>701.4</ele>
        <time>2025-09-09T14:57:25Z</time>
      </trkpt>
      <trkpt lat="45.85957" lon="4.38904">
        <ele>701.6</ele>
        <time>2025-09-09T14:57:26Z</time>
      </trkpt>
      <trkpt lat="45.85959" lon="4.38903">
        <ele>701.6</ele>
        <time>2025-09-09T14:57:27Z</time>
      </trkpt>
      <trkpt lat="45.8596" lon="4.38902">
        <ele>701.8</ele>
        <time>2025-09-09T14:57:28Z</time>
      </trkpt>
      <trkpt lat="45.85961" lon="4.38901">
        <ele>701.8</ele>
        <time>2025-09-09T14:57:29Z</time>
      </trkpt>
      <trkpt lat="45.85962" lon="4.38899">
        <ele>702.2</ele>
        <time>2025-09-09T14:57:30Z</time>
      </trkpt>
      <trkpt lat="45.85963" lon="4.38897">
        <ele>702.2</ele>
        <time>2025-09-09T14:57:31Z</time>
      </trkpt>
      <trkpt lat="45.85965" lon="4.38895">
        <ele>702.4</ele>
        <time>2025-09-09T14:57:32Z</time>
      </trkpt>
      <trkpt lat="45.85966" lon="4.38893">
        <ele>702.4</ele>
        <time>2025-09-09T14:57:33Z</time>
      </trkpt>
      <trkpt lat="45.85966" lon="4.38891">
        <ele>702.4</ele>
        <time>2025-09-09T14:57:34Z</time>
      </trkpt>
      <trkpt lat="45.85967" lon="4.38888">
        <ele>702.4</ele>
        <time>2025-09-09T14:57:35Z</time>
      </trkpt>
      <trkpt lat="45.85967" lon="4.38886">
        <ele>702.6</ele>
        <time>2025-09-09T14:57:36Z</time>
      </trkpt>
      <trkpt lat="45.85967" lon="4.38885">
        <ele>702.6</ele>
        <time>2025-09-09T14:57:37Z</time>
      </trkpt>
      <trkpt lat="45.85968" lon="4.38884">
        <ele>702.6</ele>
        <time>2025-09-09T14:57:38Z</time>
      </trkpt>
      <trkpt lat="45.85969" lon="4.38883">
        <ele>702.6</ele>
        <time>2025-09-09T14:57:39Z</time>
      </trkpt>
      <trkpt lat="45.85971" lon="4.38882">
        <ele>702.8</ele>
        <time>2025-09-09T14:57:40Z</time>
      </trkpt>
      <trkpt lat="45.85972" lon="4.3888">
        <ele>702.8</ele>
        <time>2025-09-09T14:57:41Z</time>
      </trkpt>
      <trkpt lat="45.85973" lon="4.38878">
        <ele>702.8</ele>
        <time>2025-09-09T14:57:42Z</time>
      </trkpt>
      <trkpt lat="45.85974" lon="4.38876">
        <ele>703.2</ele>
        <time>2025-09-09T14:57:43Z</time>
      </trkpt>
      <trkpt lat="45.85974" lon="4.38875">
        <ele>703.2</ele>
        <time>2025-09-09T14:57:44Z</time>
      </trkpt>
      <trkpt lat="45.85975" lon="4.38873">
        <ele>703.4</ele>
        <time>2025-09-09T14:57:45Z</time>
      </trkpt>
      <trkpt lat="45.85976" lon="4.38872">
        <ele>703.4</ele>
        <time>2025-09-09T14:57:46Z</time>
      </trkpt>
      <trkpt lat="45.85977" lon="4.3887">
        <ele>703.4</ele>
        <time>2025-09-09T14:57:47Z</time>
      </trkpt>
      <trkpt lat="45.85977" lon="4.38868">
        <ele>703.4</ele>
        <time>2025-09-09T14:57:48Z</time>
      </trkpt>
      <trkpt lat="45.85978" lon="4.38866">
        <ele>703.8</ele>
        <time>2025-09-09T14:57:49Z</time>
      </trkpt>
      <trkpt lat="45.85978" lon="4.38864">
        <ele>703.8</ele>
        <time>2025-09-09T14:57:50Z</time>
      </trkpt>
      <trkpt lat="45.85978" lon="4.38863">
        <ele>703.8</ele>
        <time>2025-09-09T14:57:51Z</time>
      </trkpt>
      <trkpt lat="45.85978" lon="4.38862">
        <ele>703.8</ele>
        <time>2025-09-09T14:57:52Z</time>
      </trkpt>
      <trkpt lat="45.85978" lon="4.38862">
        <ele>703.8</ele>
        <time>2025-09-09T14:57:53Z</time>
      </trkpt>
      <trkpt lat="45.85978" lon="4.38863">
        <ele>703.8</ele>
        <time>2025-09-09T14:57:54Z</time>
      </trkpt>
      <trkpt lat="45.85977" lon="4.3886">
        <ele>704</ele>
        <time>2025-09-09T14:58:01Z</time>
      </trkpt>
      <trkpt lat="45.85976" lon="4.38858">
        <ele>704</ele>
        <time>2025-09-09T14:58:02Z</time>
      </trkpt>
      <trkpt lat="45.85976" lon="4.38857">
        <ele>704</ele>
        <time>2025-09-09T14:58:03Z</time>
      </trkpt>
      <trkpt lat="45.85975" lon="4.38854">
        <ele>704.2</ele>
        <time>2025-09-09T14:58:04Z</time>
      </trkpt>
      <trkpt lat="45.85974" lon="4.38852">
        <ele>704.2</ele>
        <time>2025-09-09T14:58:05Z</time>
      </trkpt>
      <trkpt lat="45.85973" lon="4.38851">
        <ele>704.2</ele>
        <time>2025-09-09T14:58:06Z</time>
      </trkpt>
      <trkpt lat="45.85972" lon="4.3885">
        <ele>704.6</ele>
        <time>2025-09-09T14:58:07Z</time>
      </trkpt>
      <trkpt lat="45.85971" lon="4.38849">
        <ele>704.6</ele>
        <time>2025-09-09T14:58:08Z</time>
      </trkpt>
      <trkpt lat="45.85971" lon="4.38847">
        <ele>704.6</ele>
        <time>2025-09-09T14:58:09Z</time>
      </trkpt>
      <trkpt lat="45.8597" lon="4.38845">
        <ele>704.6</ele>
        <time>2025-09-09T14:58:10Z</time>
      </trkpt>
      <trkpt lat="45.8597" lon="4.38843">
        <ele>705</ele>
        <time>2025-09-09T14:58:11Z</time>
      </trkpt>
      <trkpt lat="45.85969" lon="4.38842">
        <ele>705</ele>
        <time>2025-09-09T14:58:12Z</time>
      </trkpt>
      <trkpt lat="45.85968" lon="4.38841">
        <ele>705.2</ele>
        <time>2025-09-09T14:58:13Z</time>
      </trkpt>
      <trkpt lat="45.85967" lon="4.38839">
        <ele>705.2</ele>
        <time>2025-09-09T14:58:14Z</time>
      </trkpt>
      <trkpt lat="45.85966" lon="4.38837">
        <ele>705.4</ele>
        <time>2025-09-09T14:58:15Z</time>
      </trkpt>
      <trkpt lat="45.85966" lon="4.38835">
        <ele>705.4</ele>
        <time>2025-09-09T14:58:16Z</time>
      </trkpt>
      <trkpt lat="45.85965" lon="4.38833">
        <ele>705.4</ele>
        <time>2025-09-09T14:58:17Z</time>
      </trkpt>
      <trkpt lat="45.85965" lon="4.38831">
        <ele>705.6</ele>
        <time>2025-09-09T14:58:18Z</time>
      </trkpt>
      <trkpt lat="45.85964" lon="4.38829">
        <ele>705.6</ele>
        <time>2025-09-09T14:58:19Z</time>
      </trkpt>
      <trkpt lat="45.85964" lon="4.38827">
        <ele>706</ele>
        <time>2025-09-09T14:58:20Z</time>
      </trkpt>
      <trkpt lat="45.85963" lon="4.38825">
        <ele>706.2</ele>
        <time>2025-09-09T14:58:21Z</time>
      </trkpt>
      <trkpt lat="45.85963" lon="4.38823">
        <ele>706.2</ele>
        <time>2025-09-09T14:58:22Z</time>
      </trkpt>
      <trkpt lat="45.85962" lon="4.38821">
        <ele>706.2</ele>
        <time>2025-09-09T14:58:23Z</time>
      </trkpt>
      <trkpt lat="45.8596" lon="4.38819">
        <ele>705.8</ele>
        <time>2025-09-09T14:58:24Z</time>
      </trkpt>
      <trkpt lat="45.8596" lon="4.38817">
        <ele>705.8</ele>
        <time>2025-09-09T14:58:25Z</time>
      </trkpt>
      <trkpt lat="45.85959" lon="4.38815">
        <ele>705.8</ele>
        <time>2025-09-09T14:58:26Z</time>
      </trkpt>
      <trkpt lat="45.85958" lon="4.38814">
        <ele>705.8</ele>
        <time>2025-09-09T14:58:27Z</time>
      </trkpt>
      <trkpt lat="45.85957" lon="4.38812">
        <ele>705.8</ele>
        <time>2025-09-09T14:58:28Z</time>
      </trkpt>
      <trkpt lat="45.85956" lon="4.38811">
        <ele>706</ele>
        <time>2025-09-09T14:58:29Z</time>
      </trkpt>
      <trkpt lat="45.85954" lon="4.38809">
        <ele>706</ele>
        <time>2025-09-09T14:58:30Z</time>
      </trkpt>
      <trkpt lat="45.85954" lon="4.38808">
        <ele>706.2</ele>
        <time>2025-09-09T14:58:31Z</time>
      </trkpt>
      <trkpt lat="45.85953" lon="4.38807">
        <ele>706.2</ele>
        <time>2025-09-09T14:58:32Z</time>
      </trkpt>
      <trkpt lat="45.85951" lon="4.38806">
        <ele>706.4</ele>
        <time>2025-09-09T14:58:33Z</time>
      </trkpt>
      <trkpt lat="45.85951" lon="4.38805">
        <ele>706.4</ele>
        <time>2025-09-09T14:58:34Z</time>
      </trkpt>
      <trkpt lat="45.85949" lon="4.38804">
        <ele>706.4</ele>
        <time>2025-09-09T14:58:35Z</time>
      </trkpt>
      <trkpt lat="45.85948" lon="4.38803">
        <ele>706.4</ele>
        <time>2025-09-09T14:58:36Z</time>
      </trkpt>
      <trkpt lat="45.85947" lon="4.38802">
        <ele>706.4</ele>
        <time>2025-09-09T14:58:37Z</time>
      </trkpt>
      <trkpt lat="45.85945" lon="4.38802">
        <ele>706.8</ele>
        <time>2025-09-09T14:58:38Z</time>
      </trkpt>
      <trkpt lat="45.85944" lon="4.38801">
        <ele>706.8</ele>
        <time>2025-09-09T14:58:39Z</time>
      </trkpt>
      <trkpt lat="45.85942" lon="4.388">
        <ele>706.8</ele>
        <time>2025-09-09T14:58:40Z</time>
      </trkpt>
      <trkpt lat="45.85941" lon="4.388">
        <ele>707</ele>
        <time>2025-09-09T14:58:41Z</time>
      </trkpt>
      <trkpt lat="45.8594" lon="4.38799">
        <ele>707</ele>
        <time>2025-09-09T14:58:42Z</time>
      </trkpt>
      <trkpt lat="45.85939" lon="4.38799">
        <ele>707</ele>
        <time>2025-09-09T14:58:43Z</time>
      </trkpt>
      <trkpt lat="45.85937" lon="4.38798">
        <ele>707.4</ele>
        <time>2025-09-09T14:58:44Z</time>
      </trkpt>
      <trkpt lat="45.85935" lon="4.38796">
        <ele>707.6</ele>
        <time>2025-09-09T14:58:45Z</time>
      </trkpt>
      <trkpt lat="45.85934" lon="4.38796">
        <ele>707.6</ele>
        <time>2025-09-09T14:58:46Z</time>
      </trkpt>
      <trkpt lat="45.85933" lon="4.38795">
        <ele>707.8</ele>
        <time>2025-09-09T14:58:47Z</time>
      </trkpt>
      <trkpt lat="45.85932" lon="4.38794">
        <ele>707.8</ele>
        <time>2025-09-09T14:58:48Z</time>
      </trkpt>
      <trkpt lat="45.8593" lon="4.38792">
        <ele>707.8</ele>
        <time>2025-09-09T14:58:49Z</time>
      </trkpt>
      <trkpt lat="45.85929" lon="4.38791">
        <ele>707.8</ele>
        <time>2025-09-09T14:58:50Z</time>
      </trkpt>
      <trkpt lat="45.85927" lon="4.3879">
        <ele>707.8</ele>
        <time>2025-09-09T14:58:51Z</time>
      </trkpt>
      <trkpt lat="45.85926" lon="4.38789">
        <ele>708</ele>
        <time>2025-09-09T14:58:52Z</time>
      </trkpt>
      <trkpt lat="45.85925" lon="4.38788">
        <ele>708.2</ele>
        <time>2025-09-09T14:58:53Z</time>
      </trkpt>
      <trkpt lat="45.85924" lon="4.38787">
        <ele>708.4</ele>
        <time>2025-09-09T14:58:54Z</time>
      </trkpt>
      <trkpt lat="45.85923" lon="4.38788">
        <ele>708.4</ele>
        <time>2025-09-09T14:58:55Z</time>
      </trkpt>
      <trkpt lat="45.85921" lon="4.38787">
        <ele>708.4</ele>
        <time>2025-09-09T14:58:56Z</time>
      </trkpt>
      <trkpt lat="45.8592" lon="4.38786">
        <ele>708.4</ele>
        <time>2025-09-09T14:58:57Z</time>
      </trkpt>
      <trkpt lat="45.85919" lon="4.38786">
        <ele>708.8</ele>
        <time>2025-09-09T14:58:58Z</time>
      </trkpt>
      <trkpt lat="45.85918" lon="4.38785">
        <ele>708.8</ele>
        <time>2025-09-09T14:58:59Z</time>
      </trkpt>
      <trkpt lat="45.85916" lon="4.38784">
        <ele>708.8</ele>
        <time>2025-09-09T14:59:00Z</time>
      </trkpt>
      <trkpt lat="45.85915" lon="4.38782">
        <ele>708.8</ele>
        <time>2025-09-09T14:59:01Z</time>
      </trkpt>
      <trkpt lat="45.85914" lon="4.3878">
        <ele>708.8</ele>
        <time>2025-09-09T14:59:02Z</time>
      </trkpt>
      <trkpt lat="45.85912" lon="4.38777">
        <ele>708.8</ele>
        <time>2025-09-09T14:59:03Z</time>
      </trkpt>
      <trkpt lat="45.85911" lon="4.38776">
        <ele>709</ele>
        <time>2025-09-09T14:59:04Z</time>
      </trkpt>
      <trkpt lat="45.85909" lon="4.38775">
        <ele>708.8</ele>
        <time>2025-09-09T14:59:05Z</time>
      </trkpt>
      <trkpt lat="45.85908" lon="4.38774">
        <ele>708.8</ele>
        <time>2025-09-09T14:59:06Z</time>
      </trkpt>
      <trkpt lat="45.85906" lon="4.38773">
        <ele>708.8</ele>
        <time>2025-09-09T14:59:07Z</time>
      </trkpt>
      <trkpt lat="45.85905" lon="4.38772">
        <ele>709</ele>
        <time>2025-09-09T14:59:08Z</time>
      </trkpt>
      <trkpt lat="45.85904" lon="4.38772">
        <ele>709.4</ele>
        <time>2025-09-09T14:59:09Z</time>
      </trkpt>
      <trkpt lat="45.85903" lon="4.38772">
        <ele>709.4</ele>
        <time>2025-09-09T14:59:10Z</time>
      </trkpt>
      <trkpt lat="45.85902" lon="4.38772">
        <ele>709.6</ele>
        <time>2025-09-09T14:59:11Z</time>
      </trkpt>
      <trkpt lat="45.85901" lon="4.38771">
        <ele>709.6</ele>
        <time>2025-09-09T14:59:12Z</time>
      </trkpt>
      <trkpt lat="45.859" lon="4.3877">
        <ele>710</ele>
        <time>2025-09-09T14:59:13Z</time>
      </trkpt>
      <trkpt lat="45.85899" lon="4.38769">
        <ele>710</ele>
        <time>2025-09-09T14:59:14Z</time>
      </trkpt>
      <trkpt lat="45.85898" lon="4.38769">
        <ele>710</ele>
        <time>2025-09-09T14:59:15Z</time>
      </trkpt>
      <trkpt lat="45.85896" lon="4.3877">
        <ele>710.2</ele>
        <time>2025-09-09T14:59:16Z</time>
      </trkpt>
      <trkpt lat="45.85895" lon="4.3877">
        <ele>710.2</ele>
        <time>2025-09-09T14:59:17Z</time>
      </trkpt>
      <trkpt lat="45.85893" lon="4.3877">
        <ele>710.4</ele>
        <time>2025-09-09T14:59:18Z</time>
      </trkpt>
      <trkpt lat="45.8589" lon="4.3877">
        <ele>710.4</ele>
        <time>2025-09-09T14:59:19Z</time>
      </trkpt>
      <trkpt lat="45.85889" lon="4.3877">
        <ele>710.4</ele>
        <time>2025-09-09T14:59:20Z</time>
      </trkpt>
      <trkpt lat="45.85888" lon="4.38769">
        <ele>710.6</ele>
        <time>2025-09-09T14:59:21Z</time>
      </trkpt>
      <trkpt lat="45.85888" lon="4.38769">
        <ele>710.6</ele>
        <time>2025-09-09T14:59:22Z</time>
      </trkpt>
      <trkpt lat="45.85888" lon="4.38769">
        <ele>711</ele>
        <time>2025-09-09T14:59:23Z</time>
      </trkpt>
      <trkpt lat="45.85888" lon="4.3877">
        <ele>711</ele>
        <time>2025-09-09T14:59:24Z</time>
      </trkpt>
      <trkpt lat="45.85888" lon="4.3877">
        <ele>711</ele>
        <time>2025-09-09T14:59:25Z</time>
      </trkpt>
      <trkpt lat="45.85886" lon="4.3877">
        <ele>711</ele>
        <time>2025-09-09T14:59:26Z</time>
      </trkpt>
      <trkpt lat="45.85886" lon="4.38769">
        <ele>711</ele>
        <time>2025-09-09T14:59:27Z</time>
      </trkpt>
      <trkpt lat="45.85884" lon="4.38768">
        <ele>711</ele>
        <time>2025-09-09T14:59:28Z</time>
      </trkpt>
      <trkpt lat="45.85883" lon="4.38767">
        <ele>711.2</ele>
        <time>2025-09-09T14:59:29Z</time>
      </trkpt>
      <trkpt lat="45.85882" lon="4.38767">
        <ele>711.2</ele>
        <time>2025-09-09T14:59:30Z</time>
      </trkpt>
      <trkpt lat="45.85881" lon="4.38766">
        <ele>711.4</ele>
        <time>2025-09-09T14:59:31Z</time>
      </trkpt>
      <trkpt lat="45.85879" lon="4.38765">
        <ele>711.4</ele>
        <time>2025-09-09T14:59:32Z</time>
      </trkpt>
      <trkpt lat="45.85878" lon="4.38764">
        <ele>711.4</ele>
        <time>2025-09-09T14:59:33Z</time>
      </trkpt>
      <trkpt lat="45.85876" lon="4.38763">
        <ele>711.8</ele>
        <time>2025-09-09T14:59:34Z</time>
      </trkpt>
      <trkpt lat="45.85875" lon="4.38762">
        <ele>711.8</ele>
        <time>2025-09-09T14:59:35Z</time>
      </trkpt>
      <trkpt lat="45.85874" lon="4.38761">
        <ele>711.8</ele>
        <time>2025-09-09T14:59:36Z</time>
      </trkpt>
      <trkpt lat="45.85873" lon="4.3876">
        <ele>712</ele>
        <time>2025-09-09T14:59:37Z</time>
      </trkpt>
      <trkpt lat="45.85872" lon="4.38759">
        <ele>712</ele>
        <time>2025-09-09T14:59:38Z</time>
      </trkpt>
      <trkpt lat="45.85871" lon="4.38759">
        <ele>712</ele>
        <time>2025-09-09T14:59:39Z</time>
      </trkpt>
      <trkpt lat="45.8587" lon="4.38758">
        <ele>712</ele>
        <time>2025-09-09T14:59:40Z</time>
      </trkpt>
      <trkpt lat="45.85868" lon="4.38757">
        <ele>712.4</ele>
        <time>2025-09-09T14:59:41Z</time>
      </trkpt>
      <trkpt lat="45.85867" lon="4.38756">
        <ele>712.4</ele>
        <time>2025-09-09T14:59:42Z</time>
      </trkpt>
      <trkpt lat="45.85865" lon="4.38755">
        <ele>712.4</ele>
        <time>2025-09-09T14:59:43Z</time>
      </trkpt>
      <trkpt lat="45.85863" lon="4.38754">
        <ele>712.4</ele>
        <time>2025-09-09T14:59:44Z</time>
      </trkpt>
      <trkpt lat="45.85862" lon="4.38753">
        <ele>712.4</ele>
        <time>2025-09-09T14:59:45Z</time>
      </trkpt>
      <trkpt lat="45.85861" lon="4.38752">
        <ele>712.6</ele>
        <time>2025-09-09T14:59:46Z</time>
      </trkpt>
      <trkpt lat="45.8586" lon="4.38752">
        <ele>712.6</ele>
        <time>2025-09-09T14:59:47Z</time>
      </trkpt>
      <trkpt lat="45.85858" lon="4.38751">
        <ele>712.6</ele>
        <time>2025-09-09T14:59:48Z</time>
      </trkpt>
      <trkpt lat="45.85856" lon="4.38749">
        <ele>712.6</ele>
        <time>2025-09-09T14:59:49Z</time>
      </trkpt>
      <trkpt lat="45.85855" lon="4.38748">
        <ele>713</ele>
        <time>2025-09-09T14:59:50Z</time>
      </trkpt>
      <trkpt lat="45.85854" lon="4.38748">
        <ele>713.2</ele>
        <time>2025-09-09T14:59:51Z</time>
      </trkpt>
      <trkpt lat="45.85853" lon="4.38748">
        <ele>713.2</ele>
        <time>2025-09-09T14:59:52Z</time>
      </trkpt>
      <trkpt lat="45.85851" lon="4.38747">
        <ele>713.4</ele>
        <time>2025-09-09T14:59:53Z</time>
      </trkpt>
      <trkpt lat="45.8585" lon="4.38747">
        <ele>713.4</ele>
        <time>2025-09-09T14:59:54Z</time>
      </trkpt>
      <trkpt lat="45.8585" lon="4.38746">
        <ele>713.4</ele>
        <time>2025-09-09T14:59:55Z</time>
      </trkpt>
      <trkpt lat="45.85849" lon="4.38745">
        <ele>713.8</ele>
        <time>2025-09-09T14:59:56Z</time>
      </trkpt>
      <trkpt lat="45.85847" lon="4.38744">
        <ele>713.8</ele>
        <time>2025-09-09T14:59:57Z</time>
      </trkpt>
      <trkpt lat="45.85845" lon="4.38743">
        <ele>713.8</ele>
        <time>2025-09-09T14:59:58Z</time>
      </trkpt>
      <trkpt lat="45.85844" lon="4.38742">
        <ele>713.8</ele>
        <time>2025-09-09T14:59:59Z</time>
      </trkpt>
      <trkpt lat="45.85842" lon="4.38741">
        <ele>714.2</ele>
        <time>2025-09-09T15:00:00Z</time>
      </trkpt>
      <trkpt lat="45.85841" lon="4.38741">
        <ele>714.2</ele>
        <time>2025-09-09T15:00:01Z</time>
      </trkpt>
      <trkpt lat="45.85839" lon="4.3874">
        <ele>714.2</ele>
        <time>2025-09-09T15:00:02Z</time>
      </trkpt>
      <trkpt lat="45.85839" lon="4.3874">
        <ele>714.4</ele>
        <time>2025-09-09T15:00:03Z</time>
      </trkpt>
      <trkpt lat="45.85838" lon="4.3874">
        <ele>714.4</ele>
        <time>2025-09-09T15:00:04Z</time>
      </trkpt>
      <trkpt lat="45.85837" lon="4.3874">
        <ele>714.8</ele>
        <time>2025-09-09T15:00:05Z</time>
      </trkpt>
      <trkpt lat="45.85835" lon="4.3874">
        <ele>714.8</ele>
        <time>2025-09-09T15:00:06Z</time>
      </trkpt>
      <trkpt lat="45.85834" lon="4.3874">
        <ele>714.8</ele>
        <time>2025-09-09T15:00:07Z</time>
      </trkpt>
      <trkpt lat="45.85832" lon="4.38739">
        <ele>714.8</ele>
        <time>2025-09-09T15:00:08Z</time>
      </trkpt>
      <trkpt lat="45.8583" lon="4.38738">
        <ele>714.8</ele>
        <time>2025-09-09T15:00:09Z</time>
      </trkpt>
      <trkpt lat="45.85829" lon="4.38737">
        <ele>715</ele>
        <time>2025-09-09T15:00:10Z</time>
      </trkpt>
      <trkpt lat="45.85828" lon="4.38736">
        <ele>715.2</ele>
        <time>2025-09-09T15:00:11Z</time>
      </trkpt>
      <trkpt lat="45.85827" lon="4.38735">
        <ele>715.2</ele>
        <time>2025-09-09T15:00:12Z</time>
      </trkpt>
      <trkpt lat="45.85826" lon="4.38735">
        <ele>715.2</ele>
        <time>2025-09-09T15:00:13Z</time>
      </trkpt>
      <trkpt lat="45.85825" lon="4.38735">
        <ele>715.2</ele>
        <time>2025-09-09T15:00:14Z</time>
      </trkpt>
      <trkpt lat="45.85824" lon="4.38735">
        <ele>715.2</ele>
        <time>2025-09-09T15:00:15Z</time>
      </trkpt>
      <trkpt lat="45.85823" lon="4.38733">
        <ele>715.6</ele>
        <time>2025-09-09T15:00:16Z</time>
      </trkpt>
      <trkpt lat="45.85823" lon="4.3873">
        <ele>715.8</ele>
        <time>2025-09-09T15:00:17Z</time>
      </trkpt>
      <trkpt lat="45.85822" lon="4.38728">
        <ele>715.8</ele>
        <time>2025-09-09T15:00:18Z</time>
      </trkpt>
      <trkpt lat="45.8582" lon="4.38727">
        <ele>715.8</ele>
        <time>2025-09-09T15:00:19Z</time>
      </trkpt>
      <trkpt lat="45.85818" lon="4.38727">
        <ele>715.8</ele>
        <time>2025-09-09T15:00:20Z</time>
      </trkpt>
      <trkpt lat="45.85817" lon="4.38727">
        <ele>715.8</ele>
        <time>2025-09-09T15:00:21Z</time>
      </trkpt>
      <trkpt lat="45.85815" lon="4.38727">
        <ele>716</ele>
        <time>2025-09-09T15:00:22Z</time>
      </trkpt>
      <trkpt lat="45.85815" lon="4.38727">
        <ele>716</ele>
        <time>2025-09-09T15:00:23Z</time>
      </trkpt>
      <trkpt lat="45.85814" lon="4.38727">
        <ele>716</ele>
        <time>2025-09-09T15:00:24Z</time>
      </trkpt>
      <trkpt lat="45.85813" lon="4.38727">
        <ele>716.2</ele>
        <time>2025-09-09T15:00:25Z</time>
      </trkpt>
      <trkpt lat="45.85812" lon="4.38726">
        <ele>716.2</ele>
        <time>2025-09-09T15:00:26Z</time>
      </trkpt>
      <trkpt lat="45.85811" lon="4.38726">
        <ele>716.6</ele>
        <time>2025-09-09T15:00:27Z</time>
      </trkpt>
      <trkpt lat="45.8581" lon="4.38726">
        <ele>716.6</ele>
        <time>2025-09-09T15:00:28Z</time>
      </trkpt>
      <trkpt lat="45.8581" lon="4.38726">
        <ele>716.6</ele>
        <time>2025-09-09T15:00:29Z</time>
      </trkpt>
      <trkpt lat="45.85809" lon="4.38726">
        <ele>717</ele>
        <time>2025-09-09T15:00:30Z</time>
      </trkpt>
      <trkpt lat="45.85806" lon="4.38725">
        <ele>717</ele>
        <time>2025-09-09T15:00:31Z</time>
      </trkpt>
      <trkpt lat="45.85804" lon="4.38723">
        <ele>717</ele>
        <time>2025-09-09T15:00:32Z</time>
      </trkpt>
      <trkpt lat="45.85803" lon="4.38722">
        <ele>717</ele>
        <time>2025-09-09T15:00:33Z</time>
      </trkpt>
      <trkpt lat="45.85801" lon="4.38721">
        <ele>717</ele>
        <time>2025-09-09T15:00:34Z</time>
      </trkpt>
      <trkpt lat="45.85799" lon="4.3872">
        <ele>717</ele>
        <time>2025-09-09T15:00:35Z</time>
      </trkpt>
      <trkpt lat="45.85798" lon="4.38719">
        <ele>717.2</ele>
        <time>2025-09-09T15:00:36Z</time>
      </trkpt>
      <trkpt lat="45.85797" lon="4.38719">
        <ele>717.2</ele>
        <time>2025-09-09T15:00:37Z</time>
      </trkpt>
      <trkpt lat="45.85795" lon="4.38717">
        <ele>717.6</ele>
        <time>2025-09-09T15:00:38Z</time>
      </trkpt>
      <trkpt lat="45.85794" lon="4.38716">
        <ele>717.8</ele>
        <time>2025-09-09T15:00:39Z</time>
      </trkpt>
      <trkpt lat="45.85793" lon="4.38716">
        <ele>717.8</ele>
        <time>2025-09-09T15:00:40Z</time>
      </trkpt>
      <trkpt lat="45.85793" lon="4.38715">
        <ele>717.8</ele>
        <time>2025-09-09T15:00:41Z</time>
      </trkpt>
      <trkpt lat="45.85792" lon="4.38714">
        <ele>718</ele>
        <time>2025-09-09T15:00:42Z</time>
      </trkpt>
      <trkpt lat="45.85792" lon="4.38713">
        <ele>718</ele>
        <time>2025-09-09T15:00:43Z</time>
      </trkpt>
      <trkpt lat="45.85791" lon="4.38712">
        <ele>718</ele>
        <time>2025-09-09T15:00:44Z</time>
      </trkpt>
      <trkpt lat="45.85789" lon="4.38712">
        <ele>718</ele>
        <time>2025-09-09T15:00:45Z</time>
      </trkpt>
      <trkpt lat="45.85787" lon="4.3871">
        <ele>718.4</ele>
        <time>2025-09-09T15:00:46Z</time>
      </trkpt>
      <trkpt lat="45.85785" lon="4.38709">
        <ele>718.4</ele>
        <time>2025-09-09T15:00:47Z</time>
      </trkpt>
      <trkpt lat="45.85783" lon="4.38708">
        <ele>718.4</ele>
        <time>2025-09-09T15:00:48Z</time>
      </trkpt>
      <trkpt lat="45.85781" lon="4.38706">
        <ele>718.8</ele>
        <time>2025-09-09T15:00:49Z</time>
      </trkpt>
      <trkpt lat="45.85779" lon="4.38704">
        <ele>718.8</ele>
        <time>2025-09-09T15:00:50Z</time>
      </trkpt>
      <trkpt lat="45.85778" lon="4.38703">
        <ele>719</ele>
        <time>2025-09-09T15:00:51Z</time>
      </trkpt>
      <trkpt lat="45.85777" lon="4.38701">
        <ele>719</ele>
        <time>2025-09-09T15:00:52Z</time>
      </trkpt>
      <trkpt lat="45.85776" lon="4.38701">
        <ele>719</ele>
        <time>2025-09-09T15:00:53Z</time>
      </trkpt>
      <trkpt lat="45.85775" lon="4.38701">
        <ele>719.4</ele>
        <time>2025-09-09T15:00:54Z</time>
      </trkpt>
      <trkpt lat="45.85774" lon="4.387">
        <ele>719.4</ele>
        <time>2025-09-09T15:00:55Z</time>
      </trkpt>
      <trkpt lat="45.85773" lon="4.387">
        <ele>719.6</ele>
        <time>2025-09-09T15:00:56Z</time>
      </trkpt>
      <trkpt lat="45.85773" lon="4.38698">
        <ele>719.6</ele>
        <time>2025-09-09T15:00:57Z</time>
      </trkpt>
      <trkpt lat="45.85772" lon="4.38697">
        <ele>719.6</ele>
        <time>2025-09-09T15:00:58Z</time>
      </trkpt>
      <trkpt lat="45.85772" lon="4.38696">
        <ele>720</ele>
        <time>2025-09-09T15:00:59Z</time>
      </trkpt>
      <trkpt lat="45.85772" lon="4.38695">
        <ele>720</ele>
        <time>2025-09-09T15:01:00Z</time>
      </trkpt>
      <trkpt lat="45.85771" lon="4.38694">
        <ele>720.2</ele>
        <time>2025-09-09T15:01:01Z</time>
      </trkpt>
      <trkpt lat="45.85769" lon="4.38693">
        <ele>720.2</ele>
        <time>2025-09-09T15:01:02Z</time>
      </trkpt>
      <trkpt lat="45.85769" lon="4.38693">
        <ele>720.4</ele>
        <time>2025-09-09T15:01:03Z</time>
      </trkpt>
      <trkpt lat="45.85768" lon="4.38693">
        <ele>720.4</ele>
        <time>2025-09-09T15:01:04Z</time>
      </trkpt>
      <trkpt lat="45.85766" lon="4.38692">
        <ele>720.6</ele>
        <time>2025-09-09T15:01:05Z</time>
      </trkpt>
      <trkpt lat="45.85764" lon="4.3869">
        <ele>720.6</ele>
        <time>2025-09-09T15:01:06Z</time>
      </trkpt>
      <trkpt lat="45.85763" lon="4.38688">
        <ele>721</ele>
        <time>2025-09-09T15:01:07Z</time>
      </trkpt>
      <trkpt lat="45.85762" lon="4.38687">
        <ele>721</ele>
        <time>2025-09-09T15:01:08Z</time>
      </trkpt>
      <trkpt lat="45.8576" lon="4.38686">
        <ele>721</ele>
        <time>2025-09-09T15:01:09Z</time>
      </trkpt>
      <trkpt lat="45.85758" lon="4.38685">
        <ele>721</ele>
        <time>2025-09-09T15:01:10Z</time>
      </trkpt>
      <trkpt lat="45.85757" lon="4.38684">
        <ele>721.2</ele>
        <time>2025-09-09T15:01:11Z</time>
      </trkpt>
      <trkpt lat="45.85755" lon="4.38683">
        <ele>721.2</ele>
        <time>2025-09-09T15:01:12Z</time>
      </trkpt>
      <trkpt lat="45.85753" lon="4.38682">
        <ele>721.2</ele>
        <time>2025-09-09T15:01:13Z</time>
      </trkpt>
      <trkpt lat="45.85752" lon="4.3868">
        <ele>721.2</ele>
        <time>2025-09-09T15:01:14Z</time>
      </trkpt>
      <trkpt lat="45.85751" lon="4.3868">
        <ele>721.6</ele>
        <time>2025-09-09T15:01:15Z</time>
      </trkpt>
      <trkpt lat="45.8575" lon="4.38679">
        <ele>721.6</ele>
        <time>2025-09-09T15:01:16Z</time>
      </trkpt>
      <trkpt lat="45.85748" lon="4.38678">
        <ele>721.6</ele>
        <time>2025-09-09T15:01:17Z</time>
      </trkpt>
      <trkpt lat="45.85747" lon="4.38677">
        <ele>721.8</ele>
        <time>2025-09-09T15:01:18Z</time>
      </trkpt>
      <trkpt lat="45.85745" lon="4.38677">
        <ele>721.8</ele>
        <time>2025-09-09T15:01:19Z</time>
      </trkpt>
      <trkpt lat="45.85743" lon="4.38676">
        <ele>721.8</ele>
        <time>2025-09-09T15:01:20Z</time>
      </trkpt>
      <trkpt lat="45.85741" lon="4.38675">
        <ele>722</ele>
        <time>2025-09-09T15:01:21Z</time>
      </trkpt>
      <trkpt lat="45.85739" lon="4.38674">
        <ele>722.2</ele>
        <time>2025-09-09T15:01:22Z</time>
      </trkpt>
      <trkpt lat="45.85737" lon="4.38672">
        <ele>722.2</ele>
        <time>2025-09-09T15:01:23Z</time>
      </trkpt>
      <trkpt lat="45.85736" lon="4.38671">
        <ele>722.2</ele>
        <time>2025-09-09T15:01:24Z</time>
      </trkpt>
      <trkpt lat="45.85734" lon="4.3867">
        <ele>722.8</ele>
        <time>2025-09-09T15:01:25Z</time>
      </trkpt>
      <trkpt lat="45.85734" lon="4.38669">
        <ele>722.8</ele>
        <time>2025-09-09T15:01:26Z</time>
      </trkpt>
      <trkpt lat="45.85733" lon="4.38667">
        <ele>722.8</ele>
        <time>2025-09-09T15:01:27Z</time>
      </trkpt>
      <trkpt lat="45.85732" lon="4.38666">
        <ele>723</ele>
        <time>2025-09-09T15:01:28Z</time>
      </trkpt>
      <trkpt lat="45.85731" lon="4.38665">
        <ele>723</ele>
        <time>2025-09-09T15:01:29Z</time>
      </trkpt>
      <trkpt lat="45.85731" lon="4.38665">
        <ele>723</ele>
        <time>2025-09-09T15:01:30Z</time>
      </trkpt>
      <trkpt lat="45.8573" lon="4.38664">
        <ele>722.8</ele>
        <time>2025-09-09T15:01:31Z</time>
      </trkpt>
      <trkpt lat="45.85728" lon="4.38663">
        <ele>722.8</ele>
        <time>2025-09-09T15:01:32Z</time>
      </trkpt>
      <trkpt lat="45.85727" lon="4.38662">
        <ele>722.8</ele>
        <time>2025-09-09T15:01:33Z</time>
      </trkpt>
      <trkpt lat="45.85726" lon="4.38661">
        <ele>722.8</ele>
        <time>2025-09-09T15:01:34Z</time>
      </trkpt>
      <trkpt lat="45.85724" lon="4.3866">
        <ele>723</ele>
        <time>2025-09-09T15:01:35Z</time>
      </trkpt>
      <trkpt lat="45.85723" lon="4.38658">
        <ele>723</ele>
        <time>2025-09-09T15:01:36Z</time>
      </trkpt>
      <trkpt lat="45.85722" lon="4.38656">
        <ele>723.4</ele>
        <time>2025-09-09T15:01:37Z</time>
      </trkpt>
      <trkpt lat="45.8572" lon="4.38654">
        <ele>723.4</ele>
        <time>2025-09-09T15:01:38Z</time>
      </trkpt>
      <trkpt lat="45.85718" lon="4.38652">
        <ele>723.6</ele>
        <time>2025-09-09T15:01:39Z</time>
      </trkpt>
      <trkpt lat="45.85717" lon="4.38652">
        <ele>723.6</ele>
        <time>2025-09-09T15:01:40Z</time>
      </trkpt>
      <trkpt lat="45.85716" lon="4.38651">
        <ele>724</ele>
        <time>2025-09-09T15:01:41Z</time>
      </trkpt>
      <trkpt lat="45.85714" lon="4.3865">
        <ele>724</ele>
        <time>2025-09-09T15:01:42Z</time>
      </trkpt>
      <trkpt lat="45.85713" lon="4.38648">
        <ele>724</ele>
        <time>2025-09-09T15:01:43Z</time>
      </trkpt>
      <trkpt lat="45.85712" lon="4.38645">
        <ele>724.2</ele>
        <time>2025-09-09T15:01:44Z</time>
      </trkpt>
      <trkpt lat="45.8571" lon="4.38643">
        <ele>724.4</ele>
        <time>2025-09-09T15:01:45Z</time>
      </trkpt>
      <trkpt lat="45.85709" lon="4.38641">
        <ele>724.4</ele>
        <time>2025-09-09T15:01:46Z</time>
      </trkpt>
      <trkpt lat="45.85708" lon="4.38641">
        <ele>724.8</ele>
        <time>2025-09-09T15:01:47Z</time>
      </trkpt>
      <trkpt lat="45.85708" lon="4.38641">
        <ele>724.8</ele>
        <time>2025-09-09T15:01:48Z</time>
      </trkpt>
      <trkpt lat="45.85698" lon="4.38638">
        <ele>726</ele>
        <time>2025-09-09T15:05:44Z</time>
      </trkpt>
      <trkpt lat="45.85697" lon="4.38637">
        <ele>726</ele>
        <time>2025-09-09T15:05:45Z</time>
      </trkpt>
      <trkpt lat="45.85697" lon="4.38637">
        <ele>726</ele>
        <time>2025-09-09T15:05:46Z</time>
      </trkpt>
      <trkpt lat="45.85697" lon="4.38637">
        <ele>726</ele>
        <time>2025-09-09T15:05:47Z</time>
      </trkpt>
      <trkpt lat="45.85696" lon="4.38631">
        <ele>726</ele>
        <time>2025-09-09T15:05:49Z</time>
      </trkpt>
      <trkpt lat="45.85695" lon="4.38629">
        <ele>726</ele>
        <time>2025-09-09T15:05:50Z</time>
      </trkpt>
      <trkpt lat="45.85694" lon="4.38627">
        <ele>726</ele>
        <time>2025-09-09T15:05:51Z</time>
      </trkpt>
      <trkpt lat="45.85693" lon="4.38626">
        <ele>726</ele>
        <time>2025-09-09T15:05:52Z</time>
      </trkpt>
      <trkpt lat="45.85692" lon="4.38626">
        <ele>726.2</ele>
        <time>2025-09-09T15:05:53Z</time>
      </trkpt>
      <trkpt lat="45.85691" lon="4.38625">
        <ele>726.2</ele>
        <time>2025-09-09T15:05:54Z</time>
      </trkpt>
      <trkpt lat="45.85691" lon="4.38624">
        <ele>726.4</ele>
        <time>2025-09-09T15:05:55Z</time>
      </trkpt>
      <trkpt lat="45.85691" lon="4.38622">
        <ele>726.6</ele>
        <time>2025-09-09T15:05:56Z</time>
      </trkpt>
      <trkpt lat="45.85691" lon="4.38621">
        <ele>726.6</ele>
        <time>2025-09-09T15:05:57Z</time>
      </trkpt>
      <trkpt lat="45.85691" lon="4.38619">
        <ele>727</ele>
        <time>2025-09-09T15:05:58Z</time>
      </trkpt>
      <trkpt lat="45.85691" lon="4.38616">
        <ele>727</ele>
        <time>2025-09-09T15:05:59Z</time>
      </trkpt>
      <trkpt lat="45.8569" lon="4.38614">
        <ele>727.2</ele>
        <time>2025-09-09T15:06:00Z</time>
      </trkpt>
      <trkpt lat="45.85688" lon="4.38611">
        <ele>727.2</ele>
        <time>2025-09-09T15:06:01Z</time>
      </trkpt>
      <trkpt lat="45.85686" lon="4.3861">
        <ele>727.2</ele>
        <time>2025-09-09T15:06:02Z</time>
      </trkpt>
      <trkpt lat="45.85686" lon="4.38609">
        <ele>727.2</ele>
        <time>2025-09-09T15:06:03Z</time>
      </trkpt>
      <trkpt lat="45.85685" lon="4.38609">
        <ele>727.2</ele>
        <time>2025-09-09T15:06:04Z</time>
      </trkpt>
      <trkpt lat="45.85684" lon="4.38607">
        <ele>727.2</ele>
        <time>2025-09-09T15:06:05Z</time>
      </trkpt>
      <trkpt lat="45.85683" lon="4.38605">
        <ele>727.2</ele>
        <time>2025-09-09T15:06:06Z</time>
      </trkpt>
      <trkpt lat="45.85682" lon="4.38604">
        <ele>727.6</ele>
        <time>2025-09-09T15:06:07Z</time>
      </trkpt>
      <trkpt lat="45.85681" lon="4.38603">
        <ele>727.6</ele>
        <time>2025-09-09T15:06:08Z</time>
      </trkpt>
      <trkpt lat="45.8568" lon="4.38601">
        <ele>727.8</ele>
        <time>2025-09-09T15:06:09Z</time>
      </trkpt>
      <trkpt lat="45.85678" lon="4.38599">
        <ele>728</ele>
        <time>2025-09-09T15:06:10Z</time>
      </trkpt>
      <trkpt lat="45.85678" lon="4.38598">
        <ele>728.2</ele>
        <time>2025-09-09T15:06:11Z</time>
      </trkpt>
      <trkpt lat="45.85678" lon="4.38596">
        <ele>728.2</ele>
        <time>2025-09-09T15:06:12Z</time>
      </trkpt>
      <trkpt lat="45.85677" lon="4.38594">
        <ele>728.2</ele>
        <time>2025-09-09T15:06:13Z</time>
      </trkpt>
      <trkpt lat="45.85675" lon="4.38593">
        <ele>728.2</ele>
        <time>2025-09-09T15:06:14Z</time>
      </trkpt>
      <trkpt lat="45.85674" lon="4.38591">
        <ele>728.2</ele>
        <time>2025-09-09T15:06:15Z</time>
      </trkpt>
      <trkpt lat="45.85673" lon="4.3859">
        <ele>728.2</ele>
        <time>2025-09-09T15:06:16Z</time>
      </trkpt>
      <trkpt lat="45.85673" lon="4.38589">
        <ele>728.2</ele>
        <time>2025-09-09T15:06:17Z</time>
      </trkpt>
      <trkpt lat="45.85672" lon="4.38588">
        <ele>728.6</ele>
        <time>2025-09-09T15:06:18Z</time>
      </trkpt>
      <trkpt lat="45.85671" lon="4.38585">
        <ele>728.6</ele>
        <time>2025-09-09T15:06:19Z</time>
      </trkpt>
      <trkpt lat="45.8567" lon="4.38583">
        <ele>728.6</ele>
        <time>2025-09-09T15:06:20Z</time>
      </trkpt>
      <trkpt lat="45.8567" lon="4.38582">
        <ele>728.6</ele>
        <time>2025-09-09T15:06:21Z</time>
      </trkpt>
      <trkpt lat="45.85669" lon="4.38581">
        <ele>729</ele>
        <time>2025-09-09T15:06:22Z</time>
      </trkpt>
      <trkpt lat="45.85669" lon="4.3858">
        <ele>729</ele>
        <time>2025-09-09T15:06:23Z</time>
      </trkpt>
      <trkpt lat="45.85668" lon="4.38578">
        <ele>729</ele>
        <time>2025-09-09T15:06:24Z</time>
      </trkpt>
      <trkpt lat="45.85667" lon="4.38577">
        <ele>729.2</ele>
        <time>2025-09-09T15:06:25Z</time>
      </trkpt>
      <trkpt lat="45.85666" lon="4.38575">
        <ele>729.2</ele>
        <time>2025-09-09T15:06:26Z</time>
      </trkpt>
      <trkpt lat="45.85665" lon="4.38573">
        <ele>729.2</ele>
        <time>2025-09-09T15:06:27Z</time>
      </trkpt>
      <trkpt lat="45.85664" lon="4.38571">
        <ele>729.4</ele>
        <time>2025-09-09T15:06:28Z</time>
      </trkpt>
      <trkpt lat="45.85663" lon="4.38569">
        <ele>729.4</ele>
        <time>2025-09-09T15:06:29Z</time>
      </trkpt>
      <trkpt lat="45.85663" lon="4.38569">
        <ele>729.8</ele>
        <time>2025-09-09T15:06:30Z</time>
      </trkpt>
      <trkpt lat="45.85661" lon="4.38564">
        <ele>729.8</ele>
        <time>2025-09-09T15:06:31Z</time>
      </trkpt>
      <trkpt lat="45.85661" lon="4.38562">
        <ele>730</ele>
        <time>2025-09-09T15:06:32Z</time>
      </trkpt>
      <trkpt lat="45.85659" lon="4.3856">
        <ele>730</ele>
        <time>2025-09-09T15:06:33Z</time>
      </trkpt>
      <trkpt lat="45.85658" lon="4.38559">
        <ele>730.2</ele>
        <time>2025-09-09T15:06:34Z</time>
      </trkpt>
      <trkpt lat="45.85657" lon="4.38558">
        <ele>730.2</ele>
        <time>2025-09-09T15:06:35Z</time>
      </trkpt>
      <trkpt lat="45.85656" lon="4.38556">
        <ele>730.2</ele>
        <time>2025-09-09T15:06:36Z</time>
      </trkpt>
      <trkpt lat="45.85654" lon="4.38554">
        <ele>730.2</ele>
        <time>2025-09-09T15:06:37Z</time>
      </trkpt>
      <trkpt lat="45.85653" lon="4.38553">
        <ele>730.6</ele>
        <time>2025-09-09T15:06:38Z</time>
      </trkpt>
      <trkpt lat="45.85652" lon="4.38552">
        <ele>730.6</ele>
        <time>2025-09-09T15:06:39Z</time>
      </trkpt>
      <trkpt lat="45.85651" lon="4.3855">
        <ele>731</ele>
        <time>2025-09-09T15:06:40Z</time>
      </trkpt>
      <trkpt lat="45.8565" lon="4.38548">
        <ele>731</ele>
        <time>2025-09-09T15:06:41Z</time>
      </trkpt>
      <trkpt lat="45.8565" lon="4.38546">
        <ele>731</ele>
        <time>2025-09-09T15:06:42Z</time>
      </trkpt>
      <trkpt lat="45.85649" lon="4.38543">
        <ele>731</ele>
        <time>2025-09-09T15:06:43Z</time>
      </trkpt>
      <trkpt lat="45.85649" lon="4.3854">
        <ele>731.2</ele>
        <time>2025-09-09T15:06:44Z</time>
      </trkpt>
      <trkpt lat="45.85649" lon="4.38537">
        <ele>731.2</ele>
        <time>2025-09-09T15:06:45Z</time>
      </trkpt>
      <trkpt lat="45.8565" lon="4.38534">
        <ele>731.2</ele>
        <time>2025-09-09T15:06:46Z</time>
      </trkpt>
      <trkpt lat="45.8565" lon="4.38532">
        <ele>731.2</ele>
        <time>2025-09-09T15:06:47Z</time>
      </trkpt>
      <trkpt lat="45.8565" lon="4.3853">
        <ele>731.2</ele>
        <time>2025-09-09T15:06:48Z</time>
      </trkpt>
      <trkpt lat="45.85651" lon="4.38527">
        <ele>731.4</ele>
        <time>2025-09-09T15:06:49Z</time>
      </trkpt>
      <trkpt lat="45.85652" lon="4.38525">
        <ele>731.4</ele>
        <time>2025-09-09T15:06:50Z</time>
      </trkpt>
      <trkpt lat="45.85653" lon="4.38523">
        <ele>731.6</ele>
        <time>2025-09-09T15:06:51Z</time>
      </trkpt>
      <trkpt lat="45.85654" lon="4.38521">
        <ele>731.6</ele>
        <time>2025-09-09T15:06:52Z</time>
      </trkpt>
      <trkpt lat="45.85657" lon="4.38519">
        <ele>731.6</ele>
        <time>2025-09-09T15:06:53Z</time>
      </trkpt>
      <trkpt lat="45.85659" lon="4.38517">
        <ele>731.6</ele>
        <time>2025-09-09T15:06:54Z</time>
      </trkpt>
      <trkpt lat="45.8566" lon="4.38516">
        <ele>731.6</ele>
        <time>2025-09-09T15:06:55Z</time>
      </trkpt>
      <trkpt lat="45.85661" lon="4.38515">
        <ele>731.6</ele>
        <time>2025-09-09T15:06:56Z</time>
      </trkpt>
      <trkpt lat="45.85662" lon="4.38514">
        <ele>732</ele>
        <time>2025-09-09T15:06:57Z</time>
      </trkpt>
      <trkpt lat="45.85663" lon="4.38512">
        <ele>732</ele>
        <time>2025-09-09T15:06:58Z</time>
      </trkpt>
      <trkpt lat="45.85665" lon="4.38511">
        <ele>732.2</ele>
        <time>2025-09-09T15:06:59Z</time>
      </trkpt>
      <trkpt lat="45.85666" lon="4.38511">
        <ele>732.2</ele>
        <time>2025-09-09T15:07:00Z</time>
      </trkpt>
      <trkpt lat="45.85667" lon="4.38509">
        <ele>732.4</ele>
        <time>2025-09-09T15:07:01Z</time>
      </trkpt>
      <trkpt lat="45.85668" lon="4.38508">
        <ele>732.4</ele>
        <time>2025-09-09T15:07:02Z</time>
      </trkpt>
      <trkpt lat="45.85669" lon="4.38507">
        <ele>732.6</ele>
        <time>2025-09-09T15:07:03Z</time>
      </trkpt>
      <trkpt lat="45.8567" lon="4.38507">
        <ele>732.6</ele>
        <time>2025-09-09T15:07:04Z</time>
      </trkpt>
      <trkpt lat="45.85671" lon="4.38506">
        <ele>732.8</ele>
        <time>2025-09-09T15:07:05Z</time>
      </trkpt>
      <trkpt lat="45.85672" lon="4.38504">
        <ele>732.8</ele>
        <time>2025-09-09T15:07:06Z</time>
      </trkpt>
      <trkpt lat="45.85673" lon="4.38503">
        <ele>733.2</ele>
        <time>2025-09-09T15:07:07Z</time>
      </trkpt>
      <trkpt lat="45.85675" lon="4.38502">
        <ele>733.2</ele>
        <time>2025-09-09T15:07:08Z</time>
      </trkpt>
      <trkpt lat="45.85676" lon="4.38501">
        <ele>733.2</ele>
        <time>2025-09-09T15:07:09Z</time>
      </trkpt>
      <trkpt lat="45.85677" lon="4.385">
        <ele>733.2</ele>
        <time>2025-09-09T15:07:10Z</time>
      </trkpt>
      <trkpt lat="45.85678" lon="4.38498">
        <ele>733.6</ele>
        <time>2025-09-09T15:07:11Z</time>
      </trkpt>
      <trkpt lat="45.85679" lon="4.38496">
        <ele>733.6</ele>
        <time>2025-09-09T15:07:12Z</time>
      </trkpt>
      <trkpt lat="45.8568" lon="4.38495">
        <ele>733.6</ele>
        <time>2025-09-09T15:07:13Z</time>
      </trkpt>
      <trkpt lat="45.85681" lon="4.38494">
        <ele>733.8</ele>
        <time>2025-09-09T15:07:14Z</time>
      </trkpt>
      <trkpt lat="45.85682" lon="4.38494">
        <ele>733.8</ele>
        <time>2025-09-09T15:07:15Z</time>
      </trkpt>
      <trkpt lat="45.85683" lon="4.38493">
        <ele>733.8</ele>
        <time>2025-09-09T15:07:16Z</time>
      </trkpt>
      <trkpt lat="45.85685" lon="4.38491">
        <ele>733.8</ele>
        <time>2025-09-09T15:07:17Z</time>
      </trkpt>
      <trkpt lat="45.85686" lon="4.3849">
        <ele>734</ele>
        <time>2025-09-09T15:07:18Z</time>
      </trkpt>
      <trkpt lat="45.85687" lon="4.38489">
        <ele>734</ele>
        <time>2025-09-09T15:07:19Z</time>
      </trkpt>
      <trkpt lat="45.85689" lon="4.38488">
        <ele>734.4</ele>
        <time>2025-09-09T15:07:20Z</time>
      </trkpt>
      <trkpt lat="45.8569" lon="4.38487">
        <ele>734.4</ele>
        <time>2025-09-09T15:07:21Z</time>
      </trkpt>
      <trkpt lat="45.85691" lon="4.38486">
        <ele>734.4</ele>
        <time>2025-09-09T15:07:22Z</time>
      </trkpt>
      <trkpt lat="45.85692" lon="4.38486">
        <ele>734.4</ele>
        <time>2025-09-09T15:07:23Z</time>
      </trkpt>
      <trkpt lat="45.85693" lon="4.38485">
        <ele>734.4</ele>
        <time>2025-09-09T15:07:24Z</time>
      </trkpt>
      <trkpt lat="45.85694" lon="4.38485">
        <ele>734.8</ele>
        <time>2025-09-09T15:07:25Z</time>
      </trkpt>
      <trkpt lat="45.85696" lon="4.38484">
        <ele>734.8</ele>
        <time>2025-09-09T15:07:26Z</time>
      </trkpt>
      <trkpt lat="45.85697" lon="4.38483">
        <ele>735</ele>
        <time>2025-09-09T15:07:27Z</time>
      </trkpt>
      <trkpt lat="45.85698" lon="4.38481">
        <ele>735</ele>
        <time>2025-09-09T15:07:28Z</time>
      </trkpt>
      <trkpt lat="45.85699" lon="4.3848">
        <ele>735</ele>
        <time>2025-09-09T15:07:29Z</time>
      </trkpt>
      <trkpt lat="45.85701" lon="4.38479">
        <ele>735</ele>
        <time>2025-09-09T15:07:30Z</time>
      </trkpt>
      <trkpt lat="45.85702" lon="4.38478">
        <ele>735.4</ele>
        <time>2025-09-09T15:07:31Z</time>
      </trkpt>
      <trkpt lat="45.85704" lon="4.38477">
        <ele>735.4</ele>
        <time>2025-09-09T15:07:32Z</time>
      </trkpt>
      <trkpt lat="45.85705" lon="4.38476">
        <ele>735.6</ele>
        <time>2025-09-09T15:07:33Z</time>
      </trkpt>
      <trkpt lat="45.85707" lon="4.38475">
        <ele>735.8</ele>
        <time>2025-09-09T15:07:34Z</time>
      </trkpt>
      <trkpt lat="45.85708" lon="4.38473">
        <ele>736</ele>
        <time>2025-09-09T15:07:35Z</time>
      </trkpt>
      <trkpt lat="45.85709" lon="4.38473">
        <ele>736</ele>
        <time>2025-09-09T15:07:36Z</time>
      </trkpt>
      <trkpt lat="45.85711" lon="4.38472">
        <ele>736.4</ele>
        <time>2025-09-09T15:07:37Z</time>
      </trkpt>
      <trkpt lat="45.85712" lon="4.38471">
        <ele>736.4</ele>
        <time>2025-09-09T15:07:38Z</time>
      </trkpt>
      <trkpt lat="45.85713" lon="4.3847">
        <ele>736.4</ele>
        <time>2025-09-09T15:07:39Z</time>
      </trkpt>
      <trkpt lat="45.85714" lon="4.38469">
        <ele>736.6</ele>
        <time>2025-09-09T15:07:40Z</time>
      </trkpt>
      <trkpt lat="45.85715" lon="4.38468">
        <ele>736.6</ele>
        <time>2025-09-09T15:07:41Z</time>
      </trkpt>
      <trkpt lat="45.85716" lon="4.38467">
        <ele>736.8</ele>
        <time>2025-09-09T15:07:42Z</time>
      </trkpt>
      <trkpt lat="45.85717" lon="4.38466">
        <ele>736.8</ele>
        <time>2025-09-09T15:07:43Z</time>
      </trkpt>
      <trkpt lat="45.85719" lon="4.38464">
        <ele>736.8</ele>
        <time>2025-09-09T15:07:44Z</time>
      </trkpt>
      <trkpt lat="45.8572" lon="4.38463">
        <ele>736.8</ele>
        <time>2025-09-09T15:07:45Z</time>
      </trkpt>
      <trkpt lat="45.85723" lon="4.3846">
        <ele>736.8</ele>
        <time>2025-09-09T15:07:46Z</time>
      </trkpt>
      <trkpt lat="45.85725" lon="4.38459">
        <ele>736.8</ele>
        <time>2025-09-09T15:07:47Z</time>
      </trkpt>
      <trkpt lat="45.85726" lon="4.38458">
        <ele>737</ele>
        <time>2025-09-09T15:07:48Z</time>
      </trkpt>
      <trkpt lat="45.85727" lon="4.38457">
        <ele>737</ele>
        <time>2025-09-09T15:07:49Z</time>
      </trkpt>
      <trkpt lat="45.85729" lon="4.38456">
        <ele>737</ele>
        <time>2025-09-09T15:07:50Z</time>
      </trkpt>
      <trkpt lat="45.8573" lon="4.38456">
        <ele>737</ele>
        <time>2025-09-09T15:07:51Z</time>
      </trkpt>
      <trkpt lat="45.85731" lon="4.38456">
        <ele>737.2</ele>
        <time>2025-09-09T15:07:52Z</time>
      </trkpt>
      <trkpt lat="45.85732" lon="4.38456">
        <ele>737.6</ele>
        <time>2025-09-09T15:07:53Z</time>
      </trkpt>
      <trkpt lat="45.85733" lon="4.38456">
        <ele>737.6</ele>
        <time>2025-09-09T15:07:54Z</time>
      </trkpt>
      <trkpt lat="45.85735" lon="4.38456">
        <ele>737.8</ele>
        <time>2025-09-09T15:07:55Z</time>
      </trkpt>
      <trkpt lat="45.85736" lon="4.38456">
        <ele>737.8</ele>
        <time>2025-09-09T15:07:56Z</time>
      </trkpt>
      <trkpt lat="45.85738" lon="4.38456">
        <ele>737.8</ele>
        <time>2025-09-09T15:07:57Z</time>
      </trkpt>
      <trkpt lat="45.85739" lon="4.38456">
        <ele>738.2</ele>
        <time>2025-09-09T15:07:58Z</time>
      </trkpt>
      <trkpt lat="45.8574" lon="4.38456">
        <ele>738.2</ele>
        <time>2025-09-09T15:07:59Z</time>
      </trkpt>
      <trkpt lat="45.85742" lon="4.38457">
        <ele>738.2</ele>
        <time>2025-09-09T15:08:00Z</time>
      </trkpt>
      <trkpt lat="45.85743" lon="4.38459">
        <ele>738.4</ele>
        <time>2025-09-09T15:08:01Z</time>
      </trkpt>
      <trkpt lat="45.85744" lon="4.3846">
        <ele>738.4</ele>
        <time>2025-09-09T15:08:02Z</time>
      </trkpt>
      <trkpt lat="45.85745" lon="4.38461">
        <ele>738.6</ele>
        <time>2025-09-09T15:08:03Z</time>
      </trkpt>
      <trkpt lat="45.85746" lon="4.38461">
        <ele>738.6</ele>
        <time>2025-09-09T15:08:04Z</time>
      </trkpt>
      <trkpt lat="45.85748" lon="4.38462">
        <ele>738.6</ele>
        <time>2025-09-09T15:08:05Z</time>
      </trkpt>
      <trkpt lat="45.85749" lon="4.38463">
        <ele>739</ele>
        <time>2025-09-09T15:08:06Z</time>
      </trkpt>
      <trkpt lat="45.85751" lon="4.38463">
        <ele>739</ele>
        <time>2025-09-09T15:08:07Z</time>
      </trkpt>
      <trkpt lat="45.85752" lon="4.38463">
        <ele>739</ele>
        <time>2025-09-09T15:08:08Z</time>
      </trkpt>
      <trkpt lat="45.85754" lon="4.38463">
        <ele>739.2</ele>
        <time>2025-09-09T15:08:09Z</time>
      </trkpt>
      <trkpt lat="45.85756" lon="4.38463">
        <ele>739.2</ele>
        <time>2025-09-09T15:08:10Z</time>
      </trkpt>
      <trkpt lat="45.85758" lon="4.38464">
        <ele>739.2</ele>
        <time>2025-09-09T15:08:11Z</time>
      </trkpt>
      <trkpt lat="45.85759" lon="4.38464">
        <ele>739.4</ele>
        <time>2025-09-09T15:08:12Z</time>
      </trkpt>
      <trkpt lat="45.85761" lon="4.38464">
        <ele>739.4</ele>
        <time>2025-09-09T15:08:13Z</time>
      </trkpt>
      <trkpt lat="45.85763" lon="4.38464">
        <ele>739.8</ele>
        <time>2025-09-09T15:08:14Z</time>
      </trkpt>
      <trkpt lat="45.85764" lon="4.38463">
        <ele>739.8</ele>
        <time>2025-09-09T15:08:15Z</time>
      </trkpt>
      <trkpt lat="45.85766" lon="4.38462">
        <ele>739.8</ele>
        <time>2025-09-09T15:08:16Z</time>
      </trkpt>
      <trkpt lat="45.85768" lon="4.38461">
        <ele>740</ele>
        <time>2025-09-09T15:08:17Z</time>
      </trkpt>
      <trkpt lat="45.85769" lon="4.38461">
        <ele>740</ele>
        <time>2025-09-09T15:08:18Z</time>
      </trkpt>
      <trkpt lat="45.85769" lon="4.38461">
        <ele>740</ele>
        <time>2025-09-09T15:08:19Z</time>
      </trkpt>
      <trkpt lat="45.85771" lon="4.38461">
        <ele>740</ele>
        <time>2025-09-09T15:08:20Z</time>
      </trkpt>
      <trkpt lat="45.85773" lon="4.38461">
        <ele>740.4</ele>
        <time>2025-09-09T15:08:21Z</time>
      </trkpt>
      <trkpt lat="45.85774" lon="4.38461">
        <ele>740.4</ele>
        <time>2025-09-09T15:08:22Z</time>
      </trkpt>
      <trkpt lat="45.85776" lon="4.38461">
        <ele>740.4</ele>
        <time>2025-09-09T15:08:23Z</time>
      </trkpt>
      <trkpt lat="45.85778" lon="4.38461">
        <ele>740.6</ele>
        <time>2025-09-09T15:08:24Z</time>
      </trkpt>
      <trkpt lat="45.8578" lon="4.3846">
        <ele>740.6</ele>
        <time>2025-09-09T15:08:25Z</time>
      </trkpt>
      <trkpt lat="45.85781" lon="4.38459">
        <ele>740.8</ele>
        <time>2025-09-09T15:08:26Z</time>
      </trkpt>
      <trkpt lat="45.85782" lon="4.38458">
        <ele>740.8</ele>
        <time>2025-09-09T15:08:27Z</time>
      </trkpt>
      <trkpt lat="45.85783" lon="4.38457">
        <ele>741</ele>
        <time>2025-09-09T15:08:28Z</time>
      </trkpt>
      <trkpt lat="45.85785" lon="4.38458">
        <ele>741.2</ele>
        <time>2025-09-09T15:08:29Z</time>
      </trkpt>
      <trkpt lat="45.85787" lon="4.38458">
        <ele>741.2</ele>
        <time>2025-09-09T15:08:30Z</time>
      </trkpt>
      <trkpt lat="45.85788" lon="4.38458">
        <ele>741.2</ele>
        <time>2025-09-09T15:08:31Z</time>
      </trkpt>
      <trkpt lat="45.8579" lon="4.38457">
        <ele>741.2</ele>
        <time>2025-09-09T15:08:32Z</time>
      </trkpt>
      <trkpt lat="45.85791" lon="4.38457">
        <ele>741.4</ele>
        <time>2025-09-09T15:08:33Z</time>
      </trkpt>
      <trkpt lat="45.85792" lon="4.38456">
        <ele>741.4</ele>
        <time>2025-09-09T15:08:34Z</time>
      </trkpt>
      <trkpt lat="45.85794" lon="4.38456">
        <ele>741.4</ele>
        <time>2025-09-09T15:08:35Z</time>
      </trkpt>
      <trkpt lat="45.85795" lon="4.38456">
        <ele>741.4</ele>
        <time>2025-09-09T15:08:36Z</time>
      </trkpt>
      <trkpt lat="45.85796" lon="4.38456">
        <ele>741.6</ele>
        <time>2025-09-09T15:08:37Z</time>
      </trkpt>
      <trkpt lat="45.85797" lon="4.38456">
        <ele>741.6</ele>
        <time>2025-09-09T15:08:38Z</time>
      </trkpt>
      <trkpt lat="45.85798" lon="4.38455">
        <ele>742</ele>
        <time>2025-09-09T15:08:39Z</time>
      </trkpt>
      <trkpt lat="45.858" lon="4.38455">
        <ele>742</ele>
        <time>2025-09-09T15:08:40Z</time>
      </trkpt>
      <trkpt lat="45.85801" lon="4.38454">
        <ele>742.2</ele>
        <time>2025-09-09T15:08:41Z</time>
      </trkpt>
      <trkpt lat="45.85802" lon="4.38454">
        <ele>742.2</ele>
        <time>2025-09-09T15:08:42Z</time>
      </trkpt>
      <trkpt lat="45.85804" lon="4.38453">
        <ele>742.2</ele>
        <time>2025-09-09T15:08:43Z</time>
      </trkpt>
      <trkpt lat="45.85805" lon="4.38452">
        <ele>742.2</ele>
        <time>2025-09-09T15:08:44Z</time>
      </trkpt>
      <trkpt lat="45.85806" lon="4.38451">
        <ele>742.4</ele>
        <time>2025-09-09T15:08:45Z</time>
      </trkpt>
      <trkpt lat="45.85808" lon="4.3845">
        <ele>742.4</ele>
        <time>2025-09-09T15:08:46Z</time>
      </trkpt>
      <trkpt lat="45.85809" lon="4.38449">
        <ele>742.8</ele>
        <time>2025-09-09T15:08:47Z</time>
      </trkpt>
      <trkpt lat="45.85811" lon="4.38448">
        <ele>742.8</ele>
        <time>2025-09-09T15:08:48Z</time>
      </trkpt>
      <trkpt lat="45.85812" lon="4.38448">
        <ele>742.8</ele>
        <time>2025-09-09T15:08:49Z</time>
      </trkpt>
      <trkpt lat="45.85813" lon="4.38448">
        <ele>742.8</ele>
        <time>2025-09-09T15:08:50Z</time>
      </trkpt>
      <trkpt lat="45.85815" lon="4.38447">
        <ele>743.2</ele>
        <time>2025-09-09T15:08:51Z</time>
      </trkpt>
      <trkpt lat="45.85816" lon="4.38446">
        <ele>743.2</ele>
        <time>2025-09-09T15:08:52Z</time>
      </trkpt>
      <trkpt lat="45.85818" lon="4.38445">
        <ele>743.4</ele>
        <time>2025-09-09T15:08:53Z</time>
      </trkpt>
      <trkpt lat="45.85819" lon="4.38444">
        <ele>743.4</ele>
        <time>2025-09-09T15:08:54Z</time>
      </trkpt>
      <trkpt lat="45.8582" lon="4.38443">
        <ele>743.8</ele>
        <time>2025-09-09T15:08:55Z</time>
      </trkpt>
      <trkpt lat="45.85822" lon="4.38442">
        <ele>743.8</ele>
        <time>2025-09-09T15:08:56Z</time>
      </trkpt>
      <trkpt lat="45.85823" lon="4.38441">
        <ele>743.8</ele>
        <time>2025-09-09T15:08:57Z</time>
      </trkpt>
      <trkpt lat="45.85825" lon="4.38441">
        <ele>744.2</ele>
        <time>2025-09-09T15:08:58Z</time>
      </trkpt>
      <trkpt lat="45.85826" lon="4.38441">
        <ele>744.2</ele>
        <time>2025-09-09T15:08:59Z</time>
      </trkpt>
      <trkpt lat="45.85828" lon="4.38441">
        <ele>744.2</ele>
        <time>2025-09-09T15:09:00Z</time>
      </trkpt>
      <trkpt lat="45.85829" lon="4.3844">
        <ele>744.2</ele>
        <time>2025-09-09T15:09:01Z</time>
      </trkpt>
      <trkpt lat="45.85831" lon="4.38439">
        <ele>744.4</ele>
        <time>2025-09-09T15:09:02Z</time>
      </trkpt>
      <trkpt lat="45.85832" lon="4.38438">
        <ele>744.4</ele>
        <time>2025-09-09T15:09:03Z</time>
      </trkpt>
      <trkpt lat="45.85833" lon="4.38437">
        <ele>744.8</ele>
        <time>2025-09-09T15:09:04Z</time>
      </trkpt>
      <trkpt lat="45.85835" lon="4.38436">
        <ele>744.8</ele>
        <time>2025-09-09T15:09:05Z</time>
      </trkpt>
      <trkpt lat="45.85836" lon="4.38435">
        <ele>744.8</ele>
        <time>2025-09-09T15:09:06Z</time>
      </trkpt>
      <trkpt lat="45.85838" lon="4.38434">
        <ele>744.8</ele>
        <time>2025-09-09T15:09:07Z</time>
      </trkpt>
      <trkpt lat="45.85839" lon="4.38433">
        <ele>745</ele>
        <time>2025-09-09T15:09:08Z</time>
      </trkpt>
      <trkpt lat="45.85839" lon="4.38433">
        <ele>745</ele>
        <time>2025-09-09T15:09:09Z</time>
      </trkpt>
      <trkpt lat="45.8584" lon="4.38432">
        <ele>745</ele>
        <time>2025-09-09T15:09:10Z</time>
      </trkpt>
      <trkpt lat="45.8584" lon="4.38432">
        <ele>745</ele>
        <time>2025-09-09T15:09:11Z</time>
      </trkpt>
      <trkpt lat="45.85841" lon="4.3843">
        <ele>745</ele>
        <time>2025-09-09T15:09:12Z</time>
      </trkpt>
      <trkpt lat="45.85843" lon="4.38429">
        <ele>745.2</ele>
        <time>2025-09-09T15:09:13Z</time>
      </trkpt>
      <trkpt lat="45.85844" lon="4.38429">
        <ele>745.2</ele>
        <time>2025-09-09T15:09:14Z</time>
      </trkpt>
      <trkpt lat="45.85845" lon="4.38428">
        <ele>745.6</ele>
        <time>2025-09-09T15:09:15Z</time>
      </trkpt>
      <trkpt lat="45.85847" lon="4.38427">
        <ele>745.6</ele>
        <time>2025-09-09T15:09:16Z</time>
      </trkpt>
      <trkpt lat="45.85848" lon="4.38426">
        <ele>746</ele>
        <time>2025-09-09T15:09:17Z</time>
      </trkpt>
      <trkpt lat="45.8585" lon="4.38425">
        <ele>746</ele>
        <time>2025-09-09T15:09:18Z</time>
      </trkpt>
      <trkpt lat="45.85851" lon="4.38424">
        <ele>746.2</ele>
        <time>2025-09-09T15:09:19Z</time>
      </trkpt>
      <trkpt lat="45.85852" lon="4.38423">
        <ele>746.2</ele>
        <time>2025-09-09T15:09:20Z</time>
      </trkpt>
      <trkpt lat="45.85854" lon="4.38422">
        <ele>746.4</ele>
        <time>2025-09-09T15:09:21Z</time>
      </trkpt>
      <trkpt lat="45.85855" lon="4.38422">
        <ele>746.4</ele>
        <time>2025-09-09T15:09:22Z</time>
      </trkpt>
      <trkpt lat="45.85857" lon="4.38421">
        <ele>746.4</ele>
        <time>2025-09-09T15:09:23Z</time>
      </trkpt>
      <trkpt lat="45.85858" lon="4.38421">
        <ele>746.8</ele>
        <time>2025-09-09T15:09:24Z</time>
      </trkpt>
      <trkpt lat="45.85859" lon="4.38419">
        <ele>746.8</ele>
        <time>2025-09-09T15:09:25Z</time>
      </trkpt>
      <trkpt lat="45.85861" lon="4.38418">
        <ele>746.8</ele>
        <time>2025-09-09T15:09:26Z</time>
      </trkpt>
      <trkpt lat="45.85862" lon="4.38416">
        <ele>747.2</ele>
        <time>2025-09-09T15:09:27Z</time>
      </trkpt>
      <trkpt lat="45.85863" lon="4.38415">
        <ele>747.2</ele>
        <time>2025-09-09T15:09:28Z</time>
      </trkpt>
      <trkpt lat="45.85864" lon="4.38414">
        <ele>747.2</ele>
        <time>2025-09-09T15:09:29Z</time>
      </trkpt>
      <trkpt lat="45.85865" lon="4.38413">
        <ele>747.4</ele>
        <time>2025-09-09T15:09:30Z</time>
      </trkpt>
      <trkpt lat="45.85866" lon="4.38412">
        <ele>747.4</ele>
        <time>2025-09-09T15:09:31Z</time>
      </trkpt>
      <trkpt lat="45.85867" lon="4.38411">
        <ele>747.6</ele>
        <time>2025-09-09T15:09:32Z</time>
      </trkpt>
      <trkpt lat="45.85868" lon="4.38411">
        <ele>747.6</ele>
        <time>2025-09-09T15:09:33Z</time>
      </trkpt>
      <trkpt lat="45.85869" lon="4.38411">
        <ele>747.6</ele>
        <time>2025-09-09T15:09:34Z</time>
      </trkpt>
      <trkpt lat="45.85871" lon="4.3841">
        <ele>747.6</ele>
        <time>2025-09-09T15:09:35Z</time>
      </trkpt>
      <trkpt lat="45.85873" lon="4.3841">
        <ele>747.6</ele>
        <time>2025-09-09T15:09:36Z</time>
      </trkpt>
      <trkpt lat="45.85874" lon="4.3841">
        <ele>747.8</ele>
        <time>2025-09-09T15:09:37Z</time>
      </trkpt>
      <trkpt lat="45.85876" lon="4.38409">
        <ele>747.8</ele>
        <time>2025-09-09T15:09:38Z</time>
      </trkpt>
      <trkpt lat="45.85877" lon="4.38408">
        <ele>747.8</ele>
        <time>2025-09-09T15:09:39Z</time>
      </trkpt>
      <trkpt lat="45.85879" lon="4.38408">
        <ele>748.2</ele>
        <time>2025-09-09T15:09:40Z</time>
      </trkpt>
      <trkpt lat="45.8588" lon="4.38407">
        <ele>748.2</ele>
        <time>2025-09-09T15:09:41Z</time>
      </trkpt>
      <trkpt lat="45.85881" lon="4.38406">
        <ele>748.2</ele>
        <time>2025-09-09T15:09:42Z</time>
      </trkpt>
      <trkpt lat="45.85882" lon="4.38404">
        <ele>748.6</ele>
        <time>2025-09-09T15:09:43Z</time>
      </trkpt>
      <trkpt lat="45.85883" lon="4.38403">
        <ele>748.6</ele>
        <time>2025-09-09T15:09:44Z</time>
      </trkpt>
      <trkpt lat="45.85884" lon="4.38401">
        <ele>748.6</ele>
        <time>2025-09-09T15:09:45Z</time>
      </trkpt>
      <trkpt lat="45.85885" lon="4.384">
        <ele>749</ele>
        <time>2025-09-09T15:09:46Z</time>
      </trkpt>
      <trkpt lat="45.85886" lon="4.38398">
        <ele>749</ele>
        <time>2025-09-09T15:09:47Z</time>
      </trkpt>
      <trkpt lat="45.85887" lon="4.38397">
        <ele>749</ele>
        <time>2025-09-09T15:09:48Z</time>
      </trkpt>
      <trkpt lat="45.85889" lon="4.38396">
        <ele>749.2</ele>
        <time>2025-09-09T15:09:49Z</time>
      </trkpt>
      <trkpt lat="45.8589" lon="4.38395">
        <ele>749.2</ele>
        <time>2025-09-09T15:09:50Z</time>
      </trkpt>
      <trkpt lat="45.85892" lon="4.38395">
        <ele>749</ele>
        <time>2025-09-09T15:09:51Z</time>
      </trkpt>
      <trkpt lat="45.85893" lon="4.38394">
        <ele>749</ele>
        <time>2025-09-09T15:09:52Z</time>
      </trkpt>
      <trkpt lat="45.85895" lon="4.38394">
        <ele>749</ele>
        <time>2025-09-09T15:09:53Z</time>
      </trkpt>
      <trkpt lat="45.85896" lon="4.38393">
        <ele>749.2</ele>
        <time>2025-09-09T15:09:54Z</time>
      </trkpt>
      <trkpt lat="45.85898" lon="4.38392">
        <ele>749.2</ele>
        <time>2025-09-09T15:09:55Z</time>
      </trkpt>
      <trkpt lat="45.859" lon="4.38391">
        <ele>749.4</ele>
        <time>2025-09-09T15:09:56Z</time>
      </trkpt>
      <trkpt lat="45.85901" lon="4.3839">
        <ele>749.4</ele>
        <time>2025-09-09T15:09:57Z</time>
      </trkpt>
      <trkpt lat="45.85902" lon="4.38389">
        <ele>749.6</ele>
        <time>2025-09-09T15:09:58Z</time>
      </trkpt>
      <trkpt lat="45.85903" lon="4.38388">
        <ele>749.6</ele>
        <time>2025-09-09T15:09:59Z</time>
      </trkpt>
      <trkpt lat="45.85905" lon="4.38387">
        <ele>750.2</ele>
        <time>2025-09-09T15:10:00Z</time>
      </trkpt>
      <trkpt lat="45.85906" lon="4.38387">
        <ele>750.2</ele>
        <time>2025-09-09T15:10:01Z</time>
      </trkpt>
      <trkpt lat="45.85908" lon="4.38386">
        <ele>750.4</ele>
        <time>2025-09-09T15:10:02Z</time>
      </trkpt>
      <trkpt lat="45.85909" lon="4.38385">
        <ele>750.4</ele>
        <time>2025-09-09T15:10:03Z</time>
      </trkpt>
      <trkpt lat="45.8591" lon="4.38384">
        <ele>750.4</ele>
        <time>2025-09-09T15:10:04Z</time>
      </trkpt>
      <trkpt lat="45.85912" lon="4.38383">
        <ele>750.4</ele>
        <time>2025-09-09T15:10:05Z</time>
      </trkpt>
      <trkpt lat="45.85914" lon="4.38382">
        <ele>750.6</ele>
        <time>2025-09-09T15:10:06Z</time>
      </trkpt>
      <trkpt lat="45.85915" lon="4.38382">
        <ele>750.6</ele>
        <time>2025-09-09T15:10:07Z</time>
      </trkpt>
      <trkpt lat="45.85916" lon="4.38381">
        <ele>750.6</ele>
        <time>2025-09-09T15:10:08Z</time>
      </trkpt>
      <trkpt lat="45.85917" lon="4.3838">
        <ele>750.6</ele>
        <time>2025-09-09T15:10:09Z</time>
      </trkpt>
      <trkpt lat="45.85919" lon="4.38379">
        <ele>750.8</ele>
        <time>2025-09-09T15:10:10Z</time>
      </trkpt>
      <trkpt lat="45.85921" lon="4.38378">
        <ele>750.8</ele>
        <time>2025-09-09T15:10:11Z</time>
      </trkpt>
      <trkpt lat="45.85922" lon="4.38377">
        <ele>750.8</ele>
        <time>2025-09-09T15:10:12Z</time>
      </trkpt>
      <trkpt lat="45.85923" lon="4.38376">
        <ele>751</ele>
        <time>2025-09-09T15:10:13Z</time>
      </trkpt>
      <trkpt lat="45.85924" lon="4.38375">
        <ele>751</ele>
        <time>2025-09-09T15:10:14Z</time>
      </trkpt>
      <trkpt lat="45.85926" lon="4.38374">
        <ele>751</ele>
        <time>2025-09-09T15:10:15Z</time>
      </trkpt>
      <trkpt lat="45.85927" lon="4.38373">
        <ele>751.4</ele>
        <time>2025-09-09T15:10:16Z</time>
      </trkpt>
      <trkpt lat="45.85928" lon="4.38372">
        <ele>751.4</ele>
        <time>2025-09-09T15:10:17Z</time>
      </trkpt>
      <trkpt lat="45.8593" lon="4.38372">
        <ele>751.4</ele>
        <time>2025-09-09T15:10:18Z</time>
      </trkpt>
      <trkpt lat="45.85931" lon="4.38371">
        <ele>751.4</ele>
        <time>2025-09-09T15:10:19Z</time>
      </trkpt>
      <trkpt lat="45.85932" lon="4.38371">
        <ele>751.6</ele>
        <time>2025-09-09T15:10:20Z</time>
      </trkpt>
      <trkpt lat="45.85934" lon="4.38371">
        <ele>751.6</ele>
        <time>2025-09-09T15:10:21Z</time>
      </trkpt>
      <trkpt lat="45.85936" lon="4.3837">
        <ele>751.6</ele>
        <time>2025-09-09T15:10:22Z</time>
      </trkpt>
      <trkpt lat="45.85937" lon="4.38369">
        <ele>751.6</ele>
        <time>2025-09-09T15:10:23Z</time>
      </trkpt>
      <trkpt lat="45.85939" lon="4.38369">
        <ele>751.6</ele>
        <time>2025-09-09T15:10:24Z</time>
      </trkpt>
      <trkpt lat="45.8594" lon="4.38368">
        <ele>751.8</ele>
        <time>2025-09-09T15:10:25Z</time>
      </trkpt>
      <trkpt lat="45.85942" lon="4.38368">
        <ele>751.8</ele>
        <time>2025-09-09T15:10:26Z</time>
      </trkpt>
      <trkpt lat="45.85943" lon="4.38367">
        <ele>751.8</ele>
        <time>2025-09-09T15:10:27Z</time>
      </trkpt>
      <trkpt lat="45.85945" lon="4.38367">
        <ele>751.8</ele>
        <time>2025-09-09T15:10:28Z</time>
      </trkpt>
      <trkpt lat="45.85946" lon="4.38367">
        <ele>751.8</ele>
        <time>2025-09-09T15:10:29Z</time>
      </trkpt>
      <trkpt lat="45.85948" lon="4.38366">
        <ele>751.8</ele>
        <time>2025-09-09T15:10:30Z</time>
      </trkpt>
      <trkpt lat="45.85949" lon="4.38365">
        <ele>752.2</ele>
        <time>2025-09-09T15:10:31Z</time>
      </trkpt>
      <trkpt lat="45.85951" lon="4.38364">
        <ele>752.2</ele>
        <time>2025-09-09T15:10:32Z</time>
      </trkpt>
      <trkpt lat="45.85952" lon="4.38364">
        <ele>752.2</ele>
        <time>2025-09-09T15:10:33Z</time>
      </trkpt>
      <trkpt lat="45.85954" lon="4.38363">
        <ele>752.6</ele>
        <time>2025-09-09T15:10:34Z</time>
      </trkpt>
      <trkpt lat="45.85955" lon="4.38362">
        <ele>752.6</ele>
        <time>2025-09-09T15:10:35Z</time>
      </trkpt>
      <trkpt lat="45.85956" lon="4.38362">
        <ele>752.6</ele>
        <time>2025-09-09T15:10:36Z</time>
      </trkpt>
      <trkpt lat="45.85957" lon="4.38362">
        <ele>752.6</ele>
        <time>2025-09-09T15:10:37Z</time>
      </trkpt>
      <trkpt lat="45.85959" lon="4.38361">
        <ele>752.6</ele>
        <time>2025-09-09T15:10:38Z</time>
      </trkpt>
      <trkpt lat="45.85962" lon="4.38361">
        <ele>752.8</ele>
        <time>2025-09-09T15:10:39Z</time>
      </trkpt>
      <trkpt lat="45.85964" lon="4.3836">
        <ele>753.2</ele>
        <time>2025-09-09T15:10:40Z</time>
      </trkpt>
      <trkpt lat="45.85966" lon="4.38359">
        <ele>753.2</ele>
        <time>2025-09-09T15:10:41Z</time>
      </trkpt>
      <trkpt lat="45.85967" lon="4.38358">
        <ele>753.6</ele>
        <time>2025-09-09T15:10:42Z</time>
      </trkpt>
      <trkpt lat="45.85968" lon="4.38358">
        <ele>753.6</ele>
        <time>2025-09-09T15:10:43Z</time>
      </trkpt>
      <trkpt lat="45.85969" lon="4.38358">
        <ele>753.8</ele>
        <time>2025-09-09T15:10:44Z</time>
      </trkpt>
      <trkpt lat="45.8597" lon="4.38359">
        <ele>753.8</ele>
        <time>2025-09-09T15:10:45Z</time>
      </trkpt>
      <trkpt lat="45.85972" lon="4.38359">
        <ele>754</ele>
        <time>2025-09-09T15:10:46Z</time>
      </trkpt>
      <trkpt lat="45.85972" lon="4.38359">
        <ele>754</ele>
        <time>2025-09-09T15:10:47Z</time>
      </trkpt>
      <trkpt lat="45.85974" lon="4.38359">
        <ele>754</ele>
        <time>2025-09-09T15:10:48Z</time>
      </trkpt>
      <trkpt lat="45.85976" lon="4.38358">
        <ele>754</ele>
        <time>2025-09-09T15:10:49Z</time>
      </trkpt>
      <trkpt lat="45.85977" lon="4.38358">
        <ele>754.2</ele>
        <time>2025-09-09T15:10:50Z</time>
      </trkpt>
      <trkpt lat="45.85979" lon="4.38358">
        <ele>754.2</ele>
        <time>2025-09-09T15:10:51Z</time>
      </trkpt>
      <trkpt lat="45.85981" lon="4.38358">
        <ele>754.2</ele>
        <time>2025-09-09T15:10:52Z</time>
      </trkpt>
      <trkpt lat="45.85983" lon="4.38357">
        <ele>754.6</ele>
        <time>2025-09-09T15:10:53Z</time>
      </trkpt>
      <trkpt lat="45.85984" lon="4.38357">
        <ele>754.6</ele>
        <time>2025-09-09T15:10:54Z</time>
      </trkpt>
      <trkpt lat="45.85985" lon="4.38358">
        <ele>754.8</ele>
        <time>2025-09-09T15:10:55Z</time>
      </trkpt>
      <trkpt lat="45.85986" lon="4.38359">
        <ele>754.8</ele>
        <time>2025-09-09T15:10:56Z</time>
      </trkpt>
      <trkpt lat="45.85987" lon="4.38359">
        <ele>754.8</ele>
        <time>2025-09-09T15:10:57Z</time>
      </trkpt>
      <trkpt lat="45.85988" lon="4.38359">
        <ele>754.8</ele>
        <time>2025-09-09T15:10:58Z</time>
      </trkpt>
      <trkpt lat="45.8599" lon="4.38358">
        <ele>755</ele>
        <time>2025-09-09T15:10:59Z</time>
      </trkpt>
      <trkpt lat="45.85993" lon="4.38358">
        <ele>755</ele>
        <time>2025-09-09T15:11:00Z</time>
      </trkpt>
      <trkpt lat="45.85994" lon="4.38357">
        <ele>755.2</ele>
        <time>2025-09-09T15:11:01Z</time>
      </trkpt>
      <trkpt lat="45.85995" lon="4.38357">
        <ele>755.2</ele>
        <time>2025-09-09T15:11:02Z</time>
      </trkpt>
      <trkpt lat="45.85997" lon="4.38356">
        <ele>755.2</ele>
        <time>2025-09-09T15:11:03Z</time>
      </trkpt>
      <trkpt lat="45.85999" lon="4.38355">
        <ele>755.2</ele>
        <time>2025-09-09T15:11:04Z</time>
      </trkpt>
      <trkpt lat="45.86" lon="4.38354">
        <ele>755.2</ele>
        <time>2025-09-09T15:11:05Z</time>
      </trkpt>
      <trkpt lat="45.86001" lon="4.38352">
        <ele>755.8</ele>
        <time>2025-09-09T15:11:06Z</time>
      </trkpt>
      <trkpt lat="45.86002" lon="4.3835">
        <ele>755.8</ele>
        <time>2025-09-09T15:11:07Z</time>
      </trkpt>
      <trkpt lat="45.86003" lon="4.38348">
        <ele>756</ele>
        <time>2025-09-09T15:11:08Z</time>
      </trkpt>
      <trkpt lat="45.86004" lon="4.38346">
        <ele>756</ele>
        <time>2025-09-09T15:11:09Z</time>
      </trkpt>
      <trkpt lat="45.86006" lon="4.38344">
        <ele>756.2</ele>
        <time>2025-09-09T15:11:10Z</time>
      </trkpt>
      <trkpt lat="45.86007" lon="4.38342">
        <ele>756.2</ele>
        <time>2025-09-09T15:11:11Z</time>
      </trkpt>
      <trkpt lat="45.86007" lon="4.3834">
        <ele>756.6</ele>
        <time>2025-09-09T15:11:12Z</time>
      </trkpt>
      <trkpt lat="45.86007" lon="4.38338">
        <ele>756.2</ele>
        <time>2025-09-09T15:11:13Z</time>
      </trkpt>
      <trkpt lat="45.86006" lon="4.38337">
        <ele>756.2</ele>
        <time>2025-09-09T15:11:14Z</time>
      </trkpt>
      <trkpt lat="45.86006" lon="4.38337">
        <ele>756.2</ele>
        <time>2025-09-09T15:11:15Z</time>
      </trkpt>
      <trkpt lat="45.86006" lon="4.38335">
        <ele>756.2</ele>
        <time>2025-09-09T15:11:16Z</time>
      </trkpt>
      <trkpt lat="45.86006" lon="4.38332">
        <ele>756.6</ele>
        <time>2025-09-09T15:11:17Z</time>
      </trkpt>
      <trkpt lat="45.86006" lon="4.38331">
        <ele>756.6</ele>
        <time>2025-09-09T15:11:18Z</time>
      </trkpt>
      <trkpt lat="45.86006" lon="4.38329">
        <ele>756.6</ele>
        <time>2025-09-09T15:11:19Z</time>
      </trkpt>
      <trkpt lat="45.86007" lon="4.38326">
        <ele>756.6</ele>
        <time>2025-09-09T15:11:20Z</time>
      </trkpt>
      <trkpt lat="45.86007" lon="4.38324">
        <ele>757</ele>
        <time>2025-09-09T15:11:21Z</time>
      </trkpt>
      <trkpt lat="45.86007" lon="4.38322">
        <ele>757</ele>
        <time>2025-09-09T15:11:22Z</time>
      </trkpt>
      <trkpt lat="45.86008" lon="4.3832">
        <ele>757.2</ele>
        <time>2025-09-09T15:11:23Z</time>
      </trkpt>
      <trkpt lat="45.86008" lon="4.38318">
        <ele>757.6</ele>
        <time>2025-09-09T15:11:24Z</time>
      </trkpt>
      <trkpt lat="45.86009" lon="4.38317">
        <ele>757.6</ele>
        <time>2025-09-09T15:11:25Z</time>
      </trkpt>
      <trkpt lat="45.86009" lon="4.38315">
        <ele>757.6</ele>
        <time>2025-09-09T15:11:26Z</time>
      </trkpt>
      <trkpt lat="45.8601" lon="4.38314">
        <ele>757.6</ele>
        <time>2025-09-09T15:11:27Z</time>
      </trkpt>
      <trkpt lat="45.86011" lon="4.38313">
        <ele>757.6</ele>
        <time>2025-09-09T15:11:28Z</time>
      </trkpt>
      <trkpt lat="45.86011" lon="4.38311">
        <ele>757.8</ele>
        <time>2025-09-09T15:11:29Z</time>
      </trkpt>
      <trkpt lat="45.86011" lon="4.38309">
        <ele>757.8</ele>
        <time>2025-09-09T15:11:30Z</time>
      </trkpt>
      <trkpt lat="45.86012" lon="4.38307">
        <ele>757.8</ele>
        <time>2025-09-09T15:11:31Z</time>
      </trkpt>
      <trkpt lat="45.86012" lon="4.38304">
        <ele>757.8</ele>
        <time>2025-09-09T15:11:32Z</time>
      </trkpt>
      <trkpt lat="45.86013" lon="4.38303">
        <ele>758</ele>
        <time>2025-09-09T15:11:33Z</time>
      </trkpt>
      <trkpt lat="45.86013" lon="4.38301">
        <ele>758</ele>
        <time>2025-09-09T15:11:34Z</time>
      </trkpt>
      <trkpt lat="45.86013" lon="4.38298">
        <ele>758.4</ele>
        <time>2025-09-09T15:11:35Z</time>
      </trkpt>
      <trkpt lat="45.86013" lon="4.38296">
        <ele>758.4</ele>
        <time>2025-09-09T15:11:36Z</time>
      </trkpt>
      <trkpt lat="45.86012" lon="4.38294">
        <ele>758.4</ele>
        <time>2025-09-09T15:11:37Z</time>
      </trkpt>
      <trkpt lat="45.86012" lon="4.38292">
        <ele>758.6</ele>
        <time>2025-09-09T15:11:38Z</time>
      </trkpt>
      <trkpt lat="45.86013" lon="4.38289">
        <ele>758.6</ele>
        <time>2025-09-09T15:11:39Z</time>
      </trkpt>
      <trkpt lat="45.86014" lon="4.38288">
        <ele>758.6</ele>
        <time>2025-09-09T15:11:40Z</time>
      </trkpt>
      <trkpt lat="45.86014" lon="4.38286">
        <ele>758.6</ele>
        <time>2025-09-09T15:11:41Z</time>
      </trkpt>
      <trkpt lat="45.86015" lon="4.38284">
        <ele>758.6</ele>
        <time>2025-09-09T15:11:42Z</time>
      </trkpt>
      <trkpt lat="45.86015" lon="4.38283">
        <ele>759</ele>
        <time>2025-09-09T15:11:43Z</time>
      </trkpt>
      <trkpt lat="45.86016" lon="4.38281">
        <ele>759.4</ele>
        <time>2025-09-09T15:11:44Z</time>
      </trkpt>
      <trkpt lat="45.86017" lon="4.38278">
        <ele>759.4</ele>
        <time>2025-09-09T15:11:45Z</time>
      </trkpt>
      <trkpt lat="45.86017" lon="4.38276">
        <ele>759.6</ele>
        <time>2025-09-09T15:11:46Z</time>
      </trkpt>
      <trkpt lat="45.86018" lon="4.38274">
        <ele>759.6</ele>
        <time>2025-09-09T15:11:47Z</time>
      </trkpt>
      <trkpt lat="45.86018" lon="4.38272">
        <ele>759.6</ele>
        <time>2025-09-09T15:11:48Z</time>
      </trkpt>
      <trkpt lat="45.86019" lon="4.3827">
        <ele>759.6</ele>
        <time>2025-09-09T15:11:49Z</time>
      </trkpt>
      <trkpt lat="45.86019" lon="4.38268">
        <ele>759.6</ele>
        <time>2025-09-09T15:11:50Z</time>
      </trkpt>
      <trkpt lat="45.86019" lon="4.38266">
        <ele>759.6</ele>
        <time>2025-09-09T15:11:51Z</time>
      </trkpt>
      <trkpt lat="45.86019" lon="4.38264">
        <ele>759.8</ele>
        <time>2025-09-09T15:11:52Z</time>
      </trkpt>
      <trkpt lat="45.86019" lon="4.38261">
        <ele>759.8</ele>
        <time>2025-09-09T15:11:53Z</time>
      </trkpt>
      <trkpt lat="45.86019" lon="4.38259">
        <ele>759.8</ele>
        <time>2025-09-09T15:11:54Z</time>
      </trkpt>
      <trkpt lat="45.86018" lon="4.38257">
        <ele>760.2</ele>
        <time>2025-09-09T15:11:55Z</time>
      </trkpt>
      <trkpt lat="45.86018" lon="4.38254">
        <ele>760.2</ele>
        <time>2025-09-09T15:11:56Z</time>
      </trkpt>
      <trkpt lat="45.86018" lon="4.38251">
        <ele>760.2</ele>
        <time>2025-09-09T15:11:57Z</time>
      </trkpt>
      <trkpt lat="45.86018" lon="4.38248">
        <ele>760.4</ele>
        <time>2025-09-09T15:11:58Z</time>
      </trkpt>
      <trkpt lat="45.86017" lon="4.38247">
        <ele>760.4</ele>
        <time>2025-09-09T15:11:59Z</time>
      </trkpt>
      <trkpt lat="45.86017" lon="4.38245">
        <ele>760.8</ele>
        <time>2025-09-09T15:12:00Z</time>
      </trkpt>
      <trkpt lat="45.86017" lon="4.38242">
        <ele>760.8</ele>
        <time>2025-09-09T15:12:01Z</time>
      </trkpt>
      <trkpt lat="45.86016" lon="4.3824">
        <ele>760.8</ele>
        <time>2025-09-09T15:12:02Z</time>
      </trkpt>
      <trkpt lat="45.86016" lon="4.38238">
        <ele>761</ele>
        <time>2025-09-09T15:12:03Z</time>
      </trkpt>
      <trkpt lat="45.86016" lon="4.38237">
        <ele>761</ele>
        <time>2025-09-09T15:12:04Z</time>
      </trkpt>
      <trkpt lat="45.86015" lon="4.38235">
        <ele>761</ele>
        <time>2025-09-09T15:12:05Z</time>
      </trkpt>
      <trkpt lat="45.86015" lon="4.38233">
        <ele>761.2</ele>
        <time>2025-09-09T15:12:06Z</time>
      </trkpt>
      <trkpt lat="45.86014" lon="4.38231">
        <ele>761.6</ele>
        <time>2025-09-09T15:12:07Z</time>
      </trkpt>
      <trkpt lat="45.86014" lon="4.3823">
        <ele>761.6</ele>
        <time>2025-09-09T15:12:08Z</time>
      </trkpt>
      <trkpt lat="45.86013" lon="4.38228">
        <ele>761.8</ele>
        <time>2025-09-09T15:12:09Z</time>
      </trkpt>
      <trkpt lat="45.86013" lon="4.38226">
        <ele>761.8</ele>
        <time>2025-09-09T15:12:10Z</time>
      </trkpt>
      <trkpt lat="45.86012" lon="4.38224">
        <ele>761.8</ele>
        <time>2025-09-09T15:12:11Z</time>
      </trkpt>
      <trkpt lat="45.86011" lon="4.38222">
        <ele>762.2</ele>
        <time>2025-09-09T15:12:12Z</time>
      </trkpt>
      <trkpt lat="45.8601" lon="4.38221">
        <ele>762.2</ele>
        <time>2025-09-09T15:12:13Z</time>
      </trkpt>
      <trkpt lat="45.86009" lon="4.38219">
        <ele>762.2</ele>
        <time>2025-09-09T15:12:14Z</time>
      </trkpt>
      <trkpt lat="45.86008" lon="4.38217">
        <ele>762.6</ele>
        <time>2025-09-09T15:12:15Z</time>
      </trkpt>
      <trkpt lat="45.86007" lon="4.38215">
        <ele>762.6</ele>
        <time>2025-09-09T15:12:16Z</time>
      </trkpt>
      <trkpt lat="45.86006" lon="4.38214">
        <ele>762.6</ele>
        <time>2025-09-09T15:12:17Z</time>
      </trkpt>
      <trkpt lat="45.86005" lon="4.38211">
        <ele>762.6</ele>
        <time>2025-09-09T15:12:18Z</time>
      </trkpt>
      <trkpt lat="45.86004" lon="4.3821">
        <ele>762.8</ele>
        <time>2025-09-09T15:12:19Z</time>
      </trkpt>
      <trkpt lat="45.86003" lon="4.38209">
        <ele>762.8</ele>
        <time>2025-09-09T15:12:20Z</time>
      </trkpt>
      <trkpt lat="45.86002" lon="4.38207">
        <ele>763.2</ele>
        <time>2025-09-09T15:12:21Z</time>
      </trkpt>
      <trkpt lat="45.86001" lon="4.38206">
        <ele>763.2</ele>
        <time>2025-09-09T15:12:22Z</time>
      </trkpt>
      <trkpt lat="45.86001" lon="4.38204">
        <ele>763.4</ele>
        <time>2025-09-09T15:12:23Z</time>
      </trkpt>
      <trkpt lat="45.86" lon="4.38202">
        <ele>763.4</ele>
        <time>2025-09-09T15:12:24Z</time>
      </trkpt>
      <trkpt lat="45.85999" lon="4.38201">
        <ele>763.6</ele>
        <time>2025-09-09T15:12:25Z</time>
      </trkpt>
      <trkpt lat="45.85998" lon="4.382">
        <ele>763.6</ele>
        <time>2025-09-09T15:12:26Z</time>
      </trkpt>
      <trkpt lat="45.85997" lon="4.38199">
        <ele>764</ele>
        <time>2025-09-09T15:12:27Z</time>
      </trkpt>
      <trkpt lat="45.85996" lon="4.38198">
        <ele>764</ele>
        <time>2025-09-09T15:12:28Z</time>
      </trkpt>
      <trkpt lat="45.85995" lon="4.38196">
        <ele>764</ele>
        <time>2025-09-09T15:12:29Z</time>
      </trkpt>
      <trkpt lat="45.85993" lon="4.38195">
        <ele>764</ele>
        <time>2025-09-09T15:12:30Z</time>
      </trkpt>
      <trkpt lat="45.85992" lon="4.38194">
        <ele>764</ele>
        <time>2025-09-09T15:12:31Z</time>
      </trkpt>
      <trkpt lat="45.85991" lon="4.38194">
        <ele>764.4</ele>
        <time>2025-09-09T15:12:32Z</time>
      </trkpt>
      <trkpt lat="45.8599" lon="4.38192">
        <ele>764.4</ele>
        <time>2025-09-09T15:12:33Z</time>
      </trkpt>
      <trkpt lat="45.85989" lon="4.38191">
        <ele>764.4</ele>
        <time>2025-09-09T15:12:34Z</time>
      </trkpt>
      <trkpt lat="45.85988" lon="4.38189">
        <ele>764.8</ele>
        <time>2025-09-09T15:12:35Z</time>
      </trkpt>
      <trkpt lat="45.85987" lon="4.38188">
        <ele>764.8</ele>
        <time>2025-09-09T15:12:36Z</time>
      </trkpt>
      <trkpt lat="45.85986" lon="4.38187">
        <ele>764.8</ele>
        <time>2025-09-09T15:12:37Z</time>
      </trkpt>
      <trkpt lat="45.85985" lon="4.38185">
        <ele>764.8</ele>
        <time>2025-09-09T15:12:38Z</time>
      </trkpt>
      <trkpt lat="45.85984" lon="4.38184">
        <ele>765</ele>
        <time>2025-09-09T15:12:39Z</time>
      </trkpt>
      <trkpt lat="45.85983" lon="4.38182">
        <ele>765</ele>
        <time>2025-09-09T15:12:40Z</time>
      </trkpt>
      <trkpt lat="45.85982" lon="4.38181">
        <ele>765.2</ele>
        <time>2025-09-09T15:12:41Z</time>
      </trkpt>
      <trkpt lat="45.85982" lon="4.38179">
        <ele>765.2</ele>
        <time>2025-09-09T15:12:42Z</time>
      </trkpt>
      <trkpt lat="45.8598" lon="4.38178">
        <ele>765.6</ele>
        <time>2025-09-09T15:12:43Z</time>
      </trkpt>
      <trkpt lat="45.85979" lon="4.38178">
        <ele>765.6</ele>
        <time>2025-09-09T15:12:44Z</time>
      </trkpt>
      <trkpt lat="45.85978" lon="4.38177">
        <ele>765.6</ele>
        <time>2025-09-09T15:12:45Z</time>
      </trkpt>
      <trkpt lat="45.85976" lon="4.38175">
        <ele>765.6</ele>
        <time>2025-09-09T15:12:46Z</time>
      </trkpt>
      <trkpt lat="45.85975" lon="4.38174">
        <ele>765.8</ele>
        <time>2025-09-09T15:12:47Z</time>
      </trkpt>
      <trkpt lat="45.85974" lon="4.38174">
        <ele>765.8</ele>
        <time>2025-09-09T15:12:48Z</time>
      </trkpt>
      <trkpt lat="45.85973" lon="4.38172">
        <ele>765.8</ele>
        <time>2025-09-09T15:12:49Z</time>
      </trkpt>
      <trkpt lat="45.85973" lon="4.38171">
        <ele>765.8</ele>
        <time>2025-09-09T15:12:50Z</time>
      </trkpt>
      <trkpt lat="45.85972" lon="4.3817">
        <ele>765.8</ele>
        <time>2025-09-09T15:12:51Z</time>
      </trkpt>
      <trkpt lat="45.85972" lon="4.3817">
        <ele>765.8</ele>
        <time>2025-09-09T15:12:52Z</time>
      </trkpt>
      <trkpt lat="45.85971" lon="4.3817">
        <ele>766.2</ele>
        <time>2025-09-09T15:12:53Z</time>
      </trkpt>
      <trkpt lat="45.85971" lon="4.3817">
        <ele>766.2</ele>
        <time>2025-09-09T15:12:54Z</time>
      </trkpt>
      <trkpt lat="45.8597" lon="4.3817">
        <ele>766.6</ele>
        <time>2025-09-09T15:12:55Z</time>
      </trkpt>
      <trkpt lat="45.8597" lon="4.38169">
        <ele>766.6</ele>
        <time>2025-09-09T15:12:56Z</time>
      </trkpt>
      <trkpt lat="45.85969" lon="4.38167">
        <ele>767</ele>
        <time>2025-09-09T15:12:57Z</time>
      </trkpt>
      <trkpt lat="45.85968" lon="4.38165">
        <ele>767</ele>
        <time>2025-09-09T15:12:58Z</time>
      </trkpt>
      <trkpt lat="45.85967" lon="4.38163">
        <ele>767.2</ele>
        <time>2025-09-09T15:12:59Z</time>
      </trkpt>
      <trkpt lat="45.85966" lon="4.38161">
        <ele>767.2</ele>
        <time>2025-09-09T15:13:00Z</time>
      </trkpt>
      <trkpt lat="45.85965" lon="4.38159">
        <ele>767.2</ele>
        <time>2025-09-09T15:13:01Z</time>
      </trkpt>
      <trkpt lat="45.85964" lon="4.38157">
        <ele>767.2</ele>
        <time>2025-09-09T15:13:02Z</time>
      </trkpt>
      <trkpt lat="45.85963" lon="4.38154">
        <ele>767.4</ele>
        <time>2025-09-09T15:13:03Z</time>
      </trkpt>
      <trkpt lat="45.85963" lon="4.38152">
        <ele>767.4</ele>
        <time>2025-09-09T15:13:04Z</time>
      </trkpt>
      <trkpt lat="45.85962" lon="4.3815">
        <ele>767.4</ele>
        <time>2025-09-09T15:13:05Z</time>
      </trkpt>
      <trkpt lat="45.85962" lon="4.38148">
        <ele>767.8</ele>
        <time>2025-09-09T15:13:06Z</time>
      </trkpt>
      <trkpt lat="45.85961" lon="4.38146">
        <ele>767.8</ele>
        <time>2025-09-09T15:13:07Z</time>
      </trkpt>
      <trkpt lat="45.85961" lon="4.38144">
        <ele>768</ele>
        <time>2025-09-09T15:13:08Z</time>
      </trkpt>
      <trkpt lat="45.8596" lon="4.38141">
        <ele>768</ele>
        <time>2025-09-09T15:13:09Z</time>
      </trkpt>
      <trkpt lat="45.85959" lon="4.38138">
        <ele>768</ele>
        <time>2025-09-09T15:13:10Z</time>
      </trkpt>
      <trkpt lat="45.85958" lon="4.38136">
        <ele>768.4</ele>
        <time>2025-09-09T15:13:11Z</time>
      </trkpt>
      <trkpt lat="45.85957" lon="4.38135">
        <ele>768.4</ele>
        <time>2025-09-09T15:13:12Z</time>
      </trkpt>
      <trkpt lat="45.85955" lon="4.38133">
        <ele>768.4</ele>
        <time>2025-09-09T15:13:13Z</time>
      </trkpt>
      <trkpt lat="45.85954" lon="4.38133">
        <ele>768.6</ele>
        <time>2025-09-09T15:13:14Z</time>
      </trkpt>
      <trkpt lat="45.85953" lon="4.38132">
        <ele>768.6</ele>
        <time>2025-09-09T15:13:15Z</time>
      </trkpt>
      <trkpt lat="45.85951" lon="4.3813">
        <ele>768.8</ele>
        <time>2025-09-09T15:13:16Z</time>
      </trkpt>
      <trkpt lat="45.8595" lon="4.38127">
        <ele>768.8</ele>
        <time>2025-09-09T15:13:17Z</time>
      </trkpt>
      <trkpt lat="45.85949" lon="4.38124">
        <ele>768.8</ele>
        <time>2025-09-09T15:13:18Z</time>
      </trkpt>
      <trkpt lat="45.85948" lon="4.38122">
        <ele>769</ele>
        <time>2025-09-09T15:13:19Z</time>
      </trkpt>
      <trkpt lat="45.85947" lon="4.38121">
        <ele>769</ele>
        <time>2025-09-09T15:13:20Z</time>
      </trkpt>
      <trkpt lat="45.85946" lon="4.38119">
        <ele>769</ele>
        <time>2025-09-09T15:13:21Z</time>
      </trkpt>
      <trkpt lat="45.85946" lon="4.38118">
        <ele>769</ele>
        <time>2025-09-09T15:13:22Z</time>
      </trkpt>
      <trkpt lat="45.85944" lon="4.38116">
        <ele>769.4</ele>
        <time>2025-09-09T15:13:23Z</time>
      </trkpt>
      <trkpt lat="45.85943" lon="4.38115">
        <ele>769.4</ele>
        <time>2025-09-09T15:13:24Z</time>
      </trkpt>
      <trkpt lat="45.85941" lon="4.38114">
        <ele>769.4</ele>
        <time>2025-09-09T15:13:25Z</time>
      </trkpt>
      <trkpt lat="45.85939" lon="4.38112">
        <ele>769.4</ele>
        <time>2025-09-09T15:13:26Z</time>
      </trkpt>
      <trkpt lat="45.85938" lon="4.3811">
        <ele>769.4</ele>
        <time>2025-09-09T15:13:27Z</time>
      </trkpt>
      <trkpt lat="45.85937" lon="4.38109">
        <ele>769.4</ele>
        <time>2025-09-09T15:13:28Z</time>
      </trkpt>
      <trkpt lat="45.85936" lon="4.38108">
        <ele>769.6</ele>
        <time>2025-09-09T15:13:29Z</time>
      </trkpt>
      <trkpt lat="45.85935" lon="4.38105">
        <ele>769.6</ele>
        <time>2025-09-09T15:13:30Z</time>
      </trkpt>
      <trkpt lat="45.85934" lon="4.38103">
        <ele>770</ele>
        <time>2025-09-09T15:13:31Z</time>
      </trkpt>
      <trkpt lat="45.85934" lon="4.38101">
        <ele>770</ele>
        <time>2025-09-09T15:13:32Z</time>
      </trkpt>
      <trkpt lat="45.85934" lon="4.38099">
        <ele>770</ele>
        <time>2025-09-09T15:13:33Z</time>
      </trkpt>
      <trkpt lat="45.85934" lon="4.38098">
        <ele>770.4</ele>
        <time>2025-09-09T15:13:34Z</time>
      </trkpt>
      <trkpt lat="45.85934" lon="4.38097">
        <ele>770.4</ele>
        <time>2025-09-09T15:13:35Z</time>
      </trkpt>
      <trkpt lat="45.85934" lon="4.38095">
        <ele>770.6</ele>
        <time>2025-09-09T15:13:36Z</time>
      </trkpt>
      <trkpt lat="45.85934" lon="4.38091">
        <ele>770.6</ele>
        <time>2025-09-09T15:13:37Z</time>
      </trkpt>
      <trkpt lat="45.85933" lon="4.3809">
        <ele>770.6</ele>
        <time>2025-09-09T15:13:38Z</time>
      </trkpt>
      <trkpt lat="45.85931" lon="4.38088">
        <ele>770.8</ele>
        <time>2025-09-09T15:13:39Z</time>
      </trkpt>
      <trkpt lat="45.8593" lon="4.38086">
        <ele>770.8</ele>
        <time>2025-09-09T15:13:40Z</time>
      </trkpt>
      <trkpt lat="45.8593" lon="4.38085">
        <ele>771</ele>
        <time>2025-09-09T15:13:41Z</time>
      </trkpt>
      <trkpt lat="45.85929" lon="4.38083">
        <ele>771</ele>
        <time>2025-09-09T15:13:42Z</time>
      </trkpt>
      <trkpt lat="45.85929" lon="4.38081">
        <ele>771</ele>
        <time>2025-09-09T15:13:43Z</time>
      </trkpt>
      <trkpt lat="45.85929" lon="4.38079">
        <ele>771.4</ele>
        <time>2025-09-09T15:13:44Z</time>
      </trkpt>
      <trkpt lat="45.8593" lon="4.38077">
        <ele>771.4</ele>
        <time>2025-09-09T15:13:45Z</time>
      </trkpt>
      <trkpt lat="45.8593" lon="4.38075">
        <ele>771.6</ele>
        <time>2025-09-09T15:13:46Z</time>
      </trkpt>
      <trkpt lat="45.85931" lon="4.38073">
        <ele>771.6</ele>
        <time>2025-09-09T15:13:47Z</time>
      </trkpt>
      <trkpt lat="45.85932" lon="4.3807">
        <ele>772</ele>
        <time>2025-09-09T15:13:48Z</time>
      </trkpt>
      <trkpt lat="45.85932" lon="4.38069">
        <ele>772.2</ele>
        <time>2025-09-09T15:13:49Z</time>
      </trkpt>
      <trkpt lat="45.85931" lon="4.38068">
        <ele>772.2</ele>
        <time>2025-09-09T15:13:50Z</time>
      </trkpt>
      <trkpt lat="45.85931" lon="4.38065">
        <ele>772.2</ele>
        <time>2025-09-09T15:13:51Z</time>
      </trkpt>
      <trkpt lat="45.8593" lon="4.38062">
        <ele>772.2</ele>
        <time>2025-09-09T15:13:52Z</time>
      </trkpt>
      <trkpt lat="45.8593" lon="4.38059">
        <ele>772</ele>
        <time>2025-09-09T15:13:53Z</time>
      </trkpt>
      <trkpt lat="45.8593" lon="4.38056">
        <ele>771.4</ele>
        <time>2025-09-09T15:13:54Z</time>
      </trkpt>
      <trkpt lat="45.8593" lon="4.38055">
        <ele>771.8</ele>
        <time>2025-09-09T15:13:55Z</time>
      </trkpt>
      <trkpt lat="45.8593" lon="4.38054">
        <ele>771.8</ele>
        <time>2025-09-09T15:13:56Z</time>
      </trkpt>
      <trkpt lat="45.85929" lon="4.38051">
        <ele>771.8</ele>
        <time>2025-09-09T15:13:57Z</time>
      </trkpt>
      <trkpt lat="45.85929" lon="4.38049">
        <ele>772.2</ele>
        <time>2025-09-09T15:13:58Z</time>
      </trkpt>
      <trkpt lat="45.85929" lon="4.38048">
        <ele>772.2</ele>
        <time>2025-09-09T15:13:59Z</time>
      </trkpt>
      <trkpt lat="45.85929" lon="4.38047">
        <ele>772.2</ele>
        <time>2025-09-09T15:14:00Z</time>
      </trkpt>
      <trkpt lat="45.85928" lon="4.38045">
        <ele>772.2</ele>
        <time>2025-09-09T15:14:01Z</time>
      </trkpt>
      <trkpt lat="45.85928" lon="4.38043">
        <ele>772.4</ele>
        <time>2025-09-09T15:14:02Z</time>
      </trkpt>
      <trkpt lat="45.85927" lon="4.38041">
        <ele>772.4</ele>
        <time>2025-09-09T15:14:03Z</time>
      </trkpt>
      <trkpt lat="45.85927" lon="4.38039">
        <ele>772.4</ele>
        <time>2025-09-09T15:14:04Z</time>
      </trkpt>
      <trkpt lat="45.85927" lon="4.38036">
        <ele>772.6</ele>
        <time>2025-09-09T15:14:05Z</time>
      </trkpt>
      <trkpt lat="45.85927" lon="4.38033">
        <ele>773.2</ele>
        <time>2025-09-09T15:14:06Z</time>
      </trkpt>
      <trkpt lat="45.85927" lon="4.38031">
        <ele>773.2</ele>
        <time>2025-09-09T15:14:07Z</time>
      </trkpt>
      <trkpt lat="45.85926" lon="4.38029">
        <ele>773.4</ele>
        <time>2025-09-09T15:14:08Z</time>
      </trkpt>
      <trkpt lat="45.85926" lon="4.38027">
        <ele>773</ele>
        <time>2025-09-09T15:14:09Z</time>
      </trkpt>
      <trkpt lat="45.85926" lon="4.38025">
        <ele>773.8</ele>
        <time>2025-09-09T15:14:10Z</time>
      </trkpt>
      <trkpt lat="45.85926" lon="4.38025">
        <ele>774</ele>
        <time>2025-09-09T15:14:11Z</time>
      </trkpt>
      <trkpt lat="45.85925" lon="4.38023">
        <ele>774</ele>
        <time>2025-09-09T15:14:12Z</time>
      </trkpt>
      <trkpt lat="45.85923" lon="4.3802">
        <ele>774</ele>
        <time>2025-09-09T15:14:13Z</time>
      </trkpt>
      <trkpt lat="45.85922" lon="4.38018">
        <ele>774</ele>
        <time>2025-09-09T15:14:14Z</time>
      </trkpt>
      <trkpt lat="45.85922" lon="4.38017">
        <ele>774</ele>
        <time>2025-09-09T15:14:15Z</time>
      </trkpt>
      <trkpt lat="45.85922" lon="4.38014">
        <ele>774</ele>
        <time>2025-09-09T15:14:16Z</time>
      </trkpt>
      <trkpt lat="45.85921" lon="4.38012">
        <ele>774</ele>
        <time>2025-09-09T15:14:17Z</time>
      </trkpt>
      <trkpt lat="45.85921" lon="4.3801">
        <ele>774.4</ele>
        <time>2025-09-09T15:14:18Z</time>
      </trkpt>
      <trkpt lat="45.85921" lon="4.38008">
        <ele>774.4</ele>
        <time>2025-09-09T15:14:19Z</time>
      </trkpt>
      <trkpt lat="45.85921" lon="4.38006">
        <ele>774.4</ele>
        <time>2025-09-09T15:14:20Z</time>
      </trkpt>
      <trkpt lat="45.85921" lon="4.38005">
        <ele>774.4</ele>
        <time>2025-09-09T15:14:21Z</time>
      </trkpt>
      <trkpt lat="45.85921" lon="4.38003">
        <ele>774.4</ele>
        <time>2025-09-09T15:14:22Z</time>
      </trkpt>
      <trkpt lat="45.8592" lon="4.38001">
        <ele>774.4</ele>
        <time>2025-09-09T15:14:23Z</time>
      </trkpt>
      <trkpt lat="45.85919" lon="4.37999">
        <ele>774.4</ele>
        <time>2025-09-09T15:14:24Z</time>
      </trkpt>
      <trkpt lat="45.85918" lon="4.37997">
        <ele>774.6</ele>
        <time>2025-09-09T15:14:25Z</time>
      </trkpt>
      <trkpt lat="45.85917" lon="4.37994">
        <ele>775</ele>
        <time>2025-09-09T15:14:26Z</time>
      </trkpt>
      <trkpt lat="45.85917" lon="4.37994">
        <ele>775</ele>
        <time>2025-09-09T15:14:27Z</time>
      </trkpt>
      <trkpt lat="45.85917" lon="4.37991">
        <ele>775.4</ele>
        <time>2025-09-09T15:14:28Z</time>
      </trkpt>
      <trkpt lat="45.85917" lon="4.37989">
        <ele>775.4</ele>
        <time>2025-09-09T15:14:29Z</time>
      </trkpt>
      <trkpt lat="45.85917" lon="4.37987">
        <ele>775.4</ele>
        <time>2025-09-09T15:14:30Z</time>
      </trkpt>
      <trkpt lat="45.85917" lon="4.37985">
        <ele>775.6</ele>
        <time>2025-09-09T15:14:31Z</time>
      </trkpt>
      <trkpt lat="45.85916" lon="4.37982">
        <ele>775.6</ele>
        <time>2025-09-09T15:14:32Z</time>
      </trkpt>
      <trkpt lat="45.85916" lon="4.37979">
        <ele>775.6</ele>
        <time>2025-09-09T15:14:33Z</time>
      </trkpt>
      <trkpt lat="45.85916" lon="4.37976">
        <ele>775.6</ele>
        <time>2025-09-09T15:14:34Z</time>
      </trkpt>
      <trkpt lat="45.85916" lon="4.37974">
        <ele>776</ele>
        <time>2025-09-09T15:14:35Z</time>
      </trkpt>
      <trkpt lat="45.85916" lon="4.37974">
        <ele>776</ele>
        <time>2025-09-09T15:14:36Z</time>
      </trkpt>
      <trkpt lat="45.85917" lon="4.37968">
        <ele>776.8</ele>
        <time>2025-09-09T15:15:58Z</time>
      </trkpt>
      <trkpt lat="45.85918" lon="4.37965">
        <ele>776.8</ele>
        <time>2025-09-09T15:15:59Z</time>
      </trkpt>
      <trkpt lat="45.85918" lon="4.37965">
        <ele>776.8</ele>
        <time>2025-09-09T15:16:00Z</time>
      </trkpt>
      <trkpt lat="45.85918" lon="4.37965">
        <ele>776.8</ele>
        <time>2025-09-09T15:16:01Z</time>
      </trkpt>
      <trkpt lat="45.85918" lon="4.37952">
        <ele>776.8</ele>
        <time>2025-09-09T15:16:03Z</time>
      </trkpt>
      <trkpt lat="45.85919" lon="4.37949">
        <ele>777</ele>
        <time>2025-09-09T15:16:04Z</time>
      </trkpt>
      <trkpt lat="45.85919" lon="4.37947">
        <ele>777</ele>
        <time>2025-09-09T15:16:05Z</time>
      </trkpt>
      <trkpt lat="45.8592" lon="4.37945">
        <ele>777</ele>
        <time>2025-09-09T15:16:06Z</time>
      </trkpt>
      <trkpt lat="45.8592" lon="4.37942">
        <ele>777.4</ele>
        <time>2025-09-09T15:16:07Z</time>
      </trkpt>
      <trkpt lat="45.8592" lon="4.3794">
        <ele>777.6</ele>
        <time>2025-09-09T15:16:08Z</time>
      </trkpt>
      <trkpt lat="45.8592" lon="4.37938">
        <ele>777.6</ele>
        <time>2025-09-09T15:16:09Z</time>
      </trkpt>
      <trkpt lat="45.85921" lon="4.37936">
        <ele>777.8</ele>
        <time>2025-09-09T15:16:10Z</time>
      </trkpt>
      <trkpt lat="45.85922" lon="4.37934">
        <ele>777.8</ele>
        <time>2025-09-09T15:16:11Z</time>
      </trkpt>
      <trkpt lat="45.85922" lon="4.37931">
        <ele>778</ele>
        <time>2025-09-09T15:16:12Z</time>
      </trkpt>
      <trkpt lat="45.85922" lon="4.37928">
        <ele>778</ele>
        <time>2025-09-09T15:16:13Z</time>
      </trkpt>
      <trkpt lat="45.85922" lon="4.37926">
        <ele>778.4</ele>
        <time>2025-09-09T15:16:14Z</time>
      </trkpt>
      <trkpt lat="45.85922" lon="4.37924">
        <ele>778.6</ele>
        <time>2025-09-09T15:16:15Z</time>
      </trkpt>
      <trkpt lat="45.85923" lon="4.37923">
        <ele>778.6</ele>
        <time>2025-09-09T15:16:16Z</time>
      </trkpt>
      <trkpt lat="45.85923" lon="4.37921">
        <ele>778.6</ele>
        <time>2025-09-09T15:16:17Z</time>
      </trkpt>
      <trkpt lat="45.85924" lon="4.37918">
        <ele>779</ele>
        <time>2025-09-09T15:16:18Z</time>
      </trkpt>
      <trkpt lat="45.85925" lon="4.37915">
        <ele>779</ele>
        <time>2025-09-09T15:16:19Z</time>
      </trkpt>
      <trkpt lat="45.85926" lon="4.37912">
        <ele>779.2</ele>
        <time>2025-09-09T15:16:20Z</time>
      </trkpt>
      <trkpt lat="45.85927" lon="4.3791">
        <ele>779.2</ele>
        <time>2025-09-09T15:16:21Z</time>
      </trkpt>
      <trkpt lat="45.85928" lon="4.37908">
        <ele>779.2</ele>
        <time>2025-09-09T15:16:22Z</time>
      </trkpt>
      <trkpt lat="45.8593" lon="4.37905">
        <ele>779.6</ele>
        <time>2025-09-09T15:16:23Z</time>
      </trkpt>
      <trkpt lat="45.85931" lon="4.37903">
        <ele>779.8</ele>
        <time>2025-09-09T15:16:24Z</time>
      </trkpt>
      <trkpt lat="45.85932" lon="4.37902">
        <ele>779.8</ele>
        <time>2025-09-09T15:16:25Z</time>
      </trkpt>
      <trkpt lat="45.85932" lon="4.37901">
        <ele>780</ele>
        <time>2025-09-09T15:16:26Z</time>
      </trkpt>
      <trkpt lat="45.85933" lon="4.37898">
        <ele>780</ele>
        <time>2025-09-09T15:16:27Z</time>
      </trkpt>
      <trkpt lat="45.85933" lon="4.37895">
        <ele>780.2</ele>
        <time>2025-09-09T15:16:28Z</time>
      </trkpt>
      <trkpt lat="45.85934" lon="4.37893">
        <ele>780.2</ele>
        <time>2025-09-09T15:16:29Z</time>
      </trkpt>
      <trkpt lat="45.85934" lon="4.37892">
        <ele>780.4</ele>
        <time>2025-09-09T15:16:30Z</time>
      </trkpt>
      <trkpt lat="45.85935" lon="4.37891">
        <ele>780.4</ele>
        <time>2025-09-09T15:16:31Z</time>
      </trkpt>
      <trkpt lat="45.85936" lon="4.3789">
        <ele>780.4</ele>
        <time>2025-09-09T15:16:32Z</time>
      </trkpt>
      <trkpt lat="45.85938" lon="4.37889">
        <ele>780.8</ele>
        <time>2025-09-09T15:16:33Z</time>
      </trkpt>
      <trkpt lat="45.85939" lon="4.37887">
        <ele>780.8</ele>
        <time>2025-09-09T15:16:34Z</time>
      </trkpt>
      <trkpt lat="45.85941" lon="4.37887">
        <ele>781</ele>
        <time>2025-09-09T15:16:35Z</time>
      </trkpt>
      <trkpt lat="45.85943" lon="4.37886">
        <ele>781</ele>
        <time>2025-09-09T15:16:36Z</time>
      </trkpt>
      <trkpt lat="45.85945" lon="4.37884">
        <ele>781</ele>
        <time>2025-09-09T15:16:37Z</time>
      </trkpt>
      <trkpt lat="45.85949" lon="4.37883">
        <ele>781.4</ele>
        <time>2025-09-09T15:16:38Z</time>
      </trkpt>
      <trkpt lat="45.8595" lon="4.37882">
        <ele>781.4</ele>
        <time>2025-09-09T15:16:39Z</time>
      </trkpt>
      <trkpt lat="45.85952" lon="4.3788">
        <ele>781.8</ele>
        <time>2025-09-09T15:16:40Z</time>
      </trkpt>
      <trkpt lat="45.85953" lon="4.37879">
        <ele>781.8</ele>
        <time>2025-09-09T15:16:41Z</time>
      </trkpt>
      <trkpt lat="45.85955" lon="4.37878">
        <ele>782.2</ele>
        <time>2025-09-09T15:16:42Z</time>
      </trkpt>
      <trkpt lat="45.85955" lon="4.37877">
        <ele>782.4</ele>
        <time>2025-09-09T15:16:43Z</time>
      </trkpt>
      <trkpt lat="45.85957" lon="4.37877">
        <ele>782.4</ele>
        <time>2025-09-09T15:16:44Z</time>
      </trkpt>
      <trkpt lat="45.85959" lon="4.37876">
        <ele>782.6</ele>
        <time>2025-09-09T15:16:45Z</time>
      </trkpt>
      <trkpt lat="45.8596" lon="4.37875">
        <ele>783</ele>
        <time>2025-09-09T15:16:46Z</time>
      </trkpt>
      <trkpt lat="45.85962" lon="4.37873">
        <ele>783</ele>
        <time>2025-09-09T15:16:47Z</time>
      </trkpt>
      <trkpt lat="45.85964" lon="4.37871">
        <ele>783.2</ele>
        <time>2025-09-09T15:16:48Z</time>
      </trkpt>
      <trkpt lat="45.85966" lon="4.37869">
        <ele>783.2</ele>
        <time>2025-09-09T15:16:49Z</time>
      </trkpt>
      <trkpt lat="45.85967" lon="4.37869">
        <ele>783.2</ele>
        <time>2025-09-09T15:16:50Z</time>
      </trkpt>
      <trkpt lat="45.85969" lon="4.37867">
        <ele>783.2</ele>
        <time>2025-09-09T15:16:51Z</time>
      </trkpt>
      <trkpt lat="45.8597" lon="4.37867">
        <ele>783.6</ele>
        <time>2025-09-09T15:16:52Z</time>
      </trkpt>
      <trkpt lat="45.85972" lon="4.37866">
        <ele>783.6</ele>
        <time>2025-09-09T15:16:53Z</time>
      </trkpt>
      <trkpt lat="45.85974" lon="4.37865">
        <ele>783.6</ele>
        <time>2025-09-09T15:16:54Z</time>
      </trkpt>
      <trkpt lat="45.85976" lon="4.37863">
        <ele>783.6</ele>
        <time>2025-09-09T15:16:55Z</time>
      </trkpt>
      <trkpt lat="45.85977" lon="4.37862">
        <ele>784</ele>
        <time>2025-09-09T15:16:56Z</time>
      </trkpt>
      <trkpt lat="45.85979" lon="4.37861">
        <ele>784</ele>
        <time>2025-09-09T15:16:57Z</time>
      </trkpt>
      <trkpt lat="45.85981" lon="4.3786">
        <ele>784.4</ele>
        <time>2025-09-09T15:16:58Z</time>
      </trkpt>
      <trkpt lat="45.85982" lon="4.37859">
        <ele>784.4</ele>
        <time>2025-09-09T15:16:59Z</time>
      </trkpt>
      <trkpt lat="45.85983" lon="4.37857">
        <ele>784.4</ele>
        <time>2025-09-09T15:17:00Z</time>
      </trkpt>
      <trkpt lat="45.85984" lon="4.37854">
        <ele>784.4</ele>
        <time>2025-09-09T15:17:01Z</time>
      </trkpt>
      <trkpt lat="45.85986" lon="4.37853">
        <ele>784.4</ele>
        <time>2025-09-09T15:17:02Z</time>
      </trkpt>
      <trkpt lat="45.85987" lon="4.37851">
        <ele>784.4</ele>
        <time>2025-09-09T15:17:03Z</time>
      </trkpt>
      <trkpt lat="45.85988" lon="4.3785">
        <ele>784.6</ele>
        <time>2025-09-09T15:17:04Z</time>
      </trkpt>
      <trkpt lat="45.85988" lon="4.3785">
        <ele>784.6</ele>
        <time>2025-09-09T15:17:05Z</time>
      </trkpt>
      <trkpt lat="45.85989" lon="4.37848">
        <ele>784.6</ele>
        <time>2025-09-09T15:17:06Z</time>
      </trkpt>
      <trkpt lat="45.8599" lon="4.37847">
        <ele>784.8</ele>
        <time>2025-09-09T15:17:07Z</time>
      </trkpt>
      <trkpt lat="45.85991" lon="4.37844">
        <ele>784.8</ele>
        <time>2025-09-09T15:17:08Z</time>
      </trkpt>
      <trkpt lat="45.85992" lon="4.37841">
        <ele>785.2</ele>
        <time>2025-09-09T15:17:09Z</time>
      </trkpt>
      <trkpt lat="45.85993" lon="4.37838">
        <ele>785.6</ele>
        <time>2025-09-09T15:17:10Z</time>
      </trkpt>
      <trkpt lat="45.85994" lon="4.37836">
        <ele>785.6</ele>
        <time>2025-09-09T15:17:11Z</time>
      </trkpt>
      <trkpt lat="45.85995" lon="4.37835">
        <ele>785.6</ele>
        <time>2025-09-09T15:17:12Z</time>
      </trkpt>
      <trkpt lat="45.85996" lon="4.37833">
        <ele>785.6</ele>
        <time>2025-09-09T15:17:13Z</time>
      </trkpt>
      <trkpt lat="45.85997" lon="4.37831">
        <ele>786</ele>
        <time>2025-09-09T15:17:14Z</time>
      </trkpt>
      <trkpt lat="45.85998" lon="4.37828">
        <ele>786</ele>
        <time>2025-09-09T15:17:15Z</time>
      </trkpt>
      <trkpt lat="45.85999" lon="4.37826">
        <ele>786</ele>
        <time>2025-09-09T15:17:16Z</time>
      </trkpt>
      <trkpt lat="45.86" lon="4.37824">
        <ele>786.4</ele>
        <time>2025-09-09T15:17:17Z</time>
      </trkpt>
      <trkpt lat="45.86" lon="4.37822">
        <ele>786.4</ele>
        <time>2025-09-09T15:17:18Z</time>
      </trkpt>
      <trkpt lat="45.86001" lon="4.3782">
        <ele>786.4</ele>
        <time>2025-09-09T15:17:19Z</time>
      </trkpt>
      <trkpt lat="45.86001" lon="4.37817">
        <ele>786.4</ele>
        <time>2025-09-09T15:17:20Z</time>
      </trkpt>
      <trkpt lat="45.86001" lon="4.37815">
        <ele>786.6</ele>
        <time>2025-09-09T15:17:21Z</time>
      </trkpt>
      <trkpt lat="45.86001" lon="4.37815">
        <ele>786.6</ele>
        <time>2025-09-09T15:17:22Z</time>
      </trkpt>
      <trkpt lat="45.86001" lon="4.37813">
        <ele>786.6</ele>
        <time>2025-09-09T15:17:23Z</time>
      </trkpt>
      <trkpt lat="45.86001" lon="4.37811">
        <ele>787</ele>
        <time>2025-09-09T15:17:24Z</time>
      </trkpt>
      <trkpt lat="45.86001" lon="4.37809">
        <ele>787</ele>
        <time>2025-09-09T15:17:25Z</time>
      </trkpt>
      <trkpt lat="45.86001" lon="4.37806">
        <ele>787</ele>
        <time>2025-09-09T15:17:26Z</time>
      </trkpt>
      <trkpt lat="45.86001" lon="4.37804">
        <ele>787.2</ele>
        <time>2025-09-09T15:17:27Z</time>
      </trkpt>
      <trkpt lat="45.86002" lon="4.37802">
        <ele>787.6</ele>
        <time>2025-09-09T15:17:28Z</time>
      </trkpt>
      <trkpt lat="45.86002" lon="4.378">
        <ele>787.6</ele>
        <time>2025-09-09T15:17:29Z</time>
      </trkpt>
      <trkpt lat="45.86001" lon="4.37797">
        <ele>787.8</ele>
        <time>2025-09-09T15:17:30Z</time>
      </trkpt>
      <trkpt lat="45.86001" lon="4.37794">
        <ele>787.8</ele>
        <time>2025-09-09T15:17:31Z</time>
      </trkpt>
      <trkpt lat="45.86" lon="4.37791">
        <ele>787.8</ele>
        <time>2025-09-09T15:17:32Z</time>
      </trkpt>
      <trkpt lat="45.86" lon="4.37789">
        <ele>788.2</ele>
        <time>2025-09-09T15:17:33Z</time>
      </trkpt>
      <trkpt lat="45.85999" lon="4.37787">
        <ele>788.2</ele>
        <time>2025-09-09T15:17:34Z</time>
      </trkpt>
      <trkpt lat="45.85999" lon="4.37785">
        <ele>788.2</ele>
        <time>2025-09-09T15:17:35Z</time>
      </trkpt>
      <trkpt lat="45.85999" lon="4.37783">
        <ele>788.8</ele>
        <time>2025-09-09T15:17:36Z</time>
      </trkpt>
      <trkpt lat="45.85999" lon="4.37781">
        <ele>788.8</ele>
        <time>2025-09-09T15:17:37Z</time>
      </trkpt>
      <trkpt lat="45.85998" lon="4.37779">
        <ele>788.8</ele>
        <time>2025-09-09T15:17:38Z</time>
      </trkpt>
      <trkpt lat="45.85997" lon="4.37776">
        <ele>788.8</ele>
        <time>2025-09-09T15:17:39Z</time>
      </trkpt>
      <trkpt lat="45.85996" lon="4.37775">
        <ele>788.8</ele>
        <time>2025-09-09T15:17:40Z</time>
      </trkpt>
      <trkpt lat="45.85994" lon="4.37774">
        <ele>788.8</ele>
        <time>2025-09-09T15:17:41Z</time>
      </trkpt>
      <trkpt lat="45.85994" lon="4.37773">
        <ele>788.8</ele>
        <time>2025-09-09T15:17:42Z</time>
      </trkpt>
      <trkpt lat="45.85993" lon="4.37771">
        <ele>788.8</ele>
        <time>2025-09-09T15:17:43Z</time>
      </trkpt>
      <trkpt lat="45.85993" lon="4.37769">
        <ele>789</ele>
        <time>2025-09-09T15:17:44Z</time>
      </trkpt>
      <trkpt lat="45.85993" lon="4.37767">
        <ele>789</ele>
        <time>2025-09-09T15:17:45Z</time>
      </trkpt>
      <trkpt lat="45.85992" lon="4.37766">
        <ele>789</ele>
        <time>2025-09-09T15:17:46Z</time>
      </trkpt>
      <trkpt lat="45.85992" lon="4.37764">
        <ele>789.4</ele>
        <time>2025-09-09T15:17:47Z</time>
      </trkpt>
      <trkpt lat="45.85991" lon="4.37763">
        <ele>789.6</ele>
        <time>2025-09-09T15:17:48Z</time>
      </trkpt>
      <trkpt lat="45.8599" lon="4.37762">
        <ele>789.6</ele>
        <time>2025-09-09T15:17:49Z</time>
      </trkpt>
      <trkpt lat="45.85989" lon="4.3776">
        <ele>789.6</ele>
        <time>2025-09-09T15:17:50Z</time>
      </trkpt>
      <trkpt lat="45.85988" lon="4.37758">
        <ele>789.6</ele>
        <time>2025-09-09T15:17:51Z</time>
      </trkpt>
      <trkpt lat="45.85987" lon="4.37755">
        <ele>789.8</ele>
        <time>2025-09-09T15:17:52Z</time>
      </trkpt>
      <trkpt lat="45.85987" lon="4.37754">
        <ele>789.8</ele>
        <time>2025-09-09T15:17:53Z</time>
      </trkpt>
      <trkpt lat="45.85987" lon="4.37752">
        <ele>789.8</ele>
        <time>2025-09-09T15:17:54Z</time>
      </trkpt>
      <trkpt lat="45.85987" lon="4.3775">
        <ele>789.8</ele>
        <time>2025-09-09T15:17:55Z</time>
      </trkpt>
      <trkpt lat="45.85988" lon="4.37748">
        <ele>789.8</ele>
        <time>2025-09-09T15:17:56Z</time>
      </trkpt>
      <trkpt lat="45.85987" lon="4.37745">
        <ele>790.2</ele>
        <time>2025-09-09T15:17:57Z</time>
      </trkpt>
      <trkpt lat="45.85987" lon="4.37743">
        <ele>790.2</ele>
        <time>2025-09-09T15:17:58Z</time>
      </trkpt>
      <trkpt lat="45.85986" lon="4.37742">
        <ele>790.2</ele>
        <time>2025-09-09T15:17:59Z</time>
      </trkpt>
      <trkpt lat="45.85987" lon="4.3774">
        <ele>790.2</ele>
        <time>2025-09-09T15:18:00Z</time>
      </trkpt>
      <trkpt lat="45.85987" lon="4.37739">
        <ele>790.6</ele>
        <time>2025-09-09T15:18:01Z</time>
      </trkpt>
      <trkpt lat="45.85988" lon="4.37737">
        <ele>790.8</ele>
        <time>2025-09-09T15:18:02Z</time>
      </trkpt>
      <trkpt lat="45.85987" lon="4.37735">
        <ele>790.8</ele>
        <time>2025-09-09T15:18:03Z</time>
      </trkpt>
      <trkpt lat="45.85987" lon="4.37733">
        <ele>790.8</ele>
        <time>2025-09-09T15:18:04Z</time>
      </trkpt>
      <trkpt lat="45.85986" lon="4.37731">
        <ele>791.2</ele>
        <time>2025-09-09T15:18:05Z</time>
      </trkpt>
      <trkpt lat="45.85986" lon="4.3773">
        <ele>791.2</ele>
        <time>2025-09-09T15:18:06Z</time>
      </trkpt>
      <trkpt lat="45.85985" lon="4.37729">
        <ele>791.4</ele>
        <time>2025-09-09T15:18:07Z</time>
      </trkpt>
      <trkpt lat="45.85984" lon="4.37727">
        <ele>791.4</ele>
        <time>2025-09-09T15:18:08Z</time>
      </trkpt>
      <trkpt lat="45.85984" lon="4.37725">
        <ele>791.8</ele>
        <time>2025-09-09T15:18:09Z</time>
      </trkpt>
      <trkpt lat="45.85984" lon="4.37722">
        <ele>791.8</ele>
        <time>2025-09-09T15:18:10Z</time>
      </trkpt>
      <trkpt lat="45.85983" lon="4.3772">
        <ele>792</ele>
        <time>2025-09-09T15:18:11Z</time>
      </trkpt>
      <trkpt lat="45.85982" lon="4.37717">
        <ele>792</ele>
        <time>2025-09-09T15:18:12Z</time>
      </trkpt>
      <trkpt lat="45.85982" lon="4.37716">
        <ele>792</ele>
        <time>2025-09-09T15:18:13Z</time>
      </trkpt>
      <trkpt lat="45.85981" lon="4.37714">
        <ele>792</ele>
        <time>2025-09-09T15:18:14Z</time>
      </trkpt>
      <trkpt lat="45.85981" lon="4.37711">
        <ele>792</ele>
        <time>2025-09-09T15:18:15Z</time>
      </trkpt>
      <trkpt lat="45.8598" lon="4.37708">
        <ele>792</ele>
        <time>2025-09-09T15:18:16Z</time>
      </trkpt>
      <trkpt lat="45.8598" lon="4.37706">
        <ele>792</ele>
        <time>2025-09-09T15:18:17Z</time>
      </trkpt>
      <trkpt lat="45.8598" lon="4.37704">
        <ele>792.4</ele>
        <time>2025-09-09T15:18:18Z</time>
      </trkpt>
      <trkpt lat="45.85979" lon="4.37702">
        <ele>792.6</ele>
        <time>2025-09-09T15:18:19Z</time>
      </trkpt>
      <trkpt lat="45.85979" lon="4.37701">
        <ele>792.6</ele>
        <time>2025-09-09T15:18:20Z</time>
      </trkpt>
      <trkpt lat="45.8598" lon="4.377">
        <ele>792.8</ele>
        <time>2025-09-09T15:18:21Z</time>
      </trkpt>
      <trkpt lat="45.8598" lon="4.37699">
        <ele>792.8</ele>
        <time>2025-09-09T15:18:22Z</time>
      </trkpt>
      <trkpt lat="45.8598" lon="4.37697">
        <ele>792.8</ele>
        <time>2025-09-09T15:18:23Z</time>
      </trkpt>
      <trkpt lat="45.85978" lon="4.37696">
        <ele>793.2</ele>
        <time>2025-09-09T15:18:24Z</time>
      </trkpt>
      <trkpt lat="45.85977" lon="4.37694">
        <ele>793.2</ele>
        <time>2025-09-09T15:18:25Z</time>
      </trkpt>
      <trkpt lat="45.85975" lon="4.37693">
        <ele>793.2</ele>
        <time>2025-09-09T15:18:26Z</time>
      </trkpt>
      <trkpt lat="45.85974" lon="4.37691">
        <ele>793.2</ele>
        <time>2025-09-09T15:18:27Z</time>
      </trkpt>
      <trkpt lat="45.85974" lon="4.3769">
        <ele>793.2</ele>
        <time>2025-09-09T15:18:28Z</time>
      </trkpt>
      <trkpt lat="45.85973" lon="4.37688">
        <ele>793.4</ele>
        <time>2025-09-09T15:18:29Z</time>
      </trkpt>
      <trkpt lat="45.85972" lon="4.37686">
        <ele>793.4</ele>
        <time>2025-09-09T15:18:30Z</time>
      </trkpt>
      <trkpt lat="45.8597" lon="4.37685">
        <ele>793.4</ele>
        <time>2025-09-09T15:18:31Z</time>
      </trkpt>
      <trkpt lat="45.85969" lon="4.37684">
        <ele>793.8</ele>
        <time>2025-09-09T15:18:32Z</time>
      </trkpt>
      <trkpt lat="45.85968" lon="4.37685">
        <ele>793.8</ele>
        <time>2025-09-09T15:18:33Z</time>
      </trkpt>
      <trkpt lat="45.85966" lon="4.37684">
        <ele>793.8</ele>
        <time>2025-09-09T15:18:34Z</time>
      </trkpt>
      <trkpt lat="45.85965" lon="4.37683">
        <ele>794</ele>
        <time>2025-09-09T15:18:35Z</time>
      </trkpt>
      <trkpt lat="45.85964" lon="4.37682">
        <ele>794</ele>
        <time>2025-09-09T15:18:36Z</time>
      </trkpt>
      <trkpt lat="45.85963" lon="4.37681">
        <ele>794.4</ele>
        <time>2025-09-09T15:18:37Z</time>
      </trkpt>
      <trkpt lat="45.85961" lon="4.37679">
        <ele>794.4</ele>
        <time>2025-09-09T15:18:38Z</time>
      </trkpt>
      <trkpt lat="45.85961" lon="4.37677">
        <ele>794.6</ele>
        <time>2025-09-09T15:18:39Z</time>
      </trkpt>
      <trkpt lat="45.8596" lon="4.37675">
        <ele>794.6</ele>
        <time>2025-09-09T15:18:40Z</time>
      </trkpt>
      <trkpt lat="45.85959" lon="4.37674">
        <ele>794.6</ele>
        <time>2025-09-09T15:18:41Z</time>
      </trkpt>
      <trkpt lat="45.85958" lon="4.37672">
        <ele>794.6</ele>
        <time>2025-09-09T15:18:42Z</time>
      </trkpt>
      <trkpt lat="45.85957" lon="4.37671">
        <ele>794.6</ele>
        <time>2025-09-09T15:18:43Z</time>
      </trkpt>
      <trkpt lat="45.85957" lon="4.37671">
        <ele>794.8</ele>
        <time>2025-09-09T15:18:44Z</time>
      </trkpt>
      <trkpt lat="45.85956" lon="4.37669">
        <ele>794.8</ele>
        <time>2025-09-09T15:18:45Z</time>
      </trkpt>
      <trkpt lat="45.85955" lon="4.37668">
        <ele>794.8</ele>
        <time>2025-09-09T15:18:46Z</time>
      </trkpt>
      <trkpt lat="45.85954" lon="4.37666">
        <ele>795.2</ele>
        <time>2025-09-09T15:18:47Z</time>
      </trkpt>
      <trkpt lat="45.85954" lon="4.37666">
        <ele>795.2</ele>
        <time>2025-09-09T15:18:48Z</time>
      </trkpt>
      <trkpt lat="45.85953" lon="4.37664">
        <ele>795.2</ele>
        <time>2025-09-09T15:18:49Z</time>
      </trkpt>
      <trkpt lat="45.85953" lon="4.37663">
        <ele>795.4</ele>
        <time>2025-09-09T15:18:50Z</time>
      </trkpt>
      <trkpt lat="45.85952" lon="4.37662">
        <ele>795.6</ele>
        <time>2025-09-09T15:18:51Z</time>
      </trkpt>
      <trkpt lat="45.85951" lon="4.3766">
        <ele>795.6</ele>
        <time>2025-09-09T15:18:52Z</time>
      </trkpt>
      <trkpt lat="45.8595" lon="4.37658">
        <ele>796</ele>
        <time>2025-09-09T15:18:53Z</time>
      </trkpt>
      <trkpt lat="45.85951" lon="4.37657">
        <ele>796</ele>
        <time>2025-09-09T15:18:54Z</time>
      </trkpt>
      <trkpt lat="45.85952" lon="4.37656">
        <ele>796.2</ele>
        <time>2025-09-09T15:18:55Z</time>
      </trkpt>
      <trkpt lat="45.85952" lon="4.37655">
        <ele>796.2</ele>
        <time>2025-09-09T15:18:56Z</time>
      </trkpt>
      <trkpt lat="45.8595" lon="4.37654">
        <ele>796.2</ele>
        <time>2025-09-09T15:18:57Z</time>
      </trkpt>
      <trkpt lat="45.85949" lon="4.37653">
        <ele>796.2</ele>
        <time>2025-09-09T15:18:58Z</time>
      </trkpt>
      <trkpt lat="45.85947" lon="4.37651">
        <ele>796.6</ele>
        <time>2025-09-09T15:18:59Z</time>
      </trkpt>
      <trkpt lat="45.85945" lon="4.3765">
        <ele>796.6</ele>
        <time>2025-09-09T15:19:00Z</time>
      </trkpt>
      <trkpt lat="45.85945" lon="4.37649">
        <ele>796.6</ele>
        <time>2025-09-09T15:19:01Z</time>
      </trkpt>
      <trkpt lat="45.85944" lon="4.37647">
        <ele>796.6</ele>
        <time>2025-09-09T15:19:02Z</time>
      </trkpt>
      <trkpt lat="45.85942" lon="4.37645">
        <ele>796.6</ele>
        <time>2025-09-09T15:19:03Z</time>
      </trkpt>
      <trkpt lat="45.8594" lon="4.37644">
        <ele>796.6</ele>
        <time>2025-09-09T15:19:04Z</time>
      </trkpt>
      <trkpt lat="45.85939" lon="4.37642">
        <ele>796.6</ele>
        <time>2025-09-09T15:19:05Z</time>
      </trkpt>
      <trkpt lat="45.85938" lon="4.37641">
        <ele>796.8</ele>
        <time>2025-09-09T15:19:06Z</time>
      </trkpt>
      <trkpt lat="45.85936" lon="4.37639">
        <ele>796.8</ele>
        <time>2025-09-09T15:19:07Z</time>
      </trkpt>
      <trkpt lat="45.85935" lon="4.37637">
        <ele>797</ele>
        <time>2025-09-09T15:19:08Z</time>
      </trkpt>
      <trkpt lat="45.85934" lon="4.37636">
        <ele>797</ele>
        <time>2025-09-09T15:19:09Z</time>
      </trkpt>
      <trkpt lat="45.85933" lon="4.37635">
        <ele>797.2</ele>
        <time>2025-09-09T15:19:10Z</time>
      </trkpt>
      <trkpt lat="45.85932" lon="4.37632">
        <ele>797.2</ele>
        <time>2025-09-09T15:19:11Z</time>
      </trkpt>
      <trkpt lat="45.85931" lon="4.3763">
        <ele>797.4</ele>
        <time>2025-09-09T15:19:12Z</time>
      </trkpt>
      <trkpt lat="45.8593" lon="4.37628">
        <ele>797.8</ele>
        <time>2025-09-09T15:19:13Z</time>
      </trkpt>
      <trkpt lat="45.85929" lon="4.37627">
        <ele>798</ele>
        <time>2025-09-09T15:19:14Z</time>
      </trkpt>
      <trkpt lat="45.85929" lon="4.37625">
        <ele>798</ele>
        <time>2025-09-09T15:19:15Z</time>
      </trkpt>
      <trkpt lat="45.85928" lon="4.37624">
        <ele>798.4</ele>
        <time>2025-09-09T15:19:16Z</time>
      </trkpt>
      <trkpt lat="45.85928" lon="4.37621">
        <ele>798.4</ele>
        <time>2025-09-09T15:19:17Z</time>
      </trkpt>
      <trkpt lat="45.85927" lon="4.37619">
        <ele>798.4</ele>
        <time>2025-09-09T15:19:18Z</time>
      </trkpt>
      <trkpt lat="45.85927" lon="4.37618">
        <ele>798.8</ele>
        <time>2025-09-09T15:19:19Z</time>
      </trkpt>
      <trkpt lat="45.85928" lon="4.37617">
        <ele>798.8</ele>
        <time>2025-09-09T15:19:20Z</time>
      </trkpt>
      <trkpt lat="45.85928" lon="4.37615">
        <ele>798.8</ele>
        <time>2025-09-09T15:19:21Z</time>
      </trkpt>
      <trkpt lat="45.85927" lon="4.37613">
        <ele>798.8</ele>
        <time>2025-09-09T15:19:22Z</time>
      </trkpt>
      <trkpt lat="45.85927" lon="4.37612">
        <ele>799</ele>
        <time>2025-09-09T15:19:23Z</time>
      </trkpt>
      <trkpt lat="45.85926" lon="4.3761">
        <ele>799</ele>
        <time>2025-09-09T15:19:24Z</time>
      </trkpt>
      <trkpt lat="45.85925" lon="4.37608">
        <ele>799</ele>
        <time>2025-09-09T15:19:25Z</time>
      </trkpt>
      <trkpt lat="45.85925" lon="4.37607">
        <ele>799</ele>
        <time>2025-09-09T15:19:26Z</time>
      </trkpt>
      <trkpt lat="45.85924" lon="4.37606">
        <ele>799.2</ele>
        <time>2025-09-09T15:19:27Z</time>
      </trkpt>
      <trkpt lat="45.85923" lon="4.37604">
        <ele>799.2</ele>
        <time>2025-09-09T15:19:28Z</time>
      </trkpt>
      <trkpt lat="45.85923" lon="4.37603">
        <ele>799.2</ele>
        <time>2025-09-09T15:19:29Z</time>
      </trkpt>
      <trkpt lat="45.85921" lon="4.37602">
        <ele>799.2</ele>
        <time>2025-09-09T15:19:30Z</time>
      </trkpt>
      <trkpt lat="45.8592" lon="4.376">
        <ele>799.2</ele>
        <time>2025-09-09T15:19:31Z</time>
      </trkpt>
      <trkpt lat="45.85919" lon="4.37598">
        <ele>799.6</ele>
        <time>2025-09-09T15:19:32Z</time>
      </trkpt>
      <trkpt lat="45.85918" lon="4.37597">
        <ele>799.6</ele>
        <time>2025-09-09T15:19:33Z</time>
      </trkpt>
      <trkpt lat="45.85917" lon="4.37596">
        <ele>799.6</ele>
        <time>2025-09-09T15:19:34Z</time>
      </trkpt>
      <trkpt lat="45.85916" lon="4.37594">
        <ele>799.6</ele>
        <time>2025-09-09T15:19:35Z</time>
      </trkpt>
      <trkpt lat="45.85915" lon="4.37591">
        <ele>799.6</ele>
        <time>2025-09-09T15:19:36Z</time>
      </trkpt>
      <trkpt lat="45.85914" lon="4.37589">
        <ele>799.6</ele>
        <time>2025-09-09T15:19:37Z</time>
      </trkpt>
      <trkpt lat="45.85913" lon="4.37588">
        <ele>799.8</ele>
        <time>2025-09-09T15:19:38Z</time>
      </trkpt>
      <trkpt lat="45.85912" lon="4.37586">
        <ele>799.8</ele>
        <time>2025-09-09T15:19:39Z</time>
      </trkpt>
      <trkpt lat="45.85911" lon="4.37585">
        <ele>799.8</ele>
        <time>2025-09-09T15:19:40Z</time>
      </trkpt>
      <trkpt lat="45.8591" lon="4.37583">
        <ele>800.2</ele>
        <time>2025-09-09T15:19:41Z</time>
      </trkpt>
      <trkpt lat="45.85908" lon="4.37581">
        <ele>800.2</ele>
        <time>2025-09-09T15:19:42Z</time>
      </trkpt>
      <trkpt lat="45.85906" lon="4.3758">
        <ele>800.6</ele>
        <time>2025-09-09T15:19:43Z</time>
      </trkpt>
      <trkpt lat="45.85905" lon="4.37579">
        <ele>800.6</ele>
        <time>2025-09-09T15:19:44Z</time>
      </trkpt>
      <trkpt lat="45.85903" lon="4.37578">
        <ele>800.6</ele>
        <time>2025-09-09T15:19:45Z</time>
      </trkpt>
      <trkpt lat="45.85901" lon="4.37577">
        <ele>801</ele>
        <time>2025-09-09T15:19:46Z</time>
      </trkpt>
      <trkpt lat="45.85898" lon="4.37574">
        <ele>801</ele>
        <time>2025-09-09T15:19:47Z</time>
      </trkpt>
      <trkpt lat="45.85896" lon="4.37574">
        <ele>801</ele>
        <time>2025-09-09T15:19:48Z</time>
      </trkpt>
      <trkpt lat="45.85895" lon="4.37574">
        <ele>801</ele>
        <time>2025-09-09T15:19:49Z</time>
      </trkpt>
      <trkpt lat="45.85894" lon="4.37573">
        <ele>801.2</ele>
        <time>2025-09-09T15:19:50Z</time>
      </trkpt>
      <trkpt lat="45.85892" lon="4.37572">
        <ele>801.2</ele>
        <time>2025-09-09T15:19:51Z</time>
      </trkpt>
      <trkpt lat="45.85891" lon="4.37571">
        <ele>801.4</ele>
        <time>2025-09-09T15:19:52Z</time>
      </trkpt>
      <trkpt lat="45.85889" lon="4.3757">
        <ele>801.4</ele>
        <time>2025-09-09T15:19:53Z</time>
      </trkpt>
      <trkpt lat="45.85887" lon="4.37569">
        <ele>801.8</ele>
        <time>2025-09-09T15:19:54Z</time>
      </trkpt>
      <trkpt lat="45.85886" lon="4.37569">
        <ele>801.8</ele>
        <time>2025-09-09T15:19:55Z</time>
      </trkpt>
      <trkpt lat="45.85885" lon="4.37568">
        <ele>802</ele>
        <time>2025-09-09T15:19:56Z</time>
      </trkpt>
      <trkpt lat="45.85883" lon="4.37567">
        <ele>802</ele>
        <time>2025-09-09T15:19:57Z</time>
      </trkpt>
      <trkpt lat="45.85882" lon="4.37566">
        <ele>802</ele>
        <time>2025-09-09T15:19:58Z</time>
      </trkpt>
      <trkpt lat="45.85881" lon="4.37566">
        <ele>802</ele>
        <time>2025-09-09T15:19:59Z</time>
      </trkpt>
      <trkpt lat="45.85879" lon="4.37567">
        <ele>802</ele>
        <time>2025-09-09T15:20:00Z</time>
      </trkpt>
      <trkpt lat="45.85878" lon="4.37568">
        <ele>802</ele>
        <time>2025-09-09T15:20:01Z</time>
      </trkpt>
      <trkpt lat="45.85877" lon="4.37568">
        <ele>802.2</ele>
        <time>2025-09-09T15:20:02Z</time>
      </trkpt>
      <trkpt lat="45.85875" lon="4.37567">
        <ele>802.2</ele>
        <time>2025-09-09T15:20:03Z</time>
      </trkpt>
      <trkpt lat="45.85874" lon="4.37566">
        <ele>802.2</ele>
        <time>2025-09-09T15:20:04Z</time>
      </trkpt>
      <trkpt lat="45.85873" lon="4.37566">
        <ele>802.2</ele>
        <time>2025-09-09T15:20:05Z</time>
      </trkpt>
      <trkpt lat="45.85871" lon="4.37565">
        <ele>802.2</ele>
        <time>2025-09-09T15:20:06Z</time>
      </trkpt>
      <trkpt lat="45.8587" lon="4.37565">
        <ele>802.2</ele>
        <time>2025-09-09T15:20:07Z</time>
      </trkpt>
      <trkpt lat="45.85869" lon="4.37565">
        <ele>802.6</ele>
        <time>2025-09-09T15:20:08Z</time>
      </trkpt>
      <trkpt lat="45.85868" lon="4.37564">
        <ele>802.8</ele>
        <time>2025-09-09T15:20:09Z</time>
      </trkpt>
      <trkpt lat="45.85867" lon="4.37563">
        <ele>802.8</ele>
        <time>2025-09-09T15:20:10Z</time>
      </trkpt>
      <trkpt lat="45.85866" lon="4.37563">
        <ele>803.2</ele>
        <time>2025-09-09T15:20:11Z</time>
      </trkpt>
      <trkpt lat="45.85865" lon="4.37564">
        <ele>803.2</ele>
        <time>2025-09-09T15:20:12Z</time>
      </trkpt>
      <trkpt lat="45.85864" lon="4.37564">
        <ele>803.2</ele>
        <time>2025-09-09T15:20:13Z</time>
      </trkpt>
      <trkpt lat="45.85863" lon="4.37565">
        <ele>803.2</ele>
        <time>2025-09-09T15:20:14Z</time>
      </trkpt>
      <trkpt lat="45.85861" lon="4.37566">
        <ele>803.8</ele>
        <time>2025-09-09T15:20:15Z</time>
      </trkpt>
      <trkpt lat="45.8586" lon="4.37566">
        <ele>803.8</ele>
        <time>2025-09-09T15:20:16Z</time>
      </trkpt>
      <trkpt lat="45.85858" lon="4.37567">
        <ele>804</ele>
        <time>2025-09-09T15:20:17Z</time>
      </trkpt>
      <trkpt lat="45.85857" lon="4.37567">
        <ele>804.2</ele>
        <time>2025-09-09T15:20:18Z</time>
      </trkpt>
      <trkpt lat="45.85856" lon="4.37568">
        <ele>804.2</ele>
        <time>2025-09-09T15:20:19Z</time>
      </trkpt>
      <trkpt lat="45.85855" lon="4.37568">
        <ele>804.2</ele>
        <time>2025-09-09T15:20:20Z</time>
      </trkpt>
      <trkpt lat="45.85853" lon="4.37569">
        <ele>804.2</ele>
        <time>2025-09-09T15:20:21Z</time>
      </trkpt>
      <trkpt lat="45.85852" lon="4.3757">
        <ele>804.4</ele>
        <time>2025-09-09T15:20:22Z</time>
      </trkpt>
      <trkpt lat="45.85851" lon="4.37571">
        <ele>804.4</ele>
        <time>2025-09-09T15:20:23Z</time>
      </trkpt>
      <trkpt lat="45.85849" lon="4.37572">
        <ele>804.4</ele>
        <time>2025-09-09T15:20:24Z</time>
      </trkpt>
      <trkpt lat="45.85848" lon="4.37574">
        <ele>804.4</ele>
        <time>2025-09-09T15:20:25Z</time>
      </trkpt>
      <trkpt lat="45.85847" lon="4.37575">
        <ele>804.4</ele>
        <time>2025-09-09T15:20:26Z</time>
      </trkpt>
      <trkpt lat="45.85846" lon="4.37577">
        <ele>804.4</ele>
        <time>2025-09-09T15:20:27Z</time>
      </trkpt>
      <trkpt lat="45.85845" lon="4.37579">
        <ele>804.6</ele>
        <time>2025-09-09T15:20:28Z</time>
      </trkpt>
      <trkpt lat="45.85844" lon="4.37579">
        <ele>804.6</ele>
        <time>2025-09-09T15:20:29Z</time>
      </trkpt>
      <trkpt lat="45.85843" lon="4.37581">
        <ele>804.6</ele>
        <time>2025-09-09T15:20:30Z</time>
      </trkpt>
      <trkpt lat="45.85843" lon="4.37581">
        <ele>805</ele>
        <time>2025-09-09T15:20:31Z</time>
      </trkpt>
      <trkpt lat="45.85841" lon="4.37582">
        <ele>805.2</ele>
        <time>2025-09-09T15:20:32Z</time>
      </trkpt>
      <trkpt lat="45.8584" lon="4.37583">
        <ele>805.2</ele>
        <time>2025-09-09T15:20:33Z</time>
      </trkpt>
      <trkpt lat="45.85839" lon="4.37585">
        <ele>805.2</ele>
        <time>2025-09-09T15:20:34Z</time>
      </trkpt>
      <trkpt lat="45.85838" lon="4.37586">
        <ele>805.4</ele>
        <time>2025-09-09T15:20:35Z</time>
      </trkpt>
      <trkpt lat="45.85836" lon="4.37587">
        <ele>805.4</ele>
        <time>2025-09-09T15:20:36Z</time>
      </trkpt>
      <trkpt lat="45.85835" lon="4.37588">
        <ele>805.6</ele>
        <time>2025-09-09T15:20:37Z</time>
      </trkpt>
      <trkpt lat="45.85833" lon="4.37588">
        <ele>805.6</ele>
        <time>2025-09-09T15:20:38Z</time>
      </trkpt>
      <trkpt lat="45.85832" lon="4.37589">
        <ele>806</ele>
        <time>2025-09-09T15:20:39Z</time>
      </trkpt>
      <trkpt lat="45.8583" lon="4.3759">
        <ele>806</ele>
        <time>2025-09-09T15:20:40Z</time>
      </trkpt>
      <trkpt lat="45.85829" lon="4.37591">
        <ele>806.2</ele>
        <time>2025-09-09T15:20:41Z</time>
      </trkpt>
      <trkpt lat="45.85828" lon="4.37592">
        <ele>806.2</ele>
        <time>2025-09-09T15:20:42Z</time>
      </trkpt>
      <trkpt lat="45.85826" lon="4.37593">
        <ele>806.2</ele>
        <time>2025-09-09T15:20:43Z</time>
      </trkpt>
      <trkpt lat="45.85825" lon="4.37594">
        <ele>806.2</ele>
        <time>2025-09-09T15:20:44Z</time>
      </trkpt>
      <trkpt lat="45.85824" lon="4.37595">
        <ele>806.2</ele>
        <time>2025-09-09T15:20:45Z</time>
      </trkpt>
      <trkpt lat="45.85823" lon="4.37596">
        <ele>806.4</ele>
        <time>2025-09-09T15:20:46Z</time>
      </trkpt>
      <trkpt lat="45.85822" lon="4.37597">
        <ele>806.4</ele>
        <time>2025-09-09T15:20:47Z</time>
      </trkpt>
      <trkpt lat="45.8582" lon="4.37597">
        <ele>806.4</ele>
        <time>2025-09-09T15:20:48Z</time>
      </trkpt>
      <trkpt lat="45.85819" lon="4.37597">
        <ele>806.8</ele>
        <time>2025-09-09T15:20:49Z</time>
      </trkpt>
      <trkpt lat="45.85818" lon="4.37598">
        <ele>806.4</ele>
        <time>2025-09-09T15:20:50Z</time>
      </trkpt>
      <trkpt lat="45.85816" lon="4.37598">
        <ele>806.8</ele>
        <time>2025-09-09T15:20:51Z</time>
      </trkpt>
      <trkpt lat="45.85814" lon="4.37598">
        <ele>806.8</ele>
        <time>2025-09-09T15:20:52Z</time>
      </trkpt>
      <trkpt lat="45.85812" lon="4.37598">
        <ele>807</ele>
        <time>2025-09-09T15:20:53Z</time>
      </trkpt>
      <trkpt lat="45.85811" lon="4.37598">
        <ele>807</ele>
        <time>2025-09-09T15:20:54Z</time>
      </trkpt>
      <trkpt lat="45.85809" lon="4.37599">
        <ele>807</ele>
        <time>2025-09-09T15:20:55Z</time>
      </trkpt>
      <trkpt lat="45.85808" lon="4.37599">
        <ele>807.4</ele>
        <time>2025-09-09T15:20:56Z</time>
      </trkpt>
      <trkpt lat="45.85806" lon="4.376">
        <ele>807.6</ele>
        <time>2025-09-09T15:20:57Z</time>
      </trkpt>
      <trkpt lat="45.85804" lon="4.37599">
        <ele>807.6</ele>
        <time>2025-09-09T15:20:58Z</time>
      </trkpt>
      <trkpt lat="45.85803" lon="4.37599">
        <ele>807.8</ele>
        <time>2025-09-09T15:20:59Z</time>
      </trkpt>
      <trkpt lat="45.85802" lon="4.376">
        <ele>807.8</ele>
        <time>2025-09-09T15:21:00Z</time>
      </trkpt>
      <trkpt lat="45.858" lon="4.37601">
        <ele>807.8</ele>
        <time>2025-09-09T15:21:01Z</time>
      </trkpt>
      <trkpt lat="45.85799" lon="4.37602">
        <ele>808</ele>
        <time>2025-09-09T15:21:02Z</time>
      </trkpt>
      <trkpt lat="45.85798" lon="4.37603">
        <ele>808</ele>
        <time>2025-09-09T15:21:03Z</time>
      </trkpt>
      <trkpt lat="45.85796" lon="4.37603">
        <ele>808.4</ele>
        <time>2025-09-09T15:21:04Z</time>
      </trkpt>
      <trkpt lat="45.85794" lon="4.37603">
        <ele>808.4</ele>
        <time>2025-09-09T15:21:05Z</time>
      </trkpt>
      <trkpt lat="45.85792" lon="4.37602">
        <ele>808.6</ele>
        <time>2025-09-09T15:21:06Z</time>
      </trkpt>
      <trkpt lat="45.8579" lon="4.37602">
        <ele>808.6</ele>
        <time>2025-09-09T15:21:07Z</time>
      </trkpt>
      <trkpt lat="45.85789" lon="4.37602">
        <ele>808.8</ele>
        <time>2025-09-09T15:21:08Z</time>
      </trkpt>
      <trkpt lat="45.85787" lon="4.37603">
        <ele>808.8</ele>
        <time>2025-09-09T15:21:09Z</time>
      </trkpt>
      <trkpt lat="45.85785" lon="4.37603">
        <ele>808.8</ele>
        <time>2025-09-09T15:21:10Z</time>
      </trkpt>
      <trkpt lat="45.85783" lon="4.37604">
        <ele>808.8</ele>
        <time>2025-09-09T15:21:11Z</time>
      </trkpt>
      <trkpt lat="45.85781" lon="4.37604">
        <ele>809.2</ele>
        <time>2025-09-09T15:21:12Z</time>
      </trkpt>
      <trkpt lat="45.85779" lon="4.37604">
        <ele>809.2</ele>
        <time>2025-09-09T15:21:13Z</time>
      </trkpt>
      <trkpt lat="45.85778" lon="4.37604">
        <ele>809.6</ele>
        <time>2025-09-09T15:21:14Z</time>
      </trkpt>
      <trkpt lat="45.85776" lon="4.37604">
        <ele>809.6</ele>
        <time>2025-09-09T15:21:15Z</time>
      </trkpt>
      <trkpt lat="45.85774" lon="4.37603">
        <ele>810</ele>
        <time>2025-09-09T15:21:16Z</time>
      </trkpt>
      <trkpt lat="45.85772" lon="4.37602">
        <ele>810</ele>
        <time>2025-09-09T15:21:17Z</time>
      </trkpt>
      <trkpt lat="45.85771" lon="4.37602">
        <ele>810</ele>
        <time>2025-09-09T15:21:18Z</time>
      </trkpt>
      <trkpt lat="45.85769" lon="4.37602">
        <ele>810</ele>
        <time>2025-09-09T15:21:19Z</time>
      </trkpt>
      <trkpt lat="45.85767" lon="4.37602">
        <ele>810.2</ele>
        <time>2025-09-09T15:21:20Z</time>
      </trkpt>
      <trkpt lat="45.85766" lon="4.37602">
        <ele>810.2</ele>
        <time>2025-09-09T15:21:21Z</time>
      </trkpt>
      <trkpt lat="45.85764" lon="4.37603">
        <ele>810.6</ele>
        <time>2025-09-09T15:21:22Z</time>
      </trkpt>
      <trkpt lat="45.85762" lon="4.37603">
        <ele>810.6</ele>
        <time>2025-09-09T15:21:23Z</time>
      </trkpt>
      <trkpt lat="45.8576" lon="4.37603">
        <ele>810.8</ele>
        <time>2025-09-09T15:21:24Z</time>
      </trkpt>
      <trkpt lat="45.85759" lon="4.37602">
        <ele>810.8</ele>
        <time>2025-09-09T15:21:25Z</time>
      </trkpt>
      <trkpt lat="45.85757" lon="4.37602">
        <ele>811</ele>
        <time>2025-09-09T15:21:26Z</time>
      </trkpt>
      <trkpt lat="45.85755" lon="4.37602">
        <ele>811</ele>
        <time>2025-09-09T15:21:27Z</time>
      </trkpt>
      <trkpt lat="45.85754" lon="4.37602">
        <ele>811</ele>
        <time>2025-09-09T15:21:28Z</time>
      </trkpt>
      <trkpt lat="45.85752" lon="4.37603">
        <ele>811</ele>
        <time>2025-09-09T15:21:29Z</time>
      </trkpt>
      <trkpt lat="45.8575" lon="4.37603">
        <ele>811.4</ele>
        <time>2025-09-09T15:21:30Z</time>
      </trkpt>
      <trkpt lat="45.85749" lon="4.37603">
        <ele>811.4</ele>
        <time>2025-09-09T15:21:31Z</time>
      </trkpt>
      <trkpt lat="45.85747" lon="4.37602">
        <ele>811.4</ele>
        <time>2025-09-09T15:21:32Z</time>
      </trkpt>
      <trkpt lat="45.85746" lon="4.37602">
        <ele>811.4</ele>
        <time>2025-09-09T15:21:33Z</time>
      </trkpt>
      <trkpt lat="45.85744" lon="4.37602">
        <ele>811.6</ele>
        <time>2025-09-09T15:21:34Z</time>
      </trkpt>
      <trkpt lat="45.85743" lon="4.37601">
        <ele>811.6</ele>
        <time>2025-09-09T15:21:35Z</time>
      </trkpt>
      <trkpt lat="45.85741" lon="4.37601">
        <ele>812</ele>
        <time>2025-09-09T15:21:36Z</time>
      </trkpt>
      <trkpt lat="45.85739" lon="4.37601">
        <ele>812.2</ele>
        <time>2025-09-09T15:21:37Z</time>
      </trkpt>
      <trkpt lat="45.85738" lon="4.376">
        <ele>812.2</ele>
        <time>2025-09-09T15:21:38Z</time>
      </trkpt>
      <trkpt lat="45.85737" lon="4.376">
        <ele>812.2</ele>
        <time>2025-09-09T15:21:39Z</time>
      </trkpt>
      <trkpt lat="45.85735" lon="4.376">
        <ele>812.2</ele>
        <time>2025-09-09T15:21:40Z</time>
      </trkpt>
      <trkpt lat="45.85734" lon="4.376">
        <ele>812.4</ele>
        <time>2025-09-09T15:21:41Z</time>
      </trkpt>
      <trkpt lat="45.85732" lon="4.376">
        <ele>812.4</ele>
        <time>2025-09-09T15:21:42Z</time>
      </trkpt>
      <trkpt lat="45.85731" lon="4.37599">
        <ele>812.8</ele>
        <time>2025-09-09T15:21:43Z</time>
      </trkpt>
      <trkpt lat="45.85729" lon="4.37599">
        <ele>812.8</ele>
        <time>2025-09-09T15:21:44Z</time>
      </trkpt>
      <trkpt lat="45.85728" lon="4.37598">
        <ele>812.8</ele>
        <time>2025-09-09T15:21:45Z</time>
      </trkpt>
      <trkpt lat="45.85726" lon="4.37598">
        <ele>813</ele>
        <time>2025-09-09T15:21:46Z</time>
      </trkpt>
      <trkpt lat="45.85724" lon="4.37598">
        <ele>813</ele>
        <time>2025-09-09T15:21:47Z</time>
      </trkpt>
      <trkpt lat="45.85723" lon="4.37599">
        <ele>813.2</ele>
        <time>2025-09-09T15:21:48Z</time>
      </trkpt>
      <trkpt lat="45.85721" lon="4.37599">
        <ele>813.2</ele>
        <time>2025-09-09T15:21:49Z</time>
      </trkpt>
      <trkpt lat="45.8572" lon="4.37599">
        <ele>813.6</ele>
        <time>2025-09-09T15:21:50Z</time>
      </trkpt>
      <trkpt lat="45.85718" lon="4.37599">
        <ele>813.6</ele>
        <time>2025-09-09T15:21:51Z</time>
      </trkpt>
      <trkpt lat="45.85717" lon="4.37598">
        <ele>813.8</ele>
        <time>2025-09-09T15:21:52Z</time>
      </trkpt>
      <trkpt lat="45.85715" lon="4.37597">
        <ele>814</ele>
        <time>2025-09-09T15:21:53Z</time>
      </trkpt>
      <trkpt lat="45.85714" lon="4.37597">
        <ele>814</ele>
        <time>2025-09-09T15:21:54Z</time>
      </trkpt>
      <trkpt lat="45.85712" lon="4.37596">
        <ele>814</ele>
        <time>2025-09-09T15:21:55Z</time>
      </trkpt>
      <trkpt lat="45.85711" lon="4.37596">
        <ele>814</ele>
        <time>2025-09-09T15:21:56Z</time>
      </trkpt>
      <trkpt lat="45.85709" lon="4.37595">
        <ele>814</ele>
        <time>2025-09-09T15:21:57Z</time>
      </trkpt>
      <trkpt lat="45.85708" lon="4.37594">
        <ele>814.2</ele>
        <time>2025-09-09T15:21:58Z</time>
      </trkpt>
      <trkpt lat="45.85707" lon="4.37594">
        <ele>814.2</ele>
        <time>2025-09-09T15:21:59Z</time>
      </trkpt>
      <trkpt lat="45.85706" lon="4.37593">
        <ele>814.6</ele>
        <time>2025-09-09T15:22:00Z</time>
      </trkpt>
      <trkpt lat="45.85704" lon="4.37592">
        <ele>814.6</ele>
        <time>2025-09-09T15:22:01Z</time>
      </trkpt>
      <trkpt lat="45.85702" lon="4.37592">
        <ele>814.8</ele>
        <time>2025-09-09T15:22:02Z</time>
      </trkpt>
      <trkpt lat="45.85701" lon="4.37592">
        <ele>815</ele>
        <time>2025-09-09T15:22:03Z</time>
      </trkpt>
      <trkpt lat="45.85699" lon="4.37592">
        <ele>815</ele>
        <time>2025-09-09T15:22:04Z</time>
      </trkpt>
      <trkpt lat="45.85698" lon="4.37592">
        <ele>815</ele>
        <time>2025-09-09T15:22:05Z</time>
      </trkpt>
      <trkpt lat="45.85697" lon="4.37591">
        <ele>815</ele>
        <time>2025-09-09T15:22:06Z</time>
      </trkpt>
      <trkpt lat="45.85696" lon="4.37591">
        <ele>815.4</ele>
        <time>2025-09-09T15:22:07Z</time>
      </trkpt>
      <trkpt lat="45.85694" lon="4.37591">
        <ele>815.4</ele>
        <time>2025-09-09T15:22:08Z</time>
      </trkpt>
      <trkpt lat="45.85693" lon="4.3759">
        <ele>815.6</ele>
        <time>2025-09-09T15:22:09Z</time>
      </trkpt>
      <trkpt lat="45.85692" lon="4.3759">
        <ele>815.6</ele>
        <time>2025-09-09T15:22:10Z</time>
      </trkpt>
      <trkpt lat="45.85691" lon="4.37589">
        <ele>816</ele>
        <time>2025-09-09T15:22:11Z</time>
      </trkpt>
      <trkpt lat="45.85689" lon="4.37588">
        <ele>816</ele>
        <time>2025-09-09T15:22:12Z</time>
      </trkpt>
      <trkpt lat="45.85688" lon="4.37588">
        <ele>816.2</ele>
        <time>2025-09-09T15:22:13Z</time>
      </trkpt>
      <trkpt lat="45.85686" lon="4.37587">
        <ele>816.2</ele>
        <time>2025-09-09T15:22:14Z</time>
      </trkpt>
      <trkpt lat="45.85685" lon="4.37586">
        <ele>816.2</ele>
        <time>2025-09-09T15:22:15Z</time>
      </trkpt>
      <trkpt lat="45.85683" lon="4.37586">
        <ele>816.2</ele>
        <time>2025-09-09T15:22:16Z</time>
      </trkpt>
      <trkpt lat="45.85682" lon="4.37585">
        <ele>816.4</ele>
        <time>2025-09-09T15:22:17Z</time>
      </trkpt>
      <trkpt lat="45.8568" lon="4.37584">
        <ele>816.4</ele>
        <time>2025-09-09T15:22:18Z</time>
      </trkpt>
      <trkpt lat="45.85678" lon="4.37584">
        <ele>816.6</ele>
        <time>2025-09-09T15:22:19Z</time>
      </trkpt>
      <trkpt lat="45.85677" lon="4.37584">
        <ele>816.6</ele>
        <time>2025-09-09T15:22:20Z</time>
      </trkpt>
      <trkpt lat="45.85675" lon="4.37584">
        <ele>816.6</ele>
        <time>2025-09-09T15:22:21Z</time>
      </trkpt>
      <trkpt lat="45.85673" lon="4.37584">
        <ele>816.8</ele>
        <time>2025-09-09T15:22:22Z</time>
      </trkpt>
      <trkpt lat="45.85672" lon="4.37583">
        <ele>816.8</ele>
        <time>2025-09-09T15:22:23Z</time>
      </trkpt>
      <trkpt lat="45.8567" lon="4.37583">
        <ele>816.8</ele>
        <time>2025-09-09T15:22:24Z</time>
      </trkpt>
      <trkpt lat="45.85669" lon="4.37582">
        <ele>816.8</ele>
        <time>2025-09-09T15:22:25Z</time>
      </trkpt>
      <trkpt lat="45.85667" lon="4.37583">
        <ele>816.8</ele>
        <time>2025-09-09T15:22:26Z</time>
      </trkpt>
      <trkpt lat="45.85665" lon="4.37583">
        <ele>817.2</ele>
        <time>2025-09-09T15:22:27Z</time>
      </trkpt>
      <trkpt lat="45.85664" lon="4.37583">
        <ele>817.2</ele>
        <time>2025-09-09T15:22:28Z</time>
      </trkpt>
      <trkpt lat="45.85662" lon="4.37583">
        <ele>817.2</ele>
        <time>2025-09-09T15:22:29Z</time>
      </trkpt>
      <trkpt lat="45.85661" lon="4.37582">
        <ele>817.4</ele>
        <time>2025-09-09T15:22:30Z</time>
      </trkpt>
      <trkpt lat="45.85659" lon="4.37582">
        <ele>817.4</ele>
        <time>2025-09-09T15:22:31Z</time>
      </trkpt>
      <trkpt lat="45.85657" lon="4.37583">
        <ele>817.8</ele>
        <time>2025-09-09T15:22:32Z</time>
      </trkpt>
      <trkpt lat="45.85656" lon="4.37584">
        <ele>817.8</ele>
        <time>2025-09-09T15:22:33Z</time>
      </trkpt>
      <trkpt lat="45.85654" lon="4.37584">
        <ele>817.8</ele>
        <time>2025-09-09T15:22:34Z</time>
      </trkpt>
      <trkpt lat="45.85652" lon="4.37584">
        <ele>818</ele>
        <time>2025-09-09T15:22:35Z</time>
      </trkpt>
      <trkpt lat="45.8565" lon="4.37584">
        <ele>818.4</ele>
        <time>2025-09-09T15:22:36Z</time>
      </trkpt>
      <trkpt lat="45.85649" lon="4.37584">
        <ele>818.4</ele>
        <time>2025-09-09T15:22:37Z</time>
      </trkpt>
      <trkpt lat="45.85647" lon="4.37584">
        <ele>818.6</ele>
        <time>2025-09-09T15:22:38Z</time>
      </trkpt>
      <trkpt lat="45.85645" lon="4.37584">
        <ele>818.6</ele>
        <time>2025-09-09T15:22:39Z</time>
      </trkpt>
      <trkpt lat="45.85644" lon="4.37584">
        <ele>818.6</ele>
        <time>2025-09-09T15:22:40Z</time>
      </trkpt>
      <trkpt lat="45.85642" lon="4.37583">
        <ele>818.8</ele>
        <time>2025-09-09T15:22:41Z</time>
      </trkpt>
      <trkpt lat="45.85641" lon="4.37582">
        <ele>818.8</ele>
        <time>2025-09-09T15:22:42Z</time>
      </trkpt>
      <trkpt lat="45.85639" lon="4.37582">
        <ele>819</ele>
        <time>2025-09-09T15:22:43Z</time>
      </trkpt>
      <trkpt lat="45.85637" lon="4.37581">
        <ele>819</ele>
        <time>2025-09-09T15:22:44Z</time>
      </trkpt>
      <trkpt lat="45.85636" lon="4.37581">
        <ele>819.2</ele>
        <time>2025-09-09T15:22:45Z</time>
      </trkpt>
      <trkpt lat="45.85635" lon="4.37581">
        <ele>819.2</ele>
        <time>2025-09-09T15:22:46Z</time>
      </trkpt>
      <trkpt lat="45.85633" lon="4.37581">
        <ele>819.2</ele>
        <time>2025-09-09T15:22:47Z</time>
      </trkpt>
      <trkpt lat="45.85632" lon="4.3758">
        <ele>819.6</ele>
        <time>2025-09-09T15:22:48Z</time>
      </trkpt>
      <trkpt lat="45.85631" lon="4.37579">
        <ele>819.6</ele>
        <time>2025-09-09T15:22:49Z</time>
      </trkpt>
      <trkpt lat="45.85629" lon="4.37579">
        <ele>819.6</ele>
        <time>2025-09-09T15:22:50Z</time>
      </trkpt>
      <trkpt lat="45.85627" lon="4.37578">
        <ele>819.6</ele>
        <time>2025-09-09T15:22:51Z</time>
      </trkpt>
      <trkpt lat="45.85626" lon="4.37578">
        <ele>819.8</ele>
        <time>2025-09-09T15:22:52Z</time>
      </trkpt>
      <trkpt lat="45.85625" lon="4.37579">
        <ele>819.8</ele>
        <time>2025-09-09T15:22:53Z</time>
      </trkpt>
      <trkpt lat="45.85623" lon="4.3758">
        <ele>819.8</ele>
        <time>2025-09-09T15:22:54Z</time>
      </trkpt>
      <trkpt lat="45.85622" lon="4.3758">
        <ele>819.8</ele>
        <time>2025-09-09T15:22:55Z</time>
      </trkpt>
      <trkpt lat="45.85621" lon="4.3758">
        <ele>819.8</ele>
        <time>2025-09-09T15:22:56Z</time>
      </trkpt>
      <trkpt lat="45.8562" lon="4.37579">
        <ele>820</ele>
        <time>2025-09-09T15:22:57Z</time>
      </trkpt>
      <trkpt lat="45.85618" lon="4.37579">
        <ele>820</ele>
        <time>2025-09-09T15:22:58Z</time>
      </trkpt>
      <trkpt lat="45.85617" lon="4.37578">
        <ele>820</ele>
        <time>2025-09-09T15:22:59Z</time>
      </trkpt>
      <trkpt lat="45.85615" lon="4.37577">
        <ele>820.2</ele>
        <time>2025-09-09T15:23:00Z</time>
      </trkpt>
      <trkpt lat="45.85614" lon="4.37577">
        <ele>820.2</ele>
        <time>2025-09-09T15:23:01Z</time>
      </trkpt>
      <trkpt lat="45.85613" lon="4.37576">
        <ele>820.6</ele>
        <time>2025-09-09T15:23:02Z</time>
      </trkpt>
      <trkpt lat="45.85611" lon="4.37575">
        <ele>820.6</ele>
        <time>2025-09-09T15:23:03Z</time>
      </trkpt>
      <trkpt lat="45.8561" lon="4.37573">
        <ele>820.8</ele>
        <time>2025-09-09T15:23:04Z</time>
      </trkpt>
      <trkpt lat="45.85608" lon="4.37572">
        <ele>820.8</ele>
        <time>2025-09-09T15:23:05Z</time>
      </trkpt>
      <trkpt lat="45.85607" lon="4.37571">
        <ele>821.2</ele>
        <time>2025-09-09T15:23:06Z</time>
      </trkpt>
      <trkpt lat="45.85605" lon="4.37567">
        <ele>821.2</ele>
        <time>2025-09-09T15:23:07Z</time>
      </trkpt>
      <trkpt lat="45.85604" lon="4.37565">
        <ele>821.2</ele>
        <time>2025-09-09T15:23:08Z</time>
      </trkpt>
      <trkpt lat="45.85603" lon="4.37563">
        <ele>821.2</ele>
        <time>2025-09-09T15:23:09Z</time>
      </trkpt>
      <trkpt lat="45.85602" lon="4.37562">
        <ele>821.4</ele>
        <time>2025-09-09T15:23:10Z</time>
      </trkpt>
      <trkpt lat="45.85602" lon="4.37561">
        <ele>821.4</ele>
        <time>2025-09-09T15:23:11Z</time>
      </trkpt>
      <trkpt lat="45.856" lon="4.37559">
        <ele>821.6</ele>
        <time>2025-09-09T15:23:12Z</time>
      </trkpt>
      <trkpt lat="45.856" lon="4.37557">
        <ele>821.6</ele>
        <time>2025-09-09T15:23:13Z</time>
      </trkpt>
      <trkpt lat="45.856" lon="4.37554">
        <ele>821.6</ele>
        <time>2025-09-09T15:23:14Z</time>
      </trkpt>
      <trkpt lat="45.856" lon="4.37552">
        <ele>822</ele>
        <time>2025-09-09T15:23:15Z</time>
      </trkpt>
      <trkpt lat="45.85601" lon="4.3755">
        <ele>822</ele>
        <time>2025-09-09T15:23:16Z</time>
      </trkpt>
      <trkpt lat="45.85601" lon="4.37547">
        <ele>822</ele>
        <time>2025-09-09T15:23:17Z</time>
      </trkpt>
      <trkpt lat="45.85601" lon="4.37545">
        <ele>822.2</ele>
        <time>2025-09-09T15:23:18Z</time>
      </trkpt>
      <trkpt lat="45.85602" lon="4.37542">
        <ele>822.4</ele>
        <time>2025-09-09T15:23:19Z</time>
      </trkpt>
      <trkpt lat="45.85602" lon="4.3754">
        <ele>822.4</ele>
        <time>2025-09-09T15:23:20Z</time>
      </trkpt>
      <trkpt lat="45.85602" lon="4.37538">
        <ele>822.8</ele>
        <time>2025-09-09T15:23:21Z</time>
      </trkpt>
      <trkpt lat="45.85602" lon="4.37535">
        <ele>822.8</ele>
        <time>2025-09-09T15:23:22Z</time>
      </trkpt>
      <trkpt lat="45.85602" lon="4.37533">
        <ele>822.8</ele>
        <time>2025-09-09T15:23:23Z</time>
      </trkpt>
      <trkpt lat="45.85602" lon="4.37531">
        <ele>823</ele>
        <time>2025-09-09T15:23:24Z</time>
      </trkpt>
      <trkpt lat="45.85602" lon="4.37529">
        <ele>823.4</ele>
        <time>2025-09-09T15:23:25Z</time>
      </trkpt>
      <trkpt lat="45.85603" lon="4.37526">
        <ele>823.4</ele>
        <time>2025-09-09T15:23:26Z</time>
      </trkpt>
      <trkpt lat="45.85603" lon="4.37524">
        <ele>823.4</ele>
        <time>2025-09-09T15:23:27Z</time>
      </trkpt>
      <trkpt lat="45.85604" lon="4.37522">
        <ele>823.6</ele>
        <time>2025-09-09T15:23:28Z</time>
      </trkpt>
      <trkpt lat="45.85604" lon="4.3752">
        <ele>823.6</ele>
        <time>2025-09-09T15:23:29Z</time>
      </trkpt>
      <trkpt lat="45.85605" lon="4.37518">
        <ele>823.8</ele>
        <time>2025-09-09T15:23:30Z</time>
      </trkpt>
      <trkpt lat="45.85605" lon="4.37515">
        <ele>823.8</ele>
        <time>2025-09-09T15:23:31Z</time>
      </trkpt>
      <trkpt lat="45.85605" lon="4.37513">
        <ele>824</ele>
        <time>2025-09-09T15:23:32Z</time>
      </trkpt>
      <trkpt lat="45.85605" lon="4.37511">
        <ele>824</ele>
        <time>2025-09-09T15:23:33Z</time>
      </trkpt>
      <trkpt lat="45.85604" lon="4.37509">
        <ele>824.4</ele>
        <time>2025-09-09T15:23:34Z</time>
      </trkpt>
      <trkpt lat="45.85604" lon="4.37508">
        <ele>824.4</ele>
        <time>2025-09-09T15:23:35Z</time>
      </trkpt>
      <trkpt lat="45.85604" lon="4.37506">
        <ele>824.4</ele>
        <time>2025-09-09T15:23:36Z</time>
      </trkpt>
      <trkpt lat="45.85604" lon="4.37504">
        <ele>824.6</ele>
        <time>2025-09-09T15:23:37Z</time>
      </trkpt>
      <trkpt lat="45.85605" lon="4.37504">
        <ele>825</ele>
        <time>2025-09-09T15:23:38Z</time>
      </trkpt>
      <trkpt lat="45.85605" lon="4.37503">
        <ele>825</ele>
        <time>2025-09-09T15:23:39Z</time>
      </trkpt>
      <trkpt lat="45.85606" lon="4.375">
        <ele>825</ele>
        <time>2025-09-09T15:23:40Z</time>
      </trkpt>
      <trkpt lat="45.85607" lon="4.37498">
        <ele>825</ele>
        <time>2025-09-09T15:23:41Z</time>
      </trkpt>
      <trkpt lat="45.85607" lon="4.37496">
        <ele>825.2</ele>
        <time>2025-09-09T15:23:42Z</time>
      </trkpt>
      <trkpt lat="45.85608" lon="4.37495">
        <ele>825.2</ele>
        <time>2025-09-09T15:23:43Z</time>
      </trkpt>
      <trkpt lat="45.85608" lon="4.37494">
        <ele>824.6</ele>
        <time>2025-09-09T15:23:44Z</time>
      </trkpt>
      <trkpt lat="45.85608" lon="4.37493">
        <ele>825</ele>
        <time>2025-09-09T15:23:45Z</time>
      </trkpt>
      <trkpt lat="45.85608" lon="4.37491">
        <ele>825.2</ele>
        <time>2025-09-09T15:23:46Z</time>
      </trkpt>
      <trkpt lat="45.85608" lon="4.37489">
        <ele>825.6</ele>
        <time>2025-09-09T15:23:47Z</time>
      </trkpt>
      <trkpt lat="45.85609" lon="4.37486">
        <ele>825.6</ele>
        <time>2025-09-09T15:23:48Z</time>
      </trkpt>
      <trkpt lat="45.8561" lon="4.37484">
        <ele>825.6</ele>
        <time>2025-09-09T15:23:49Z</time>
      </trkpt>
      <trkpt lat="45.85611" lon="4.37482">
        <ele>826</ele>
        <time>2025-09-09T15:23:50Z</time>
      </trkpt>
      <trkpt lat="45.85611" lon="4.37482">
        <ele>826</ele>
        <time>2025-09-09T15:23:51Z</time>
      </trkpt>
      <trkpt lat="45.85611" lon="4.37479">
        <ele>825.6</ele>
        <time>2025-09-09T15:23:52Z</time>
      </trkpt>
      <trkpt lat="45.85611" lon="4.37476">
        <ele>826</ele>
        <time>2025-09-09T15:23:53Z</time>
      </trkpt>
      <trkpt lat="45.85611" lon="4.37474">
        <ele>826.2</ele>
        <time>2025-09-09T15:23:54Z</time>
      </trkpt>
      <trkpt lat="45.85611" lon="4.37472">
        <ele>826.2</ele>
        <time>2025-09-09T15:23:55Z</time>
      </trkpt>
      <trkpt lat="45.85612" lon="4.37469">
        <ele>826.6</ele>
        <time>2025-09-09T15:23:56Z</time>
      </trkpt>
      <trkpt lat="45.85613" lon="4.37467">
        <ele>826.6</ele>
        <time>2025-09-09T15:23:57Z</time>
      </trkpt>
      <trkpt lat="45.85614" lon="4.37466">
        <ele>826.6</ele>
        <time>2025-09-09T15:23:58Z</time>
      </trkpt>
      <trkpt lat="45.85616" lon="4.37464">
        <ele>826.8</ele>
        <time>2025-09-09T15:23:59Z</time>
      </trkpt>
      <trkpt lat="45.85617" lon="4.37463">
        <ele>827.2</ele>
        <time>2025-09-09T15:24:00Z</time>
      </trkpt>
      <trkpt lat="45.85618" lon="4.37462">
        <ele>827.2</ele>
        <time>2025-09-09T15:24:01Z</time>
      </trkpt>
      <trkpt lat="45.8562" lon="4.37461">
        <ele>827.2</ele>
        <time>2025-09-09T15:24:02Z</time>
      </trkpt>
      <trkpt lat="45.85621" lon="4.3746">
        <ele>827.2</ele>
        <time>2025-09-09T15:24:03Z</time>
      </trkpt>
      <trkpt lat="45.85622" lon="4.37459">
        <ele>827.2</ele>
        <time>2025-09-09T15:24:04Z</time>
      </trkpt>
      <trkpt lat="45.85623" lon="4.37458">
        <ele>827.2</ele>
        <time>2025-09-09T15:24:05Z</time>
      </trkpt>
      <trkpt lat="45.85624" lon="4.37456">
        <ele>827.4</ele>
        <time>2025-09-09T15:24:06Z</time>
      </trkpt>
      <trkpt lat="45.85625" lon="4.37453">
        <ele>827.6</ele>
        <time>2025-09-09T15:24:07Z</time>
      </trkpt>
      <trkpt lat="45.85625" lon="4.37451">
        <ele>827.6</ele>
        <time>2025-09-09T15:24:08Z</time>
      </trkpt>
      <trkpt lat="45.85626" lon="4.3745">
        <ele>827.2</ele>
        <time>2025-09-09T15:24:09Z</time>
      </trkpt>
      <trkpt lat="45.85626" lon="4.37448">
        <ele>827.6</ele>
        <time>2025-09-09T15:24:10Z</time>
      </trkpt>
      <trkpt lat="45.85627" lon="4.37445">
        <ele>828</ele>
        <time>2025-09-09T15:24:11Z</time>
      </trkpt>
      <trkpt lat="45.85627" lon="4.37442">
        <ele>828.2</ele>
        <time>2025-09-09T15:24:12Z</time>
      </trkpt>
      <trkpt lat="45.85627" lon="4.37439">
        <ele>828.2</ele>
        <time>2025-09-09T15:24:13Z</time>
      </trkpt>
      <trkpt lat="45.85627" lon="4.37437">
        <ele>828.4</ele>
        <time>2025-09-09T15:24:14Z</time>
      </trkpt>
      <trkpt lat="45.85627" lon="4.37435">
        <ele>828.4</ele>
        <time>2025-09-09T15:24:15Z</time>
      </trkpt>
      <trkpt lat="45.85628" lon="4.37433">
        <ele>828.6</ele>
        <time>2025-09-09T15:24:16Z</time>
      </trkpt>
      <trkpt lat="45.85629" lon="4.37431">
        <ele>828.6</ele>
        <time>2025-09-09T15:24:17Z</time>
      </trkpt>
      <trkpt lat="45.85631" lon="4.3743">
        <ele>828.6</ele>
        <time>2025-09-09T15:24:18Z</time>
      </trkpt>
      <trkpt lat="45.85632" lon="4.37429">
        <ele>829</ele>
        <time>2025-09-09T15:24:19Z</time>
      </trkpt>
      <trkpt lat="45.85633" lon="4.37427">
        <ele>829</ele>
        <time>2025-09-09T15:24:20Z</time>
      </trkpt>
      <trkpt lat="45.85633" lon="4.37426">
        <ele>829.2</ele>
        <time>2025-09-09T15:24:21Z</time>
      </trkpt>
      <trkpt lat="45.85634" lon="4.37425">
        <ele>829.2</ele>
        <time>2025-09-09T15:24:22Z</time>
      </trkpt>
      <trkpt lat="45.85634" lon="4.37422">
        <ele>829.4</ele>
        <time>2025-09-09T15:24:23Z</time>
      </trkpt>
      <trkpt lat="45.85635" lon="4.3742">
        <ele>829.4</ele>
        <time>2025-09-09T15:24:24Z</time>
      </trkpt>
      <trkpt lat="45.85636" lon="4.37417">
        <ele>829.6</ele>
        <time>2025-09-09T15:24:25Z</time>
      </trkpt>
      <trkpt lat="45.85636" lon="4.37415">
        <ele>829.6</ele>
        <time>2025-09-09T15:24:26Z</time>
      </trkpt>
      <trkpt lat="45.85636" lon="4.37413">
        <ele>829.8</ele>
        <time>2025-09-09T15:24:27Z</time>
      </trkpt>
      <trkpt lat="45.85636" lon="4.37412">
        <ele>829.8</ele>
        <time>2025-09-09T15:24:28Z</time>
      </trkpt>
      <trkpt lat="45.85636" lon="4.3741">
        <ele>829.8</ele>
        <time>2025-09-09T15:24:29Z</time>
      </trkpt>
      <trkpt lat="45.85637" lon="4.37408">
        <ele>829.8</ele>
        <time>2025-09-09T15:24:30Z</time>
      </trkpt>
      <trkpt lat="45.85637" lon="4.37406">
        <ele>829.8</ele>
        <time>2025-09-09T15:24:31Z</time>
      </trkpt>
      <trkpt lat="45.85637" lon="4.37403">
        <ele>829.8</ele>
        <time>2025-09-09T15:24:32Z</time>
      </trkpt>
      <trkpt lat="45.85636" lon="4.374">
        <ele>829.8</ele>
        <time>2025-09-09T15:24:33Z</time>
      </trkpt>
      <trkpt lat="45.85635" lon="4.37398">
        <ele>830.2</ele>
        <time>2025-09-09T15:24:34Z</time>
      </trkpt>
      <trkpt lat="45.85634" lon="4.37395">
        <ele>830.2</ele>
        <time>2025-09-09T15:24:35Z</time>
      </trkpt>
      <trkpt lat="45.85634" lon="4.37393">
        <ele>830.2</ele>
        <time>2025-09-09T15:24:36Z</time>
      </trkpt>
      <trkpt lat="45.85633" lon="4.3739">
        <ele>830.4</ele>
        <time>2025-09-09T15:24:37Z</time>
      </trkpt>
      <trkpt lat="45.85632" lon="4.37388">
        <ele>830.4</ele>
        <time>2025-09-09T15:24:38Z</time>
      </trkpt>
      <trkpt lat="45.85631" lon="4.37386">
        <ele>830.4</ele>
        <time>2025-09-09T15:24:39Z</time>
      </trkpt>
      <trkpt lat="45.8563" lon="4.37384">
        <ele>830.8</ele>
        <time>2025-09-09T15:24:40Z</time>
      </trkpt>
      <trkpt lat="45.85628" lon="4.37383">
        <ele>831</ele>
        <time>2025-09-09T15:24:41Z</time>
      </trkpt>
      <trkpt lat="45.85626" lon="4.37381">
        <ele>831</ele>
        <time>2025-09-09T15:24:42Z</time>
      </trkpt>
      <trkpt lat="45.85625" lon="4.3738">
        <ele>831.4</ele>
        <time>2025-09-09T15:24:43Z</time>
      </trkpt>
      <trkpt lat="45.85624" lon="4.37378">
        <ele>831.4</ele>
        <time>2025-09-09T15:24:44Z</time>
      </trkpt>
      <trkpt lat="45.85623" lon="4.37377">
        <ele>831.6</ele>
        <time>2025-09-09T15:24:45Z</time>
      </trkpt>
      <trkpt lat="45.85622" lon="4.37376">
        <ele>831.6</ele>
        <time>2025-09-09T15:24:46Z</time>
      </trkpt>
      <trkpt lat="45.85621" lon="4.37375">
        <ele>832</ele>
        <time>2025-09-09T15:24:47Z</time>
      </trkpt>
      <trkpt lat="45.8562" lon="4.37375">
        <ele>832</ele>
        <time>2025-09-09T15:24:48Z</time>
      </trkpt>
      <trkpt lat="45.85618" lon="4.37374">
        <ele>832.2</ele>
        <time>2025-09-09T15:24:49Z</time>
      </trkpt>
      <trkpt lat="45.85617" lon="4.37373">
        <ele>832.2</ele>
        <time>2025-09-09T15:24:50Z</time>
      </trkpt>
      <trkpt lat="45.85616" lon="4.37371">
        <ele>832.6</ele>
        <time>2025-09-09T15:24:51Z</time>
      </trkpt>
      <trkpt lat="45.85615" lon="4.37369">
        <ele>832.6</ele>
        <time>2025-09-09T15:24:52Z</time>
      </trkpt>
      <trkpt lat="45.85614" lon="4.37368">
        <ele>832.8</ele>
        <time>2025-09-09T15:24:53Z</time>
      </trkpt>
      <trkpt lat="45.85612" lon="4.37367">
        <ele>832.8</ele>
        <time>2025-09-09T15:24:54Z</time>
      </trkpt>
      <trkpt lat="45.8561" lon="4.37366">
        <ele>833</ele>
        <time>2025-09-09T15:24:55Z</time>
      </trkpt>
      <trkpt lat="45.85609" lon="4.37365">
        <ele>833</ele>
        <time>2025-09-09T15:24:56Z</time>
      </trkpt>
      <trkpt lat="45.85608" lon="4.37364">
        <ele>833</ele>
        <time>2025-09-09T15:24:57Z</time>
      </trkpt>
      <trkpt lat="45.85607" lon="4.37362">
        <ele>833.2</ele>
        <time>2025-09-09T15:24:58Z</time>
      </trkpt>
      <trkpt lat="45.85606" lon="4.37361">
        <ele>833.2</ele>
        <time>2025-09-09T15:24:59Z</time>
      </trkpt>
      <trkpt lat="45.85605" lon="4.37359">
        <ele>833.6</ele>
        <time>2025-09-09T15:25:00Z</time>
      </trkpt>
      <trkpt lat="45.85604" lon="4.37358">
        <ele>833.6</ele>
        <time>2025-09-09T15:25:01Z</time>
      </trkpt>
      <trkpt lat="45.85603" lon="4.37356">
        <ele>833.6</ele>
        <time>2025-09-09T15:25:02Z</time>
      </trkpt>
      <trkpt lat="45.85602" lon="4.37354">
        <ele>833.6</ele>
        <time>2025-09-09T15:25:03Z</time>
      </trkpt>
      <trkpt lat="45.856" lon="4.37353">
        <ele>833.6</ele>
        <time>2025-09-09T15:25:04Z</time>
      </trkpt>
      <trkpt lat="45.85599" lon="4.37352">
        <ele>833.8</ele>
        <time>2025-09-09T15:25:05Z</time>
      </trkpt>
      <trkpt lat="45.85598" lon="4.37351">
        <ele>833.8</ele>
        <time>2025-09-09T15:25:06Z</time>
      </trkpt>
      <trkpt lat="45.85597" lon="4.3735">
        <ele>833.8</ele>
        <time>2025-09-09T15:25:07Z</time>
      </trkpt>
      <trkpt lat="45.85595" lon="4.3735">
        <ele>834</ele>
        <time>2025-09-09T15:25:08Z</time>
      </trkpt>
      <trkpt lat="45.85593" lon="4.37349">
        <ele>834</ele>
        <time>2025-09-09T15:25:09Z</time>
      </trkpt>
      <trkpt lat="45.85592" lon="4.37349">
        <ele>834</ele>
        <time>2025-09-09T15:25:10Z</time>
      </trkpt>
      <trkpt lat="45.85591" lon="4.37348">
        <ele>834.2</ele>
        <time>2025-09-09T15:25:11Z</time>
      </trkpt>
      <trkpt lat="45.85589" lon="4.37348">
        <ele>834.2</ele>
        <time>2025-09-09T15:25:12Z</time>
      </trkpt>
      <trkpt lat="45.85588" lon="4.37347">
        <ele>834.6</ele>
        <time>2025-09-09T15:25:13Z</time>
      </trkpt>
      <trkpt lat="45.85587" lon="4.37346">
        <ele>834.6</ele>
        <time>2025-09-09T15:25:14Z</time>
      </trkpt>
      <trkpt lat="45.85586" lon="4.37344">
        <ele>834.6</ele>
        <time>2025-09-09T15:25:15Z</time>
      </trkpt>
      <trkpt lat="45.85585" lon="4.37343">
        <ele>834.8</ele>
        <time>2025-09-09T15:25:16Z</time>
      </trkpt>
      <trkpt lat="45.85584" lon="4.37343">
        <ele>834.8</ele>
        <time>2025-09-09T15:25:17Z</time>
      </trkpt>
      <trkpt lat="45.85583" lon="4.37341">
        <ele>834.8</ele>
        <time>2025-09-09T15:25:18Z</time>
      </trkpt>
      <trkpt lat="45.85582" lon="4.3734">
        <ele>835.2</ele>
        <time>2025-09-09T15:25:19Z</time>
      </trkpt>
      <trkpt lat="45.85581" lon="4.37339">
        <ele>835.4</ele>
        <time>2025-09-09T15:25:20Z</time>
      </trkpt>
      <trkpt lat="45.8558" lon="4.37339">
        <ele>835.4</ele>
        <time>2025-09-09T15:25:21Z</time>
      </trkpt>
      <trkpt lat="45.85579" lon="4.37338">
        <ele>835.6</ele>
        <time>2025-09-09T15:25:22Z</time>
      </trkpt>
      <trkpt lat="45.85577" lon="4.37338">
        <ele>835.6</ele>
        <time>2025-09-09T15:25:23Z</time>
      </trkpt>
      <trkpt lat="45.85576" lon="4.37337">
        <ele>835.6</ele>
        <time>2025-09-09T15:25:24Z</time>
      </trkpt>
      <trkpt lat="45.85575" lon="4.37336">
        <ele>835.6</ele>
        <time>2025-09-09T15:25:25Z</time>
      </trkpt>
      <trkpt lat="45.85574" lon="4.37336">
        <ele>835.6</ele>
        <time>2025-09-09T15:25:26Z</time>
      </trkpt>
      <trkpt lat="45.85572" lon="4.37335">
        <ele>835.6</ele>
        <time>2025-09-09T15:25:27Z</time>
      </trkpt>
      <trkpt lat="45.85571" lon="4.37335">
        <ele>835.8</ele>
        <time>2025-09-09T15:25:28Z</time>
      </trkpt>
      <trkpt lat="45.8557" lon="4.37334">
        <ele>835.8</ele>
        <time>2025-09-09T15:25:29Z</time>
      </trkpt>
      <trkpt lat="45.85568" lon="4.37332">
        <ele>835.8</ele>
        <time>2025-09-09T15:25:30Z</time>
      </trkpt>
      <trkpt lat="45.85567" lon="4.37331">
        <ele>835.8</ele>
        <time>2025-09-09T15:25:31Z</time>
      </trkpt>
      <trkpt lat="45.85565" lon="4.3733">
        <ele>836.2</ele>
        <time>2025-09-09T15:25:32Z</time>
      </trkpt>
      <trkpt lat="45.85563" lon="4.37329">
        <ele>836.4</ele>
        <time>2025-09-09T15:25:33Z</time>
      </trkpt>
      <trkpt lat="45.85562" lon="4.37328">
        <ele>836.4</ele>
        <time>2025-09-09T15:25:34Z</time>
      </trkpt>
      <trkpt lat="45.8556" lon="4.37327">
        <ele>836.4</ele>
        <time>2025-09-09T15:25:35Z</time>
      </trkpt>
      <trkpt lat="45.85558" lon="4.37326">
        <ele>836.4</ele>
        <time>2025-09-09T15:25:36Z</time>
      </trkpt>
      <trkpt lat="45.85556" lon="4.37326">
        <ele>836.6</ele>
        <time>2025-09-09T15:25:37Z</time>
      </trkpt>
      <trkpt lat="45.85555" lon="4.37325">
        <ele>837</ele>
        <time>2025-09-09T15:25:38Z</time>
      </trkpt>
      <trkpt lat="45.85553" lon="4.37324">
        <ele>837</ele>
        <time>2025-09-09T15:25:39Z</time>
      </trkpt>
      <trkpt lat="45.85551" lon="4.37323">
        <ele>837.2</ele>
        <time>2025-09-09T15:25:40Z</time>
      </trkpt>
      <trkpt lat="45.85549" lon="4.37322">
        <ele>837.2</ele>
        <time>2025-09-09T15:25:41Z</time>
      </trkpt>
      <trkpt lat="45.85548" lon="4.37321">
        <ele>837.2</ele>
        <time>2025-09-09T15:25:42Z</time>
      </trkpt>
      <trkpt lat="45.85546" lon="4.3732">
        <ele>837.4</ele>
        <time>2025-09-09T15:25:43Z</time>
      </trkpt>
      <trkpt lat="45.85545" lon="4.37319">
        <ele>837.4</ele>
        <time>2025-09-09T15:25:44Z</time>
      </trkpt>
      <trkpt lat="45.85543" lon="4.37318">
        <ele>837.4</ele>
        <time>2025-09-09T15:25:45Z</time>
      </trkpt>
      <trkpt lat="45.85541" lon="4.37317">
        <ele>837.6</ele>
        <time>2025-09-09T15:25:46Z</time>
      </trkpt>
      <trkpt lat="45.8554" lon="4.37317">
        <ele>837.6</ele>
        <time>2025-09-09T15:25:47Z</time>
      </trkpt>
      <trkpt lat="45.85538" lon="4.37316">
        <ele>837.6</ele>
        <time>2025-09-09T15:25:48Z</time>
      </trkpt>
      <trkpt lat="45.85537" lon="4.37316">
        <ele>838</ele>
        <time>2025-09-09T15:25:49Z</time>
      </trkpt>
      <trkpt lat="45.85535" lon="4.37315">
        <ele>838.2</ele>
        <time>2025-09-09T15:25:50Z</time>
      </trkpt>
      <trkpt lat="45.85534" lon="4.37314">
        <ele>838.4</ele>
        <time>2025-09-09T15:25:51Z</time>
      </trkpt>
      <trkpt lat="45.85532" lon="4.37313">
        <ele>838.4</ele>
        <time>2025-09-09T15:25:52Z</time>
      </trkpt>
      <trkpt lat="45.85531" lon="4.37312">
        <ele>838.8</ele>
        <time>2025-09-09T15:25:53Z</time>
      </trkpt>
      <trkpt lat="45.8553" lon="4.37312">
        <ele>838.8</ele>
        <time>2025-09-09T15:25:54Z</time>
      </trkpt>
      <trkpt lat="45.85529" lon="4.37311">
        <ele>838.8</ele>
        <time>2025-09-09T15:25:55Z</time>
      </trkpt>
      <trkpt lat="45.85527" lon="4.3731">
        <ele>839.2</ele>
        <time>2025-09-09T15:25:56Z</time>
      </trkpt>
      <trkpt lat="45.85525" lon="4.37309">
        <ele>839.2</ele>
        <time>2025-09-09T15:25:57Z</time>
      </trkpt>
      <trkpt lat="45.85523" lon="4.37309">
        <ele>839.4</ele>
        <time>2025-09-09T15:25:58Z</time>
      </trkpt>
      <trkpt lat="45.85522" lon="4.37308">
        <ele>839.4</ele>
        <time>2025-09-09T15:25:59Z</time>
      </trkpt>
      <trkpt lat="45.85521" lon="4.37307">
        <ele>839.6</ele>
        <time>2025-09-09T15:26:00Z</time>
      </trkpt>
      <trkpt lat="45.85519" lon="4.37306">
        <ele>839.6</ele>
        <time>2025-09-09T15:26:01Z</time>
      </trkpt>
      <trkpt lat="45.85518" lon="4.37305">
        <ele>839.6</ele>
        <time>2025-09-09T15:26:02Z</time>
      </trkpt>
      <trkpt lat="45.85516" lon="4.37304">
        <ele>839.8</ele>
        <time>2025-09-09T15:26:03Z</time>
      </trkpt>
      <trkpt lat="45.85515" lon="4.37302">
        <ele>839.8</ele>
        <time>2025-09-09T15:26:04Z</time>
      </trkpt>
      <trkpt lat="45.85514" lon="4.37301">
        <ele>840.2</ele>
        <time>2025-09-09T15:26:05Z</time>
      </trkpt>
      <trkpt lat="45.85512" lon="4.37299">
        <ele>840.2</ele>
        <time>2025-09-09T15:26:06Z</time>
      </trkpt>
      <trkpt lat="45.85511" lon="4.37298">
        <ele>840.2</ele>
        <time>2025-09-09T15:26:07Z</time>
      </trkpt>
      <trkpt lat="45.85509" lon="4.37297">
        <ele>840.2</ele>
        <time>2025-09-09T15:26:08Z</time>
      </trkpt>
      <trkpt lat="45.85508" lon="4.37296">
        <ele>840.4</ele>
        <time>2025-09-09T15:26:09Z</time>
      </trkpt>
      <trkpt lat="45.85506" lon="4.37295">
        <ele>840.4</ele>
        <time>2025-09-09T15:26:10Z</time>
      </trkpt>
      <trkpt lat="45.85505" lon="4.37294">
        <ele>840.4</ele>
        <time>2025-09-09T15:26:11Z</time>
      </trkpt>
      <trkpt lat="45.85503" lon="4.37292">
        <ele>840.6</ele>
        <time>2025-09-09T15:26:12Z</time>
      </trkpt>
      <trkpt lat="45.85502" lon="4.37292">
        <ele>840.6</ele>
        <time>2025-09-09T15:26:13Z</time>
      </trkpt>
      <trkpt lat="45.855" lon="4.37291">
        <ele>840.6</ele>
        <time>2025-09-09T15:26:14Z</time>
      </trkpt>
      <trkpt lat="45.85499" lon="4.3729">
        <ele>841</ele>
        <time>2025-09-09T15:26:15Z</time>
      </trkpt>
      <trkpt lat="45.85498" lon="4.37289">
        <ele>841</ele>
        <time>2025-09-09T15:26:16Z</time>
      </trkpt>
      <trkpt lat="45.85497" lon="4.37288">
        <ele>841</ele>
        <time>2025-09-09T15:26:17Z</time>
      </trkpt>
      <trkpt lat="45.85495" lon="4.37287">
        <ele>841</ele>
        <time>2025-09-09T15:26:18Z</time>
      </trkpt>
      <trkpt lat="45.85494" lon="4.37286">
        <ele>841.2</ele>
        <time>2025-09-09T15:26:19Z</time>
      </trkpt>
      <trkpt lat="45.85493" lon="4.37285">
        <ele>841.4</ele>
        <time>2025-09-09T15:26:20Z</time>
      </trkpt>
      <trkpt lat="45.85491" lon="4.37284">
        <ele>841.4</ele>
        <time>2025-09-09T15:26:21Z</time>
      </trkpt>
      <trkpt lat="45.8549" lon="4.37282">
        <ele>841.4</ele>
        <time>2025-09-09T15:26:22Z</time>
      </trkpt>
      <trkpt lat="45.85489" lon="4.37282">
        <ele>841.4</ele>
        <time>2025-09-09T15:26:23Z</time>
      </trkpt>
      <trkpt lat="45.85487" lon="4.3728">
        <ele>841.8</ele>
        <time>2025-09-09T15:26:24Z</time>
      </trkpt>
      <trkpt lat="45.85486" lon="4.37279">
        <ele>842.2</ele>
        <time>2025-09-09T15:26:25Z</time>
      </trkpt>
      <trkpt lat="45.85485" lon="4.37277">
        <ele>842.2</ele>
        <time>2025-09-09T15:26:26Z</time>
      </trkpt>
      <trkpt lat="45.85483" lon="4.37276">
        <ele>842.4</ele>
        <time>2025-09-09T15:26:27Z</time>
      </trkpt>
      <trkpt lat="45.85482" lon="4.37275">
        <ele>842.4</ele>
        <time>2025-09-09T15:26:28Z</time>
      </trkpt>
      <trkpt lat="45.85481" lon="4.37273">
        <ele>842.6</ele>
        <time>2025-09-09T15:26:29Z</time>
      </trkpt>
      <trkpt lat="45.8548" lon="4.37272">
        <ele>842.6</ele>
        <time>2025-09-09T15:26:30Z</time>
      </trkpt>
      <trkpt lat="45.85479" lon="4.37271">
        <ele>843</ele>
        <time>2025-09-09T15:26:31Z</time>
      </trkpt>
      <trkpt lat="45.85478" lon="4.37269">
        <ele>843</ele>
        <time>2025-09-09T15:26:32Z</time>
      </trkpt>
      <trkpt lat="45.85476" lon="4.37268">
        <ele>843</ele>
        <time>2025-09-09T15:26:33Z</time>
      </trkpt>
      <trkpt lat="45.85474" lon="4.37266">
        <ele>843</ele>
        <time>2025-09-09T15:26:34Z</time>
      </trkpt>
      <trkpt lat="45.85473" lon="4.37265">
        <ele>843.2</ele>
        <time>2025-09-09T15:26:35Z</time>
      </trkpt>
      <trkpt lat="45.85472" lon="4.37264">
        <ele>843.2</ele>
        <time>2025-09-09T15:26:36Z</time>
      </trkpt>
      <trkpt lat="45.85471" lon="4.37263">
        <ele>843.2</ele>
        <time>2025-09-09T15:26:37Z</time>
      </trkpt>
      <trkpt lat="45.8547" lon="4.37261">
        <ele>843.6</ele>
        <time>2025-09-09T15:26:38Z</time>
      </trkpt>
      <trkpt lat="45.85469" lon="4.37259">
        <ele>843.6</ele>
        <time>2025-09-09T15:26:39Z</time>
      </trkpt>
      <trkpt lat="45.85469" lon="4.37258">
        <ele>843.6</ele>
        <time>2025-09-09T15:26:40Z</time>
      </trkpt>
      <trkpt lat="45.85469" lon="4.37256">
        <ele>844</ele>
        <time>2025-09-09T15:26:41Z</time>
      </trkpt>
      <trkpt lat="45.85468" lon="4.37254">
        <ele>844</ele>
        <time>2025-09-09T15:26:42Z</time>
      </trkpt>
      <trkpt lat="45.85468" lon="4.37252">
        <ele>844</ele>
        <time>2025-09-09T15:26:43Z</time>
      </trkpt>
      <trkpt lat="45.85467" lon="4.3725">
        <ele>844.2</ele>
        <time>2025-09-09T15:26:44Z</time>
      </trkpt>
      <trkpt lat="45.85466" lon="4.37248">
        <ele>844.2</ele>
        <time>2025-09-09T15:26:45Z</time>
      </trkpt>
      <trkpt lat="45.85466" lon="4.37245">
        <ele>844.4</ele>
        <time>2025-09-09T15:26:46Z</time>
      </trkpt>
      <trkpt lat="45.85466" lon="4.37243">
        <ele>844.4</ele>
        <time>2025-09-09T15:26:47Z</time>
      </trkpt>
      <trkpt lat="45.85466" lon="4.37241">
        <ele>844.4</ele>
        <time>2025-09-09T15:26:48Z</time>
      </trkpt>
      <trkpt lat="45.85466" lon="4.37238">
        <ele>844.6</ele>
        <time>2025-09-09T15:26:49Z</time>
      </trkpt>
      <trkpt lat="45.85465" lon="4.37236">
        <ele>844.6</ele>
        <time>2025-09-09T15:26:50Z</time>
      </trkpt>
      <trkpt lat="45.85465" lon="4.37234">
        <ele>844.6</ele>
        <time>2025-09-09T15:26:51Z</time>
      </trkpt>
      <trkpt lat="45.85465" lon="4.37231">
        <ele>844.6</ele>
        <time>2025-09-09T15:26:52Z</time>
      </trkpt>
      <trkpt lat="45.85466" lon="4.37229">
        <ele>845</ele>
        <time>2025-09-09T15:26:53Z</time>
      </trkpt>
      <trkpt lat="45.85466" lon="4.37227">
        <ele>845</ele>
        <time>2025-09-09T15:26:54Z</time>
      </trkpt>
      <trkpt lat="45.85467" lon="4.37225">
        <ele>845.4</ele>
        <time>2025-09-09T15:26:55Z</time>
      </trkpt>
      <trkpt lat="45.85467" lon="4.37223">
        <ele>845.4</ele>
        <time>2025-09-09T15:26:56Z</time>
      </trkpt>
      <trkpt lat="45.85468" lon="4.37221">
        <ele>845.4</ele>
        <time>2025-09-09T15:26:57Z</time>
      </trkpt>
      <trkpt lat="45.85469" lon="4.3722">
        <ele>845.6</ele>
        <time>2025-09-09T15:26:58Z</time>
      </trkpt>
      <trkpt lat="45.85469" lon="4.37218">
        <ele>845.6</ele>
        <time>2025-09-09T15:26:59Z</time>
      </trkpt>
      <trkpt lat="45.8547" lon="4.37216">
        <ele>845.6</ele>
        <time>2025-09-09T15:27:00Z</time>
      </trkpt>
      <trkpt lat="45.85471" lon="4.37214">
        <ele>845.6</ele>
        <time>2025-09-09T15:27:01Z</time>
      </trkpt>
      <trkpt lat="45.85471" lon="4.37212">
        <ele>845.8</ele>
        <time>2025-09-09T15:27:02Z</time>
      </trkpt>
      <trkpt lat="45.85471" lon="4.3721">
        <ele>845.8</ele>
        <time>2025-09-09T15:27:03Z</time>
      </trkpt>
      <trkpt lat="45.85471" lon="4.37209">
        <ele>846.2</ele>
        <time>2025-09-09T15:27:04Z</time>
      </trkpt>
      <trkpt lat="45.85472" lon="4.37207">
        <ele>846.2</ele>
        <time>2025-09-09T15:27:05Z</time>
      </trkpt>
      <trkpt lat="45.85473" lon="4.37206">
        <ele>846.2</ele>
        <time>2025-09-09T15:27:06Z</time>
      </trkpt>
      <trkpt lat="45.85474" lon="4.37204">
        <ele>846.2</ele>
        <time>2025-09-09T15:27:07Z</time>
      </trkpt>
      <trkpt lat="45.85475" lon="4.37203">
        <ele>846.2</ele>
        <time>2025-09-09T15:27:08Z</time>
      </trkpt>
      <trkpt lat="45.85476" lon="4.37202">
        <ele>846.4</ele>
        <time>2025-09-09T15:27:09Z</time>
      </trkpt>
      <trkpt lat="45.85477" lon="4.372">
        <ele>846.4</ele>
        <time>2025-09-09T15:27:10Z</time>
      </trkpt>
      <trkpt lat="45.85477" lon="4.37199">
        <ele>846.4</ele>
        <time>2025-09-09T15:27:11Z</time>
      </trkpt>
      <trkpt lat="45.85477" lon="4.37197">
        <ele>846.6</ele>
        <time>2025-09-09T15:27:12Z</time>
      </trkpt>
      <trkpt lat="45.85477" lon="4.37195">
        <ele>846.6</ele>
        <time>2025-09-09T15:27:13Z</time>
      </trkpt>
      <trkpt lat="45.85477" lon="4.37195">
        <ele>846.6</ele>
        <time>2025-09-09T15:27:14Z</time>
      </trkpt>
      <trkpt lat="45.85477" lon="4.37193">
        <ele>846.8</ele>
        <time>2025-09-09T15:27:15Z</time>
      </trkpt>
      <trkpt lat="45.85478" lon="4.37191">
        <ele>846.8</ele>
        <time>2025-09-09T15:27:16Z</time>
      </trkpt>
      <trkpt lat="45.85479" lon="4.37189">
        <ele>846.8</ele>
        <time>2025-09-09T15:27:17Z</time>
      </trkpt>
      <trkpt lat="45.8548" lon="4.37187">
        <ele>847.2</ele>
        <time>2025-09-09T15:27:18Z</time>
      </trkpt>
      <trkpt lat="45.8548" lon="4.37185">
        <ele>847.2</ele>
        <time>2025-09-09T15:27:19Z</time>
      </trkpt>
      <trkpt lat="45.85481" lon="4.37183">
        <ele>847.2</ele>
        <time>2025-09-09T15:27:20Z</time>
      </trkpt>
      <trkpt lat="45.85482" lon="4.3718">
        <ele>847.2</ele>
        <time>2025-09-09T15:27:21Z</time>
      </trkpt>
      <trkpt lat="45.85483" lon="4.37178">
        <ele>847.4</ele>
        <time>2025-09-09T15:27:22Z</time>
      </trkpt>
      <trkpt lat="45.85483" lon="4.37177">
        <ele>847.4</ele>
        <time>2025-09-09T15:27:23Z</time>
      </trkpt>
      <trkpt lat="45.85484" lon="4.37174">
        <ele>847.4</ele>
        <time>2025-09-09T15:27:24Z</time>
      </trkpt>
      <trkpt lat="45.85485" lon="4.37172">
        <ele>847.6</ele>
        <time>2025-09-09T15:27:25Z</time>
      </trkpt>
      <trkpt lat="45.85485" lon="4.37169">
        <ele>847.6</ele>
        <time>2025-09-09T15:27:26Z</time>
      </trkpt>
      <trkpt lat="45.85485" lon="4.37168">
        <ele>847.6</ele>
        <time>2025-09-09T15:27:27Z</time>
      </trkpt>
      <trkpt lat="45.85486" lon="4.37165">
        <ele>847.6</ele>
        <time>2025-09-09T15:27:28Z</time>
      </trkpt>
      <trkpt lat="45.85487" lon="4.37163">
        <ele>848.2</ele>
        <time>2025-09-09T15:27:29Z</time>
      </trkpt>
      <trkpt lat="45.85487" lon="4.37161">
        <ele>848.2</ele>
        <time>2025-09-09T15:27:30Z</time>
      </trkpt>
      <trkpt lat="45.85488" lon="4.37159">
        <ele>848.4</ele>
        <time>2025-09-09T15:27:31Z</time>
      </trkpt>
      <trkpt lat="45.85488" lon="4.37157">
        <ele>848.4</ele>
        <time>2025-09-09T15:27:32Z</time>
      </trkpt>
      <trkpt lat="45.85488" lon="4.37154">
        <ele>848.8</ele>
        <time>2025-09-09T15:27:33Z</time>
      </trkpt>
      <trkpt lat="45.85489" lon="4.37153">
        <ele>848.8</ele>
        <time>2025-09-09T15:27:34Z</time>
      </trkpt>
      <trkpt lat="45.85489" lon="4.37151">
        <ele>848.8</ele>
        <time>2025-09-09T15:27:35Z</time>
      </trkpt>
      <trkpt lat="45.85489" lon="4.37149">
        <ele>848.8</ele>
        <time>2025-09-09T15:27:36Z</time>
      </trkpt>
      <trkpt lat="45.85489" lon="4.37148">
        <ele>849.2</ele>
        <time>2025-09-09T15:27:37Z</time>
      </trkpt>
      <trkpt lat="45.85489" lon="4.37145">
        <ele>849.2</ele>
        <time>2025-09-09T15:27:38Z</time>
      </trkpt>
      <trkpt lat="45.8549" lon="4.37143">
        <ele>849.4</ele>
        <time>2025-09-09T15:27:39Z</time>
      </trkpt>
      <trkpt lat="45.85491" lon="4.37141">
        <ele>849.4</ele>
        <time>2025-09-09T15:27:40Z</time>
      </trkpt>
      <trkpt lat="45.85493" lon="4.3714">
        <ele>849.4</ele>
        <time>2025-09-09T15:27:41Z</time>
      </trkpt>
      <trkpt lat="45.85494" lon="4.37139">
        <ele>849.4</ele>
        <time>2025-09-09T15:27:42Z</time>
      </trkpt>
      <trkpt lat="45.85496" lon="4.37137">
        <ele>849.8</ele>
        <time>2025-09-09T15:27:43Z</time>
      </trkpt>
      <trkpt lat="45.85497" lon="4.37136">
        <ele>849.8</ele>
        <time>2025-09-09T15:27:44Z</time>
      </trkpt>
      <trkpt lat="45.85498" lon="4.37134">
        <ele>849.8</ele>
        <time>2025-09-09T15:27:45Z</time>
      </trkpt>
      <trkpt lat="45.85499" lon="4.37132">
        <ele>849.8</ele>
        <time>2025-09-09T15:27:46Z</time>
      </trkpt>
      <trkpt lat="45.855" lon="4.3713">
        <ele>850.2</ele>
        <time>2025-09-09T15:27:47Z</time>
      </trkpt>
      <trkpt lat="45.85501" lon="4.37128">
        <ele>850.2</ele>
        <time>2025-09-09T15:27:48Z</time>
      </trkpt>
      <trkpt lat="45.85502" lon="4.37127">
        <ele>850.2</ele>
        <time>2025-09-09T15:27:49Z</time>
      </trkpt>
      <trkpt lat="45.85502" lon="4.37125">
        <ele>850.2</ele>
        <time>2025-09-09T15:27:50Z</time>
      </trkpt>
      <trkpt lat="45.85503" lon="4.37123">
        <ele>850.6</ele>
        <time>2025-09-09T15:27:51Z</time>
      </trkpt>
      <trkpt lat="45.85504" lon="4.37122">
        <ele>850.6</ele>
        <time>2025-09-09T15:27:52Z</time>
      </trkpt>
      <trkpt lat="45.85505" lon="4.3712">
        <ele>850.6</ele>
        <time>2025-09-09T15:27:53Z</time>
      </trkpt>
      <trkpt lat="45.85506" lon="4.37118">
        <ele>850.8</ele>
        <time>2025-09-09T15:27:54Z</time>
      </trkpt>
      <trkpt lat="45.85506" lon="4.37116">
        <ele>850.8</ele>
        <time>2025-09-09T15:27:55Z</time>
      </trkpt>
      <trkpt lat="45.85507" lon="4.37115">
        <ele>851</ele>
        <time>2025-09-09T15:27:56Z</time>
      </trkpt>
      <trkpt lat="45.85508" lon="4.37113">
        <ele>851</ele>
        <time>2025-09-09T15:27:57Z</time>
      </trkpt>
      <trkpt lat="45.85509" lon="4.3711">
        <ele>851</ele>
        <time>2025-09-09T15:27:58Z</time>
      </trkpt>
      <trkpt lat="45.85509" lon="4.37108">
        <ele>851.2</ele>
        <time>2025-09-09T15:27:59Z</time>
      </trkpt>
      <trkpt lat="45.8551" lon="4.37105">
        <ele>851.2</ele>
        <time>2025-09-09T15:28:00Z</time>
      </trkpt>
      <trkpt lat="45.8551" lon="4.37103">
        <ele>851.2</ele>
        <time>2025-09-09T15:28:01Z</time>
      </trkpt>
      <trkpt lat="45.85511" lon="4.37101">
        <ele>851.4</ele>
        <time>2025-09-09T15:28:02Z</time>
      </trkpt>
      <trkpt lat="45.85511" lon="4.37099">
        <ele>851.4</ele>
        <time>2025-09-09T15:28:03Z</time>
      </trkpt>
      <trkpt lat="45.85512" lon="4.37096">
        <ele>851.8</ele>
        <time>2025-09-09T15:28:04Z</time>
      </trkpt>
      <trkpt lat="45.85512" lon="4.37094">
        <ele>851.8</ele>
        <time>2025-09-09T15:28:05Z</time>
      </trkpt>
      <trkpt lat="45.85513" lon="4.37093">
        <ele>852</ele>
        <time>2025-09-09T15:28:06Z</time>
      </trkpt>
      <trkpt lat="45.85514" lon="4.37092">
        <ele>852</ele>
        <time>2025-09-09T15:28:07Z</time>
      </trkpt>
      <trkpt lat="45.85514" lon="4.37091">
        <ele>852</ele>
        <time>2025-09-09T15:28:08Z</time>
      </trkpt>
      <trkpt lat="45.85514" lon="4.3709">
        <ele>852.2</ele>
        <time>2025-09-09T15:28:09Z</time>
      </trkpt>
      <trkpt lat="45.85514" lon="4.37087">
        <ele>852.2</ele>
        <time>2025-09-09T15:28:10Z</time>
      </trkpt>
      <trkpt lat="45.85514" lon="4.37085">
        <ele>852.2</ele>
        <time>2025-09-09T15:28:11Z</time>
      </trkpt>
      <trkpt lat="45.85513" lon="4.37083">
        <ele>852.4</ele>
        <time>2025-09-09T15:28:12Z</time>
      </trkpt>
      <trkpt lat="45.85513" lon="4.3708">
        <ele>852.4</ele>
        <time>2025-09-09T15:28:13Z</time>
      </trkpt>
      <trkpt lat="45.85513" lon="4.37079">
        <ele>852.6</ele>
        <time>2025-09-09T15:28:14Z</time>
      </trkpt>
      <trkpt lat="45.85513" lon="4.37076">
        <ele>852.6</ele>
        <time>2025-09-09T15:28:15Z</time>
      </trkpt>
      <trkpt lat="45.85512" lon="4.37074">
        <ele>852.6</ele>
        <time>2025-09-09T15:28:16Z</time>
      </trkpt>
      <trkpt lat="45.85513" lon="4.37072">
        <ele>852.8</ele>
        <time>2025-09-09T15:28:17Z</time>
      </trkpt>
      <trkpt lat="45.85513" lon="4.3707">
        <ele>852.8</ele>
        <time>2025-09-09T15:28:18Z</time>
      </trkpt>
      <trkpt lat="45.85514" lon="4.37068">
        <ele>852.8</ele>
        <time>2025-09-09T15:28:19Z</time>
      </trkpt>
      <trkpt lat="45.85514" lon="4.37066">
        <ele>853</ele>
        <time>2025-09-09T15:28:20Z</time>
      </trkpt>
      <trkpt lat="45.85515" lon="4.37064">
        <ele>853</ele>
        <time>2025-09-09T15:28:21Z</time>
      </trkpt>
      <trkpt lat="45.85516" lon="4.37062">
        <ele>853.2</ele>
        <time>2025-09-09T15:28:22Z</time>
      </trkpt>
      <trkpt lat="45.85516" lon="4.3706">
        <ele>853.2</ele>
        <time>2025-09-09T15:28:23Z</time>
      </trkpt>
      <trkpt lat="45.85517" lon="4.37059">
        <ele>853.2</ele>
        <time>2025-09-09T15:28:24Z</time>
      </trkpt>
      <trkpt lat="45.85517" lon="4.37058">
        <ele>853.2</ele>
        <time>2025-09-09T15:28:25Z</time>
      </trkpt>
      <trkpt lat="45.85517" lon="4.37056">
        <ele>853.4</ele>
        <time>2025-09-09T15:28:26Z</time>
      </trkpt>
      <trkpt lat="45.85517" lon="4.37054">
        <ele>853.4</ele>
        <time>2025-09-09T15:28:27Z</time>
      </trkpt>
      <trkpt lat="45.85517" lon="4.37052">
        <ele>853.4</ele>
        <time>2025-09-09T15:28:28Z</time>
      </trkpt>
      <trkpt lat="45.85517" lon="4.37051">
        <ele>853.4</ele>
        <time>2025-09-09T15:28:29Z</time>
      </trkpt>
      <trkpt lat="45.85518" lon="4.37048">
        <ele>853.8</ele>
        <time>2025-09-09T15:28:30Z</time>
      </trkpt>
      <trkpt lat="45.85517" lon="4.37046">
        <ele>853.8</ele>
        <time>2025-09-09T15:28:31Z</time>
      </trkpt>
      <trkpt lat="45.85517" lon="4.37044">
        <ele>853.8</ele>
        <time>2025-09-09T15:28:32Z</time>
      </trkpt>
      <trkpt lat="45.85516" lon="4.37042">
        <ele>854</ele>
        <time>2025-09-09T15:28:33Z</time>
      </trkpt>
      <trkpt lat="45.85516" lon="4.37041">
        <ele>854</ele>
        <time>2025-09-09T15:28:34Z</time>
      </trkpt>
      <trkpt lat="45.85516" lon="4.37039">
        <ele>854</ele>
        <time>2025-09-09T15:28:35Z</time>
      </trkpt>
      <trkpt lat="45.85516" lon="4.37036">
        <ele>854</ele>
        <time>2025-09-09T15:28:36Z</time>
      </trkpt>
      <trkpt lat="45.85516" lon="4.37034">
        <ele>854.2</ele>
        <time>2025-09-09T15:28:37Z</time>
      </trkpt>
      <trkpt lat="45.85517" lon="4.37032">
        <ele>854.2</ele>
        <time>2025-09-09T15:28:38Z</time>
      </trkpt>
      <trkpt lat="45.85517" lon="4.3703">
        <ele>854.2</ele>
        <time>2025-09-09T15:28:39Z</time>
      </trkpt>
      <trkpt lat="45.85517" lon="4.37028">
        <ele>854.8</ele>
        <time>2025-09-09T15:28:40Z</time>
      </trkpt>
      <trkpt lat="45.85516" lon="4.37027">
        <ele>854.8</ele>
        <time>2025-09-09T15:28:41Z</time>
      </trkpt>
      <trkpt lat="45.85516" lon="4.37025">
        <ele>854.8</ele>
        <time>2025-09-09T15:28:42Z</time>
      </trkpt>
      <trkpt lat="45.85516" lon="4.37023">
        <ele>854.8</ele>
        <time>2025-09-09T15:28:43Z</time>
      </trkpt>
      <trkpt lat="45.85516" lon="4.37021">
        <ele>855</ele>
        <time>2025-09-09T15:28:44Z</time>
      </trkpt>
      <trkpt lat="45.85516" lon="4.37019">
        <ele>855</ele>
        <time>2025-09-09T15:28:45Z</time>
      </trkpt>
      <trkpt lat="45.85516" lon="4.37017">
        <ele>855</ele>
        <time>2025-09-09T15:28:46Z</time>
      </trkpt>
      <trkpt lat="45.85516" lon="4.37015">
        <ele>855</ele>
        <time>2025-09-09T15:28:47Z</time>
      </trkpt>
      <trkpt lat="45.85516" lon="4.37013">
        <ele>855</ele>
        <time>2025-09-09T15:28:48Z</time>
      </trkpt>
      <trkpt lat="45.85515" lon="4.37011">
        <ele>855.2</ele>
        <time>2025-09-09T15:28:49Z</time>
      </trkpt>
      <trkpt lat="45.85515" lon="4.37009">
        <ele>855.2</ele>
        <time>2025-09-09T15:28:50Z</time>
      </trkpt>
      <trkpt lat="45.85515" lon="4.37007">
        <ele>855.4</ele>
        <time>2025-09-09T15:28:51Z</time>
      </trkpt>
      <trkpt lat="45.85514" lon="4.37004">
        <ele>855.4</ele>
        <time>2025-09-09T15:28:52Z</time>
      </trkpt>
      <trkpt lat="45.85513" lon="4.37002">
        <ele>855.4</ele>
        <time>2025-09-09T15:28:53Z</time>
      </trkpt>
      <trkpt lat="45.85512" lon="4.37001">
        <ele>856</ele>
        <time>2025-09-09T15:28:54Z</time>
      </trkpt>
      <trkpt lat="45.85512" lon="4.36999">
        <ele>856</ele>
        <time>2025-09-09T15:28:55Z</time>
      </trkpt>
      <trkpt lat="45.85512" lon="4.36997">
        <ele>856.2</ele>
        <time>2025-09-09T15:28:56Z</time>
      </trkpt>
      <trkpt lat="45.85512" lon="4.36992">
        <ele>856.2</ele>
        <time>2025-09-09T15:28:57Z</time>
      </trkpt>
      <trkpt lat="45.85512" lon="4.36988">
        <ele>856.2</ele>
        <time>2025-09-09T15:28:58Z</time>
      </trkpt>
      <trkpt lat="45.85512" lon="4.36985">
        <ele>856.4</ele>
        <time>2025-09-09T15:28:59Z</time>
      </trkpt>
      <trkpt lat="45.85512" lon="4.36983">
        <ele>856.4</ele>
        <time>2025-09-09T15:29:00Z</time>
      </trkpt>
      <trkpt lat="45.85511" lon="4.36981">
        <ele>856.4</ele>
        <time>2025-09-09T15:29:01Z</time>
      </trkpt>
      <trkpt lat="45.85511" lon="4.36979">
        <ele>856.8</ele>
        <time>2025-09-09T15:29:02Z</time>
      </trkpt>
      <trkpt lat="45.85511" lon="4.36977">
        <ele>856.8</ele>
        <time>2025-09-09T15:29:03Z</time>
      </trkpt>
      <trkpt lat="45.8551" lon="4.36975">
        <ele>857</ele>
        <time>2025-09-09T15:29:04Z</time>
      </trkpt>
      <trkpt lat="45.8551" lon="4.36972">
        <ele>857</ele>
        <time>2025-09-09T15:29:05Z</time>
      </trkpt>
      <trkpt lat="45.85509" lon="4.36971">
        <ele>857</ele>
        <time>2025-09-09T15:29:06Z</time>
      </trkpt>
      <trkpt lat="45.85509" lon="4.36969">
        <ele>857.2</ele>
        <time>2025-09-09T15:29:07Z</time>
      </trkpt>
      <trkpt lat="45.85508" lon="4.36967">
        <ele>857.2</ele>
        <time>2025-09-09T15:29:08Z</time>
      </trkpt>
      <trkpt lat="45.85507" lon="4.36965">
        <ele>857.2</ele>
        <time>2025-09-09T15:29:09Z</time>
      </trkpt>
      <trkpt lat="45.85506" lon="4.36963">
        <ele>857.4</ele>
        <time>2025-09-09T15:29:10Z</time>
      </trkpt>
      <trkpt lat="45.85505" lon="4.36961">
        <ele>857.4</ele>
        <time>2025-09-09T15:29:11Z</time>
      </trkpt>
      <trkpt lat="45.85505" lon="4.36959">
        <ele>857.4</ele>
        <time>2025-09-09T15:29:12Z</time>
      </trkpt>
      <trkpt lat="45.85505" lon="4.36957">
        <ele>857.8</ele>
        <time>2025-09-09T15:29:13Z</time>
      </trkpt>
      <trkpt lat="45.85505" lon="4.36955">
        <ele>857.8</ele>
        <time>2025-09-09T15:29:14Z</time>
      </trkpt>
      <trkpt lat="45.85504" lon="4.36953">
        <ele>858</ele>
        <time>2025-09-09T15:29:15Z</time>
      </trkpt>
      <trkpt lat="45.85504" lon="4.36951">
        <ele>858</ele>
        <time>2025-09-09T15:29:16Z</time>
      </trkpt>
      <trkpt lat="45.85504" lon="4.36949">
        <ele>858</ele>
        <time>2025-09-09T15:29:17Z</time>
      </trkpt>
      <trkpt lat="45.85503" lon="4.36947">
        <ele>858.6</ele>
        <time>2025-09-09T15:29:18Z</time>
      </trkpt>
      <trkpt lat="45.85503" lon="4.36945">
        <ele>858.6</ele>
        <time>2025-09-09T15:29:19Z</time>
      </trkpt>
      <trkpt lat="45.85503" lon="4.36942">
        <ele>858.8</ele>
        <time>2025-09-09T15:29:20Z</time>
      </trkpt>
      <trkpt lat="45.85502" lon="4.3694">
        <ele>858.8</ele>
        <time>2025-09-09T15:29:21Z</time>
      </trkpt>
      <trkpt lat="45.85502" lon="4.36938">
        <ele>858.8</ele>
        <time>2025-09-09T15:29:22Z</time>
      </trkpt>
      <trkpt lat="45.85501" lon="4.36936">
        <ele>859.2</ele>
        <time>2025-09-09T15:29:23Z</time>
      </trkpt>
      <trkpt lat="45.85501" lon="4.36934">
        <ele>859.6</ele>
        <time>2025-09-09T15:29:24Z</time>
      </trkpt>
      <trkpt lat="45.85501" lon="4.36934">
        <ele>859.6</ele>
        <time>2025-09-09T15:29:25Z</time>
      </trkpt>
      <trkpt lat="45.85501" lon="4.36934">
        <ele>859.6</ele>
        <time>2025-09-09T15:29:26Z</time>
      </trkpt>
      <trkpt lat="45.85497" lon="4.36927">
        <ele>859.6</ele>
        <time>2025-09-09T15:29:28Z</time>
      </trkpt>
      <trkpt lat="45.85497" lon="4.36925">
        <ele>859.6</ele>
        <time>2025-09-09T15:29:29Z</time>
      </trkpt>
      <trkpt lat="45.85496" lon="4.36923">
        <ele>859.8</ele>
        <time>2025-09-09T15:29:30Z</time>
      </trkpt>
      <trkpt lat="45.85496" lon="4.36921">
        <ele>859.8</ele>
        <time>2025-09-09T15:29:31Z</time>
      </trkpt>
      <trkpt lat="45.85496" lon="4.36918">
        <ele>860</ele>
        <time>2025-09-09T15:29:32Z</time>
      </trkpt>
      <trkpt lat="45.85496" lon="4.36916">
        <ele>860</ele>
        <time>2025-09-09T15:29:33Z</time>
      </trkpt>
      <trkpt lat="45.85496" lon="4.36913">
        <ele>860</ele>
        <time>2025-09-09T15:29:34Z</time>
      </trkpt>
      <trkpt lat="45.85496" lon="4.3691">
        <ele>860</ele>
        <time>2025-09-09T15:29:35Z</time>
      </trkpt>
      <trkpt lat="45.85496" lon="4.36907">
        <ele>860</ele>
        <time>2025-09-09T15:29:36Z</time>
      </trkpt>
      <trkpt lat="45.85496" lon="4.36904">
        <ele>860.2</ele>
        <time>2025-09-09T15:29:37Z</time>
      </trkpt>
      <trkpt lat="45.85496" lon="4.36901">
        <ele>860.2</ele>
        <time>2025-09-09T15:29:38Z</time>
      </trkpt>
      <trkpt lat="45.85495" lon="4.36899">
        <ele>860.2</ele>
        <time>2025-09-09T15:29:39Z</time>
      </trkpt>
      <trkpt lat="45.85495" lon="4.36896">
        <ele>860.2</ele>
        <time>2025-09-09T15:29:40Z</time>
      </trkpt>
      <trkpt lat="45.85494" lon="4.36893">
        <ele>860.2</ele>
        <time>2025-09-09T15:29:41Z</time>
      </trkpt>
      <trkpt lat="45.85493" lon="4.3689">
        <ele>860.2</ele>
        <time>2025-09-09T15:29:42Z</time>
      </trkpt>
      <trkpt lat="45.85493" lon="4.36888">
        <ele>860.6</ele>
        <time>2025-09-09T15:29:43Z</time>
      </trkpt>
      <trkpt lat="45.85492" lon="4.36885">
        <ele>860.8</ele>
        <time>2025-09-09T15:29:44Z</time>
      </trkpt>
      <trkpt lat="45.85492" lon="4.36882">
        <ele>860.8</ele>
        <time>2025-09-09T15:29:45Z</time>
      </trkpt>
      <trkpt lat="45.85491" lon="4.36879">
        <ele>860.8</ele>
        <time>2025-09-09T15:29:46Z</time>
      </trkpt>
      <trkpt lat="45.85491" lon="4.36875">
        <ele>860.8</ele>
        <time>2025-09-09T15:29:47Z</time>
      </trkpt>
      <trkpt lat="45.85491" lon="4.36871">
        <ele>861.2</ele>
        <time>2025-09-09T15:29:48Z</time>
      </trkpt>
      <trkpt lat="45.8549" lon="4.36868">
        <ele>861.2</ele>
        <time>2025-09-09T15:29:49Z</time>
      </trkpt>
      <trkpt lat="45.8549" lon="4.36864">
        <ele>861.2</ele>
        <time>2025-09-09T15:29:50Z</time>
      </trkpt>
      <trkpt lat="45.85489" lon="4.36861">
        <ele>861.2</ele>
        <time>2025-09-09T15:29:51Z</time>
      </trkpt>
      <trkpt lat="45.85488" lon="4.36857">
        <ele>861.2</ele>
        <time>2025-09-09T15:29:52Z</time>
      </trkpt>
      <trkpt lat="45.85488" lon="4.36853">
        <ele>861.4</ele>
        <time>2025-09-09T15:29:53Z</time>
      </trkpt>
      <trkpt lat="45.85487" lon="4.36849">
        <ele>861.4</ele>
        <time>2025-09-09T15:29:54Z</time>
      </trkpt>
      <trkpt lat="45.85487" lon="4.36845">
        <ele>861.4</ele>
        <time>2025-09-09T15:29:55Z</time>
      </trkpt>
      <trkpt lat="45.85486" lon="4.36842">
        <ele>861.6</ele>
        <time>2025-09-09T15:29:56Z</time>
      </trkpt>
      <trkpt lat="45.85485" lon="4.36838">
        <ele>861.6</ele>
        <time>2025-09-09T15:29:57Z</time>
      </trkpt>
      <trkpt lat="45.85485" lon="4.36834">
        <ele>861.6</ele>
        <time>2025-09-09T15:29:58Z</time>
      </trkpt>
      <trkpt lat="45.85485" lon="4.36829">
        <ele>861.4</ele>
        <time>2025-09-09T15:29:59Z</time>
      </trkpt>
      <trkpt lat="45.85484" lon="4.36825">
        <ele>861.4</ele>
        <time>2025-09-09T15:30:00Z</time>
      </trkpt>
      <trkpt lat="45.85484" lon="4.36822">
        <ele>861.4</ele>
        <time>2025-09-09T15:30:01Z</time>
      </trkpt>
      <trkpt lat="45.85483" lon="4.36818">
        <ele>861.6</ele>
        <time>2025-09-09T15:30:02Z</time>
      </trkpt>
      <trkpt lat="45.85483" lon="4.36816">
        <ele>861.6</ele>
        <time>2025-09-09T15:30:03Z</time>
      </trkpt>
      <trkpt lat="45.85482" lon="4.36813">
        <ele>861.6</ele>
        <time>2025-09-09T15:30:04Z</time>
      </trkpt>
      <trkpt lat="45.85482" lon="4.3681">
        <ele>861.6</ele>
        <time>2025-09-09T15:30:05Z</time>
      </trkpt>
      <trkpt lat="45.85482" lon="4.36807">
        <ele>861.6</ele>
        <time>2025-09-09T15:30:06Z</time>
      </trkpt>
      <trkpt lat="45.85482" lon="4.36803">
        <ele>861.6</ele>
        <time>2025-09-09T15:30:07Z</time>
      </trkpt>
      <trkpt lat="45.85481" lon="4.368">
        <ele>862</ele>
        <time>2025-09-09T15:30:08Z</time>
      </trkpt>
      <trkpt lat="45.85481" lon="4.36796">
        <ele>862</ele>
        <time>2025-09-09T15:30:09Z</time>
      </trkpt>
      <trkpt lat="45.8548" lon="4.36792">
        <ele>862</ele>
        <time>2025-09-09T15:30:10Z</time>
      </trkpt>
      <trkpt lat="45.8548" lon="4.36788">
        <ele>862</ele>
        <time>2025-09-09T15:30:11Z</time>
      </trkpt>
      <trkpt lat="45.85479" lon="4.36784">
        <ele>862.2</ele>
        <time>2025-09-09T15:30:12Z</time>
      </trkpt>
      <trkpt lat="45.85479" lon="4.3678">
        <ele>862.2</ele>
        <time>2025-09-09T15:30:13Z</time>
      </trkpt>
      <trkpt lat="45.85478" lon="4.36775">
        <ele>862.2</ele>
        <time>2025-09-09T15:30:14Z</time>
      </trkpt>
      <trkpt lat="45.85478" lon="4.36771">
        <ele>862.2</ele>
        <time>2025-09-09T15:30:15Z</time>
      </trkpt>
      <trkpt lat="45.85478" lon="4.36766">
        <ele>862.2</ele>
        <time>2025-09-09T15:30:16Z</time>
      </trkpt>
      <trkpt lat="45.85477" lon="4.36762">
        <ele>862.2</ele>
        <time>2025-09-09T15:30:17Z</time>
      </trkpt>
      <trkpt lat="45.85477" lon="4.36758">
        <ele>862.2</ele>
        <time>2025-09-09T15:30:18Z</time>
      </trkpt>
      <trkpt lat="45.85476" lon="4.36753">
        <ele>862.2</ele>
        <time>2025-09-09T15:30:19Z</time>
      </trkpt>
      <trkpt lat="45.85476" lon="4.36748">
        <ele>862.2</ele>
        <time>2025-09-09T15:30:20Z</time>
      </trkpt>
      <trkpt lat="45.85476" lon="4.36744">
        <ele>862.2</ele>
        <time>2025-09-09T15:30:21Z</time>
      </trkpt>
      <trkpt lat="45.85476" lon="4.36739">
        <ele>862.2</ele>
        <time>2025-09-09T15:30:22Z</time>
      </trkpt>
      <trkpt lat="45.85476" lon="4.36735">
        <ele>862.2</ele>
        <time>2025-09-09T15:30:23Z</time>
      </trkpt>
      <trkpt lat="45.85477" lon="4.36731">
        <ele>862.2</ele>
        <time>2025-09-09T15:30:24Z</time>
      </trkpt>
      <trkpt lat="45.85477" lon="4.36726">
        <ele>862.2</ele>
        <time>2025-09-09T15:30:25Z</time>
      </trkpt>
      <trkpt lat="45.85477" lon="4.36717">
        <ele>862.2</ele>
        <time>2025-09-09T15:30:26Z</time>
      </trkpt>
      <trkpt lat="45.85478" lon="4.36713">
        <ele>862.2</ele>
        <time>2025-09-09T15:30:27Z</time>
      </trkpt>
      <trkpt lat="45.85479" lon="4.36709">
        <ele>862.2</ele>
        <time>2025-09-09T15:30:28Z</time>
      </trkpt>
      <trkpt lat="45.8548" lon="4.36704">
        <ele>862.2</ele>
        <time>2025-09-09T15:30:29Z</time>
      </trkpt>
      <trkpt lat="45.8548" lon="4.367">
        <ele>862.4</ele>
        <time>2025-09-09T15:30:30Z</time>
      </trkpt>
      <trkpt lat="45.85482" lon="4.36696">
        <ele>862.4</ele>
        <time>2025-09-09T15:30:31Z</time>
      </trkpt>
      <trkpt lat="45.85483" lon="4.36693">
        <ele>862.4</ele>
        <time>2025-09-09T15:30:32Z</time>
      </trkpt>
      <trkpt lat="45.85484" lon="4.36689">
        <ele>862.4</ele>
        <time>2025-09-09T15:30:33Z</time>
      </trkpt>
      <trkpt lat="45.85485" lon="4.36685">
        <ele>862.8</ele>
        <time>2025-09-09T15:30:34Z</time>
      </trkpt>
      <trkpt lat="45.85485" lon="4.36682">
        <ele>862.8</ele>
        <time>2025-09-09T15:30:35Z</time>
      </trkpt>
      <trkpt lat="45.85486" lon="4.36679">
        <ele>863</ele>
        <time>2025-09-09T15:30:36Z</time>
      </trkpt>
      <trkpt lat="45.85487" lon="4.36675">
        <ele>863</ele>
        <time>2025-09-09T15:30:37Z</time>
      </trkpt>
      <trkpt lat="45.85488" lon="4.36673">
        <ele>863.4</ele>
        <time>2025-09-09T15:30:38Z</time>
      </trkpt>
      <trkpt lat="45.85489" lon="4.3667">
        <ele>863.4</ele>
        <time>2025-09-09T15:30:39Z</time>
      </trkpt>
      <trkpt lat="45.85489" lon="4.36666">
        <ele>863.4</ele>
        <time>2025-09-09T15:30:40Z</time>
      </trkpt>
      <trkpt lat="45.8549" lon="4.36662">
        <ele>863.4</ele>
        <time>2025-09-09T15:30:41Z</time>
      </trkpt>
      <trkpt lat="45.85491" lon="4.36658">
        <ele>863.4</ele>
        <time>2025-09-09T15:30:42Z</time>
      </trkpt>
      <trkpt lat="45.85492" lon="4.36655">
        <ele>863.6</ele>
        <time>2025-09-09T15:30:43Z</time>
      </trkpt>
      <trkpt lat="45.85493" lon="4.36651">
        <ele>863.6</ele>
        <time>2025-09-09T15:30:44Z</time>
      </trkpt>
      <trkpt lat="45.85494" lon="4.36648">
        <ele>863.8</ele>
        <time>2025-09-09T15:30:45Z</time>
      </trkpt>
      <trkpt lat="45.85495" lon="4.36645">
        <ele>863.8</ele>
        <time>2025-09-09T15:30:46Z</time>
      </trkpt>
      <trkpt lat="45.85496" lon="4.36642">
        <ele>863.8</ele>
        <time>2025-09-09T15:30:47Z</time>
      </trkpt>
      <trkpt lat="45.85497" lon="4.36639">
        <ele>863.8</ele>
        <time>2025-09-09T15:30:48Z</time>
      </trkpt>
      <trkpt lat="45.85498" lon="4.36636">
        <ele>863.8</ele>
        <time>2025-09-09T15:30:49Z</time>
      </trkpt>
      <trkpt lat="45.85498" lon="4.36633">
        <ele>864.2</ele>
        <time>2025-09-09T15:30:50Z</time>
      </trkpt>
      <trkpt lat="45.85499" lon="4.36629">
        <ele>864.2</ele>
        <time>2025-09-09T15:30:51Z</time>
      </trkpt>
      <trkpt lat="45.855" lon="4.36626">
        <ele>864.2</ele>
        <time>2025-09-09T15:30:52Z</time>
      </trkpt>
      <trkpt lat="45.85501" lon="4.36623">
        <ele>864.2</ele>
        <time>2025-09-09T15:30:53Z</time>
      </trkpt>
      <trkpt lat="45.85502" lon="4.3662">
        <ele>864.4</ele>
        <time>2025-09-09T15:30:54Z</time>
      </trkpt>
      <trkpt lat="45.85503" lon="4.36617">
        <ele>864.6</ele>
        <time>2025-09-09T15:30:55Z</time>
      </trkpt>
      <trkpt lat="45.85503" lon="4.36613">
        <ele>864.6</ele>
        <time>2025-09-09T15:30:56Z</time>
      </trkpt>
      <trkpt lat="45.85504" lon="4.36611">
        <ele>864.6</ele>
        <time>2025-09-09T15:30:57Z</time>
      </trkpt>
      <trkpt lat="45.85505" lon="4.36608">
        <ele>864.6</ele>
        <time>2025-09-09T15:30:58Z</time>
      </trkpt>
      <trkpt lat="45.85505" lon="4.36605">
        <ele>864.6</ele>
        <time>2025-09-09T15:30:59Z</time>
      </trkpt>
      <trkpt lat="45.85507" lon="4.36601">
        <ele>865</ele>
        <time>2025-09-09T15:31:00Z</time>
      </trkpt>
      <trkpt lat="45.85507" lon="4.36598">
        <ele>865</ele>
        <time>2025-09-09T15:31:01Z</time>
      </trkpt>
      <trkpt lat="45.85508" lon="4.36594">
        <ele>865.2</ele>
        <time>2025-09-09T15:31:02Z</time>
      </trkpt>
      <trkpt lat="45.85509" lon="4.36589">
        <ele>865.2</ele>
        <time>2025-09-09T15:31:03Z</time>
      </trkpt>
      <trkpt lat="45.85509" lon="4.36589">
        <ele>865.2</ele>
        <time>2025-09-09T15:31:04Z</time>
      </trkpt>
      <trkpt lat="45.8551" lon="4.36585">
        <ele>865.2</ele>
        <time>2025-09-09T15:31:05Z</time>
      </trkpt>
      <trkpt lat="45.85511" lon="4.3658">
        <ele>865.2</ele>
        <time>2025-09-09T15:31:06Z</time>
      </trkpt>
      <trkpt lat="45.85513" lon="4.36575">
        <ele>864.8</ele>
        <time>2025-09-09T15:31:07Z</time>
      </trkpt>
      <trkpt lat="45.85514" lon="4.36569">
        <ele>864.8</ele>
        <time>2025-09-09T15:31:08Z</time>
      </trkpt>
      <trkpt lat="45.85515" lon="4.36564">
        <ele>864.8</ele>
        <time>2025-09-09T15:31:09Z</time>
      </trkpt>
      <trkpt lat="45.85516" lon="4.36558">
        <ele>864.2</ele>
        <time>2025-09-09T15:31:10Z</time>
      </trkpt>
      <trkpt lat="45.85518" lon="4.36553">
        <ele>864.2</ele>
        <time>2025-09-09T15:31:11Z</time>
      </trkpt>
      <trkpt lat="45.85518" lon="4.36546">
        <ele>864.2</ele>
        <time>2025-09-09T15:31:12Z</time>
      </trkpt>
      <trkpt lat="45.8552" lon="4.3654">
        <ele>864.2</ele>
        <time>2025-09-09T15:31:13Z</time>
      </trkpt>
      <trkpt lat="45.85521" lon="4.36534">
        <ele>863.8</ele>
        <time>2025-09-09T15:31:14Z</time>
      </trkpt>
      <trkpt lat="45.85521" lon="4.36527">
        <ele>863.6</ele>
        <time>2025-09-09T15:31:15Z</time>
      </trkpt>
      <trkpt lat="45.85522" lon="4.3652">
        <ele>863.6</ele>
        <time>2025-09-09T15:31:16Z</time>
      </trkpt>
      <trkpt lat="45.85522" lon="4.36513">
        <ele>863.2</ele>
        <time>2025-09-09T15:31:17Z</time>
      </trkpt>
      <trkpt lat="45.85522" lon="4.36505">
        <ele>863.2</ele>
        <time>2025-09-09T15:31:18Z</time>
      </trkpt>
      <trkpt lat="45.85522" lon="4.36499">
        <ele>863.2</ele>
        <time>2025-09-09T15:31:19Z</time>
      </trkpt>
      <trkpt lat="45.85522" lon="4.36493">
        <ele>863.2</ele>
        <time>2025-09-09T15:31:20Z</time>
      </trkpt>
      <trkpt lat="45.85522" lon="4.36486">
        <ele>863.2</ele>
        <time>2025-09-09T15:31:21Z</time>
      </trkpt>
      <trkpt lat="45.85522" lon="4.36481">
        <ele>863.2</ele>
        <time>2025-09-09T15:31:22Z</time>
      </trkpt>
      <trkpt lat="45.85522" lon="4.36475">
        <ele>862.8</ele>
        <time>2025-09-09T15:31:23Z</time>
      </trkpt>
      <trkpt lat="45.85521" lon="4.36469">
        <ele>862.2</ele>
        <time>2025-09-09T15:31:24Z</time>
      </trkpt>
      <trkpt lat="45.8552" lon="4.36465">
        <ele>862.4</ele>
        <time>2025-09-09T15:31:25Z</time>
      </trkpt>
      <trkpt lat="45.8552" lon="4.3646">
        <ele>862.4</ele>
        <time>2025-09-09T15:31:26Z</time>
      </trkpt>
      <trkpt lat="45.8552" lon="4.36455">
        <ele>862.4</ele>
        <time>2025-09-09T15:31:27Z</time>
      </trkpt>
      <trkpt lat="45.8552" lon="4.36452">
        <ele>862.4</ele>
        <time>2025-09-09T15:31:28Z</time>
      </trkpt>
      <trkpt lat="45.8552" lon="4.36448">
        <ele>862.4</ele>
        <time>2025-09-09T15:31:29Z</time>
      </trkpt>
      <trkpt lat="45.85519" lon="4.36444">
        <ele>862.4</ele>
        <time>2025-09-09T15:31:30Z</time>
      </trkpt>
      <trkpt lat="45.85519" lon="4.36441">
        <ele>862.4</ele>
        <time>2025-09-09T15:31:31Z</time>
      </trkpt>
      <trkpt lat="45.85519" lon="4.36438">
        <ele>862.2</ele>
        <time>2025-09-09T15:31:32Z</time>
      </trkpt>
      <trkpt lat="45.85518" lon="4.36435">
        <ele>862.2</ele>
        <time>2025-09-09T15:31:33Z</time>
      </trkpt>
      <trkpt lat="45.85518" lon="4.36432">
        <ele>862.2</ele>
        <time>2025-09-09T15:31:34Z</time>
      </trkpt>
      <trkpt lat="45.85517" lon="4.36429">
        <ele>862.2</ele>
        <time>2025-09-09T15:31:35Z</time>
      </trkpt>
      <trkpt lat="45.85516" lon="4.36426">
        <ele>862</ele>
        <time>2025-09-09T15:31:36Z</time>
      </trkpt>
      <trkpt lat="45.85515" lon="4.36423">
        <ele>861.2</ele>
        <time>2025-09-09T15:31:37Z</time>
      </trkpt>
      <trkpt lat="45.85513" lon="4.36421">
        <ele>861</ele>
        <time>2025-09-09T15:31:38Z</time>
      </trkpt>
      <trkpt lat="45.85512" lon="4.36419">
        <ele>862.2</ele>
        <time>2025-09-09T15:31:39Z</time>
      </trkpt>
      <trkpt lat="45.85512" lon="4.36417">
        <ele>862.2</ele>
        <time>2025-09-09T15:31:40Z</time>
      </trkpt>
      <trkpt lat="45.85511" lon="4.36415">
        <ele>862.2</ele>
        <time>2025-09-09T15:31:41Z</time>
      </trkpt>
      <trkpt lat="45.8551" lon="4.36413">
        <ele>862.2</ele>
        <time>2025-09-09T15:31:42Z</time>
      </trkpt>
      <trkpt lat="45.85509" lon="4.36411">
        <ele>862.2</ele>
        <time>2025-09-09T15:31:43Z</time>
      </trkpt>
      <trkpt lat="45.85508" lon="4.36409">
        <ele>862.2</ele>
        <time>2025-09-09T15:31:44Z</time>
      </trkpt>
      <trkpt lat="45.85507" lon="4.36408">
        <ele>862</ele>
        <time>2025-09-09T15:31:45Z</time>
      </trkpt>
      <trkpt lat="45.85506" lon="4.36406">
        <ele>862</ele>
        <time>2025-09-09T15:31:46Z</time>
      </trkpt>
      <trkpt lat="45.85506" lon="4.36403">
        <ele>862</ele>
        <time>2025-09-09T15:31:47Z</time>
      </trkpt>
      <trkpt lat="45.85505" lon="4.36401">
        <ele>861.8</ele>
        <time>2025-09-09T15:31:48Z</time>
      </trkpt>
      <trkpt lat="45.85506" lon="4.36399">
        <ele>861.8</ele>
        <time>2025-09-09T15:31:49Z</time>
      </trkpt>
      <trkpt lat="45.85507" lon="4.36398">
        <ele>861.8</ele>
        <time>2025-09-09T15:31:50Z</time>
      </trkpt>
      <trkpt lat="45.85496" lon="4.36237">
        <ele>856.8</ele>
        <time>2025-09-09T15:37:15Z</time>
      </trkpt>
      <trkpt lat="45.85497" lon="4.36227">
        <ele>856.4</ele>
        <time>2025-09-09T15:37:16Z</time>
      </trkpt>
      <trkpt lat="45.85498" lon="4.36215">
        <ele>856</ele>
        <time>2025-09-09T15:37:17Z</time>
      </trkpt>
      <trkpt lat="45.85501" lon="4.36203">
        <ele>855.4</ele>
        <time>2025-09-09T15:37:18Z</time>
      </trkpt>
      <trkpt lat="45.85503" lon="4.36191">
        <ele>854.8</ele>
        <time>2025-09-09T15:37:19Z</time>
      </trkpt>
      <trkpt lat="45.85507" lon="4.36181">
        <ele>854.4</ele>
        <time>2025-09-09T15:37:20Z</time>
      </trkpt>
      <trkpt lat="45.85506" lon="4.36168">
        <ele>854</ele>
        <time>2025-09-09T15:37:21Z</time>
      </trkpt>
      <trkpt lat="45.85507" lon="4.36155">
        <ele>853.6</ele>
        <time>2025-09-09T15:37:22Z</time>
      </trkpt>
      <trkpt lat="45.85507" lon="4.36143">
        <ele>853</ele>
        <time>2025-09-09T15:37:23Z</time>
      </trkpt>
      <trkpt lat="45.85507" lon="4.36132">
        <ele>852.8</ele>
        <time>2025-09-09T15:37:24Z</time>
      </trkpt>
      <trkpt lat="45.85505" lon="4.3612">
        <ele>852.4</ele>
        <time>2025-09-09T15:37:25Z</time>
      </trkpt>
      <trkpt lat="45.85504" lon="4.36109">
        <ele>852</ele>
        <time>2025-09-09T15:37:26Z</time>
      </trkpt>
      <trkpt lat="45.85499" lon="4.36099">
        <ele>851.6</ele>
        <time>2025-09-09T15:37:27Z</time>
      </trkpt>
      <trkpt lat="45.85493" lon="4.3609">
        <ele>851</ele>
        <time>2025-09-09T15:37:28Z</time>
      </trkpt>
      <trkpt lat="45.85488" lon="4.36082">
        <ele>850.4</ele>
        <time>2025-09-09T15:37:29Z</time>
      </trkpt>
      <trkpt lat="45.85482" lon="4.36073">
        <ele>849.8</ele>
        <time>2025-09-09T15:37:30Z</time>
      </trkpt>
      <trkpt lat="45.85475" lon="4.36065">
        <ele>849.2</ele>
        <time>2025-09-09T15:37:31Z</time>
      </trkpt>
      <trkpt lat="45.8547" lon="4.36057">
        <ele>848.6</ele>
        <time>2025-09-09T15:37:32Z</time>
      </trkpt>
      <trkpt lat="45.85464" lon="4.3605">
        <ele>848.2</ele>
        <time>2025-09-09T15:37:33Z</time>
      </trkpt>
      <trkpt lat="45.85459" lon="4.36042">
        <ele>847.4</ele>
        <time>2025-09-09T15:37:34Z</time>
      </trkpt>
      <trkpt lat="45.85453" lon="4.36035">
        <ele>846.8</ele>
        <time>2025-09-09T15:37:35Z</time>
      </trkpt>
      <trkpt lat="45.85448" lon="4.36028">
        <ele>846.4</ele>
        <time>2025-09-09T15:37:36Z</time>
      </trkpt>
      <trkpt lat="45.85448" lon="4.36028">
        <ele>846.4</ele>
        <time>2025-09-09T15:37:37Z</time>
      </trkpt>
      <trkpt lat="45.85442" lon="4.36021">
        <ele>845.6</ele>
        <time>2025-09-09T15:37:38Z</time>
      </trkpt>
      <trkpt lat="45.85437" lon="4.36012">
        <ele>845</ele>
        <time>2025-09-09T15:37:39Z</time>
      </trkpt>
      <trkpt lat="45.85431" lon="4.36005">
        <ele>844.4</ele>
        <time>2025-09-09T15:37:40Z</time>
      </trkpt>
      <trkpt lat="45.85425" lon="4.35998">
        <ele>843.8</ele>
        <time>2025-09-09T15:37:41Z</time>
      </trkpt>
      <trkpt lat="45.8542" lon="4.35991">
        <ele>843.2</ele>
        <time>2025-09-09T15:37:42Z</time>
      </trkpt>
      <trkpt lat="45.85415" lon="4.35984">
        <ele>842.6</ele>
        <time>2025-09-09T15:37:43Z</time>
      </trkpt>
      <trkpt lat="45.8541" lon="4.35977">
        <ele>842</ele>
        <time>2025-09-09T15:37:44Z</time>
      </trkpt>
      <trkpt lat="45.85405" lon="4.3597">
        <ele>841.2</ele>
        <time>2025-09-09T15:37:45Z</time>
      </trkpt>
      <trkpt lat="45.854" lon="4.35962">
        <ele>840.8</ele>
        <time>2025-09-09T15:37:46Z</time>
      </trkpt>
      <trkpt lat="45.85396" lon="4.35953">
        <ele>840.2</ele>
        <time>2025-09-09T15:37:47Z</time>
      </trkpt>
      <trkpt lat="45.85392" lon="4.35944">
        <ele>839.4</ele>
        <time>2025-09-09T15:37:48Z</time>
      </trkpt>
      <trkpt lat="45.8539" lon="4.35935">
        <ele>839</ele>
        <time>2025-09-09T15:37:49Z</time>
      </trkpt>
      <trkpt lat="45.85388" lon="4.35927">
        <ele>838.4</ele>
        <time>2025-09-09T15:37:50Z</time>
      </trkpt>
      <trkpt lat="45.85386" lon="4.35917">
        <ele>838.4</ele>
        <time>2025-09-09T15:37:51Z</time>
      </trkpt>
      <trkpt lat="45.85385" lon="4.3591">
        <ele>837.8</ele>
        <time>2025-09-09T15:37:52Z</time>
      </trkpt>
      <trkpt lat="45.85382" lon="4.35901">
        <ele>837.2</ele>
        <time>2025-09-09T15:37:53Z</time>
      </trkpt>
      <trkpt lat="45.85379" lon="4.35892">
        <ele>837</ele>
        <time>2025-09-09T15:37:54Z</time>
      </trkpt>
      <trkpt lat="45.85376" lon="4.35884">
        <ele>836.4</ele>
        <time>2025-09-09T15:37:55Z</time>
      </trkpt>
      <trkpt lat="45.85374" lon="4.35877">
        <ele>836</ele>
        <time>2025-09-09T15:37:56Z</time>
      </trkpt>
      <trkpt lat="45.85372" lon="4.3587">
        <ele>835.8</ele>
        <time>2025-09-09T15:37:57Z</time>
      </trkpt>
      <trkpt lat="45.85369" lon="4.35864">
        <ele>835.2</ele>
        <time>2025-09-09T15:37:58Z</time>
      </trkpt>
      <trkpt lat="45.85365" lon="4.35861">
        <ele>834.8</ele>
        <time>2025-09-09T15:37:59Z</time>
      </trkpt>
      <trkpt lat="45.85362" lon="4.35857">
        <ele>834.2</ele>
        <time>2025-09-09T15:38:00Z</time>
      </trkpt>
      <trkpt lat="45.85359" lon="4.35854">
        <ele>834</ele>
        <time>2025-09-09T15:38:01Z</time>
      </trkpt>
      <trkpt lat="45.85357" lon="4.35851">
        <ele>833.6</ele>
        <time>2025-09-09T15:38:02Z</time>
      </trkpt>
      <trkpt lat="45.85354" lon="4.35848">
        <ele>833.4</ele>
        <time>2025-09-09T15:38:03Z</time>
      </trkpt>
      <trkpt lat="45.85352" lon="4.35845">
        <ele>833</ele>
        <time>2025-09-09T15:38:04Z</time>
      </trkpt>
      <trkpt lat="45.85349" lon="4.35842">
        <ele>832.6</ele>
        <time>2025-09-09T15:38:05Z</time>
      </trkpt>
      <trkpt lat="45.85345" lon="4.35838">
        <ele>832.4</ele>
        <time>2025-09-09T15:38:06Z</time>
      </trkpt>
      <trkpt lat="45.85343" lon="4.35835">
        <ele>832</ele>
        <time>2025-09-09T15:38:07Z</time>
      </trkpt>
      <trkpt lat="45.85341" lon="4.3583">
        <ele>831.8</ele>
        <time>2025-09-09T15:38:08Z</time>
      </trkpt>
      <trkpt lat="45.85338" lon="4.35829">
        <ele>831.4</ele>
        <time>2025-09-09T15:38:09Z</time>
      </trkpt>
      <trkpt lat="45.85337" lon="4.35827">
        <ele>831.4</ele>
        <time>2025-09-09T15:38:10Z</time>
      </trkpt>
      <trkpt lat="45.85336" lon="4.35825">
        <ele>831</ele>
        <time>2025-09-09T15:38:11Z</time>
      </trkpt>
      <trkpt lat="45.85334" lon="4.35822">
        <ele>831</ele>
        <time>2025-09-09T15:38:12Z</time>
      </trkpt>
      <trkpt lat="45.85333" lon="4.35821">
        <ele>830.8</ele>
        <time>2025-09-09T15:38:13Z</time>
      </trkpt>
      <trkpt lat="45.85332" lon="4.35818">
        <ele>830.8</ele>
        <time>2025-09-09T15:38:14Z</time>
      </trkpt>
      <trkpt lat="45.85331" lon="4.35817">
        <ele>830.6</ele>
        <time>2025-09-09T15:38:15Z</time>
      </trkpt>
      <trkpt lat="45.8533" lon="4.35814">
        <ele>830.6</ele>
        <time>2025-09-09T15:38:16Z</time>
      </trkpt>
      <trkpt lat="45.85328" lon="4.35813">
        <ele>830.2</ele>
        <time>2025-09-09T15:38:17Z</time>
      </trkpt>
      <trkpt lat="45.85327" lon="4.35811">
        <ele>830.2</ele>
        <time>2025-09-09T15:38:18Z</time>
      </trkpt>
      <trkpt lat="45.85325" lon="4.3581">
        <ele>830</ele>
        <time>2025-09-09T15:38:19Z</time>
      </trkpt>
      <trkpt lat="45.85323" lon="4.35809">
        <ele>830</ele>
        <time>2025-09-09T15:38:20Z</time>
      </trkpt>
      <trkpt lat="45.85322" lon="4.35807">
        <ele>829.6</ele>
        <time>2025-09-09T15:38:21Z</time>
      </trkpt>
      <trkpt lat="45.85321" lon="4.35804">
        <ele>829.6</ele>
        <time>2025-09-09T15:38:22Z</time>
      </trkpt>
      <trkpt lat="45.85321" lon="4.35801">
        <ele>829.4</ele>
        <time>2025-09-09T15:38:23Z</time>
      </trkpt>
      <trkpt lat="45.85321" lon="4.35798">
        <ele>829.4</ele>
        <time>2025-09-09T15:38:24Z</time>
      </trkpt>
      <trkpt lat="45.85321" lon="4.35795">
        <ele>829.4</ele>
        <time>2025-09-09T15:38:25Z</time>
      </trkpt>
      <trkpt lat="45.85321" lon="4.35793">
        <ele>829.4</ele>
        <time>2025-09-09T15:38:26Z</time>
      </trkpt>
      <trkpt lat="45.85319" lon="4.35791">
        <ele>829.2</ele>
        <time>2025-09-09T15:38:27Z</time>
      </trkpt>
      <trkpt lat="45.85317" lon="4.3579">
        <ele>829.2</ele>
        <time>2025-09-09T15:38:28Z</time>
      </trkpt>
      <trkpt lat="45.85314" lon="4.35789">
        <ele>829.2</ele>
        <time>2025-09-09T15:38:29Z</time>
      </trkpt>
      <trkpt lat="45.85338" lon="4.35821">
        <ele>828.2</ele>
        <time>2025-09-09T15:58:50Z</time>
      </trkpt>
      <trkpt lat="45.85336" lon="4.35821">
        <ele>828.2</ele>
        <time>2025-09-09T15:58:51Z</time>
      </trkpt>
      <trkpt lat="45.85333" lon="4.3582">
        <ele>828</ele>
        <time>2025-09-09T15:58:52Z</time>
      </trkpt>
      <trkpt lat="45.85331" lon="4.35819">
        <ele>828</ele>
        <time>2025-09-09T15:58:53Z</time>
      </trkpt>
      <trkpt lat="45.85328" lon="4.35817">
        <ele>828</ele>
        <time>2025-09-09T15:58:54Z</time>
      </trkpt>
      <trkpt lat="45.85326" lon="4.35814">
        <ele>827.8</ele>
        <time>2025-09-09T15:58:55Z</time>
      </trkpt>
      <trkpt lat="45.85324" lon="4.35811">
        <ele>827.8</ele>
        <time>2025-09-09T15:58:56Z</time>
      </trkpt>
      <trkpt lat="45.85321" lon="4.35807">
        <ele>827.6</ele>
        <time>2025-09-09T15:58:57Z</time>
      </trkpt>
      <trkpt lat="45.85319" lon="4.35804">
        <ele>827.6</ele>
        <time>2025-09-09T15:58:58Z</time>
      </trkpt>
      <trkpt lat="45.85317" lon="4.35801">
        <ele>827.2</ele>
        <time>2025-09-09T15:58:59Z</time>
      </trkpt>
      <trkpt lat="45.85314" lon="4.35798">
        <ele>827.2</ele>
        <time>2025-09-09T15:59:00Z</time>
      </trkpt>
      <trkpt lat="45.8531" lon="4.35789">
        <ele>827.2</ele>
        <time>2025-09-09T15:59:01Z</time>
      </trkpt>
      <trkpt lat="45.85308" lon="4.35784">
        <ele>826.8</ele>
        <time>2025-09-09T15:59:02Z</time>
      </trkpt>
      <trkpt lat="45.85305" lon="4.35779">
        <ele>826.8</ele>
        <time>2025-09-09T15:59:03Z</time>
      </trkpt>
      <trkpt lat="45.85303" lon="4.35775">
        <ele>826.6</ele>
        <time>2025-09-09T15:59:04Z</time>
      </trkpt>
      <trkpt lat="45.85301" lon="4.3577">
        <ele>826.6</ele>
        <time>2025-09-09T15:59:05Z</time>
      </trkpt>
      <trkpt lat="45.85299" lon="4.35765">
        <ele>826.6</ele>
        <time>2025-09-09T15:59:06Z</time>
      </trkpt>
      <trkpt lat="45.85297" lon="4.35759">
        <ele>826.6</ele>
        <time>2025-09-09T15:59:07Z</time>
      </trkpt>
      <trkpt lat="45.85295" lon="4.35753">
        <ele>826.6</ele>
        <time>2025-09-09T15:59:08Z</time>
      </trkpt>
      <trkpt lat="45.85294" lon="4.35747">
        <ele>826.6</ele>
        <time>2025-09-09T15:59:09Z</time>
      </trkpt>
      <trkpt lat="45.85293" lon="4.35741">
        <ele>826.2</ele>
        <time>2025-09-09T15:59:10Z</time>
      </trkpt>
      <trkpt lat="45.85292" lon="4.35735">
        <ele>826.2</ele>
        <time>2025-09-09T15:59:11Z</time>
      </trkpt>
      <trkpt lat="45.85291" lon="4.35728">
        <ele>826</ele>
        <time>2025-09-09T15:59:12Z</time>
      </trkpt>
      <trkpt lat="45.85291" lon="4.35722">
        <ele>825.8</ele>
        <time>2025-09-09T15:59:13Z</time>
      </trkpt>
      <trkpt lat="45.85289" lon="4.35716">
        <ele>825.4</ele>
        <time>2025-09-09T15:59:14Z</time>
      </trkpt>
      <trkpt lat="45.85289" lon="4.3571">
        <ele>825.2</ele>
        <time>2025-09-09T15:59:15Z</time>
      </trkpt>
      <trkpt lat="45.85288" lon="4.35705">
        <ele>825.2</ele>
        <time>2025-09-09T15:59:16Z</time>
      </trkpt>
      <trkpt lat="45.85284" lon="4.357">
        <ele>825</ele>
        <time>2025-09-09T15:59:17Z</time>
      </trkpt>
      <trkpt lat="45.85282" lon="4.35695">
        <ele>825</ele>
        <time>2025-09-09T15:59:18Z</time>
      </trkpt>
      <trkpt lat="45.8528" lon="4.35691">
        <ele>824.6</ele>
        <time>2025-09-09T15:59:19Z</time>
      </trkpt>
      <trkpt lat="45.85278" lon="4.35687">
        <ele>824.4</ele>
        <time>2025-09-09T15:59:20Z</time>
      </trkpt>
      <trkpt lat="45.85276" lon="4.35685">
        <ele>824.2</ele>
        <time>2025-09-09T15:59:21Z</time>
      </trkpt>
      <trkpt lat="45.85274" lon="4.35682">
        <ele>824.2</ele>
        <time>2025-09-09T15:59:22Z</time>
      </trkpt>
      <trkpt lat="45.85272" lon="4.35679">
        <ele>823.8</ele>
        <time>2025-09-09T15:59:23Z</time>
      </trkpt>
      <trkpt lat="45.85272" lon="4.35679">
        <ele>823.8</ele>
        <time>2025-09-09T15:59:24Z</time>
      </trkpt>
      <trkpt lat="45.8527" lon="4.35675">
        <ele>823.4</ele>
        <time>2025-09-09T15:59:25Z</time>
      </trkpt>
      <trkpt lat="45.85267" lon="4.35671">
        <ele>823</ele>
        <time>2025-09-09T15:59:26Z</time>
      </trkpt>
      <trkpt lat="45.85264" lon="4.35667">
        <ele>822.8</ele>
        <time>2025-09-09T15:59:27Z</time>
      </trkpt>
      <trkpt lat="45.8526" lon="4.35662">
        <ele>822.6</ele>
        <time>2025-09-09T15:59:28Z</time>
      </trkpt>
      <trkpt lat="45.85257" lon="4.35656">
        <ele>822</ele>
        <time>2025-09-09T15:59:29Z</time>
      </trkpt>
      <trkpt lat="45.85254" lon="4.3565">
        <ele>821.8</ele>
        <time>2025-09-09T15:59:30Z</time>
      </trkpt>
      <trkpt lat="45.85251" lon="4.35647">
        <ele>821.6</ele>
        <time>2025-09-09T15:59:31Z</time>
      </trkpt>
      <trkpt lat="45.85248" lon="4.35641">
        <ele>821.2</ele>
        <time>2025-09-09T15:59:32Z</time>
      </trkpt>
      <trkpt lat="45.85246" lon="4.35637">
        <ele>820.8</ele>
        <time>2025-09-09T15:59:33Z</time>
      </trkpt>
      <trkpt lat="45.85244" lon="4.35631">
        <ele>820.8</ele>
        <time>2025-09-09T15:59:34Z</time>
      </trkpt>
      <trkpt lat="45.85241" lon="4.35627">
        <ele>820.4</ele>
        <time>2025-09-09T15:59:35Z</time>
      </trkpt>
      <trkpt lat="45.85239" lon="4.35623">
        <ele>820.2</ele>
        <time>2025-09-09T15:59:36Z</time>
      </trkpt>
      <trkpt lat="45.85237" lon="4.3562">
        <ele>820</ele>
        <time>2025-09-09T15:59:37Z</time>
      </trkpt>
      <trkpt lat="45.85235" lon="4.35616">
        <ele>820</ele>
        <time>2025-09-09T15:59:38Z</time>
      </trkpt>
      <trkpt lat="45.85232" lon="4.35613">
        <ele>819.6</ele>
        <time>2025-09-09T15:59:39Z</time>
      </trkpt>
      <trkpt lat="45.8523" lon="4.35609">
        <ele>819.4</ele>
        <time>2025-09-09T15:59:40Z</time>
      </trkpt>
      <trkpt lat="45.85227" lon="4.35605">
        <ele>819.2</ele>
        <time>2025-09-09T15:59:41Z</time>
      </trkpt>
      <trkpt lat="45.85224" lon="4.356">
        <ele>819.2</ele>
        <time>2025-09-09T15:59:42Z</time>
      </trkpt>
      <trkpt lat="45.85223" lon="4.35598">
        <ele>818.8</ele>
        <time>2025-09-09T15:59:43Z</time>
      </trkpt>
      <trkpt lat="45.8522" lon="4.35594">
        <ele>818.6</ele>
        <time>2025-09-09T15:59:44Z</time>
      </trkpt>
      <trkpt lat="45.85219" lon="4.35592">
        <ele>818.2</ele>
        <time>2025-09-09T15:59:45Z</time>
      </trkpt>
      <trkpt lat="45.85217" lon="4.35588">
        <ele>818.2</ele>
        <time>2025-09-09T15:59:46Z</time>
      </trkpt>
      <trkpt lat="45.85215" lon="4.35585">
        <ele>817.8</ele>
        <time>2025-09-09T15:59:47Z</time>
      </trkpt>
      <trkpt lat="45.85213" lon="4.35581">
        <ele>817.8</ele>
        <time>2025-09-09T15:59:48Z</time>
      </trkpt>
      <trkpt lat="45.85211" lon="4.35578">
        <ele>817.4</ele>
        <time>2025-09-09T15:59:49Z</time>
      </trkpt>
      <trkpt lat="45.85208" lon="4.35573">
        <ele>817.2</ele>
        <time>2025-09-09T15:59:50Z</time>
      </trkpt>
      <trkpt lat="45.85206" lon="4.35569">
        <ele>816.8</ele>
        <time>2025-09-09T15:59:51Z</time>
      </trkpt>
      <trkpt lat="45.85204" lon="4.35565">
        <ele>816.6</ele>
        <time>2025-09-09T15:59:52Z</time>
      </trkpt>
      <trkpt lat="45.85202" lon="4.3556">
        <ele>816.2</ele>
        <time>2025-09-09T15:59:53Z</time>
      </trkpt>
      <trkpt lat="45.85201" lon="4.35556">
        <ele>816.2</ele>
        <time>2025-09-09T15:59:54Z</time>
      </trkpt>
      <trkpt lat="45.85199" lon="4.35553">
        <ele>816</ele>
        <time>2025-09-09T15:59:55Z</time>
      </trkpt>
      <trkpt lat="45.85197" lon="4.3555">
        <ele>815.6</ele>
        <time>2025-09-09T15:59:56Z</time>
      </trkpt>
      <trkpt lat="45.85195" lon="4.35548">
        <ele>815.4</ele>
        <time>2025-09-09T15:59:57Z</time>
      </trkpt>
      <trkpt lat="45.85194" lon="4.35546">
        <ele>815.2</ele>
        <time>2025-09-09T15:59:58Z</time>
      </trkpt>
      <trkpt lat="45.85192" lon="4.35544">
        <ele>815.2</ele>
        <time>2025-09-09T15:59:59Z</time>
      </trkpt>
      <trkpt lat="45.85191" lon="4.35543">
        <ele>814.4</ele>
        <time>2025-09-09T16:00:00Z</time>
      </trkpt>
      <trkpt lat="45.85189" lon="4.3554">
        <ele>814.4</ele>
        <time>2025-09-09T16:00:01Z</time>
      </trkpt>
      <trkpt lat="45.85187" lon="4.35537">
        <ele>814.4</ele>
        <time>2025-09-09T16:00:02Z</time>
      </trkpt>
      <trkpt lat="45.85185" lon="4.35534">
        <ele>814.2</ele>
        <time>2025-09-09T16:00:03Z</time>
      </trkpt>
      <trkpt lat="45.85183" lon="4.3553">
        <ele>814.2</ele>
        <time>2025-09-09T16:00:04Z</time>
      </trkpt>
      <trkpt lat="45.8518" lon="4.35527">
        <ele>814</ele>
        <time>2025-09-09T16:00:05Z</time>
      </trkpt>
      <trkpt lat="45.85177" lon="4.35523">
        <ele>813.8</ele>
        <time>2025-09-09T16:00:06Z</time>
      </trkpt>
      <trkpt lat="45.85174" lon="4.35519">
        <ele>813.8</ele>
        <time>2025-09-09T16:00:07Z</time>
      </trkpt>
      <trkpt lat="45.8517" lon="4.35515">
        <ele>813</ele>
        <time>2025-09-09T16:00:08Z</time>
      </trkpt>
      <trkpt lat="45.85168" lon="4.3551">
        <ele>812.8</ele>
        <time>2025-09-09T16:00:09Z</time>
      </trkpt>
      <trkpt lat="45.85164" lon="4.35505">
        <ele>812.8</ele>
        <time>2025-09-09T16:00:10Z</time>
      </trkpt>
      <trkpt lat="45.85161" lon="4.35501">
        <ele>812.4</ele>
        <time>2025-09-09T16:00:11Z</time>
      </trkpt>
      <trkpt lat="45.85158" lon="4.35496">
        <ele>812</ele>
        <time>2025-09-09T16:00:12Z</time>
      </trkpt>
      <trkpt lat="45.85155" lon="4.35492">
        <ele>811.6</ele>
        <time>2025-09-09T16:00:13Z</time>
      </trkpt>
      <trkpt lat="45.85152" lon="4.35488">
        <ele>811.4</ele>
        <time>2025-09-09T16:00:14Z</time>
      </trkpt>
      <trkpt lat="45.85149" lon="4.35484">
        <ele>811</ele>
        <time>2025-09-09T16:00:15Z</time>
      </trkpt>
      <trkpt lat="45.85145" lon="4.35478">
        <ele>810.8</ele>
        <time>2025-09-09T16:00:16Z</time>
      </trkpt>
      <trkpt lat="45.85141" lon="4.35474">
        <ele>810.8</ele>
        <time>2025-09-09T16:00:17Z</time>
      </trkpt>
      <trkpt lat="45.85137" lon="4.35468">
        <ele>810.2</ele>
        <time>2025-09-09T16:00:18Z</time>
      </trkpt>
      <trkpt lat="45.85133" lon="4.35464">
        <ele>810</ele>
        <time>2025-09-09T16:00:19Z</time>
      </trkpt>
      <trkpt lat="45.85129" lon="4.35458">
        <ele>809.8</ele>
        <time>2025-09-09T16:00:20Z</time>
      </trkpt>
      <trkpt lat="45.85125" lon="4.35452">
        <ele>809.4</ele>
        <time>2025-09-09T16:00:21Z</time>
      </trkpt>
      <trkpt lat="45.85121" lon="4.35447">
        <ele>809.2</ele>
        <time>2025-09-09T16:00:22Z</time>
      </trkpt>
      <trkpt lat="45.85117" lon="4.35441">
        <ele>809.2</ele>
        <time>2025-09-09T16:00:23Z</time>
      </trkpt>
      <trkpt lat="45.85114" lon="4.35436">
        <ele>809</ele>
        <time>2025-09-09T16:00:24Z</time>
      </trkpt>
      <trkpt lat="45.85111" lon="4.3543">
        <ele>808.8</ele>
        <time>2025-09-09T16:00:25Z</time>
      </trkpt>
      <trkpt lat="45.85107" lon="4.35426">
        <ele>808.4</ele>
        <time>2025-09-09T16:00:26Z</time>
      </trkpt>
      <trkpt lat="45.85104" lon="4.3542">
        <ele>808.2</ele>
        <time>2025-09-09T16:00:27Z</time>
      </trkpt>
      <trkpt lat="45.85102" lon="4.35415">
        <ele>808.2</ele>
        <time>2025-09-09T16:00:28Z</time>
      </trkpt>
      <trkpt lat="45.85099" lon="4.35408">
        <ele>808.2</ele>
        <time>2025-09-09T16:00:29Z</time>
      </trkpt>
      <trkpt lat="45.85099" lon="4.354">
        <ele>807.8</ele>
        <time>2025-09-09T16:00:30Z</time>
      </trkpt>
      <trkpt lat="45.85098" lon="4.35394">
        <ele>807.8</ele>
        <time>2025-09-09T16:00:31Z</time>
      </trkpt>
      <trkpt lat="45.85098" lon="4.35387">
        <ele>807.8</ele>
        <time>2025-09-09T16:00:32Z</time>
      </trkpt>
      <trkpt lat="45.85098" lon="4.3538">
        <ele>807.4</ele>
        <time>2025-09-09T16:00:33Z</time>
      </trkpt>
      <trkpt lat="45.85098" lon="4.35374">
        <ele>807.4</ele>
        <time>2025-09-09T16:00:34Z</time>
      </trkpt>
      <trkpt lat="45.85097" lon="4.35369">
        <ele>807.4</ele>
        <time>2025-09-09T16:00:35Z</time>
      </trkpt>
      <trkpt lat="45.85094" lon="4.35365">
        <ele>807</ele>
        <time>2025-09-09T16:00:36Z</time>
      </trkpt>
      <trkpt lat="45.85091" lon="4.35362">
        <ele>806.6</ele>
        <time>2025-09-09T16:00:37Z</time>
      </trkpt>
      <trkpt lat="45.85087" lon="4.35362">
        <ele>806.6</ele>
        <time>2025-09-09T16:00:38Z</time>
      </trkpt>
      <trkpt lat="45.85084" lon="4.35363">
        <ele>806.4</ele>
        <time>2025-09-09T16:00:39Z</time>
      </trkpt>
      <trkpt lat="45.85082" lon="4.35365">
        <ele>806.4</ele>
        <time>2025-09-09T16:00:40Z</time>
      </trkpt>
      <trkpt lat="45.85079" lon="4.35367">
        <ele>806.4</ele>
        <time>2025-09-09T16:00:41Z</time>
      </trkpt>
      <trkpt lat="45.85078" lon="4.35371">
        <ele>806.2</ele>
        <time>2025-09-09T16:00:42Z</time>
      </trkpt>
      <trkpt lat="45.85076" lon="4.35375">
        <ele>806.2</ele>
        <time>2025-09-09T16:00:43Z</time>
      </trkpt>
      <trkpt lat="45.85075" lon="4.35379">
        <ele>806.2</ele>
        <time>2025-09-09T16:00:44Z</time>
      </trkpt>
      <trkpt lat="45.85073" lon="4.35382">
        <ele>805.8</ele>
        <time>2025-09-09T16:00:45Z</time>
      </trkpt>
      <trkpt lat="45.85071" lon="4.35385">
        <ele>805.8</ele>
        <time>2025-09-09T16:00:46Z</time>
      </trkpt>
      <trkpt lat="45.85068" lon="4.35385">
        <ele>805.6</ele>
        <time>2025-09-09T16:00:47Z</time>
      </trkpt>
      <trkpt lat="45.85064" lon="4.35382">
        <ele>805.6</ele>
        <time>2025-09-09T16:00:48Z</time>
      </trkpt>
      <trkpt lat="45.85061" lon="4.35379">
        <ele>805.2</ele>
        <time>2025-09-09T16:00:49Z</time>
      </trkpt>
      <trkpt lat="45.85058" lon="4.3537">
        <ele>805.2</ele>
        <time>2025-09-09T16:00:50Z</time>
      </trkpt>
      <trkpt lat="45.85054" lon="4.35368">
        <ele>805.2</ele>
        <time>2025-09-09T16:00:51Z</time>
      </trkpt>
      <trkpt lat="45.8505" lon="4.35365">
        <ele>804.8</ele>
        <time>2025-09-09T16:00:52Z</time>
      </trkpt>
      <trkpt lat="45.85046" lon="4.35362">
        <ele>804.4</ele>
        <time>2025-09-09T16:00:53Z</time>
      </trkpt>
      <trkpt lat="45.85042" lon="4.35358">
        <ele>804.4</ele>
        <time>2025-09-09T16:00:54Z</time>
      </trkpt>
      <trkpt lat="45.85038" lon="4.35355">
        <ele>804.4</ele>
        <time>2025-09-09T16:00:55Z</time>
      </trkpt>
      <trkpt lat="45.85033" lon="4.35352">
        <ele>804.4</ele>
        <time>2025-09-09T16:00:56Z</time>
      </trkpt>
      <trkpt lat="45.85029" lon="4.35349">
        <ele>804.4</ele>
        <time>2025-09-09T16:00:57Z</time>
      </trkpt>
      <trkpt lat="45.85024" lon="4.35346">
        <ele>804.2</ele>
        <time>2025-09-09T16:00:58Z</time>
      </trkpt>
      <trkpt lat="45.8502" lon="4.35343">
        <ele>804.2</ele>
        <time>2025-09-09T16:00:59Z</time>
      </trkpt>
      <trkpt lat="45.85016" lon="4.3534">
        <ele>803.8</ele>
        <time>2025-09-09T16:01:00Z</time>
      </trkpt>
      <trkpt lat="45.85013" lon="4.35336">
        <ele>803.8</ele>
        <time>2025-09-09T16:01:01Z</time>
      </trkpt>
      <trkpt lat="45.85009" lon="4.35334">
        <ele>803.8</ele>
        <time>2025-09-09T16:01:02Z</time>
      </trkpt>
      <trkpt lat="45.85005" lon="4.35331">
        <ele>803.8</ele>
        <time>2025-09-09T16:01:03Z</time>
      </trkpt>
      <trkpt lat="45.85001" lon="4.35327">
        <ele>803.8</ele>
        <time>2025-09-09T16:01:04Z</time>
      </trkpt>
      <trkpt lat="45.84997" lon="4.35324">
        <ele>803.6</ele>
        <time>2025-09-09T16:01:05Z</time>
      </trkpt>
      <trkpt lat="45.84994" lon="4.35321">
        <ele>803.6</ele>
        <time>2025-09-09T16:01:06Z</time>
      </trkpt>
      <trkpt lat="45.84989" lon="4.35318">
        <ele>803.6</ele>
        <time>2025-09-09T16:01:07Z</time>
      </trkpt>
      <trkpt lat="45.84985" lon="4.35315">
        <ele>803.2</ele>
        <time>2025-09-09T16:01:08Z</time>
      </trkpt>
      <trkpt lat="45.84981" lon="4.35313">
        <ele>803.2</ele>
        <time>2025-09-09T16:01:09Z</time>
      </trkpt>
      <trkpt lat="45.84976" lon="4.35312">
        <ele>803</ele>
        <time>2025-09-09T16:01:10Z</time>
      </trkpt>
      <trkpt lat="45.84972" lon="4.35308">
        <ele>803</ele>
        <time>2025-09-09T16:01:11Z</time>
      </trkpt>
      <trkpt lat="45.84968" lon="4.35306">
        <ele>803</ele>
        <time>2025-09-09T16:01:12Z</time>
      </trkpt>
      <trkpt lat="45.84964" lon="4.35302">
        <ele>803</ele>
        <time>2025-09-09T16:01:13Z</time>
      </trkpt>
      <trkpt lat="45.8496" lon="4.35299">
        <ele>803</ele>
        <time>2025-09-09T16:01:14Z</time>
      </trkpt>
      <trkpt lat="45.84956" lon="4.35297">
        <ele>802.8</ele>
        <time>2025-09-09T16:01:15Z</time>
      </trkpt>
      <trkpt lat="45.84952" lon="4.35294">
        <ele>802.8</ele>
        <time>2025-09-09T16:01:16Z</time>
      </trkpt>
      <trkpt lat="45.84948" lon="4.35293">
        <ele>802.8</ele>
        <time>2025-09-09T16:01:17Z</time>
      </trkpt>
      <trkpt lat="45.84944" lon="4.35292">
        <ele>802.8</ele>
        <time>2025-09-09T16:01:18Z</time>
      </trkpt>
      <trkpt lat="45.8494" lon="4.35289">
        <ele>802.8</ele>
        <time>2025-09-09T16:01:19Z</time>
      </trkpt>
      <trkpt lat="45.84938" lon="4.35285">
        <ele>802.8</ele>
        <time>2025-09-09T16:01:20Z</time>
      </trkpt>
      <trkpt lat="45.84935" lon="4.35283">
        <ele>803</ele>
        <time>2025-09-09T16:01:21Z</time>
      </trkpt>
      <trkpt lat="45.84932" lon="4.35282">
        <ele>803</ele>
        <time>2025-09-09T16:01:22Z</time>
      </trkpt>
      <trkpt lat="45.84928" lon="4.35282">
        <ele>803.4</ele>
        <time>2025-09-09T16:01:23Z</time>
      </trkpt>
      <trkpt lat="45.84926" lon="4.35281">
        <ele>803.4</ele>
        <time>2025-09-09T16:01:24Z</time>
      </trkpt>
      <trkpt lat="45.84923" lon="4.35279">
        <ele>803.4</ele>
        <time>2025-09-09T16:01:25Z</time>
      </trkpt>
      <trkpt lat="45.8492" lon="4.35278">
        <ele>803.4</ele>
        <time>2025-09-09T16:01:26Z</time>
      </trkpt>
      <trkpt lat="45.84917" lon="4.35278">
        <ele>803.4</ele>
        <time>2025-09-09T16:01:27Z</time>
      </trkpt>
      <trkpt lat="45.84914" lon="4.35277">
        <ele>803.6</ele>
        <time>2025-09-09T16:01:28Z</time>
      </trkpt>
      <trkpt lat="45.84911" lon="4.35276">
        <ele>803.6</ele>
        <time>2025-09-09T16:01:29Z</time>
      </trkpt>
      <trkpt lat="45.84908" lon="4.35275">
        <ele>803.6</ele>
        <time>2025-09-09T16:01:30Z</time>
      </trkpt>
      <trkpt lat="45.84905" lon="4.35275">
        <ele>803.6</ele>
        <time>2025-09-09T16:01:31Z</time>
      </trkpt>
      <trkpt lat="45.84902" lon="4.35274">
        <ele>803.8</ele>
        <time>2025-09-09T16:01:32Z</time>
      </trkpt>
      <trkpt lat="45.84899" lon="4.35274">
        <ele>804</ele>
        <time>2025-09-09T16:01:33Z</time>
      </trkpt>
      <trkpt lat="45.84896" lon="4.35274">
        <ele>804.4</ele>
        <time>2025-09-09T16:01:34Z</time>
      </trkpt>
      <trkpt lat="45.84893" lon="4.35273">
        <ele>804.4</ele>
        <time>2025-09-09T16:01:35Z</time>
      </trkpt>
      <trkpt lat="45.8489" lon="4.35272">
        <ele>804.6</ele>
        <time>2025-09-09T16:01:36Z</time>
      </trkpt>
      <trkpt lat="45.84887" lon="4.35271">
        <ele>804.6</ele>
        <time>2025-09-09T16:01:37Z</time>
      </trkpt>
      <trkpt lat="45.84884" lon="4.35271">
        <ele>804.6</ele>
        <time>2025-09-09T16:01:38Z</time>
      </trkpt>
      <trkpt lat="45.84881" lon="4.3527">
        <ele>804.6</ele>
        <time>2025-09-09T16:01:39Z</time>
      </trkpt>
      <trkpt lat="45.84878" lon="4.3527">
        <ele>804.6</ele>
        <time>2025-09-09T16:01:40Z</time>
      </trkpt>
      <trkpt lat="45.84875" lon="4.35269">
        <ele>805</ele>
        <time>2025-09-09T16:01:41Z</time>
      </trkpt>
      <trkpt lat="45.84872" lon="4.35269">
        <ele>805</ele>
        <time>2025-09-09T16:01:42Z</time>
      </trkpt>
      <trkpt lat="45.84869" lon="4.35268">
        <ele>805</ele>
        <time>2025-09-09T16:01:43Z</time>
      </trkpt>
      <trkpt lat="45.84866" lon="4.35267">
        <ele>804</ele>
        <time>2025-09-09T16:01:44Z</time>
      </trkpt>
      <trkpt lat="45.84862" lon="4.35267">
        <ele>804.4</ele>
        <time>2025-09-09T16:01:45Z</time>
      </trkpt>
      <trkpt lat="45.84858" lon="4.35267">
        <ele>804.4</ele>
        <time>2025-09-09T16:01:46Z</time>
      </trkpt>
      <trkpt lat="45.84855" lon="4.35267">
        <ele>804.4</ele>
        <time>2025-09-09T16:01:47Z</time>
      </trkpt>
      <trkpt lat="45.84851" lon="4.35267">
        <ele>804.2</ele>
        <time>2025-09-09T16:01:48Z</time>
      </trkpt>
      <trkpt lat="45.84847" lon="4.35267">
        <ele>803.4</ele>
        <time>2025-09-09T16:01:49Z</time>
      </trkpt>
      <trkpt lat="45.84843" lon="4.35267">
        <ele>803.4</ele>
        <time>2025-09-09T16:01:50Z</time>
      </trkpt>
      <trkpt lat="45.84839" lon="4.35265">
        <ele>803.4</ele>
        <time>2025-09-09T16:01:51Z</time>
      </trkpt>
      <trkpt lat="45.84834" lon="4.35264">
        <ele>803.4</ele>
        <time>2025-09-09T16:01:52Z</time>
      </trkpt>
      <trkpt lat="45.84829" lon="4.35263">
        <ele>803.4</ele>
        <time>2025-09-09T16:01:53Z</time>
      </trkpt>
      <trkpt lat="45.84825" lon="4.35262">
        <ele>803.4</ele>
        <time>2025-09-09T16:01:54Z</time>
      </trkpt>
      <trkpt lat="45.8482" lon="4.3526">
        <ele>803.4</ele>
        <time>2025-09-09T16:01:55Z</time>
      </trkpt>
      <trkpt lat="45.84815" lon="4.3526">
        <ele>803.4</ele>
        <time>2025-09-09T16:01:56Z</time>
      </trkpt>
      <trkpt lat="45.84811" lon="4.3526">
        <ele>803.4</ele>
        <time>2025-09-09T16:01:57Z</time>
      </trkpt>
      <trkpt lat="45.84807" lon="4.35258">
        <ele>803.4</ele>
        <time>2025-09-09T16:01:58Z</time>
      </trkpt>
      <trkpt lat="45.84802" lon="4.35257">
        <ele>803.4</ele>
        <time>2025-09-09T16:01:59Z</time>
      </trkpt>
      <trkpt lat="45.84798" lon="4.35256">
        <ele>803</ele>
        <time>2025-09-09T16:02:00Z</time>
      </trkpt>
      <trkpt lat="45.84793" lon="4.35254">
        <ele>803</ele>
        <time>2025-09-09T16:02:01Z</time>
      </trkpt>
      <trkpt lat="45.84788" lon="4.35253">
        <ele>802.6</ele>
        <time>2025-09-09T16:02:02Z</time>
      </trkpt>
      <trkpt lat="45.84783" lon="4.35251">
        <ele>802.6</ele>
        <time>2025-09-09T16:02:03Z</time>
      </trkpt>
      <trkpt lat="45.84778" lon="4.35251">
        <ele>802.6</ele>
        <time>2025-09-09T16:02:04Z</time>
      </trkpt>
      <trkpt lat="45.84772" lon="4.35249">
        <ele>802.4</ele>
        <time>2025-09-09T16:02:05Z</time>
      </trkpt>
      <trkpt lat="45.84762" lon="4.35247">
        <ele>802.4</ele>
        <time>2025-09-09T16:02:06Z</time>
      </trkpt>
      <trkpt lat="45.84757" lon="4.35246">
        <ele>802.4</ele>
        <time>2025-09-09T16:02:07Z</time>
      </trkpt>
      <trkpt lat="45.84752" lon="4.35246">
        <ele>802.4</ele>
        <time>2025-09-09T16:02:08Z</time>
      </trkpt>
      <trkpt lat="45.84746" lon="4.35246">
        <ele>802</ele>
        <time>2025-09-09T16:02:09Z</time>
      </trkpt>
      <trkpt lat="45.84741" lon="4.35245">
        <ele>802</ele>
        <time>2025-09-09T16:02:10Z</time>
      </trkpt>
      <trkpt lat="45.84736" lon="4.35244">
        <ele>802</ele>
        <time>2025-09-09T16:02:11Z</time>
      </trkpt>
      <trkpt lat="45.84731" lon="4.35244">
        <ele>801.8</ele>
        <time>2025-09-09T16:02:12Z</time>
      </trkpt>
      <trkpt lat="45.84725" lon="4.35244">
        <ele>801.8</ele>
        <time>2025-09-09T16:02:13Z</time>
      </trkpt>
      <trkpt lat="45.8472" lon="4.35244">
        <ele>801.8</ele>
        <time>2025-09-09T16:02:14Z</time>
      </trkpt>
      <trkpt lat="45.84714" lon="4.35243">
        <ele>801.4</ele>
        <time>2025-09-09T16:02:15Z</time>
      </trkpt>
      <trkpt lat="45.84709" lon="4.35244">
        <ele>801.4</ele>
        <time>2025-09-09T16:02:16Z</time>
      </trkpt>
      <trkpt lat="45.84704" lon="4.35243">
        <ele>801.4</ele>
        <time>2025-09-09T16:02:17Z</time>
      </trkpt>
      <trkpt lat="45.84699" lon="4.35244">
        <ele>801.2</ele>
        <time>2025-09-09T16:02:18Z</time>
      </trkpt>
      <trkpt lat="45.84694" lon="4.35244">
        <ele>801.2</ele>
        <time>2025-09-09T16:02:19Z</time>
      </trkpt>
      <trkpt lat="45.8469" lon="4.35244">
        <ele>801.2</ele>
        <time>2025-09-09T16:02:20Z</time>
      </trkpt>
      <trkpt lat="45.84686" lon="4.35244">
        <ele>800.8</ele>
        <time>2025-09-09T16:02:21Z</time>
      </trkpt>
      <trkpt lat="45.84683" lon="4.35245">
        <ele>800.4</ele>
        <time>2025-09-09T16:02:22Z</time>
      </trkpt>
      <trkpt lat="45.84679" lon="4.35245">
        <ele>800</ele>
        <time>2025-09-09T16:02:23Z</time>
      </trkpt>
      <trkpt lat="45.84675" lon="4.35245">
        <ele>800</ele>
        <time>2025-09-09T16:02:24Z</time>
      </trkpt>
      <trkpt lat="45.84673" lon="4.35246">
        <ele>799.6</ele>
        <time>2025-09-09T16:02:25Z</time>
      </trkpt>
      <trkpt lat="45.8467" lon="4.35247">
        <ele>799.4</ele>
        <time>2025-09-09T16:02:26Z</time>
      </trkpt>
      <trkpt lat="45.84667" lon="4.35247">
        <ele>799.4</ele>
        <time>2025-09-09T16:02:27Z</time>
      </trkpt>
      <trkpt lat="45.84665" lon="4.35246">
        <ele>799.2</ele>
        <time>2025-09-09T16:02:28Z</time>
      </trkpt>
      <trkpt lat="45.84663" lon="4.35243">
        <ele>799</ele>
        <time>2025-09-09T16:02:29Z</time>
      </trkpt>
      <trkpt lat="45.84662" lon="4.35241">
        <ele>799</ele>
        <time>2025-09-09T16:02:30Z</time>
      </trkpt>
      <trkpt lat="45.84661" lon="4.35238">
        <ele>798.8</ele>
        <time>2025-09-09T16:02:31Z</time>
      </trkpt>
      <trkpt lat="45.84661" lon="4.35235">
        <ele>798.8</ele>
        <time>2025-09-09T16:02:32Z</time>
      </trkpt>
      <trkpt lat="45.84661" lon="4.35233">
        <ele>798.8</ele>
        <time>2025-09-09T16:02:33Z</time>
      </trkpt>
      <trkpt lat="45.84662" lon="4.35231">
        <ele>798.8</ele>
        <time>2025-09-09T16:02:34Z</time>
      </trkpt>
      <trkpt lat="45.84662" lon="4.35229">
        <ele>798.8</ele>
        <time>2025-09-09T16:02:35Z</time>
      </trkpt>
      <trkpt lat="45.84663" lon="4.35226">
        <ele>798.8</ele>
        <time>2025-09-09T16:02:36Z</time>
      </trkpt>
      <trkpt lat="45.84662" lon="4.35223">
        <ele>798.8</ele>
        <time>2025-09-09T16:02:37Z</time>
      </trkpt>
      <trkpt lat="45.84662" lon="4.35221">
        <ele>798.8</ele>
        <time>2025-09-09T16:02:38Z</time>
      </trkpt>
      <trkpt lat="45.84662" lon="4.35219">
        <ele>798.8</ele>
        <time>2025-09-09T16:02:39Z</time>
      </trkpt>
      <trkpt lat="45.84662" lon="4.35217">
        <ele>798.8</ele>
        <time>2025-09-09T16:02:40Z</time>
      </trkpt>
      <trkpt lat="45.84661" lon="4.35214">
        <ele>798.8</ele>
        <time>2025-09-09T16:02:41Z</time>
      </trkpt>
      <trkpt lat="45.84661" lon="4.35211">
        <ele>798.8</ele>
        <time>2025-09-09T16:02:42Z</time>
      </trkpt>
      <trkpt lat="45.84661" lon="4.35208">
        <ele>798.8</ele>
        <time>2025-09-09T16:02:43Z</time>
      </trkpt>
      <trkpt lat="45.84661" lon="4.35206">
        <ele>798.6</ele>
        <time>2025-09-09T16:02:44Z</time>
      </trkpt>
      <trkpt lat="45.84662" lon="4.35205">
        <ele>798.6</ele>
        <time>2025-09-09T16:02:45Z</time>
      </trkpt>
      <trkpt lat="45.84662" lon="4.35204">
        <ele>798.6</ele>
        <time>2025-09-09T16:02:46Z</time>
      </trkpt>
      <trkpt lat="45.84663" lon="4.35204">
        <ele>798.6</ele>
        <time>2025-09-09T16:02:47Z</time>
      </trkpt>
      <trkpt lat="45.84663" lon="4.35205">
        <ele>798.6</ele>
        <time>2025-09-09T16:02:48Z</time>
      </trkpt>
      <trkpt lat="45.84664" lon="4.35204">
        <ele>798.8</ele>
        <time>2025-09-09T16:02:51Z</time>
      </trkpt>
      <trkpt lat="45.84664" lon="4.35204">
        <ele>798.6</ele>
        <time>2025-09-09T16:02:52Z</time>
      </trkpt>
      <trkpt lat="45.84665" lon="4.35203">
        <ele>798.6</ele>
        <time>2025-09-09T16:02:53Z</time>
      </trkpt>
      <trkpt lat="45.84665" lon="4.35203">
        <ele>798.6</ele>
        <time>2025-09-09T16:02:54Z</time>
      </trkpt>
      <trkpt lat="45.84665" lon="4.35201">
        <ele>798.6</ele>
        <time>2025-09-09T16:03:04Z</time>
      </trkpt>
      <trkpt lat="45.84665" lon="4.352">
        <ele>798.2</ele>
        <time>2025-09-09T16:03:05Z</time>
      </trkpt>
      <trkpt lat="45.84666" lon="4.35199">
        <ele>798.2</ele>
        <time>2025-09-09T16:03:06Z</time>
      </trkpt>
      <trkpt lat="45.84667" lon="4.35199">
        <ele>798.2</ele>
        <time>2025-09-09T16:03:07Z</time>
      </trkpt>
      <trkpt lat="45.84668" lon="4.35198">
        <ele>797.8</ele>
        <time>2025-09-09T16:03:08Z</time>
      </trkpt>
      <trkpt lat="45.84669" lon="4.35197">
        <ele>797.8</ele>
        <time>2025-09-09T16:03:09Z</time>
      </trkpt>
      <trkpt lat="45.84671" lon="4.35196">
        <ele>797.8</ele>
        <time>2025-09-09T16:03:10Z</time>
      </trkpt>
      <trkpt lat="45.84673" lon="4.35194">
        <ele>797.6</ele>
        <time>2025-09-09T16:03:11Z</time>
      </trkpt>
      <trkpt lat="45.84675" lon="4.35192">
        <ele>797.2</ele>
        <time>2025-09-09T16:03:12Z</time>
      </trkpt>
      <trkpt lat="45.84677" lon="4.3519">
        <ele>797.2</ele>
        <time>2025-09-09T16:03:13Z</time>
      </trkpt>
      <trkpt lat="45.84678" lon="4.35188">
        <ele>797.2</ele>
        <time>2025-09-09T16:03:14Z</time>
      </trkpt>
      <trkpt lat="45.84678" lon="4.35186">
        <ele>797.2</ele>
        <time>2025-09-09T16:03:15Z</time>
      </trkpt>
      <trkpt lat="45.84677" lon="4.35184">
        <ele>797</ele>
        <time>2025-09-09T16:03:16Z</time>
      </trkpt>
      <trkpt lat="45.84676" lon="4.35182">
        <ele>797</ele>
        <time>2025-09-09T16:03:17Z</time>
      </trkpt>
      <trkpt lat="45.84675" lon="4.3518">
        <ele>796.6</ele>
        <time>2025-09-09T16:03:18Z</time>
      </trkpt>
      <trkpt lat="45.84674" lon="4.35178">
        <ele>796.4</ele>
        <time>2025-09-09T16:03:19Z</time>
      </trkpt>
      <trkpt lat="45.84673" lon="4.35177">
        <ele>796.4</ele>
        <time>2025-09-09T16:03:20Z</time>
      </trkpt>
      <trkpt lat="45.84673" lon="4.35176">
        <ele>796.2</ele>
        <time>2025-09-09T16:03:21Z</time>
      </trkpt>
      <trkpt lat="45.84673" lon="4.35177">
        <ele>796.2</ele>
        <time>2025-09-09T16:03:22Z</time>
      </trkpt>
      <trkpt lat="45.84671" lon="4.35178">
        <ele>795.8</ele>
        <time>2025-09-09T16:03:32Z</time>
      </trkpt>
      <trkpt lat="45.84671" lon="4.35178">
        <ele>795.8</ele>
        <time>2025-09-09T16:03:33Z</time>
      </trkpt>
      <trkpt lat="45.84671" lon="4.35178">
        <ele>795.8</ele>
        <time>2025-09-09T16:03:34Z</time>
      </trkpt>
      <trkpt lat="45.8467" lon="4.35179">
        <ele>795.6</ele>
        <time>2025-09-09T16:03:35Z</time>
      </trkpt>
      <trkpt lat="45.8467" lon="4.35179">
        <ele>795.6</ele>
        <time>2025-09-09T16:03:36Z</time>
      </trkpt>
      <trkpt lat="45.84671" lon="4.3518">
        <ele>795.6</ele>
        <time>2025-09-09T16:03:37Z</time>
      </trkpt>
      <trkpt lat="45.84671" lon="4.35181">
        <ele>795.6</ele>
        <time>2025-09-09T16:03:38Z</time>
      </trkpt>
      <trkpt lat="45.84671" lon="4.35181">
        <ele>795.6</ele>
        <time>2025-09-09T16:03:39Z</time>
      </trkpt>
      <trkpt lat="45.84672" lon="4.35182">
        <ele>795.6</ele>
        <time>2025-09-09T16:03:40Z</time>
      </trkpt>
    </trkseg>
  </trk>
</gpx>